<?xml version="1.0" encoding="UTF-8" standalone="no" ?>
<gpx xmlns="http://www.topografix.com/GPX/1/1" xmlns:xsi="http://www.w3.org/2001/XMLSchema-instance" xsi:schemaLocation="http://www.topografix.com/GPX/1/1 http://www.topografix.com/GPX/1/1/gpx.xsd" version="1.1" creator="VisuGPX - https://www.visugpx.com">
  <metadata>
    <name>Gréoux-Valensole, grand tour</name>
  </metadata>
  <trk>
    <name><![CDATA[Gréoux-Valensole, grand tour]]></name>
    <trkseg>
      <trkpt lat="43.76206" lon="5.89027">
        <ele>328.7</ele>
        <time>2020-06-20T14:43:49Z</time>
      </trkpt>
      <trkpt lat="43.76206" lon="5.89025">
        <ele>328.8</ele>
        <time>2020-06-20T14:43:50Z</time>
      </trkpt>
      <trkpt lat="43.76207" lon="5.89022">
        <ele>328.8</ele>
        <time>2020-06-20T14:43:51Z</time>
      </trkpt>
      <trkpt lat="43.76208" lon="5.89021">
        <ele>328.9</ele>
        <time>2020-06-20T14:43:52Z</time>
      </trkpt>
      <trkpt lat="43.76211" lon="5.89017">
        <ele>329</ele>
        <time>2020-06-20T14:43:54Z</time>
      </trkpt>
      <trkpt lat="43.76214" lon="5.89015">
        <ele>329.2</ele>
        <time>2020-06-20T14:43:55Z</time>
      </trkpt>
      <trkpt lat="43.76219" lon="5.89012">
        <ele>329.4</ele>
        <time>2020-06-20T14:43:57Z</time>
      </trkpt>
      <trkpt lat="43.76225" lon="5.89009">
        <ele>329.6</ele>
        <time>2020-06-20T14:43:58Z</time>
      </trkpt>
      <trkpt lat="43.76228" lon="5.89006">
        <ele>329.7</ele>
        <time>2020-06-20T14:44:00Z</time>
      </trkpt>
      <trkpt lat="43.76231" lon="5.89005">
        <ele>329.8</ele>
        <time>2020-06-20T14:44:01Z</time>
      </trkpt>
      <trkpt lat="43.76234" lon="5.89002">
        <ele>329.9</ele>
        <time>2020-06-20T14:44:03Z</time>
      </trkpt>
      <trkpt lat="43.76234" lon="5.89001">
        <ele>329.9</ele>
        <time>2020-06-20T14:44:05Z</time>
      </trkpt>
      <trkpt lat="43.76234" lon="5.89002">
        <ele>329.9</ele>
        <time>2020-06-20T14:44:07Z</time>
      </trkpt>
      <trkpt lat="43.76233" lon="5.89002">
        <ele>329.9</ele>
        <time>2020-06-20T14:44:09Z</time>
      </trkpt>
      <trkpt lat="43.76233" lon="5.89003">
        <ele>329.9</ele>
        <time>2020-06-20T14:44:10Z</time>
      </trkpt>
      <trkpt lat="43.76232" lon="5.89003">
        <ele>329.9</ele>
        <time>2020-06-20T14:44:12Z</time>
      </trkpt>
      <trkpt lat="43.76232" lon="5.89004">
        <ele>329.9</ele>
        <time>2020-06-20T14:44:13Z</time>
      </trkpt>
      <trkpt lat="43.76231" lon="5.89004">
        <ele>329.8</ele>
        <time>2020-06-20T14:44:14Z</time>
      </trkpt>
      <trkpt lat="43.76231" lon="5.89005">
        <ele>329.8</ele>
        <time>2020-06-20T14:44:15Z</time>
      </trkpt>
      <trkpt lat="43.7623" lon="5.89005">
        <ele>329.8</ele>
        <time>2020-06-20T14:44:16Z</time>
      </trkpt>
      <trkpt lat="43.76229" lon="5.89006">
        <ele>329.8</ele>
        <time>2020-06-20T14:44:17Z</time>
      </trkpt>
      <trkpt lat="43.76229" lon="5.89006">
        <ele>329.8</ele>
        <time>2020-06-20T14:44:18Z</time>
      </trkpt>
      <trkpt lat="43.76228" lon="5.89006">
        <ele>329.8</ele>
        <time>2020-06-20T14:44:19Z</time>
      </trkpt>
      <trkpt lat="43.76228" lon="5.89007">
        <ele>329.8</ele>
        <time>2020-06-20T14:44:21Z</time>
      </trkpt>
      <trkpt lat="43.76227" lon="5.89007">
        <ele>329.8</ele>
        <time>2020-06-20T14:44:22Z</time>
      </trkpt>
      <trkpt lat="43.76224" lon="5.89012">
        <ele>329.7</ele>
        <time>2020-06-20T14:44:24Z</time>
      </trkpt>
      <trkpt lat="43.76222" lon="5.89014">
        <ele>329.7</ele>
        <time>2020-06-20T14:44:25Z</time>
      </trkpt>
      <trkpt lat="43.7622" lon="5.89016">
        <ele>329.7</ele>
        <time>2020-06-20T14:44:27Z</time>
      </trkpt>
      <trkpt lat="43.76221" lon="5.89019">
        <ele>329.7</ele>
        <time>2020-06-20T14:44:28Z</time>
      </trkpt>
      <trkpt lat="43.76229" lon="5.89024">
        <ele>329.6</ele>
        <time>2020-06-20T14:44:29Z</time>
      </trkpt>
      <trkpt lat="43.76237" lon="5.89025">
        <ele>329.5</ele>
        <time>2020-06-20T14:44:30Z</time>
      </trkpt>
      <trkpt lat="43.76244" lon="5.89027">
        <ele>329.5</ele>
        <time>2020-06-20T14:44:31Z</time>
      </trkpt>
      <trkpt lat="43.76249" lon="5.8903">
        <ele>329.4</ele>
        <time>2020-06-20T14:44:32Z</time>
      </trkpt>
      <trkpt lat="43.76254" lon="5.89033">
        <ele>329.3</ele>
        <time>2020-06-20T14:44:34Z</time>
      </trkpt>
      <trkpt lat="43.76257" lon="5.89034">
        <ele>329.3</ele>
        <time>2020-06-20T14:44:35Z</time>
      </trkpt>
      <trkpt lat="43.76261" lon="5.89036">
        <ele>329.1</ele>
        <time>2020-06-20T14:44:36Z</time>
      </trkpt>
      <trkpt lat="43.76265" lon="5.89038">
        <ele>329.4</ele>
        <time>2020-06-20T14:44:37Z</time>
      </trkpt>
      <trkpt lat="43.7627" lon="5.89041">
        <ele>329.7</ele>
        <time>2020-06-20T14:44:39Z</time>
      </trkpt>
      <trkpt lat="43.76273" lon="5.89044">
        <ele>330</ele>
        <time>2020-06-20T14:44:40Z</time>
      </trkpt>
      <trkpt lat="43.76276" lon="5.89046">
        <ele>330.2</ele>
        <time>2020-06-20T14:44:41Z</time>
      </trkpt>
      <trkpt lat="43.7628" lon="5.89048">
        <ele>330.5</ele>
        <time>2020-06-20T14:44:42Z</time>
      </trkpt>
      <trkpt lat="43.76281" lon="5.8905">
        <ele>330.4</ele>
        <time>2020-06-20T14:44:43Z</time>
      </trkpt>
      <trkpt lat="43.76284" lon="5.89053">
        <ele>330.4</ele>
        <time>2020-06-20T14:44:44Z</time>
      </trkpt>
      <trkpt lat="43.76288" lon="5.89057">
        <ele>330.3</ele>
        <time>2020-06-20T14:44:46Z</time>
      </trkpt>
      <trkpt lat="43.76292" lon="5.8906">
        <ele>330.2</ele>
        <time>2020-06-20T14:44:47Z</time>
      </trkpt>
      <trkpt lat="43.76296" lon="5.89063">
        <ele>330.1</ele>
        <time>2020-06-20T14:44:48Z</time>
      </trkpt>
      <trkpt lat="43.76301" lon="5.89067">
        <ele>330.1</ele>
        <time>2020-06-20T14:44:49Z</time>
      </trkpt>
      <trkpt lat="43.76306" lon="5.89071">
        <ele>330.1</ele>
        <time>2020-06-20T14:44:51Z</time>
      </trkpt>
      <trkpt lat="43.7631" lon="5.89074">
        <ele>330.1</ele>
        <time>2020-06-20T14:44:52Z</time>
      </trkpt>
      <trkpt lat="43.76316" lon="5.89079">
        <ele>330.2</ele>
        <time>2020-06-20T14:44:53Z</time>
      </trkpt>
      <trkpt lat="43.76319" lon="5.89082">
        <ele>330.2</ele>
        <time>2020-06-20T14:44:54Z</time>
      </trkpt>
      <trkpt lat="43.76323" lon="5.89084">
        <ele>330.2</ele>
        <time>2020-06-20T14:44:55Z</time>
      </trkpt>
      <trkpt lat="43.76328" lon="5.89087">
        <ele>330.2</ele>
        <time>2020-06-20T14:44:57Z</time>
      </trkpt>
      <trkpt lat="43.76333" lon="5.89092">
        <ele>330.3</ele>
        <time>2020-06-20T14:44:59Z</time>
      </trkpt>
      <trkpt lat="43.76336" lon="5.89095">
        <ele>330.3</ele>
        <time>2020-06-20T14:45:00Z</time>
      </trkpt>
      <trkpt lat="43.76339" lon="5.89098">
        <ele>330.3</ele>
        <time>2020-06-20T14:45:01Z</time>
      </trkpt>
      <trkpt lat="43.76343" lon="5.89101">
        <ele>330.3</ele>
        <time>2020-06-20T14:45:03Z</time>
      </trkpt>
      <trkpt lat="43.76346" lon="5.89104">
        <ele>330.4</ele>
        <time>2020-06-20T14:45:04Z</time>
      </trkpt>
      <trkpt lat="43.76349" lon="5.89106">
        <ele>330.4</ele>
        <time>2020-06-20T14:45:05Z</time>
      </trkpt>
      <trkpt lat="43.76353" lon="5.89109">
        <ele>330.5</ele>
        <time>2020-06-20T14:45:06Z</time>
      </trkpt>
      <trkpt lat="43.76358" lon="5.89113">
        <ele>330.5</ele>
        <time>2020-06-20T14:45:08Z</time>
      </trkpt>
      <trkpt lat="43.76364" lon="5.89117">
        <ele>330.6</ele>
        <time>2020-06-20T14:45:09Z</time>
      </trkpt>
      <trkpt lat="43.76368" lon="5.8912">
        <ele>330.7</ele>
        <time>2020-06-20T14:45:11Z</time>
      </trkpt>
      <trkpt lat="43.76374" lon="5.89126">
        <ele>330.8</ele>
        <time>2020-06-20T14:45:12Z</time>
      </trkpt>
      <trkpt lat="43.76381" lon="5.89133">
        <ele>330.9</ele>
        <time>2020-06-20T14:45:14Z</time>
      </trkpt>
      <trkpt lat="43.76385" lon="5.89137">
        <ele>331</ele>
        <time>2020-06-20T14:45:15Z</time>
      </trkpt>
      <trkpt lat="43.76389" lon="5.89142">
        <ele>331.1</ele>
        <time>2020-06-20T14:45:16Z</time>
      </trkpt>
      <trkpt lat="43.76394" lon="5.89147">
        <ele>331.1</ele>
        <time>2020-06-20T14:45:17Z</time>
      </trkpt>
      <trkpt lat="43.764" lon="5.89152">
        <ele>331.1</ele>
        <time>2020-06-20T14:45:19Z</time>
      </trkpt>
      <trkpt lat="43.76404" lon="5.89156">
        <ele>331.2</ele>
        <time>2020-06-20T14:45:20Z</time>
      </trkpt>
      <trkpt lat="43.76407" lon="5.89158">
        <ele>331.2</ele>
        <time>2020-06-20T14:45:21Z</time>
      </trkpt>
      <trkpt lat="43.76413" lon="5.89163">
        <ele>331.2</ele>
        <time>2020-06-20T14:45:23Z</time>
      </trkpt>
      <trkpt lat="43.76417" lon="5.89167">
        <ele>331.3</ele>
        <time>2020-06-20T14:45:25Z</time>
      </trkpt>
      <trkpt lat="43.76421" lon="5.89172">
        <ele>331.4</ele>
        <time>2020-06-20T14:45:26Z</time>
      </trkpt>
      <trkpt lat="43.76423" lon="5.89174">
        <ele>331.4</ele>
        <time>2020-06-20T14:45:27Z</time>
      </trkpt>
      <trkpt lat="43.76427" lon="5.89177">
        <ele>331.5</ele>
        <time>2020-06-20T14:45:28Z</time>
      </trkpt>
      <trkpt lat="43.76431" lon="5.8918">
        <ele>331.5</ele>
        <time>2020-06-20T14:45:30Z</time>
      </trkpt>
      <trkpt lat="43.76435" lon="5.89184">
        <ele>331.5</ele>
        <time>2020-06-20T14:45:31Z</time>
      </trkpt>
      <trkpt lat="43.76438" lon="5.89187">
        <ele>331.5</ele>
        <time>2020-06-20T14:45:32Z</time>
      </trkpt>
      <trkpt lat="43.76441" lon="5.89191">
        <ele>331.5</ele>
        <time>2020-06-20T14:45:33Z</time>
      </trkpt>
      <trkpt lat="43.76444" lon="5.89196">
        <ele>331.5</ele>
        <time>2020-06-20T14:45:34Z</time>
      </trkpt>
      <trkpt lat="43.76446" lon="5.89201">
        <ele>331.5</ele>
        <time>2020-06-20T14:45:35Z</time>
      </trkpt>
      <trkpt lat="43.76449" lon="5.89206">
        <ele>331.6</ele>
        <time>2020-06-20T14:45:37Z</time>
      </trkpt>
      <trkpt lat="43.76451" lon="5.89211">
        <ele>331.6</ele>
        <time>2020-06-20T14:45:38Z</time>
      </trkpt>
      <trkpt lat="43.76453" lon="5.89216">
        <ele>331.6</ele>
        <time>2020-06-20T14:45:39Z</time>
      </trkpt>
      <trkpt lat="43.76456" lon="5.89222">
        <ele>331.6</ele>
        <time>2020-06-20T14:45:41Z</time>
      </trkpt>
      <trkpt lat="43.76459" lon="5.89228">
        <ele>331.6</ele>
        <time>2020-06-20T14:45:42Z</time>
      </trkpt>
      <trkpt lat="43.76464" lon="5.89237">
        <ele>331.6</ele>
        <time>2020-06-20T14:45:44Z</time>
      </trkpt>
      <trkpt lat="43.76467" lon="5.89242">
        <ele>331.6</ele>
        <time>2020-06-20T14:45:45Z</time>
      </trkpt>
      <trkpt lat="43.76469" lon="5.89246">
        <ele>331.6</ele>
        <time>2020-06-20T14:45:46Z</time>
      </trkpt>
      <trkpt lat="43.76472" lon="5.8925">
        <ele>331.6</ele>
        <time>2020-06-20T14:45:48Z</time>
      </trkpt>
      <trkpt lat="43.76476" lon="5.89258">
        <ele>331.7</ele>
        <time>2020-06-20T14:45:49Z</time>
      </trkpt>
      <trkpt lat="43.76478" lon="5.89263">
        <ele>331.8</ele>
        <time>2020-06-20T14:45:51Z</time>
      </trkpt>
      <trkpt lat="43.7648" lon="5.89268">
        <ele>331.8</ele>
        <time>2020-06-20T14:45:52Z</time>
      </trkpt>
      <trkpt lat="43.76482" lon="5.89273">
        <ele>331.9</ele>
        <time>2020-06-20T14:45:53Z</time>
      </trkpt>
      <trkpt lat="43.76486" lon="5.8928">
        <ele>331.9</ele>
        <time>2020-06-20T14:45:55Z</time>
      </trkpt>
      <trkpt lat="43.76489" lon="5.89286">
        <ele>331.9</ele>
        <time>2020-06-20T14:45:56Z</time>
      </trkpt>
      <trkpt lat="43.76492" lon="5.89292">
        <ele>331.9</ele>
        <time>2020-06-20T14:45:57Z</time>
      </trkpt>
      <trkpt lat="43.76496" lon="5.89301">
        <ele>332.1</ele>
        <time>2020-06-20T14:45:59Z</time>
      </trkpt>
      <trkpt lat="43.76498" lon="5.89307">
        <ele>332.2</ele>
        <time>2020-06-20T14:46:00Z</time>
      </trkpt>
      <trkpt lat="43.76501" lon="5.89314">
        <ele>332.3</ele>
        <time>2020-06-20T14:46:02Z</time>
      </trkpt>
      <trkpt lat="43.76505" lon="5.8932">
        <ele>332.5</ele>
        <time>2020-06-20T14:46:03Z</time>
      </trkpt>
      <trkpt lat="43.76509" lon="5.89326">
        <ele>332.6</ele>
        <time>2020-06-20T14:46:05Z</time>
      </trkpt>
      <trkpt lat="43.76512" lon="5.8933">
        <ele>332.8</ele>
        <time>2020-06-20T14:46:06Z</time>
      </trkpt>
      <trkpt lat="43.76517" lon="5.89335">
        <ele>333</ele>
        <time>2020-06-20T14:46:08Z</time>
      </trkpt>
      <trkpt lat="43.76521" lon="5.89338">
        <ele>333.2</ele>
        <time>2020-06-20T14:46:09Z</time>
      </trkpt>
      <trkpt lat="43.76525" lon="5.89341">
        <ele>333.4</ele>
        <time>2020-06-20T14:46:11Z</time>
      </trkpt>
      <trkpt lat="43.76529" lon="5.89344">
        <ele>333.6</ele>
        <time>2020-06-20T14:46:12Z</time>
      </trkpt>
      <trkpt lat="43.76532" lon="5.89348">
        <ele>333.8</ele>
        <time>2020-06-20T14:46:13Z</time>
      </trkpt>
      <trkpt lat="43.76536" lon="5.89353">
        <ele>334.1</ele>
        <time>2020-06-20T14:46:14Z</time>
      </trkpt>
      <trkpt lat="43.7654" lon="5.89356">
        <ele>334.3</ele>
        <time>2020-06-20T14:46:16Z</time>
      </trkpt>
      <trkpt lat="43.76542" lon="5.8936">
        <ele>334.5</ele>
        <time>2020-06-20T14:46:17Z</time>
      </trkpt>
      <trkpt lat="43.76543" lon="5.89361">
        <ele>334.5</ele>
        <time>2020-06-20T14:46:18Z</time>
      </trkpt>
      <trkpt lat="43.76545" lon="5.89365">
        <ele>334.6</ele>
        <time>2020-06-20T14:46:19Z</time>
      </trkpt>
      <trkpt lat="43.76547" lon="5.8937">
        <ele>334.7</ele>
        <time>2020-06-20T14:46:21Z</time>
      </trkpt>
      <trkpt lat="43.76549" lon="5.89374">
        <ele>334.7</ele>
        <time>2020-06-20T14:46:22Z</time>
      </trkpt>
      <trkpt lat="43.7655" lon="5.89379">
        <ele>334.7</ele>
        <time>2020-06-20T14:46:23Z</time>
      </trkpt>
      <trkpt lat="43.76551" lon="5.89383">
        <ele>334.7</ele>
        <time>2020-06-20T14:46:24Z</time>
      </trkpt>
      <trkpt lat="43.76552" lon="5.89391">
        <ele>334.7</ele>
        <time>2020-06-20T14:46:25Z</time>
      </trkpt>
      <trkpt lat="43.76552" lon="5.89399">
        <ele>334.7</ele>
        <time>2020-06-20T14:46:27Z</time>
      </trkpt>
      <trkpt lat="43.76552" lon="5.89405">
        <ele>334.6</ele>
        <time>2020-06-20T14:46:29Z</time>
      </trkpt>
      <trkpt lat="43.7655" lon="5.89412">
        <ele>334.5</ele>
        <time>2020-06-20T14:46:30Z</time>
      </trkpt>
      <trkpt lat="43.76545" lon="5.89422">
        <ele>334.4</ele>
        <time>2020-06-20T14:46:31Z</time>
      </trkpt>
      <trkpt lat="43.76538" lon="5.89435">
        <ele>334.4</ele>
        <time>2020-06-20T14:46:33Z</time>
      </trkpt>
      <trkpt lat="43.76534" lon="5.89434">
        <ele>334.4</ele>
        <time>2020-06-20T14:46:34Z</time>
      </trkpt>
      <trkpt lat="43.7653" lon="5.89433">
        <ele>334.5</ele>
        <time>2020-06-20T14:46:36Z</time>
      </trkpt>
      <trkpt lat="43.76526" lon="5.89434">
        <ele>334.6</ele>
        <time>2020-06-20T14:46:37Z</time>
      </trkpt>
      <trkpt lat="43.76524" lon="5.89432">
        <ele>334.7</ele>
        <time>2020-06-20T14:46:38Z</time>
      </trkpt>
      <trkpt lat="43.76523" lon="5.89431">
        <ele>334.8</ele>
        <time>2020-06-20T14:46:39Z</time>
      </trkpt>
      <trkpt lat="43.76521" lon="5.89429">
        <ele>334.9</ele>
        <time>2020-06-20T14:46:41Z</time>
      </trkpt>
      <trkpt lat="43.7652" lon="5.89429">
        <ele>335</ele>
        <time>2020-06-20T14:46:42Z</time>
      </trkpt>
      <trkpt lat="43.76517" lon="5.89429">
        <ele>335.2</ele>
        <time>2020-06-20T14:46:43Z</time>
      </trkpt>
      <trkpt lat="43.76516" lon="5.8943">
        <ele>335.3</ele>
        <time>2020-06-20T14:46:45Z</time>
      </trkpt>
      <trkpt lat="43.76515" lon="5.89431">
        <ele>335.4</ele>
        <time>2020-06-20T14:46:46Z</time>
      </trkpt>
      <trkpt lat="43.76513" lon="5.89432">
        <ele>335.6</ele>
        <time>2020-06-20T14:46:47Z</time>
      </trkpt>
      <trkpt lat="43.76512" lon="5.89432">
        <ele>335.7</ele>
        <time>2020-06-20T14:46:48Z</time>
      </trkpt>
      <trkpt lat="43.76511" lon="5.89432">
        <ele>335.8</ele>
        <time>2020-06-20T14:46:50Z</time>
      </trkpt>
      <trkpt lat="43.7651" lon="5.89433">
        <ele>335.9</ele>
        <time>2020-06-20T14:46:51Z</time>
      </trkpt>
      <trkpt lat="43.76509" lon="5.89433">
        <ele>336</ele>
        <time>2020-06-20T14:46:52Z</time>
      </trkpt>
      <trkpt lat="43.76508" lon="5.89433">
        <ele>336.1</ele>
        <time>2020-06-20T14:46:54Z</time>
      </trkpt>
      <trkpt lat="43.76507" lon="5.89433">
        <ele>336.2</ele>
        <time>2020-06-20T14:46:55Z</time>
      </trkpt>
      <trkpt lat="43.76506" lon="5.89433">
        <ele>336.3</ele>
        <time>2020-06-20T14:46:56Z</time>
      </trkpt>
      <trkpt lat="43.76505" lon="5.89433">
        <ele>336.4</ele>
        <time>2020-06-20T14:46:58Z</time>
      </trkpt>
      <trkpt lat="43.76504" lon="5.89433">
        <ele>336.5</ele>
        <time>2020-06-20T14:46:59Z</time>
      </trkpt>
      <trkpt lat="43.76504" lon="5.89433">
        <ele>336.6</ele>
        <time>2020-06-20T14:47:00Z</time>
      </trkpt>
      <trkpt lat="43.76503" lon="5.89434">
        <ele>336.7</ele>
        <time>2020-06-20T14:47:02Z</time>
      </trkpt>
      <trkpt lat="43.76503" lon="5.89436">
        <ele>336.8</ele>
        <time>2020-06-20T14:47:03Z</time>
      </trkpt>
      <trkpt lat="43.76502" lon="5.89437">
        <ele>336.9</ele>
        <time>2020-06-20T14:47:04Z</time>
      </trkpt>
      <trkpt lat="43.76502" lon="5.89439">
        <ele>337.1</ele>
        <time>2020-06-20T14:47:06Z</time>
      </trkpt>
      <trkpt lat="43.76502" lon="5.8944">
        <ele>337.2</ele>
        <time>2020-06-20T14:47:07Z</time>
      </trkpt>
      <trkpt lat="43.76503" lon="5.89441">
        <ele>337.2</ele>
        <time>2020-06-20T14:47:08Z</time>
      </trkpt>
      <trkpt lat="43.76502" lon="5.89442">
        <ele>337.3</ele>
        <time>2020-06-20T14:47:09Z</time>
      </trkpt>
      <trkpt lat="43.76502" lon="5.89443">
        <ele>337.4</ele>
        <time>2020-06-20T14:47:11Z</time>
      </trkpt>
      <trkpt lat="43.76501" lon="5.89444">
        <ele>337.5</ele>
        <time>2020-06-20T14:47:12Z</time>
      </trkpt>
      <trkpt lat="43.76501" lon="5.89445">
        <ele>337.6</ele>
        <time>2020-06-20T14:47:14Z</time>
      </trkpt>
      <trkpt lat="43.765" lon="5.89445">
        <ele>337.7</ele>
        <time>2020-06-20T14:47:15Z</time>
      </trkpt>
      <trkpt lat="43.76501" lon="5.89449">
        <ele>338.2</ele>
        <time>2020-06-20T14:47:17Z</time>
      </trkpt>
      <trkpt lat="43.76501" lon="5.89451">
        <ele>338.3</ele>
        <time>2020-06-20T14:47:18Z</time>
      </trkpt>
      <trkpt lat="43.76502" lon="5.89454">
        <ele>338.4</ele>
        <time>2020-06-20T14:47:19Z</time>
      </trkpt>
      <trkpt lat="43.76503" lon="5.89455">
        <ele>338.4</ele>
        <time>2020-06-20T14:47:20Z</time>
      </trkpt>
      <trkpt lat="43.76505" lon="5.89461">
        <ele>338.5</ele>
        <time>2020-06-20T14:47:22Z</time>
      </trkpt>
      <trkpt lat="43.76516" lon="5.89468">
        <ele>338.9</ele>
        <time>2020-06-20T14:47:24Z</time>
      </trkpt>
      <trkpt lat="43.76522" lon="5.89471">
        <ele>339</ele>
        <time>2020-06-20T14:47:25Z</time>
      </trkpt>
      <trkpt lat="43.76528" lon="5.89476">
        <ele>339.2</ele>
        <time>2020-06-20T14:47:27Z</time>
      </trkpt>
      <trkpt lat="43.7653" lon="5.8948">
        <ele>339.3</ele>
        <time>2020-06-20T14:47:28Z</time>
      </trkpt>
      <trkpt lat="43.76533" lon="5.89485">
        <ele>339.4</ele>
        <time>2020-06-20T14:47:30Z</time>
      </trkpt>
      <trkpt lat="43.76535" lon="5.89487">
        <ele>339.5</ele>
        <time>2020-06-20T14:47:31Z</time>
      </trkpt>
      <trkpt lat="43.7654" lon="5.89492">
        <ele>339.6</ele>
        <time>2020-06-20T14:47:33Z</time>
      </trkpt>
      <trkpt lat="43.76542" lon="5.89494">
        <ele>339.7</ele>
        <time>2020-06-20T14:47:34Z</time>
      </trkpt>
      <trkpt lat="43.76545" lon="5.89496">
        <ele>339.8</ele>
        <time>2020-06-20T14:47:35Z</time>
      </trkpt>
      <trkpt lat="43.76547" lon="5.89498">
        <ele>340</ele>
        <time>2020-06-20T14:47:36Z</time>
      </trkpt>
      <trkpt lat="43.7655" lon="5.89501">
        <ele>340.2</ele>
        <time>2020-06-20T14:47:37Z</time>
      </trkpt>
      <trkpt lat="43.76552" lon="5.89504">
        <ele>340.4</ele>
        <time>2020-06-20T14:47:38Z</time>
      </trkpt>
      <trkpt lat="43.76555" lon="5.89508">
        <ele>340.6</ele>
        <time>2020-06-20T14:47:39Z</time>
      </trkpt>
      <trkpt lat="43.76557" lon="5.89511">
        <ele>340.9</ele>
        <time>2020-06-20T14:47:41Z</time>
      </trkpt>
      <trkpt lat="43.76557" lon="5.89512">
        <ele>340.9</ele>
        <time>2020-06-20T14:47:42Z</time>
      </trkpt>
      <trkpt lat="43.76558" lon="5.89513">
        <ele>341.1</ele>
        <time>2020-06-20T14:47:43Z</time>
      </trkpt>
      <trkpt lat="43.7656" lon="5.89515">
        <ele>341.2</ele>
        <time>2020-06-20T14:47:44Z</time>
      </trkpt>
      <trkpt lat="43.76562" lon="5.89517">
        <ele>341.5</ele>
        <time>2020-06-20T14:47:46Z</time>
      </trkpt>
      <trkpt lat="43.76562" lon="5.89518">
        <ele>341.5</ele>
        <time>2020-06-20T14:47:48Z</time>
      </trkpt>
      <trkpt lat="43.76563" lon="5.89518">
        <ele>341.6</ele>
        <time>2020-06-20T14:47:49Z</time>
      </trkpt>
      <trkpt lat="43.76564" lon="5.89519">
        <ele>341.7</ele>
        <time>2020-06-20T14:47:50Z</time>
      </trkpt>
      <trkpt lat="43.76565" lon="5.89521">
        <ele>341.9</ele>
        <time>2020-06-20T14:47:51Z</time>
      </trkpt>
      <trkpt lat="43.76567" lon="5.89522">
        <ele>342.2</ele>
        <time>2020-06-20T14:47:52Z</time>
      </trkpt>
      <trkpt lat="43.76567" lon="5.89523">
        <ele>342.2</ele>
        <time>2020-06-20T14:47:54Z</time>
      </trkpt>
      <trkpt lat="43.76568" lon="5.89523">
        <ele>342.3</ele>
        <time>2020-06-20T14:47:55Z</time>
      </trkpt>
      <trkpt lat="43.76569" lon="5.89524">
        <ele>342.5</ele>
        <time>2020-06-20T14:47:56Z</time>
      </trkpt>
      <trkpt lat="43.7657" lon="5.89526">
        <ele>342.6</ele>
        <time>2020-06-20T14:47:57Z</time>
      </trkpt>
      <trkpt lat="43.76571" lon="5.89527">
        <ele>342.8</ele>
        <time>2020-06-20T14:47:59Z</time>
      </trkpt>
      <trkpt lat="43.76573" lon="5.89529">
        <ele>343.1</ele>
        <time>2020-06-20T14:48:00Z</time>
      </trkpt>
      <trkpt lat="43.76574" lon="5.89529">
        <ele>343.2</ele>
        <time>2020-06-20T14:48:01Z</time>
      </trkpt>
      <trkpt lat="43.76574" lon="5.8953">
        <ele>343.3</ele>
        <time>2020-06-20T14:48:02Z</time>
      </trkpt>
      <trkpt lat="43.76575" lon="5.89531">
        <ele>343.4</ele>
        <time>2020-06-20T14:48:04Z</time>
      </trkpt>
      <trkpt lat="43.76576" lon="5.89531">
        <ele>343.5</ele>
        <time>2020-06-20T14:48:05Z</time>
      </trkpt>
      <trkpt lat="43.76577" lon="5.89533">
        <ele>343.6</ele>
        <time>2020-06-20T14:48:07Z</time>
      </trkpt>
      <trkpt lat="43.76577" lon="5.89533">
        <ele>343.7</ele>
        <time>2020-06-20T14:48:08Z</time>
      </trkpt>
      <trkpt lat="43.76578" lon="5.89534">
        <ele>343.9</ele>
        <time>2020-06-20T14:48:10Z</time>
      </trkpt>
      <trkpt lat="43.76579" lon="5.89536">
        <ele>344</ele>
        <time>2020-06-20T14:48:11Z</time>
      </trkpt>
      <trkpt lat="43.7658" lon="5.8954">
        <ele>344.4</ele>
        <time>2020-06-20T14:48:13Z</time>
      </trkpt>
      <trkpt lat="43.76581" lon="5.89541">
        <ele>344.5</ele>
        <time>2020-06-20T14:48:14Z</time>
      </trkpt>
      <trkpt lat="43.76582" lon="5.89543">
        <ele>344.6</ele>
        <time>2020-06-20T14:48:15Z</time>
      </trkpt>
      <trkpt lat="43.76583" lon="5.89546">
        <ele>344.9</ele>
        <time>2020-06-20T14:48:17Z</time>
      </trkpt>
      <trkpt lat="43.76585" lon="5.89547">
        <ele>345.3</ele>
        <time>2020-06-20T14:48:18Z</time>
      </trkpt>
      <trkpt lat="43.76586" lon="5.89549">
        <ele>345.5</ele>
        <time>2020-06-20T14:48:19Z</time>
      </trkpt>
      <trkpt lat="43.76588" lon="5.89553">
        <ele>345.8</ele>
        <time>2020-06-20T14:48:20Z</time>
      </trkpt>
      <trkpt lat="43.76589" lon="5.89555">
        <ele>345.9</ele>
        <time>2020-06-20T14:48:21Z</time>
      </trkpt>
      <trkpt lat="43.7659" lon="5.89559">
        <ele>346.3</ele>
        <time>2020-06-20T14:48:22Z</time>
      </trkpt>
      <trkpt lat="43.76591" lon="5.8956">
        <ele>346.4</ele>
        <time>2020-06-20T14:48:23Z</time>
      </trkpt>
      <trkpt lat="43.76592" lon="5.89564">
        <ele>346.7</ele>
        <time>2020-06-20T14:48:25Z</time>
      </trkpt>
      <trkpt lat="43.76593" lon="5.89565">
        <ele>346.8</ele>
        <time>2020-06-20T14:48:26Z</time>
      </trkpt>
      <trkpt lat="43.76595" lon="5.89568">
        <ele>347.1</ele>
        <time>2020-06-20T14:48:27Z</time>
      </trkpt>
      <trkpt lat="43.76596" lon="5.8957">
        <ele>347.3</ele>
        <time>2020-06-20T14:48:29Z</time>
      </trkpt>
      <trkpt lat="43.76597" lon="5.89571">
        <ele>347.5</ele>
        <time>2020-06-20T14:48:30Z</time>
      </trkpt>
      <trkpt lat="43.76598" lon="5.89573">
        <ele>347.6</ele>
        <time>2020-06-20T14:48:31Z</time>
      </trkpt>
      <trkpt lat="43.76599" lon="5.89574">
        <ele>347.8</ele>
        <time>2020-06-20T14:48:32Z</time>
      </trkpt>
      <trkpt lat="43.766" lon="5.89575">
        <ele>348</ele>
        <time>2020-06-20T14:48:33Z</time>
      </trkpt>
      <trkpt lat="43.76602" lon="5.89578">
        <ele>348.3</ele>
        <time>2020-06-20T14:48:35Z</time>
      </trkpt>
      <trkpt lat="43.76603" lon="5.89578">
        <ele>348.4</ele>
        <time>2020-06-20T14:48:36Z</time>
      </trkpt>
      <trkpt lat="43.76605" lon="5.8958">
        <ele>348.6</ele>
        <time>2020-06-20T14:48:37Z</time>
      </trkpt>
      <trkpt lat="43.76606" lon="5.89581">
        <ele>348.7</ele>
        <time>2020-06-20T14:48:38Z</time>
      </trkpt>
      <trkpt lat="43.76607" lon="5.89582">
        <ele>348.9</ele>
        <time>2020-06-20T14:48:40Z</time>
      </trkpt>
      <trkpt lat="43.76609" lon="5.89583">
        <ele>349.1</ele>
        <time>2020-06-20T14:48:41Z</time>
      </trkpt>
      <trkpt lat="43.76612" lon="5.89584">
        <ele>349.4</ele>
        <time>2020-06-20T14:48:42Z</time>
      </trkpt>
      <trkpt lat="43.76613" lon="5.89584">
        <ele>349.4</ele>
        <time>2020-06-20T14:48:43Z</time>
      </trkpt>
      <trkpt lat="43.76615" lon="5.89585">
        <ele>349.6</ele>
        <time>2020-06-20T14:48:44Z</time>
      </trkpt>
      <trkpt lat="43.76616" lon="5.89586">
        <ele>349.7</ele>
        <time>2020-06-20T14:48:46Z</time>
      </trkpt>
      <trkpt lat="43.76619" lon="5.89588">
        <ele>350</ele>
        <time>2020-06-20T14:48:47Z</time>
      </trkpt>
      <trkpt lat="43.76619" lon="5.89589">
        <ele>350</ele>
        <time>2020-06-20T14:48:48Z</time>
      </trkpt>
      <trkpt lat="43.76621" lon="5.89591">
        <ele>350.2</ele>
        <time>2020-06-20T14:48:49Z</time>
      </trkpt>
      <trkpt lat="43.76623" lon="5.89593">
        <ele>350.3</ele>
        <time>2020-06-20T14:48:51Z</time>
      </trkpt>
      <trkpt lat="43.76625" lon="5.89596">
        <ele>350.6</ele>
        <time>2020-06-20T14:48:52Z</time>
      </trkpt>
      <trkpt lat="43.76626" lon="5.89597">
        <ele>350.6</ele>
        <time>2020-06-20T14:48:53Z</time>
      </trkpt>
      <trkpt lat="43.76628" lon="5.896">
        <ele>350.7</ele>
        <time>2020-06-20T14:48:54Z</time>
      </trkpt>
      <trkpt lat="43.7663" lon="5.89604">
        <ele>350.9</ele>
        <time>2020-06-20T14:48:56Z</time>
      </trkpt>
      <trkpt lat="43.76632" lon="5.89608">
        <ele>351</ele>
        <time>2020-06-20T14:48:57Z</time>
      </trkpt>
      <trkpt lat="43.76634" lon="5.89612">
        <ele>351.2</ele>
        <time>2020-06-20T14:48:58Z</time>
      </trkpt>
      <trkpt lat="43.76636" lon="5.89618">
        <ele>351.3</ele>
        <time>2020-06-20T14:49:00Z</time>
      </trkpt>
      <trkpt lat="43.76637" lon="5.8962">
        <ele>351.4</ele>
        <time>2020-06-20T14:49:01Z</time>
      </trkpt>
      <trkpt lat="43.76638" lon="5.89622">
        <ele>351.5</ele>
        <time>2020-06-20T14:49:02Z</time>
      </trkpt>
      <trkpt lat="43.76639" lon="5.89624">
        <ele>351.5</ele>
        <time>2020-06-20T14:49:03Z</time>
      </trkpt>
      <trkpt lat="43.7664" lon="5.89626">
        <ele>351.6</ele>
        <time>2020-06-20T14:49:04Z</time>
      </trkpt>
      <trkpt lat="43.76643" lon="5.8963">
        <ele>351.7</ele>
        <time>2020-06-20T14:49:06Z</time>
      </trkpt>
      <trkpt lat="43.76643" lon="5.89631">
        <ele>351.7</ele>
        <time>2020-06-20T14:49:07Z</time>
      </trkpt>
      <trkpt lat="43.76645" lon="5.89633">
        <ele>351.8</ele>
        <time>2020-06-20T14:49:08Z</time>
      </trkpt>
      <trkpt lat="43.76646" lon="5.89635">
        <ele>351.9</ele>
        <time>2020-06-20T14:49:10Z</time>
      </trkpt>
      <trkpt lat="43.76648" lon="5.89639">
        <ele>352</ele>
        <time>2020-06-20T14:49:11Z</time>
      </trkpt>
      <trkpt lat="43.76649" lon="5.89644">
        <ele>352.1</ele>
        <time>2020-06-20T14:49:13Z</time>
      </trkpt>
      <trkpt lat="43.76652" lon="5.89651">
        <ele>352.3</ele>
        <time>2020-06-20T14:49:15Z</time>
      </trkpt>
      <trkpt lat="43.76654" lon="5.89657">
        <ele>352.5</ele>
        <time>2020-06-20T14:49:16Z</time>
      </trkpt>
      <trkpt lat="43.76655" lon="5.89662">
        <ele>352.7</ele>
        <time>2020-06-20T14:49:18Z</time>
      </trkpt>
      <trkpt lat="43.76655" lon="5.89667">
        <ele>352.9</ele>
        <time>2020-06-20T14:49:19Z</time>
      </trkpt>
      <trkpt lat="43.76656" lon="5.89673">
        <ele>353.1</ele>
        <time>2020-06-20T14:49:21Z</time>
      </trkpt>
      <trkpt lat="43.76657" lon="5.89676">
        <ele>353.2</ele>
        <time>2020-06-20T14:49:22Z</time>
      </trkpt>
      <trkpt lat="43.76658" lon="5.89682">
        <ele>353.4</ele>
        <time>2020-06-20T14:49:23Z</time>
      </trkpt>
      <trkpt lat="43.76658" lon="5.89684">
        <ele>353.5</ele>
        <time>2020-06-20T14:49:24Z</time>
      </trkpt>
      <trkpt lat="43.76659" lon="5.89689">
        <ele>353.7</ele>
        <time>2020-06-20T14:49:26Z</time>
      </trkpt>
      <trkpt lat="43.7666" lon="5.89694">
        <ele>353.9</ele>
        <time>2020-06-20T14:49:27Z</time>
      </trkpt>
      <trkpt lat="43.7666" lon="5.89695">
        <ele>353.9</ele>
        <time>2020-06-20T14:49:28Z</time>
      </trkpt>
      <trkpt lat="43.76661" lon="5.897">
        <ele>354.1</ele>
        <time>2020-06-20T14:49:29Z</time>
      </trkpt>
      <trkpt lat="43.76662" lon="5.89705">
        <ele>354.2</ele>
        <time>2020-06-20T14:49:31Z</time>
      </trkpt>
      <trkpt lat="43.76662" lon="5.8971">
        <ele>354.2</ele>
        <time>2020-06-20T14:49:32Z</time>
      </trkpt>
      <trkpt lat="43.76663" lon="5.89716">
        <ele>354.3</ele>
        <time>2020-06-20T14:49:33Z</time>
      </trkpt>
      <trkpt lat="43.76663" lon="5.89726">
        <ele>354.2</ele>
        <time>2020-06-20T14:49:34Z</time>
      </trkpt>
      <trkpt lat="43.76664" lon="5.89735">
        <ele>354</ele>
        <time>2020-06-20T14:49:36Z</time>
      </trkpt>
      <trkpt lat="43.76666" lon="5.89744">
        <ele>353.7</ele>
        <time>2020-06-20T14:49:38Z</time>
      </trkpt>
      <trkpt lat="43.76668" lon="5.89751">
        <ele>353.4</ele>
        <time>2020-06-20T14:49:39Z</time>
      </trkpt>
      <trkpt lat="43.76671" lon="5.89757">
        <ele>353.2</ele>
        <time>2020-06-20T14:49:40Z</time>
      </trkpt>
      <trkpt lat="43.76674" lon="5.89764">
        <ele>352.9</ele>
        <time>2020-06-20T14:49:41Z</time>
      </trkpt>
      <trkpt lat="43.76679" lon="5.89773">
        <ele>352.7</ele>
        <time>2020-06-20T14:49:43Z</time>
      </trkpt>
      <trkpt lat="43.76683" lon="5.8978">
        <ele>352.6</ele>
        <time>2020-06-20T14:49:45Z</time>
      </trkpt>
      <trkpt lat="43.76686" lon="5.89786">
        <ele>352.5</ele>
        <time>2020-06-20T14:49:46Z</time>
      </trkpt>
      <trkpt lat="43.7669" lon="5.89791">
        <ele>352.4</ele>
        <time>2020-06-20T14:49:47Z</time>
      </trkpt>
      <trkpt lat="43.76693" lon="5.89795">
        <ele>352.3</ele>
        <time>2020-06-20T14:49:48Z</time>
      </trkpt>
      <trkpt lat="43.76696" lon="5.898">
        <ele>352.2</ele>
        <time>2020-06-20T14:49:49Z</time>
      </trkpt>
      <trkpt lat="43.76701" lon="5.89807">
        <ele>352.1</ele>
        <time>2020-06-20T14:49:51Z</time>
      </trkpt>
      <trkpt lat="43.76705" lon="5.89813">
        <ele>351.9</ele>
        <time>2020-06-20T14:49:52Z</time>
      </trkpt>
      <trkpt lat="43.76707" lon="5.89817">
        <ele>351.8</ele>
        <time>2020-06-20T14:49:53Z</time>
      </trkpt>
      <trkpt lat="43.76709" lon="5.89821">
        <ele>351.7</ele>
        <time>2020-06-20T14:49:54Z</time>
      </trkpt>
      <trkpt lat="43.7671" lon="5.89824">
        <ele>351.8</ele>
        <time>2020-06-20T14:49:55Z</time>
      </trkpt>
      <trkpt lat="43.76709" lon="5.89831">
        <ele>351.9</ele>
        <time>2020-06-20T14:49:57Z</time>
      </trkpt>
      <trkpt lat="43.76705" lon="5.89835">
        <ele>352</ele>
        <time>2020-06-20T14:49:58Z</time>
      </trkpt>
      <trkpt lat="43.76702" lon="5.89838">
        <ele>352.1</ele>
        <time>2020-06-20T14:49:59Z</time>
      </trkpt>
      <trkpt lat="43.76698" lon="5.89841">
        <ele>352.2</ele>
        <time>2020-06-20T14:50:00Z</time>
      </trkpt>
      <trkpt lat="43.76695" lon="5.89845">
        <ele>352.4</ele>
        <time>2020-06-20T14:50:01Z</time>
      </trkpt>
      <trkpt lat="43.76692" lon="5.89849">
        <ele>352.5</ele>
        <time>2020-06-20T14:50:03Z</time>
      </trkpt>
      <trkpt lat="43.7669" lon="5.89852">
        <ele>352.7</ele>
        <time>2020-06-20T14:50:04Z</time>
      </trkpt>
      <trkpt lat="43.76687" lon="5.89855">
        <ele>352.8</ele>
        <time>2020-06-20T14:50:05Z</time>
      </trkpt>
      <trkpt lat="43.76686" lon="5.89859">
        <ele>353</ele>
        <time>2020-06-20T14:50:06Z</time>
      </trkpt>
      <trkpt lat="43.76683" lon="5.89863">
        <ele>353.2</ele>
        <time>2020-06-20T14:50:08Z</time>
      </trkpt>
      <trkpt lat="43.76681" lon="5.89867">
        <ele>353.3</ele>
        <time>2020-06-20T14:50:09Z</time>
      </trkpt>
      <trkpt lat="43.76679" lon="5.89871">
        <ele>353.5</ele>
        <time>2020-06-20T14:50:10Z</time>
      </trkpt>
      <trkpt lat="43.76676" lon="5.89875">
        <ele>353.6</ele>
        <time>2020-06-20T14:50:12Z</time>
      </trkpt>
      <trkpt lat="43.76674" lon="5.89878">
        <ele>353.8</ele>
        <time>2020-06-20T14:50:13Z</time>
      </trkpt>
      <trkpt lat="43.76672" lon="5.89881">
        <ele>353.9</ele>
        <time>2020-06-20T14:50:14Z</time>
      </trkpt>
      <trkpt lat="43.76669" lon="5.89885">
        <ele>354.2</ele>
        <time>2020-06-20T14:50:16Z</time>
      </trkpt>
      <trkpt lat="43.76666" lon="5.89888">
        <ele>354.3</ele>
        <time>2020-06-20T14:50:17Z</time>
      </trkpt>
      <trkpt lat="43.76663" lon="5.89892">
        <ele>354.5</ele>
        <time>2020-06-20T14:50:18Z</time>
      </trkpt>
      <trkpt lat="43.76662" lon="5.89893">
        <ele>354.6</ele>
        <time>2020-06-20T14:50:19Z</time>
      </trkpt>
      <trkpt lat="43.76659" lon="5.89897">
        <ele>354.8</ele>
        <time>2020-06-20T14:50:20Z</time>
      </trkpt>
      <trkpt lat="43.76656" lon="5.89901">
        <ele>355</ele>
        <time>2020-06-20T14:50:22Z</time>
      </trkpt>
      <trkpt lat="43.76653" lon="5.89906">
        <ele>355.3</ele>
        <time>2020-06-20T14:50:23Z</time>
      </trkpt>
      <trkpt lat="43.76651" lon="5.89911">
        <ele>355.5</ele>
        <time>2020-06-20T14:50:25Z</time>
      </trkpt>
      <trkpt lat="43.7665" lon="5.89916">
        <ele>355.7</ele>
        <time>2020-06-20T14:50:26Z</time>
      </trkpt>
      <trkpt lat="43.7665" lon="5.89922">
        <ele>356</ele>
        <time>2020-06-20T14:50:27Z</time>
      </trkpt>
      <trkpt lat="43.7665" lon="5.89928">
        <ele>356.3</ele>
        <time>2020-06-20T14:50:29Z</time>
      </trkpt>
      <trkpt lat="43.76649" lon="5.89932">
        <ele>356.5</ele>
        <time>2020-06-20T14:50:30Z</time>
      </trkpt>
      <trkpt lat="43.76648" lon="5.89936">
        <ele>356.8</ele>
        <time>2020-06-20T14:50:31Z</time>
      </trkpt>
      <trkpt lat="43.76647" lon="5.8994">
        <ele>357</ele>
        <time>2020-06-20T14:50:32Z</time>
      </trkpt>
      <trkpt lat="43.76644" lon="5.89946">
        <ele>357.4</ele>
        <time>2020-06-20T14:50:34Z</time>
      </trkpt>
      <trkpt lat="43.76642" lon="5.89952">
        <ele>357.7</ele>
        <time>2020-06-20T14:50:35Z</time>
      </trkpt>
      <trkpt lat="43.7664" lon="5.89959">
        <ele>358</ele>
        <time>2020-06-20T14:50:37Z</time>
      </trkpt>
      <trkpt lat="43.76639" lon="5.89963">
        <ele>358.2</ele>
        <time>2020-06-20T14:50:38Z</time>
      </trkpt>
      <trkpt lat="43.76638" lon="5.89968">
        <ele>358.4</ele>
        <time>2020-06-20T14:50:39Z</time>
      </trkpt>
      <trkpt lat="43.76638" lon="5.89973">
        <ele>358.5</ele>
        <time>2020-06-20T14:50:40Z</time>
      </trkpt>
      <trkpt lat="43.76637" lon="5.8998">
        <ele>358.8</ele>
        <time>2020-06-20T14:50:41Z</time>
      </trkpt>
      <trkpt lat="43.76636" lon="5.89987">
        <ele>359.1</ele>
        <time>2020-06-20T14:50:43Z</time>
      </trkpt>
      <trkpt lat="43.76635" lon="5.89992">
        <ele>359.3</ele>
        <time>2020-06-20T14:50:44Z</time>
      </trkpt>
      <trkpt lat="43.76634" lon="5.89997">
        <ele>359.5</ele>
        <time>2020-06-20T14:50:45Z</time>
      </trkpt>
      <trkpt lat="43.76633" lon="5.90006">
        <ele>359.9</ele>
        <time>2020-06-20T14:50:47Z</time>
      </trkpt>
      <trkpt lat="43.76633" lon="5.90012">
        <ele>360.1</ele>
        <time>2020-06-20T14:50:48Z</time>
      </trkpt>
      <trkpt lat="43.76632" lon="5.9002">
        <ele>360.4</ele>
        <time>2020-06-20T14:50:50Z</time>
      </trkpt>
      <trkpt lat="43.76631" lon="5.90026">
        <ele>360.7</ele>
        <time>2020-06-20T14:50:51Z</time>
      </trkpt>
      <trkpt lat="43.7663" lon="5.90032">
        <ele>360.9</ele>
        <time>2020-06-20T14:50:53Z</time>
      </trkpt>
      <trkpt lat="43.76629" lon="5.90036">
        <ele>361.1</ele>
        <time>2020-06-20T14:50:54Z</time>
      </trkpt>
      <trkpt lat="43.76628" lon="5.9004">
        <ele>361.3</ele>
        <time>2020-06-20T14:50:55Z</time>
      </trkpt>
      <trkpt lat="43.76628" lon="5.90045">
        <ele>361.4</ele>
        <time>2020-06-20T14:50:57Z</time>
      </trkpt>
      <trkpt lat="43.76628" lon="5.9005">
        <ele>361.7</ele>
        <time>2020-06-20T14:50:58Z</time>
      </trkpt>
      <trkpt lat="43.76628" lon="5.90055">
        <ele>361.8</ele>
        <time>2020-06-20T14:50:59Z</time>
      </trkpt>
      <trkpt lat="43.76628" lon="5.90059">
        <ele>362</ele>
        <time>2020-06-20T14:51:00Z</time>
      </trkpt>
      <trkpt lat="43.76628" lon="5.90061">
        <ele>362.1</ele>
        <time>2020-06-20T14:51:01Z</time>
      </trkpt>
      <trkpt lat="43.76628" lon="5.90067">
        <ele>362.4</ele>
        <time>2020-06-20T14:51:03Z</time>
      </trkpt>
      <trkpt lat="43.76629" lon="5.90072">
        <ele>362.6</ele>
        <time>2020-06-20T14:51:04Z</time>
      </trkpt>
      <trkpt lat="43.76629" lon="5.90076">
        <ele>363</ele>
        <time>2020-06-20T14:51:05Z</time>
      </trkpt>
      <trkpt lat="43.76629" lon="5.90081">
        <ele>363.1</ele>
        <time>2020-06-20T14:51:06Z</time>
      </trkpt>
      <trkpt lat="43.7663" lon="5.90083">
        <ele>363.2</ele>
        <time>2020-06-20T14:51:07Z</time>
      </trkpt>
      <trkpt lat="43.76629" lon="5.90087">
        <ele>363.3</ele>
        <time>2020-06-20T14:51:08Z</time>
      </trkpt>
      <trkpt lat="43.76629" lon="5.90092">
        <ele>363.5</ele>
        <time>2020-06-20T14:51:10Z</time>
      </trkpt>
      <trkpt lat="43.76628" lon="5.90095">
        <ele>363.6</ele>
        <time>2020-06-20T14:51:11Z</time>
      </trkpt>
      <trkpt lat="43.76628" lon="5.901">
        <ele>363.9</ele>
        <time>2020-06-20T14:51:12Z</time>
      </trkpt>
      <trkpt lat="43.76628" lon="5.90105">
        <ele>364.1</ele>
        <time>2020-06-20T14:51:14Z</time>
      </trkpt>
      <trkpt lat="43.76627" lon="5.90111">
        <ele>364.3</ele>
        <time>2020-06-20T14:51:15Z</time>
      </trkpt>
      <trkpt lat="43.76627" lon="5.90115">
        <ele>364.5</ele>
        <time>2020-06-20T14:51:16Z</time>
      </trkpt>
      <trkpt lat="43.76627" lon="5.90124">
        <ele>364.9</ele>
        <time>2020-06-20T14:51:18Z</time>
      </trkpt>
      <trkpt lat="43.76627" lon="5.90129">
        <ele>365.1</ele>
        <time>2020-06-20T14:51:20Z</time>
      </trkpt>
      <trkpt lat="43.76627" lon="5.90134">
        <ele>365.3</ele>
        <time>2020-06-20T14:51:21Z</time>
      </trkpt>
      <trkpt lat="43.76627" lon="5.90141">
        <ele>365.5</ele>
        <time>2020-06-20T14:51:23Z</time>
      </trkpt>
      <trkpt lat="43.76628" lon="5.90145">
        <ele>365.7</ele>
        <time>2020-06-20T14:51:24Z</time>
      </trkpt>
      <trkpt lat="43.76628" lon="5.90149">
        <ele>365.8</ele>
        <time>2020-06-20T14:51:25Z</time>
      </trkpt>
      <trkpt lat="43.76629" lon="5.90155">
        <ele>366</ele>
        <time>2020-06-20T14:51:27Z</time>
      </trkpt>
      <trkpt lat="43.7663" lon="5.9016">
        <ele>366.2</ele>
        <time>2020-06-20T14:51:28Z</time>
      </trkpt>
      <trkpt lat="43.76631" lon="5.90166">
        <ele>366.4</ele>
        <time>2020-06-20T14:51:30Z</time>
      </trkpt>
      <trkpt lat="43.76631" lon="5.90169">
        <ele>366.5</ele>
        <time>2020-06-20T14:51:31Z</time>
      </trkpt>
      <trkpt lat="43.76633" lon="5.90175">
        <ele>366.7</ele>
        <time>2020-06-20T14:51:33Z</time>
      </trkpt>
      <trkpt lat="43.76634" lon="5.9018">
        <ele>366.8</ele>
        <time>2020-06-20T14:51:34Z</time>
      </trkpt>
      <trkpt lat="43.76635" lon="5.90185">
        <ele>367</ele>
        <time>2020-06-20T14:51:35Z</time>
      </trkpt>
      <trkpt lat="43.76635" lon="5.90186">
        <ele>367.1</ele>
        <time>2020-06-20T14:51:36Z</time>
      </trkpt>
      <trkpt lat="43.76636" lon="5.90192">
        <ele>367.2</ele>
        <time>2020-06-20T14:51:38Z</time>
      </trkpt>
      <trkpt lat="43.76637" lon="5.90197">
        <ele>367.4</ele>
        <time>2020-06-20T14:51:39Z</time>
      </trkpt>
      <trkpt lat="43.76638" lon="5.90201">
        <ele>367.6</ele>
        <time>2020-06-20T14:51:40Z</time>
      </trkpt>
      <trkpt lat="43.76639" lon="5.90206">
        <ele>367.8</ele>
        <time>2020-06-20T14:51:42Z</time>
      </trkpt>
      <trkpt lat="43.76641" lon="5.90211">
        <ele>368</ele>
        <time>2020-06-20T14:51:43Z</time>
      </trkpt>
      <trkpt lat="43.76643" lon="5.90216">
        <ele>368.2</ele>
        <time>2020-06-20T14:51:45Z</time>
      </trkpt>
      <trkpt lat="43.76645" lon="5.90221">
        <ele>368.3</ele>
        <time>2020-06-20T14:51:46Z</time>
      </trkpt>
      <trkpt lat="43.76647" lon="5.90225">
        <ele>368.5</ele>
        <time>2020-06-20T14:51:47Z</time>
      </trkpt>
      <trkpt lat="43.76648" lon="5.90228">
        <ele>368.7</ele>
        <time>2020-06-20T14:51:48Z</time>
      </trkpt>
      <trkpt lat="43.7665" lon="5.90233">
        <ele>368.9</ele>
        <time>2020-06-20T14:51:50Z</time>
      </trkpt>
      <trkpt lat="43.76652" lon="5.90238">
        <ele>369.1</ele>
        <time>2020-06-20T14:51:51Z</time>
      </trkpt>
      <trkpt lat="43.76653" lon="5.90241">
        <ele>369.2</ele>
        <time>2020-06-20T14:51:52Z</time>
      </trkpt>
      <trkpt lat="43.76655" lon="5.90246">
        <ele>369.6</ele>
        <time>2020-06-20T14:51:54Z</time>
      </trkpt>
      <trkpt lat="43.76657" lon="5.9025">
        <ele>369.8</ele>
        <time>2020-06-20T14:51:55Z</time>
      </trkpt>
      <trkpt lat="43.76659" lon="5.90255">
        <ele>370</ele>
        <time>2020-06-20T14:51:57Z</time>
      </trkpt>
      <trkpt lat="43.7666" lon="5.90258">
        <ele>370.2</ele>
        <time>2020-06-20T14:51:58Z</time>
      </trkpt>
      <trkpt lat="43.76662" lon="5.90262">
        <ele>370.4</ele>
        <time>2020-06-20T14:51:59Z</time>
      </trkpt>
      <trkpt lat="43.76665" lon="5.90268">
        <ele>370.7</ele>
        <time>2020-06-20T14:52:01Z</time>
      </trkpt>
      <trkpt lat="43.76665" lon="5.9027">
        <ele>370.8</ele>
        <time>2020-06-20T14:52:02Z</time>
      </trkpt>
      <trkpt lat="43.76666" lon="5.90273">
        <ele>370.9</ele>
        <time>2020-06-20T14:52:03Z</time>
      </trkpt>
      <trkpt lat="43.76668" lon="5.90278">
        <ele>371.2</ele>
        <time>2020-06-20T14:52:05Z</time>
      </trkpt>
      <trkpt lat="43.76671" lon="5.90282">
        <ele>371.4</ele>
        <time>2020-06-20T14:52:06Z</time>
      </trkpt>
      <trkpt lat="43.76671" lon="5.90284">
        <ele>371.5</ele>
        <time>2020-06-20T14:52:07Z</time>
      </trkpt>
      <trkpt lat="43.76674" lon="5.90288">
        <ele>371.7</ele>
        <time>2020-06-20T14:52:08Z</time>
      </trkpt>
      <trkpt lat="43.76674" lon="5.9029">
        <ele>371.7</ele>
        <time>2020-06-20T14:52:09Z</time>
      </trkpt>
      <trkpt lat="43.76675" lon="5.90293">
        <ele>371.9</ele>
        <time>2020-06-20T14:52:10Z</time>
      </trkpt>
      <trkpt lat="43.76676" lon="5.90297">
        <ele>372</ele>
        <time>2020-06-20T14:52:12Z</time>
      </trkpt>
      <trkpt lat="43.76678" lon="5.90301">
        <ele>372.2</ele>
        <time>2020-06-20T14:52:14Z</time>
      </trkpt>
      <trkpt lat="43.76678" lon="5.90303">
        <ele>372.3</ele>
        <time>2020-06-20T14:52:15Z</time>
      </trkpt>
      <trkpt lat="43.76679" lon="5.90307">
        <ele>372.5</ele>
        <time>2020-06-20T14:52:17Z</time>
      </trkpt>
      <trkpt lat="43.7668" lon="5.90311">
        <ele>372.6</ele>
        <time>2020-06-20T14:52:18Z</time>
      </trkpt>
      <trkpt lat="43.76682" lon="5.90317">
        <ele>372.9</ele>
        <time>2020-06-20T14:52:20Z</time>
      </trkpt>
      <trkpt lat="43.76683" lon="5.90324">
        <ele>373.2</ele>
        <time>2020-06-20T14:52:22Z</time>
      </trkpt>
      <trkpt lat="43.76683" lon="5.90326">
        <ele>373.3</ele>
        <time>2020-06-20T14:52:23Z</time>
      </trkpt>
      <trkpt lat="43.76683" lon="5.90328">
        <ele>373.4</ele>
        <time>2020-06-20T14:52:24Z</time>
      </trkpt>
      <trkpt lat="43.76684" lon="5.90333">
        <ele>373.6</ele>
        <time>2020-06-20T14:52:26Z</time>
      </trkpt>
      <trkpt lat="43.76685" lon="5.90337">
        <ele>373.8</ele>
        <time>2020-06-20T14:52:27Z</time>
      </trkpt>
      <trkpt lat="43.76687" lon="5.90342">
        <ele>374</ele>
        <time>2020-06-20T14:52:29Z</time>
      </trkpt>
      <trkpt lat="43.76689" lon="5.90346">
        <ele>374.2</ele>
        <time>2020-06-20T14:52:30Z</time>
      </trkpt>
      <trkpt lat="43.76692" lon="5.90353">
        <ele>374.5</ele>
        <time>2020-06-20T14:52:32Z</time>
      </trkpt>
      <trkpt lat="43.76693" lon="5.90356">
        <ele>374.7</ele>
        <time>2020-06-20T14:52:33Z</time>
      </trkpt>
      <trkpt lat="43.76695" lon="5.90359">
        <ele>374.9</ele>
        <time>2020-06-20T14:52:34Z</time>
      </trkpt>
      <trkpt lat="43.76697" lon="5.90362">
        <ele>375.1</ele>
        <time>2020-06-20T14:52:36Z</time>
      </trkpt>
      <trkpt lat="43.767" lon="5.90366">
        <ele>375.3</ele>
        <time>2020-06-20T14:52:37Z</time>
      </trkpt>
      <trkpt lat="43.76702" lon="5.9037">
        <ele>375.5</ele>
        <time>2020-06-20T14:52:39Z</time>
      </trkpt>
      <trkpt lat="43.76704" lon="5.90373">
        <ele>375.7</ele>
        <time>2020-06-20T14:52:40Z</time>
      </trkpt>
      <trkpt lat="43.76705" lon="5.90376">
        <ele>375.8</ele>
        <time>2020-06-20T14:52:41Z</time>
      </trkpt>
      <trkpt lat="43.76707" lon="5.90379">
        <ele>376</ele>
        <time>2020-06-20T14:52:43Z</time>
      </trkpt>
      <trkpt lat="43.7671" lon="5.90383">
        <ele>376.2</ele>
        <time>2020-06-20T14:52:44Z</time>
      </trkpt>
      <trkpt lat="43.76713" lon="5.90386">
        <ele>376.4</ele>
        <time>2020-06-20T14:52:45Z</time>
      </trkpt>
      <trkpt lat="43.76716" lon="5.9039">
        <ele>376.6</ele>
        <time>2020-06-20T14:52:46Z</time>
      </trkpt>
      <trkpt lat="43.76719" lon="5.90393">
        <ele>376.8</ele>
        <time>2020-06-20T14:52:48Z</time>
      </trkpt>
      <trkpt lat="43.7672" lon="5.90395">
        <ele>376.9</ele>
        <time>2020-06-20T14:52:49Z</time>
      </trkpt>
      <trkpt lat="43.76723" lon="5.904">
        <ele>377.1</ele>
        <time>2020-06-20T14:52:51Z</time>
      </trkpt>
      <trkpt lat="43.76725" lon="5.90402">
        <ele>377.2</ele>
        <time>2020-06-20T14:52:52Z</time>
      </trkpt>
      <trkpt lat="43.76727" lon="5.90407">
        <ele>377.4</ele>
        <time>2020-06-20T14:52:54Z</time>
      </trkpt>
      <trkpt lat="43.76729" lon="5.90412">
        <ele>377.6</ele>
        <time>2020-06-20T14:52:56Z</time>
      </trkpt>
      <trkpt lat="43.76731" lon="5.90418">
        <ele>377.8</ele>
        <time>2020-06-20T14:52:58Z</time>
      </trkpt>
      <trkpt lat="43.76731" lon="5.9042">
        <ele>377.9</ele>
        <time>2020-06-20T14:52:59Z</time>
      </trkpt>
      <trkpt lat="43.76732" lon="5.90422">
        <ele>378</ele>
        <time>2020-06-20T14:53:00Z</time>
      </trkpt>
      <trkpt lat="43.76735" lon="5.90427">
        <ele>378.2</ele>
        <time>2020-06-20T14:53:02Z</time>
      </trkpt>
      <trkpt lat="43.76736" lon="5.90428">
        <ele>378.3</ele>
        <time>2020-06-20T14:53:03Z</time>
      </trkpt>
      <trkpt lat="43.76738" lon="5.9043">
        <ele>378.4</ele>
        <time>2020-06-20T14:53:04Z</time>
      </trkpt>
      <trkpt lat="43.76741" lon="5.90433">
        <ele>378.5</ele>
        <time>2020-06-20T14:53:05Z</time>
      </trkpt>
      <trkpt lat="43.76742" lon="5.90434">
        <ele>378.6</ele>
        <time>2020-06-20T14:53:06Z</time>
      </trkpt>
      <trkpt lat="43.76745" lon="5.90437">
        <ele>378.8</ele>
        <time>2020-06-20T14:53:08Z</time>
      </trkpt>
      <trkpt lat="43.76746" lon="5.90438">
        <ele>378.8</ele>
        <time>2020-06-20T14:53:09Z</time>
      </trkpt>
      <trkpt lat="43.76749" lon="5.90441">
        <ele>379</ele>
        <time>2020-06-20T14:53:10Z</time>
      </trkpt>
      <trkpt lat="43.7675" lon="5.90442">
        <ele>379.1</ele>
        <time>2020-06-20T14:53:11Z</time>
      </trkpt>
      <trkpt lat="43.76753" lon="5.90445">
        <ele>379.3</ele>
        <time>2020-06-20T14:53:13Z</time>
      </trkpt>
      <trkpt lat="43.76756" lon="5.90448">
        <ele>379.6</ele>
        <time>2020-06-20T14:53:14Z</time>
      </trkpt>
      <trkpt lat="43.76758" lon="5.90451">
        <ele>379.8</ele>
        <time>2020-06-20T14:53:15Z</time>
      </trkpt>
      <trkpt lat="43.7676" lon="5.90454">
        <ele>380</ele>
        <time>2020-06-20T14:53:16Z</time>
      </trkpt>
      <trkpt lat="43.76761" lon="5.90455">
        <ele>380.1</ele>
        <time>2020-06-20T14:53:17Z</time>
      </trkpt>
      <trkpt lat="43.76764" lon="5.90461">
        <ele>380.4</ele>
        <time>2020-06-20T14:53:19Z</time>
      </trkpt>
      <trkpt lat="43.76765" lon="5.90463">
        <ele>380.6</ele>
        <time>2020-06-20T14:53:20Z</time>
      </trkpt>
      <trkpt lat="43.76766" lon="5.90465">
        <ele>380.7</ele>
        <time>2020-06-20T14:53:21Z</time>
      </trkpt>
      <trkpt lat="43.76769" lon="5.90468">
        <ele>381</ele>
        <time>2020-06-20T14:53:22Z</time>
      </trkpt>
      <trkpt lat="43.7677" lon="5.90469">
        <ele>381.1</ele>
        <time>2020-06-20T14:53:23Z</time>
      </trkpt>
      <trkpt lat="43.76771" lon="5.90471">
        <ele>381.3</ele>
        <time>2020-06-20T14:53:24Z</time>
      </trkpt>
      <trkpt lat="43.76773" lon="5.90473">
        <ele>381.5</ele>
        <time>2020-06-20T14:53:26Z</time>
      </trkpt>
      <trkpt lat="43.76775" lon="5.90476">
        <ele>381.7</ele>
        <time>2020-06-20T14:53:27Z</time>
      </trkpt>
      <trkpt lat="43.76779" lon="5.90481">
        <ele>382.1</ele>
        <time>2020-06-20T14:53:29Z</time>
      </trkpt>
      <trkpt lat="43.7678" lon="5.90482">
        <ele>382.2</ele>
        <time>2020-06-20T14:53:30Z</time>
      </trkpt>
      <trkpt lat="43.76781" lon="5.90484">
        <ele>382.4</ele>
        <time>2020-06-20T14:53:31Z</time>
      </trkpt>
      <trkpt lat="43.76783" lon="5.90487">
        <ele>382.7</ele>
        <time>2020-06-20T14:53:32Z</time>
      </trkpt>
      <trkpt lat="43.76784" lon="5.90488">
        <ele>382.7</ele>
        <time>2020-06-20T14:53:33Z</time>
      </trkpt>
      <trkpt lat="43.76787" lon="5.90492">
        <ele>383.1</ele>
        <time>2020-06-20T14:53:35Z</time>
      </trkpt>
      <trkpt lat="43.76788" lon="5.90493">
        <ele>383.2</ele>
        <time>2020-06-20T14:53:36Z</time>
      </trkpt>
      <trkpt lat="43.76789" lon="5.90494">
        <ele>383.3</ele>
        <time>2020-06-20T14:53:37Z</time>
      </trkpt>
      <trkpt lat="43.76792" lon="5.90497">
        <ele>383.6</ele>
        <time>2020-06-20T14:53:39Z</time>
      </trkpt>
      <trkpt lat="43.76793" lon="5.90498">
        <ele>383.7</ele>
        <time>2020-06-20T14:53:40Z</time>
      </trkpt>
      <trkpt lat="43.76794" lon="5.905">
        <ele>383.9</ele>
        <time>2020-06-20T14:53:41Z</time>
      </trkpt>
      <trkpt lat="43.76795" lon="5.90502">
        <ele>384</ele>
        <time>2020-06-20T14:53:42Z</time>
      </trkpt>
      <trkpt lat="43.76798" lon="5.90505">
        <ele>384.3</ele>
        <time>2020-06-20T14:53:43Z</time>
      </trkpt>
      <trkpt lat="43.76799" lon="5.90506">
        <ele>384.4</ele>
        <time>2020-06-20T14:53:44Z</time>
      </trkpt>
      <trkpt lat="43.76802" lon="5.90511">
        <ele>384.7</ele>
        <time>2020-06-20T14:53:46Z</time>
      </trkpt>
      <trkpt lat="43.76803" lon="5.90512">
        <ele>384.8</ele>
        <time>2020-06-20T14:53:47Z</time>
      </trkpt>
      <trkpt lat="43.76804" lon="5.90515">
        <ele>385</ele>
        <time>2020-06-20T14:53:48Z</time>
      </trkpt>
      <trkpt lat="43.76807" lon="5.90519">
        <ele>385.3</ele>
        <time>2020-06-20T14:53:50Z</time>
      </trkpt>
      <trkpt lat="43.7681" lon="5.90524">
        <ele>385.6</ele>
        <time>2020-06-20T14:53:51Z</time>
      </trkpt>
      <trkpt lat="43.76811" lon="5.90526">
        <ele>385.7</ele>
        <time>2020-06-20T14:53:52Z</time>
      </trkpt>
      <trkpt lat="43.76815" lon="5.9053">
        <ele>386</ele>
        <time>2020-06-20T14:53:53Z</time>
      </trkpt>
      <trkpt lat="43.76819" lon="5.90534">
        <ele>386.2</ele>
        <time>2020-06-20T14:53:55Z</time>
      </trkpt>
      <trkpt lat="43.76822" lon="5.90538">
        <ele>386.4</ele>
        <time>2020-06-20T14:53:56Z</time>
      </trkpt>
      <trkpt lat="43.76824" lon="5.9054">
        <ele>386.5</ele>
        <time>2020-06-20T14:53:57Z</time>
      </trkpt>
      <trkpt lat="43.76827" lon="5.90545">
        <ele>386.7</ele>
        <time>2020-06-20T14:53:59Z</time>
      </trkpt>
      <trkpt lat="43.7683" lon="5.90548">
        <ele>386.9</ele>
        <time>2020-06-20T14:54:00Z</time>
      </trkpt>
      <trkpt lat="43.76834" lon="5.90552">
        <ele>387.1</ele>
        <time>2020-06-20T14:54:02Z</time>
      </trkpt>
      <trkpt lat="43.76836" lon="5.90553">
        <ele>387.2</ele>
        <time>2020-06-20T14:54:03Z</time>
      </trkpt>
      <trkpt lat="43.76837" lon="5.90555">
        <ele>387.3</ele>
        <time>2020-06-20T14:54:04Z</time>
      </trkpt>
      <trkpt lat="43.7684" lon="5.90559">
        <ele>387.5</ele>
        <time>2020-06-20T14:54:06Z</time>
      </trkpt>
      <trkpt lat="43.76841" lon="5.9056">
        <ele>387.6</ele>
        <time>2020-06-20T14:54:07Z</time>
      </trkpt>
      <trkpt lat="43.76843" lon="5.90562">
        <ele>387.7</ele>
        <time>2020-06-20T14:54:08Z</time>
      </trkpt>
      <trkpt lat="43.76846" lon="5.90565">
        <ele>387.9</ele>
        <time>2020-06-20T14:54:10Z</time>
      </trkpt>
      <trkpt lat="43.76848" lon="5.90567">
        <ele>388.1</ele>
        <time>2020-06-20T14:54:11Z</time>
      </trkpt>
      <trkpt lat="43.7685" lon="5.90568">
        <ele>388.2</ele>
        <time>2020-06-20T14:54:12Z</time>
      </trkpt>
      <trkpt lat="43.76852" lon="5.90571">
        <ele>388.4</ele>
        <time>2020-06-20T14:54:13Z</time>
      </trkpt>
      <trkpt lat="43.76853" lon="5.90572">
        <ele>388.4</ele>
        <time>2020-06-20T14:54:14Z</time>
      </trkpt>
      <trkpt lat="43.76855" lon="5.90575">
        <ele>388.7</ele>
        <time>2020-06-20T14:54:16Z</time>
      </trkpt>
      <trkpt lat="43.76858" lon="5.90579">
        <ele>388.9</ele>
        <time>2020-06-20T14:54:17Z</time>
      </trkpt>
      <trkpt lat="43.7686" lon="5.90582">
        <ele>389.2</ele>
        <time>2020-06-20T14:54:18Z</time>
      </trkpt>
      <trkpt lat="43.76861" lon="5.90583">
        <ele>389.2</ele>
        <time>2020-06-20T14:54:19Z</time>
      </trkpt>
      <trkpt lat="43.76863" lon="5.90589">
        <ele>389.6</ele>
        <time>2020-06-20T14:54:21Z</time>
      </trkpt>
      <trkpt lat="43.76864" lon="5.9059">
        <ele>389.7</ele>
        <time>2020-06-20T14:54:22Z</time>
      </trkpt>
      <trkpt lat="43.76864" lon="5.90592">
        <ele>389.8</ele>
        <time>2020-06-20T14:54:23Z</time>
      </trkpt>
      <trkpt lat="43.76865" lon="5.90596">
        <ele>390</ele>
        <time>2020-06-20T14:54:24Z</time>
      </trkpt>
      <trkpt lat="43.76866" lon="5.90597">
        <ele>390</ele>
        <time>2020-06-20T14:54:25Z</time>
      </trkpt>
      <trkpt lat="43.76866" lon="5.90599">
        <ele>390.2</ele>
        <time>2020-06-20T14:54:26Z</time>
      </trkpt>
      <trkpt lat="43.76867" lon="5.90602">
        <ele>390.4</ele>
        <time>2020-06-20T14:54:28Z</time>
      </trkpt>
      <trkpt lat="43.76868" lon="5.90606">
        <ele>390.6</ele>
        <time>2020-06-20T14:54:29Z</time>
      </trkpt>
      <trkpt lat="43.76868" lon="5.90607">
        <ele>390.6</ele>
        <time>2020-06-20T14:54:30Z</time>
      </trkpt>
      <trkpt lat="43.7687" lon="5.90613">
        <ele>391</ele>
        <time>2020-06-20T14:54:32Z</time>
      </trkpt>
      <trkpt lat="43.76871" lon="5.90615">
        <ele>391.1</ele>
        <time>2020-06-20T14:54:33Z</time>
      </trkpt>
      <trkpt lat="43.76872" lon="5.90616">
        <ele>391.2</ele>
        <time>2020-06-20T14:54:34Z</time>
      </trkpt>
      <trkpt lat="43.76873" lon="5.90618">
        <ele>391.3</ele>
        <time>2020-06-20T14:54:35Z</time>
      </trkpt>
      <trkpt lat="43.76874" lon="5.9062">
        <ele>391.4</ele>
        <time>2020-06-20T14:54:36Z</time>
      </trkpt>
      <trkpt lat="43.76877" lon="5.90625">
        <ele>391.7</ele>
        <time>2020-06-20T14:54:38Z</time>
      </trkpt>
      <trkpt lat="43.76877" lon="5.90626">
        <ele>391.8</ele>
        <time>2020-06-20T14:54:39Z</time>
      </trkpt>
      <trkpt lat="43.76878" lon="5.90628">
        <ele>391.8</ele>
        <time>2020-06-20T14:54:40Z</time>
      </trkpt>
      <trkpt lat="43.76879" lon="5.9063">
        <ele>391.9</ele>
        <time>2020-06-20T14:54:41Z</time>
      </trkpt>
      <trkpt lat="43.7688" lon="5.90632">
        <ele>392</ele>
        <time>2020-06-20T14:54:42Z</time>
      </trkpt>
      <trkpt lat="43.76883" lon="5.90634">
        <ele>392.1</ele>
        <time>2020-06-20T14:54:43Z</time>
      </trkpt>
      <trkpt lat="43.76884" lon="5.90635">
        <ele>392.2</ele>
        <time>2020-06-20T14:54:44Z</time>
      </trkpt>
      <trkpt lat="43.76887" lon="5.90639">
        <ele>392.4</ele>
        <time>2020-06-20T14:54:46Z</time>
      </trkpt>
      <trkpt lat="43.7689" lon="5.90644">
        <ele>392.6</ele>
        <time>2020-06-20T14:54:48Z</time>
      </trkpt>
      <trkpt lat="43.76891" lon="5.90646">
        <ele>392.7</ele>
        <time>2020-06-20T14:54:49Z</time>
      </trkpt>
      <trkpt lat="43.76892" lon="5.90648">
        <ele>392.8</ele>
        <time>2020-06-20T14:54:50Z</time>
      </trkpt>
      <trkpt lat="43.76895" lon="5.90653">
        <ele>393</ele>
        <time>2020-06-20T14:54:52Z</time>
      </trkpt>
      <trkpt lat="43.76896" lon="5.90655">
        <ele>393.1</ele>
        <time>2020-06-20T14:54:53Z</time>
      </trkpt>
      <trkpt lat="43.76898" lon="5.90657">
        <ele>393.2</ele>
        <time>2020-06-20T14:54:54Z</time>
      </trkpt>
      <trkpt lat="43.76901" lon="5.90661">
        <ele>393.4</ele>
        <time>2020-06-20T14:54:56Z</time>
      </trkpt>
      <trkpt lat="43.76905" lon="5.90663">
        <ele>393.7</ele>
        <time>2020-06-20T14:54:57Z</time>
      </trkpt>
      <trkpt lat="43.76912" lon="5.90666">
        <ele>394</ele>
        <time>2020-06-20T14:54:58Z</time>
      </trkpt>
      <trkpt lat="43.76921" lon="5.9067">
        <ele>394.6</ele>
        <time>2020-06-20T14:55:00Z</time>
      </trkpt>
      <trkpt lat="43.76927" lon="5.90673">
        <ele>394.9</ele>
        <time>2020-06-20T14:55:01Z</time>
      </trkpt>
      <trkpt lat="43.7693" lon="5.90675">
        <ele>395.1</ele>
        <time>2020-06-20T14:55:02Z</time>
      </trkpt>
      <trkpt lat="43.76934" lon="5.90678">
        <ele>395.3</ele>
        <time>2020-06-20T14:55:04Z</time>
      </trkpt>
      <trkpt lat="43.76937" lon="5.9068">
        <ele>395.5</ele>
        <time>2020-06-20T14:55:05Z</time>
      </trkpt>
      <trkpt lat="43.7694" lon="5.90682">
        <ele>395.7</ele>
        <time>2020-06-20T14:55:06Z</time>
      </trkpt>
      <trkpt lat="43.76943" lon="5.90685">
        <ele>395.9</ele>
        <time>2020-06-20T14:55:07Z</time>
      </trkpt>
      <trkpt lat="43.76947" lon="5.90687">
        <ele>396.1</ele>
        <time>2020-06-20T14:55:09Z</time>
      </trkpt>
      <trkpt lat="43.76949" lon="5.90689">
        <ele>396.3</ele>
        <time>2020-06-20T14:55:10Z</time>
      </trkpt>
      <trkpt lat="43.76951" lon="5.90691">
        <ele>396.4</ele>
        <time>2020-06-20T14:55:11Z</time>
      </trkpt>
      <trkpt lat="43.76956" lon="5.90694">
        <ele>396.7</ele>
        <time>2020-06-20T14:55:13Z</time>
      </trkpt>
      <trkpt lat="43.76959" lon="5.90695">
        <ele>396.9</ele>
        <time>2020-06-20T14:55:14Z</time>
      </trkpt>
      <trkpt lat="43.76963" lon="5.90697">
        <ele>397.2</ele>
        <time>2020-06-20T14:55:15Z</time>
      </trkpt>
      <trkpt lat="43.76968" lon="5.907">
        <ele>397.5</ele>
        <time>2020-06-20T14:55:17Z</time>
      </trkpt>
      <trkpt lat="43.76972" lon="5.90702">
        <ele>397.8</ele>
        <time>2020-06-20T14:55:19Z</time>
      </trkpt>
      <trkpt lat="43.76976" lon="5.90704">
        <ele>398.1</ele>
        <time>2020-06-20T14:55:20Z</time>
      </trkpt>
      <trkpt lat="43.76982" lon="5.90706">
        <ele>398.5</ele>
        <time>2020-06-20T14:55:22Z</time>
      </trkpt>
      <trkpt lat="43.76985" lon="5.90707">
        <ele>398.6</ele>
        <time>2020-06-20T14:55:23Z</time>
      </trkpt>
      <trkpt lat="43.76989" lon="5.90709">
        <ele>398.9</ele>
        <time>2020-06-20T14:55:25Z</time>
      </trkpt>
      <trkpt lat="43.76992" lon="5.9071">
        <ele>399.1</ele>
        <time>2020-06-20T14:55:26Z</time>
      </trkpt>
      <trkpt lat="43.76997" lon="5.90712">
        <ele>399.4</ele>
        <time>2020-06-20T14:55:28Z</time>
      </trkpt>
      <trkpt lat="43.77001" lon="5.90714">
        <ele>399.7</ele>
        <time>2020-06-20T14:55:29Z</time>
      </trkpt>
      <trkpt lat="43.77006" lon="5.90715">
        <ele>400</ele>
        <time>2020-06-20T14:55:31Z</time>
      </trkpt>
      <trkpt lat="43.77009" lon="5.90716">
        <ele>400.2</ele>
        <time>2020-06-20T14:55:33Z</time>
      </trkpt>
      <trkpt lat="43.77014" lon="5.90716">
        <ele>400.5</ele>
        <time>2020-06-20T14:55:34Z</time>
      </trkpt>
      <trkpt lat="43.77017" lon="5.90716">
        <ele>400.7</ele>
        <time>2020-06-20T14:55:35Z</time>
      </trkpt>
      <trkpt lat="43.77022" lon="5.90717">
        <ele>401.1</ele>
        <time>2020-06-20T14:55:37Z</time>
      </trkpt>
      <trkpt lat="43.77025" lon="5.90719">
        <ele>401.3</ele>
        <time>2020-06-20T14:55:38Z</time>
      </trkpt>
      <trkpt lat="43.77028" lon="5.90719">
        <ele>401.6</ele>
        <time>2020-06-20T14:55:39Z</time>
      </trkpt>
      <trkpt lat="43.77031" lon="5.9072">
        <ele>401.8</ele>
        <time>2020-06-20T14:55:40Z</time>
      </trkpt>
      <trkpt lat="43.77035" lon="5.90721">
        <ele>402</ele>
        <time>2020-06-20T14:55:42Z</time>
      </trkpt>
      <trkpt lat="43.77038" lon="5.90722">
        <ele>402.2</ele>
        <time>2020-06-20T14:55:43Z</time>
      </trkpt>
      <trkpt lat="43.7704" lon="5.90722">
        <ele>402.4</ele>
        <time>2020-06-20T14:55:44Z</time>
      </trkpt>
      <trkpt lat="43.77045" lon="5.90725">
        <ele>402.6</ele>
        <time>2020-06-20T14:55:46Z</time>
      </trkpt>
      <trkpt lat="43.77049" lon="5.90727">
        <ele>402.8</ele>
        <time>2020-06-20T14:55:47Z</time>
      </trkpt>
      <trkpt lat="43.7705" lon="5.90727">
        <ele>402.9</ele>
        <time>2020-06-20T14:55:48Z</time>
      </trkpt>
      <trkpt lat="43.77054" lon="5.9073">
        <ele>403.1</ele>
        <time>2020-06-20T14:55:50Z</time>
      </trkpt>
      <trkpt lat="43.77056" lon="5.90731">
        <ele>403.2</ele>
        <time>2020-06-20T14:55:51Z</time>
      </trkpt>
      <trkpt lat="43.77058" lon="5.90732">
        <ele>403.3</ele>
        <time>2020-06-20T14:55:52Z</time>
      </trkpt>
      <trkpt lat="43.77061" lon="5.90736">
        <ele>403.5</ele>
        <time>2020-06-20T14:55:54Z</time>
      </trkpt>
      <trkpt lat="43.77063" lon="5.90737">
        <ele>403.6</ele>
        <time>2020-06-20T14:55:55Z</time>
      </trkpt>
      <trkpt lat="43.77064" lon="5.90739">
        <ele>403.6</ele>
        <time>2020-06-20T14:55:56Z</time>
      </trkpt>
      <trkpt lat="43.77066" lon="5.90742">
        <ele>403.8</ele>
        <time>2020-06-20T14:55:58Z</time>
      </trkpt>
      <trkpt lat="43.77067" lon="5.90743">
        <ele>403.8</ele>
        <time>2020-06-20T14:55:59Z</time>
      </trkpt>
      <trkpt lat="43.77068" lon="5.90746">
        <ele>403.9</ele>
        <time>2020-06-20T14:56:00Z</time>
      </trkpt>
      <trkpt lat="43.77069" lon="5.90747">
        <ele>404</ele>
        <time>2020-06-20T14:56:01Z</time>
      </trkpt>
      <trkpt lat="43.7707" lon="5.90749">
        <ele>404.1</ele>
        <time>2020-06-20T14:56:03Z</time>
      </trkpt>
      <trkpt lat="43.77071" lon="5.90751">
        <ele>404.1</ele>
        <time>2020-06-20T14:56:04Z</time>
      </trkpt>
      <trkpt lat="43.77072" lon="5.90754">
        <ele>404.3</ele>
        <time>2020-06-20T14:56:05Z</time>
      </trkpt>
      <trkpt lat="43.77073" lon="5.90756">
        <ele>404.4</ele>
        <time>2020-06-20T14:56:06Z</time>
      </trkpt>
      <trkpt lat="43.77075" lon="5.90759">
        <ele>404.5</ele>
        <time>2020-06-20T14:56:08Z</time>
      </trkpt>
      <trkpt lat="43.77076" lon="5.9076">
        <ele>404.6</ele>
        <time>2020-06-20T14:56:09Z</time>
      </trkpt>
      <trkpt lat="43.77079" lon="5.90765">
        <ele>404.8</ele>
        <time>2020-06-20T14:56:11Z</time>
      </trkpt>
      <trkpt lat="43.7708" lon="5.90767">
        <ele>404.9</ele>
        <time>2020-06-20T14:56:13Z</time>
      </trkpt>
      <trkpt lat="43.77081" lon="5.90769">
        <ele>405</ele>
        <time>2020-06-20T14:56:14Z</time>
      </trkpt>
      <trkpt lat="43.77083" lon="5.90772">
        <ele>405.2</ele>
        <time>2020-06-20T14:56:15Z</time>
      </trkpt>
      <trkpt lat="43.77084" lon="5.90773">
        <ele>405.2</ele>
        <time>2020-06-20T14:56:16Z</time>
      </trkpt>
      <trkpt lat="43.77086" lon="5.90776">
        <ele>405.4</ele>
        <time>2020-06-20T14:56:17Z</time>
      </trkpt>
      <trkpt lat="43.77087" lon="5.90781">
        <ele>405.5</ele>
        <time>2020-06-20T14:56:19Z</time>
      </trkpt>
      <trkpt lat="43.77087" lon="5.90785">
        <ele>405.7</ele>
        <time>2020-06-20T14:56:20Z</time>
      </trkpt>
      <trkpt lat="43.77087" lon="5.9079">
        <ele>405.9</ele>
        <time>2020-06-20T14:56:21Z</time>
      </trkpt>
      <trkpt lat="43.77087" lon="5.90795">
        <ele>406.1</ele>
        <time>2020-06-20T14:56:23Z</time>
      </trkpt>
      <trkpt lat="43.77088" lon="5.90799">
        <ele>406.2</ele>
        <time>2020-06-20T14:56:24Z</time>
      </trkpt>
      <trkpt lat="43.77088" lon="5.90804">
        <ele>406.5</ele>
        <time>2020-06-20T14:56:25Z</time>
      </trkpt>
      <trkpt lat="43.77088" lon="5.90806">
        <ele>406.5</ele>
        <time>2020-06-20T14:56:26Z</time>
      </trkpt>
      <trkpt lat="43.77089" lon="5.90811">
        <ele>406.7</ele>
        <time>2020-06-20T14:56:28Z</time>
      </trkpt>
      <trkpt lat="43.77089" lon="5.90812">
        <ele>406.8</ele>
        <time>2020-06-20T14:56:29Z</time>
      </trkpt>
      <trkpt lat="43.77088" lon="5.90818">
        <ele>407</ele>
        <time>2020-06-20T14:56:30Z</time>
      </trkpt>
      <trkpt lat="43.77088" lon="5.90819">
        <ele>407</ele>
        <time>2020-06-20T14:56:31Z</time>
      </trkpt>
      <trkpt lat="43.77089" lon="5.90826">
        <ele>407.3</ele>
        <time>2020-06-20T14:56:33Z</time>
      </trkpt>
      <trkpt lat="43.77089" lon="5.90828">
        <ele>407.4</ele>
        <time>2020-06-20T14:56:34Z</time>
      </trkpt>
      <trkpt lat="43.7709" lon="5.90831">
        <ele>407.5</ele>
        <time>2020-06-20T14:56:35Z</time>
      </trkpt>
      <trkpt lat="43.7709" lon="5.90833">
        <ele>407.6</ele>
        <time>2020-06-20T14:56:36Z</time>
      </trkpt>
      <trkpt lat="43.77091" lon="5.90837">
        <ele>407.8</ele>
        <time>2020-06-20T14:56:38Z</time>
      </trkpt>
      <trkpt lat="43.77092" lon="5.90842">
        <ele>408</ele>
        <time>2020-06-20T14:56:39Z</time>
      </trkpt>
      <trkpt lat="43.77093" lon="5.90845">
        <ele>408.1</ele>
        <time>2020-06-20T14:56:40Z</time>
      </trkpt>
      <trkpt lat="43.77093" lon="5.90847">
        <ele>408.2</ele>
        <time>2020-06-20T14:56:41Z</time>
      </trkpt>
      <trkpt lat="43.77093" lon="5.90849">
        <ele>408.3</ele>
        <time>2020-06-20T14:56:42Z</time>
      </trkpt>
      <trkpt lat="43.77093" lon="5.90851">
        <ele>408.4</ele>
        <time>2020-06-20T14:56:43Z</time>
      </trkpt>
      <trkpt lat="43.77093" lon="5.90854">
        <ele>408.5</ele>
        <time>2020-06-20T14:56:44Z</time>
      </trkpt>
      <trkpt lat="43.77092" lon="5.90858">
        <ele>408.7</ele>
        <time>2020-06-20T14:56:46Z</time>
      </trkpt>
      <trkpt lat="43.77092" lon="5.9086">
        <ele>408.7</ele>
        <time>2020-06-20T14:56:47Z</time>
      </trkpt>
      <trkpt lat="43.77093" lon="5.9086">
        <ele>408.8</ele>
        <time>2020-06-20T14:56:49Z</time>
      </trkpt>
      <trkpt lat="43.77093" lon="5.90861">
        <ele>408.8</ele>
        <time>2020-06-20T14:56:51Z</time>
      </trkpt>
      <trkpt lat="43.77093" lon="5.90861">
        <ele>408.8</ele>
        <time>2020-06-20T14:56:52Z</time>
      </trkpt>
      <trkpt lat="43.77093" lon="5.90861">
        <ele>408.8</ele>
        <time>2020-06-20T14:56:54Z</time>
      </trkpt>
      <trkpt lat="43.77093" lon="5.90861">
        <ele>408.8</ele>
        <time>2020-06-20T14:56:55Z</time>
      </trkpt>
      <trkpt lat="43.77093" lon="5.90862">
        <ele>408.8</ele>
        <time>2020-06-20T14:56:57Z</time>
      </trkpt>
      <trkpt lat="43.77094" lon="5.90874">
        <ele>409.3</ele>
        <time>2020-06-20T14:58:09Z</time>
      </trkpt>
      <trkpt lat="43.77094" lon="5.90877">
        <ele>409.4</ele>
        <time>2020-06-20T14:58:10Z</time>
      </trkpt>
      <trkpt lat="43.77094" lon="5.9088">
        <ele>409.6</ele>
        <time>2020-06-20T14:58:12Z</time>
      </trkpt>
      <trkpt lat="43.77093" lon="5.90883">
        <ele>409.7</ele>
        <time>2020-06-20T14:58:13Z</time>
      </trkpt>
      <trkpt lat="43.77094" lon="5.90888">
        <ele>409.9</ele>
        <time>2020-06-20T14:58:15Z</time>
      </trkpt>
      <trkpt lat="43.77094" lon="5.90895">
        <ele>410.2</ele>
        <time>2020-06-20T14:58:16Z</time>
      </trkpt>
      <trkpt lat="43.77096" lon="5.90905">
        <ele>410.5</ele>
        <time>2020-06-20T14:58:17Z</time>
      </trkpt>
      <trkpt lat="43.77097" lon="5.90914">
        <ele>410.9</ele>
        <time>2020-06-20T14:58:19Z</time>
      </trkpt>
      <trkpt lat="43.77098" lon="5.90919">
        <ele>411.1</ele>
        <time>2020-06-20T14:58:20Z</time>
      </trkpt>
      <trkpt lat="43.77099" lon="5.90924">
        <ele>411.3</ele>
        <time>2020-06-20T14:58:21Z</time>
      </trkpt>
      <trkpt lat="43.771" lon="5.90929">
        <ele>411.4</ele>
        <time>2020-06-20T14:58:23Z</time>
      </trkpt>
      <trkpt lat="43.771" lon="5.90934">
        <ele>411.6</ele>
        <time>2020-06-20T14:58:24Z</time>
      </trkpt>
      <trkpt lat="43.771" lon="5.90936">
        <ele>411.7</ele>
        <time>2020-06-20T14:58:25Z</time>
      </trkpt>
      <trkpt lat="43.77101" lon="5.90943">
        <ele>411.9</ele>
        <time>2020-06-20T14:58:27Z</time>
      </trkpt>
      <trkpt lat="43.77102" lon="5.90947">
        <ele>412</ele>
        <time>2020-06-20T14:58:28Z</time>
      </trkpt>
      <trkpt lat="43.77102" lon="5.90952">
        <ele>412.2</ele>
        <time>2020-06-20T14:58:29Z</time>
      </trkpt>
      <trkpt lat="43.77103" lon="5.90954">
        <ele>412.2</ele>
        <time>2020-06-20T14:58:30Z</time>
      </trkpt>
      <trkpt lat="43.77104" lon="5.90958">
        <ele>412.4</ele>
        <time>2020-06-20T14:58:32Z</time>
      </trkpt>
      <trkpt lat="43.77105" lon="5.90962">
        <ele>412.6</ele>
        <time>2020-06-20T14:58:33Z</time>
      </trkpt>
      <trkpt lat="43.77105" lon="5.90967">
        <ele>412.8</ele>
        <time>2020-06-20T14:58:35Z</time>
      </trkpt>
      <trkpt lat="43.77106" lon="5.90971">
        <ele>413</ele>
        <time>2020-06-20T14:58:36Z</time>
      </trkpt>
      <trkpt lat="43.77107" lon="5.90976">
        <ele>413.2</ele>
        <time>2020-06-20T14:58:38Z</time>
      </trkpt>
      <trkpt lat="43.77108" lon="5.9098">
        <ele>413.4</ele>
        <time>2020-06-20T14:58:39Z</time>
      </trkpt>
      <trkpt lat="43.77109" lon="5.90983">
        <ele>413.5</ele>
        <time>2020-06-20T14:58:40Z</time>
      </trkpt>
      <trkpt lat="43.77111" lon="5.90987">
        <ele>413.7</ele>
        <time>2020-06-20T14:58:42Z</time>
      </trkpt>
      <trkpt lat="43.77112" lon="5.9099">
        <ele>413.9</ele>
        <time>2020-06-20T14:58:43Z</time>
      </trkpt>
      <trkpt lat="43.77114" lon="5.90995">
        <ele>414.1</ele>
        <time>2020-06-20T14:58:45Z</time>
      </trkpt>
      <trkpt lat="43.77115" lon="5.90998">
        <ele>414.3</ele>
        <time>2020-06-20T14:58:46Z</time>
      </trkpt>
      <trkpt lat="43.77116" lon="5.91002">
        <ele>414.5</ele>
        <time>2020-06-20T14:58:47Z</time>
      </trkpt>
      <trkpt lat="43.77116" lon="5.91005">
        <ele>414.6</ele>
        <time>2020-06-20T14:58:48Z</time>
      </trkpt>
      <trkpt lat="43.77118" lon="5.91008">
        <ele>414.7</ele>
        <time>2020-06-20T14:58:50Z</time>
      </trkpt>
      <trkpt lat="43.77119" lon="5.9101">
        <ele>414.9</ele>
        <time>2020-06-20T14:58:51Z</time>
      </trkpt>
      <trkpt lat="43.77121" lon="5.91013">
        <ele>415.1</ele>
        <time>2020-06-20T14:58:53Z</time>
      </trkpt>
      <trkpt lat="43.77123" lon="5.91016">
        <ele>415.3</ele>
        <time>2020-06-20T14:58:54Z</time>
      </trkpt>
      <trkpt lat="43.77124" lon="5.91018">
        <ele>415.3</ele>
        <time>2020-06-20T14:58:55Z</time>
      </trkpt>
      <trkpt lat="43.77126" lon="5.91021">
        <ele>415.6</ele>
        <time>2020-06-20T14:58:57Z</time>
      </trkpt>
      <trkpt lat="43.77127" lon="5.91023">
        <ele>415.7</ele>
        <time>2020-06-20T14:58:58Z</time>
      </trkpt>
      <trkpt lat="43.77128" lon="5.91025">
        <ele>415.8</ele>
        <time>2020-06-20T14:59:00Z</time>
      </trkpt>
      <trkpt lat="43.7713" lon="5.91027">
        <ele>416</ele>
        <time>2020-06-20T14:59:01Z</time>
      </trkpt>
      <trkpt lat="43.77131" lon="5.91029">
        <ele>416.1</ele>
        <time>2020-06-20T14:59:02Z</time>
      </trkpt>
      <trkpt lat="43.77134" lon="5.91033">
        <ele>416.5</ele>
        <time>2020-06-20T14:59:04Z</time>
      </trkpt>
      <trkpt lat="43.77135" lon="5.91034">
        <ele>416.6</ele>
        <time>2020-06-20T14:59:05Z</time>
      </trkpt>
      <trkpt lat="43.77136" lon="5.91036">
        <ele>416.7</ele>
        <time>2020-06-20T14:59:06Z</time>
      </trkpt>
      <trkpt lat="43.77138" lon="5.9104">
        <ele>417</ele>
        <time>2020-06-20T14:59:09Z</time>
      </trkpt>
      <trkpt lat="43.77139" lon="5.91041">
        <ele>417.1</ele>
        <time>2020-06-20T14:59:10Z</time>
      </trkpt>
      <trkpt lat="43.77142" lon="5.91045">
        <ele>417.3</ele>
        <time>2020-06-20T14:59:12Z</time>
      </trkpt>
      <trkpt lat="43.77145" lon="5.91049">
        <ele>417.6</ele>
        <time>2020-06-20T14:59:14Z</time>
      </trkpt>
      <trkpt lat="43.77147" lon="5.91053">
        <ele>417.9</ele>
        <time>2020-06-20T14:59:15Z</time>
      </trkpt>
      <trkpt lat="43.77149" lon="5.91057">
        <ele>418.1</ele>
        <time>2020-06-20T14:59:16Z</time>
      </trkpt>
      <trkpt lat="43.77151" lon="5.91061">
        <ele>418.3</ele>
        <time>2020-06-20T14:59:18Z</time>
      </trkpt>
      <trkpt lat="43.77152" lon="5.91062">
        <ele>418.4</ele>
        <time>2020-06-20T14:59:19Z</time>
      </trkpt>
      <trkpt lat="43.77154" lon="5.91066">
        <ele>418.6</ele>
        <time>2020-06-20T14:59:20Z</time>
      </trkpt>
      <trkpt lat="43.77156" lon="5.9107">
        <ele>418.8</ele>
        <time>2020-06-20T14:59:22Z</time>
      </trkpt>
      <trkpt lat="43.77158" lon="5.91073">
        <ele>418.9</ele>
        <time>2020-06-20T14:59:23Z</time>
      </trkpt>
      <trkpt lat="43.7716" lon="5.91076">
        <ele>419.1</ele>
        <time>2020-06-20T14:59:25Z</time>
      </trkpt>
      <trkpt lat="43.77162" lon="5.9108">
        <ele>419.2</ele>
        <time>2020-06-20T14:59:26Z</time>
      </trkpt>
      <trkpt lat="43.77163" lon="5.91081">
        <ele>419.3</ele>
        <time>2020-06-20T14:59:27Z</time>
      </trkpt>
      <trkpt lat="43.77165" lon="5.91085">
        <ele>419.5</ele>
        <time>2020-06-20T14:59:29Z</time>
      </trkpt>
      <trkpt lat="43.77167" lon="5.91089">
        <ele>419.7</ele>
        <time>2020-06-20T14:59:30Z</time>
      </trkpt>
      <trkpt lat="43.7717" lon="5.91093">
        <ele>419.8</ele>
        <time>2020-06-20T14:59:31Z</time>
      </trkpt>
      <trkpt lat="43.7717" lon="5.91094">
        <ele>419.9</ele>
        <time>2020-06-20T14:59:32Z</time>
      </trkpt>
      <trkpt lat="43.77172" lon="5.91097">
        <ele>420</ele>
        <time>2020-06-20T14:59:34Z</time>
      </trkpt>
      <trkpt lat="43.77174" lon="5.91101">
        <ele>420.2</ele>
        <time>2020-06-20T14:59:35Z</time>
      </trkpt>
      <trkpt lat="43.77175" lon="5.91104">
        <ele>420.3</ele>
        <time>2020-06-20T14:59:36Z</time>
      </trkpt>
      <trkpt lat="43.77177" lon="5.91107">
        <ele>420.5</ele>
        <time>2020-06-20T14:59:38Z</time>
      </trkpt>
      <trkpt lat="43.77178" lon="5.91111">
        <ele>420.6</ele>
        <time>2020-06-20T14:59:39Z</time>
      </trkpt>
      <trkpt lat="43.77179" lon="5.91112">
        <ele>420.7</ele>
        <time>2020-06-20T14:59:40Z</time>
      </trkpt>
      <trkpt lat="43.7718" lon="5.91116">
        <ele>420.8</ele>
        <time>2020-06-20T14:59:41Z</time>
      </trkpt>
      <trkpt lat="43.77181" lon="5.91118">
        <ele>420.9</ele>
        <time>2020-06-20T14:59:42Z</time>
      </trkpt>
      <trkpt lat="43.77181" lon="5.91122">
        <ele>421</ele>
        <time>2020-06-20T14:59:44Z</time>
      </trkpt>
      <trkpt lat="43.77182" lon="5.91124">
        <ele>421.1</ele>
        <time>2020-06-20T14:59:45Z</time>
      </trkpt>
      <trkpt lat="43.77183" lon="5.91128">
        <ele>421.3</ele>
        <time>2020-06-20T14:59:46Z</time>
      </trkpt>
      <trkpt lat="43.77184" lon="5.91131">
        <ele>421.4</ele>
        <time>2020-06-20T14:59:47Z</time>
      </trkpt>
      <trkpt lat="43.77184" lon="5.91135">
        <ele>421.6</ele>
        <time>2020-06-20T14:59:49Z</time>
      </trkpt>
      <trkpt lat="43.77185" lon="5.9114">
        <ele>421.8</ele>
        <time>2020-06-20T14:59:50Z</time>
      </trkpt>
      <trkpt lat="43.77185" lon="5.91142">
        <ele>421.9</ele>
        <time>2020-06-20T14:59:51Z</time>
      </trkpt>
      <trkpt lat="43.77184" lon="5.91146">
        <ele>422</ele>
        <time>2020-06-20T14:59:52Z</time>
      </trkpt>
      <trkpt lat="43.77185" lon="5.91152">
        <ele>422.3</ele>
        <time>2020-06-20T14:59:54Z</time>
      </trkpt>
      <trkpt lat="43.77185" lon="5.91154">
        <ele>422.3</ele>
        <time>2020-06-20T14:59:55Z</time>
      </trkpt>
      <trkpt lat="43.77185" lon="5.91155">
        <ele>422.4</ele>
        <time>2020-06-20T14:59:56Z</time>
      </trkpt>
      <trkpt lat="43.77187" lon="5.9116">
        <ele>422.6</ele>
        <time>2020-06-20T14:59:57Z</time>
      </trkpt>
      <trkpt lat="43.77188" lon="5.91164">
        <ele>422.8</ele>
        <time>2020-06-20T14:59:59Z</time>
      </trkpt>
      <trkpt lat="43.77188" lon="5.91165">
        <ele>422.8</ele>
        <time>2020-06-20T15:00:00Z</time>
      </trkpt>
      <trkpt lat="43.77191" lon="5.91171">
        <ele>423.1</ele>
        <time>2020-06-20T15:00:02Z</time>
      </trkpt>
      <trkpt lat="43.77192" lon="5.91174">
        <ele>423.2</ele>
        <time>2020-06-20T15:00:03Z</time>
      </trkpt>
      <trkpt lat="43.77195" lon="5.91178">
        <ele>423.5</ele>
        <time>2020-06-20T15:00:04Z</time>
      </trkpt>
      <trkpt lat="43.77196" lon="5.9118">
        <ele>423.6</ele>
        <time>2020-06-20T15:00:05Z</time>
      </trkpt>
      <trkpt lat="43.77198" lon="5.91183">
        <ele>423.7</ele>
        <time>2020-06-20T15:00:06Z</time>
      </trkpt>
      <trkpt lat="43.77199" lon="5.91185">
        <ele>423.9</ele>
        <time>2020-06-20T15:00:07Z</time>
      </trkpt>
      <trkpt lat="43.77201" lon="5.91189">
        <ele>424.1</ele>
        <time>2020-06-20T15:00:09Z</time>
      </trkpt>
      <trkpt lat="43.77203" lon="5.91194">
        <ele>424.3</ele>
        <time>2020-06-20T15:00:10Z</time>
      </trkpt>
      <trkpt lat="43.77203" lon="5.91195">
        <ele>424.4</ele>
        <time>2020-06-20T15:00:11Z</time>
      </trkpt>
      <trkpt lat="43.77204" lon="5.91198">
        <ele>424.5</ele>
        <time>2020-06-20T15:00:12Z</time>
      </trkpt>
      <trkpt lat="43.77205" lon="5.91202">
        <ele>424.7</ele>
        <time>2020-06-20T15:00:14Z</time>
      </trkpt>
      <trkpt lat="43.77206" lon="5.91206">
        <ele>424.9</ele>
        <time>2020-06-20T15:00:16Z</time>
      </trkpt>
      <trkpt lat="43.77207" lon="5.91208">
        <ele>425</ele>
        <time>2020-06-20T15:00:17Z</time>
      </trkpt>
      <trkpt lat="43.77208" lon="5.91213">
        <ele>425.2</ele>
        <time>2020-06-20T15:00:19Z</time>
      </trkpt>
      <trkpt lat="43.77209" lon="5.91217">
        <ele>425.4</ele>
        <time>2020-06-20T15:00:20Z</time>
      </trkpt>
      <trkpt lat="43.77209" lon="5.91219">
        <ele>425.4</ele>
        <time>2020-06-20T15:00:21Z</time>
      </trkpt>
      <trkpt lat="43.77209" lon="5.91222">
        <ele>425.6</ele>
        <time>2020-06-20T15:00:22Z</time>
      </trkpt>
      <trkpt lat="43.7721" lon="5.91227">
        <ele>425.8</ele>
        <time>2020-06-20T15:00:24Z</time>
      </trkpt>
      <trkpt lat="43.77209" lon="5.91232">
        <ele>426</ele>
        <time>2020-06-20T15:00:25Z</time>
      </trkpt>
      <trkpt lat="43.77209" lon="5.91233">
        <ele>426</ele>
        <time>2020-06-20T15:00:26Z</time>
      </trkpt>
      <trkpt lat="43.7721" lon="5.91239">
        <ele>426.3</ele>
        <time>2020-06-20T15:00:27Z</time>
      </trkpt>
      <trkpt lat="43.7721" lon="5.9124">
        <ele>426.3</ele>
        <time>2020-06-20T15:00:28Z</time>
      </trkpt>
      <trkpt lat="43.7721" lon="5.91243">
        <ele>426.5</ele>
        <time>2020-06-20T15:00:29Z</time>
      </trkpt>
      <trkpt lat="43.77211" lon="5.91249">
        <ele>426.7</ele>
        <time>2020-06-20T15:00:31Z</time>
      </trkpt>
      <trkpt lat="43.77212" lon="5.91253">
        <ele>426.9</ele>
        <time>2020-06-20T15:00:32Z</time>
      </trkpt>
      <trkpt lat="43.77214" lon="5.91257">
        <ele>427</ele>
        <time>2020-06-20T15:00:33Z</time>
      </trkpt>
      <trkpt lat="43.77215" lon="5.9126">
        <ele>427.2</ele>
        <time>2020-06-20T15:00:34Z</time>
      </trkpt>
      <trkpt lat="43.77217" lon="5.91264">
        <ele>427.4</ele>
        <time>2020-06-20T15:00:35Z</time>
      </trkpt>
      <trkpt lat="43.77219" lon="5.91269">
        <ele>427.7</ele>
        <time>2020-06-20T15:00:37Z</time>
      </trkpt>
      <trkpt lat="43.77221" lon="5.91273">
        <ele>427.9</ele>
        <time>2020-06-20T15:00:38Z</time>
      </trkpt>
      <trkpt lat="43.77223" lon="5.91278">
        <ele>428.2</ele>
        <time>2020-06-20T15:00:40Z</time>
      </trkpt>
      <trkpt lat="43.77224" lon="5.9128">
        <ele>428.3</ele>
        <time>2020-06-20T15:00:41Z</time>
      </trkpt>
      <trkpt lat="43.77225" lon="5.91282">
        <ele>428.4</ele>
        <time>2020-06-20T15:00:42Z</time>
      </trkpt>
      <trkpt lat="43.77226" lon="5.91286">
        <ele>428.6</ele>
        <time>2020-06-20T15:00:43Z</time>
      </trkpt>
      <trkpt lat="43.77227" lon="5.9129">
        <ele>428.8</ele>
        <time>2020-06-20T15:00:45Z</time>
      </trkpt>
      <trkpt lat="43.77229" lon="5.91294">
        <ele>429</ele>
        <time>2020-06-20T15:00:46Z</time>
      </trkpt>
      <trkpt lat="43.7723" lon="5.91296">
        <ele>429.1</ele>
        <time>2020-06-20T15:00:47Z</time>
      </trkpt>
      <trkpt lat="43.77233" lon="5.913">
        <ele>429.4</ele>
        <time>2020-06-20T15:00:48Z</time>
      </trkpt>
      <trkpt lat="43.77236" lon="5.91305">
        <ele>429.7</ele>
        <time>2020-06-20T15:00:49Z</time>
      </trkpt>
      <trkpt lat="43.77238" lon="5.91309">
        <ele>429.9</ele>
        <time>2020-06-20T15:00:50Z</time>
      </trkpt>
      <trkpt lat="43.77242" lon="5.91315">
        <ele>430.2</ele>
        <time>2020-06-20T15:00:52Z</time>
      </trkpt>
      <trkpt lat="43.77244" lon="5.91318">
        <ele>430.4</ele>
        <time>2020-06-20T15:00:53Z</time>
      </trkpt>
      <trkpt lat="43.77249" lon="5.91323">
        <ele>430.8</ele>
        <time>2020-06-20T15:00:55Z</time>
      </trkpt>
      <trkpt lat="43.77251" lon="5.91326">
        <ele>431</ele>
        <time>2020-06-20T15:00:56Z</time>
      </trkpt>
      <trkpt lat="43.77255" lon="5.9133">
        <ele>431.2</ele>
        <time>2020-06-20T15:00:58Z</time>
      </trkpt>
      <trkpt lat="43.77257" lon="5.91332">
        <ele>431.4</ele>
        <time>2020-06-20T15:00:59Z</time>
      </trkpt>
      <trkpt lat="43.77261" lon="5.91335">
        <ele>431.7</ele>
        <time>2020-06-20T15:01:01Z</time>
      </trkpt>
      <trkpt lat="43.77262" lon="5.91336">
        <ele>431.8</ele>
        <time>2020-06-20T15:01:02Z</time>
      </trkpt>
      <trkpt lat="43.77264" lon="5.91339">
        <ele>432</ele>
        <time>2020-06-20T15:01:04Z</time>
      </trkpt>
      <trkpt lat="43.77267" lon="5.91344">
        <ele>432.3</ele>
        <time>2020-06-20T15:01:06Z</time>
      </trkpt>
      <trkpt lat="43.77267" lon="5.91345">
        <ele>432.4</ele>
        <time>2020-06-20T15:01:07Z</time>
      </trkpt>
      <trkpt lat="43.77268" lon="5.91346">
        <ele>432.4</ele>
        <time>2020-06-20T15:01:08Z</time>
      </trkpt>
      <trkpt lat="43.77271" lon="5.9135">
        <ele>432.7</ele>
        <time>2020-06-20T15:01:10Z</time>
      </trkpt>
      <trkpt lat="43.77272" lon="5.91352">
        <ele>432.8</ele>
        <time>2020-06-20T15:01:11Z</time>
      </trkpt>
      <trkpt lat="43.77275" lon="5.91354">
        <ele>433</ele>
        <time>2020-06-20T15:01:13Z</time>
      </trkpt>
      <trkpt lat="43.77278" lon="5.91355">
        <ele>433.2</ele>
        <time>2020-06-20T15:01:14Z</time>
      </trkpt>
      <trkpt lat="43.77282" lon="5.91356">
        <ele>433.5</ele>
        <time>2020-06-20T15:01:16Z</time>
      </trkpt>
      <trkpt lat="43.77283" lon="5.91357">
        <ele>433.6</ele>
        <time>2020-06-20T15:01:17Z</time>
      </trkpt>
      <trkpt lat="43.77286" lon="5.91358">
        <ele>433.8</ele>
        <time>2020-06-20T15:01:19Z</time>
      </trkpt>
      <trkpt lat="43.77287" lon="5.91359">
        <ele>433.9</ele>
        <time>2020-06-20T15:01:20Z</time>
      </trkpt>
      <trkpt lat="43.7729" lon="5.9136">
        <ele>434</ele>
        <time>2020-06-20T15:01:21Z</time>
      </trkpt>
      <trkpt lat="43.77293" lon="5.91362">
        <ele>434.3</ele>
        <time>2020-06-20T15:01:23Z</time>
      </trkpt>
      <trkpt lat="43.77294" lon="5.91363">
        <ele>434.3</ele>
        <time>2020-06-20T15:01:24Z</time>
      </trkpt>
      <trkpt lat="43.77296" lon="5.91364">
        <ele>434.4</ele>
        <time>2020-06-20T15:01:26Z</time>
      </trkpt>
      <trkpt lat="43.77297" lon="5.91365">
        <ele>434.5</ele>
        <time>2020-06-20T15:01:27Z</time>
      </trkpt>
      <trkpt lat="43.77298" lon="5.91365">
        <ele>434.5</ele>
        <time>2020-06-20T15:01:28Z</time>
      </trkpt>
      <trkpt lat="43.77298" lon="5.91366">
        <ele>434.6</ele>
        <time>2020-06-20T15:01:29Z</time>
      </trkpt>
      <trkpt lat="43.77298" lon="5.91366">
        <ele>434.6</ele>
        <time>2020-06-20T15:01:31Z</time>
      </trkpt>
      <trkpt lat="43.77298" lon="5.91366">
        <ele>434.6</ele>
        <time>2020-06-20T15:01:32Z</time>
      </trkpt>
      <trkpt lat="43.77298" lon="5.91366">
        <ele>434.6</ele>
        <time>2020-06-20T15:01:34Z</time>
      </trkpt>
      <trkpt lat="43.77298" lon="5.91366">
        <ele>434.6</ele>
        <time>2020-06-20T15:01:36Z</time>
      </trkpt>
      <trkpt lat="43.77298" lon="5.91367">
        <ele>434.6</ele>
        <time>2020-06-20T15:01:38Z</time>
      </trkpt>
      <trkpt lat="43.77303" lon="5.91373">
        <ele>435</ele>
        <time>2020-06-20T15:03:03Z</time>
      </trkpt>
      <trkpt lat="43.77306" lon="5.91377">
        <ele>435.2</ele>
        <time>2020-06-20T15:03:05Z</time>
      </trkpt>
      <trkpt lat="43.77307" lon="5.91379">
        <ele>435.3</ele>
        <time>2020-06-20T15:03:06Z</time>
      </trkpt>
      <trkpt lat="43.77308" lon="5.91377">
        <ele>435.3</ele>
        <time>2020-06-20T15:03:08Z</time>
      </trkpt>
      <trkpt lat="43.77308" lon="5.91376">
        <ele>435.4</ele>
        <time>2020-06-20T15:03:09Z</time>
      </trkpt>
      <trkpt lat="43.77309" lon="5.91376">
        <ele>435.5</ele>
        <time>2020-06-20T15:03:10Z</time>
      </trkpt>
      <trkpt lat="43.77311" lon="5.91377">
        <ele>435.6</ele>
        <time>2020-06-20T15:03:11Z</time>
      </trkpt>
      <trkpt lat="43.77313" lon="5.91381">
        <ele>435.8</ele>
        <time>2020-06-20T15:03:13Z</time>
      </trkpt>
      <trkpt lat="43.77315" lon="5.91385">
        <ele>436</ele>
        <time>2020-06-20T15:03:14Z</time>
      </trkpt>
      <trkpt lat="43.77315" lon="5.91386">
        <ele>436</ele>
        <time>2020-06-20T15:03:15Z</time>
      </trkpt>
      <trkpt lat="43.77316" lon="5.91388">
        <ele>436.1</ele>
        <time>2020-06-20T15:03:16Z</time>
      </trkpt>
      <trkpt lat="43.77318" lon="5.91391">
        <ele>436.3</ele>
        <time>2020-06-20T15:03:18Z</time>
      </trkpt>
      <trkpt lat="43.77319" lon="5.91394">
        <ele>436.5</ele>
        <time>2020-06-20T15:03:19Z</time>
      </trkpt>
      <trkpt lat="43.77321" lon="5.91398">
        <ele>436.7</ele>
        <time>2020-06-20T15:03:21Z</time>
      </trkpt>
      <trkpt lat="43.77323" lon="5.91403">
        <ele>436.9</ele>
        <time>2020-06-20T15:03:22Z</time>
      </trkpt>
      <trkpt lat="43.77323" lon="5.91404">
        <ele>437</ele>
        <time>2020-06-20T15:03:23Z</time>
      </trkpt>
      <trkpt lat="43.77324" lon="5.91408">
        <ele>437.2</ele>
        <time>2020-06-20T15:03:25Z</time>
      </trkpt>
      <trkpt lat="43.77324" lon="5.91413">
        <ele>437.4</ele>
        <time>2020-06-20T15:03:27Z</time>
      </trkpt>
      <trkpt lat="43.77324" lon="5.91417">
        <ele>437.6</ele>
        <time>2020-06-20T15:03:28Z</time>
      </trkpt>
      <trkpt lat="43.77324" lon="5.91418">
        <ele>437.6</ele>
        <time>2020-06-20T15:03:29Z</time>
      </trkpt>
      <trkpt lat="43.77324" lon="5.91423">
        <ele>437.8</ele>
        <time>2020-06-20T15:03:31Z</time>
      </trkpt>
      <trkpt lat="43.77324" lon="5.91425">
        <ele>437.9</ele>
        <time>2020-06-20T15:03:32Z</time>
      </trkpt>
      <trkpt lat="43.77323" lon="5.91431">
        <ele>438.2</ele>
        <time>2020-06-20T15:03:34Z</time>
      </trkpt>
      <trkpt lat="43.77323" lon="5.91433">
        <ele>438.3</ele>
        <time>2020-06-20T15:03:35Z</time>
      </trkpt>
      <trkpt lat="43.77323" lon="5.91435">
        <ele>438.4</ele>
        <time>2020-06-20T15:03:36Z</time>
      </trkpt>
      <trkpt lat="43.77322" lon="5.9144">
        <ele>438.6</ele>
        <time>2020-06-20T15:03:38Z</time>
      </trkpt>
      <trkpt lat="43.77321" lon="5.91444">
        <ele>438.8</ele>
        <time>2020-06-20T15:03:39Z</time>
      </trkpt>
      <trkpt lat="43.77318" lon="5.9145">
        <ele>439</ele>
        <time>2020-06-20T15:03:41Z</time>
      </trkpt>
      <trkpt lat="43.77317" lon="5.91454">
        <ele>439.2</ele>
        <time>2020-06-20T15:03:42Z</time>
      </trkpt>
      <trkpt lat="43.77316" lon="5.91461">
        <ele>439.4</ele>
        <time>2020-06-20T15:03:43Z</time>
      </trkpt>
      <trkpt lat="43.77315" lon="5.91465">
        <ele>439.6</ele>
        <time>2020-06-20T15:03:45Z</time>
      </trkpt>
      <trkpt lat="43.77314" lon="5.91472">
        <ele>439.8</ele>
        <time>2020-06-20T15:03:47Z</time>
      </trkpt>
      <trkpt lat="43.77314" lon="5.91477">
        <ele>440</ele>
        <time>2020-06-20T15:03:48Z</time>
      </trkpt>
      <trkpt lat="43.77314" lon="5.91479">
        <ele>440.1</ele>
        <time>2020-06-20T15:03:49Z</time>
      </trkpt>
      <trkpt lat="43.77314" lon="5.91484">
        <ele>440.3</ele>
        <time>2020-06-20T15:03:51Z</time>
      </trkpt>
      <trkpt lat="43.77314" lon="5.9149">
        <ele>440.5</ele>
        <time>2020-06-20T15:03:52Z</time>
      </trkpt>
      <trkpt lat="43.77314" lon="5.91491">
        <ele>440.6</ele>
        <time>2020-06-20T15:03:53Z</time>
      </trkpt>
      <trkpt lat="43.77315" lon="5.91495">
        <ele>440.8</ele>
        <time>2020-06-20T15:03:54Z</time>
      </trkpt>
      <trkpt lat="43.77315" lon="5.91498">
        <ele>440.9</ele>
        <time>2020-06-20T15:03:55Z</time>
      </trkpt>
      <trkpt lat="43.77316" lon="5.915">
        <ele>441</ele>
        <time>2020-06-20T15:03:56Z</time>
      </trkpt>
      <trkpt lat="43.77316" lon="5.91502">
        <ele>441.1</ele>
        <time>2020-06-20T15:03:57Z</time>
      </trkpt>
      <trkpt lat="43.77316" lon="5.91504">
        <ele>441.2</ele>
        <time>2020-06-20T15:03:58Z</time>
      </trkpt>
      <trkpt lat="43.77316" lon="5.91509">
        <ele>441.5</ele>
        <time>2020-06-20T15:04:00Z</time>
      </trkpt>
      <trkpt lat="43.77317" lon="5.9151">
        <ele>441.5</ele>
        <time>2020-06-20T15:04:01Z</time>
      </trkpt>
      <trkpt lat="43.77318" lon="5.91515">
        <ele>441.8</ele>
        <time>2020-06-20T15:04:03Z</time>
      </trkpt>
      <trkpt lat="43.77318" lon="5.91516">
        <ele>441.8</ele>
        <time>2020-06-20T15:04:04Z</time>
      </trkpt>
      <trkpt lat="43.77318" lon="5.91518">
        <ele>441.9</ele>
        <time>2020-06-20T15:04:05Z</time>
      </trkpt>
      <trkpt lat="43.77318" lon="5.91522">
        <ele>442.1</ele>
        <time>2020-06-20T15:04:07Z</time>
      </trkpt>
      <trkpt lat="43.77318" lon="5.91527">
        <ele>442.3</ele>
        <time>2020-06-20T15:04:08Z</time>
      </trkpt>
      <trkpt lat="43.77318" lon="5.91528">
        <ele>442.4</ele>
        <time>2020-06-20T15:04:09Z</time>
      </trkpt>
      <trkpt lat="43.77317" lon="5.91533">
        <ele>442.6</ele>
        <time>2020-06-20T15:04:10Z</time>
      </trkpt>
      <trkpt lat="43.77317" lon="5.91534">
        <ele>442.7</ele>
        <time>2020-06-20T15:04:11Z</time>
      </trkpt>
      <trkpt lat="43.77317" lon="5.91538">
        <ele>442.8</ele>
        <time>2020-06-20T15:04:13Z</time>
      </trkpt>
      <trkpt lat="43.77318" lon="5.91543">
        <ele>443</ele>
        <time>2020-06-20T15:04:15Z</time>
      </trkpt>
      <trkpt lat="43.77319" lon="5.91546">
        <ele>443.2</ele>
        <time>2020-06-20T15:04:16Z</time>
      </trkpt>
      <trkpt lat="43.7732" lon="5.91551">
        <ele>443.4</ele>
        <time>2020-06-20T15:04:18Z</time>
      </trkpt>
      <trkpt lat="43.77321" lon="5.91554">
        <ele>443.5</ele>
        <time>2020-06-20T15:04:19Z</time>
      </trkpt>
      <trkpt lat="43.77322" lon="5.91556">
        <ele>443.6</ele>
        <time>2020-06-20T15:04:20Z</time>
      </trkpt>
      <trkpt lat="43.77323" lon="5.91559">
        <ele>443.8</ele>
        <time>2020-06-20T15:04:21Z</time>
      </trkpt>
      <trkpt lat="43.77323" lon="5.9156">
        <ele>443.8</ele>
        <time>2020-06-20T15:04:22Z</time>
      </trkpt>
      <trkpt lat="43.77326" lon="5.91565">
        <ele>444</ele>
        <time>2020-06-20T15:04:24Z</time>
      </trkpt>
      <trkpt lat="43.77328" lon="5.91568">
        <ele>444.2</ele>
        <time>2020-06-20T15:04:26Z</time>
      </trkpt>
      <trkpt lat="43.7733" lon="5.91571">
        <ele>444.4</ele>
        <time>2020-06-20T15:04:27Z</time>
      </trkpt>
      <trkpt lat="43.77333" lon="5.91575">
        <ele>444.6</ele>
        <time>2020-06-20T15:04:28Z</time>
      </trkpt>
      <trkpt lat="43.77334" lon="5.91577">
        <ele>444.7</ele>
        <time>2020-06-20T15:04:29Z</time>
      </trkpt>
      <trkpt lat="43.77335" lon="5.9158">
        <ele>444.8</ele>
        <time>2020-06-20T15:04:31Z</time>
      </trkpt>
      <trkpt lat="43.77337" lon="5.91584">
        <ele>445</ele>
        <time>2020-06-20T15:04:32Z</time>
      </trkpt>
      <trkpt lat="43.77339" lon="5.91587">
        <ele>445.2</ele>
        <time>2020-06-20T15:04:33Z</time>
      </trkpt>
      <trkpt lat="43.77341" lon="5.91592">
        <ele>445.4</ele>
        <time>2020-06-20T15:04:34Z</time>
      </trkpt>
      <trkpt lat="43.77345" lon="5.91598">
        <ele>445.7</ele>
        <time>2020-06-20T15:04:36Z</time>
      </trkpt>
      <trkpt lat="43.77348" lon="5.91604">
        <ele>446</ele>
        <time>2020-06-20T15:04:37Z</time>
      </trkpt>
      <trkpt lat="43.77351" lon="5.9161">
        <ele>446.3</ele>
        <time>2020-06-20T15:04:38Z</time>
      </trkpt>
      <trkpt lat="43.77353" lon="5.91614">
        <ele>446.5</ele>
        <time>2020-06-20T15:04:40Z</time>
      </trkpt>
      <trkpt lat="43.77354" lon="5.91617">
        <ele>446.6</ele>
        <time>2020-06-20T15:04:41Z</time>
      </trkpt>
      <trkpt lat="43.77357" lon="5.91621">
        <ele>446.8</ele>
        <time>2020-06-20T15:04:42Z</time>
      </trkpt>
      <trkpt lat="43.77357" lon="5.91622">
        <ele>446.8</ele>
        <time>2020-06-20T15:04:43Z</time>
      </trkpt>
      <trkpt lat="43.7736" lon="5.91627">
        <ele>447</ele>
        <time>2020-06-20T15:04:45Z</time>
      </trkpt>
      <trkpt lat="43.7736" lon="5.91628">
        <ele>447.1</ele>
        <time>2020-06-20T15:04:46Z</time>
      </trkpt>
      <trkpt lat="43.77361" lon="5.9163">
        <ele>447.2</ele>
        <time>2020-06-20T15:04:47Z</time>
      </trkpt>
      <trkpt lat="43.77363" lon="5.91635">
        <ele>447.4</ele>
        <time>2020-06-20T15:04:49Z</time>
      </trkpt>
      <trkpt lat="43.77364" lon="5.91638">
        <ele>447.5</ele>
        <time>2020-06-20T15:04:50Z</time>
      </trkpt>
      <trkpt lat="43.77365" lon="5.91639">
        <ele>447.6</ele>
        <time>2020-06-20T15:04:51Z</time>
      </trkpt>
      <trkpt lat="43.77367" lon="5.91642">
        <ele>447.7</ele>
        <time>2020-06-20T15:04:52Z</time>
      </trkpt>
      <trkpt lat="43.77368" lon="5.91645">
        <ele>447.9</ele>
        <time>2020-06-20T15:04:54Z</time>
      </trkpt>
      <trkpt lat="43.77369" lon="5.91647">
        <ele>448</ele>
        <time>2020-06-20T15:04:56Z</time>
      </trkpt>
      <trkpt lat="43.7737" lon="5.91649">
        <ele>448.1</ele>
        <time>2020-06-20T15:04:57Z</time>
      </trkpt>
      <trkpt lat="43.7737" lon="5.91651">
        <ele>448.2</ele>
        <time>2020-06-20T15:04:58Z</time>
      </trkpt>
      <trkpt lat="43.77371" lon="5.91653">
        <ele>448.2</ele>
        <time>2020-06-20T15:04:59Z</time>
      </trkpt>
      <trkpt lat="43.77372" lon="5.91657">
        <ele>448.4</ele>
        <time>2020-06-20T15:05:01Z</time>
      </trkpt>
      <trkpt lat="43.77374" lon="5.9166">
        <ele>448.5</ele>
        <time>2020-06-20T15:05:02Z</time>
      </trkpt>
      <trkpt lat="43.77375" lon="5.91661">
        <ele>448.6</ele>
        <time>2020-06-20T15:05:03Z</time>
      </trkpt>
      <trkpt lat="43.77377" lon="5.91664">
        <ele>448.7</ele>
        <time>2020-06-20T15:05:04Z</time>
      </trkpt>
      <trkpt lat="43.77379" lon="5.91667">
        <ele>448.9</ele>
        <time>2020-06-20T15:05:06Z</time>
      </trkpt>
      <trkpt lat="43.7738" lon="5.91668">
        <ele>449</ele>
        <time>2020-06-20T15:05:07Z</time>
      </trkpt>
      <trkpt lat="43.77383" lon="5.91671">
        <ele>449.2</ele>
        <time>2020-06-20T15:05:08Z</time>
      </trkpt>
      <trkpt lat="43.77385" lon="5.91673">
        <ele>449.3</ele>
        <time>2020-06-20T15:05:09Z</time>
      </trkpt>
      <trkpt lat="43.77388" lon="5.91676">
        <ele>449.5</ele>
        <time>2020-06-20T15:05:11Z</time>
      </trkpt>
      <trkpt lat="43.77388" lon="5.91678">
        <ele>449.6</ele>
        <time>2020-06-20T15:05:12Z</time>
      </trkpt>
      <trkpt lat="43.77391" lon="5.91682">
        <ele>449.8</ele>
        <time>2020-06-20T15:05:13Z</time>
      </trkpt>
      <trkpt lat="43.77392" lon="5.91683">
        <ele>449.9</ele>
        <time>2020-06-20T15:05:14Z</time>
      </trkpt>
      <trkpt lat="43.77394" lon="5.91686">
        <ele>450.1</ele>
        <time>2020-06-20T15:05:16Z</time>
      </trkpt>
      <trkpt lat="43.77397" lon="5.91689">
        <ele>450.3</ele>
        <time>2020-06-20T15:05:17Z</time>
      </trkpt>
      <trkpt lat="43.77403" lon="5.91694">
        <ele>450.7</ele>
        <time>2020-06-20T15:05:18Z</time>
      </trkpt>
      <trkpt lat="43.77408" lon="5.91697">
        <ele>451</ele>
        <time>2020-06-20T15:05:20Z</time>
      </trkpt>
      <trkpt lat="43.77411" lon="5.91699">
        <ele>451.2</ele>
        <time>2020-06-20T15:05:21Z</time>
      </trkpt>
      <trkpt lat="43.77412" lon="5.91701">
        <ele>451.3</ele>
        <time>2020-06-20T15:05:22Z</time>
      </trkpt>
      <trkpt lat="43.77417" lon="5.91703">
        <ele>451.5</ele>
        <time>2020-06-20T15:05:24Z</time>
      </trkpt>
      <trkpt lat="43.77418" lon="5.91703">
        <ele>451.6</ele>
        <time>2020-06-20T15:05:25Z</time>
      </trkpt>
      <trkpt lat="43.77419" lon="5.91704">
        <ele>451.7</ele>
        <time>2020-06-20T15:05:26Z</time>
      </trkpt>
      <trkpt lat="43.77423" lon="5.91705">
        <ele>451.9</ele>
        <time>2020-06-20T15:05:28Z</time>
      </trkpt>
      <trkpt lat="43.77424" lon="5.91705">
        <ele>451.9</ele>
        <time>2020-06-20T15:05:29Z</time>
      </trkpt>
      <trkpt lat="43.77426" lon="5.91706">
        <ele>452.1</ele>
        <time>2020-06-20T15:05:30Z</time>
      </trkpt>
      <trkpt lat="43.77429" lon="5.91707">
        <ele>452.2</ele>
        <time>2020-06-20T15:05:32Z</time>
      </trkpt>
      <trkpt lat="43.7743" lon="5.91707">
        <ele>452.3</ele>
        <time>2020-06-20T15:05:33Z</time>
      </trkpt>
      <trkpt lat="43.77432" lon="5.91708">
        <ele>452.4</ele>
        <time>2020-06-20T15:05:34Z</time>
      </trkpt>
      <trkpt lat="43.77434" lon="5.91709">
        <ele>452.5</ele>
        <time>2020-06-20T15:05:36Z</time>
      </trkpt>
      <trkpt lat="43.77437" lon="5.91711">
        <ele>452.7</ele>
        <time>2020-06-20T15:05:37Z</time>
      </trkpt>
      <trkpt lat="43.77438" lon="5.91712">
        <ele>452.7</ele>
        <time>2020-06-20T15:05:38Z</time>
      </trkpt>
      <trkpt lat="43.77441" lon="5.91714">
        <ele>452.9</ele>
        <time>2020-06-20T15:05:39Z</time>
      </trkpt>
      <trkpt lat="43.77441" lon="5.91714">
        <ele>453</ele>
        <time>2020-06-20T15:05:40Z</time>
      </trkpt>
      <trkpt lat="43.77443" lon="5.91716">
        <ele>453.1</ele>
        <time>2020-06-20T15:05:41Z</time>
      </trkpt>
      <trkpt lat="43.77446" lon="5.91717">
        <ele>453.2</ele>
        <time>2020-06-20T15:05:43Z</time>
      </trkpt>
      <trkpt lat="43.77449" lon="5.9172">
        <ele>453.5</ele>
        <time>2020-06-20T15:05:44Z</time>
      </trkpt>
      <trkpt lat="43.7745" lon="5.91721">
        <ele>453.5</ele>
        <time>2020-06-20T15:05:45Z</time>
      </trkpt>
      <trkpt lat="43.77453" lon="5.91726">
        <ele>453.8</ele>
        <time>2020-06-20T15:05:47Z</time>
      </trkpt>
      <trkpt lat="43.77458" lon="5.91733">
        <ele>454.2</ele>
        <time>2020-06-20T15:05:49Z</time>
      </trkpt>
      <trkpt lat="43.7746" lon="5.91737">
        <ele>454.4</ele>
        <time>2020-06-20T15:05:50Z</time>
      </trkpt>
      <trkpt lat="43.77462" lon="5.91739">
        <ele>454.6</ele>
        <time>2020-06-20T15:05:51Z</time>
      </trkpt>
      <trkpt lat="43.77465" lon="5.91743">
        <ele>454.8</ele>
        <time>2020-06-20T15:05:53Z</time>
      </trkpt>
      <trkpt lat="43.77468" lon="5.91748">
        <ele>455</ele>
        <time>2020-06-20T15:05:54Z</time>
      </trkpt>
      <trkpt lat="43.77469" lon="5.91751">
        <ele>455.2</ele>
        <time>2020-06-20T15:05:55Z</time>
      </trkpt>
      <trkpt lat="43.7747" lon="5.91756">
        <ele>455.4</ele>
        <time>2020-06-20T15:05:57Z</time>
      </trkpt>
      <trkpt lat="43.77471" lon="5.91758">
        <ele>455.5</ele>
        <time>2020-06-20T15:05:58Z</time>
      </trkpt>
      <trkpt lat="43.77472" lon="5.9176">
        <ele>455.6</ele>
        <time>2020-06-20T15:05:59Z</time>
      </trkpt>
      <trkpt lat="43.77473" lon="5.91765">
        <ele>455.8</ele>
        <time>2020-06-20T15:06:00Z</time>
      </trkpt>
      <trkpt lat="43.77473" lon="5.91766">
        <ele>455.9</ele>
        <time>2020-06-20T15:06:01Z</time>
      </trkpt>
      <trkpt lat="43.77474" lon="5.91772">
        <ele>456.1</ele>
        <time>2020-06-20T15:06:03Z</time>
      </trkpt>
      <trkpt lat="43.77475" lon="5.91774">
        <ele>456.2</ele>
        <time>2020-06-20T15:06:04Z</time>
      </trkpt>
      <trkpt lat="43.77475" lon="5.91775">
        <ele>456.3</ele>
        <time>2020-06-20T15:06:05Z</time>
      </trkpt>
      <trkpt lat="43.77477" lon="5.9178">
        <ele>456.6</ele>
        <time>2020-06-20T15:06:07Z</time>
      </trkpt>
      <trkpt lat="43.77478" lon="5.91783">
        <ele>456.8</ele>
        <time>2020-06-20T15:06:08Z</time>
      </trkpt>
      <trkpt lat="43.7748" lon="5.91788">
        <ele>457</ele>
        <time>2020-06-20T15:06:10Z</time>
      </trkpt>
      <trkpt lat="43.77482" lon="5.91792">
        <ele>457.3</ele>
        <time>2020-06-20T15:06:11Z</time>
      </trkpt>
      <trkpt lat="43.77484" lon="5.91796">
        <ele>457.5</ele>
        <time>2020-06-20T15:06:13Z</time>
      </trkpt>
      <trkpt lat="43.77487" lon="5.918">
        <ele>457.8</ele>
        <time>2020-06-20T15:06:14Z</time>
      </trkpt>
      <trkpt lat="43.77488" lon="5.91801">
        <ele>457.8</ele>
        <time>2020-06-20T15:06:15Z</time>
      </trkpt>
      <trkpt lat="43.7749" lon="5.91805">
        <ele>458</ele>
        <time>2020-06-20T15:06:16Z</time>
      </trkpt>
      <trkpt lat="43.77491" lon="5.91806">
        <ele>458.1</ele>
        <time>2020-06-20T15:06:17Z</time>
      </trkpt>
      <trkpt lat="43.77493" lon="5.9181">
        <ele>458.3</ele>
        <time>2020-06-20T15:06:19Z</time>
      </trkpt>
      <trkpt lat="43.77495" lon="5.91812">
        <ele>458.5</ele>
        <time>2020-06-20T15:06:20Z</time>
      </trkpt>
      <trkpt lat="43.77498" lon="5.91816">
        <ele>458.7</ele>
        <time>2020-06-20T15:06:22Z</time>
      </trkpt>
      <trkpt lat="43.77499" lon="5.91819">
        <ele>458.9</ele>
        <time>2020-06-20T15:06:23Z</time>
      </trkpt>
      <trkpt lat="43.77502" lon="5.91822">
        <ele>459</ele>
        <time>2020-06-20T15:06:24Z</time>
      </trkpt>
      <trkpt lat="43.77504" lon="5.91825">
        <ele>459.2</ele>
        <time>2020-06-20T15:06:26Z</time>
      </trkpt>
      <trkpt lat="43.77506" lon="5.91829">
        <ele>459.4</ele>
        <time>2020-06-20T15:06:28Z</time>
      </trkpt>
      <trkpt lat="43.77508" lon="5.91833">
        <ele>459.6</ele>
        <time>2020-06-20T15:06:29Z</time>
      </trkpt>
      <trkpt lat="43.77509" lon="5.91835">
        <ele>459.7</ele>
        <time>2020-06-20T15:06:30Z</time>
      </trkpt>
      <trkpt lat="43.7751" lon="5.91837">
        <ele>459.8</ele>
        <time>2020-06-20T15:06:31Z</time>
      </trkpt>
      <trkpt lat="43.77511" lon="5.91839">
        <ele>459.9</ele>
        <time>2020-06-20T15:06:33Z</time>
      </trkpt>
      <trkpt lat="43.77512" lon="5.91841">
        <ele>460</ele>
        <time>2020-06-20T15:06:34Z</time>
      </trkpt>
      <trkpt lat="43.77513" lon="5.91843">
        <ele>460</ele>
        <time>2020-06-20T15:06:35Z</time>
      </trkpt>
      <trkpt lat="43.77514" lon="5.91845">
        <ele>460.1</ele>
        <time>2020-06-20T15:06:36Z</time>
      </trkpt>
      <trkpt lat="43.77515" lon="5.91847">
        <ele>460.2</ele>
        <time>2020-06-20T15:06:38Z</time>
      </trkpt>
      <trkpt lat="43.77516" lon="5.91849">
        <ele>460.3</ele>
        <time>2020-06-20T15:06:39Z</time>
      </trkpt>
      <trkpt lat="43.77517" lon="5.91853">
        <ele>460.5</ele>
        <time>2020-06-20T15:06:41Z</time>
      </trkpt>
      <trkpt lat="43.77519" lon="5.91857">
        <ele>460.7</ele>
        <time>2020-06-20T15:06:42Z</time>
      </trkpt>
      <trkpt lat="43.7752" lon="5.91859">
        <ele>460.8</ele>
        <time>2020-06-20T15:06:43Z</time>
      </trkpt>
      <trkpt lat="43.77523" lon="5.91864">
        <ele>461.1</ele>
        <time>2020-06-20T15:06:45Z</time>
      </trkpt>
      <trkpt lat="43.77525" lon="5.91866">
        <ele>461.2</ele>
        <time>2020-06-20T15:06:47Z</time>
      </trkpt>
      <trkpt lat="43.77526" lon="5.91868">
        <ele>461.3</ele>
        <time>2020-06-20T15:06:48Z</time>
      </trkpt>
      <trkpt lat="43.77527" lon="5.91869">
        <ele>461.4</ele>
        <time>2020-06-20T15:06:49Z</time>
      </trkpt>
      <trkpt lat="43.77529" lon="5.91872">
        <ele>461.6</ele>
        <time>2020-06-20T15:06:50Z</time>
      </trkpt>
      <trkpt lat="43.77531" lon="5.91874">
        <ele>461.7</ele>
        <time>2020-06-20T15:06:52Z</time>
      </trkpt>
      <trkpt lat="43.77533" lon="5.91878">
        <ele>461.9</ele>
        <time>2020-06-20T15:06:53Z</time>
      </trkpt>
      <trkpt lat="43.77534" lon="5.91879">
        <ele>462</ele>
        <time>2020-06-20T15:06:54Z</time>
      </trkpt>
      <trkpt lat="43.77537" lon="5.91884">
        <ele>462.3</ele>
        <time>2020-06-20T15:06:56Z</time>
      </trkpt>
      <trkpt lat="43.77538" lon="5.91886">
        <ele>462.4</ele>
        <time>2020-06-20T15:06:57Z</time>
      </trkpt>
      <trkpt lat="43.77539" lon="5.91888">
        <ele>462.4</ele>
        <time>2020-06-20T15:06:58Z</time>
      </trkpt>
      <trkpt lat="43.7754" lon="5.91891">
        <ele>462.6</ele>
        <time>2020-06-20T15:06:59Z</time>
      </trkpt>
      <trkpt lat="43.77541" lon="5.91894">
        <ele>462.7</ele>
        <time>2020-06-20T15:07:00Z</time>
      </trkpt>
      <trkpt lat="43.77542" lon="5.91897">
        <ele>462.9</ele>
        <time>2020-06-20T15:07:02Z</time>
      </trkpt>
      <trkpt lat="43.77544" lon="5.91901">
        <ele>463</ele>
        <time>2020-06-20T15:07:04Z</time>
      </trkpt>
      <trkpt lat="43.77545" lon="5.91905">
        <ele>463.2</ele>
        <time>2020-06-20T15:07:05Z</time>
      </trkpt>
      <trkpt lat="43.77547" lon="5.9191">
        <ele>463.5</ele>
        <time>2020-06-20T15:07:07Z</time>
      </trkpt>
      <trkpt lat="43.77548" lon="5.91912">
        <ele>463.5</ele>
        <time>2020-06-20T15:07:08Z</time>
      </trkpt>
      <trkpt lat="43.77549" lon="5.91914">
        <ele>463.6</ele>
        <time>2020-06-20T15:07:09Z</time>
      </trkpt>
      <trkpt lat="43.77549" lon="5.91919">
        <ele>463.8</ele>
        <time>2020-06-20T15:07:10Z</time>
      </trkpt>
      <trkpt lat="43.77549" lon="5.9192">
        <ele>463.9</ele>
        <time>2020-06-20T15:07:11Z</time>
      </trkpt>
      <trkpt lat="43.7755" lon="5.91925">
        <ele>464.1</ele>
        <time>2020-06-20T15:07:13Z</time>
      </trkpt>
      <trkpt lat="43.7755" lon="5.91926">
        <ele>464.1</ele>
        <time>2020-06-20T15:07:14Z</time>
      </trkpt>
      <trkpt lat="43.77549" lon="5.9193">
        <ele>464.3</ele>
        <time>2020-06-20T15:07:15Z</time>
      </trkpt>
      <trkpt lat="43.77549" lon="5.91932">
        <ele>464.4</ele>
        <time>2020-06-20T15:07:16Z</time>
      </trkpt>
      <trkpt lat="43.77549" lon="5.91937">
        <ele>464.6</ele>
        <time>2020-06-20T15:07:18Z</time>
      </trkpt>
      <trkpt lat="43.77549" lon="5.91939">
        <ele>464.7</ele>
        <time>2020-06-20T15:07:19Z</time>
      </trkpt>
      <trkpt lat="43.7755" lon="5.91943">
        <ele>464.9</ele>
        <time>2020-06-20T15:07:21Z</time>
      </trkpt>
      <trkpt lat="43.77551" lon="5.91947">
        <ele>465.1</ele>
        <time>2020-06-20T15:07:23Z</time>
      </trkpt>
      <trkpt lat="43.77552" lon="5.91951">
        <ele>465.3</ele>
        <time>2020-06-20T15:07:24Z</time>
      </trkpt>
      <trkpt lat="43.77552" lon="5.91952">
        <ele>465.3</ele>
        <time>2020-06-20T15:07:25Z</time>
      </trkpt>
      <trkpt lat="43.77553" lon="5.91957">
        <ele>465.5</ele>
        <time>2020-06-20T15:07:26Z</time>
      </trkpt>
      <trkpt lat="43.77554" lon="5.91958">
        <ele>465.6</ele>
        <time>2020-06-20T15:07:27Z</time>
      </trkpt>
      <trkpt lat="43.77554" lon="5.91962">
        <ele>465.8</ele>
        <time>2020-06-20T15:07:29Z</time>
      </trkpt>
      <trkpt lat="43.77555" lon="5.91965">
        <ele>466</ele>
        <time>2020-06-20T15:07:30Z</time>
      </trkpt>
      <trkpt lat="43.77557" lon="5.91969">
        <ele>466.2</ele>
        <time>2020-06-20T15:07:32Z</time>
      </trkpt>
      <trkpt lat="43.77558" lon="5.91973">
        <ele>466.4</ele>
        <time>2020-06-20T15:07:33Z</time>
      </trkpt>
      <trkpt lat="43.77559" lon="5.91975">
        <ele>466.5</ele>
        <time>2020-06-20T15:07:34Z</time>
      </trkpt>
      <trkpt lat="43.7756" lon="5.91981">
        <ele>466.8</ele>
        <time>2020-06-20T15:07:36Z</time>
      </trkpt>
      <trkpt lat="43.77561" lon="5.91984">
        <ele>466.9</ele>
        <time>2020-06-20T15:07:38Z</time>
      </trkpt>
      <trkpt lat="43.77561" lon="5.91986">
        <ele>467</ele>
        <time>2020-06-20T15:07:39Z</time>
      </trkpt>
      <trkpt lat="43.77562" lon="5.91988">
        <ele>467.1</ele>
        <time>2020-06-20T15:07:40Z</time>
      </trkpt>
      <trkpt lat="43.77562" lon="5.91992">
        <ele>467.3</ele>
        <time>2020-06-20T15:07:41Z</time>
      </trkpt>
      <trkpt lat="43.77563" lon="5.91995">
        <ele>467.4</ele>
        <time>2020-06-20T15:07:42Z</time>
      </trkpt>
      <trkpt lat="43.77563" lon="5.92">
        <ele>467.7</ele>
        <time>2020-06-20T15:07:44Z</time>
      </trkpt>
      <trkpt lat="43.77563" lon="5.92005">
        <ele>467.8</ele>
        <time>2020-06-20T15:07:45Z</time>
      </trkpt>
      <trkpt lat="43.77564" lon="5.9201">
        <ele>468.1</ele>
        <time>2020-06-20T15:07:47Z</time>
      </trkpt>
      <trkpt lat="43.77564" lon="5.92012">
        <ele>468.2</ele>
        <time>2020-06-20T15:07:48Z</time>
      </trkpt>
      <trkpt lat="43.77565" lon="5.92016">
        <ele>468.4</ele>
        <time>2020-06-20T15:07:50Z</time>
      </trkpt>
      <trkpt lat="43.77566" lon="5.9202">
        <ele>468.6</ele>
        <time>2020-06-20T15:07:51Z</time>
      </trkpt>
      <trkpt lat="43.77568" lon="5.92025">
        <ele>468.9</ele>
        <time>2020-06-20T15:07:52Z</time>
      </trkpt>
      <trkpt lat="43.77569" lon="5.92026">
        <ele>469</ele>
        <time>2020-06-20T15:07:53Z</time>
      </trkpt>
      <trkpt lat="43.77571" lon="5.9203">
        <ele>469.2</ele>
        <time>2020-06-20T15:07:55Z</time>
      </trkpt>
      <trkpt lat="43.77574" lon="5.92034">
        <ele>469.5</ele>
        <time>2020-06-20T15:07:57Z</time>
      </trkpt>
      <trkpt lat="43.77576" lon="5.92037">
        <ele>469.7</ele>
        <time>2020-06-20T15:07:58Z</time>
      </trkpt>
      <trkpt lat="43.77578" lon="5.9204">
        <ele>470</ele>
        <time>2020-06-20T15:08:00Z</time>
      </trkpt>
      <trkpt lat="43.77581" lon="5.92043">
        <ele>470.2</ele>
        <time>2020-06-20T15:08:01Z</time>
      </trkpt>
      <trkpt lat="43.77584" lon="5.92046">
        <ele>470.5</ele>
        <time>2020-06-20T15:08:03Z</time>
      </trkpt>
      <trkpt lat="43.77587" lon="5.92049">
        <ele>470.7</ele>
        <time>2020-06-20T15:08:04Z</time>
      </trkpt>
      <trkpt lat="43.77588" lon="5.9205">
        <ele>470.8</ele>
        <time>2020-06-20T15:08:05Z</time>
      </trkpt>
      <trkpt lat="43.7759" lon="5.92052">
        <ele>471</ele>
        <time>2020-06-20T15:08:06Z</time>
      </trkpt>
      <trkpt lat="43.77591" lon="5.92053">
        <ele>471</ele>
        <time>2020-06-20T15:08:07Z</time>
      </trkpt>
      <trkpt lat="43.77594" lon="5.92056">
        <ele>471.3</ele>
        <time>2020-06-20T15:08:09Z</time>
      </trkpt>
      <trkpt lat="43.77595" lon="5.92057">
        <ele>471.3</ele>
        <time>2020-06-20T15:08:10Z</time>
      </trkpt>
      <trkpt lat="43.77597" lon="5.92059">
        <ele>471.5</ele>
        <time>2020-06-20T15:08:11Z</time>
      </trkpt>
      <trkpt lat="43.77599" lon="5.92062">
        <ele>471.7</ele>
        <time>2020-06-20T15:08:13Z</time>
      </trkpt>
      <trkpt lat="43.77601" lon="5.92065">
        <ele>471.8</ele>
        <time>2020-06-20T15:08:14Z</time>
      </trkpt>
      <trkpt lat="43.77604" lon="5.92068">
        <ele>472.1</ele>
        <time>2020-06-20T15:08:15Z</time>
      </trkpt>
      <trkpt lat="43.77605" lon="5.9207">
        <ele>472.2</ele>
        <time>2020-06-20T15:08:16Z</time>
      </trkpt>
      <trkpt lat="43.77607" lon="5.92074">
        <ele>472.4</ele>
        <time>2020-06-20T15:08:18Z</time>
      </trkpt>
      <trkpt lat="43.77608" lon="5.92077">
        <ele>472.6</ele>
        <time>2020-06-20T15:08:19Z</time>
      </trkpt>
      <trkpt lat="43.77609" lon="5.92082">
        <ele>472.9</ele>
        <time>2020-06-20T15:08:21Z</time>
      </trkpt>
      <trkpt lat="43.77611" lon="5.92086">
        <ele>473.1</ele>
        <time>2020-06-20T15:08:22Z</time>
      </trkpt>
      <trkpt lat="43.77611" lon="5.92087">
        <ele>473.2</ele>
        <time>2020-06-20T15:08:23Z</time>
      </trkpt>
      <trkpt lat="43.77613" lon="5.92091">
        <ele>473.4</ele>
        <time>2020-06-20T15:08:24Z</time>
      </trkpt>
      <trkpt lat="43.77614" lon="5.92094">
        <ele>473.6</ele>
        <time>2020-06-20T15:08:26Z</time>
      </trkpt>
      <trkpt lat="43.77614" lon="5.92095">
        <ele>473.7</ele>
        <time>2020-06-20T15:08:28Z</time>
      </trkpt>
      <trkpt lat="43.77614" lon="5.92095">
        <ele>473.7</ele>
        <time>2020-06-20T15:08:29Z</time>
      </trkpt>
      <trkpt lat="43.77613" lon="5.92095">
        <ele>473.7</ele>
        <time>2020-06-20T15:08:30Z</time>
      </trkpt>
      <trkpt lat="43.77613" lon="5.92095">
        <ele>473.7</ele>
        <time>2020-06-20T15:08:32Z</time>
      </trkpt>
      <trkpt lat="43.77613" lon="5.92095">
        <ele>473.7</ele>
        <time>2020-06-20T15:08:34Z</time>
      </trkpt>
      <trkpt lat="43.77616" lon="5.92103">
        <ele>475.2</ele>
        <time>2020-06-20T15:09:10Z</time>
      </trkpt>
      <trkpt lat="43.77617" lon="5.92103">
        <ele>475.2</ele>
        <time>2020-06-20T15:09:11Z</time>
      </trkpt>
      <trkpt lat="43.77617" lon="5.92105">
        <ele>475.2</ele>
        <time>2020-06-20T15:09:13Z</time>
      </trkpt>
      <trkpt lat="43.77617" lon="5.92105">
        <ele>475.2</ele>
        <time>2020-06-20T15:09:14Z</time>
      </trkpt>
      <trkpt lat="43.77617" lon="5.92106">
        <ele>475.2</ele>
        <time>2020-06-20T15:09:16Z</time>
      </trkpt>
      <trkpt lat="43.77617" lon="5.92106">
        <ele>475.2</ele>
        <time>2020-06-20T15:09:17Z</time>
      </trkpt>
      <trkpt lat="43.77617" lon="5.92106">
        <ele>475.2</ele>
        <time>2020-06-20T15:09:19Z</time>
      </trkpt>
      <trkpt lat="43.77617" lon="5.92106">
        <ele>475.2</ele>
        <time>2020-06-20T15:09:21Z</time>
      </trkpt>
      <trkpt lat="43.77617" lon="5.92106">
        <ele>475.2</ele>
        <time>2020-06-20T15:09:22Z</time>
      </trkpt>
      <trkpt lat="43.77617" lon="5.92106">
        <ele>475.2</ele>
        <time>2020-06-20T15:09:24Z</time>
      </trkpt>
      <trkpt lat="43.77617" lon="5.92106">
        <ele>475.2</ele>
        <time>2020-06-20T15:09:26Z</time>
      </trkpt>
      <trkpt lat="43.77617" lon="5.92106">
        <ele>475.2</ele>
        <time>2020-06-20T15:09:28Z</time>
      </trkpt>
      <trkpt lat="43.77617" lon="5.92106">
        <ele>475.2</ele>
        <time>2020-06-20T15:09:29Z</time>
      </trkpt>
      <trkpt lat="43.77617" lon="5.92106">
        <ele>475.2</ele>
        <time>2020-06-20T15:09:30Z</time>
      </trkpt>
      <trkpt lat="43.77617" lon="5.92106">
        <ele>475.2</ele>
        <time>2020-06-20T15:09:31Z</time>
      </trkpt>
      <trkpt lat="43.77617" lon="5.92106">
        <ele>475.2</ele>
        <time>2020-06-20T15:09:33Z</time>
      </trkpt>
      <trkpt lat="43.77617" lon="5.92106">
        <ele>475.2</ele>
        <time>2020-06-20T15:09:35Z</time>
      </trkpt>
      <trkpt lat="43.77617" lon="5.92106">
        <ele>475.2</ele>
        <time>2020-06-20T15:09:37Z</time>
      </trkpt>
      <trkpt lat="43.77617" lon="5.92106">
        <ele>475.2</ele>
        <time>2020-06-20T15:09:39Z</time>
      </trkpt>
      <trkpt lat="43.77617" lon="5.92106">
        <ele>475.2</ele>
        <time>2020-06-20T15:09:41Z</time>
      </trkpt>
      <trkpt lat="43.77617" lon="5.92106">
        <ele>475.2</ele>
        <time>2020-06-20T15:09:42Z</time>
      </trkpt>
      <trkpt lat="43.77617" lon="5.92106">
        <ele>475.2</ele>
        <time>2020-06-20T15:09:44Z</time>
      </trkpt>
      <trkpt lat="43.77617" lon="5.92106">
        <ele>475.2</ele>
        <time>2020-06-20T15:09:45Z</time>
      </trkpt>
      <trkpt lat="43.77617" lon="5.92106">
        <ele>475.2</ele>
        <time>2020-06-20T15:09:46Z</time>
      </trkpt>
      <trkpt lat="43.77617" lon="5.92106">
        <ele>475.2</ele>
        <time>2020-06-20T15:09:48Z</time>
      </trkpt>
      <trkpt lat="43.77617" lon="5.92106">
        <ele>475.2</ele>
        <time>2020-06-20T15:09:49Z</time>
      </trkpt>
      <trkpt lat="43.77617" lon="5.92106">
        <ele>475.2</ele>
        <time>2020-06-20T15:09:51Z</time>
      </trkpt>
      <trkpt lat="43.77617" lon="5.92106">
        <ele>475.2</ele>
        <time>2020-06-20T15:09:52Z</time>
      </trkpt>
      <trkpt lat="43.77617" lon="5.92106">
        <ele>475.2</ele>
        <time>2020-06-20T15:09:54Z</time>
      </trkpt>
      <trkpt lat="43.77617" lon="5.92106">
        <ele>475.2</ele>
        <time>2020-06-20T15:09:56Z</time>
      </trkpt>
      <trkpt lat="43.77617" lon="5.92106">
        <ele>475.2</ele>
        <time>2020-06-20T15:09:58Z</time>
      </trkpt>
      <trkpt lat="43.77617" lon="5.92106">
        <ele>475.2</ele>
        <time>2020-06-20T15:09:59Z</time>
      </trkpt>
      <trkpt lat="43.77617" lon="5.92106">
        <ele>475.2</ele>
        <time>2020-06-20T15:10:00Z</time>
      </trkpt>
      <trkpt lat="43.77617" lon="5.92106">
        <ele>475.2</ele>
        <time>2020-06-20T15:10:02Z</time>
      </trkpt>
      <trkpt lat="43.77617" lon="5.92106">
        <ele>475.2</ele>
        <time>2020-06-20T15:10:04Z</time>
      </trkpt>
      <trkpt lat="43.77617" lon="5.92106">
        <ele>475.2</ele>
        <time>2020-06-20T15:10:06Z</time>
      </trkpt>
      <trkpt lat="43.77617" lon="5.92106">
        <ele>475.2</ele>
        <time>2020-06-20T15:10:08Z</time>
      </trkpt>
      <trkpt lat="43.77617" lon="5.92106">
        <ele>475.2</ele>
        <time>2020-06-20T15:10:10Z</time>
      </trkpt>
      <trkpt lat="43.77617" lon="5.92106">
        <ele>475.2</ele>
        <time>2020-06-20T15:10:12Z</time>
      </trkpt>
      <trkpt lat="43.77617" lon="5.92106">
        <ele>475.2</ele>
        <time>2020-06-20T15:10:13Z</time>
      </trkpt>
      <trkpt lat="43.77617" lon="5.92106">
        <ele>475.2</ele>
        <time>2020-06-20T15:10:14Z</time>
      </trkpt>
      <trkpt lat="43.77617" lon="5.92106">
        <ele>475.2</ele>
        <time>2020-06-20T15:10:16Z</time>
      </trkpt>
      <trkpt lat="43.77617" lon="5.92106">
        <ele>475.2</ele>
        <time>2020-06-20T15:10:17Z</time>
      </trkpt>
      <trkpt lat="43.77617" lon="5.92106">
        <ele>475.2</ele>
        <time>2020-06-20T15:10:19Z</time>
      </trkpt>
      <trkpt lat="43.77617" lon="5.92106">
        <ele>475.2</ele>
        <time>2020-06-20T15:10:20Z</time>
      </trkpt>
      <trkpt lat="43.77617" lon="5.92106">
        <ele>475.2</ele>
        <time>2020-06-20T15:10:21Z</time>
      </trkpt>
      <trkpt lat="43.77617" lon="5.92106">
        <ele>475.2</ele>
        <time>2020-06-20T15:10:22Z</time>
      </trkpt>
      <trkpt lat="43.77617" lon="5.92106">
        <ele>475.2</ele>
        <time>2020-06-20T15:10:23Z</time>
      </trkpt>
      <trkpt lat="43.77618" lon="5.92106">
        <ele>475.2</ele>
        <time>2020-06-20T15:10:25Z</time>
      </trkpt>
      <trkpt lat="43.77618" lon="5.92106">
        <ele>475.2</ele>
        <time>2020-06-20T15:10:26Z</time>
      </trkpt>
      <trkpt lat="43.77618" lon="5.92106">
        <ele>475.2</ele>
        <time>2020-06-20T15:10:28Z</time>
      </trkpt>
      <trkpt lat="43.77619" lon="5.92106">
        <ele>475.2</ele>
        <time>2020-06-20T15:10:30Z</time>
      </trkpt>
      <trkpt lat="43.77619" lon="5.92106">
        <ele>475.2</ele>
        <time>2020-06-20T15:10:31Z</time>
      </trkpt>
      <trkpt lat="43.77619" lon="5.92106">
        <ele>475.2</ele>
        <time>2020-06-20T15:10:32Z</time>
      </trkpt>
      <trkpt lat="43.77619" lon="5.92106">
        <ele>475.2</ele>
        <time>2020-06-20T15:10:34Z</time>
      </trkpt>
      <trkpt lat="43.77619" lon="5.92116">
        <ele>475.5</ele>
        <time>2020-06-20T15:10:46Z</time>
      </trkpt>
      <trkpt lat="43.77619" lon="5.92118">
        <ele>476.8</ele>
        <time>2020-06-20T15:10:47Z</time>
      </trkpt>
      <trkpt lat="43.77618" lon="5.9212">
        <ele>477</ele>
        <time>2020-06-20T15:10:49Z</time>
      </trkpt>
      <trkpt lat="43.77618" lon="5.92121">
        <ele>477.2</ele>
        <time>2020-06-20T15:10:50Z</time>
      </trkpt>
      <trkpt lat="43.77617" lon="5.92123">
        <ele>477.3</ele>
        <time>2020-06-20T15:10:51Z</time>
      </trkpt>
      <trkpt lat="43.77615" lon="5.92123">
        <ele>477.5</ele>
        <time>2020-06-20T15:10:53Z</time>
      </trkpt>
      <trkpt lat="43.77613" lon="5.92123">
        <ele>477.7</ele>
        <time>2020-06-20T15:10:54Z</time>
      </trkpt>
      <trkpt lat="43.77611" lon="5.92122">
        <ele>477.8</ele>
        <time>2020-06-20T15:10:56Z</time>
      </trkpt>
      <trkpt lat="43.77609" lon="5.92121">
        <ele>478.1</ele>
        <time>2020-06-20T15:10:57Z</time>
      </trkpt>
      <trkpt lat="43.77608" lon="5.92121">
        <ele>478.2</ele>
        <time>2020-06-20T15:10:58Z</time>
      </trkpt>
      <trkpt lat="43.77605" lon="5.9212">
        <ele>478.5</ele>
        <time>2020-06-20T15:11:00Z</time>
      </trkpt>
      <trkpt lat="43.77604" lon="5.92119">
        <ele>478.6</ele>
        <time>2020-06-20T15:11:01Z</time>
      </trkpt>
      <trkpt lat="43.77601" lon="5.92117">
        <ele>478.8</ele>
        <time>2020-06-20T15:11:03Z</time>
      </trkpt>
      <trkpt lat="43.776" lon="5.92116">
        <ele>478.9</ele>
        <time>2020-06-20T15:11:04Z</time>
      </trkpt>
      <trkpt lat="43.77597" lon="5.92115">
        <ele>479.1</ele>
        <time>2020-06-20T15:11:06Z</time>
      </trkpt>
      <trkpt lat="43.77596" lon="5.92114">
        <ele>479.3</ele>
        <time>2020-06-20T15:11:07Z</time>
      </trkpt>
      <trkpt lat="43.77594" lon="5.92111">
        <ele>479.4</ele>
        <time>2020-06-20T15:11:09Z</time>
      </trkpt>
      <trkpt lat="43.77591" lon="5.92109">
        <ele>479.6</ele>
        <time>2020-06-20T15:11:10Z</time>
      </trkpt>
      <trkpt lat="43.7759" lon="5.92108">
        <ele>479.7</ele>
        <time>2020-06-20T15:11:11Z</time>
      </trkpt>
      <trkpt lat="43.77588" lon="5.92106">
        <ele>479.8</ele>
        <time>2020-06-20T15:11:12Z</time>
      </trkpt>
      <trkpt lat="43.77585" lon="5.92102">
        <ele>480</ele>
        <time>2020-06-20T15:11:14Z</time>
      </trkpt>
      <trkpt lat="43.77583" lon="5.92097">
        <ele>480.2</ele>
        <time>2020-06-20T15:11:15Z</time>
      </trkpt>
      <trkpt lat="43.77581" lon="5.92095">
        <ele>480.4</ele>
        <time>2020-06-20T15:11:16Z</time>
      </trkpt>
      <trkpt lat="43.77578" lon="5.92091">
        <ele>480.6</ele>
        <time>2020-06-20T15:11:17Z</time>
      </trkpt>
      <trkpt lat="43.77575" lon="5.92088">
        <ele>480.8</ele>
        <time>2020-06-20T15:11:18Z</time>
      </trkpt>
      <trkpt lat="43.77572" lon="5.92084">
        <ele>481</ele>
        <time>2020-06-20T15:11:20Z</time>
      </trkpt>
      <trkpt lat="43.7757" lon="5.92083">
        <ele>481.1</ele>
        <time>2020-06-20T15:11:21Z</time>
      </trkpt>
      <trkpt lat="43.77569" lon="5.92082">
        <ele>481.2</ele>
        <time>2020-06-20T15:11:22Z</time>
      </trkpt>
      <trkpt lat="43.77566" lon="5.92079">
        <ele>481.4</ele>
        <time>2020-06-20T15:11:23Z</time>
      </trkpt>
      <trkpt lat="43.77563" lon="5.92076">
        <ele>481.7</ele>
        <time>2020-06-20T15:11:25Z</time>
      </trkpt>
      <trkpt lat="43.77562" lon="5.92075">
        <ele>481.7</ele>
        <time>2020-06-20T15:11:26Z</time>
      </trkpt>
      <trkpt lat="43.7756" lon="5.92073">
        <ele>481.9</ele>
        <time>2020-06-20T15:11:27Z</time>
      </trkpt>
      <trkpt lat="43.77559" lon="5.92073">
        <ele>482</ele>
        <time>2020-06-20T15:11:28Z</time>
      </trkpt>
      <trkpt lat="43.77555" lon="5.92069">
        <ele>482.3</ele>
        <time>2020-06-20T15:11:30Z</time>
      </trkpt>
      <trkpt lat="43.77553" lon="5.92067">
        <ele>482.4</ele>
        <time>2020-06-20T15:11:31Z</time>
      </trkpt>
      <trkpt lat="43.7755" lon="5.92065">
        <ele>482.6</ele>
        <time>2020-06-20T15:11:32Z</time>
      </trkpt>
      <trkpt lat="43.77548" lon="5.92062">
        <ele>482.8</ele>
        <time>2020-06-20T15:11:33Z</time>
      </trkpt>
      <trkpt lat="43.77545" lon="5.92059">
        <ele>483</ele>
        <time>2020-06-20T15:11:34Z</time>
      </trkpt>
      <trkpt lat="43.77543" lon="5.92057">
        <ele>483.1</ele>
        <time>2020-06-20T15:11:36Z</time>
      </trkpt>
      <trkpt lat="43.7754" lon="5.92054">
        <ele>483.3</ele>
        <time>2020-06-20T15:11:37Z</time>
      </trkpt>
      <trkpt lat="43.77536" lon="5.9205">
        <ele>483.5</ele>
        <time>2020-06-20T15:11:39Z</time>
      </trkpt>
      <trkpt lat="43.77534" lon="5.92047">
        <ele>483.6</ele>
        <time>2020-06-20T15:11:40Z</time>
      </trkpt>
      <trkpt lat="43.77531" lon="5.92044">
        <ele>483.7</ele>
        <time>2020-06-20T15:11:42Z</time>
      </trkpt>
      <trkpt lat="43.77528" lon="5.92041">
        <ele>483.9</ele>
        <time>2020-06-20T15:11:43Z</time>
      </trkpt>
      <trkpt lat="43.77525" lon="5.92037">
        <ele>484.1</ele>
        <time>2020-06-20T15:11:44Z</time>
      </trkpt>
      <trkpt lat="43.77523" lon="5.92036">
        <ele>484.1</ele>
        <time>2020-06-20T15:11:45Z</time>
      </trkpt>
      <trkpt lat="43.7752" lon="5.92034">
        <ele>484.3</ele>
        <time>2020-06-20T15:11:47Z</time>
      </trkpt>
      <trkpt lat="43.77518" lon="5.92032">
        <ele>484.4</ele>
        <time>2020-06-20T15:11:48Z</time>
      </trkpt>
      <trkpt lat="43.77515" lon="5.92028">
        <ele>484.6</ele>
        <time>2020-06-20T15:11:49Z</time>
      </trkpt>
      <trkpt lat="43.77512" lon="5.92026">
        <ele>484.7</ele>
        <time>2020-06-20T15:11:50Z</time>
      </trkpt>
      <trkpt lat="43.77509" lon="5.92022">
        <ele>484.9</ele>
        <time>2020-06-20T15:11:52Z</time>
      </trkpt>
      <trkpt lat="43.77508" lon="5.92021">
        <ele>485</ele>
        <time>2020-06-20T15:11:53Z</time>
      </trkpt>
      <trkpt lat="43.77505" lon="5.92018">
        <ele>485.2</ele>
        <time>2020-06-20T15:11:54Z</time>
      </trkpt>
      <trkpt lat="43.77502" lon="5.92015">
        <ele>485.4</ele>
        <time>2020-06-20T15:11:56Z</time>
      </trkpt>
      <trkpt lat="43.77501" lon="5.92014">
        <ele>485.4</ele>
        <time>2020-06-20T15:11:57Z</time>
      </trkpt>
      <trkpt lat="43.77498" lon="5.9201">
        <ele>485.7</ele>
        <time>2020-06-20T15:11:59Z</time>
      </trkpt>
      <trkpt lat="43.77497" lon="5.92008">
        <ele>485.8</ele>
        <time>2020-06-20T15:12:00Z</time>
      </trkpt>
      <trkpt lat="43.77496" lon="5.92007">
        <ele>485.9</ele>
        <time>2020-06-20T15:12:01Z</time>
      </trkpt>
      <trkpt lat="43.77492" lon="5.92003">
        <ele>486.2</ele>
        <time>2020-06-20T15:12:03Z</time>
      </trkpt>
      <trkpt lat="43.7749" lon="5.92002">
        <ele>486.3</ele>
        <time>2020-06-20T15:12:05Z</time>
      </trkpt>
      <trkpt lat="43.77489" lon="5.92">
        <ele>486.5</ele>
        <time>2020-06-20T15:12:06Z</time>
      </trkpt>
      <trkpt lat="43.77487" lon="5.91999">
        <ele>486.6</ele>
        <time>2020-06-20T15:12:07Z</time>
      </trkpt>
      <trkpt lat="43.77485" lon="5.91997">
        <ele>486.8</ele>
        <time>2020-06-20T15:12:08Z</time>
      </trkpt>
      <trkpt lat="43.77483" lon="5.91996">
        <ele>487</ele>
        <time>2020-06-20T15:12:10Z</time>
      </trkpt>
      <trkpt lat="43.77481" lon="5.91995">
        <ele>487.1</ele>
        <time>2020-06-20T15:12:11Z</time>
      </trkpt>
      <trkpt lat="43.77478" lon="5.91993">
        <ele>487.4</ele>
        <time>2020-06-20T15:12:13Z</time>
      </trkpt>
      <trkpt lat="43.77475" lon="5.91991">
        <ele>487.6</ele>
        <time>2020-06-20T15:12:14Z</time>
      </trkpt>
      <trkpt lat="43.77474" lon="5.9199">
        <ele>487.7</ele>
        <time>2020-06-20T15:12:15Z</time>
      </trkpt>
      <trkpt lat="43.77472" lon="5.91987">
        <ele>487.9</ele>
        <time>2020-06-20T15:12:17Z</time>
      </trkpt>
      <trkpt lat="43.7747" lon="5.91985">
        <ele>488.1</ele>
        <time>2020-06-20T15:12:18Z</time>
      </trkpt>
      <trkpt lat="43.77465" lon="5.91979">
        <ele>488.4</ele>
        <time>2020-06-20T15:12:20Z</time>
      </trkpt>
      <trkpt lat="43.7746" lon="5.91976">
        <ele>488.7</ele>
        <time>2020-06-20T15:12:21Z</time>
      </trkpt>
      <trkpt lat="43.77457" lon="5.91973">
        <ele>489</ele>
        <time>2020-06-20T15:12:23Z</time>
      </trkpt>
      <trkpt lat="43.77454" lon="5.9197">
        <ele>489.1</ele>
        <time>2020-06-20T15:12:24Z</time>
      </trkpt>
      <trkpt lat="43.7745" lon="5.91967">
        <ele>489.4</ele>
        <time>2020-06-20T15:12:26Z</time>
      </trkpt>
      <trkpt lat="43.77447" lon="5.91965">
        <ele>489.6</ele>
        <time>2020-06-20T15:12:27Z</time>
      </trkpt>
      <trkpt lat="43.77445" lon="5.91963">
        <ele>489.7</ele>
        <time>2020-06-20T15:12:28Z</time>
      </trkpt>
      <trkpt lat="43.77443" lon="5.91961">
        <ele>489.8</ele>
        <time>2020-06-20T15:12:30Z</time>
      </trkpt>
      <trkpt lat="43.77441" lon="5.91959">
        <ele>489.9</ele>
        <time>2020-06-20T15:12:31Z</time>
      </trkpt>
      <trkpt lat="43.77437" lon="5.91955">
        <ele>490.2</ele>
        <time>2020-06-20T15:12:32Z</time>
      </trkpt>
      <trkpt lat="43.77433" lon="5.91952">
        <ele>490.3</ele>
        <time>2020-06-20T15:12:34Z</time>
      </trkpt>
      <trkpt lat="43.77429" lon="5.91949">
        <ele>490.5</ele>
        <time>2020-06-20T15:12:35Z</time>
      </trkpt>
      <trkpt lat="43.77425" lon="5.91946">
        <ele>490.7</ele>
        <time>2020-06-20T15:12:36Z</time>
      </trkpt>
      <trkpt lat="43.7742" lon="5.91944">
        <ele>491</ele>
        <time>2020-06-20T15:12:38Z</time>
      </trkpt>
      <trkpt lat="43.77417" lon="5.91944">
        <ele>491.2</ele>
        <time>2020-06-20T15:12:39Z</time>
      </trkpt>
      <trkpt lat="43.77413" lon="5.91945">
        <ele>491.5</ele>
        <time>2020-06-20T15:12:41Z</time>
      </trkpt>
      <trkpt lat="43.77411" lon="5.91945">
        <ele>491.7</ele>
        <time>2020-06-20T15:12:42Z</time>
      </trkpt>
      <trkpt lat="43.77409" lon="5.91947">
        <ele>492</ele>
        <time>2020-06-20T15:12:43Z</time>
      </trkpt>
      <trkpt lat="43.77408" lon="5.91948">
        <ele>492.1</ele>
        <time>2020-06-20T15:12:44Z</time>
      </trkpt>
      <trkpt lat="43.77407" lon="5.9195">
        <ele>492.3</ele>
        <time>2020-06-20T15:12:46Z</time>
      </trkpt>
      <trkpt lat="43.77406" lon="5.91952">
        <ele>492.5</ele>
        <time>2020-06-20T15:12:47Z</time>
      </trkpt>
      <trkpt lat="43.77405" lon="5.91954">
        <ele>492.8</ele>
        <time>2020-06-20T15:12:49Z</time>
      </trkpt>
      <trkpt lat="43.77404" lon="5.91956">
        <ele>492.9</ele>
        <time>2020-06-20T15:12:50Z</time>
      </trkpt>
      <trkpt lat="43.77404" lon="5.91957">
        <ele>493.1</ele>
        <time>2020-06-20T15:12:51Z</time>
      </trkpt>
      <trkpt lat="43.77403" lon="5.9196">
        <ele>493.3</ele>
        <time>2020-06-20T15:12:52Z</time>
      </trkpt>
      <trkpt lat="43.77403" lon="5.91962">
        <ele>493.5</ele>
        <time>2020-06-20T15:12:54Z</time>
      </trkpt>
      <trkpt lat="43.77403" lon="5.91964">
        <ele>493.7</ele>
        <time>2020-06-20T15:12:55Z</time>
      </trkpt>
      <trkpt lat="43.77402" lon="5.91966">
        <ele>493.9</ele>
        <time>2020-06-20T15:12:56Z</time>
      </trkpt>
      <trkpt lat="43.77402" lon="5.91968">
        <ele>494.1</ele>
        <time>2020-06-20T15:12:58Z</time>
      </trkpt>
      <trkpt lat="43.77403" lon="5.9197">
        <ele>494.2</ele>
        <time>2020-06-20T15:12:59Z</time>
      </trkpt>
      <trkpt lat="43.77403" lon="5.91971">
        <ele>494.4</ele>
        <time>2020-06-20T15:13:00Z</time>
      </trkpt>
      <trkpt lat="43.77403" lon="5.91973">
        <ele>494.5</ele>
        <time>2020-06-20T15:13:02Z</time>
      </trkpt>
      <trkpt lat="43.77404" lon="5.91974">
        <ele>494.7</ele>
        <time>2020-06-20T15:13:03Z</time>
      </trkpt>
      <trkpt lat="43.77404" lon="5.91976">
        <ele>494.8</ele>
        <time>2020-06-20T15:13:04Z</time>
      </trkpt>
      <trkpt lat="43.77404" lon="5.91977">
        <ele>495</ele>
        <time>2020-06-20T15:13:06Z</time>
      </trkpt>
      <trkpt lat="43.77405" lon="5.9198">
        <ele>495.2</ele>
        <time>2020-06-20T15:13:08Z</time>
      </trkpt>
      <trkpt lat="43.77406" lon="5.91982">
        <ele>495.4</ele>
        <time>2020-06-20T15:13:10Z</time>
      </trkpt>
      <trkpt lat="43.77407" lon="5.91984">
        <ele>495.6</ele>
        <time>2020-06-20T15:13:11Z</time>
      </trkpt>
      <trkpt lat="43.77408" lon="5.91987">
        <ele>495.8</ele>
        <time>2020-06-20T15:13:12Z</time>
      </trkpt>
      <trkpt lat="43.77408" lon="5.91989">
        <ele>495.9</ele>
        <time>2020-06-20T15:13:13Z</time>
      </trkpt>
      <trkpt lat="43.77409" lon="5.91991">
        <ele>496.1</ele>
        <time>2020-06-20T15:13:15Z</time>
      </trkpt>
      <trkpt lat="43.7741" lon="5.91993">
        <ele>496.3</ele>
        <time>2020-06-20T15:13:16Z</time>
      </trkpt>
      <trkpt lat="43.77411" lon="5.91995">
        <ele>496.4</ele>
        <time>2020-06-20T15:13:17Z</time>
      </trkpt>
      <trkpt lat="43.77412" lon="5.91997">
        <ele>496.6</ele>
        <time>2020-06-20T15:13:18Z</time>
      </trkpt>
      <trkpt lat="43.77413" lon="5.92">
        <ele>496.8</ele>
        <time>2020-06-20T15:13:20Z</time>
      </trkpt>
      <trkpt lat="43.77416" lon="5.92003">
        <ele>497.2</ele>
        <time>2020-06-20T15:13:22Z</time>
      </trkpt>
      <trkpt lat="43.77417" lon="5.92004">
        <ele>497.3</ele>
        <time>2020-06-20T15:13:23Z</time>
      </trkpt>
      <trkpt lat="43.77419" lon="5.92006">
        <ele>497.5</ele>
        <time>2020-06-20T15:13:25Z</time>
      </trkpt>
      <trkpt lat="43.77421" lon="5.92009">
        <ele>497.8</ele>
        <time>2020-06-20T15:13:26Z</time>
      </trkpt>
      <trkpt lat="43.77422" lon="5.92011">
        <ele>497.9</ele>
        <time>2020-06-20T15:13:27Z</time>
      </trkpt>
      <trkpt lat="43.77424" lon="5.92014">
        <ele>498.2</ele>
        <time>2020-06-20T15:13:29Z</time>
      </trkpt>
      <trkpt lat="43.77424" lon="5.92015">
        <ele>498.3</ele>
        <time>2020-06-20T15:13:30Z</time>
      </trkpt>
      <trkpt lat="43.77426" lon="5.92017">
        <ele>498.5</ele>
        <time>2020-06-20T15:13:31Z</time>
      </trkpt>
      <trkpt lat="43.77427" lon="5.92019">
        <ele>498.7</ele>
        <time>2020-06-20T15:13:33Z</time>
      </trkpt>
      <trkpt lat="43.77428" lon="5.92022">
        <ele>498.9</ele>
        <time>2020-06-20T15:13:34Z</time>
      </trkpt>
      <trkpt lat="43.77429" lon="5.92023">
        <ele>499.1</ele>
        <time>2020-06-20T15:13:35Z</time>
      </trkpt>
      <trkpt lat="43.77431" lon="5.92026">
        <ele>499.4</ele>
        <time>2020-06-20T15:13:36Z</time>
      </trkpt>
      <trkpt lat="43.77431" lon="5.92028">
        <ele>499.5</ele>
        <time>2020-06-20T15:13:37Z</time>
      </trkpt>
      <trkpt lat="43.77433" lon="5.92031">
        <ele>499.9</ele>
        <time>2020-06-20T15:13:38Z</time>
      </trkpt>
      <trkpt lat="43.77434" lon="5.92032">
        <ele>500</ele>
        <time>2020-06-20T15:13:39Z</time>
      </trkpt>
      <trkpt lat="43.77435" lon="5.92035">
        <ele>500.2</ele>
        <time>2020-06-20T15:13:41Z</time>
      </trkpt>
      <trkpt lat="43.77437" lon="5.92038">
        <ele>500.5</ele>
        <time>2020-06-20T15:13:43Z</time>
      </trkpt>
      <trkpt lat="43.77439" lon="5.92042">
        <ele>500.9</ele>
        <time>2020-06-20T15:13:44Z</time>
      </trkpt>
      <trkpt lat="43.7744" lon="5.92043">
        <ele>501</ele>
        <time>2020-06-20T15:13:45Z</time>
      </trkpt>
      <trkpt lat="43.77441" lon="5.92047">
        <ele>501.3</ele>
        <time>2020-06-20T15:13:46Z</time>
      </trkpt>
      <trkpt lat="43.77442" lon="5.92049">
        <ele>501.5</ele>
        <time>2020-06-20T15:13:47Z</time>
      </trkpt>
      <trkpt lat="43.77443" lon="5.92052">
        <ele>501.7</ele>
        <time>2020-06-20T15:13:49Z</time>
      </trkpt>
      <trkpt lat="43.77443" lon="5.92053">
        <ele>501.8</ele>
        <time>2020-06-20T15:13:50Z</time>
      </trkpt>
      <trkpt lat="43.77444" lon="5.92055">
        <ele>502</ele>
        <time>2020-06-20T15:13:51Z</time>
      </trkpt>
      <trkpt lat="43.77444" lon="5.92058">
        <ele>502.2</ele>
        <time>2020-06-20T15:13:52Z</time>
      </trkpt>
      <trkpt lat="43.77445" lon="5.9206">
        <ele>502.3</ele>
        <time>2020-06-20T15:13:54Z</time>
      </trkpt>
      <trkpt lat="43.77446" lon="5.92063">
        <ele>502.6</ele>
        <time>2020-06-20T15:13:56Z</time>
      </trkpt>
      <trkpt lat="43.77446" lon="5.92064">
        <ele>502.7</ele>
        <time>2020-06-20T15:13:57Z</time>
      </trkpt>
      <trkpt lat="43.77446" lon="5.92065">
        <ele>502.7</ele>
        <time>2020-06-20T15:13:59Z</time>
      </trkpt>
      <trkpt lat="43.77446" lon="5.92065">
        <ele>502.7</ele>
        <time>2020-06-20T15:14:00Z</time>
      </trkpt>
      <trkpt lat="43.77446" lon="5.92066">
        <ele>502.8</ele>
        <time>2020-06-20T15:14:02Z</time>
      </trkpt>
      <trkpt lat="43.77446" lon="5.92066">
        <ele>502.8</ele>
        <time>2020-06-20T15:14:04Z</time>
      </trkpt>
      <trkpt lat="43.77446" lon="5.92066">
        <ele>502.8</ele>
        <time>2020-06-20T15:14:06Z</time>
      </trkpt>
      <trkpt lat="43.77448" lon="5.92071">
        <ele>503.2</ele>
        <time>2020-06-20T15:15:38Z</time>
      </trkpt>
      <trkpt lat="43.77448" lon="5.92072">
        <ele>503.4</ele>
        <time>2020-06-20T15:15:39Z</time>
      </trkpt>
      <trkpt lat="43.77449" lon="5.92076">
        <ele>503.7</ele>
        <time>2020-06-20T15:15:41Z</time>
      </trkpt>
      <trkpt lat="43.77449" lon="5.92078">
        <ele>503.8</ele>
        <time>2020-06-20T15:15:42Z</time>
      </trkpt>
      <trkpt lat="43.77449" lon="5.9208">
        <ele>504</ele>
        <time>2020-06-20T15:15:43Z</time>
      </trkpt>
      <trkpt lat="43.7745" lon="5.92083">
        <ele>504.2</ele>
        <time>2020-06-20T15:15:45Z</time>
      </trkpt>
      <trkpt lat="43.7745" lon="5.92085">
        <ele>504.4</ele>
        <time>2020-06-20T15:15:46Z</time>
      </trkpt>
      <trkpt lat="43.77451" lon="5.92092">
        <ele>505</ele>
        <time>2020-06-20T15:15:48Z</time>
      </trkpt>
      <trkpt lat="43.77451" lon="5.92095">
        <ele>505.2</ele>
        <time>2020-06-20T15:15:50Z</time>
      </trkpt>
      <trkpt lat="43.77451" lon="5.92098">
        <ele>505.5</ele>
        <time>2020-06-20T15:15:52Z</time>
      </trkpt>
      <trkpt lat="43.77451" lon="5.92101">
        <ele>505.7</ele>
        <time>2020-06-20T15:15:53Z</time>
      </trkpt>
      <trkpt lat="43.77451" lon="5.92104">
        <ele>506</ele>
        <time>2020-06-20T15:15:54Z</time>
      </trkpt>
      <trkpt lat="43.77452" lon="5.92107">
        <ele>506.2</ele>
        <time>2020-06-20T15:15:56Z</time>
      </trkpt>
      <trkpt lat="43.77451" lon="5.9211">
        <ele>506.5</ele>
        <time>2020-06-20T15:15:58Z</time>
      </trkpt>
      <trkpt lat="43.77451" lon="5.92113">
        <ele>506.7</ele>
        <time>2020-06-20T15:15:59Z</time>
      </trkpt>
      <trkpt lat="43.77451" lon="5.92115">
        <ele>506.8</ele>
        <time>2020-06-20T15:16:00Z</time>
      </trkpt>
      <trkpt lat="43.7745" lon="5.92117">
        <ele>507</ele>
        <time>2020-06-20T15:16:02Z</time>
      </trkpt>
      <trkpt lat="43.7745" lon="5.92118">
        <ele>507.1</ele>
        <time>2020-06-20T15:16:04Z</time>
      </trkpt>
      <trkpt lat="43.7745" lon="5.92119">
        <ele>507.1</ele>
        <time>2020-06-20T15:16:05Z</time>
      </trkpt>
      <trkpt lat="43.7745" lon="5.9212">
        <ele>507.2</ele>
        <time>2020-06-20T15:16:06Z</time>
      </trkpt>
      <trkpt lat="43.7745" lon="5.92121">
        <ele>507.3</ele>
        <time>2020-06-20T15:16:07Z</time>
      </trkpt>
      <trkpt lat="43.77449" lon="5.92123">
        <ele>507.4</ele>
        <time>2020-06-20T15:16:09Z</time>
      </trkpt>
      <trkpt lat="43.77449" lon="5.92124">
        <ele>507.5</ele>
        <time>2020-06-20T15:16:11Z</time>
      </trkpt>
      <trkpt lat="43.77449" lon="5.92125">
        <ele>507.6</ele>
        <time>2020-06-20T15:16:12Z</time>
      </trkpt>
      <trkpt lat="43.77448" lon="5.92127">
        <ele>507.7</ele>
        <time>2020-06-20T15:16:13Z</time>
      </trkpt>
      <trkpt lat="43.77448" lon="5.92127">
        <ele>507.7</ele>
        <time>2020-06-20T15:16:14Z</time>
      </trkpt>
      <trkpt lat="43.77448" lon="5.92128">
        <ele>507.8</ele>
        <time>2020-06-20T15:16:15Z</time>
      </trkpt>
      <trkpt lat="43.77447" lon="5.92128">
        <ele>507.9</ele>
        <time>2020-06-20T15:16:16Z</time>
      </trkpt>
      <trkpt lat="43.77446" lon="5.92129">
        <ele>508</ele>
        <time>2020-06-20T15:16:17Z</time>
      </trkpt>
      <trkpt lat="43.77444" lon="5.9213">
        <ele>508.3</ele>
        <time>2020-06-20T15:16:19Z</time>
      </trkpt>
      <trkpt lat="43.77443" lon="5.9213">
        <ele>508.4</ele>
        <time>2020-06-20T15:16:20Z</time>
      </trkpt>
      <trkpt lat="43.77442" lon="5.9213">
        <ele>508.5</ele>
        <time>2020-06-20T15:16:21Z</time>
      </trkpt>
      <trkpt lat="43.77441" lon="5.92131">
        <ele>508.6</ele>
        <time>2020-06-20T15:16:22Z</time>
      </trkpt>
      <trkpt lat="43.77439" lon="5.92132">
        <ele>508.8</ele>
        <time>2020-06-20T15:16:24Z</time>
      </trkpt>
      <trkpt lat="43.77437" lon="5.92132">
        <ele>509.1</ele>
        <time>2020-06-20T15:16:25Z</time>
      </trkpt>
      <trkpt lat="43.77434" lon="5.92133">
        <ele>509.4</ele>
        <time>2020-06-20T15:16:27Z</time>
      </trkpt>
      <trkpt lat="43.7743" lon="5.92133">
        <ele>509.9</ele>
        <time>2020-06-20T15:16:29Z</time>
      </trkpt>
      <trkpt lat="43.77428" lon="5.92132">
        <ele>510</ele>
        <time>2020-06-20T15:16:30Z</time>
      </trkpt>
      <trkpt lat="43.77427" lon="5.92132">
        <ele>510.1</ele>
        <time>2020-06-20T15:16:31Z</time>
      </trkpt>
      <trkpt lat="43.77424" lon="5.92132">
        <ele>510.4</ele>
        <time>2020-06-20T15:16:32Z</time>
      </trkpt>
      <trkpt lat="43.77423" lon="5.92131">
        <ele>510.5</ele>
        <time>2020-06-20T15:16:33Z</time>
      </trkpt>
      <trkpt lat="43.77419" lon="5.92131">
        <ele>510.8</ele>
        <time>2020-06-20T15:16:35Z</time>
      </trkpt>
      <trkpt lat="43.77417" lon="5.9213">
        <ele>511</ele>
        <time>2020-06-20T15:16:36Z</time>
      </trkpt>
      <trkpt lat="43.77415" lon="5.9213">
        <ele>511.2</ele>
        <time>2020-06-20T15:16:38Z</time>
      </trkpt>
      <trkpt lat="43.7741" lon="5.9213">
        <ele>511.6</ele>
        <time>2020-06-20T15:16:40Z</time>
      </trkpt>
      <trkpt lat="43.77409" lon="5.9213">
        <ele>511.7</ele>
        <time>2020-06-20T15:16:41Z</time>
      </trkpt>
      <trkpt lat="43.77407" lon="5.9213">
        <ele>511.8</ele>
        <time>2020-06-20T15:16:42Z</time>
      </trkpt>
      <trkpt lat="43.77405" lon="5.9213">
        <ele>512</ele>
        <time>2020-06-20T15:16:44Z</time>
      </trkpt>
      <trkpt lat="43.77401" lon="5.9213">
        <ele>512.2</ele>
        <time>2020-06-20T15:16:46Z</time>
      </trkpt>
      <trkpt lat="43.774" lon="5.9213">
        <ele>512.3</ele>
        <time>2020-06-20T15:16:47Z</time>
      </trkpt>
      <trkpt lat="43.77398" lon="5.9213">
        <ele>512.4</ele>
        <time>2020-06-20T15:16:48Z</time>
      </trkpt>
      <trkpt lat="43.77395" lon="5.9213">
        <ele>512.6</ele>
        <time>2020-06-20T15:16:50Z</time>
      </trkpt>
      <trkpt lat="43.77392" lon="5.9213">
        <ele>512.8</ele>
        <time>2020-06-20T15:16:51Z</time>
      </trkpt>
      <trkpt lat="43.7739" lon="5.9213">
        <ele>512.9</ele>
        <time>2020-06-20T15:16:53Z</time>
      </trkpt>
      <trkpt lat="43.77387" lon="5.9213">
        <ele>513.1</ele>
        <time>2020-06-20T15:16:54Z</time>
      </trkpt>
      <trkpt lat="43.77387" lon="5.9213">
        <ele>513.1</ele>
        <time>2020-06-20T15:16:55Z</time>
      </trkpt>
      <trkpt lat="43.77385" lon="5.9213">
        <ele>513.2</ele>
        <time>2020-06-20T15:16:56Z</time>
      </trkpt>
      <trkpt lat="43.77384" lon="5.9213">
        <ele>513.3</ele>
        <time>2020-06-20T15:16:57Z</time>
      </trkpt>
      <trkpt lat="43.77382" lon="5.9213">
        <ele>513.3</ele>
        <time>2020-06-20T15:16:58Z</time>
      </trkpt>
      <trkpt lat="43.7738" lon="5.92131">
        <ele>513.4</ele>
        <time>2020-06-20T15:16:59Z</time>
      </trkpt>
      <trkpt lat="43.77378" lon="5.92131">
        <ele>513.5</ele>
        <time>2020-06-20T15:17:01Z</time>
      </trkpt>
      <trkpt lat="43.77377" lon="5.92131">
        <ele>513.6</ele>
        <time>2020-06-20T15:17:02Z</time>
      </trkpt>
      <trkpt lat="43.77375" lon="5.92132">
        <ele>513.6</ele>
        <time>2020-06-20T15:17:03Z</time>
      </trkpt>
      <trkpt lat="43.77374" lon="5.92132">
        <ele>513.7</ele>
        <time>2020-06-20T15:17:04Z</time>
      </trkpt>
      <trkpt lat="43.77372" lon="5.92132">
        <ele>513.7</ele>
        <time>2020-06-20T15:17:05Z</time>
      </trkpt>
      <trkpt lat="43.77371" lon="5.92133">
        <ele>513.8</ele>
        <time>2020-06-20T15:17:06Z</time>
      </trkpt>
      <trkpt lat="43.77369" lon="5.92133">
        <ele>513.8</ele>
        <time>2020-06-20T15:17:07Z</time>
      </trkpt>
      <trkpt lat="43.77367" lon="5.92134">
        <ele>513.9</ele>
        <time>2020-06-20T15:17:09Z</time>
      </trkpt>
      <trkpt lat="43.77364" lon="5.92134">
        <ele>514</ele>
        <time>2020-06-20T15:17:10Z</time>
      </trkpt>
      <trkpt lat="43.77362" lon="5.92134">
        <ele>514.1</ele>
        <time>2020-06-20T15:17:11Z</time>
      </trkpt>
      <trkpt lat="43.77361" lon="5.92134">
        <ele>514.1</ele>
        <time>2020-06-20T15:17:12Z</time>
      </trkpt>
      <trkpt lat="43.77359" lon="5.92134">
        <ele>514.1</ele>
        <time>2020-06-20T15:17:13Z</time>
      </trkpt>
      <trkpt lat="43.77357" lon="5.92134">
        <ele>514.2</ele>
        <time>2020-06-20T15:17:15Z</time>
      </trkpt>
      <trkpt lat="43.77354" lon="5.92134">
        <ele>514.3</ele>
        <time>2020-06-20T15:17:17Z</time>
      </trkpt>
      <trkpt lat="43.77351" lon="5.92135">
        <ele>514.4</ele>
        <time>2020-06-20T15:17:18Z</time>
      </trkpt>
      <trkpt lat="43.77348" lon="5.92136">
        <ele>514.5</ele>
        <time>2020-06-20T15:17:20Z</time>
      </trkpt>
      <trkpt lat="43.77346" lon="5.92138">
        <ele>514.6</ele>
        <time>2020-06-20T15:17:21Z</time>
      </trkpt>
      <trkpt lat="43.77343" lon="5.92139">
        <ele>514.6</ele>
        <time>2020-06-20T15:17:22Z</time>
      </trkpt>
      <trkpt lat="43.77339" lon="5.9214">
        <ele>514.7</ele>
        <time>2020-06-20T15:17:24Z</time>
      </trkpt>
      <trkpt lat="43.77338" lon="5.9214">
        <ele>514.8</ele>
        <time>2020-06-20T15:17:25Z</time>
      </trkpt>
      <trkpt lat="43.77335" lon="5.92141">
        <ele>514.9</ele>
        <time>2020-06-20T15:17:27Z</time>
      </trkpt>
      <trkpt lat="43.77331" lon="5.92141">
        <ele>515</ele>
        <time>2020-06-20T15:17:28Z</time>
      </trkpt>
      <trkpt lat="43.7733" lon="5.92142">
        <ele>515</ele>
        <time>2020-06-20T15:17:29Z</time>
      </trkpt>
      <trkpt lat="43.77326" lon="5.92142">
        <ele>515.1</ele>
        <time>2020-06-20T15:17:31Z</time>
      </trkpt>
      <trkpt lat="43.77324" lon="5.92142">
        <ele>515.1</ele>
        <time>2020-06-20T15:17:33Z</time>
      </trkpt>
      <trkpt lat="43.77323" lon="5.92142">
        <ele>515.1</ele>
        <time>2020-06-20T15:17:34Z</time>
      </trkpt>
      <trkpt lat="43.77319" lon="5.92143">
        <ele>515.1</ele>
        <time>2020-06-20T15:17:35Z</time>
      </trkpt>
      <trkpt lat="43.77318" lon="5.92143">
        <ele>515.2</ele>
        <time>2020-06-20T15:17:36Z</time>
      </trkpt>
      <trkpt lat="43.77315" lon="5.92144">
        <ele>515.2</ele>
        <time>2020-06-20T15:17:37Z</time>
      </trkpt>
      <trkpt lat="43.77311" lon="5.92144">
        <ele>515.2</ele>
        <time>2020-06-20T15:17:39Z</time>
      </trkpt>
      <trkpt lat="43.77308" lon="5.92145">
        <ele>515.2</ele>
        <time>2020-06-20T15:17:40Z</time>
      </trkpt>
      <trkpt lat="43.77303" lon="5.92145">
        <ele>515.1</ele>
        <time>2020-06-20T15:17:42Z</time>
      </trkpt>
      <trkpt lat="43.773" lon="5.92146">
        <ele>515.1</ele>
        <time>2020-06-20T15:17:43Z</time>
      </trkpt>
      <trkpt lat="43.77295" lon="5.92147">
        <ele>515.1</ele>
        <time>2020-06-20T15:17:45Z</time>
      </trkpt>
      <trkpt lat="43.77292" lon="5.92148">
        <ele>515.1</ele>
        <time>2020-06-20T15:17:46Z</time>
      </trkpt>
      <trkpt lat="43.77289" lon="5.92149">
        <ele>515</ele>
        <time>2020-06-20T15:17:47Z</time>
      </trkpt>
      <trkpt lat="43.77285" lon="5.9215">
        <ele>515</ele>
        <time>2020-06-20T15:17:49Z</time>
      </trkpt>
      <trkpt lat="43.77282" lon="5.92151">
        <ele>514.9</ele>
        <time>2020-06-20T15:17:50Z</time>
      </trkpt>
      <trkpt lat="43.77279" lon="5.92152">
        <ele>514.8</ele>
        <time>2020-06-20T15:17:51Z</time>
      </trkpt>
      <trkpt lat="43.77278" lon="5.92152">
        <ele>514.8</ele>
        <time>2020-06-20T15:17:52Z</time>
      </trkpt>
      <trkpt lat="43.77276" lon="5.92154">
        <ele>514.8</ele>
        <time>2020-06-20T15:17:54Z</time>
      </trkpt>
      <trkpt lat="43.77277" lon="5.92157">
        <ele>514.7</ele>
        <time>2020-06-20T15:17:55Z</time>
      </trkpt>
      <trkpt lat="43.77278" lon="5.92158">
        <ele>514.7</ele>
        <time>2020-06-20T15:17:57Z</time>
      </trkpt>
      <trkpt lat="43.77279" lon="5.92159">
        <ele>514.6</ele>
        <time>2020-06-20T15:17:59Z</time>
      </trkpt>
      <trkpt lat="43.7728" lon="5.9216">
        <ele>514.6</ele>
        <time>2020-06-20T15:18:00Z</time>
      </trkpt>
      <trkpt lat="43.77281" lon="5.92161">
        <ele>514.6</ele>
        <time>2020-06-20T15:18:02Z</time>
      </trkpt>
      <trkpt lat="43.77282" lon="5.92162">
        <ele>514.6</ele>
        <time>2020-06-20T15:18:03Z</time>
      </trkpt>
      <trkpt lat="43.77282" lon="5.92162">
        <ele>514.6</ele>
        <time>2020-06-20T15:18:05Z</time>
      </trkpt>
      <trkpt lat="43.77284" lon="5.92163">
        <ele>514.6</ele>
        <time>2020-06-20T15:18:06Z</time>
      </trkpt>
      <trkpt lat="43.77284" lon="5.92163">
        <ele>514.6</ele>
        <time>2020-06-20T15:18:08Z</time>
      </trkpt>
      <trkpt lat="43.77285" lon="5.92162">
        <ele>514.6</ele>
        <time>2020-06-20T15:18:09Z</time>
      </trkpt>
      <trkpt lat="43.77285" lon="5.92162">
        <ele>514.6</ele>
        <time>2020-06-20T15:18:11Z</time>
      </trkpt>
      <trkpt lat="43.77286" lon="5.92161">
        <ele>514.6</ele>
        <time>2020-06-20T15:18:13Z</time>
      </trkpt>
      <trkpt lat="43.77286" lon="5.92161">
        <ele>514.6</ele>
        <time>2020-06-20T15:18:14Z</time>
      </trkpt>
      <trkpt lat="43.77286" lon="5.92161">
        <ele>514.6</ele>
        <time>2020-06-20T15:18:16Z</time>
      </trkpt>
      <trkpt lat="43.77286" lon="5.92161">
        <ele>514.6</ele>
        <time>2020-06-20T15:18:17Z</time>
      </trkpt>
      <trkpt lat="43.77286" lon="5.92162">
        <ele>514.6</ele>
        <time>2020-06-20T15:18:18Z</time>
      </trkpt>
      <trkpt lat="43.77287" lon="5.92162">
        <ele>514.6</ele>
        <time>2020-06-20T15:18:20Z</time>
      </trkpt>
      <trkpt lat="43.77287" lon="5.92162">
        <ele>514.6</ele>
        <time>2020-06-20T15:18:21Z</time>
      </trkpt>
      <trkpt lat="43.77287" lon="5.92162">
        <ele>514.6</ele>
        <time>2020-06-20T15:18:22Z</time>
      </trkpt>
      <trkpt lat="43.77287" lon="5.92162">
        <ele>514.6</ele>
        <time>2020-06-20T15:18:23Z</time>
      </trkpt>
      <trkpt lat="43.77287" lon="5.92163">
        <ele>514.6</ele>
        <time>2020-06-20T15:18:24Z</time>
      </trkpt>
      <trkpt lat="43.7728" lon="5.92157">
        <ele>514.6</ele>
        <time>2020-06-20T15:18:26Z</time>
      </trkpt>
      <trkpt lat="43.77279" lon="5.92157">
        <ele>514.6</ele>
        <time>2020-06-20T15:18:28Z</time>
      </trkpt>
      <trkpt lat="43.77279" lon="5.92157">
        <ele>514.6</ele>
        <time>2020-06-20T15:18:29Z</time>
      </trkpt>
      <trkpt lat="43.77279" lon="5.92156">
        <ele>514.6</ele>
        <time>2020-06-20T15:18:31Z</time>
      </trkpt>
      <trkpt lat="43.77279" lon="5.92156">
        <ele>514.6</ele>
        <time>2020-06-20T15:18:32Z</time>
      </trkpt>
      <trkpt lat="43.77279" lon="5.92156">
        <ele>514.6</ele>
        <time>2020-06-20T15:18:34Z</time>
      </trkpt>
      <trkpt lat="43.77279" lon="5.92164">
        <ele>514.6</ele>
        <time>2020-06-20T15:22:03Z</time>
      </trkpt>
      <trkpt lat="43.77282" lon="5.92168">
        <ele>514.5</ele>
        <time>2020-06-20T15:22:05Z</time>
      </trkpt>
      <trkpt lat="43.77285" lon="5.92171">
        <ele>514.5</ele>
        <time>2020-06-20T15:22:06Z</time>
      </trkpt>
      <trkpt lat="43.77286" lon="5.92172">
        <ele>514.5</ele>
        <time>2020-06-20T15:22:07Z</time>
      </trkpt>
      <trkpt lat="43.77289" lon="5.92176">
        <ele>514.4</ele>
        <time>2020-06-20T15:22:08Z</time>
      </trkpt>
      <trkpt lat="43.77293" lon="5.92182">
        <ele>514.4</ele>
        <time>2020-06-20T15:22:10Z</time>
      </trkpt>
      <trkpt lat="43.77297" lon="5.9219">
        <ele>514.3</ele>
        <time>2020-06-20T15:22:12Z</time>
      </trkpt>
      <trkpt lat="43.77301" lon="5.92197">
        <ele>514.3</ele>
        <time>2020-06-20T15:22:13Z</time>
      </trkpt>
      <trkpt lat="43.77305" lon="5.92205">
        <ele>514.2</ele>
        <time>2020-06-20T15:22:15Z</time>
      </trkpt>
      <trkpt lat="43.77308" lon="5.92211">
        <ele>514.1</ele>
        <time>2020-06-20T15:22:16Z</time>
      </trkpt>
      <trkpt lat="43.7731" lon="5.92217">
        <ele>514</ele>
        <time>2020-06-20T15:22:17Z</time>
      </trkpt>
      <trkpt lat="43.77312" lon="5.92221">
        <ele>514</ele>
        <time>2020-06-20T15:22:19Z</time>
      </trkpt>
      <trkpt lat="43.77316" lon="5.92226">
        <ele>513.9</ele>
        <time>2020-06-20T15:22:20Z</time>
      </trkpt>
      <trkpt lat="43.7732" lon="5.92235">
        <ele>513.9</ele>
        <time>2020-06-20T15:22:22Z</time>
      </trkpt>
      <trkpt lat="43.77323" lon="5.92245">
        <ele>513.8</ele>
        <time>2020-06-20T15:22:24Z</time>
      </trkpt>
      <trkpt lat="43.77327" lon="5.92254">
        <ele>513.8</ele>
        <time>2020-06-20T15:22:25Z</time>
      </trkpt>
      <trkpt lat="43.7733" lon="5.9226">
        <ele>513.8</ele>
        <time>2020-06-20T15:22:26Z</time>
      </trkpt>
      <trkpt lat="43.77336" lon="5.92272">
        <ele>513.9</ele>
        <time>2020-06-20T15:22:28Z</time>
      </trkpt>
      <trkpt lat="43.77343" lon="5.92284">
        <ele>514</ele>
        <time>2020-06-20T15:22:30Z</time>
      </trkpt>
      <trkpt lat="43.77346" lon="5.9229">
        <ele>514.1</ele>
        <time>2020-06-20T15:22:31Z</time>
      </trkpt>
      <trkpt lat="43.77354" lon="5.92302">
        <ele>514.3</ele>
        <time>2020-06-20T15:22:33Z</time>
      </trkpt>
      <trkpt lat="43.7736" lon="5.92313">
        <ele>514.6</ele>
        <time>2020-06-20T15:22:35Z</time>
      </trkpt>
      <trkpt lat="43.77366" lon="5.92324">
        <ele>514.9</ele>
        <time>2020-06-20T15:22:37Z</time>
      </trkpt>
      <trkpt lat="43.77368" lon="5.92328">
        <ele>514.9</ele>
        <time>2020-06-20T15:22:38Z</time>
      </trkpt>
      <trkpt lat="43.77373" lon="5.92337">
        <ele>515.1</ele>
        <time>2020-06-20T15:22:40Z</time>
      </trkpt>
      <trkpt lat="43.77376" lon="5.92342">
        <ele>515.3</ele>
        <time>2020-06-20T15:22:41Z</time>
      </trkpt>
      <trkpt lat="43.77381" lon="5.92351">
        <ele>515.4</ele>
        <time>2020-06-20T15:22:43Z</time>
      </trkpt>
      <trkpt lat="43.77384" lon="5.92352">
        <ele>515.5</ele>
        <time>2020-06-20T15:22:44Z</time>
      </trkpt>
      <trkpt lat="43.77388" lon="5.92359">
        <ele>515.6</ele>
        <time>2020-06-20T15:22:45Z</time>
      </trkpt>
      <trkpt lat="43.7739" lon="5.92366">
        <ele>515.6</ele>
        <time>2020-06-20T15:22:47Z</time>
      </trkpt>
      <trkpt lat="43.77394" lon="5.92374">
        <ele>515.7</ele>
        <time>2020-06-20T15:22:48Z</time>
      </trkpt>
      <trkpt lat="43.77398" lon="5.92382">
        <ele>515.8</ele>
        <time>2020-06-20T15:22:50Z</time>
      </trkpt>
      <trkpt lat="43.774" lon="5.92387">
        <ele>515.8</ele>
        <time>2020-06-20T15:22:51Z</time>
      </trkpt>
      <trkpt lat="43.77405" lon="5.92396">
        <ele>515.8</ele>
        <time>2020-06-20T15:22:53Z</time>
      </trkpt>
      <trkpt lat="43.7741" lon="5.92406">
        <ele>515.7</ele>
        <time>2020-06-20T15:22:54Z</time>
      </trkpt>
      <trkpt lat="43.77417" lon="5.92418">
        <ele>515.6</ele>
        <time>2020-06-20T15:22:56Z</time>
      </trkpt>
      <trkpt lat="43.77421" lon="5.92424">
        <ele>515.6</ele>
        <time>2020-06-20T15:22:57Z</time>
      </trkpt>
      <trkpt lat="43.77428" lon="5.92437">
        <ele>515.5</ele>
        <time>2020-06-20T15:22:59Z</time>
      </trkpt>
      <trkpt lat="43.77431" lon="5.92443">
        <ele>515.5</ele>
        <time>2020-06-20T15:23:00Z</time>
      </trkpt>
      <trkpt lat="43.77437" lon="5.92456">
        <ele>515.5</ele>
        <time>2020-06-20T15:23:02Z</time>
      </trkpt>
      <trkpt lat="43.77444" lon="5.92468">
        <ele>515.6</ele>
        <time>2020-06-20T15:23:04Z</time>
      </trkpt>
      <trkpt lat="43.77447" lon="5.92474">
        <ele>515.6</ele>
        <time>2020-06-20T15:23:05Z</time>
      </trkpt>
      <trkpt lat="43.7745" lon="5.9248">
        <ele>515.7</ele>
        <time>2020-06-20T15:23:06Z</time>
      </trkpt>
      <trkpt lat="43.77453" lon="5.92486">
        <ele>515.7</ele>
        <time>2020-06-20T15:23:07Z</time>
      </trkpt>
      <trkpt lat="43.77458" lon="5.92498">
        <ele>515.7</ele>
        <time>2020-06-20T15:23:09Z</time>
      </trkpt>
      <trkpt lat="43.77463" lon="5.9251">
        <ele>515.7</ele>
        <time>2020-06-20T15:23:11Z</time>
      </trkpt>
      <trkpt lat="43.77466" lon="5.92515">
        <ele>515.7</ele>
        <time>2020-06-20T15:23:12Z</time>
      </trkpt>
      <trkpt lat="43.7747" lon="5.92523">
        <ele>515.6</ele>
        <time>2020-06-20T15:23:14Z</time>
      </trkpt>
      <trkpt lat="43.77472" lon="5.92528">
        <ele>515.6</ele>
        <time>2020-06-20T15:23:15Z</time>
      </trkpt>
      <trkpt lat="43.77477" lon="5.92537">
        <ele>515.4</ele>
        <time>2020-06-20T15:23:17Z</time>
      </trkpt>
      <trkpt lat="43.77488" lon="5.92547">
        <ele>515</ele>
        <time>2020-06-20T15:23:19Z</time>
      </trkpt>
      <trkpt lat="43.77499" lon="5.92552">
        <ele>515</ele>
        <time>2020-06-20T15:23:21Z</time>
      </trkpt>
      <trkpt lat="43.7751" lon="5.92552">
        <ele>515</ele>
        <time>2020-06-20T15:23:23Z</time>
      </trkpt>
      <trkpt lat="43.77514" lon="5.9255">
        <ele>515</ele>
        <time>2020-06-20T15:23:24Z</time>
      </trkpt>
      <trkpt lat="43.77521" lon="5.92553">
        <ele>515</ele>
        <time>2020-06-20T15:23:25Z</time>
      </trkpt>
      <trkpt lat="43.77527" lon="5.9256">
        <ele>515.1</ele>
        <time>2020-06-20T15:23:27Z</time>
      </trkpt>
      <trkpt lat="43.77532" lon="5.92563">
        <ele>515.1</ele>
        <time>2020-06-20T15:23:28Z</time>
      </trkpt>
      <trkpt lat="43.77542" lon="5.92571">
        <ele>515.1</ele>
        <time>2020-06-20T15:23:30Z</time>
      </trkpt>
      <trkpt lat="43.77552" lon="5.92577">
        <ele>515.1</ele>
        <time>2020-06-20T15:23:32Z</time>
      </trkpt>
      <trkpt lat="43.77561" lon="5.92582">
        <ele>515.1</ele>
        <time>2020-06-20T15:23:34Z</time>
      </trkpt>
      <trkpt lat="43.77565" lon="5.92585">
        <ele>515.1</ele>
        <time>2020-06-20T15:23:35Z</time>
      </trkpt>
      <trkpt lat="43.7757" lon="5.92588">
        <ele>515.1</ele>
        <time>2020-06-20T15:23:36Z</time>
      </trkpt>
      <trkpt lat="43.77575" lon="5.92591">
        <ele>515.1</ele>
        <time>2020-06-20T15:23:38Z</time>
      </trkpt>
      <trkpt lat="43.77581" lon="5.92595">
        <ele>515.2</ele>
        <time>2020-06-20T15:23:39Z</time>
      </trkpt>
      <trkpt lat="43.77586" lon="5.92598">
        <ele>515.2</ele>
        <time>2020-06-20T15:23:40Z</time>
      </trkpt>
      <trkpt lat="43.77595" lon="5.92603">
        <ele>515.2</ele>
        <time>2020-06-20T15:23:42Z</time>
      </trkpt>
      <trkpt lat="43.77605" lon="5.92607">
        <ele>515.3</ele>
        <time>2020-06-20T15:23:44Z</time>
      </trkpt>
      <trkpt lat="43.7761" lon="5.92608">
        <ele>515.3</ele>
        <time>2020-06-20T15:23:45Z</time>
      </trkpt>
      <trkpt lat="43.7762" lon="5.92612">
        <ele>515.4</ele>
        <time>2020-06-20T15:23:47Z</time>
      </trkpt>
      <trkpt lat="43.77624" lon="5.92614">
        <ele>515.5</ele>
        <time>2020-06-20T15:23:48Z</time>
      </trkpt>
      <trkpt lat="43.77633" lon="5.92612">
        <ele>515.6</ele>
        <time>2020-06-20T15:23:50Z</time>
      </trkpt>
      <trkpt lat="43.77637" lon="5.92618">
        <ele>515.7</ele>
        <time>2020-06-20T15:23:51Z</time>
      </trkpt>
      <trkpt lat="43.77642" lon="5.92621">
        <ele>515.9</ele>
        <time>2020-06-20T15:23:52Z</time>
      </trkpt>
      <trkpt lat="43.77646" lon="5.92623">
        <ele>516</ele>
        <time>2020-06-20T15:23:54Z</time>
      </trkpt>
      <trkpt lat="43.77652" lon="5.92625">
        <ele>516.1</ele>
        <time>2020-06-20T15:23:55Z</time>
      </trkpt>
      <trkpt lat="43.77657" lon="5.92626">
        <ele>516.3</ele>
        <time>2020-06-20T15:23:56Z</time>
      </trkpt>
      <trkpt lat="43.77663" lon="5.92628">
        <ele>516.5</ele>
        <time>2020-06-20T15:23:58Z</time>
      </trkpt>
      <trkpt lat="43.77666" lon="5.9263">
        <ele>516.6</ele>
        <time>2020-06-20T15:23:59Z</time>
      </trkpt>
      <trkpt lat="43.77669" lon="5.9263">
        <ele>516.6</ele>
        <time>2020-06-20T15:24:00Z</time>
      </trkpt>
      <trkpt lat="43.77673" lon="5.92633">
        <ele>516.7</ele>
        <time>2020-06-20T15:24:02Z</time>
      </trkpt>
      <trkpt lat="43.77673" lon="5.92632">
        <ele>516.7</ele>
        <time>2020-06-20T15:24:03Z</time>
      </trkpt>
      <trkpt lat="43.77673" lon="5.92633">
        <ele>516.7</ele>
        <time>2020-06-20T15:24:05Z</time>
      </trkpt>
      <trkpt lat="43.77674" lon="5.92633">
        <ele>516.7</ele>
        <time>2020-06-20T15:24:06Z</time>
      </trkpt>
      <trkpt lat="43.77674" lon="5.92634">
        <ele>516.7</ele>
        <time>2020-06-20T15:24:08Z</time>
      </trkpt>
      <trkpt lat="43.77674" lon="5.92634">
        <ele>516.7</ele>
        <time>2020-06-20T15:24:09Z</time>
      </trkpt>
      <trkpt lat="43.77675" lon="5.92634">
        <ele>516.7</ele>
        <time>2020-06-20T15:24:11Z</time>
      </trkpt>
      <trkpt lat="43.77676" lon="5.92634">
        <ele>516.7</ele>
        <time>2020-06-20T15:24:12Z</time>
      </trkpt>
      <trkpt lat="43.77677" lon="5.92631">
        <ele>516.7</ele>
        <time>2020-06-20T15:24:25Z</time>
      </trkpt>
      <trkpt lat="43.77681" lon="5.92632">
        <ele>516.8</ele>
        <time>2020-06-20T15:24:26Z</time>
      </trkpt>
      <trkpt lat="43.77684" lon="5.92633">
        <ele>516.8</ele>
        <time>2020-06-20T15:24:27Z</time>
      </trkpt>
      <trkpt lat="43.7769" lon="5.92634">
        <ele>516.8</ele>
        <time>2020-06-20T15:24:28Z</time>
      </trkpt>
      <trkpt lat="43.77695" lon="5.92636">
        <ele>516.7</ele>
        <time>2020-06-20T15:24:30Z</time>
      </trkpt>
      <trkpt lat="43.77701" lon="5.92638">
        <ele>516.6</ele>
        <time>2020-06-20T15:24:31Z</time>
      </trkpt>
      <trkpt lat="43.77708" lon="5.9264">
        <ele>516.2</ele>
        <time>2020-06-20T15:24:32Z</time>
      </trkpt>
      <trkpt lat="43.77713" lon="5.92643">
        <ele>516.1</ele>
        <time>2020-06-20T15:24:33Z</time>
      </trkpt>
      <trkpt lat="43.77724" lon="5.92649">
        <ele>515.9</ele>
        <time>2020-06-20T15:24:35Z</time>
      </trkpt>
      <trkpt lat="43.77734" lon="5.92657">
        <ele>515.9</ele>
        <time>2020-06-20T15:24:37Z</time>
      </trkpt>
      <trkpt lat="43.77738" lon="5.9266">
        <ele>515.9</ele>
        <time>2020-06-20T15:24:38Z</time>
      </trkpt>
      <trkpt lat="43.77747" lon="5.92667">
        <ele>516</ele>
        <time>2020-06-20T15:24:40Z</time>
      </trkpt>
      <trkpt lat="43.77752" lon="5.9267">
        <ele>516.1</ele>
        <time>2020-06-20T15:24:41Z</time>
      </trkpt>
      <trkpt lat="43.77755" lon="5.92671">
        <ele>516.2</ele>
        <time>2020-06-20T15:24:42Z</time>
      </trkpt>
      <trkpt lat="43.77759" lon="5.92673">
        <ele>516.2</ele>
        <time>2020-06-20T15:24:43Z</time>
      </trkpt>
      <trkpt lat="43.77765" lon="5.92678">
        <ele>516.4</ele>
        <time>2020-06-20T15:24:45Z</time>
      </trkpt>
      <trkpt lat="43.77769" lon="5.92681">
        <ele>516.5</ele>
        <time>2020-06-20T15:24:46Z</time>
      </trkpt>
      <trkpt lat="43.77774" lon="5.92685">
        <ele>516.7</ele>
        <time>2020-06-20T15:24:47Z</time>
      </trkpt>
      <trkpt lat="43.77778" lon="5.92688">
        <ele>516.8</ele>
        <time>2020-06-20T15:24:49Z</time>
      </trkpt>
      <trkpt lat="43.77783" lon="5.92691">
        <ele>517</ele>
        <time>2020-06-20T15:24:50Z</time>
      </trkpt>
      <trkpt lat="43.77786" lon="5.92694">
        <ele>517.1</ele>
        <time>2020-06-20T15:24:51Z</time>
      </trkpt>
      <trkpt lat="43.77792" lon="5.92698">
        <ele>517.3</ele>
        <time>2020-06-20T15:24:52Z</time>
      </trkpt>
      <trkpt lat="43.77797" lon="5.92702">
        <ele>517.4</ele>
        <time>2020-06-20T15:24:54Z</time>
      </trkpt>
      <trkpt lat="43.77801" lon="5.92704">
        <ele>517.5</ele>
        <time>2020-06-20T15:24:55Z</time>
      </trkpt>
      <trkpt lat="43.77806" lon="5.92707">
        <ele>517.7</ele>
        <time>2020-06-20T15:24:56Z</time>
      </trkpt>
      <trkpt lat="43.77815" lon="5.92713">
        <ele>518</ele>
        <time>2020-06-20T15:24:58Z</time>
      </trkpt>
      <trkpt lat="43.7782" lon="5.92717">
        <ele>518.2</ele>
        <time>2020-06-20T15:24:59Z</time>
      </trkpt>
      <trkpt lat="43.77824" lon="5.9272">
        <ele>518.3</ele>
        <time>2020-06-20T15:25:01Z</time>
      </trkpt>
      <trkpt lat="43.77827" lon="5.92722">
        <ele>518.4</ele>
        <time>2020-06-20T15:25:02Z</time>
      </trkpt>
      <trkpt lat="43.7783" lon="5.92724">
        <ele>518.5</ele>
        <time>2020-06-20T15:25:03Z</time>
      </trkpt>
      <trkpt lat="43.77834" lon="5.92728">
        <ele>518.7</ele>
        <time>2020-06-20T15:25:04Z</time>
      </trkpt>
      <trkpt lat="43.7784" lon="5.92731">
        <ele>518.8</ele>
        <time>2020-06-20T15:25:06Z</time>
      </trkpt>
      <trkpt lat="43.77844" lon="5.92734">
        <ele>518.9</ele>
        <time>2020-06-20T15:25:07Z</time>
      </trkpt>
      <trkpt lat="43.77849" lon="5.92738">
        <ele>519</ele>
        <time>2020-06-20T15:25:08Z</time>
      </trkpt>
      <trkpt lat="43.77853" lon="5.92741">
        <ele>519.1</ele>
        <time>2020-06-20T15:25:10Z</time>
      </trkpt>
      <trkpt lat="43.77857" lon="5.92744">
        <ele>519.1</ele>
        <time>2020-06-20T15:25:11Z</time>
      </trkpt>
      <trkpt lat="43.77861" lon="5.92746">
        <ele>519.2</ele>
        <time>2020-06-20T15:25:12Z</time>
      </trkpt>
      <trkpt lat="43.77868" lon="5.92751">
        <ele>519.2</ele>
        <time>2020-06-20T15:25:14Z</time>
      </trkpt>
      <trkpt lat="43.77874" lon="5.92755">
        <ele>519.2</ele>
        <time>2020-06-20T15:25:15Z</time>
      </trkpt>
      <trkpt lat="43.7788" lon="5.92759">
        <ele>519.2</ele>
        <time>2020-06-20T15:25:17Z</time>
      </trkpt>
      <trkpt lat="43.77885" lon="5.9276">
        <ele>519.2</ele>
        <time>2020-06-20T15:25:18Z</time>
      </trkpt>
      <trkpt lat="43.77894" lon="5.92764">
        <ele>519.2</ele>
        <time>2020-06-20T15:25:20Z</time>
      </trkpt>
      <trkpt lat="43.779" lon="5.92771">
        <ele>519.1</ele>
        <time>2020-06-20T15:25:21Z</time>
      </trkpt>
      <trkpt lat="43.77908" lon="5.92776">
        <ele>519.1</ele>
        <time>2020-06-20T15:25:23Z</time>
      </trkpt>
      <trkpt lat="43.77914" lon="5.92779">
        <ele>519.1</ele>
        <time>2020-06-20T15:25:25Z</time>
      </trkpt>
      <trkpt lat="43.77921" lon="5.92783">
        <ele>519</ele>
        <time>2020-06-20T15:25:26Z</time>
      </trkpt>
      <trkpt lat="43.77925" lon="5.92786">
        <ele>519</ele>
        <time>2020-06-20T15:25:27Z</time>
      </trkpt>
      <trkpt lat="43.77934" lon="5.92791">
        <ele>518.9</ele>
        <time>2020-06-20T15:25:29Z</time>
      </trkpt>
      <trkpt lat="43.77939" lon="5.92794">
        <ele>518.9</ele>
        <time>2020-06-20T15:25:30Z</time>
      </trkpt>
      <trkpt lat="43.77943" lon="5.92797">
        <ele>518.8</ele>
        <time>2020-06-20T15:25:31Z</time>
      </trkpt>
      <trkpt lat="43.77951" lon="5.92803">
        <ele>518.7</ele>
        <time>2020-06-20T15:25:33Z</time>
      </trkpt>
      <trkpt lat="43.77955" lon="5.92807">
        <ele>518.6</ele>
        <time>2020-06-20T15:25:35Z</time>
      </trkpt>
      <trkpt lat="43.77966" lon="5.92812">
        <ele>518.3</ele>
        <time>2020-06-20T15:25:37Z</time>
      </trkpt>
      <trkpt lat="43.77978" lon="5.92818">
        <ele>517.9</ele>
        <time>2020-06-20T15:25:39Z</time>
      </trkpt>
      <trkpt lat="43.77983" lon="5.92821">
        <ele>517.7</ele>
        <time>2020-06-20T15:25:40Z</time>
      </trkpt>
      <trkpt lat="43.77989" lon="5.92824">
        <ele>517.5</ele>
        <time>2020-06-20T15:25:41Z</time>
      </trkpt>
      <trkpt lat="43.77994" lon="5.92828">
        <ele>517.3</ele>
        <time>2020-06-20T15:25:42Z</time>
      </trkpt>
      <trkpt lat="43.78006" lon="5.92835">
        <ele>516.9</ele>
        <time>2020-06-20T15:25:44Z</time>
      </trkpt>
      <trkpt lat="43.78011" lon="5.92838">
        <ele>516.7</ele>
        <time>2020-06-20T15:25:45Z</time>
      </trkpt>
      <trkpt lat="43.78023" lon="5.92846">
        <ele>516.4</ele>
        <time>2020-06-20T15:25:47Z</time>
      </trkpt>
      <trkpt lat="43.78028" lon="5.92849">
        <ele>516.3</ele>
        <time>2020-06-20T15:25:48Z</time>
      </trkpt>
      <trkpt lat="43.78039" lon="5.92856">
        <ele>516.4</ele>
        <time>2020-06-20T15:25:50Z</time>
      </trkpt>
      <trkpt lat="43.78049" lon="5.92863">
        <ele>516.6</ele>
        <time>2020-06-20T15:25:52Z</time>
      </trkpt>
      <trkpt lat="43.78054" lon="5.92865">
        <ele>516.6</ele>
        <time>2020-06-20T15:25:53Z</time>
      </trkpt>
      <trkpt lat="43.78059" lon="5.92868">
        <ele>516.8</ele>
        <time>2020-06-20T15:25:54Z</time>
      </trkpt>
      <trkpt lat="43.78068" lon="5.92873">
        <ele>517</ele>
        <time>2020-06-20T15:25:56Z</time>
      </trkpt>
      <trkpt lat="43.78076" lon="5.92877">
        <ele>517.2</ele>
        <time>2020-06-20T15:25:58Z</time>
      </trkpt>
      <trkpt lat="43.78083" lon="5.9288">
        <ele>517.5</ele>
        <time>2020-06-20T15:26:00Z</time>
      </trkpt>
      <trkpt lat="43.78089" lon="5.92884">
        <ele>517.8</ele>
        <time>2020-06-20T15:26:02Z</time>
      </trkpt>
      <trkpt lat="43.78093" lon="5.92889">
        <ele>518</ele>
        <time>2020-06-20T15:26:04Z</time>
      </trkpt>
      <trkpt lat="43.78095" lon="5.92892">
        <ele>518.2</ele>
        <time>2020-06-20T15:26:05Z</time>
      </trkpt>
      <trkpt lat="43.78099" lon="5.92892">
        <ele>518.4</ele>
        <time>2020-06-20T15:26:06Z</time>
      </trkpt>
      <trkpt lat="43.78103" lon="5.92893">
        <ele>518.6</ele>
        <time>2020-06-20T15:26:07Z</time>
      </trkpt>
      <trkpt lat="43.78107" lon="5.92895">
        <ele>518.8</ele>
        <time>2020-06-20T15:26:08Z</time>
      </trkpt>
      <trkpt lat="43.78111" lon="5.92897">
        <ele>519</ele>
        <time>2020-06-20T15:26:09Z</time>
      </trkpt>
      <trkpt lat="43.78115" lon="5.929">
        <ele>519.3</ele>
        <time>2020-06-20T15:26:11Z</time>
      </trkpt>
      <trkpt lat="43.7812" lon="5.92903">
        <ele>519.5</ele>
        <time>2020-06-20T15:26:12Z</time>
      </trkpt>
      <trkpt lat="43.78124" lon="5.92906">
        <ele>519.7</ele>
        <time>2020-06-20T15:26:13Z</time>
      </trkpt>
      <trkpt lat="43.78129" lon="5.92909">
        <ele>520</ele>
        <time>2020-06-20T15:26:15Z</time>
      </trkpt>
      <trkpt lat="43.78132" lon="5.92912">
        <ele>520.1</ele>
        <time>2020-06-20T15:26:16Z</time>
      </trkpt>
      <trkpt lat="43.78135" lon="5.92914">
        <ele>520.3</ele>
        <time>2020-06-20T15:26:17Z</time>
      </trkpt>
      <trkpt lat="43.78139" lon="5.92917">
        <ele>520.5</ele>
        <time>2020-06-20T15:26:18Z</time>
      </trkpt>
      <trkpt lat="43.78142" lon="5.9292">
        <ele>520.7</ele>
        <time>2020-06-20T15:26:20Z</time>
      </trkpt>
      <trkpt lat="43.78146" lon="5.92924">
        <ele>520.8</ele>
        <time>2020-06-20T15:26:21Z</time>
      </trkpt>
      <trkpt lat="43.78151" lon="5.92928">
        <ele>521.1</ele>
        <time>2020-06-20T15:26:23Z</time>
      </trkpt>
      <trkpt lat="43.78156" lon="5.92931">
        <ele>521.3</ele>
        <time>2020-06-20T15:26:24Z</time>
      </trkpt>
      <trkpt lat="43.78159" lon="5.92934">
        <ele>521.4</ele>
        <time>2020-06-20T15:26:25Z</time>
      </trkpt>
      <trkpt lat="43.78164" lon="5.92938">
        <ele>521.6</ele>
        <time>2020-06-20T15:26:27Z</time>
      </trkpt>
      <trkpt lat="43.78167" lon="5.92941">
        <ele>521.8</ele>
        <time>2020-06-20T15:26:28Z</time>
      </trkpt>
      <trkpt lat="43.78171" lon="5.92944">
        <ele>521.9</ele>
        <time>2020-06-20T15:26:30Z</time>
      </trkpt>
      <trkpt lat="43.78175" lon="5.92947">
        <ele>522</ele>
        <time>2020-06-20T15:26:31Z</time>
      </trkpt>
      <trkpt lat="43.7818" lon="5.92951">
        <ele>522.2</ele>
        <time>2020-06-20T15:26:33Z</time>
      </trkpt>
      <trkpt lat="43.78183" lon="5.92955">
        <ele>522.3</ele>
        <time>2020-06-20T15:26:34Z</time>
      </trkpt>
      <trkpt lat="43.78186" lon="5.92958">
        <ele>522.4</ele>
        <time>2020-06-20T15:26:35Z</time>
      </trkpt>
      <trkpt lat="43.78189" lon="5.9296">
        <ele>522.5</ele>
        <time>2020-06-20T15:26:36Z</time>
      </trkpt>
      <trkpt lat="43.78192" lon="5.92964">
        <ele>522.7</ele>
        <time>2020-06-20T15:26:37Z</time>
      </trkpt>
      <trkpt lat="43.78198" lon="5.9297">
        <ele>522.9</ele>
        <time>2020-06-20T15:26:39Z</time>
      </trkpt>
      <trkpt lat="43.78201" lon="5.92972">
        <ele>523</ele>
        <time>2020-06-20T15:26:40Z</time>
      </trkpt>
      <trkpt lat="43.78206" lon="5.92977">
        <ele>523.2</ele>
        <time>2020-06-20T15:26:42Z</time>
      </trkpt>
      <trkpt lat="43.78209" lon="5.92981">
        <ele>523.4</ele>
        <time>2020-06-20T15:26:43Z</time>
      </trkpt>
      <trkpt lat="43.78214" lon="5.92985">
        <ele>523.6</ele>
        <time>2020-06-20T15:26:44Z</time>
      </trkpt>
      <trkpt lat="43.78217" lon="5.92989">
        <ele>523.7</ele>
        <time>2020-06-20T15:26:45Z</time>
      </trkpt>
      <trkpt lat="43.78221" lon="5.92993">
        <ele>523.9</ele>
        <time>2020-06-20T15:26:47Z</time>
      </trkpt>
      <trkpt lat="43.78227" lon="5.92999">
        <ele>524.1</ele>
        <time>2020-06-20T15:26:48Z</time>
      </trkpt>
      <trkpt lat="43.7823" lon="5.93002">
        <ele>524.3</ele>
        <time>2020-06-20T15:26:49Z</time>
      </trkpt>
      <trkpt lat="43.78233" lon="5.93006">
        <ele>524.4</ele>
        <time>2020-06-20T15:26:51Z</time>
      </trkpt>
      <trkpt lat="43.78236" lon="5.93009">
        <ele>524.5</ele>
        <time>2020-06-20T15:26:52Z</time>
      </trkpt>
      <trkpt lat="43.78239" lon="5.93014">
        <ele>524.7</ele>
        <time>2020-06-20T15:26:53Z</time>
      </trkpt>
      <trkpt lat="43.78244" lon="5.9302">
        <ele>524.9</ele>
        <time>2020-06-20T15:26:55Z</time>
      </trkpt>
      <trkpt lat="43.7825" lon="5.93027">
        <ele>525</ele>
        <time>2020-06-20T15:26:57Z</time>
      </trkpt>
      <trkpt lat="43.78255" lon="5.93032">
        <ele>525.2</ele>
        <time>2020-06-20T15:26:59Z</time>
      </trkpt>
      <trkpt lat="43.78259" lon="5.93036">
        <ele>525.2</ele>
        <time>2020-06-20T15:27:00Z</time>
      </trkpt>
      <trkpt lat="43.78262" lon="5.9304">
        <ele>525.3</ele>
        <time>2020-06-20T15:27:01Z</time>
      </trkpt>
      <trkpt lat="43.78266" lon="5.93045">
        <ele>525.3</ele>
        <time>2020-06-20T15:27:02Z</time>
      </trkpt>
      <trkpt lat="43.78269" lon="5.93049">
        <ele>525.3</ele>
        <time>2020-06-20T15:27:03Z</time>
      </trkpt>
      <trkpt lat="43.78274" lon="5.93055">
        <ele>525.4</ele>
        <time>2020-06-20T15:27:05Z</time>
      </trkpt>
      <trkpt lat="43.78277" lon="5.9306">
        <ele>525.6</ele>
        <time>2020-06-20T15:27:06Z</time>
      </trkpt>
      <trkpt lat="43.7828" lon="5.93063">
        <ele>525.6</ele>
        <time>2020-06-20T15:27:07Z</time>
      </trkpt>
      <trkpt lat="43.78284" lon="5.9307">
        <ele>525.7</ele>
        <time>2020-06-20T15:27:09Z</time>
      </trkpt>
      <trkpt lat="43.78287" lon="5.93073">
        <ele>525.8</ele>
        <time>2020-06-20T15:27:10Z</time>
      </trkpt>
      <trkpt lat="43.7829" lon="5.93077">
        <ele>525.8</ele>
        <time>2020-06-20T15:27:11Z</time>
      </trkpt>
      <trkpt lat="43.78293" lon="5.93081">
        <ele>525.9</ele>
        <time>2020-06-20T15:27:13Z</time>
      </trkpt>
      <trkpt lat="43.78297" lon="5.93084">
        <ele>526</ele>
        <time>2020-06-20T15:27:15Z</time>
      </trkpt>
      <trkpt lat="43.78299" lon="5.93089">
        <ele>526</ele>
        <time>2020-06-20T15:27:16Z</time>
      </trkpt>
      <trkpt lat="43.78301" lon="5.93091">
        <ele>526</ele>
        <time>2020-06-20T15:27:17Z</time>
      </trkpt>
      <trkpt lat="43.78302" lon="5.93092">
        <ele>526.1</ele>
        <time>2020-06-20T15:27:19Z</time>
      </trkpt>
      <trkpt lat="43.78302" lon="5.93092">
        <ele>526.1</ele>
        <time>2020-06-20T15:27:20Z</time>
      </trkpt>
      <trkpt lat="43.78303" lon="5.93092">
        <ele>526.1</ele>
        <time>2020-06-20T15:27:22Z</time>
      </trkpt>
      <trkpt lat="43.78303" lon="5.93091">
        <ele>526.1</ele>
        <time>2020-06-20T15:27:24Z</time>
      </trkpt>
      <trkpt lat="43.78303" lon="5.9309">
        <ele>526.1</ele>
        <time>2020-06-20T15:27:26Z</time>
      </trkpt>
      <trkpt lat="43.78303" lon="5.9309">
        <ele>526.1</ele>
        <time>2020-06-20T15:27:27Z</time>
      </trkpt>
      <trkpt lat="43.78304" lon="5.93089">
        <ele>526.1</ele>
        <time>2020-06-20T15:27:29Z</time>
      </trkpt>
      <trkpt lat="43.78304" lon="5.93089">
        <ele>526.1</ele>
        <time>2020-06-20T15:27:30Z</time>
      </trkpt>
      <trkpt lat="43.78304" lon="5.93089">
        <ele>526.1</ele>
        <time>2020-06-20T15:27:32Z</time>
      </trkpt>
      <trkpt lat="43.78307" lon="5.93092">
        <ele>526.1</ele>
        <time>2020-06-20T15:27:36Z</time>
      </trkpt>
      <trkpt lat="43.78308" lon="5.93095">
        <ele>526.2</ele>
        <time>2020-06-20T15:27:37Z</time>
      </trkpt>
      <trkpt lat="43.7831" lon="5.931">
        <ele>526.2</ele>
        <time>2020-06-20T15:27:39Z</time>
      </trkpt>
      <trkpt lat="43.78314" lon="5.93104">
        <ele>526.3</ele>
        <time>2020-06-20T15:27:41Z</time>
      </trkpt>
      <trkpt lat="43.78317" lon="5.93107">
        <ele>526.4</ele>
        <time>2020-06-20T15:27:42Z</time>
      </trkpt>
      <trkpt lat="43.78321" lon="5.93112">
        <ele>526.4</ele>
        <time>2020-06-20T15:27:43Z</time>
      </trkpt>
      <trkpt lat="43.78327" lon="5.93119">
        <ele>526.6</ele>
        <time>2020-06-20T15:27:45Z</time>
      </trkpt>
      <trkpt lat="43.78333" lon="5.93126">
        <ele>526.7</ele>
        <time>2020-06-20T15:27:46Z</time>
      </trkpt>
      <trkpt lat="43.78336" lon="5.9313">
        <ele>526.8</ele>
        <time>2020-06-20T15:27:47Z</time>
      </trkpt>
      <trkpt lat="43.78341" lon="5.93136">
        <ele>526.9</ele>
        <time>2020-06-20T15:27:48Z</time>
      </trkpt>
      <trkpt lat="43.78345" lon="5.9314">
        <ele>527</ele>
        <time>2020-06-20T15:27:50Z</time>
      </trkpt>
      <trkpt lat="43.78348" lon="5.93143">
        <ele>527.1</ele>
        <time>2020-06-20T15:27:51Z</time>
      </trkpt>
      <trkpt lat="43.78355" lon="5.93149">
        <ele>527.2</ele>
        <time>2020-06-20T15:27:53Z</time>
      </trkpt>
      <trkpt lat="43.7836" lon="5.93155">
        <ele>527.4</ele>
        <time>2020-06-20T15:27:54Z</time>
      </trkpt>
      <trkpt lat="43.78368" lon="5.93165">
        <ele>527.5</ele>
        <time>2020-06-20T15:27:56Z</time>
      </trkpt>
      <trkpt lat="43.78372" lon="5.93169">
        <ele>527.6</ele>
        <time>2020-06-20T15:27:57Z</time>
      </trkpt>
      <trkpt lat="43.78379" lon="5.93177">
        <ele>527.8</ele>
        <time>2020-06-20T15:27:59Z</time>
      </trkpt>
      <trkpt lat="43.78381" lon="5.93181">
        <ele>527.8</ele>
        <time>2020-06-20T15:28:00Z</time>
      </trkpt>
      <trkpt lat="43.78386" lon="5.93187">
        <ele>527.9</ele>
        <time>2020-06-20T15:28:02Z</time>
      </trkpt>
      <trkpt lat="43.78392" lon="5.93194">
        <ele>528</ele>
        <time>2020-06-20T15:28:04Z</time>
      </trkpt>
      <trkpt lat="43.78396" lon="5.93198">
        <ele>528.1</ele>
        <time>2020-06-20T15:28:05Z</time>
      </trkpt>
      <trkpt lat="43.78399" lon="5.93202">
        <ele>528.2</ele>
        <time>2020-06-20T15:28:06Z</time>
      </trkpt>
      <trkpt lat="43.78404" lon="5.93208">
        <ele>528.3</ele>
        <time>2020-06-20T15:28:07Z</time>
      </trkpt>
      <trkpt lat="43.78408" lon="5.93212">
        <ele>528.4</ele>
        <time>2020-06-20T15:28:08Z</time>
      </trkpt>
      <trkpt lat="43.78415" lon="5.93221">
        <ele>528.5</ele>
        <time>2020-06-20T15:28:10Z</time>
      </trkpt>
      <trkpt lat="43.78419" lon="5.93225">
        <ele>528.5</ele>
        <time>2020-06-20T15:28:11Z</time>
      </trkpt>
      <trkpt lat="43.78418" lon="5.93228">
        <ele>528.5</ele>
        <time>2020-06-20T15:28:12Z</time>
      </trkpt>
      <trkpt lat="43.78423" lon="5.93233">
        <ele>528.6</ele>
        <time>2020-06-20T15:28:14Z</time>
      </trkpt>
      <trkpt lat="43.78428" lon="5.93238">
        <ele>528.7</ele>
        <time>2020-06-20T15:28:15Z</time>
      </trkpt>
      <trkpt lat="43.78436" lon="5.93246">
        <ele>528.8</ele>
        <time>2020-06-20T15:28:17Z</time>
      </trkpt>
      <trkpt lat="43.7844" lon="5.93252">
        <ele>529</ele>
        <time>2020-06-20T15:28:19Z</time>
      </trkpt>
      <trkpt lat="43.78445" lon="5.93257">
        <ele>529.1</ele>
        <time>2020-06-20T15:28:20Z</time>
      </trkpt>
      <trkpt lat="43.7845" lon="5.93263">
        <ele>529.2</ele>
        <time>2020-06-20T15:28:22Z</time>
      </trkpt>
      <trkpt lat="43.78455" lon="5.93269">
        <ele>529.3</ele>
        <time>2020-06-20T15:28:23Z</time>
      </trkpt>
      <trkpt lat="43.78459" lon="5.93273">
        <ele>529.4</ele>
        <time>2020-06-20T15:28:24Z</time>
      </trkpt>
      <trkpt lat="43.78463" lon="5.93278">
        <ele>529.5</ele>
        <time>2020-06-20T15:28:26Z</time>
      </trkpt>
      <trkpt lat="43.78468" lon="5.93283">
        <ele>529.5</ele>
        <time>2020-06-20T15:28:27Z</time>
      </trkpt>
      <trkpt lat="43.78471" lon="5.93287">
        <ele>529.6</ele>
        <time>2020-06-20T15:28:28Z</time>
      </trkpt>
      <trkpt lat="43.78475" lon="5.93293">
        <ele>529.7</ele>
        <time>2020-06-20T15:28:29Z</time>
      </trkpt>
      <trkpt lat="43.78481" lon="5.93299">
        <ele>529.9</ele>
        <time>2020-06-20T15:28:31Z</time>
      </trkpt>
      <trkpt lat="43.78486" lon="5.93304">
        <ele>530</ele>
        <time>2020-06-20T15:28:32Z</time>
      </trkpt>
      <trkpt lat="43.78488" lon="5.93308">
        <ele>530</ele>
        <time>2020-06-20T15:28:33Z</time>
      </trkpt>
      <trkpt lat="43.78491" lon="5.93311">
        <ele>530.1</ele>
        <time>2020-06-20T15:28:34Z</time>
      </trkpt>
      <trkpt lat="43.78495" lon="5.93317">
        <ele>530.2</ele>
        <time>2020-06-20T15:28:35Z</time>
      </trkpt>
      <trkpt lat="43.785" lon="5.93322">
        <ele>530.2</ele>
        <time>2020-06-20T15:28:37Z</time>
      </trkpt>
      <trkpt lat="43.78504" lon="5.93326">
        <ele>530.3</ele>
        <time>2020-06-20T15:28:38Z</time>
      </trkpt>
      <trkpt lat="43.7851" lon="5.93333">
        <ele>530.4</ele>
        <time>2020-06-20T15:28:40Z</time>
      </trkpt>
      <trkpt lat="43.78513" lon="5.93337">
        <ele>530.4</ele>
        <time>2020-06-20T15:28:41Z</time>
      </trkpt>
      <trkpt lat="43.78518" lon="5.93342">
        <ele>530.5</ele>
        <time>2020-06-20T15:28:42Z</time>
      </trkpt>
      <trkpt lat="43.78525" lon="5.93351">
        <ele>530.7</ele>
        <time>2020-06-20T15:28:44Z</time>
      </trkpt>
      <trkpt lat="43.78528" lon="5.93354">
        <ele>530.7</ele>
        <time>2020-06-20T15:28:45Z</time>
      </trkpt>
      <trkpt lat="43.78536" lon="5.93363">
        <ele>530.9</ele>
        <time>2020-06-20T15:28:47Z</time>
      </trkpt>
      <trkpt lat="43.78538" lon="5.93368">
        <ele>531</ele>
        <time>2020-06-20T15:28:48Z</time>
      </trkpt>
      <trkpt lat="43.78542" lon="5.93374">
        <ele>531.1</ele>
        <time>2020-06-20T15:28:50Z</time>
      </trkpt>
      <trkpt lat="43.78546" lon="5.93377">
        <ele>531.1</ele>
        <time>2020-06-20T15:28:51Z</time>
      </trkpt>
      <trkpt lat="43.78549" lon="5.93381">
        <ele>531.2</ele>
        <time>2020-06-20T15:28:52Z</time>
      </trkpt>
      <trkpt lat="43.78555" lon="5.93387">
        <ele>531.2</ele>
        <time>2020-06-20T15:28:53Z</time>
      </trkpt>
      <trkpt lat="43.78563" lon="5.93397">
        <ele>531.4</ele>
        <time>2020-06-20T15:28:55Z</time>
      </trkpt>
      <trkpt lat="43.78566" lon="5.93401">
        <ele>531.4</ele>
        <time>2020-06-20T15:28:56Z</time>
      </trkpt>
      <trkpt lat="43.7857" lon="5.93405">
        <ele>531.5</ele>
        <time>2020-06-20T15:28:57Z</time>
      </trkpt>
      <trkpt lat="43.78577" lon="5.93414">
        <ele>531.7</ele>
        <time>2020-06-20T15:28:59Z</time>
      </trkpt>
      <trkpt lat="43.78584" lon="5.93423">
        <ele>531.8</ele>
        <time>2020-06-20T15:29:01Z</time>
      </trkpt>
      <trkpt lat="43.78591" lon="5.93431">
        <ele>532</ele>
        <time>2020-06-20T15:29:03Z</time>
      </trkpt>
      <trkpt lat="43.78595" lon="5.93436">
        <ele>532.1</ele>
        <time>2020-06-20T15:29:04Z</time>
      </trkpt>
      <trkpt lat="43.78602" lon="5.93444">
        <ele>532.2</ele>
        <time>2020-06-20T15:29:06Z</time>
      </trkpt>
      <trkpt lat="43.78609" lon="5.93452">
        <ele>532.2</ele>
        <time>2020-06-20T15:29:08Z</time>
      </trkpt>
      <trkpt lat="43.78616" lon="5.93459">
        <ele>532.3</ele>
        <time>2020-06-20T15:29:10Z</time>
      </trkpt>
      <trkpt lat="43.78622" lon="5.93466">
        <ele>532.4</ele>
        <time>2020-06-20T15:29:12Z</time>
      </trkpt>
      <trkpt lat="43.78626" lon="5.93471">
        <ele>532.4</ele>
        <time>2020-06-20T15:29:13Z</time>
      </trkpt>
      <trkpt lat="43.7863" lon="5.93475">
        <ele>532.5</ele>
        <time>2020-06-20T15:29:14Z</time>
      </trkpt>
      <trkpt lat="43.78635" lon="5.9348">
        <ele>532.5</ele>
        <time>2020-06-20T15:29:15Z</time>
      </trkpt>
      <trkpt lat="43.78638" lon="5.9348">
        <ele>532.6</ele>
        <time>2020-06-20T15:29:16Z</time>
      </trkpt>
      <trkpt lat="43.78642" lon="5.93486">
        <ele>532.6</ele>
        <time>2020-06-20T15:29:18Z</time>
      </trkpt>
      <trkpt lat="43.78645" lon="5.93493">
        <ele>532.7</ele>
        <time>2020-06-20T15:29:19Z</time>
      </trkpt>
      <trkpt lat="43.78653" lon="5.93503">
        <ele>532.8</ele>
        <time>2020-06-20T15:29:21Z</time>
      </trkpt>
      <trkpt lat="43.78657" lon="5.93507">
        <ele>532.8</ele>
        <time>2020-06-20T15:29:22Z</time>
      </trkpt>
      <trkpt lat="43.78661" lon="5.9351">
        <ele>532.9</ele>
        <time>2020-06-20T15:29:23Z</time>
      </trkpt>
      <trkpt lat="43.78667" lon="5.93517">
        <ele>532.9</ele>
        <time>2020-06-20T15:29:25Z</time>
      </trkpt>
      <trkpt lat="43.7867" lon="5.93523">
        <ele>532.9</ele>
        <time>2020-06-20T15:29:26Z</time>
      </trkpt>
      <trkpt lat="43.78676" lon="5.93531">
        <ele>532.9</ele>
        <time>2020-06-20T15:29:28Z</time>
      </trkpt>
      <trkpt lat="43.78683" lon="5.93535">
        <ele>533</ele>
        <time>2020-06-20T15:29:30Z</time>
      </trkpt>
      <trkpt lat="43.78687" lon="5.93542">
        <ele>533</ele>
        <time>2020-06-20T15:29:31Z</time>
      </trkpt>
      <trkpt lat="43.78692" lon="5.93548">
        <ele>533.1</ele>
        <time>2020-06-20T15:29:32Z</time>
      </trkpt>
      <trkpt lat="43.78695" lon="5.93553">
        <ele>533.1</ele>
        <time>2020-06-20T15:29:34Z</time>
      </trkpt>
      <trkpt lat="43.78699" lon="5.93557">
        <ele>533.2</ele>
        <time>2020-06-20T15:29:35Z</time>
      </trkpt>
      <trkpt lat="43.78703" lon="5.93562">
        <ele>533.2</ele>
        <time>2020-06-20T15:29:36Z</time>
      </trkpt>
      <trkpt lat="43.78712" lon="5.93572">
        <ele>533.3</ele>
        <time>2020-06-20T15:29:38Z</time>
      </trkpt>
      <trkpt lat="43.78719" lon="5.9358">
        <ele>533.5</ele>
        <time>2020-06-20T15:29:40Z</time>
      </trkpt>
      <trkpt lat="43.78723" lon="5.93585">
        <ele>533.5</ele>
        <time>2020-06-20T15:29:41Z</time>
      </trkpt>
      <trkpt lat="43.78726" lon="5.93588">
        <ele>533.6</ele>
        <time>2020-06-20T15:29:42Z</time>
      </trkpt>
      <trkpt lat="43.7873" lon="5.93593">
        <ele>533.7</ele>
        <time>2020-06-20T15:29:43Z</time>
      </trkpt>
      <trkpt lat="43.78735" lon="5.93599">
        <ele>533.8</ele>
        <time>2020-06-20T15:29:45Z</time>
      </trkpt>
      <trkpt lat="43.7874" lon="5.93604">
        <ele>533.9</ele>
        <time>2020-06-20T15:29:46Z</time>
      </trkpt>
      <trkpt lat="43.78743" lon="5.93609">
        <ele>534</ele>
        <time>2020-06-20T15:29:47Z</time>
      </trkpt>
      <trkpt lat="43.78746" lon="5.93613">
        <ele>534.1</ele>
        <time>2020-06-20T15:29:48Z</time>
      </trkpt>
      <trkpt lat="43.7875" lon="5.93617">
        <ele>534.2</ele>
        <time>2020-06-20T15:29:50Z</time>
      </trkpt>
      <trkpt lat="43.78755" lon="5.93622">
        <ele>534.3</ele>
        <time>2020-06-20T15:29:51Z</time>
      </trkpt>
      <trkpt lat="43.78759" lon="5.93628">
        <ele>534.4</ele>
        <time>2020-06-20T15:29:52Z</time>
      </trkpt>
      <trkpt lat="43.78763" lon="5.93633">
        <ele>534.5</ele>
        <time>2020-06-20T15:29:54Z</time>
      </trkpt>
      <trkpt lat="43.78767" lon="5.93637">
        <ele>534.5</ele>
        <time>2020-06-20T15:29:55Z</time>
      </trkpt>
      <trkpt lat="43.78771" lon="5.93642">
        <ele>534.6</ele>
        <time>2020-06-20T15:29:56Z</time>
      </trkpt>
      <trkpt lat="43.78774" lon="5.93645">
        <ele>534.7</ele>
        <time>2020-06-20T15:29:57Z</time>
      </trkpt>
      <trkpt lat="43.78779" lon="5.93651">
        <ele>534.7</ele>
        <time>2020-06-20T15:29:59Z</time>
      </trkpt>
      <trkpt lat="43.78783" lon="5.93656">
        <ele>534.8</ele>
        <time>2020-06-20T15:30:00Z</time>
      </trkpt>
      <trkpt lat="43.78787" lon="5.9366">
        <ele>534.8</ele>
        <time>2020-06-20T15:30:01Z</time>
      </trkpt>
      <trkpt lat="43.78792" lon="5.93666">
        <ele>534.8</ele>
        <time>2020-06-20T15:30:02Z</time>
      </trkpt>
      <trkpt lat="43.78796" lon="5.93671">
        <ele>534.8</ele>
        <time>2020-06-20T15:30:04Z</time>
      </trkpt>
      <trkpt lat="43.788" lon="5.93675">
        <ele>534.8</ele>
        <time>2020-06-20T15:30:05Z</time>
      </trkpt>
      <trkpt lat="43.78806" lon="5.93682">
        <ele>534.8</ele>
        <time>2020-06-20T15:30:07Z</time>
      </trkpt>
      <trkpt lat="43.7881" lon="5.93686">
        <ele>534.8</ele>
        <time>2020-06-20T15:30:08Z</time>
      </trkpt>
      <trkpt lat="43.78815" lon="5.93692">
        <ele>534.8</ele>
        <time>2020-06-20T15:30:09Z</time>
      </trkpt>
      <trkpt lat="43.78819" lon="5.93697">
        <ele>534.7</ele>
        <time>2020-06-20T15:30:11Z</time>
      </trkpt>
      <trkpt lat="43.78823" lon="5.93703">
        <ele>534.7</ele>
        <time>2020-06-20T15:30:12Z</time>
      </trkpt>
      <trkpt lat="43.78831" lon="5.93713">
        <ele>534.7</ele>
        <time>2020-06-20T15:30:14Z</time>
      </trkpt>
      <trkpt lat="43.78837" lon="5.93723">
        <ele>534.6</ele>
        <time>2020-06-20T15:30:16Z</time>
      </trkpt>
      <trkpt lat="43.78838" lon="5.93729">
        <ele>534.6</ele>
        <time>2020-06-20T15:30:17Z</time>
      </trkpt>
      <trkpt lat="43.78845" lon="5.93737">
        <ele>534.6</ele>
        <time>2020-06-20T15:30:19Z</time>
      </trkpt>
      <trkpt lat="43.78847" lon="5.93746">
        <ele>534.6</ele>
        <time>2020-06-20T15:30:21Z</time>
      </trkpt>
      <trkpt lat="43.7885" lon="5.93754">
        <ele>534.6</ele>
        <time>2020-06-20T15:30:23Z</time>
      </trkpt>
      <trkpt lat="43.78854" lon="5.93759">
        <ele>534.7</ele>
        <time>2020-06-20T15:30:24Z</time>
      </trkpt>
      <trkpt lat="43.78857" lon="5.93763">
        <ele>534.7</ele>
        <time>2020-06-20T15:30:25Z</time>
      </trkpt>
      <trkpt lat="43.78861" lon="5.93769">
        <ele>534.7</ele>
        <time>2020-06-20T15:30:26Z</time>
      </trkpt>
      <trkpt lat="43.78867" lon="5.93776">
        <ele>534.7</ele>
        <time>2020-06-20T15:30:28Z</time>
      </trkpt>
      <trkpt lat="43.78876" lon="5.93788">
        <ele>534.8</ele>
        <time>2020-06-20T15:30:30Z</time>
      </trkpt>
      <trkpt lat="43.7888" lon="5.93793">
        <ele>534.8</ele>
        <time>2020-06-20T15:30:31Z</time>
      </trkpt>
      <trkpt lat="43.78888" lon="5.93802">
        <ele>534.8</ele>
        <time>2020-06-20T15:30:33Z</time>
      </trkpt>
      <trkpt lat="43.78895" lon="5.93811">
        <ele>534.8</ele>
        <time>2020-06-20T15:30:35Z</time>
      </trkpt>
      <trkpt lat="43.78898" lon="5.93815">
        <ele>534.7</ele>
        <time>2020-06-20T15:30:36Z</time>
      </trkpt>
      <trkpt lat="43.78904" lon="5.93825">
        <ele>534.7</ele>
        <time>2020-06-20T15:30:38Z</time>
      </trkpt>
      <trkpt lat="43.78907" lon="5.9383">
        <ele>534.7</ele>
        <time>2020-06-20T15:30:39Z</time>
      </trkpt>
      <trkpt lat="43.78912" lon="5.93841">
        <ele>534.6</ele>
        <time>2020-06-20T15:30:41Z</time>
      </trkpt>
      <trkpt lat="43.78913" lon="5.93847">
        <ele>534.6</ele>
        <time>2020-06-20T15:30:42Z</time>
      </trkpt>
      <trkpt lat="43.78916" lon="5.93862">
        <ele>534.4</ele>
        <time>2020-06-20T15:30:44Z</time>
      </trkpt>
      <trkpt lat="43.78918" lon="5.93876">
        <ele>534.3</ele>
        <time>2020-06-20T15:30:46Z</time>
      </trkpt>
      <trkpt lat="43.78919" lon="5.93891">
        <ele>534.2</ele>
        <time>2020-06-20T15:30:48Z</time>
      </trkpt>
      <trkpt lat="43.7892" lon="5.93899">
        <ele>534.1</ele>
        <time>2020-06-20T15:30:49Z</time>
      </trkpt>
      <trkpt lat="43.78921" lon="5.93914">
        <ele>534</ele>
        <time>2020-06-20T15:30:51Z</time>
      </trkpt>
      <trkpt lat="43.78922" lon="5.93922">
        <ele>533.9</ele>
        <time>2020-06-20T15:30:52Z</time>
      </trkpt>
      <trkpt lat="43.78923" lon="5.93939">
        <ele>533.7</ele>
        <time>2020-06-20T15:30:54Z</time>
      </trkpt>
      <trkpt lat="43.78924" lon="5.93955">
        <ele>533.7</ele>
        <time>2020-06-20T15:30:56Z</time>
      </trkpt>
      <trkpt lat="43.78924" lon="5.93963">
        <ele>533.6</ele>
        <time>2020-06-20T15:30:57Z</time>
      </trkpt>
      <trkpt lat="43.78926" lon="5.93979">
        <ele>533.7</ele>
        <time>2020-06-20T15:30:59Z</time>
      </trkpt>
      <trkpt lat="43.78926" lon="5.93987">
        <ele>533.7</ele>
        <time>2020-06-20T15:31:00Z</time>
      </trkpt>
      <trkpt lat="43.78928" lon="5.94003">
        <ele>533.6</ele>
        <time>2020-06-20T15:31:02Z</time>
      </trkpt>
      <trkpt lat="43.78928" lon="5.94019">
        <ele>533.6</ele>
        <time>2020-06-20T15:31:04Z</time>
      </trkpt>
      <trkpt lat="43.78928" lon="5.94034">
        <ele>533.6</ele>
        <time>2020-06-20T15:31:06Z</time>
      </trkpt>
      <trkpt lat="43.78929" lon="5.94041">
        <ele>533.6</ele>
        <time>2020-06-20T15:31:07Z</time>
      </trkpt>
      <trkpt lat="43.78929" lon="5.94056">
        <ele>533.6</ele>
        <time>2020-06-20T15:31:09Z</time>
      </trkpt>
      <trkpt lat="43.78929" lon="5.94063">
        <ele>533.6</ele>
        <time>2020-06-20T15:31:10Z</time>
      </trkpt>
      <trkpt lat="43.78929" lon="5.94069">
        <ele>533.5</ele>
        <time>2020-06-20T15:31:11Z</time>
      </trkpt>
      <trkpt lat="43.78931" lon="5.94083">
        <ele>533.4</ele>
        <time>2020-06-20T15:31:13Z</time>
      </trkpt>
      <trkpt lat="43.78932" lon="5.9409">
        <ele>533.3</ele>
        <time>2020-06-20T15:31:14Z</time>
      </trkpt>
      <trkpt lat="43.78932" lon="5.94097">
        <ele>533.2</ele>
        <time>2020-06-20T15:31:15Z</time>
      </trkpt>
      <trkpt lat="43.78934" lon="5.94113">
        <ele>532.9</ele>
        <time>2020-06-20T15:31:17Z</time>
      </trkpt>
      <trkpt lat="43.78934" lon="5.94121">
        <ele>532.8</ele>
        <time>2020-06-20T15:31:18Z</time>
      </trkpt>
      <trkpt lat="43.78934" lon="5.94138">
        <ele>532.6</ele>
        <time>2020-06-20T15:31:20Z</time>
      </trkpt>
      <trkpt lat="43.78934" lon="5.94146">
        <ele>532.5</ele>
        <time>2020-06-20T15:31:21Z</time>
      </trkpt>
      <trkpt lat="43.78933" lon="5.94154">
        <ele>532.4</ele>
        <time>2020-06-20T15:31:22Z</time>
      </trkpt>
      <trkpt lat="43.78932" lon="5.94169">
        <ele>532.1</ele>
        <time>2020-06-20T15:31:24Z</time>
      </trkpt>
      <trkpt lat="43.78932" lon="5.94176">
        <ele>531.9</ele>
        <time>2020-06-20T15:31:25Z</time>
      </trkpt>
      <trkpt lat="43.78931" lon="5.9419">
        <ele>531.6</ele>
        <time>2020-06-20T15:31:27Z</time>
      </trkpt>
      <trkpt lat="43.7893" lon="5.94198">
        <ele>531.5</ele>
        <time>2020-06-20T15:31:28Z</time>
      </trkpt>
      <trkpt lat="43.78928" lon="5.94213">
        <ele>531</ele>
        <time>2020-06-20T15:31:30Z</time>
      </trkpt>
      <trkpt lat="43.78925" lon="5.94231">
        <ele>530.4</ele>
        <time>2020-06-20T15:31:32Z</time>
      </trkpt>
      <trkpt lat="43.78924" lon="5.9424">
        <ele>530.1</ele>
        <time>2020-06-20T15:31:33Z</time>
      </trkpt>
      <trkpt lat="43.78924" lon="5.9425">
        <ele>529.8</ele>
        <time>2020-06-20T15:31:34Z</time>
      </trkpt>
      <trkpt lat="43.78923" lon="5.94268">
        <ele>529.4</ele>
        <time>2020-06-20T15:31:36Z</time>
      </trkpt>
      <trkpt lat="43.78925" lon="5.94286">
        <ele>529.2</ele>
        <time>2020-06-20T15:31:38Z</time>
      </trkpt>
      <trkpt lat="43.78927" lon="5.94294">
        <ele>529.1</ele>
        <time>2020-06-20T15:31:39Z</time>
      </trkpt>
      <trkpt lat="43.78934" lon="5.94308">
        <ele>529</ele>
        <time>2020-06-20T15:31:41Z</time>
      </trkpt>
      <trkpt lat="43.78937" lon="5.94314">
        <ele>528.9</ele>
        <time>2020-06-20T15:31:42Z</time>
      </trkpt>
      <trkpt lat="43.78946" lon="5.94324">
        <ele>528.8</ele>
        <time>2020-06-20T15:31:44Z</time>
      </trkpt>
      <trkpt lat="43.7895" lon="5.94329">
        <ele>528.7</ele>
        <time>2020-06-20T15:31:45Z</time>
      </trkpt>
      <trkpt lat="43.78954" lon="5.94334">
        <ele>528.6</ele>
        <time>2020-06-20T15:31:46Z</time>
      </trkpt>
      <trkpt lat="43.78962" lon="5.94344">
        <ele>528.5</ele>
        <time>2020-06-20T15:31:48Z</time>
      </trkpt>
      <trkpt lat="43.78965" lon="5.94349">
        <ele>528.4</ele>
        <time>2020-06-20T15:31:49Z</time>
      </trkpt>
      <trkpt lat="43.78972" lon="5.94361">
        <ele>528.1</ele>
        <time>2020-06-20T15:31:51Z</time>
      </trkpt>
      <trkpt lat="43.78976" lon="5.94367">
        <ele>527.9</ele>
        <time>2020-06-20T15:31:52Z</time>
      </trkpt>
      <trkpt lat="43.7898" lon="5.94374">
        <ele>527.7</ele>
        <time>2020-06-20T15:31:53Z</time>
      </trkpt>
      <trkpt lat="43.78988" lon="5.94387">
        <ele>527.1</ele>
        <time>2020-06-20T15:31:55Z</time>
      </trkpt>
      <trkpt lat="43.78992" lon="5.94393">
        <ele>526.7</ele>
        <time>2020-06-20T15:31:56Z</time>
      </trkpt>
      <trkpt lat="43.79001" lon="5.94406">
        <ele>526</ele>
        <time>2020-06-20T15:31:58Z</time>
      </trkpt>
      <trkpt lat="43.7901" lon="5.94421">
        <ele>525.4</ele>
        <time>2020-06-20T15:32:00Z</time>
      </trkpt>
      <trkpt lat="43.79018" lon="5.94436">
        <ele>525</ele>
        <time>2020-06-20T15:32:02Z</time>
      </trkpt>
      <trkpt lat="43.79022" lon="5.94443">
        <ele>524.9</ele>
        <time>2020-06-20T15:32:03Z</time>
      </trkpt>
      <trkpt lat="43.79026" lon="5.94449">
        <ele>524.9</ele>
        <time>2020-06-20T15:32:04Z</time>
      </trkpt>
      <trkpt lat="43.79037" lon="5.94461">
        <ele>524.8</ele>
        <time>2020-06-20T15:32:06Z</time>
      </trkpt>
      <trkpt lat="43.79042" lon="5.94466">
        <ele>524.8</ele>
        <time>2020-06-20T15:32:07Z</time>
      </trkpt>
      <trkpt lat="43.7905" lon="5.94479">
        <ele>525</ele>
        <time>2020-06-20T15:32:09Z</time>
      </trkpt>
      <trkpt lat="43.79053" lon="5.94486">
        <ele>525.1</ele>
        <time>2020-06-20T15:32:10Z</time>
      </trkpt>
      <trkpt lat="43.79058" lon="5.945">
        <ele>525.4</ele>
        <time>2020-06-20T15:32:12Z</time>
      </trkpt>
      <trkpt lat="43.79064" lon="5.94511">
        <ele>525.7</ele>
        <time>2020-06-20T15:32:14Z</time>
      </trkpt>
      <trkpt lat="43.79068" lon="5.9452">
        <ele>526</ele>
        <time>2020-06-20T15:32:16Z</time>
      </trkpt>
      <trkpt lat="43.79071" lon="5.94525">
        <ele>526.1</ele>
        <time>2020-06-20T15:32:17Z</time>
      </trkpt>
      <trkpt lat="43.79073" lon="5.94529">
        <ele>526.3</ele>
        <time>2020-06-20T15:32:18Z</time>
      </trkpt>
      <trkpt lat="43.79076" lon="5.94534">
        <ele>526.5</ele>
        <time>2020-06-20T15:32:19Z</time>
      </trkpt>
      <trkpt lat="43.79081" lon="5.94542">
        <ele>526.8</ele>
        <time>2020-06-20T15:32:21Z</time>
      </trkpt>
      <trkpt lat="43.79082" lon="5.94549">
        <ele>527.1</ele>
        <time>2020-06-20T15:32:23Z</time>
      </trkpt>
      <trkpt lat="43.79084" lon="5.94554">
        <ele>527.3</ele>
        <time>2020-06-20T15:32:24Z</time>
      </trkpt>
      <trkpt lat="43.79088" lon="5.94559">
        <ele>527.6</ele>
        <time>2020-06-20T15:32:26Z</time>
      </trkpt>
      <trkpt lat="43.7909" lon="5.94562">
        <ele>527.8</ele>
        <time>2020-06-20T15:32:27Z</time>
      </trkpt>
      <trkpt lat="43.79093" lon="5.94566">
        <ele>528</ele>
        <time>2020-06-20T15:32:28Z</time>
      </trkpt>
      <trkpt lat="43.79096" lon="5.94571">
        <ele>528.2</ele>
        <time>2020-06-20T15:32:30Z</time>
      </trkpt>
      <trkpt lat="43.79098" lon="5.94574">
        <ele>528.4</ele>
        <time>2020-06-20T15:32:31Z</time>
      </trkpt>
      <trkpt lat="43.791" lon="5.94578">
        <ele>528.5</ele>
        <time>2020-06-20T15:32:32Z</time>
      </trkpt>
      <trkpt lat="43.79102" lon="5.94583">
        <ele>528.6</ele>
        <time>2020-06-20T15:32:33Z</time>
      </trkpt>
      <trkpt lat="43.79104" lon="5.94588">
        <ele>528.8</ele>
        <time>2020-06-20T15:32:35Z</time>
      </trkpt>
      <trkpt lat="43.79106" lon="5.94591">
        <ele>528.9</ele>
        <time>2020-06-20T15:32:36Z</time>
      </trkpt>
      <trkpt lat="43.79108" lon="5.94595">
        <ele>529</ele>
        <time>2020-06-20T15:32:37Z</time>
      </trkpt>
      <trkpt lat="43.79111" lon="5.94599">
        <ele>529.1</ele>
        <time>2020-06-20T15:32:38Z</time>
      </trkpt>
      <trkpt lat="43.79114" lon="5.94604">
        <ele>529.3</ele>
        <time>2020-06-20T15:32:40Z</time>
      </trkpt>
      <trkpt lat="43.79117" lon="5.94609">
        <ele>529.4</ele>
        <time>2020-06-20T15:32:41Z</time>
      </trkpt>
      <trkpt lat="43.79119" lon="5.94613">
        <ele>529.5</ele>
        <time>2020-06-20T15:32:42Z</time>
      </trkpt>
      <trkpt lat="43.79123" lon="5.94618">
        <ele>529.6</ele>
        <time>2020-06-20T15:32:44Z</time>
      </trkpt>
      <trkpt lat="43.79126" lon="5.94622">
        <ele>529.7</ele>
        <time>2020-06-20T15:32:45Z</time>
      </trkpt>
      <trkpt lat="43.79129" lon="5.94625">
        <ele>529.8</ele>
        <time>2020-06-20T15:32:46Z</time>
      </trkpt>
      <trkpt lat="43.79133" lon="5.9463">
        <ele>529.9</ele>
        <time>2020-06-20T15:32:48Z</time>
      </trkpt>
      <trkpt lat="43.79136" lon="5.94634">
        <ele>530</ele>
        <time>2020-06-20T15:32:49Z</time>
      </trkpt>
      <trkpt lat="43.79142" lon="5.9464">
        <ele>530.1</ele>
        <time>2020-06-20T15:32:51Z</time>
      </trkpt>
      <trkpt lat="43.79145" lon="5.94643">
        <ele>530.2</ele>
        <time>2020-06-20T15:32:52Z</time>
      </trkpt>
      <trkpt lat="43.79151" lon="5.94649">
        <ele>530.4</ele>
        <time>2020-06-20T15:32:54Z</time>
      </trkpt>
      <trkpt lat="43.79153" lon="5.94653">
        <ele>530.4</ele>
        <time>2020-06-20T15:32:55Z</time>
      </trkpt>
      <trkpt lat="43.79156" lon="5.94655">
        <ele>530.4</ele>
        <time>2020-06-20T15:32:56Z</time>
      </trkpt>
      <trkpt lat="43.7916" lon="5.9466">
        <ele>530.5</ele>
        <time>2020-06-20T15:32:57Z</time>
      </trkpt>
      <trkpt lat="43.79164" lon="5.94663">
        <ele>530.5</ele>
        <time>2020-06-20T15:32:59Z</time>
      </trkpt>
      <trkpt lat="43.79169" lon="5.94665">
        <ele>530.6</ele>
        <time>2020-06-20T15:33:00Z</time>
      </trkpt>
      <trkpt lat="43.79174" lon="5.94667">
        <ele>530.7</ele>
        <time>2020-06-20T15:33:02Z</time>
      </trkpt>
      <trkpt lat="43.79178" lon="5.94667">
        <ele>530.7</ele>
        <time>2020-06-20T15:33:03Z</time>
      </trkpt>
      <trkpt lat="43.79183" lon="5.94669">
        <ele>530.9</ele>
        <time>2020-06-20T15:33:04Z</time>
      </trkpt>
      <trkpt lat="43.79188" lon="5.94669">
        <ele>530.9</ele>
        <time>2020-06-20T15:33:06Z</time>
      </trkpt>
      <trkpt lat="43.79191" lon="5.94669">
        <ele>531</ele>
        <time>2020-06-20T15:33:07Z</time>
      </trkpt>
      <trkpt lat="43.79195" lon="5.9467">
        <ele>531</ele>
        <time>2020-06-20T15:33:09Z</time>
      </trkpt>
      <trkpt lat="43.79198" lon="5.9467">
        <ele>531</ele>
        <time>2020-06-20T15:33:10Z</time>
      </trkpt>
      <trkpt lat="43.79203" lon="5.94671">
        <ele>531</ele>
        <time>2020-06-20T15:33:11Z</time>
      </trkpt>
      <trkpt lat="43.79208" lon="5.94671">
        <ele>531</ele>
        <time>2020-06-20T15:33:13Z</time>
      </trkpt>
      <trkpt lat="43.79212" lon="5.94673">
        <ele>530.9</ele>
        <time>2020-06-20T15:33:14Z</time>
      </trkpt>
      <trkpt lat="43.79216" lon="5.94674">
        <ele>530.8</ele>
        <time>2020-06-20T15:33:15Z</time>
      </trkpt>
      <trkpt lat="43.79219" lon="5.94675">
        <ele>530.7</ele>
        <time>2020-06-20T15:33:16Z</time>
      </trkpt>
      <trkpt lat="43.79226" lon="5.94678">
        <ele>530.6</ele>
        <time>2020-06-20T15:33:17Z</time>
      </trkpt>
      <trkpt lat="43.79234" lon="5.94683">
        <ele>530.4</ele>
        <time>2020-06-20T15:33:19Z</time>
      </trkpt>
      <trkpt lat="43.7924" lon="5.94687">
        <ele>530.4</ele>
        <time>2020-06-20T15:33:20Z</time>
      </trkpt>
      <trkpt lat="43.79246" lon="5.94689">
        <ele>530.4</ele>
        <time>2020-06-20T15:33:21Z</time>
      </trkpt>
      <trkpt lat="43.79252" lon="5.94695">
        <ele>530.5</ele>
        <time>2020-06-20T15:33:23Z</time>
      </trkpt>
      <trkpt lat="43.79256" lon="5.94696">
        <ele>530.6</ele>
        <time>2020-06-20T15:33:24Z</time>
      </trkpt>
      <trkpt lat="43.79259" lon="5.947">
        <ele>530.7</ele>
        <time>2020-06-20T15:33:25Z</time>
      </trkpt>
      <trkpt lat="43.79265" lon="5.94704">
        <ele>531</ele>
        <time>2020-06-20T15:33:27Z</time>
      </trkpt>
      <trkpt lat="43.79268" lon="5.94706">
        <ele>531.2</ele>
        <time>2020-06-20T15:33:28Z</time>
      </trkpt>
      <trkpt lat="43.7927" lon="5.94708">
        <ele>531.3</ele>
        <time>2020-06-20T15:33:29Z</time>
      </trkpt>
      <trkpt lat="43.79273" lon="5.9471">
        <ele>531.5</ele>
        <time>2020-06-20T15:33:30Z</time>
      </trkpt>
      <trkpt lat="43.79276" lon="5.94712">
        <ele>531.7</ele>
        <time>2020-06-20T15:33:32Z</time>
      </trkpt>
      <trkpt lat="43.79278" lon="5.94714">
        <ele>531.9</ele>
        <time>2020-06-20T15:33:33Z</time>
      </trkpt>
      <trkpt lat="43.79279" lon="5.94716">
        <ele>532.1</ele>
        <time>2020-06-20T15:33:35Z</time>
      </trkpt>
      <trkpt lat="43.79282" lon="5.94719">
        <ele>532.3</ele>
        <time>2020-06-20T15:33:36Z</time>
      </trkpt>
      <trkpt lat="43.79283" lon="5.94721">
        <ele>532.4</ele>
        <time>2020-06-20T15:33:37Z</time>
      </trkpt>
      <trkpt lat="43.79285" lon="5.94724">
        <ele>532.6</ele>
        <time>2020-06-20T15:33:38Z</time>
      </trkpt>
      <trkpt lat="43.79288" lon="5.94728">
        <ele>532.9</ele>
        <time>2020-06-20T15:33:39Z</time>
      </trkpt>
      <trkpt lat="43.7929" lon="5.94731">
        <ele>533.1</ele>
        <time>2020-06-20T15:33:41Z</time>
      </trkpt>
      <trkpt lat="43.79292" lon="5.94734">
        <ele>533.2</ele>
        <time>2020-06-20T15:33:42Z</time>
      </trkpt>
      <trkpt lat="43.79297" lon="5.94738">
        <ele>533.5</ele>
        <time>2020-06-20T15:33:44Z</time>
      </trkpt>
      <trkpt lat="43.79301" lon="5.9474">
        <ele>533.7</ele>
        <time>2020-06-20T15:33:45Z</time>
      </trkpt>
      <trkpt lat="43.79305" lon="5.94743">
        <ele>533.9</ele>
        <time>2020-06-20T15:33:46Z</time>
      </trkpt>
      <trkpt lat="43.79311" lon="5.94746">
        <ele>534</ele>
        <time>2020-06-20T15:33:48Z</time>
      </trkpt>
      <trkpt lat="43.79314" lon="5.94748">
        <ele>534.2</ele>
        <time>2020-06-20T15:33:49Z</time>
      </trkpt>
      <trkpt lat="43.79317" lon="5.9475">
        <ele>534.3</ele>
        <time>2020-06-20T15:33:50Z</time>
      </trkpt>
      <trkpt lat="43.79323" lon="5.94753">
        <ele>534.4</ele>
        <time>2020-06-20T15:33:51Z</time>
      </trkpt>
      <trkpt lat="43.79328" lon="5.94756">
        <ele>534.5</ele>
        <time>2020-06-20T15:33:53Z</time>
      </trkpt>
      <trkpt lat="43.79334" lon="5.9476">
        <ele>534.6</ele>
        <time>2020-06-20T15:33:54Z</time>
      </trkpt>
      <trkpt lat="43.79339" lon="5.94763">
        <ele>534.7</ele>
        <time>2020-06-20T15:33:56Z</time>
      </trkpt>
      <trkpt lat="43.79343" lon="5.94767">
        <ele>534.9</ele>
        <time>2020-06-20T15:33:57Z</time>
      </trkpt>
      <trkpt lat="43.79347" lon="5.94769">
        <ele>535</ele>
        <time>2020-06-20T15:33:58Z</time>
      </trkpt>
      <trkpt lat="43.79351" lon="5.94772">
        <ele>535.1</ele>
        <time>2020-06-20T15:34:00Z</time>
      </trkpt>
      <trkpt lat="43.79355" lon="5.94775">
        <ele>535.2</ele>
        <time>2020-06-20T15:34:01Z</time>
      </trkpt>
      <trkpt lat="43.79358" lon="5.94777">
        <ele>535.2</ele>
        <time>2020-06-20T15:34:02Z</time>
      </trkpt>
      <trkpt lat="43.79364" lon="5.9478">
        <ele>535.3</ele>
        <time>2020-06-20T15:34:04Z</time>
      </trkpt>
      <trkpt lat="43.79368" lon="5.94782">
        <ele>535.3</ele>
        <time>2020-06-20T15:34:05Z</time>
      </trkpt>
      <trkpt lat="43.79372" lon="5.94784">
        <ele>535.3</ele>
        <time>2020-06-20T15:34:07Z</time>
      </trkpt>
      <trkpt lat="43.79378" lon="5.94787">
        <ele>535.2</ele>
        <time>2020-06-20T15:34:08Z</time>
      </trkpt>
      <trkpt lat="43.79383" lon="5.9479">
        <ele>535.1</ele>
        <time>2020-06-20T15:34:09Z</time>
      </trkpt>
      <trkpt lat="43.79392" lon="5.94796">
        <ele>534.8</ele>
        <time>2020-06-20T15:34:11Z</time>
      </trkpt>
      <trkpt lat="43.79404" lon="5.94801">
        <ele>534.4</ele>
        <time>2020-06-20T15:34:13Z</time>
      </trkpt>
      <trkpt lat="43.79414" lon="5.94807">
        <ele>534.3</ele>
        <time>2020-06-20T15:34:15Z</time>
      </trkpt>
      <trkpt lat="43.79419" lon="5.94811">
        <ele>534.3</ele>
        <time>2020-06-20T15:34:16Z</time>
      </trkpt>
      <trkpt lat="43.79424" lon="5.94814">
        <ele>534.3</ele>
        <time>2020-06-20T15:34:17Z</time>
      </trkpt>
      <trkpt lat="43.79431" lon="5.94817">
        <ele>534.3</ele>
        <time>2020-06-20T15:34:19Z</time>
      </trkpt>
      <trkpt lat="43.79433" lon="5.94819">
        <ele>534.3</ele>
        <time>2020-06-20T15:34:20Z</time>
      </trkpt>
      <trkpt lat="43.7944" lon="5.94824">
        <ele>534.3</ele>
        <time>2020-06-20T15:34:22Z</time>
      </trkpt>
      <trkpt lat="43.79446" lon="5.9483">
        <ele>534.4</ele>
        <time>2020-06-20T15:34:23Z</time>
      </trkpt>
      <trkpt lat="43.79452" lon="5.94836">
        <ele>534.5</ele>
        <time>2020-06-20T15:34:24Z</time>
      </trkpt>
      <trkpt lat="43.79458" lon="5.9484">
        <ele>534.6</ele>
        <time>2020-06-20T15:34:26Z</time>
      </trkpt>
      <trkpt lat="43.79462" lon="5.94843">
        <ele>534.7</ele>
        <time>2020-06-20T15:34:27Z</time>
      </trkpt>
      <trkpt lat="43.79468" lon="5.94849">
        <ele>534.8</ele>
        <time>2020-06-20T15:34:29Z</time>
      </trkpt>
      <trkpt lat="43.79471" lon="5.94854">
        <ele>534.9</ele>
        <time>2020-06-20T15:34:30Z</time>
      </trkpt>
      <trkpt lat="43.79477" lon="5.94861">
        <ele>534.9</ele>
        <time>2020-06-20T15:34:31Z</time>
      </trkpt>
      <trkpt lat="43.7948" lon="5.94866">
        <ele>534.9</ele>
        <time>2020-06-20T15:34:32Z</time>
      </trkpt>
      <trkpt lat="43.79483" lon="5.94871">
        <ele>534.9</ele>
        <time>2020-06-20T15:34:33Z</time>
      </trkpt>
      <trkpt lat="43.79486" lon="5.94877">
        <ele>534.8</ele>
        <time>2020-06-20T15:34:35Z</time>
      </trkpt>
      <trkpt lat="43.7949" lon="5.94883">
        <ele>534.8</ele>
        <time>2020-06-20T15:34:36Z</time>
      </trkpt>
      <trkpt lat="43.79496" lon="5.94892">
        <ele>534.7</ele>
        <time>2020-06-20T15:34:38Z</time>
      </trkpt>
      <trkpt lat="43.79499" lon="5.94898">
        <ele>534.6</ele>
        <time>2020-06-20T15:34:39Z</time>
      </trkpt>
      <trkpt lat="43.79502" lon="5.94906">
        <ele>534.5</ele>
        <time>2020-06-20T15:34:40Z</time>
      </trkpt>
      <trkpt lat="43.79505" lon="5.94913">
        <ele>534.5</ele>
        <time>2020-06-20T15:34:41Z</time>
      </trkpt>
      <trkpt lat="43.79508" lon="5.94921">
        <ele>534.8</ele>
        <time>2020-06-20T15:34:43Z</time>
      </trkpt>
      <trkpt lat="43.79509" lon="5.94925">
        <ele>534.9</ele>
        <time>2020-06-20T15:34:44Z</time>
      </trkpt>
      <trkpt lat="43.7951" lon="5.94929">
        <ele>535.1</ele>
        <time>2020-06-20T15:34:45Z</time>
      </trkpt>
      <trkpt lat="43.79512" lon="5.94935">
        <ele>535.3</ele>
        <time>2020-06-20T15:34:46Z</time>
      </trkpt>
      <trkpt lat="43.79513" lon="5.94939">
        <ele>535.5</ele>
        <time>2020-06-20T15:34:48Z</time>
      </trkpt>
      <trkpt lat="43.79515" lon="5.94942">
        <ele>535.7</ele>
        <time>2020-06-20T15:34:49Z</time>
      </trkpt>
      <trkpt lat="43.79516" lon="5.94947">
        <ele>536.1</ele>
        <time>2020-06-20T15:34:51Z</time>
      </trkpt>
      <trkpt lat="43.79517" lon="5.94952">
        <ele>536.4</ele>
        <time>2020-06-20T15:34:52Z</time>
      </trkpt>
      <trkpt lat="43.79517" lon="5.94956">
        <ele>536.6</ele>
        <time>2020-06-20T15:34:54Z</time>
      </trkpt>
      <trkpt lat="43.79517" lon="5.9496">
        <ele>536.8</ele>
        <time>2020-06-20T15:34:55Z</time>
      </trkpt>
      <trkpt lat="43.79517" lon="5.94965">
        <ele>537.1</ele>
        <time>2020-06-20T15:34:56Z</time>
      </trkpt>
      <trkpt lat="43.79517" lon="5.94966">
        <ele>537.1</ele>
        <time>2020-06-20T15:34:57Z</time>
      </trkpt>
      <trkpt lat="43.79517" lon="5.9497">
        <ele>537.3</ele>
        <time>2020-06-20T15:34:58Z</time>
      </trkpt>
      <trkpt lat="43.79517" lon="5.94974">
        <ele>537.5</ele>
        <time>2020-06-20T15:35:00Z</time>
      </trkpt>
      <trkpt lat="43.79516" lon="5.94977">
        <ele>537.6</ele>
        <time>2020-06-20T15:35:01Z</time>
      </trkpt>
      <trkpt lat="43.79515" lon="5.94982">
        <ele>537.8</ele>
        <time>2020-06-20T15:35:03Z</time>
      </trkpt>
      <trkpt lat="43.79514" lon="5.94987">
        <ele>538.1</ele>
        <time>2020-06-20T15:35:04Z</time>
      </trkpt>
      <trkpt lat="43.79514" lon="5.94988">
        <ele>538.1</ele>
        <time>2020-06-20T15:35:05Z</time>
      </trkpt>
      <trkpt lat="43.79512" lon="5.94993">
        <ele>538.3</ele>
        <time>2020-06-20T15:35:07Z</time>
      </trkpt>
      <trkpt lat="43.79511" lon="5.94997">
        <ele>538.5</ele>
        <time>2020-06-20T15:35:08Z</time>
      </trkpt>
      <trkpt lat="43.79509" lon="5.95002">
        <ele>538.7</ele>
        <time>2020-06-20T15:35:09Z</time>
      </trkpt>
      <trkpt lat="43.79508" lon="5.95006">
        <ele>538.8</ele>
        <time>2020-06-20T15:35:11Z</time>
      </trkpt>
      <trkpt lat="43.79506" lon="5.95012">
        <ele>539</ele>
        <time>2020-06-20T15:35:13Z</time>
      </trkpt>
      <trkpt lat="43.79505" lon="5.95016">
        <ele>539.1</ele>
        <time>2020-06-20T15:35:14Z</time>
      </trkpt>
      <trkpt lat="43.79504" lon="5.95022">
        <ele>539.2</ele>
        <time>2020-06-20T15:35:16Z</time>
      </trkpt>
      <trkpt lat="43.79504" lon="5.95028">
        <ele>539.3</ele>
        <time>2020-06-20T15:35:17Z</time>
      </trkpt>
      <trkpt lat="43.79504" lon="5.95036">
        <ele>539.4</ele>
        <time>2020-06-20T15:35:19Z</time>
      </trkpt>
      <trkpt lat="43.79506" lon="5.95043">
        <ele>539.5</ele>
        <time>2020-06-20T15:35:20Z</time>
      </trkpt>
      <trkpt lat="43.79509" lon="5.95047">
        <ele>539.5</ele>
        <time>2020-06-20T15:35:22Z</time>
      </trkpt>
      <trkpt lat="43.79513" lon="5.95052">
        <ele>539.6</ele>
        <time>2020-06-20T15:35:23Z</time>
      </trkpt>
      <trkpt lat="43.79517" lon="5.95055">
        <ele>539.6</ele>
        <time>2020-06-20T15:35:24Z</time>
      </trkpt>
      <trkpt lat="43.7952" lon="5.95058">
        <ele>539.7</ele>
        <time>2020-06-20T15:35:26Z</time>
      </trkpt>
      <trkpt lat="43.79524" lon="5.95061">
        <ele>539.7</ele>
        <time>2020-06-20T15:35:27Z</time>
      </trkpt>
      <trkpt lat="43.79529" lon="5.95063">
        <ele>539.6</ele>
        <time>2020-06-20T15:35:28Z</time>
      </trkpt>
      <trkpt lat="43.79534" lon="5.95065">
        <ele>539.6</ele>
        <time>2020-06-20T15:35:30Z</time>
      </trkpt>
      <trkpt lat="43.79537" lon="5.95067">
        <ele>539.5</ele>
        <time>2020-06-20T15:35:31Z</time>
      </trkpt>
      <trkpt lat="43.79542" lon="5.95068">
        <ele>539.5</ele>
        <time>2020-06-20T15:35:32Z</time>
      </trkpt>
      <trkpt lat="43.79546" lon="5.95071">
        <ele>539.4</ele>
        <time>2020-06-20T15:35:33Z</time>
      </trkpt>
      <trkpt lat="43.79551" lon="5.95073">
        <ele>539.3</ele>
        <time>2020-06-20T15:35:34Z</time>
      </trkpt>
      <trkpt lat="43.79557" lon="5.95077">
        <ele>539.2</ele>
        <time>2020-06-20T15:35:36Z</time>
      </trkpt>
      <trkpt lat="43.79563" lon="5.95081">
        <ele>539</ele>
        <time>2020-06-20T15:35:37Z</time>
      </trkpt>
      <trkpt lat="43.79568" lon="5.95086">
        <ele>538.9</ele>
        <time>2020-06-20T15:35:38Z</time>
      </trkpt>
      <trkpt lat="43.79576" lon="5.95096">
        <ele>538.6</ele>
        <time>2020-06-20T15:35:40Z</time>
      </trkpt>
      <trkpt lat="43.79581" lon="5.95107">
        <ele>538.3</ele>
        <time>2020-06-20T15:35:42Z</time>
      </trkpt>
      <trkpt lat="43.79583" lon="5.95115">
        <ele>538.1</ele>
        <time>2020-06-20T15:35:44Z</time>
      </trkpt>
      <trkpt lat="43.79584" lon="5.95119">
        <ele>538</ele>
        <time>2020-06-20T15:35:45Z</time>
      </trkpt>
      <trkpt lat="43.79588" lon="5.9513">
        <ele>537.8</ele>
        <time>2020-06-20T15:35:46Z</time>
      </trkpt>
      <trkpt lat="43.79592" lon="5.95144">
        <ele>537.4</ele>
        <time>2020-06-20T15:35:48Z</time>
      </trkpt>
      <trkpt lat="43.79593" lon="5.95151">
        <ele>537.2</ele>
        <time>2020-06-20T15:35:49Z</time>
      </trkpt>
      <trkpt lat="43.79594" lon="5.95164">
        <ele>536.9</ele>
        <time>2020-06-20T15:35:51Z</time>
      </trkpt>
      <trkpt lat="43.79594" lon="5.95177">
        <ele>536.5</ele>
        <time>2020-06-20T15:35:53Z</time>
      </trkpt>
      <trkpt lat="43.79594" lon="5.95184">
        <ele>536.4</ele>
        <time>2020-06-20T15:35:54Z</time>
      </trkpt>
      <trkpt lat="43.79595" lon="5.95195">
        <ele>536.1</ele>
        <time>2020-06-20T15:35:56Z</time>
      </trkpt>
      <trkpt lat="43.79595" lon="5.95202">
        <ele>536</ele>
        <time>2020-06-20T15:35:57Z</time>
      </trkpt>
      <trkpt lat="43.79594" lon="5.95216">
        <ele>535.7</ele>
        <time>2020-06-20T15:35:59Z</time>
      </trkpt>
      <trkpt lat="43.79593" lon="5.95231">
        <ele>535.4</ele>
        <time>2020-06-20T15:36:01Z</time>
      </trkpt>
      <trkpt lat="43.79593" lon="5.95239">
        <ele>535.2</ele>
        <time>2020-06-20T15:36:02Z</time>
      </trkpt>
      <trkpt lat="43.79593" lon="5.95253">
        <ele>535</ele>
        <time>2020-06-20T15:36:04Z</time>
      </trkpt>
      <trkpt lat="43.79594" lon="5.95261">
        <ele>534.9</ele>
        <time>2020-06-20T15:36:05Z</time>
      </trkpt>
      <trkpt lat="43.79593" lon="5.95268">
        <ele>534.9</ele>
        <time>2020-06-20T15:36:06Z</time>
      </trkpt>
      <trkpt lat="43.79593" lon="5.95282">
        <ele>534.8</ele>
        <time>2020-06-20T15:36:08Z</time>
      </trkpt>
      <trkpt lat="43.79593" lon="5.95293">
        <ele>534.8</ele>
        <time>2020-06-20T15:36:10Z</time>
      </trkpt>
      <trkpt lat="43.79592" lon="5.95305">
        <ele>535.5</ele>
        <time>2020-06-20T15:36:12Z</time>
      </trkpt>
      <trkpt lat="43.7959" lon="5.95316">
        <ele>536</ele>
        <time>2020-06-20T15:36:14Z</time>
      </trkpt>
      <trkpt lat="43.79593" lon="5.95319">
        <ele>536.2</ele>
        <time>2020-06-20T15:36:15Z</time>
      </trkpt>
      <trkpt lat="43.79592" lon="5.95324">
        <ele>536.4</ele>
        <time>2020-06-20T15:36:16Z</time>
      </trkpt>
      <trkpt lat="43.79591" lon="5.95329">
        <ele>536.7</ele>
        <time>2020-06-20T15:36:18Z</time>
      </trkpt>
      <trkpt lat="43.7959" lon="5.95334">
        <ele>536.9</ele>
        <time>2020-06-20T15:36:19Z</time>
      </trkpt>
      <trkpt lat="43.79589" lon="5.95338">
        <ele>537.2</ele>
        <time>2020-06-20T15:36:20Z</time>
      </trkpt>
      <trkpt lat="43.79587" lon="5.95344">
        <ele>537.6</ele>
        <time>2020-06-20T15:36:22Z</time>
      </trkpt>
      <trkpt lat="43.79587" lon="5.95349">
        <ele>537.9</ele>
        <time>2020-06-20T15:36:23Z</time>
      </trkpt>
      <trkpt lat="43.79587" lon="5.95351">
        <ele>538.1</ele>
        <time>2020-06-20T15:36:24Z</time>
      </trkpt>
      <trkpt lat="43.79585" lon="5.95356">
        <ele>538.4</ele>
        <time>2020-06-20T15:36:26Z</time>
      </trkpt>
      <trkpt lat="43.79585" lon="5.95358">
        <ele>538.5</ele>
        <time>2020-06-20T15:36:27Z</time>
      </trkpt>
      <trkpt lat="43.79584" lon="5.95362">
        <ele>538.8</ele>
        <time>2020-06-20T15:36:28Z</time>
      </trkpt>
      <trkpt lat="43.79583" lon="5.95366">
        <ele>539.1</ele>
        <time>2020-06-20T15:36:30Z</time>
      </trkpt>
      <trkpt lat="43.79582" lon="5.95368">
        <ele>539.3</ele>
        <time>2020-06-20T15:36:31Z</time>
      </trkpt>
      <trkpt lat="43.7958" lon="5.95373">
        <ele>539.6</ele>
        <time>2020-06-20T15:36:33Z</time>
      </trkpt>
      <trkpt lat="43.79579" lon="5.95376">
        <ele>539.9</ele>
        <time>2020-06-20T15:36:34Z</time>
      </trkpt>
      <trkpt lat="43.79578" lon="5.95379">
        <ele>540.1</ele>
        <time>2020-06-20T15:36:36Z</time>
      </trkpt>
      <trkpt lat="43.79576" lon="5.95384">
        <ele>540.4</ele>
        <time>2020-06-20T15:36:37Z</time>
      </trkpt>
      <trkpt lat="43.79576" lon="5.95385">
        <ele>540.5</ele>
        <time>2020-06-20T15:36:38Z</time>
      </trkpt>
      <trkpt lat="43.79575" lon="5.95387">
        <ele>540.6</ele>
        <time>2020-06-20T15:36:39Z</time>
      </trkpt>
      <trkpt lat="43.79575" lon="5.9539">
        <ele>540.7</ele>
        <time>2020-06-20T15:36:41Z</time>
      </trkpt>
      <trkpt lat="43.79575" lon="5.95392">
        <ele>540.8</ele>
        <time>2020-06-20T15:36:42Z</time>
      </trkpt>
      <trkpt lat="43.79574" lon="5.95395">
        <ele>541</ele>
        <time>2020-06-20T15:36:44Z</time>
      </trkpt>
      <trkpt lat="43.79573" lon="5.95397">
        <ele>541.1</ele>
        <time>2020-06-20T15:36:45Z</time>
      </trkpt>
      <trkpt lat="43.79572" lon="5.95399">
        <ele>541.2</ele>
        <time>2020-06-20T15:36:47Z</time>
      </trkpt>
      <trkpt lat="43.79571" lon="5.95401">
        <ele>541.3</ele>
        <time>2020-06-20T15:36:48Z</time>
      </trkpt>
      <trkpt lat="43.79571" lon="5.95403">
        <ele>541.3</ele>
        <time>2020-06-20T15:36:49Z</time>
      </trkpt>
      <trkpt lat="43.79569" lon="5.95407">
        <ele>541.5</ele>
        <time>2020-06-20T15:36:51Z</time>
      </trkpt>
      <trkpt lat="43.79568" lon="5.95409">
        <ele>541.6</ele>
        <time>2020-06-20T15:36:52Z</time>
      </trkpt>
      <trkpt lat="43.79567" lon="5.95412">
        <ele>541.6</ele>
        <time>2020-06-20T15:36:53Z</time>
      </trkpt>
      <trkpt lat="43.79566" lon="5.95418">
        <ele>541.8</ele>
        <time>2020-06-20T15:36:55Z</time>
      </trkpt>
      <trkpt lat="43.79565" lon="5.95422">
        <ele>541.8</ele>
        <time>2020-06-20T15:36:56Z</time>
      </trkpt>
      <trkpt lat="43.79564" lon="5.95425">
        <ele>541.8</ele>
        <time>2020-06-20T15:36:57Z</time>
      </trkpt>
      <trkpt lat="43.79562" lon="5.95431">
        <ele>541.8</ele>
        <time>2020-06-20T15:36:59Z</time>
      </trkpt>
      <trkpt lat="43.79561" lon="5.95436">
        <ele>541.7</ele>
        <time>2020-06-20T15:37:00Z</time>
      </trkpt>
      <trkpt lat="43.7956" lon="5.95442">
        <ele>541.6</ele>
        <time>2020-06-20T15:37:01Z</time>
      </trkpt>
      <trkpt lat="43.79559" lon="5.95451">
        <ele>541.2</ele>
        <time>2020-06-20T15:37:02Z</time>
      </trkpt>
      <trkpt lat="43.79559" lon="5.95458">
        <ele>540.9</ele>
        <time>2020-06-20T15:37:03Z</time>
      </trkpt>
      <trkpt lat="43.79558" lon="5.95472">
        <ele>540.3</ele>
        <time>2020-06-20T15:37:05Z</time>
      </trkpt>
      <trkpt lat="43.79557" lon="5.95479">
        <ele>539.9</ele>
        <time>2020-06-20T15:37:06Z</time>
      </trkpt>
      <trkpt lat="43.79554" lon="5.95494">
        <ele>539.2</ele>
        <time>2020-06-20T15:37:08Z</time>
      </trkpt>
      <trkpt lat="43.79554" lon="5.95509">
        <ele>538.4</ele>
        <time>2020-06-20T15:37:10Z</time>
      </trkpt>
      <trkpt lat="43.79555" lon="5.95517">
        <ele>537.8</ele>
        <time>2020-06-20T15:37:11Z</time>
      </trkpt>
      <trkpt lat="43.79558" lon="5.95534">
        <ele>536.3</ele>
        <time>2020-06-20T15:37:13Z</time>
      </trkpt>
      <trkpt lat="43.7956" lon="5.95543">
        <ele>535.7</ele>
        <time>2020-06-20T15:37:14Z</time>
      </trkpt>
      <trkpt lat="43.79563" lon="5.95551">
        <ele>535</ele>
        <time>2020-06-20T15:37:15Z</time>
      </trkpt>
      <trkpt lat="43.79569" lon="5.95566">
        <ele>533.8</ele>
        <time>2020-06-20T15:37:17Z</time>
      </trkpt>
      <trkpt lat="43.79573" lon="5.95573">
        <ele>533.2</ele>
        <time>2020-06-20T15:37:18Z</time>
      </trkpt>
      <trkpt lat="43.79578" lon="5.95581">
        <ele>532.7</ele>
        <time>2020-06-20T15:37:19Z</time>
      </trkpt>
      <trkpt lat="43.79587" lon="5.95595">
        <ele>531.9</ele>
        <time>2020-06-20T15:37:21Z</time>
      </trkpt>
      <trkpt lat="43.79592" lon="5.95602">
        <ele>531.6</ele>
        <time>2020-06-20T15:37:22Z</time>
      </trkpt>
      <trkpt lat="43.79602" lon="5.95615">
        <ele>531.2</ele>
        <time>2020-06-20T15:37:24Z</time>
      </trkpt>
      <trkpt lat="43.79611" lon="5.95628">
        <ele>531.1</ele>
        <time>2020-06-20T15:37:26Z</time>
      </trkpt>
      <trkpt lat="43.79619" lon="5.95639">
        <ele>531.4</ele>
        <time>2020-06-20T15:37:28Z</time>
      </trkpt>
      <trkpt lat="43.79622" lon="5.95644">
        <ele>531.6</ele>
        <time>2020-06-20T15:37:29Z</time>
      </trkpt>
      <trkpt lat="43.79628" lon="5.95651">
        <ele>531.9</ele>
        <time>2020-06-20T15:37:31Z</time>
      </trkpt>
      <trkpt lat="43.79633" lon="5.95658">
        <ele>532.4</ele>
        <time>2020-06-20T15:37:33Z</time>
      </trkpt>
      <trkpt lat="43.79638" lon="5.95662">
        <ele>532.8</ele>
        <time>2020-06-20T15:37:35Z</time>
      </trkpt>
      <trkpt lat="43.79641" lon="5.95665">
        <ele>533</ele>
        <time>2020-06-20T15:37:37Z</time>
      </trkpt>
      <trkpt lat="43.79643" lon="5.95669">
        <ele>533.3</ele>
        <time>2020-06-20T15:37:38Z</time>
      </trkpt>
      <trkpt lat="43.79644" lon="5.9567">
        <ele>533.4</ele>
        <time>2020-06-20T15:37:39Z</time>
      </trkpt>
      <trkpt lat="43.79645" lon="5.95673">
        <ele>533.6</ele>
        <time>2020-06-20T15:37:40Z</time>
      </trkpt>
      <trkpt lat="43.79647" lon="5.95676">
        <ele>533.8</ele>
        <time>2020-06-20T15:37:42Z</time>
      </trkpt>
      <trkpt lat="43.79649" lon="5.9568">
        <ele>534.1</ele>
        <time>2020-06-20T15:37:43Z</time>
      </trkpt>
      <trkpt lat="43.79651" lon="5.95684">
        <ele>534.4</ele>
        <time>2020-06-20T15:37:44Z</time>
      </trkpt>
      <trkpt lat="43.79655" lon="5.95688">
        <ele>534.9</ele>
        <time>2020-06-20T15:37:46Z</time>
      </trkpt>
      <trkpt lat="43.79656" lon="5.9569">
        <ele>535.1</ele>
        <time>2020-06-20T15:37:47Z</time>
      </trkpt>
      <trkpt lat="43.79658" lon="5.95691">
        <ele>535.3</ele>
        <time>2020-06-20T15:37:48Z</time>
      </trkpt>
      <trkpt lat="43.7966" lon="5.95694">
        <ele>535.6</ele>
        <time>2020-06-20T15:37:49Z</time>
      </trkpt>
      <trkpt lat="43.79662" lon="5.95696">
        <ele>535.8</ele>
        <time>2020-06-20T15:37:51Z</time>
      </trkpt>
      <trkpt lat="43.79664" lon="5.95699">
        <ele>536.2</ele>
        <time>2020-06-20T15:37:52Z</time>
      </trkpt>
      <trkpt lat="43.79664" lon="5.957">
        <ele>536.4</ele>
        <time>2020-06-20T15:37:53Z</time>
      </trkpt>
      <trkpt lat="43.79665" lon="5.95701">
        <ele>536.5</ele>
        <time>2020-06-20T15:37:55Z</time>
      </trkpt>
      <trkpt lat="43.79667" lon="5.95704">
        <ele>536.9</ele>
        <time>2020-06-20T15:37:57Z</time>
      </trkpt>
      <trkpt lat="43.79669" lon="5.95707">
        <ele>537.2</ele>
        <time>2020-06-20T15:37:58Z</time>
      </trkpt>
      <trkpt lat="43.7967" lon="5.95708">
        <ele>537.3</ele>
        <time>2020-06-20T15:37:59Z</time>
      </trkpt>
      <trkpt lat="43.79672" lon="5.95711">
        <ele>537.6</ele>
        <time>2020-06-20T15:38:00Z</time>
      </trkpt>
      <trkpt lat="43.79673" lon="5.95712">
        <ele>537.7</ele>
        <time>2020-06-20T15:38:01Z</time>
      </trkpt>
      <trkpt lat="43.79674" lon="5.95714">
        <ele>537.9</ele>
        <time>2020-06-20T15:38:02Z</time>
      </trkpt>
      <trkpt lat="43.79676" lon="5.95715">
        <ele>538.1</ele>
        <time>2020-06-20T15:38:04Z</time>
      </trkpt>
      <trkpt lat="43.79677" lon="5.95718">
        <ele>538.3</ele>
        <time>2020-06-20T15:38:05Z</time>
      </trkpt>
      <trkpt lat="43.79678" lon="5.95719">
        <ele>538.4</ele>
        <time>2020-06-20T15:38:07Z</time>
      </trkpt>
      <trkpt lat="43.79679" lon="5.9572">
        <ele>538.4</ele>
        <time>2020-06-20T15:38:08Z</time>
      </trkpt>
      <trkpt lat="43.7968" lon="5.95721">
        <ele>538.5</ele>
        <time>2020-06-20T15:38:09Z</time>
      </trkpt>
      <trkpt lat="43.79681" lon="5.95723">
        <ele>538.7</ele>
        <time>2020-06-20T15:38:10Z</time>
      </trkpt>
      <trkpt lat="43.79682" lon="5.95725">
        <ele>538.8</ele>
        <time>2020-06-20T15:38:11Z</time>
      </trkpt>
      <trkpt lat="43.79684" lon="5.95727">
        <ele>538.9</ele>
        <time>2020-06-20T15:38:13Z</time>
      </trkpt>
      <trkpt lat="43.79686" lon="5.9573">
        <ele>539</ele>
        <time>2020-06-20T15:38:14Z</time>
      </trkpt>
      <trkpt lat="43.79687" lon="5.95731">
        <ele>539.1</ele>
        <time>2020-06-20T15:38:16Z</time>
      </trkpt>
      <trkpt lat="43.79688" lon="5.95732">
        <ele>539.1</ele>
        <time>2020-06-20T15:38:17Z</time>
      </trkpt>
      <trkpt lat="43.7969" lon="5.95738">
        <ele>539.2</ele>
        <time>2020-06-20T15:38:18Z</time>
      </trkpt>
      <trkpt lat="43.7969" lon="5.9574">
        <ele>539.2</ele>
        <time>2020-06-20T15:38:19Z</time>
      </trkpt>
      <trkpt lat="43.79691" lon="5.95745">
        <ele>539.2</ele>
        <time>2020-06-20T15:38:20Z</time>
      </trkpt>
      <trkpt lat="43.79692" lon="5.9575">
        <ele>539.2</ele>
        <time>2020-06-20T15:38:22Z</time>
      </trkpt>
      <trkpt lat="43.79693" lon="5.95754">
        <ele>539.1</ele>
        <time>2020-06-20T15:38:23Z</time>
      </trkpt>
      <trkpt lat="43.79695" lon="5.95761">
        <ele>539</ele>
        <time>2020-06-20T15:38:25Z</time>
      </trkpt>
      <trkpt lat="43.79696" lon="5.95766">
        <ele>538.9</ele>
        <time>2020-06-20T15:38:26Z</time>
      </trkpt>
      <trkpt lat="43.79697" lon="5.9577">
        <ele>538.8</ele>
        <time>2020-06-20T15:38:27Z</time>
      </trkpt>
      <trkpt lat="43.79699" lon="5.95775">
        <ele>538.6</ele>
        <time>2020-06-20T15:38:28Z</time>
      </trkpt>
      <trkpt lat="43.79703" lon="5.95789">
        <ele>538.1</ele>
        <time>2020-06-20T15:38:30Z</time>
      </trkpt>
      <trkpt lat="43.79704" lon="5.95797">
        <ele>537.8</ele>
        <time>2020-06-20T15:38:31Z</time>
      </trkpt>
      <trkpt lat="43.79709" lon="5.9581">
        <ele>537.4</ele>
        <time>2020-06-20T15:38:33Z</time>
      </trkpt>
      <trkpt lat="43.79711" lon="5.95817">
        <ele>537.2</ele>
        <time>2020-06-20T15:38:34Z</time>
      </trkpt>
      <trkpt lat="43.79712" lon="5.95824">
        <ele>537.2</ele>
        <time>2020-06-20T15:38:35Z</time>
      </trkpt>
      <trkpt lat="43.79715" lon="5.95837">
        <ele>537.1</ele>
        <time>2020-06-20T15:38:37Z</time>
      </trkpt>
      <trkpt lat="43.79716" lon="5.95843">
        <ele>537</ele>
        <time>2020-06-20T15:38:38Z</time>
      </trkpt>
      <trkpt lat="43.79717" lon="5.95848">
        <ele>537</ele>
        <time>2020-06-20T15:38:39Z</time>
      </trkpt>
      <trkpt lat="43.79718" lon="5.95854">
        <ele>537.1</ele>
        <time>2020-06-20T15:38:41Z</time>
      </trkpt>
      <trkpt lat="43.79719" lon="5.95859">
        <ele>537.1</ele>
        <time>2020-06-20T15:38:42Z</time>
      </trkpt>
      <trkpt lat="43.7972" lon="5.95863">
        <ele>537.2</ele>
        <time>2020-06-20T15:38:43Z</time>
      </trkpt>
      <trkpt lat="43.7972" lon="5.95867">
        <ele>537.3</ele>
        <time>2020-06-20T15:38:44Z</time>
      </trkpt>
      <trkpt lat="43.79721" lon="5.9587">
        <ele>537.4</ele>
        <time>2020-06-20T15:38:45Z</time>
      </trkpt>
      <trkpt lat="43.79722" lon="5.95875">
        <ele>537.6</ele>
        <time>2020-06-20T15:38:47Z</time>
      </trkpt>
      <trkpt lat="43.79724" lon="5.95879">
        <ele>537.7</ele>
        <time>2020-06-20T15:38:48Z</time>
      </trkpt>
      <trkpt lat="43.79726" lon="5.95884">
        <ele>537.9</ele>
        <time>2020-06-20T15:38:49Z</time>
      </trkpt>
      <trkpt lat="43.79727" lon="5.95887">
        <ele>538.1</ele>
        <time>2020-06-20T15:38:51Z</time>
      </trkpt>
      <trkpt lat="43.7973" lon="5.9589">
        <ele>538.2</ele>
        <time>2020-06-20T15:38:52Z</time>
      </trkpt>
      <trkpt lat="43.79732" lon="5.95892">
        <ele>538.3</ele>
        <time>2020-06-20T15:38:53Z</time>
      </trkpt>
      <trkpt lat="43.79735" lon="5.95895">
        <ele>538.4</ele>
        <time>2020-06-20T15:38:54Z</time>
      </trkpt>
      <trkpt lat="43.7974" lon="5.95898">
        <ele>538.6</ele>
        <time>2020-06-20T15:38:56Z</time>
      </trkpt>
      <trkpt lat="43.79743" lon="5.95901">
        <ele>538.7</ele>
        <time>2020-06-20T15:38:57Z</time>
      </trkpt>
      <trkpt lat="43.79748" lon="5.95905">
        <ele>538.8</ele>
        <time>2020-06-20T15:38:59Z</time>
      </trkpt>
      <trkpt lat="43.79753" lon="5.9591">
        <ele>539</ele>
        <time>2020-06-20T15:39:00Z</time>
      </trkpt>
      <trkpt lat="43.79757" lon="5.95913">
        <ele>539.1</ele>
        <time>2020-06-20T15:39:02Z</time>
      </trkpt>
      <trkpt lat="43.7976" lon="5.95916">
        <ele>539.2</ele>
        <time>2020-06-20T15:39:03Z</time>
      </trkpt>
      <trkpt lat="43.79765" lon="5.95921">
        <ele>539.4</ele>
        <time>2020-06-20T15:39:04Z</time>
      </trkpt>
      <trkpt lat="43.79769" lon="5.95924">
        <ele>539.5</ele>
        <time>2020-06-20T15:39:06Z</time>
      </trkpt>
      <trkpt lat="43.79772" lon="5.95927">
        <ele>539.6</ele>
        <time>2020-06-20T15:39:07Z</time>
      </trkpt>
      <trkpt lat="43.79775" lon="5.9593">
        <ele>539.7</ele>
        <time>2020-06-20T15:39:08Z</time>
      </trkpt>
      <trkpt lat="43.79778" lon="5.95934">
        <ele>539.9</ele>
        <time>2020-06-20T15:39:09Z</time>
      </trkpt>
      <trkpt lat="43.79782" lon="5.95937">
        <ele>540</ele>
        <time>2020-06-20T15:39:11Z</time>
      </trkpt>
      <trkpt lat="43.79785" lon="5.9594">
        <ele>540.1</ele>
        <time>2020-06-20T15:39:12Z</time>
      </trkpt>
      <trkpt lat="43.79788" lon="5.95943">
        <ele>540.2</ele>
        <time>2020-06-20T15:39:13Z</time>
      </trkpt>
      <trkpt lat="43.79793" lon="5.95946">
        <ele>540.3</ele>
        <time>2020-06-20T15:39:14Z</time>
      </trkpt>
      <trkpt lat="43.79797" lon="5.9595">
        <ele>540.4</ele>
        <time>2020-06-20T15:39:16Z</time>
      </trkpt>
      <trkpt lat="43.79799" lon="5.95953">
        <ele>540.5</ele>
        <time>2020-06-20T15:39:17Z</time>
      </trkpt>
      <trkpt lat="43.79804" lon="5.95959">
        <ele>540.6</ele>
        <time>2020-06-20T15:39:19Z</time>
      </trkpt>
      <trkpt lat="43.79808" lon="5.95964">
        <ele>540.7</ele>
        <time>2020-06-20T15:39:20Z</time>
      </trkpt>
      <trkpt lat="43.79811" lon="5.95968">
        <ele>540.7</ele>
        <time>2020-06-20T15:39:22Z</time>
      </trkpt>
      <trkpt lat="43.79815" lon="5.95972">
        <ele>540.6</ele>
        <time>2020-06-20T15:39:23Z</time>
      </trkpt>
      <trkpt lat="43.79818" lon="5.95976">
        <ele>540.6</ele>
        <time>2020-06-20T15:39:24Z</time>
      </trkpt>
      <trkpt lat="43.79822" lon="5.95981">
        <ele>540.5</ele>
        <time>2020-06-20T15:39:25Z</time>
      </trkpt>
      <trkpt lat="43.79824" lon="5.95984">
        <ele>540.5</ele>
        <time>2020-06-20T15:39:27Z</time>
      </trkpt>
      <trkpt lat="43.79826" lon="5.95988">
        <ele>540.4</ele>
        <time>2020-06-20T15:39:28Z</time>
      </trkpt>
      <trkpt lat="43.79828" lon="5.95991">
        <ele>540.4</ele>
        <time>2020-06-20T15:39:29Z</time>
      </trkpt>
      <trkpt lat="43.7983" lon="5.95996">
        <ele>540.3</ele>
        <time>2020-06-20T15:39:30Z</time>
      </trkpt>
      <trkpt lat="43.79832" lon="5.96001">
        <ele>540.2</ele>
        <time>2020-06-20T15:39:31Z</time>
      </trkpt>
      <trkpt lat="43.79835" lon="5.96007">
        <ele>540.1</ele>
        <time>2020-06-20T15:39:33Z</time>
      </trkpt>
      <trkpt lat="43.79838" lon="5.96015">
        <ele>539.9</ele>
        <time>2020-06-20T15:39:35Z</time>
      </trkpt>
      <trkpt lat="43.7984" lon="5.96022">
        <ele>539.8</ele>
        <time>2020-06-20T15:39:36Z</time>
      </trkpt>
      <trkpt lat="43.79842" lon="5.96031">
        <ele>539.5</ele>
        <time>2020-06-20T15:39:37Z</time>
      </trkpt>
      <trkpt lat="43.79843" lon="5.96045">
        <ele>539.1</ele>
        <time>2020-06-20T15:39:39Z</time>
      </trkpt>
      <trkpt lat="43.79843" lon="5.96052">
        <ele>538.9</ele>
        <time>2020-06-20T15:39:40Z</time>
      </trkpt>
      <trkpt lat="43.79842" lon="5.96061">
        <ele>538.6</ele>
        <time>2020-06-20T15:39:41Z</time>
      </trkpt>
      <trkpt lat="43.79839" lon="5.96079">
        <ele>537.9</ele>
        <time>2020-06-20T15:39:43Z</time>
      </trkpt>
      <trkpt lat="43.79838" lon="5.96088">
        <ele>537.6</ele>
        <time>2020-06-20T15:39:44Z</time>
      </trkpt>
      <trkpt lat="43.79834" lon="5.96105">
        <ele>537.3</ele>
        <time>2020-06-20T15:39:46Z</time>
      </trkpt>
      <trkpt lat="43.79833" lon="5.96112">
        <ele>537.2</ele>
        <time>2020-06-20T15:39:47Z</time>
      </trkpt>
      <trkpt lat="43.7983" lon="5.96125">
        <ele>537.3</ele>
        <time>2020-06-20T15:39:49Z</time>
      </trkpt>
      <trkpt lat="43.7983" lon="5.96137">
        <ele>537.4</ele>
        <time>2020-06-20T15:39:51Z</time>
      </trkpt>
      <trkpt lat="43.7983" lon="5.96144">
        <ele>537.4</ele>
        <time>2020-06-20T15:39:52Z</time>
      </trkpt>
      <trkpt lat="43.79832" lon="5.96157">
        <ele>537.6</ele>
        <time>2020-06-20T15:39:54Z</time>
      </trkpt>
      <trkpt lat="43.79834" lon="5.96164">
        <ele>537.7</ele>
        <time>2020-06-20T15:39:55Z</time>
      </trkpt>
      <trkpt lat="43.79837" lon="5.96171">
        <ele>537.7</ele>
        <time>2020-06-20T15:39:56Z</time>
      </trkpt>
      <trkpt lat="43.79842" lon="5.96184">
        <ele>537.5</ele>
        <time>2020-06-20T15:39:58Z</time>
      </trkpt>
      <trkpt lat="43.79845" lon="5.96191">
        <ele>537.4</ele>
        <time>2020-06-20T15:39:59Z</time>
      </trkpt>
      <trkpt lat="43.7985" lon="5.96204">
        <ele>537.3</ele>
        <time>2020-06-20T15:40:01Z</time>
      </trkpt>
      <trkpt lat="43.79851" lon="5.96217">
        <ele>537.5</ele>
        <time>2020-06-20T15:40:03Z</time>
      </trkpt>
      <trkpt lat="43.79853" lon="5.96223">
        <ele>537.7</ele>
        <time>2020-06-20T15:40:04Z</time>
      </trkpt>
      <trkpt lat="43.79855" lon="5.96227">
        <ele>537.8</ele>
        <time>2020-06-20T15:40:05Z</time>
      </trkpt>
      <trkpt lat="43.79856" lon="5.96234">
        <ele>538</ele>
        <time>2020-06-20T15:40:06Z</time>
      </trkpt>
      <trkpt lat="43.79857" lon="5.96239">
        <ele>538.1</ele>
        <time>2020-06-20T15:40:08Z</time>
      </trkpt>
      <trkpt lat="43.79858" lon="5.96247">
        <ele>538.3</ele>
        <time>2020-06-20T15:40:09Z</time>
      </trkpt>
      <trkpt lat="43.79858" lon="5.96251">
        <ele>538.5</ele>
        <time>2020-06-20T15:40:10Z</time>
      </trkpt>
      <trkpt lat="43.79859" lon="5.96255">
        <ele>538.6</ele>
        <time>2020-06-20T15:40:11Z</time>
      </trkpt>
      <trkpt lat="43.79861" lon="5.96262">
        <ele>539</ele>
        <time>2020-06-20T15:40:13Z</time>
      </trkpt>
      <trkpt lat="43.79862" lon="5.96266">
        <ele>539.2</ele>
        <time>2020-06-20T15:40:14Z</time>
      </trkpt>
      <trkpt lat="43.79864" lon="5.9627">
        <ele>539.4</ele>
        <time>2020-06-20T15:40:15Z</time>
      </trkpt>
      <trkpt lat="43.79864" lon="5.96271">
        <ele>539.5</ele>
        <time>2020-06-20T15:40:16Z</time>
      </trkpt>
      <trkpt lat="43.79865" lon="5.96275">
        <ele>539.8</ele>
        <time>2020-06-20T15:40:18Z</time>
      </trkpt>
      <trkpt lat="43.79866" lon="5.96277">
        <ele>539.9</ele>
        <time>2020-06-20T15:40:19Z</time>
      </trkpt>
      <trkpt lat="43.79867" lon="5.96281">
        <ele>540.2</ele>
        <time>2020-06-20T15:40:20Z</time>
      </trkpt>
      <trkpt lat="43.79867" lon="5.96282">
        <ele>540.4</ele>
        <time>2020-06-20T15:40:21Z</time>
      </trkpt>
      <trkpt lat="43.79869" lon="5.96287">
        <ele>540.7</ele>
        <time>2020-06-20T15:40:23Z</time>
      </trkpt>
      <trkpt lat="43.7987" lon="5.96288">
        <ele>540.9</ele>
        <time>2020-06-20T15:40:24Z</time>
      </trkpt>
      <trkpt lat="43.79872" lon="5.96292">
        <ele>541.2</ele>
        <time>2020-06-20T15:40:26Z</time>
      </trkpt>
      <trkpt lat="43.79874" lon="5.96295">
        <ele>541.5</ele>
        <time>2020-06-20T15:40:27Z</time>
      </trkpt>
      <trkpt lat="43.79876" lon="5.96298">
        <ele>541.8</ele>
        <time>2020-06-20T15:40:29Z</time>
      </trkpt>
      <trkpt lat="43.79877" lon="5.963">
        <ele>541.9</ele>
        <time>2020-06-20T15:40:30Z</time>
      </trkpt>
      <trkpt lat="43.79878" lon="5.96302">
        <ele>542.1</ele>
        <time>2020-06-20T15:40:31Z</time>
      </trkpt>
      <trkpt lat="43.7988" lon="5.96305">
        <ele>542.4</ele>
        <time>2020-06-20T15:40:33Z</time>
      </trkpt>
      <trkpt lat="43.79883" lon="5.96309">
        <ele>542.7</ele>
        <time>2020-06-20T15:40:35Z</time>
      </trkpt>
      <trkpt lat="43.79884" lon="5.96314">
        <ele>542.9</ele>
        <time>2020-06-20T15:40:37Z</time>
      </trkpt>
      <trkpt lat="43.79886" lon="5.96318">
        <ele>543</ele>
        <time>2020-06-20T15:40:39Z</time>
      </trkpt>
      <trkpt lat="43.79888" lon="5.96322">
        <ele>543.2</ele>
        <time>2020-06-20T15:40:40Z</time>
      </trkpt>
      <trkpt lat="43.7989" lon="5.96327">
        <ele>543.3</ele>
        <time>2020-06-20T15:40:42Z</time>
      </trkpt>
      <trkpt lat="43.79891" lon="5.96331">
        <ele>543.3</ele>
        <time>2020-06-20T15:40:43Z</time>
      </trkpt>
      <trkpt lat="43.79893" lon="5.96335">
        <ele>543.6</ele>
        <time>2020-06-20T15:40:45Z</time>
      </trkpt>
      <trkpt lat="43.79896" lon="5.9634">
        <ele>543.7</ele>
        <time>2020-06-20T15:40:47Z</time>
      </trkpt>
      <trkpt lat="43.79898" lon="5.96344">
        <ele>543.8</ele>
        <time>2020-06-20T15:40:48Z</time>
      </trkpt>
      <trkpt lat="43.79901" lon="5.96349">
        <ele>544</ele>
        <time>2020-06-20T15:40:49Z</time>
      </trkpt>
      <trkpt lat="43.79903" lon="5.96352">
        <ele>544</ele>
        <time>2020-06-20T15:40:50Z</time>
      </trkpt>
      <trkpt lat="43.79904" lon="5.96356">
        <ele>544</ele>
        <time>2020-06-20T15:40:51Z</time>
      </trkpt>
      <trkpt lat="43.79906" lon="5.96361">
        <ele>544.1</ele>
        <time>2020-06-20T15:40:53Z</time>
      </trkpt>
      <trkpt lat="43.79907" lon="5.96365">
        <ele>544.1</ele>
        <time>2020-06-20T15:40:54Z</time>
      </trkpt>
      <trkpt lat="43.79908" lon="5.9637">
        <ele>544.2</ele>
        <time>2020-06-20T15:40:55Z</time>
      </trkpt>
      <trkpt lat="43.7991" lon="5.96375">
        <ele>544.2</ele>
        <time>2020-06-20T15:40:57Z</time>
      </trkpt>
      <trkpt lat="43.79911" lon="5.96379">
        <ele>544.2</ele>
        <time>2020-06-20T15:40:58Z</time>
      </trkpt>
      <trkpt lat="43.79913" lon="5.96383">
        <ele>544.3</ele>
        <time>2020-06-20T15:40:59Z</time>
      </trkpt>
      <trkpt lat="43.79915" lon="5.96389">
        <ele>544.3</ele>
        <time>2020-06-20T15:41:00Z</time>
      </trkpt>
      <trkpt lat="43.79917" lon="5.96395">
        <ele>544.4</ele>
        <time>2020-06-20T15:41:01Z</time>
      </trkpt>
      <trkpt lat="43.79919" lon="5.96401">
        <ele>544.4</ele>
        <time>2020-06-20T15:41:03Z</time>
      </trkpt>
      <trkpt lat="43.79921" lon="5.96405">
        <ele>544.5</ele>
        <time>2020-06-20T15:41:04Z</time>
      </trkpt>
      <trkpt lat="43.79923" lon="5.96412">
        <ele>544.6</ele>
        <time>2020-06-20T15:41:05Z</time>
      </trkpt>
      <trkpt lat="43.79925" lon="5.96417">
        <ele>544.7</ele>
        <time>2020-06-20T15:41:07Z</time>
      </trkpt>
      <trkpt lat="43.79927" lon="5.96421">
        <ele>544.7</ele>
        <time>2020-06-20T15:41:08Z</time>
      </trkpt>
      <trkpt lat="43.79928" lon="5.96426">
        <ele>544.8</ele>
        <time>2020-06-20T15:41:09Z</time>
      </trkpt>
      <trkpt lat="43.7993" lon="5.9643">
        <ele>544.8</ele>
        <time>2020-06-20T15:41:10Z</time>
      </trkpt>
      <trkpt lat="43.79934" lon="5.96439">
        <ele>544.9</ele>
        <time>2020-06-20T15:41:12Z</time>
      </trkpt>
      <trkpt lat="43.79937" lon="5.96444">
        <ele>545</ele>
        <time>2020-06-20T15:41:13Z</time>
      </trkpt>
      <trkpt lat="43.7994" lon="5.96452">
        <ele>545.1</ele>
        <time>2020-06-20T15:41:15Z</time>
      </trkpt>
      <trkpt lat="43.79943" lon="5.96458">
        <ele>545.2</ele>
        <time>2020-06-20T15:41:16Z</time>
      </trkpt>
      <trkpt lat="43.79946" lon="5.96464">
        <ele>545.3</ele>
        <time>2020-06-20T15:41:17Z</time>
      </trkpt>
      <trkpt lat="43.79949" lon="5.96472">
        <ele>545.4</ele>
        <time>2020-06-20T15:41:19Z</time>
      </trkpt>
      <trkpt lat="43.79951" lon="5.96479">
        <ele>545.5</ele>
        <time>2020-06-20T15:41:21Z</time>
      </trkpt>
      <trkpt lat="43.79953" lon="5.96483">
        <ele>545.6</ele>
        <time>2020-06-20T15:41:22Z</time>
      </trkpt>
      <trkpt lat="43.79955" lon="5.96487">
        <ele>545.7</ele>
        <time>2020-06-20T15:41:23Z</time>
      </trkpt>
      <trkpt lat="43.79958" lon="5.96494">
        <ele>545.9</ele>
        <time>2020-06-20T15:41:25Z</time>
      </trkpt>
      <trkpt lat="43.7996" lon="5.965">
        <ele>546.1</ele>
        <time>2020-06-20T15:41:26Z</time>
      </trkpt>
      <trkpt lat="43.79963" lon="5.96506">
        <ele>546.4</ele>
        <time>2020-06-20T15:41:28Z</time>
      </trkpt>
      <trkpt lat="43.79966" lon="5.96512">
        <ele>546.7</ele>
        <time>2020-06-20T15:41:30Z</time>
      </trkpt>
      <trkpt lat="43.79968" lon="5.96518">
        <ele>547</ele>
        <time>2020-06-20T15:41:31Z</time>
      </trkpt>
      <trkpt lat="43.79971" lon="5.96523">
        <ele>547.2</ele>
        <time>2020-06-20T15:41:32Z</time>
      </trkpt>
      <trkpt lat="43.79974" lon="5.96528">
        <ele>547.4</ele>
        <time>2020-06-20T15:41:34Z</time>
      </trkpt>
      <trkpt lat="43.79976" lon="5.96533">
        <ele>547.6</ele>
        <time>2020-06-20T15:41:35Z</time>
      </trkpt>
      <trkpt lat="43.79978" lon="5.96536">
        <ele>547.7</ele>
        <time>2020-06-20T15:41:36Z</time>
      </trkpt>
      <trkpt lat="43.79981" lon="5.96541">
        <ele>547.9</ele>
        <time>2020-06-20T15:41:38Z</time>
      </trkpt>
      <trkpt lat="43.79984" lon="5.96544">
        <ele>548</ele>
        <time>2020-06-20T15:41:39Z</time>
      </trkpt>
      <trkpt lat="43.79988" lon="5.96548">
        <ele>548.2</ele>
        <time>2020-06-20T15:41:41Z</time>
      </trkpt>
      <trkpt lat="43.79992" lon="5.96551">
        <ele>548.4</ele>
        <time>2020-06-20T15:41:42Z</time>
      </trkpt>
      <trkpt lat="43.79995" lon="5.96556">
        <ele>548.6</ele>
        <time>2020-06-20T15:41:43Z</time>
      </trkpt>
      <trkpt lat="43.8" lon="5.96561">
        <ele>548.9</ele>
        <time>2020-06-20T15:41:45Z</time>
      </trkpt>
      <trkpt lat="43.80003" lon="5.96565">
        <ele>549</ele>
        <time>2020-06-20T15:41:46Z</time>
      </trkpt>
      <trkpt lat="43.80006" lon="5.96568">
        <ele>549.1</ele>
        <time>2020-06-20T15:41:47Z</time>
      </trkpt>
      <trkpt lat="43.8001" lon="5.96572">
        <ele>549.2</ele>
        <time>2020-06-20T15:41:48Z</time>
      </trkpt>
      <trkpt lat="43.80013" lon="5.96576">
        <ele>549.3</ele>
        <time>2020-06-20T15:41:50Z</time>
      </trkpt>
      <trkpt lat="43.80015" lon="5.96579">
        <ele>549.4</ele>
        <time>2020-06-20T15:41:51Z</time>
      </trkpt>
      <trkpt lat="43.80018" lon="5.96582">
        <ele>549.4</ele>
        <time>2020-06-20T15:41:52Z</time>
      </trkpt>
      <trkpt lat="43.80021" lon="5.96587">
        <ele>549.6</ele>
        <time>2020-06-20T15:41:53Z</time>
      </trkpt>
      <trkpt lat="43.80024" lon="5.96591">
        <ele>549.7</ele>
        <time>2020-06-20T15:41:55Z</time>
      </trkpt>
      <trkpt lat="43.80027" lon="5.96595">
        <ele>549.8</ele>
        <time>2020-06-20T15:41:56Z</time>
      </trkpt>
      <trkpt lat="43.8003" lon="5.96598">
        <ele>549.9</ele>
        <time>2020-06-20T15:41:57Z</time>
      </trkpt>
      <trkpt lat="43.80034" lon="5.96602">
        <ele>550</ele>
        <time>2020-06-20T15:41:58Z</time>
      </trkpt>
      <trkpt lat="43.80037" lon="5.96607">
        <ele>550</ele>
        <time>2020-06-20T15:42:00Z</time>
      </trkpt>
      <trkpt lat="43.80041" lon="5.96614">
        <ele>550.2</ele>
        <time>2020-06-20T15:42:02Z</time>
      </trkpt>
      <trkpt lat="43.80044" lon="5.96621">
        <ele>550.3</ele>
        <time>2020-06-20T15:42:04Z</time>
      </trkpt>
      <trkpt lat="43.80045" lon="5.96626">
        <ele>550.4</ele>
        <time>2020-06-20T15:42:05Z</time>
      </trkpt>
      <trkpt lat="43.80046" lon="5.96632">
        <ele>550.5</ele>
        <time>2020-06-20T15:42:06Z</time>
      </trkpt>
      <trkpt lat="43.80047" lon="5.96637">
        <ele>550.6</ele>
        <time>2020-06-20T15:42:08Z</time>
      </trkpt>
      <trkpt lat="43.80048" lon="5.96643">
        <ele>550.8</ele>
        <time>2020-06-20T15:42:09Z</time>
      </trkpt>
      <trkpt lat="43.80049" lon="5.96648">
        <ele>550.9</ele>
        <time>2020-06-20T15:42:10Z</time>
      </trkpt>
      <trkpt lat="43.80051" lon="5.96656">
        <ele>551.1</ele>
        <time>2020-06-20T15:42:11Z</time>
      </trkpt>
      <trkpt lat="43.80053" lon="5.96662">
        <ele>551.2</ele>
        <time>2020-06-20T15:42:12Z</time>
      </trkpt>
      <trkpt lat="43.80055" lon="5.96667">
        <ele>551.3</ele>
        <time>2020-06-20T15:42:14Z</time>
      </trkpt>
      <trkpt lat="43.80058" lon="5.96673">
        <ele>551.5</ele>
        <time>2020-06-20T15:42:15Z</time>
      </trkpt>
      <trkpt lat="43.80061" lon="5.96677">
        <ele>551.7</ele>
        <time>2020-06-20T15:42:16Z</time>
      </trkpt>
      <trkpt lat="43.80063" lon="5.96682">
        <ele>551.9</ele>
        <time>2020-06-20T15:42:18Z</time>
      </trkpt>
      <trkpt lat="43.80066" lon="5.96686">
        <ele>552</ele>
        <time>2020-06-20T15:42:19Z</time>
      </trkpt>
      <trkpt lat="43.80068" lon="5.9669">
        <ele>552.2</ele>
        <time>2020-06-20T15:42:20Z</time>
      </trkpt>
      <trkpt lat="43.8007" lon="5.96695">
        <ele>552.4</ele>
        <time>2020-06-20T15:42:21Z</time>
      </trkpt>
      <trkpt lat="43.80073" lon="5.967">
        <ele>552.6</ele>
        <time>2020-06-20T15:42:23Z</time>
      </trkpt>
      <trkpt lat="43.80076" lon="5.96705">
        <ele>552.7</ele>
        <time>2020-06-20T15:42:24Z</time>
      </trkpt>
      <trkpt lat="43.80078" lon="5.96709">
        <ele>552.8</ele>
        <time>2020-06-20T15:42:25Z</time>
      </trkpt>
      <trkpt lat="43.80081" lon="5.96714">
        <ele>552.9</ele>
        <time>2020-06-20T15:42:26Z</time>
      </trkpt>
      <trkpt lat="43.80083" lon="5.96719">
        <ele>553</ele>
        <time>2020-06-20T15:42:28Z</time>
      </trkpt>
      <trkpt lat="43.80086" lon="5.96725">
        <ele>553.2</ele>
        <time>2020-06-20T15:42:29Z</time>
      </trkpt>
      <trkpt lat="43.80088" lon="5.96731">
        <ele>553.3</ele>
        <time>2020-06-20T15:42:30Z</time>
      </trkpt>
      <trkpt lat="43.80091" lon="5.96736">
        <ele>553.4</ele>
        <time>2020-06-20T15:42:32Z</time>
      </trkpt>
      <trkpt lat="43.80094" lon="5.96742">
        <ele>553.5</ele>
        <time>2020-06-20T15:42:33Z</time>
      </trkpt>
      <trkpt lat="43.80099" lon="5.9675">
        <ele>553.5</ele>
        <time>2020-06-20T15:42:35Z</time>
      </trkpt>
      <trkpt lat="43.80103" lon="5.96757">
        <ele>553.4</ele>
        <time>2020-06-20T15:42:36Z</time>
      </trkpt>
      <trkpt lat="43.80106" lon="5.96762">
        <ele>553.3</ele>
        <time>2020-06-20T15:42:38Z</time>
      </trkpt>
      <trkpt lat="43.80109" lon="5.96768">
        <ele>553.2</ele>
        <time>2020-06-20T15:42:39Z</time>
      </trkpt>
      <trkpt lat="43.80114" lon="5.96778">
        <ele>553</ele>
        <time>2020-06-20T15:42:40Z</time>
      </trkpt>
      <trkpt lat="43.80117" lon="5.96785">
        <ele>552.7</ele>
        <time>2020-06-20T15:42:41Z</time>
      </trkpt>
      <trkpt lat="43.80125" lon="5.96797">
        <ele>552.3</ele>
        <time>2020-06-20T15:42:43Z</time>
      </trkpt>
      <trkpt lat="43.80133" lon="5.96812">
        <ele>551.9</ele>
        <time>2020-06-20T15:42:45Z</time>
      </trkpt>
      <trkpt lat="43.8014" lon="5.96827">
        <ele>551.6</ele>
        <time>2020-06-20T15:42:47Z</time>
      </trkpt>
      <trkpt lat="43.80143" lon="5.96834">
        <ele>551.5</ele>
        <time>2020-06-20T15:42:48Z</time>
      </trkpt>
      <trkpt lat="43.80148" lon="5.96848">
        <ele>551.3</ele>
        <time>2020-06-20T15:42:50Z</time>
      </trkpt>
      <trkpt lat="43.80153" lon="5.96862">
        <ele>551.2</ele>
        <time>2020-06-20T15:42:52Z</time>
      </trkpt>
      <trkpt lat="43.80155" lon="5.96868">
        <ele>551.2</ele>
        <time>2020-06-20T15:42:53Z</time>
      </trkpt>
      <trkpt lat="43.80156" lon="5.96875">
        <ele>551.1</ele>
        <time>2020-06-20T15:42:54Z</time>
      </trkpt>
      <trkpt lat="43.80159" lon="5.96885">
        <ele>551.1</ele>
        <time>2020-06-20T15:42:56Z</time>
      </trkpt>
      <trkpt lat="43.80161" lon="5.96891">
        <ele>551.1</ele>
        <time>2020-06-20T15:42:57Z</time>
      </trkpt>
      <trkpt lat="43.80164" lon="5.96897">
        <ele>551.1</ele>
        <time>2020-06-20T15:42:58Z</time>
      </trkpt>
      <trkpt lat="43.80166" lon="5.96903">
        <ele>551.1</ele>
        <time>2020-06-20T15:42:59Z</time>
      </trkpt>
      <trkpt lat="43.80169" lon="5.96911">
        <ele>551.1</ele>
        <time>2020-06-20T15:43:01Z</time>
      </trkpt>
      <trkpt lat="43.80166" lon="5.96915">
        <ele>551.1</ele>
        <time>2020-06-20T15:43:02Z</time>
      </trkpt>
      <trkpt lat="43.8017" lon="5.96919">
        <ele>551.2</ele>
        <time>2020-06-20T15:43:03Z</time>
      </trkpt>
      <trkpt lat="43.80176" lon="5.96924">
        <ele>551.3</ele>
        <time>2020-06-20T15:43:05Z</time>
      </trkpt>
      <trkpt lat="43.80181" lon="5.96929">
        <ele>551.5</ele>
        <time>2020-06-20T15:43:06Z</time>
      </trkpt>
      <trkpt lat="43.80187" lon="5.96936">
        <ele>551.6</ele>
        <time>2020-06-20T15:43:08Z</time>
      </trkpt>
      <trkpt lat="43.80191" lon="5.9694">
        <ele>551.7</ele>
        <time>2020-06-20T15:43:09Z</time>
      </trkpt>
      <trkpt lat="43.80195" lon="5.96945">
        <ele>551.8</ele>
        <time>2020-06-20T15:43:10Z</time>
      </trkpt>
      <trkpt lat="43.80199" lon="5.96949">
        <ele>551.9</ele>
        <time>2020-06-20T15:43:11Z</time>
      </trkpt>
      <trkpt lat="43.80202" lon="5.96953">
        <ele>552</ele>
        <time>2020-06-20T15:43:12Z</time>
      </trkpt>
      <trkpt lat="43.80206" lon="5.96958">
        <ele>552.1</ele>
        <time>2020-06-20T15:43:13Z</time>
      </trkpt>
      <trkpt lat="43.80208" lon="5.96962">
        <ele>552.2</ele>
        <time>2020-06-20T15:43:14Z</time>
      </trkpt>
      <trkpt lat="43.80211" lon="5.96967">
        <ele>552.3</ele>
        <time>2020-06-20T15:43:16Z</time>
      </trkpt>
      <trkpt lat="43.80213" lon="5.96971">
        <ele>552.4</ele>
        <time>2020-06-20T15:43:17Z</time>
      </trkpt>
      <trkpt lat="43.80216" lon="5.96976">
        <ele>552.5</ele>
        <time>2020-06-20T15:43:18Z</time>
      </trkpt>
      <trkpt lat="43.80219" lon="5.9698">
        <ele>552.6</ele>
        <time>2020-06-20T15:43:19Z</time>
      </trkpt>
      <trkpt lat="43.80221" lon="5.96984">
        <ele>552.7</ele>
        <time>2020-06-20T15:43:20Z</time>
      </trkpt>
      <trkpt lat="43.80224" lon="5.96993">
        <ele>553.1</ele>
        <time>2020-06-20T15:43:22Z</time>
      </trkpt>
      <trkpt lat="43.80227" lon="5.97001">
        <ele>553.6</ele>
        <time>2020-06-20T15:43:24Z</time>
      </trkpt>
      <trkpt lat="43.8023" lon="5.97009">
        <ele>554</ele>
        <time>2020-06-20T15:43:26Z</time>
      </trkpt>
      <trkpt lat="43.80233" lon="5.97014">
        <ele>554.2</ele>
        <time>2020-06-20T15:43:27Z</time>
      </trkpt>
      <trkpt lat="43.80238" lon="5.9702">
        <ele>554.6</ele>
        <time>2020-06-20T15:43:29Z</time>
      </trkpt>
      <trkpt lat="43.8024" lon="5.97024">
        <ele>554.8</ele>
        <time>2020-06-20T15:43:30Z</time>
      </trkpt>
      <trkpt lat="43.80241" lon="5.97027">
        <ele>555</ele>
        <time>2020-06-20T15:43:31Z</time>
      </trkpt>
      <trkpt lat="43.80243" lon="5.97031">
        <ele>555.2</ele>
        <time>2020-06-20T15:43:32Z</time>
      </trkpt>
      <trkpt lat="43.80246" lon="5.97035">
        <ele>555.4</ele>
        <time>2020-06-20T15:43:34Z</time>
      </trkpt>
      <trkpt lat="43.80248" lon="5.97039">
        <ele>555.6</ele>
        <time>2020-06-20T15:43:35Z</time>
      </trkpt>
      <trkpt lat="43.8025" lon="5.97042">
        <ele>555.8</ele>
        <time>2020-06-20T15:43:36Z</time>
      </trkpt>
      <trkpt lat="43.80254" lon="5.97046">
        <ele>556.1</ele>
        <time>2020-06-20T15:43:37Z</time>
      </trkpt>
      <trkpt lat="43.80258" lon="5.97049">
        <ele>556.3</ele>
        <time>2020-06-20T15:43:38Z</time>
      </trkpt>
      <trkpt lat="43.80262" lon="5.97051">
        <ele>556.6</ele>
        <time>2020-06-20T15:43:40Z</time>
      </trkpt>
      <trkpt lat="43.80267" lon="5.97051">
        <ele>556.8</ele>
        <time>2020-06-20T15:43:41Z</time>
      </trkpt>
      <trkpt lat="43.80271" lon="5.9705">
        <ele>557</ele>
        <time>2020-06-20T15:43:42Z</time>
      </trkpt>
      <trkpt lat="43.80273" lon="5.9705">
        <ele>557.1</ele>
        <time>2020-06-20T15:43:43Z</time>
      </trkpt>
      <trkpt lat="43.80278" lon="5.97049">
        <ele>557.4</ele>
        <time>2020-06-20T15:43:45Z</time>
      </trkpt>
      <trkpt lat="43.80281" lon="5.97047">
        <ele>557.5</ele>
        <time>2020-06-20T15:43:46Z</time>
      </trkpt>
      <trkpt lat="43.80284" lon="5.97046">
        <ele>557.7</ele>
        <time>2020-06-20T15:43:48Z</time>
      </trkpt>
      <trkpt lat="43.80287" lon="5.97044">
        <ele>557.8</ele>
        <time>2020-06-20T15:43:49Z</time>
      </trkpt>
      <trkpt lat="43.8029" lon="5.97042">
        <ele>557.9</ele>
        <time>2020-06-20T15:43:50Z</time>
      </trkpt>
      <trkpt lat="43.80293" lon="5.97041">
        <ele>558</ele>
        <time>2020-06-20T15:43:51Z</time>
      </trkpt>
      <trkpt lat="43.80299" lon="5.97039">
        <ele>558.1</ele>
        <time>2020-06-20T15:43:53Z</time>
      </trkpt>
      <trkpt lat="43.80303" lon="5.97037">
        <ele>558.2</ele>
        <time>2020-06-20T15:43:54Z</time>
      </trkpt>
      <trkpt lat="43.80307" lon="5.97035">
        <ele>558.3</ele>
        <time>2020-06-20T15:43:56Z</time>
      </trkpt>
      <trkpt lat="43.8031" lon="5.97033">
        <ele>558.4</ele>
        <time>2020-06-20T15:43:57Z</time>
      </trkpt>
      <trkpt lat="43.80314" lon="5.97032">
        <ele>558.5</ele>
        <time>2020-06-20T15:43:58Z</time>
      </trkpt>
      <trkpt lat="43.80316" lon="5.97031">
        <ele>558.6</ele>
        <time>2020-06-20T15:43:59Z</time>
      </trkpt>
      <trkpt lat="43.8032" lon="5.97028">
        <ele>558.8</ele>
        <time>2020-06-20T15:44:00Z</time>
      </trkpt>
      <trkpt lat="43.80324" lon="5.97026">
        <ele>558.9</ele>
        <time>2020-06-20T15:44:01Z</time>
      </trkpt>
      <trkpt lat="43.80327" lon="5.97025">
        <ele>559.1</ele>
        <time>2020-06-20T15:44:03Z</time>
      </trkpt>
      <trkpt lat="43.8033" lon="5.97024">
        <ele>559.2</ele>
        <time>2020-06-20T15:44:04Z</time>
      </trkpt>
      <trkpt lat="43.80333" lon="5.97022">
        <ele>559.3</ele>
        <time>2020-06-20T15:44:05Z</time>
      </trkpt>
      <trkpt lat="43.80336" lon="5.9702">
        <ele>559.3</ele>
        <time>2020-06-20T15:44:06Z</time>
      </trkpt>
      <trkpt lat="43.80339" lon="5.97018">
        <ele>559.4</ele>
        <time>2020-06-20T15:44:07Z</time>
      </trkpt>
      <trkpt lat="43.80342" lon="5.97017">
        <ele>559.4</ele>
        <time>2020-06-20T15:44:08Z</time>
      </trkpt>
      <trkpt lat="43.80347" lon="5.97015">
        <ele>559.5</ele>
        <time>2020-06-20T15:44:10Z</time>
      </trkpt>
      <trkpt lat="43.8035" lon="5.97013">
        <ele>559.5</ele>
        <time>2020-06-20T15:44:11Z</time>
      </trkpt>
      <trkpt lat="43.80354" lon="5.9701">
        <ele>559.5</ele>
        <time>2020-06-20T15:44:13Z</time>
      </trkpt>
      <trkpt lat="43.80358" lon="5.97007">
        <ele>559.6</ele>
        <time>2020-06-20T15:44:14Z</time>
      </trkpt>
      <trkpt lat="43.80363" lon="5.97003">
        <ele>559.7</ele>
        <time>2020-06-20T15:44:16Z</time>
      </trkpt>
      <trkpt lat="43.80368" lon="5.97001">
        <ele>559.7</ele>
        <time>2020-06-20T15:44:18Z</time>
      </trkpt>
      <trkpt lat="43.80372" lon="5.96999">
        <ele>559.8</ele>
        <time>2020-06-20T15:44:19Z</time>
      </trkpt>
      <trkpt lat="43.80375" lon="5.96997">
        <ele>559.9</ele>
        <time>2020-06-20T15:44:20Z</time>
      </trkpt>
      <trkpt lat="43.80379" lon="5.96995">
        <ele>559.9</ele>
        <time>2020-06-20T15:44:21Z</time>
      </trkpt>
      <trkpt lat="43.80383" lon="5.96994">
        <ele>560</ele>
        <time>2020-06-20T15:44:22Z</time>
      </trkpt>
      <trkpt lat="43.80386" lon="5.96991">
        <ele>560.1</ele>
        <time>2020-06-20T15:44:24Z</time>
      </trkpt>
      <trkpt lat="43.8039" lon="5.9699">
        <ele>560.2</ele>
        <time>2020-06-20T15:44:25Z</time>
      </trkpt>
      <trkpt lat="43.80394" lon="5.96988">
        <ele>560.4</ele>
        <time>2020-06-20T15:44:26Z</time>
      </trkpt>
      <trkpt lat="43.804" lon="5.96985">
        <ele>560.6</ele>
        <time>2020-06-20T15:44:28Z</time>
      </trkpt>
      <trkpt lat="43.80405" lon="5.96982">
        <ele>560.8</ele>
        <time>2020-06-20T15:44:30Z</time>
      </trkpt>
      <trkpt lat="43.80408" lon="5.96981">
        <ele>560.9</ele>
        <time>2020-06-20T15:44:31Z</time>
      </trkpt>
      <trkpt lat="43.80411" lon="5.9698">
        <ele>560.9</ele>
        <time>2020-06-20T15:44:32Z</time>
      </trkpt>
      <trkpt lat="43.80414" lon="5.96979">
        <ele>561.1</ele>
        <time>2020-06-20T15:44:33Z</time>
      </trkpt>
      <trkpt lat="43.8042" lon="5.96978">
        <ele>561.2</ele>
        <time>2020-06-20T15:44:35Z</time>
      </trkpt>
      <trkpt lat="43.80423" lon="5.96978">
        <ele>561.3</ele>
        <time>2020-06-20T15:44:36Z</time>
      </trkpt>
      <trkpt lat="43.80426" lon="5.9698">
        <ele>561.4</ele>
        <time>2020-06-20T15:44:38Z</time>
      </trkpt>
      <trkpt lat="43.80429" lon="5.96983">
        <ele>561.4</ele>
        <time>2020-06-20T15:44:39Z</time>
      </trkpt>
      <trkpt lat="43.80429" lon="5.96991">
        <ele>561.4</ele>
        <time>2020-06-20T15:44:41Z</time>
      </trkpt>
      <trkpt lat="43.80427" lon="5.96998">
        <ele>561.4</ele>
        <time>2020-06-20T15:44:42Z</time>
      </trkpt>
      <trkpt lat="43.80426" lon="5.97005">
        <ele>561.4</ele>
        <time>2020-06-20T15:44:44Z</time>
      </trkpt>
      <trkpt lat="43.80425" lon="5.97011">
        <ele>561.4</ele>
        <time>2020-06-20T15:44:45Z</time>
      </trkpt>
      <trkpt lat="43.80425" lon="5.97016">
        <ele>561.4</ele>
        <time>2020-06-20T15:44:46Z</time>
      </trkpt>
      <trkpt lat="43.80425" lon="5.97021">
        <ele>561.4</ele>
        <time>2020-06-20T15:44:47Z</time>
      </trkpt>
      <trkpt lat="43.80425" lon="5.97026">
        <ele>561.3</ele>
        <time>2020-06-20T15:44:49Z</time>
      </trkpt>
      <trkpt lat="43.80425" lon="5.97032">
        <ele>561</ele>
        <time>2020-06-20T15:44:50Z</time>
      </trkpt>
      <trkpt lat="43.80426" lon="5.97039">
        <ele>561</ele>
        <time>2020-06-20T15:44:51Z</time>
      </trkpt>
      <trkpt lat="43.80426" lon="5.97046">
        <ele>561</ele>
        <time>2020-06-20T15:44:53Z</time>
      </trkpt>
      <trkpt lat="43.80426" lon="5.9705">
        <ele>561</ele>
        <time>2020-06-20T15:44:54Z</time>
      </trkpt>
      <trkpt lat="43.80427" lon="5.97059">
        <ele>561</ele>
        <time>2020-06-20T15:44:56Z</time>
      </trkpt>
      <trkpt lat="43.80428" lon="5.97064">
        <ele>561</ele>
        <time>2020-06-20T15:44:57Z</time>
      </trkpt>
      <trkpt lat="43.80428" lon="5.97071">
        <ele>560.9</ele>
        <time>2020-06-20T15:44:58Z</time>
      </trkpt>
      <trkpt lat="43.80428" lon="5.97076">
        <ele>560.9</ele>
        <time>2020-06-20T15:44:59Z</time>
      </trkpt>
      <trkpt lat="43.80428" lon="5.97086">
        <ele>560.8</ele>
        <time>2020-06-20T15:45:01Z</time>
      </trkpt>
      <trkpt lat="43.80429" lon="5.97096">
        <ele>560.7</ele>
        <time>2020-06-20T15:45:02Z</time>
      </trkpt>
      <trkpt lat="43.80429" lon="5.97111">
        <ele>560.5</ele>
        <time>2020-06-20T15:45:04Z</time>
      </trkpt>
      <trkpt lat="43.80429" lon="5.97126">
        <ele>560.3</ele>
        <time>2020-06-20T15:45:06Z</time>
      </trkpt>
      <trkpt lat="43.80429" lon="5.9714">
        <ele>560.2</ele>
        <time>2020-06-20T15:45:08Z</time>
      </trkpt>
      <trkpt lat="43.8043" lon="5.97155">
        <ele>560</ele>
        <time>2020-06-20T15:45:10Z</time>
      </trkpt>
      <trkpt lat="43.8043" lon="5.97162">
        <ele>559.9</ele>
        <time>2020-06-20T15:45:11Z</time>
      </trkpt>
      <trkpt lat="43.80434" lon="5.97177">
        <ele>559.6</ele>
        <time>2020-06-20T15:45:13Z</time>
      </trkpt>
      <trkpt lat="43.80437" lon="5.97184">
        <ele>559.6</ele>
        <time>2020-06-20T15:45:14Z</time>
      </trkpt>
      <trkpt lat="43.8044" lon="5.9719">
        <ele>559.6</ele>
        <time>2020-06-20T15:45:15Z</time>
      </trkpt>
      <trkpt lat="43.80447" lon="5.97202">
        <ele>559.6</ele>
        <time>2020-06-20T15:45:17Z</time>
      </trkpt>
      <trkpt lat="43.80454" lon="5.97211">
        <ele>559.5</ele>
        <time>2020-06-20T15:45:19Z</time>
      </trkpt>
      <trkpt lat="43.80463" lon="5.9722">
        <ele>559.5</ele>
        <time>2020-06-20T15:45:21Z</time>
      </trkpt>
      <trkpt lat="43.80471" lon="5.97228">
        <ele>559.5</ele>
        <time>2020-06-20T15:45:23Z</time>
      </trkpt>
      <trkpt lat="43.8048" lon="5.97236">
        <ele>559.6</ele>
        <time>2020-06-20T15:45:25Z</time>
      </trkpt>
      <trkpt lat="43.80485" lon="5.9724">
        <ele>559.7</ele>
        <time>2020-06-20T15:45:26Z</time>
      </trkpt>
      <trkpt lat="43.8049" lon="5.97244">
        <ele>559.7</ele>
        <time>2020-06-20T15:45:27Z</time>
      </trkpt>
      <trkpt lat="43.80499" lon="5.97252">
        <ele>559.8</ele>
        <time>2020-06-20T15:45:29Z</time>
      </trkpt>
      <trkpt lat="43.80503" lon="5.97256">
        <ele>559.8</ele>
        <time>2020-06-20T15:45:30Z</time>
      </trkpt>
      <trkpt lat="43.80511" lon="5.97265">
        <ele>560</ele>
        <time>2020-06-20T15:45:32Z</time>
      </trkpt>
      <trkpt lat="43.80519" lon="5.97273">
        <ele>560.2</ele>
        <time>2020-06-20T15:45:34Z</time>
      </trkpt>
      <trkpt lat="43.80527" lon="5.97282">
        <ele>560.4</ele>
        <time>2020-06-20T15:45:36Z</time>
      </trkpt>
      <trkpt lat="43.80531" lon="5.97286">
        <ele>560.5</ele>
        <time>2020-06-20T15:45:37Z</time>
      </trkpt>
      <trkpt lat="43.80538" lon="5.97294">
        <ele>560.6</ele>
        <time>2020-06-20T15:45:39Z</time>
      </trkpt>
      <trkpt lat="43.80542" lon="5.97298">
        <ele>560.7</ele>
        <time>2020-06-20T15:45:40Z</time>
      </trkpt>
      <trkpt lat="43.80549" lon="5.97306">
        <ele>560.9</ele>
        <time>2020-06-20T15:45:42Z</time>
      </trkpt>
      <trkpt lat="43.80556" lon="5.97315">
        <ele>561</ele>
        <time>2020-06-20T15:45:44Z</time>
      </trkpt>
      <trkpt lat="43.8056" lon="5.97319">
        <ele>561</ele>
        <time>2020-06-20T15:45:45Z</time>
      </trkpt>
      <trkpt lat="43.80568" lon="5.97328">
        <ele>561.1</ele>
        <time>2020-06-20T15:45:47Z</time>
      </trkpt>
      <trkpt lat="43.80572" lon="5.97332">
        <ele>561.1</ele>
        <time>2020-06-20T15:45:48Z</time>
      </trkpt>
      <trkpt lat="43.80579" lon="5.9734">
        <ele>561.2</ele>
        <time>2020-06-20T15:45:50Z</time>
      </trkpt>
      <trkpt lat="43.80586" lon="5.97347">
        <ele>561.3</ele>
        <time>2020-06-20T15:45:52Z</time>
      </trkpt>
      <trkpt lat="43.80593" lon="5.97354">
        <ele>561.4</ele>
        <time>2020-06-20T15:45:54Z</time>
      </trkpt>
      <trkpt lat="43.806" lon="5.97363">
        <ele>561.4</ele>
        <time>2020-06-20T15:45:56Z</time>
      </trkpt>
      <trkpt lat="43.80607" lon="5.97371">
        <ele>561.4</ele>
        <time>2020-06-20T15:45:58Z</time>
      </trkpt>
      <trkpt lat="43.80611" lon="5.97375">
        <ele>561.4</ele>
        <time>2020-06-20T15:45:59Z</time>
      </trkpt>
      <trkpt lat="43.80615" lon="5.97379">
        <ele>561.4</ele>
        <time>2020-06-20T15:46:00Z</time>
      </trkpt>
      <trkpt lat="43.80619" lon="5.97383">
        <ele>561.4</ele>
        <time>2020-06-20T15:46:01Z</time>
      </trkpt>
      <trkpt lat="43.80623" lon="5.97388">
        <ele>561.4</ele>
        <time>2020-06-20T15:46:02Z</time>
      </trkpt>
      <trkpt lat="43.8063" lon="5.97396">
        <ele>561.3</ele>
        <time>2020-06-20T15:46:04Z</time>
      </trkpt>
      <trkpt lat="43.80638" lon="5.97406">
        <ele>561.3</ele>
        <time>2020-06-20T15:46:06Z</time>
      </trkpt>
      <trkpt lat="43.80646" lon="5.97416">
        <ele>561.2</ele>
        <time>2020-06-20T15:46:08Z</time>
      </trkpt>
      <trkpt lat="43.80653" lon="5.97424">
        <ele>561.1</ele>
        <time>2020-06-20T15:46:10Z</time>
      </trkpt>
      <trkpt lat="43.80657" lon="5.97429">
        <ele>561</ele>
        <time>2020-06-20T15:46:11Z</time>
      </trkpt>
      <trkpt lat="43.8066" lon="5.97433">
        <ele>561</ele>
        <time>2020-06-20T15:46:12Z</time>
      </trkpt>
      <trkpt lat="43.80667" lon="5.97443">
        <ele>560.9</ele>
        <time>2020-06-20T15:46:14Z</time>
      </trkpt>
      <trkpt lat="43.80671" lon="5.97447">
        <ele>560.9</ele>
        <time>2020-06-20T15:46:15Z</time>
      </trkpt>
      <trkpt lat="43.80678" lon="5.97454">
        <ele>560.8</ele>
        <time>2020-06-20T15:46:17Z</time>
      </trkpt>
      <trkpt lat="43.80686" lon="5.97462">
        <ele>560.8</ele>
        <time>2020-06-20T15:46:19Z</time>
      </trkpt>
      <trkpt lat="43.80693" lon="5.97468">
        <ele>560.9</ele>
        <time>2020-06-20T15:46:21Z</time>
      </trkpt>
      <trkpt lat="43.80697" lon="5.97472">
        <ele>561</ele>
        <time>2020-06-20T15:46:22Z</time>
      </trkpt>
      <trkpt lat="43.807" lon="5.97475">
        <ele>561</ele>
        <time>2020-06-20T15:46:23Z</time>
      </trkpt>
      <trkpt lat="43.80707" lon="5.97481">
        <ele>561.2</ele>
        <time>2020-06-20T15:46:25Z</time>
      </trkpt>
      <trkpt lat="43.80712" lon="5.97487">
        <ele>561.4</ele>
        <time>2020-06-20T15:46:27Z</time>
      </trkpt>
      <trkpt lat="43.80716" lon="5.97492">
        <ele>561.5</ele>
        <time>2020-06-20T15:46:29Z</time>
      </trkpt>
      <trkpt lat="43.80721" lon="5.97497">
        <ele>561.6</ele>
        <time>2020-06-20T15:46:30Z</time>
      </trkpt>
      <trkpt lat="43.80728" lon="5.97504">
        <ele>561.6</ele>
        <time>2020-06-20T15:46:32Z</time>
      </trkpt>
      <trkpt lat="43.80733" lon="5.97509">
        <ele>561.7</ele>
        <time>2020-06-20T15:46:33Z</time>
      </trkpt>
      <trkpt lat="43.80736" lon="5.97513">
        <ele>561.7</ele>
        <time>2020-06-20T15:46:34Z</time>
      </trkpt>
      <trkpt lat="43.8074" lon="5.97517">
        <ele>561.8</ele>
        <time>2020-06-20T15:46:36Z</time>
      </trkpt>
      <trkpt lat="43.80744" lon="5.97522">
        <ele>561.9</ele>
        <time>2020-06-20T15:46:37Z</time>
      </trkpt>
      <trkpt lat="43.80749" lon="5.97526">
        <ele>562.1</ele>
        <time>2020-06-20T15:46:39Z</time>
      </trkpt>
      <trkpt lat="43.80753" lon="5.9753">
        <ele>562.3</ele>
        <time>2020-06-20T15:46:40Z</time>
      </trkpt>
      <trkpt lat="43.80758" lon="5.97534">
        <ele>562.5</ele>
        <time>2020-06-20T15:46:41Z</time>
      </trkpt>
      <trkpt lat="43.80762" lon="5.97539">
        <ele>562.7</ele>
        <time>2020-06-20T15:46:43Z</time>
      </trkpt>
      <trkpt lat="43.80765" lon="5.97542">
        <ele>562.8</ele>
        <time>2020-06-20T15:46:44Z</time>
      </trkpt>
      <trkpt lat="43.80771" lon="5.97548">
        <ele>563.1</ele>
        <time>2020-06-20T15:46:46Z</time>
      </trkpt>
      <trkpt lat="43.80774" lon="5.97552">
        <ele>563.3</ele>
        <time>2020-06-20T15:46:47Z</time>
      </trkpt>
      <trkpt lat="43.80778" lon="5.97556">
        <ele>563.5</ele>
        <time>2020-06-20T15:46:48Z</time>
      </trkpt>
      <trkpt lat="43.80781" lon="5.97559">
        <ele>563.7</ele>
        <time>2020-06-20T15:46:50Z</time>
      </trkpt>
      <trkpt lat="43.80785" lon="5.97563">
        <ele>563.9</ele>
        <time>2020-06-20T15:46:51Z</time>
      </trkpt>
      <trkpt lat="43.80789" lon="5.97566">
        <ele>564.1</ele>
        <time>2020-06-20T15:46:52Z</time>
      </trkpt>
      <trkpt lat="43.80793" lon="5.9757">
        <ele>564.3</ele>
        <time>2020-06-20T15:46:53Z</time>
      </trkpt>
      <trkpt lat="43.80797" lon="5.97576">
        <ele>564.6</ele>
        <time>2020-06-20T15:46:55Z</time>
      </trkpt>
      <trkpt lat="43.80802" lon="5.97581">
        <ele>564.8</ele>
        <time>2020-06-20T15:46:56Z</time>
      </trkpt>
      <trkpt lat="43.80807" lon="5.97587">
        <ele>565.1</ele>
        <time>2020-06-20T15:46:58Z</time>
      </trkpt>
      <trkpt lat="43.80812" lon="5.97593">
        <ele>565.3</ele>
        <time>2020-06-20T15:47:00Z</time>
      </trkpt>
      <trkpt lat="43.80816" lon="5.97596">
        <ele>565.5</ele>
        <time>2020-06-20T15:47:01Z</time>
      </trkpt>
      <trkpt lat="43.8082" lon="5.97601">
        <ele>565.6</ele>
        <time>2020-06-20T15:47:03Z</time>
      </trkpt>
      <trkpt lat="43.80824" lon="5.97605">
        <ele>565.7</ele>
        <time>2020-06-20T15:47:04Z</time>
      </trkpt>
      <trkpt lat="43.80828" lon="5.97608">
        <ele>565.8</ele>
        <time>2020-06-20T15:47:05Z</time>
      </trkpt>
      <trkpt lat="43.80832" lon="5.97613">
        <ele>565.9</ele>
        <time>2020-06-20T15:47:06Z</time>
      </trkpt>
      <trkpt lat="43.80836" lon="5.97618">
        <ele>566.1</ele>
        <time>2020-06-20T15:47:08Z</time>
      </trkpt>
      <trkpt lat="43.80839" lon="5.97621">
        <ele>566.2</ele>
        <time>2020-06-20T15:47:09Z</time>
      </trkpt>
      <trkpt lat="43.80844" lon="5.97627">
        <ele>566.4</ele>
        <time>2020-06-20T15:47:11Z</time>
      </trkpt>
      <trkpt lat="43.80847" lon="5.9763">
        <ele>566.5</ele>
        <time>2020-06-20T15:47:12Z</time>
      </trkpt>
      <trkpt lat="43.80851" lon="5.97634">
        <ele>566.6</ele>
        <time>2020-06-20T15:47:13Z</time>
      </trkpt>
      <trkpt lat="43.80854" lon="5.97639">
        <ele>566.7</ele>
        <time>2020-06-20T15:47:15Z</time>
      </trkpt>
      <trkpt lat="43.80857" lon="5.97643">
        <ele>566.7</ele>
        <time>2020-06-20T15:47:16Z</time>
      </trkpt>
      <trkpt lat="43.8086" lon="5.97646">
        <ele>566.8</ele>
        <time>2020-06-20T15:47:17Z</time>
      </trkpt>
      <trkpt lat="43.80863" lon="5.9765">
        <ele>566.8</ele>
        <time>2020-06-20T15:47:18Z</time>
      </trkpt>
      <trkpt lat="43.80868" lon="5.97656">
        <ele>566.9</ele>
        <time>2020-06-20T15:47:20Z</time>
      </trkpt>
      <trkpt lat="43.80871" lon="5.9766">
        <ele>566.9</ele>
        <time>2020-06-20T15:47:21Z</time>
      </trkpt>
      <trkpt lat="43.80873" lon="5.97663">
        <ele>567</ele>
        <time>2020-06-20T15:47:22Z</time>
      </trkpt>
      <trkpt lat="43.80878" lon="5.97668">
        <ele>567.1</ele>
        <time>2020-06-20T15:47:23Z</time>
      </trkpt>
      <trkpt lat="43.80882" lon="5.97672">
        <ele>567.2</ele>
        <time>2020-06-20T15:47:25Z</time>
      </trkpt>
      <trkpt lat="43.80886" lon="5.97676">
        <ele>567.3</ele>
        <time>2020-06-20T15:47:26Z</time>
      </trkpt>
      <trkpt lat="43.80889" lon="5.97681">
        <ele>567.3</ele>
        <time>2020-06-20T15:47:27Z</time>
      </trkpt>
      <trkpt lat="43.80892" lon="5.97684">
        <ele>567.4</ele>
        <time>2020-06-20T15:47:28Z</time>
      </trkpt>
      <trkpt lat="43.80895" lon="5.97689">
        <ele>567.5</ele>
        <time>2020-06-20T15:47:30Z</time>
      </trkpt>
      <trkpt lat="43.80899" lon="5.97692">
        <ele>567.5</ele>
        <time>2020-06-20T15:47:31Z</time>
      </trkpt>
      <trkpt lat="43.80902" lon="5.97696">
        <ele>567.6</ele>
        <time>2020-06-20T15:47:32Z</time>
      </trkpt>
      <trkpt lat="43.80907" lon="5.97698">
        <ele>567.6</ele>
        <time>2020-06-20T15:47:34Z</time>
      </trkpt>
      <trkpt lat="43.80909" lon="5.97695">
        <ele>567.6</ele>
        <time>2020-06-20T15:47:36Z</time>
      </trkpt>
      <trkpt lat="43.80909" lon="5.97694">
        <ele>567.7</ele>
        <time>2020-06-20T15:47:37Z</time>
      </trkpt>
      <trkpt lat="43.80909" lon="5.97693">
        <ele>567.7</ele>
        <time>2020-06-20T15:47:38Z</time>
      </trkpt>
      <trkpt lat="43.80908" lon="5.97692">
        <ele>567.7</ele>
        <time>2020-06-20T15:47:39Z</time>
      </trkpt>
      <trkpt lat="43.80908" lon="5.97692">
        <ele>567.7</ele>
        <time>2020-06-20T15:47:41Z</time>
      </trkpt>
      <trkpt lat="43.80907" lon="5.9769">
        <ele>567.7</ele>
        <time>2020-06-20T15:47:43Z</time>
      </trkpt>
      <trkpt lat="43.80907" lon="5.97689">
        <ele>567.7</ele>
        <time>2020-06-20T15:47:45Z</time>
      </trkpt>
      <trkpt lat="43.80906" lon="5.97688">
        <ele>567.7</ele>
        <time>2020-06-20T15:47:47Z</time>
      </trkpt>
      <trkpt lat="43.80906" lon="5.97687">
        <ele>567.7</ele>
        <time>2020-06-20T15:47:48Z</time>
      </trkpt>
      <trkpt lat="43.80906" lon="5.97687">
        <ele>567.7</ele>
        <time>2020-06-20T15:47:50Z</time>
      </trkpt>
      <trkpt lat="43.80906" lon="5.97686">
        <ele>567.7</ele>
        <time>2020-06-20T15:47:51Z</time>
      </trkpt>
      <trkpt lat="43.80907" lon="5.97685">
        <ele>567.7</ele>
        <time>2020-06-20T15:47:53Z</time>
      </trkpt>
      <trkpt lat="43.80907" lon="5.97684">
        <ele>567.7</ele>
        <time>2020-06-20T15:47:54Z</time>
      </trkpt>
      <trkpt lat="43.80908" lon="5.97682">
        <ele>567.7</ele>
        <time>2020-06-20T15:47:55Z</time>
      </trkpt>
      <trkpt lat="43.80908" lon="5.97682">
        <ele>567.7</ele>
        <time>2020-06-20T15:47:56Z</time>
      </trkpt>
      <trkpt lat="43.80908" lon="5.97681">
        <ele>567.7</ele>
        <time>2020-06-20T15:47:57Z</time>
      </trkpt>
      <trkpt lat="43.80907" lon="5.97682">
        <ele>567.7</ele>
        <time>2020-06-20T15:48:00Z</time>
      </trkpt>
      <trkpt lat="43.80907" lon="5.97682">
        <ele>567.7</ele>
        <time>2020-06-20T15:48:01Z</time>
      </trkpt>
      <trkpt lat="43.80907" lon="5.97682">
        <ele>567.7</ele>
        <time>2020-06-20T15:48:03Z</time>
      </trkpt>
      <trkpt lat="43.80907" lon="5.97682">
        <ele>567.7</ele>
        <time>2020-06-20T15:48:04Z</time>
      </trkpt>
      <trkpt lat="43.80908" lon="5.97681">
        <ele>567.6</ele>
        <time>2020-06-20T15:48:05Z</time>
      </trkpt>
      <trkpt lat="43.80909" lon="5.9768">
        <ele>567.6</ele>
        <time>2020-06-20T15:48:06Z</time>
      </trkpt>
      <trkpt lat="43.80908" lon="5.9768">
        <ele>567.6</ele>
        <time>2020-06-20T15:48:07Z</time>
      </trkpt>
      <trkpt lat="43.80908" lon="5.9768">
        <ele>567.6</ele>
        <time>2020-06-20T15:48:09Z</time>
      </trkpt>
      <trkpt lat="43.80907" lon="5.9768">
        <ele>567.6</ele>
        <time>2020-06-20T15:48:10Z</time>
      </trkpt>
      <trkpt lat="43.80907" lon="5.9768">
        <ele>567.6</ele>
        <time>2020-06-20T15:48:11Z</time>
      </trkpt>
      <trkpt lat="43.80907" lon="5.97679">
        <ele>567.6</ele>
        <time>2020-06-20T15:48:12Z</time>
      </trkpt>
      <trkpt lat="43.80907" lon="5.97679">
        <ele>567.6</ele>
        <time>2020-06-20T15:48:13Z</time>
      </trkpt>
      <trkpt lat="43.80907" lon="5.97679">
        <ele>567.6</ele>
        <time>2020-06-20T15:48:14Z</time>
      </trkpt>
      <trkpt lat="43.80908" lon="5.97679">
        <ele>567.6</ele>
        <time>2020-06-20T15:48:16Z</time>
      </trkpt>
      <trkpt lat="43.80907" lon="5.97679">
        <ele>567.6</ele>
        <time>2020-06-20T15:48:17Z</time>
      </trkpt>
      <trkpt lat="43.80907" lon="5.97681">
        <ele>567.6</ele>
        <time>2020-06-20T15:48:19Z</time>
      </trkpt>
      <trkpt lat="43.80906" lon="5.97682">
        <ele>567.6</ele>
        <time>2020-06-20T15:48:21Z</time>
      </trkpt>
      <trkpt lat="43.80906" lon="5.97682">
        <ele>567.6</ele>
        <time>2020-06-20T15:48:22Z</time>
      </trkpt>
      <trkpt lat="43.80907" lon="5.97684">
        <ele>567.6</ele>
        <time>2020-06-20T15:48:23Z</time>
      </trkpt>
      <trkpt lat="43.80907" lon="5.97687">
        <ele>567.5</ele>
        <time>2020-06-20T15:48:25Z</time>
      </trkpt>
      <trkpt lat="43.80908" lon="5.97688">
        <ele>567.5</ele>
        <time>2020-06-20T15:48:26Z</time>
      </trkpt>
      <trkpt lat="43.80908" lon="5.9769">
        <ele>567.5</ele>
        <time>2020-06-20T15:48:28Z</time>
      </trkpt>
      <trkpt lat="43.80908" lon="5.9769">
        <ele>567.5</ele>
        <time>2020-06-20T15:48:30Z</time>
      </trkpt>
      <trkpt lat="43.80908" lon="5.97691">
        <ele>567.5</ele>
        <time>2020-06-20T15:48:31Z</time>
      </trkpt>
      <trkpt lat="43.80908" lon="5.97692">
        <ele>567.5</ele>
        <time>2020-06-20T15:48:33Z</time>
      </trkpt>
      <trkpt lat="43.80908" lon="5.97693">
        <ele>567.5</ele>
        <time>2020-06-20T15:48:34Z</time>
      </trkpt>
      <trkpt lat="43.80909" lon="5.97694">
        <ele>567.5</ele>
        <time>2020-06-20T15:48:35Z</time>
      </trkpt>
      <trkpt lat="43.80909" lon="5.97694">
        <ele>567.5</ele>
        <time>2020-06-20T15:48:37Z</time>
      </trkpt>
      <trkpt lat="43.80909" lon="5.97694">
        <ele>567.5</ele>
        <time>2020-06-20T15:48:38Z</time>
      </trkpt>
      <trkpt lat="43.80909" lon="5.97695">
        <ele>567.5</ele>
        <time>2020-06-20T15:48:39Z</time>
      </trkpt>
      <trkpt lat="43.80909" lon="5.97695">
        <ele>567.5</ele>
        <time>2020-06-20T15:48:41Z</time>
      </trkpt>
      <trkpt lat="43.80909" lon="5.97696">
        <ele>567.5</ele>
        <time>2020-06-20T15:48:43Z</time>
      </trkpt>
      <trkpt lat="43.80909" lon="5.97696">
        <ele>567.5</ele>
        <time>2020-06-20T15:48:45Z</time>
      </trkpt>
      <trkpt lat="43.80909" lon="5.97696">
        <ele>567.5</ele>
        <time>2020-06-20T15:48:46Z</time>
      </trkpt>
      <trkpt lat="43.80909" lon="5.97696">
        <ele>567.5</ele>
        <time>2020-06-20T15:48:48Z</time>
      </trkpt>
      <trkpt lat="43.8091" lon="5.97696">
        <ele>567.5</ele>
        <time>2020-06-20T15:48:50Z</time>
      </trkpt>
      <trkpt lat="43.8091" lon="5.97696">
        <ele>567.4</ele>
        <time>2020-06-20T15:48:52Z</time>
      </trkpt>
      <trkpt lat="43.8091" lon="5.97696">
        <ele>567.4</ele>
        <time>2020-06-20T15:48:53Z</time>
      </trkpt>
      <trkpt lat="43.80908" lon="5.97696">
        <ele>567.4</ele>
        <time>2020-06-20T15:48:55Z</time>
      </trkpt>
      <trkpt lat="43.80907" lon="5.97696">
        <ele>567.4</ele>
        <time>2020-06-20T15:48:56Z</time>
      </trkpt>
      <trkpt lat="43.80907" lon="5.97696">
        <ele>567.4</ele>
        <time>2020-06-20T15:48:58Z</time>
      </trkpt>
      <trkpt lat="43.80907" lon="5.97696">
        <ele>567.4</ele>
        <time>2020-06-20T15:49:00Z</time>
      </trkpt>
      <trkpt lat="43.80907" lon="5.97696">
        <ele>567.4</ele>
        <time>2020-06-20T15:49:01Z</time>
      </trkpt>
      <trkpt lat="43.80907" lon="5.97696">
        <ele>567.4</ele>
        <time>2020-06-20T15:49:03Z</time>
      </trkpt>
      <trkpt lat="43.80908" lon="5.97698">
        <ele>567.4</ele>
        <time>2020-06-20T15:49:22Z</time>
      </trkpt>
      <trkpt lat="43.80909" lon="5.977">
        <ele>567.4</ele>
        <time>2020-06-20T15:49:23Z</time>
      </trkpt>
      <trkpt lat="43.8091" lon="5.97704">
        <ele>567.4</ele>
        <time>2020-06-20T15:49:25Z</time>
      </trkpt>
      <trkpt lat="43.80915" lon="5.97719">
        <ele>567.1</ele>
        <time>2020-06-20T15:49:26Z</time>
      </trkpt>
      <trkpt lat="43.80918" lon="5.97726">
        <ele>567</ele>
        <time>2020-06-20T15:49:27Z</time>
      </trkpt>
      <trkpt lat="43.80924" lon="5.9774">
        <ele>566.9</ele>
        <time>2020-06-20T15:49:29Z</time>
      </trkpt>
      <trkpt lat="43.80929" lon="5.97752">
        <ele>566.8</ele>
        <time>2020-06-20T15:49:31Z</time>
      </trkpt>
      <trkpt lat="43.80938" lon="5.97761">
        <ele>566.6</ele>
        <time>2020-06-20T15:49:33Z</time>
      </trkpt>
      <trkpt lat="43.80945" lon="5.97766">
        <ele>566.5</ele>
        <time>2020-06-20T15:49:34Z</time>
      </trkpt>
      <trkpt lat="43.8095" lon="5.97766">
        <ele>566.4</ele>
        <time>2020-06-20T15:49:36Z</time>
      </trkpt>
      <trkpt lat="43.8095" lon="5.97762">
        <ele>566.4</ele>
        <time>2020-06-20T15:49:37Z</time>
      </trkpt>
      <trkpt lat="43.80954" lon="5.97763">
        <ele>566.4</ele>
        <time>2020-06-20T15:49:39Z</time>
      </trkpt>
      <trkpt lat="43.80956" lon="5.97764">
        <ele>566.4</ele>
        <time>2020-06-20T15:49:40Z</time>
      </trkpt>
      <trkpt lat="43.80967" lon="5.97769">
        <ele>566.3</ele>
        <time>2020-06-20T15:49:42Z</time>
      </trkpt>
      <trkpt lat="43.80971" lon="5.9777">
        <ele>566.3</ele>
        <time>2020-06-20T15:49:43Z</time>
      </trkpt>
      <trkpt lat="43.80972" lon="5.9777">
        <ele>566.3</ele>
        <time>2020-06-20T15:49:44Z</time>
      </trkpt>
      <trkpt lat="43.80973" lon="5.9777">
        <ele>566.2</ele>
        <time>2020-06-20T15:49:45Z</time>
      </trkpt>
      <trkpt lat="43.80973" lon="5.97771">
        <ele>566.2</ele>
        <time>2020-06-20T15:49:47Z</time>
      </trkpt>
      <trkpt lat="43.80973" lon="5.97771">
        <ele>566.2</ele>
        <time>2020-06-20T15:49:48Z</time>
      </trkpt>
      <trkpt lat="43.80974" lon="5.97771">
        <ele>566.2</ele>
        <time>2020-06-20T15:49:50Z</time>
      </trkpt>
      <trkpt lat="43.80975" lon="5.97772">
        <ele>566.2</ele>
        <time>2020-06-20T15:49:51Z</time>
      </trkpt>
      <trkpt lat="43.80976" lon="5.97772">
        <ele>566.2</ele>
        <time>2020-06-20T15:49:54Z</time>
      </trkpt>
      <trkpt lat="43.80975" lon="5.97767">
        <ele>566.1</ele>
        <time>2020-06-20T15:50:51Z</time>
      </trkpt>
      <trkpt lat="43.80974" lon="5.97763">
        <ele>566.1</ele>
        <time>2020-06-20T15:50:52Z</time>
      </trkpt>
      <trkpt lat="43.80973" lon="5.97761">
        <ele>566</ele>
        <time>2020-06-20T15:50:53Z</time>
      </trkpt>
      <trkpt lat="43.80973" lon="5.97761">
        <ele>566</ele>
        <time>2020-06-20T15:50:55Z</time>
      </trkpt>
      <trkpt lat="43.80974" lon="5.97761">
        <ele>566</ele>
        <time>2020-06-20T15:50:56Z</time>
      </trkpt>
      <trkpt lat="43.80974" lon="5.97761">
        <ele>566</ele>
        <time>2020-06-20T15:50:57Z</time>
      </trkpt>
      <trkpt lat="43.80974" lon="5.97761">
        <ele>566</ele>
        <time>2020-06-20T15:50:58Z</time>
      </trkpt>
      <trkpt lat="43.80974" lon="5.97761">
        <ele>566</ele>
        <time>2020-06-20T15:50:59Z</time>
      </trkpt>
      <trkpt lat="43.80974" lon="5.97761">
        <ele>566</ele>
        <time>2020-06-20T15:51:00Z</time>
      </trkpt>
      <trkpt lat="43.80974" lon="5.97761">
        <ele>566</ele>
        <time>2020-06-20T15:51:02Z</time>
      </trkpt>
      <trkpt lat="43.80975" lon="5.97761">
        <ele>566</ele>
        <time>2020-06-20T15:51:03Z</time>
      </trkpt>
      <trkpt lat="43.80975" lon="5.97761">
        <ele>566</ele>
        <time>2020-06-20T15:51:04Z</time>
      </trkpt>
      <trkpt lat="43.80975" lon="5.97761">
        <ele>566</ele>
        <time>2020-06-20T15:51:06Z</time>
      </trkpt>
      <trkpt lat="43.80975" lon="5.97761">
        <ele>566</ele>
        <time>2020-06-20T15:51:07Z</time>
      </trkpt>
      <trkpt lat="43.80975" lon="5.97761">
        <ele>566</ele>
        <time>2020-06-20T15:51:09Z</time>
      </trkpt>
      <trkpt lat="43.80975" lon="5.97761">
        <ele>566</ele>
        <time>2020-06-20T15:51:11Z</time>
      </trkpt>
      <trkpt lat="43.80975" lon="5.97761">
        <ele>566</ele>
        <time>2020-06-20T15:51:12Z</time>
      </trkpt>
      <trkpt lat="43.80976" lon="5.97761">
        <ele>566</ele>
        <time>2020-06-20T15:51:13Z</time>
      </trkpt>
      <trkpt lat="43.80976" lon="5.97761">
        <ele>566</ele>
        <time>2020-06-20T15:51:15Z</time>
      </trkpt>
      <trkpt lat="43.80976" lon="5.97761">
        <ele>566</ele>
        <time>2020-06-20T15:51:38Z</time>
      </trkpt>
      <trkpt lat="43.80976" lon="5.97761">
        <ele>566</ele>
        <time>2020-06-20T15:51:39Z</time>
      </trkpt>
      <trkpt lat="43.80976" lon="5.97761">
        <ele>566</ele>
        <time>2020-06-20T15:51:41Z</time>
      </trkpt>
      <trkpt lat="43.80976" lon="5.97761">
        <ele>566</ele>
        <time>2020-06-20T15:51:43Z</time>
      </trkpt>
      <trkpt lat="43.80976" lon="5.97761">
        <ele>566</ele>
        <time>2020-06-20T15:51:44Z</time>
      </trkpt>
      <trkpt lat="43.80977" lon="5.97761">
        <ele>566</ele>
        <time>2020-06-20T15:51:45Z</time>
      </trkpt>
      <trkpt lat="43.80977" lon="5.97761">
        <ele>566</ele>
        <time>2020-06-20T15:51:47Z</time>
      </trkpt>
      <trkpt lat="43.80977" lon="5.97761">
        <ele>566</ele>
        <time>2020-06-20T15:51:48Z</time>
      </trkpt>
      <trkpt lat="43.80977" lon="5.97761">
        <ele>566</ele>
        <time>2020-06-20T15:51:50Z</time>
      </trkpt>
      <trkpt lat="43.80977" lon="5.97761">
        <ele>566</ele>
        <time>2020-06-20T15:51:52Z</time>
      </trkpt>
      <trkpt lat="43.80977" lon="5.97761">
        <ele>566</ele>
        <time>2020-06-20T15:51:53Z</time>
      </trkpt>
      <trkpt lat="43.80978" lon="5.97761">
        <ele>566</ele>
        <time>2020-06-20T15:51:55Z</time>
      </trkpt>
      <trkpt lat="43.80978" lon="5.97761">
        <ele>566</ele>
        <time>2020-06-20T15:51:56Z</time>
      </trkpt>
      <trkpt lat="43.80978" lon="5.97762">
        <ele>566</ele>
        <time>2020-06-20T15:51:58Z</time>
      </trkpt>
      <trkpt lat="43.80978" lon="5.97762">
        <ele>566</ele>
        <time>2020-06-20T15:51:59Z</time>
      </trkpt>
      <trkpt lat="43.80978" lon="5.97762">
        <ele>566</ele>
        <time>2020-06-20T15:52:00Z</time>
      </trkpt>
      <trkpt lat="43.80978" lon="5.97762">
        <ele>566</ele>
        <time>2020-06-20T15:52:01Z</time>
      </trkpt>
      <trkpt lat="43.80978" lon="5.97762">
        <ele>566</ele>
        <time>2020-06-20T15:52:04Z</time>
      </trkpt>
      <trkpt lat="43.80979" lon="5.97762">
        <ele>566</ele>
        <time>2020-06-20T15:52:06Z</time>
      </trkpt>
      <trkpt lat="43.80979" lon="5.97762">
        <ele>566</ele>
        <time>2020-06-20T15:52:08Z</time>
      </trkpt>
      <trkpt lat="43.80979" lon="5.97762">
        <ele>566</ele>
        <time>2020-06-20T15:52:10Z</time>
      </trkpt>
      <trkpt lat="43.80979" lon="5.97762">
        <ele>566</ele>
        <time>2020-06-20T15:52:11Z</time>
      </trkpt>
      <trkpt lat="43.80979" lon="5.97762">
        <ele>566</ele>
        <time>2020-06-20T15:52:13Z</time>
      </trkpt>
      <trkpt lat="43.80979" lon="5.97762">
        <ele>566</ele>
        <time>2020-06-20T15:52:14Z</time>
      </trkpt>
      <trkpt lat="43.80979" lon="5.97762">
        <ele>566</ele>
        <time>2020-06-20T15:52:16Z</time>
      </trkpt>
      <trkpt lat="43.8098" lon="5.97762">
        <ele>566</ele>
        <time>2020-06-20T15:52:18Z</time>
      </trkpt>
      <trkpt lat="43.8098" lon="5.97762">
        <ele>566</ele>
        <time>2020-06-20T15:52:20Z</time>
      </trkpt>
      <trkpt lat="43.8098" lon="5.97762">
        <ele>566</ele>
        <time>2020-06-20T15:52:22Z</time>
      </trkpt>
      <trkpt lat="43.8098" lon="5.97762">
        <ele>566</ele>
        <time>2020-06-20T15:52:32Z</time>
      </trkpt>
      <trkpt lat="43.8098" lon="5.97762">
        <ele>566</ele>
        <time>2020-06-20T15:52:33Z</time>
      </trkpt>
      <trkpt lat="43.8098" lon="5.97762">
        <ele>566</ele>
        <time>2020-06-20T15:52:34Z</time>
      </trkpt>
      <trkpt lat="43.80981" lon="5.97762">
        <ele>566</ele>
        <time>2020-06-20T15:52:36Z</time>
      </trkpt>
      <trkpt lat="43.80981" lon="5.97762">
        <ele>566</ele>
        <time>2020-06-20T15:52:37Z</time>
      </trkpt>
      <trkpt lat="43.80981" lon="5.97762">
        <ele>566</ele>
        <time>2020-06-20T15:52:38Z</time>
      </trkpt>
      <trkpt lat="43.80989" lon="5.97758">
        <ele>566</ele>
        <time>2020-06-20T15:52:40Z</time>
      </trkpt>
      <trkpt lat="43.80992" lon="5.97755">
        <ele>565.9</ele>
        <time>2020-06-20T15:52:41Z</time>
      </trkpt>
      <trkpt lat="43.80995" lon="5.97753">
        <ele>565.8</ele>
        <time>2020-06-20T15:52:42Z</time>
      </trkpt>
      <trkpt lat="43.80998" lon="5.9775">
        <ele>565.7</ele>
        <time>2020-06-20T15:52:43Z</time>
      </trkpt>
      <trkpt lat="43.81002" lon="5.97746">
        <ele>565.5</ele>
        <time>2020-06-20T15:52:44Z</time>
      </trkpt>
      <trkpt lat="43.81011" lon="5.9774">
        <ele>565.1</ele>
        <time>2020-06-20T15:52:46Z</time>
      </trkpt>
      <trkpt lat="43.81013" lon="5.97738">
        <ele>565</ele>
        <time>2020-06-20T15:52:47Z</time>
      </trkpt>
      <trkpt lat="43.81017" lon="5.97735">
        <ele>564.8</ele>
        <time>2020-06-20T15:52:48Z</time>
      </trkpt>
      <trkpt lat="43.81022" lon="5.97731">
        <ele>564.5</ele>
        <time>2020-06-20T15:52:49Z</time>
      </trkpt>
      <trkpt lat="43.81025" lon="5.97729">
        <ele>564.3</ele>
        <time>2020-06-20T15:52:50Z</time>
      </trkpt>
      <trkpt lat="43.81028" lon="5.97726">
        <ele>564.1</ele>
        <time>2020-06-20T15:52:52Z</time>
      </trkpt>
      <trkpt lat="43.81029" lon="5.97725">
        <ele>564</ele>
        <time>2020-06-20T15:52:53Z</time>
      </trkpt>
      <trkpt lat="43.8103" lon="5.97725">
        <ele>564</ele>
        <time>2020-06-20T15:52:55Z</time>
      </trkpt>
      <trkpt lat="43.81031" lon="5.97724">
        <ele>563.9</ele>
        <time>2020-06-20T15:52:56Z</time>
      </trkpt>
      <trkpt lat="43.81032" lon="5.97724">
        <ele>563.9</ele>
        <time>2020-06-20T15:52:58Z</time>
      </trkpt>
      <trkpt lat="43.81033" lon="5.97723">
        <ele>563.9</ele>
        <time>2020-06-20T15:52:59Z</time>
      </trkpt>
      <trkpt lat="43.81034" lon="5.97723">
        <ele>563.8</ele>
        <time>2020-06-20T15:53:00Z</time>
      </trkpt>
      <trkpt lat="43.81035" lon="5.97722">
        <ele>563.8</ele>
        <time>2020-06-20T15:53:02Z</time>
      </trkpt>
      <trkpt lat="43.81036" lon="5.97722">
        <ele>563.7</ele>
        <time>2020-06-20T15:53:15Z</time>
      </trkpt>
      <trkpt lat="43.81036" lon="5.97722">
        <ele>563.7</ele>
        <time>2020-06-20T15:53:16Z</time>
      </trkpt>
      <trkpt lat="43.81047" lon="5.97716">
        <ele>563</ele>
        <time>2020-06-20T15:53:18Z</time>
      </trkpt>
      <trkpt lat="43.81053" lon="5.97714">
        <ele>562.5</ele>
        <time>2020-06-20T15:53:19Z</time>
      </trkpt>
      <trkpt lat="43.81066" lon="5.97711">
        <ele>561.7</ele>
        <time>2020-06-20T15:53:21Z</time>
      </trkpt>
      <trkpt lat="43.81073" lon="5.9771">
        <ele>561.3</ele>
        <time>2020-06-20T15:53:22Z</time>
      </trkpt>
      <trkpt lat="43.81084" lon="5.97708">
        <ele>560.5</ele>
        <time>2020-06-20T15:53:24Z</time>
      </trkpt>
      <trkpt lat="43.81088" lon="5.97708">
        <ele>560.2</ele>
        <time>2020-06-20T15:53:26Z</time>
      </trkpt>
      <trkpt lat="43.81088" lon="5.97708">
        <ele>560.2</ele>
        <time>2020-06-20T15:53:27Z</time>
      </trkpt>
      <trkpt lat="43.81088" lon="5.97707">
        <ele>560.1</ele>
        <time>2020-06-20T15:53:29Z</time>
      </trkpt>
      <trkpt lat="43.81087" lon="5.97706">
        <ele>560.1</ele>
        <time>2020-06-20T15:53:31Z</time>
      </trkpt>
      <trkpt lat="43.81087" lon="5.97707">
        <ele>560</ele>
        <time>2020-06-20T15:53:32Z</time>
      </trkpt>
      <trkpt lat="43.81087" lon="5.97707">
        <ele>560</ele>
        <time>2020-06-20T15:53:34Z</time>
      </trkpt>
      <trkpt lat="43.81087" lon="5.97707">
        <ele>560</ele>
        <time>2020-06-20T15:53:35Z</time>
      </trkpt>
      <trkpt lat="43.81087" lon="5.97707">
        <ele>560</ele>
        <time>2020-06-20T15:53:36Z</time>
      </trkpt>
      <trkpt lat="43.81087" lon="5.97707">
        <ele>560</ele>
        <time>2020-06-20T15:53:38Z</time>
      </trkpt>
      <trkpt lat="43.81083" lon="5.97709">
        <ele>559.6</ele>
        <time>2020-06-20T15:54:31Z</time>
      </trkpt>
      <trkpt lat="43.81096" lon="5.97705">
        <ele>558.5</ele>
        <time>2020-06-20T15:54:33Z</time>
      </trkpt>
      <trkpt lat="43.81103" lon="5.97703">
        <ele>557.9</ele>
        <time>2020-06-20T15:54:34Z</time>
      </trkpt>
      <trkpt lat="43.81117" lon="5.97696">
        <ele>557.4</ele>
        <time>2020-06-20T15:54:36Z</time>
      </trkpt>
      <trkpt lat="43.81128" lon="5.9769">
        <ele>557</ele>
        <time>2020-06-20T15:54:38Z</time>
      </trkpt>
      <trkpt lat="43.81134" lon="5.97687">
        <ele>556.9</ele>
        <time>2020-06-20T15:54:39Z</time>
      </trkpt>
      <trkpt lat="43.81142" lon="5.97682">
        <ele>556.8</ele>
        <time>2020-06-20T15:54:41Z</time>
      </trkpt>
      <trkpt lat="43.81141" lon="5.97679">
        <ele>556.8</ele>
        <time>2020-06-20T15:54:42Z</time>
      </trkpt>
      <trkpt lat="43.81141" lon="5.97678">
        <ele>556.8</ele>
        <time>2020-06-20T15:54:43Z</time>
      </trkpt>
      <trkpt lat="43.81142" lon="5.97676">
        <ele>556.8</ele>
        <time>2020-06-20T15:54:44Z</time>
      </trkpt>
      <trkpt lat="43.81144" lon="5.97675">
        <ele>556.9</ele>
        <time>2020-06-20T15:54:46Z</time>
      </trkpt>
      <trkpt lat="43.81145" lon="5.97674">
        <ele>556.9</ele>
        <time>2020-06-20T15:54:47Z</time>
      </trkpt>
      <trkpt lat="43.81147" lon="5.97674">
        <ele>557</ele>
        <time>2020-06-20T15:54:48Z</time>
      </trkpt>
      <trkpt lat="43.81151" lon="5.97671">
        <ele>557.2</ele>
        <time>2020-06-20T15:54:49Z</time>
      </trkpt>
      <trkpt lat="43.81157" lon="5.97667">
        <ele>557.7</ele>
        <time>2020-06-20T15:54:51Z</time>
      </trkpt>
      <trkpt lat="43.8116" lon="5.97665">
        <ele>558</ele>
        <time>2020-06-20T15:54:52Z</time>
      </trkpt>
      <trkpt lat="43.81163" lon="5.97663">
        <ele>558.2</ele>
        <time>2020-06-20T15:54:53Z</time>
      </trkpt>
      <trkpt lat="43.81166" lon="5.97659">
        <ele>558.6</ele>
        <time>2020-06-20T15:54:55Z</time>
      </trkpt>
      <trkpt lat="43.81167" lon="5.97658">
        <ele>558.8</ele>
        <time>2020-06-20T15:54:56Z</time>
      </trkpt>
      <trkpt lat="43.81168" lon="5.97657">
        <ele>558.9</ele>
        <time>2020-06-20T15:54:57Z</time>
      </trkpt>
      <trkpt lat="43.81171" lon="5.97655">
        <ele>559.2</ele>
        <time>2020-06-20T15:54:59Z</time>
      </trkpt>
      <trkpt lat="43.81172" lon="5.97654">
        <ele>559.2</ele>
        <time>2020-06-20T15:55:00Z</time>
      </trkpt>
      <trkpt lat="43.81175" lon="5.9765">
        <ele>559.6</ele>
        <time>2020-06-20T15:55:02Z</time>
      </trkpt>
      <trkpt lat="43.81177" lon="5.97649">
        <ele>559.7</ele>
        <time>2020-06-20T15:55:04Z</time>
      </trkpt>
      <trkpt lat="43.81178" lon="5.97648">
        <ele>559.8</ele>
        <time>2020-06-20T15:55:05Z</time>
      </trkpt>
      <trkpt lat="43.81181" lon="5.97646">
        <ele>560</ele>
        <time>2020-06-20T15:55:07Z</time>
      </trkpt>
      <trkpt lat="43.81183" lon="5.97645">
        <ele>560.1</ele>
        <time>2020-06-20T15:55:08Z</time>
      </trkpt>
      <trkpt lat="43.81185" lon="5.97644">
        <ele>560.3</ele>
        <time>2020-06-20T15:55:10Z</time>
      </trkpt>
      <trkpt lat="43.81186" lon="5.97643">
        <ele>560.4</ele>
        <time>2020-06-20T15:55:11Z</time>
      </trkpt>
      <trkpt lat="43.81189" lon="5.97642">
        <ele>560.7</ele>
        <time>2020-06-20T15:55:13Z</time>
      </trkpt>
      <trkpt lat="43.81191" lon="5.9764">
        <ele>560.8</ele>
        <time>2020-06-20T15:55:14Z</time>
      </trkpt>
      <trkpt lat="43.81192" lon="5.97639">
        <ele>560.9</ele>
        <time>2020-06-20T15:55:15Z</time>
      </trkpt>
      <trkpt lat="43.81195" lon="5.97637">
        <ele>561.2</ele>
        <time>2020-06-20T15:55:17Z</time>
      </trkpt>
      <trkpt lat="43.81197" lon="5.97635">
        <ele>561.3</ele>
        <time>2020-06-20T15:55:18Z</time>
      </trkpt>
      <trkpt lat="43.81199" lon="5.97634">
        <ele>561.5</ele>
        <time>2020-06-20T15:55:20Z</time>
      </trkpt>
      <trkpt lat="43.81201" lon="5.97632">
        <ele>561.8</ele>
        <time>2020-06-20T15:55:21Z</time>
      </trkpt>
      <trkpt lat="43.81202" lon="5.97631">
        <ele>561.8</ele>
        <time>2020-06-20T15:55:22Z</time>
      </trkpt>
      <trkpt lat="43.81205" lon="5.97629">
        <ele>562.1</ele>
        <time>2020-06-20T15:55:24Z</time>
      </trkpt>
      <trkpt lat="43.81206" lon="5.97628">
        <ele>562.2</ele>
        <time>2020-06-20T15:55:25Z</time>
      </trkpt>
      <trkpt lat="43.8121" lon="5.97626">
        <ele>562.6</ele>
        <time>2020-06-20T15:55:27Z</time>
      </trkpt>
      <trkpt lat="43.81211" lon="5.97625">
        <ele>562.8</ele>
        <time>2020-06-20T15:55:28Z</time>
      </trkpt>
      <trkpt lat="43.81213" lon="5.97624">
        <ele>562.9</ele>
        <time>2020-06-20T15:55:29Z</time>
      </trkpt>
      <trkpt lat="43.81217" lon="5.97621">
        <ele>563.2</ele>
        <time>2020-06-20T15:55:31Z</time>
      </trkpt>
      <trkpt lat="43.81218" lon="5.9762">
        <ele>563.3</ele>
        <time>2020-06-20T15:55:32Z</time>
      </trkpt>
      <trkpt lat="43.81219" lon="5.9762">
        <ele>563.4</ele>
        <time>2020-06-20T15:55:33Z</time>
      </trkpt>
      <trkpt lat="43.81222" lon="5.97618">
        <ele>563.5</ele>
        <time>2020-06-20T15:55:35Z</time>
      </trkpt>
      <trkpt lat="43.81225" lon="5.97617">
        <ele>563.7</ele>
        <time>2020-06-20T15:55:36Z</time>
      </trkpt>
      <trkpt lat="43.81228" lon="5.97616">
        <ele>563.8</ele>
        <time>2020-06-20T15:55:37Z</time>
      </trkpt>
      <trkpt lat="43.8123" lon="5.97615">
        <ele>563.9</ele>
        <time>2020-06-20T15:55:38Z</time>
      </trkpt>
      <trkpt lat="43.81232" lon="5.97614">
        <ele>564</ele>
        <time>2020-06-20T15:55:40Z</time>
      </trkpt>
      <trkpt lat="43.81236" lon="5.97611">
        <ele>564.1</ele>
        <time>2020-06-20T15:55:41Z</time>
      </trkpt>
      <trkpt lat="43.81238" lon="5.9761">
        <ele>564.2</ele>
        <time>2020-06-20T15:55:42Z</time>
      </trkpt>
      <trkpt lat="43.81242" lon="5.97609">
        <ele>564.3</ele>
        <time>2020-06-20T15:55:44Z</time>
      </trkpt>
      <trkpt lat="43.81243" lon="5.97609">
        <ele>564.3</ele>
        <time>2020-06-20T15:55:45Z</time>
      </trkpt>
      <trkpt lat="43.81247" lon="5.97609">
        <ele>564.4</ele>
        <time>2020-06-20T15:55:46Z</time>
      </trkpt>
      <trkpt lat="43.81249" lon="5.9761">
        <ele>564.4</ele>
        <time>2020-06-20T15:55:47Z</time>
      </trkpt>
      <trkpt lat="43.81253" lon="5.97611">
        <ele>564.4</ele>
        <time>2020-06-20T15:55:48Z</time>
      </trkpt>
      <trkpt lat="43.81259" lon="5.97612">
        <ele>564.5</ele>
        <time>2020-06-20T15:55:50Z</time>
      </trkpt>
      <trkpt lat="43.81264" lon="5.97614">
        <ele>564.6</ele>
        <time>2020-06-20T15:55:51Z</time>
      </trkpt>
      <trkpt lat="43.81269" lon="5.97615">
        <ele>564.6</ele>
        <time>2020-06-20T15:55:52Z</time>
      </trkpt>
      <trkpt lat="43.81274" lon="5.97617">
        <ele>564.6</ele>
        <time>2020-06-20T15:55:54Z</time>
      </trkpt>
      <trkpt lat="43.81278" lon="5.97617">
        <ele>564.5</ele>
        <time>2020-06-20T15:55:55Z</time>
      </trkpt>
      <trkpt lat="43.81282" lon="5.97617">
        <ele>564.4</ele>
        <time>2020-06-20T15:55:57Z</time>
      </trkpt>
      <trkpt lat="43.81286" lon="5.97617">
        <ele>564.2</ele>
        <time>2020-06-20T15:55:58Z</time>
      </trkpt>
      <trkpt lat="43.81291" lon="5.97617">
        <ele>564.1</ele>
        <time>2020-06-20T15:56:00Z</time>
      </trkpt>
      <trkpt lat="43.81294" lon="5.97617">
        <ele>563.9</ele>
        <time>2020-06-20T15:56:01Z</time>
      </trkpt>
      <trkpt lat="43.81301" lon="5.97616">
        <ele>563.8</ele>
        <time>2020-06-20T15:56:03Z</time>
      </trkpt>
      <trkpt lat="43.81305" lon="5.97615">
        <ele>563.8</ele>
        <time>2020-06-20T15:56:04Z</time>
      </trkpt>
      <trkpt lat="43.81308" lon="5.97614">
        <ele>563.8</ele>
        <time>2020-06-20T15:56:05Z</time>
      </trkpt>
      <trkpt lat="43.81312" lon="5.97613">
        <ele>563.9</ele>
        <time>2020-06-20T15:56:07Z</time>
      </trkpt>
      <trkpt lat="43.81316" lon="5.97612">
        <ele>563.9</ele>
        <time>2020-06-20T15:56:08Z</time>
      </trkpt>
      <trkpt lat="43.81319" lon="5.97612">
        <ele>564</ele>
        <time>2020-06-20T15:56:09Z</time>
      </trkpt>
      <trkpt lat="43.81323" lon="5.97609">
        <ele>564</ele>
        <time>2020-06-20T15:56:11Z</time>
      </trkpt>
      <trkpt lat="43.81324" lon="5.97608">
        <ele>564.1</ele>
        <time>2020-06-20T15:56:12Z</time>
      </trkpt>
      <trkpt lat="43.81326" lon="5.97607">
        <ele>564.1</ele>
        <time>2020-06-20T15:56:13Z</time>
      </trkpt>
      <trkpt lat="43.81328" lon="5.97604">
        <ele>564.1</ele>
        <time>2020-06-20T15:56:15Z</time>
      </trkpt>
      <trkpt lat="43.81331" lon="5.97603">
        <ele>564.2</ele>
        <time>2020-06-20T15:56:16Z</time>
      </trkpt>
      <trkpt lat="43.81332" lon="5.97602">
        <ele>564.2</ele>
        <time>2020-06-20T15:56:18Z</time>
      </trkpt>
      <trkpt lat="43.81335" lon="5.976">
        <ele>564.3</ele>
        <time>2020-06-20T15:56:19Z</time>
      </trkpt>
      <trkpt lat="43.81336" lon="5.97599">
        <ele>564.4</ele>
        <time>2020-06-20T15:56:20Z</time>
      </trkpt>
      <trkpt lat="43.81339" lon="5.97598">
        <ele>564.5</ele>
        <time>2020-06-20T15:56:22Z</time>
      </trkpt>
      <trkpt lat="43.81341" lon="5.97598">
        <ele>564.6</ele>
        <time>2020-06-20T15:56:23Z</time>
      </trkpt>
      <trkpt lat="43.81343" lon="5.97597">
        <ele>564.8</ele>
        <time>2020-06-20T15:56:25Z</time>
      </trkpt>
      <trkpt lat="43.81344" lon="5.97597">
        <ele>564.8</ele>
        <time>2020-06-20T15:56:26Z</time>
      </trkpt>
      <trkpt lat="43.81346" lon="5.97596">
        <ele>564.9</ele>
        <time>2020-06-20T15:56:27Z</time>
      </trkpt>
      <trkpt lat="43.81349" lon="5.97596">
        <ele>565.1</ele>
        <time>2020-06-20T15:56:29Z</time>
      </trkpt>
      <trkpt lat="43.81352" lon="5.97595">
        <ele>565.4</ele>
        <time>2020-06-20T15:56:30Z</time>
      </trkpt>
      <trkpt lat="43.81353" lon="5.97595">
        <ele>565.4</ele>
        <time>2020-06-20T15:56:31Z</time>
      </trkpt>
      <trkpt lat="43.81355" lon="5.97593">
        <ele>565.6</ele>
        <time>2020-06-20T15:56:32Z</time>
      </trkpt>
      <trkpt lat="43.81357" lon="5.97593">
        <ele>565.8</ele>
        <time>2020-06-20T15:56:34Z</time>
      </trkpt>
      <trkpt lat="43.81361" lon="5.97591">
        <ele>566</ele>
        <time>2020-06-20T15:56:35Z</time>
      </trkpt>
      <trkpt lat="43.81363" lon="5.97589">
        <ele>566.2</ele>
        <time>2020-06-20T15:56:36Z</time>
      </trkpt>
      <trkpt lat="43.81366" lon="5.97587">
        <ele>566.4</ele>
        <time>2020-06-20T15:56:37Z</time>
      </trkpt>
      <trkpt lat="43.81369" lon="5.97584">
        <ele>566.6</ele>
        <time>2020-06-20T15:56:39Z</time>
      </trkpt>
      <trkpt lat="43.81376" lon="5.97584">
        <ele>567</ele>
        <time>2020-06-20T15:56:41Z</time>
      </trkpt>
      <trkpt lat="43.81381" lon="5.97585">
        <ele>567.2</ele>
        <time>2020-06-20T15:56:42Z</time>
      </trkpt>
      <trkpt lat="43.81386" lon="5.97586">
        <ele>567.4</ele>
        <time>2020-06-20T15:56:43Z</time>
      </trkpt>
      <trkpt lat="43.81389" lon="5.97586">
        <ele>567.5</ele>
        <time>2020-06-20T15:56:44Z</time>
      </trkpt>
      <trkpt lat="43.81394" lon="5.97587">
        <ele>567.5</ele>
        <time>2020-06-20T15:56:46Z</time>
      </trkpt>
      <trkpt lat="43.81399" lon="5.97588">
        <ele>567.5</ele>
        <time>2020-06-20T15:56:48Z</time>
      </trkpt>
      <trkpt lat="43.81402" lon="5.9759">
        <ele>567.5</ele>
        <time>2020-06-20T15:56:49Z</time>
      </trkpt>
      <trkpt lat="43.81408" lon="5.97595">
        <ele>567.3</ele>
        <time>2020-06-20T15:56:51Z</time>
      </trkpt>
      <trkpt lat="43.81413" lon="5.97598">
        <ele>567.1</ele>
        <time>2020-06-20T15:56:52Z</time>
      </trkpt>
      <trkpt lat="43.81417" lon="5.976">
        <ele>567.1</ele>
        <time>2020-06-20T15:56:53Z</time>
      </trkpt>
      <trkpt lat="43.81423" lon="5.97603">
        <ele>567.2</ele>
        <time>2020-06-20T15:56:55Z</time>
      </trkpt>
      <trkpt lat="43.81428" lon="5.97606">
        <ele>567.1</ele>
        <time>2020-06-20T15:56:56Z</time>
      </trkpt>
      <trkpt lat="43.81438" lon="5.9761">
        <ele>566.8</ele>
        <time>2020-06-20T15:56:58Z</time>
      </trkpt>
      <trkpt lat="43.81442" lon="5.97609">
        <ele>566.7</ele>
        <time>2020-06-20T15:56:59Z</time>
      </trkpt>
      <trkpt lat="43.81451" lon="5.97609">
        <ele>566.4</ele>
        <time>2020-06-20T15:57:01Z</time>
      </trkpt>
      <trkpt lat="43.81462" lon="5.97615">
        <ele>566.1</ele>
        <time>2020-06-20T15:57:03Z</time>
      </trkpt>
      <trkpt lat="43.81467" lon="5.97616">
        <ele>566</ele>
        <time>2020-06-20T15:57:04Z</time>
      </trkpt>
      <trkpt lat="43.81478" lon="5.97616">
        <ele>566</ele>
        <time>2020-06-20T15:57:06Z</time>
      </trkpt>
      <trkpt lat="43.81487" lon="5.97614">
        <ele>566.1</ele>
        <time>2020-06-20T15:57:08Z</time>
      </trkpt>
      <trkpt lat="43.8149" lon="5.97612">
        <ele>566.2</ele>
        <time>2020-06-20T15:57:09Z</time>
      </trkpt>
      <trkpt lat="43.81495" lon="5.97609">
        <ele>566.3</ele>
        <time>2020-06-20T15:57:10Z</time>
      </trkpt>
      <trkpt lat="43.815" lon="5.97605">
        <ele>566.5</ele>
        <time>2020-06-20T15:57:12Z</time>
      </trkpt>
      <trkpt lat="43.81506" lon="5.976">
        <ele>566.8</ele>
        <time>2020-06-20T15:57:13Z</time>
      </trkpt>
      <trkpt lat="43.81511" lon="5.97595">
        <ele>567.1</ele>
        <time>2020-06-20T15:57:14Z</time>
      </trkpt>
      <trkpt lat="43.81514" lon="5.97591">
        <ele>567.4</ele>
        <time>2020-06-20T15:57:15Z</time>
      </trkpt>
      <trkpt lat="43.81517" lon="5.97592">
        <ele>567.6</ele>
        <time>2020-06-20T15:57:16Z</time>
      </trkpt>
      <trkpt lat="43.8152" lon="5.97588">
        <ele>567.9</ele>
        <time>2020-06-20T15:57:18Z</time>
      </trkpt>
      <trkpt lat="43.81523" lon="5.97583">
        <ele>568.3</ele>
        <time>2020-06-20T15:57:19Z</time>
      </trkpt>
      <trkpt lat="43.81525" lon="5.97579">
        <ele>568.6</ele>
        <time>2020-06-20T15:57:20Z</time>
      </trkpt>
      <trkpt lat="43.81528" lon="5.97575">
        <ele>568.9</ele>
        <time>2020-06-20T15:57:21Z</time>
      </trkpt>
      <trkpt lat="43.81531" lon="5.97572">
        <ele>569.1</ele>
        <time>2020-06-20T15:57:23Z</time>
      </trkpt>
      <trkpt lat="43.81533" lon="5.97569">
        <ele>569.3</ele>
        <time>2020-06-20T15:57:24Z</time>
      </trkpt>
      <trkpt lat="43.81535" lon="5.97565">
        <ele>569.5</ele>
        <time>2020-06-20T15:57:26Z</time>
      </trkpt>
      <trkpt lat="43.81538" lon="5.97562">
        <ele>569.7</ele>
        <time>2020-06-20T15:57:27Z</time>
      </trkpt>
      <trkpt lat="43.81541" lon="5.97558">
        <ele>570</ele>
        <time>2020-06-20T15:57:29Z</time>
      </trkpt>
      <trkpt lat="43.81544" lon="5.97556">
        <ele>570.1</ele>
        <time>2020-06-20T15:57:30Z</time>
      </trkpt>
      <trkpt lat="43.81546" lon="5.97554">
        <ele>570.3</ele>
        <time>2020-06-20T15:57:32Z</time>
      </trkpt>
      <trkpt lat="43.81548" lon="5.97551">
        <ele>570.5</ele>
        <time>2020-06-20T15:57:33Z</time>
      </trkpt>
      <trkpt lat="43.81551" lon="5.97547">
        <ele>570.7</ele>
        <time>2020-06-20T15:57:34Z</time>
      </trkpt>
      <trkpt lat="43.81553" lon="5.97545">
        <ele>570.9</ele>
        <time>2020-06-20T15:57:35Z</time>
      </trkpt>
      <trkpt lat="43.81555" lon="5.97542">
        <ele>571.1</ele>
        <time>2020-06-20T15:57:37Z</time>
      </trkpt>
      <trkpt lat="43.81558" lon="5.9754">
        <ele>570.8</ele>
        <time>2020-06-20T15:57:38Z</time>
      </trkpt>
      <trkpt lat="43.8156" lon="5.97538">
        <ele>570.7</ele>
        <time>2020-06-20T15:57:39Z</time>
      </trkpt>
      <trkpt lat="43.81563" lon="5.97535">
        <ele>570.7</ele>
        <time>2020-06-20T15:57:40Z</time>
      </trkpt>
      <trkpt lat="43.81564" lon="5.97535">
        <ele>570.7</ele>
        <time>2020-06-20T15:57:41Z</time>
      </trkpt>
      <trkpt lat="43.81566" lon="5.97532">
        <ele>570.7</ele>
        <time>2020-06-20T15:57:42Z</time>
      </trkpt>
      <trkpt lat="43.81571" lon="5.97528">
        <ele>570.8</ele>
        <time>2020-06-20T15:57:44Z</time>
      </trkpt>
      <trkpt lat="43.81573" lon="5.97526">
        <ele>570.8</ele>
        <time>2020-06-20T15:57:45Z</time>
      </trkpt>
      <trkpt lat="43.81576" lon="5.97524">
        <ele>570.9</ele>
        <time>2020-06-20T15:57:47Z</time>
      </trkpt>
      <trkpt lat="43.81581" lon="5.9752">
        <ele>570.9</ele>
        <time>2020-06-20T15:57:49Z</time>
      </trkpt>
      <trkpt lat="43.81583" lon="5.97518">
        <ele>570.9</ele>
        <time>2020-06-20T15:57:50Z</time>
      </trkpt>
      <trkpt lat="43.81587" lon="5.97515">
        <ele>570.8</ele>
        <time>2020-06-20T15:57:52Z</time>
      </trkpt>
      <trkpt lat="43.81591" lon="5.97511">
        <ele>570.7</ele>
        <time>2020-06-20T15:57:54Z</time>
      </trkpt>
      <trkpt lat="43.81594" lon="5.97509">
        <ele>570.7</ele>
        <time>2020-06-20T15:57:55Z</time>
      </trkpt>
      <trkpt lat="43.81596" lon="5.97507">
        <ele>570.6</ele>
        <time>2020-06-20T15:57:56Z</time>
      </trkpt>
      <trkpt lat="43.816" lon="5.97502">
        <ele>570.3</ele>
        <time>2020-06-20T15:57:58Z</time>
      </trkpt>
      <trkpt lat="43.81607" lon="5.97497">
        <ele>569.9</ele>
        <time>2020-06-20T15:58:00Z</time>
      </trkpt>
      <trkpt lat="43.81613" lon="5.97492">
        <ele>569.8</ele>
        <time>2020-06-20T15:58:02Z</time>
      </trkpt>
      <trkpt lat="43.8162" lon="5.97487">
        <ele>569.8</ele>
        <time>2020-06-20T15:58:04Z</time>
      </trkpt>
      <trkpt lat="43.81623" lon="5.97484">
        <ele>569.8</ele>
        <time>2020-06-20T15:58:05Z</time>
      </trkpt>
      <trkpt lat="43.81633" lon="5.97477">
        <ele>569.2</ele>
        <time>2020-06-20T15:58:07Z</time>
      </trkpt>
      <trkpt lat="43.81643" lon="5.97468">
        <ele>567.9</ele>
        <time>2020-06-20T15:58:09Z</time>
      </trkpt>
      <trkpt lat="43.81648" lon="5.97464">
        <ele>567.3</ele>
        <time>2020-06-20T15:58:10Z</time>
      </trkpt>
      <trkpt lat="43.81658" lon="5.97454">
        <ele>566.2</ele>
        <time>2020-06-20T15:58:12Z</time>
      </trkpt>
      <trkpt lat="43.81663" lon="5.97449">
        <ele>565.9</ele>
        <time>2020-06-20T15:58:13Z</time>
      </trkpt>
      <trkpt lat="43.81667" lon="5.97444">
        <ele>565.5</ele>
        <time>2020-06-20T15:58:14Z</time>
      </trkpt>
      <trkpt lat="43.81675" lon="5.97434">
        <ele>564.8</ele>
        <time>2020-06-20T15:58:16Z</time>
      </trkpt>
      <trkpt lat="43.8168" lon="5.9743">
        <ele>564.5</ele>
        <time>2020-06-20T15:58:17Z</time>
      </trkpt>
      <trkpt lat="43.81684" lon="5.97426">
        <ele>564.2</ele>
        <time>2020-06-20T15:58:18Z</time>
      </trkpt>
      <trkpt lat="43.81692" lon="5.97418">
        <ele>563.9</ele>
        <time>2020-06-20T15:58:20Z</time>
      </trkpt>
      <trkpt lat="43.81699" lon="5.97413">
        <ele>563.6</ele>
        <time>2020-06-20T15:58:22Z</time>
      </trkpt>
      <trkpt lat="43.81702" lon="5.97409">
        <ele>563.3</ele>
        <time>2020-06-20T15:58:23Z</time>
      </trkpt>
      <trkpt lat="43.81705" lon="5.97406">
        <ele>563.1</ele>
        <time>2020-06-20T15:58:24Z</time>
      </trkpt>
      <trkpt lat="43.81711" lon="5.974">
        <ele>562.6</ele>
        <time>2020-06-20T15:58:26Z</time>
      </trkpt>
      <trkpt lat="43.81716" lon="5.97396">
        <ele>562.2</ele>
        <time>2020-06-20T15:58:27Z</time>
      </trkpt>
      <trkpt lat="43.81726" lon="5.97387">
        <ele>561.5</ele>
        <time>2020-06-20T15:58:29Z</time>
      </trkpt>
      <trkpt lat="43.81734" lon="5.97379">
        <ele>560.8</ele>
        <time>2020-06-20T15:58:31Z</time>
      </trkpt>
      <trkpt lat="43.81743" lon="5.97371">
        <ele>560</ele>
        <time>2020-06-20T15:58:33Z</time>
      </trkpt>
      <trkpt lat="43.81748" lon="5.97367">
        <ele>559.5</ele>
        <time>2020-06-20T15:58:34Z</time>
      </trkpt>
      <trkpt lat="43.81757" lon="5.97361">
        <ele>558.7</ele>
        <time>2020-06-20T15:58:36Z</time>
      </trkpt>
      <trkpt lat="43.81768" lon="5.97356">
        <ele>557.9</ele>
        <time>2020-06-20T15:58:38Z</time>
      </trkpt>
      <trkpt lat="43.8178" lon="5.97352">
        <ele>557.1</ele>
        <time>2020-06-20T15:58:40Z</time>
      </trkpt>
      <trkpt lat="43.81791" lon="5.97349">
        <ele>556.1</ele>
        <time>2020-06-20T15:58:42Z</time>
      </trkpt>
      <trkpt lat="43.81797" lon="5.97346">
        <ele>555.5</ele>
        <time>2020-06-20T15:58:43Z</time>
      </trkpt>
      <trkpt lat="43.81802" lon="5.97344">
        <ele>554.8</ele>
        <time>2020-06-20T15:58:44Z</time>
      </trkpt>
      <trkpt lat="43.81807" lon="5.97342">
        <ele>553.5</ele>
        <time>2020-06-20T15:58:45Z</time>
      </trkpt>
      <trkpt lat="43.81811" lon="5.97341">
        <ele>553.5</ele>
        <time>2020-06-20T15:58:46Z</time>
      </trkpt>
      <trkpt lat="43.81822" lon="5.97339">
        <ele>553</ele>
        <time>2020-06-20T15:58:48Z</time>
      </trkpt>
      <trkpt lat="43.81834" lon="5.97336">
        <ele>552.3</ele>
        <time>2020-06-20T15:58:50Z</time>
      </trkpt>
      <trkpt lat="43.81845" lon="5.97333">
        <ele>551.4</ele>
        <time>2020-06-20T15:58:52Z</time>
      </trkpt>
      <trkpt lat="43.8185" lon="5.97332">
        <ele>550.8</ele>
        <time>2020-06-20T15:58:53Z</time>
      </trkpt>
      <trkpt lat="43.81861" lon="5.97328">
        <ele>549.8</ele>
        <time>2020-06-20T15:58:55Z</time>
      </trkpt>
      <trkpt lat="43.81867" lon="5.97327">
        <ele>549.3</ele>
        <time>2020-06-20T15:58:56Z</time>
      </trkpt>
      <trkpt lat="43.81879" lon="5.97325">
        <ele>548.2</ele>
        <time>2020-06-20T15:58:58Z</time>
      </trkpt>
      <trkpt lat="43.81885" lon="5.97324">
        <ele>547.7</ele>
        <time>2020-06-20T15:58:59Z</time>
      </trkpt>
      <trkpt lat="43.81896" lon="5.97322">
        <ele>546.5</ele>
        <time>2020-06-20T15:59:01Z</time>
      </trkpt>
      <trkpt lat="43.81903" lon="5.97321">
        <ele>545.8</ele>
        <time>2020-06-20T15:59:02Z</time>
      </trkpt>
      <trkpt lat="43.81917" lon="5.97317">
        <ele>543.9</ele>
        <time>2020-06-20T15:59:04Z</time>
      </trkpt>
      <trkpt lat="43.8193" lon="5.97313">
        <ele>542.5</ele>
        <time>2020-06-20T15:59:06Z</time>
      </trkpt>
      <trkpt lat="43.81939" lon="5.97312">
        <ele>541.5</ele>
        <time>2020-06-20T15:59:08Z</time>
      </trkpt>
      <trkpt lat="43.81945" lon="5.97312">
        <ele>541</ele>
        <time>2020-06-20T15:59:09Z</time>
      </trkpt>
      <trkpt lat="43.8195" lon="5.97311">
        <ele>540.5</ele>
        <time>2020-06-20T15:59:10Z</time>
      </trkpt>
      <trkpt lat="43.81955" lon="5.97309">
        <ele>540.2</ele>
        <time>2020-06-20T15:59:11Z</time>
      </trkpt>
      <trkpt lat="43.81958" lon="5.97307">
        <ele>539.9</ele>
        <time>2020-06-20T15:59:12Z</time>
      </trkpt>
      <trkpt lat="43.81965" lon="5.97304">
        <ele>539.3</ele>
        <time>2020-06-20T15:59:14Z</time>
      </trkpt>
      <trkpt lat="43.8197" lon="5.97306">
        <ele>538.7</ele>
        <time>2020-06-20T15:59:16Z</time>
      </trkpt>
      <trkpt lat="43.81971" lon="5.97309">
        <ele>538.4</ele>
        <time>2020-06-20T15:59:17Z</time>
      </trkpt>
      <trkpt lat="43.81967" lon="5.97319">
        <ele>537.4</ele>
        <time>2020-06-20T15:59:19Z</time>
      </trkpt>
      <trkpt lat="43.81956" lon="5.97324">
        <ele>536.1</ele>
        <time>2020-06-20T15:59:21Z</time>
      </trkpt>
      <trkpt lat="43.81952" lon="5.97325">
        <ele>535.8</ele>
        <time>2020-06-20T15:59:22Z</time>
      </trkpt>
      <trkpt lat="43.81944" lon="5.97327">
        <ele>535.5</ele>
        <time>2020-06-20T15:59:24Z</time>
      </trkpt>
      <trkpt lat="43.81941" lon="5.9733">
        <ele>535.2</ele>
        <time>2020-06-20T15:59:25Z</time>
      </trkpt>
      <trkpt lat="43.81936" lon="5.97333">
        <ele>534.9</ele>
        <time>2020-06-20T15:59:26Z</time>
      </trkpt>
      <trkpt lat="43.81928" lon="5.9734">
        <ele>534.2</ele>
        <time>2020-06-20T15:59:28Z</time>
      </trkpt>
      <trkpt lat="43.81923" lon="5.97344">
        <ele>533.7</ele>
        <time>2020-06-20T15:59:29Z</time>
      </trkpt>
      <trkpt lat="43.81919" lon="5.97347">
        <ele>533.3</ele>
        <time>2020-06-20T15:59:30Z</time>
      </trkpt>
      <trkpt lat="43.81908" lon="5.97354">
        <ele>532.7</ele>
        <time>2020-06-20T15:59:32Z</time>
      </trkpt>
      <trkpt lat="43.81899" lon="5.97363">
        <ele>531.8</ele>
        <time>2020-06-20T15:59:34Z</time>
      </trkpt>
      <trkpt lat="43.81897" lon="5.97369">
        <ele>531.5</ele>
        <time>2020-06-20T15:59:35Z</time>
      </trkpt>
      <trkpt lat="43.81898" lon="5.97375">
        <ele>531.1</ele>
        <time>2020-06-20T15:59:36Z</time>
      </trkpt>
      <trkpt lat="43.81908" lon="5.97382">
        <ele>530</ele>
        <time>2020-06-20T15:59:38Z</time>
      </trkpt>
      <trkpt lat="43.81914" lon="5.9738">
        <ele>529.5</ele>
        <time>2020-06-20T15:59:39Z</time>
      </trkpt>
      <trkpt lat="43.81923" lon="5.97372">
        <ele>528.4</ele>
        <time>2020-06-20T15:59:41Z</time>
      </trkpt>
      <trkpt lat="43.81926" lon="5.97368">
        <ele>528</ele>
        <time>2020-06-20T15:59:42Z</time>
      </trkpt>
      <trkpt lat="43.8193" lon="5.97365">
        <ele>527.5</ele>
        <time>2020-06-20T15:59:43Z</time>
      </trkpt>
      <trkpt lat="43.81938" lon="5.97361">
        <ele>526.7</ele>
        <time>2020-06-20T15:59:45Z</time>
      </trkpt>
      <trkpt lat="43.81943" lon="5.97359">
        <ele>526.2</ele>
        <time>2020-06-20T15:59:46Z</time>
      </trkpt>
      <trkpt lat="43.81953" lon="5.97358">
        <ele>525.4</ele>
        <time>2020-06-20T15:59:48Z</time>
      </trkpt>
      <trkpt lat="43.81958" lon="5.97358">
        <ele>524.9</ele>
        <time>2020-06-20T15:59:49Z</time>
      </trkpt>
      <trkpt lat="43.81968" lon="5.97355">
        <ele>523.9</ele>
        <time>2020-06-20T15:59:51Z</time>
      </trkpt>
      <trkpt lat="43.81978" lon="5.97349">
        <ele>522.7</ele>
        <time>2020-06-20T15:59:53Z</time>
      </trkpt>
      <trkpt lat="43.81983" lon="5.97347">
        <ele>522.2</ele>
        <time>2020-06-20T15:59:54Z</time>
      </trkpt>
      <trkpt lat="43.81989" lon="5.97344">
        <ele>521.6</ele>
        <time>2020-06-20T15:59:55Z</time>
      </trkpt>
      <trkpt lat="43.81999" lon="5.97338">
        <ele>520.4</ele>
        <time>2020-06-20T15:59:57Z</time>
      </trkpt>
      <trkpt lat="43.82004" lon="5.97333">
        <ele>519.8</ele>
        <time>2020-06-20T15:59:58Z</time>
      </trkpt>
      <trkpt lat="43.82014" lon="5.97323">
        <ele>518.8</ele>
        <time>2020-06-20T16:00:00Z</time>
      </trkpt>
      <trkpt lat="43.8202" lon="5.97318">
        <ele>518.3</ele>
        <time>2020-06-20T16:00:01Z</time>
      </trkpt>
      <trkpt lat="43.82031" lon="5.97308">
        <ele>517.4</ele>
        <time>2020-06-20T16:00:03Z</time>
      </trkpt>
      <trkpt lat="43.82036" lon="5.97303">
        <ele>516.9</ele>
        <time>2020-06-20T16:00:04Z</time>
      </trkpt>
      <trkpt lat="43.82047" lon="5.97296">
        <ele>515.9</ele>
        <time>2020-06-20T16:00:06Z</time>
      </trkpt>
      <trkpt lat="43.82057" lon="5.9729">
        <ele>515</ele>
        <time>2020-06-20T16:00:08Z</time>
      </trkpt>
      <trkpt lat="43.82064" lon="5.97286">
        <ele>514.3</ele>
        <time>2020-06-20T16:00:10Z</time>
      </trkpt>
      <trkpt lat="43.82073" lon="5.97282">
        <ele>513.5</ele>
        <time>2020-06-20T16:00:12Z</time>
      </trkpt>
      <trkpt lat="43.82079" lon="5.9728">
        <ele>512.9</ele>
        <time>2020-06-20T16:00:13Z</time>
      </trkpt>
      <trkpt lat="43.82091" lon="5.97279">
        <ele>511.7</ele>
        <time>2020-06-20T16:00:15Z</time>
      </trkpt>
      <trkpt lat="43.82097" lon="5.97278">
        <ele>511.1</ele>
        <time>2020-06-20T16:00:16Z</time>
      </trkpt>
      <trkpt lat="43.82109" lon="5.97278">
        <ele>509.9</ele>
        <time>2020-06-20T16:00:18Z</time>
      </trkpt>
      <trkpt lat="43.82116" lon="5.97278">
        <ele>509.3</ele>
        <time>2020-06-20T16:00:19Z</time>
      </trkpt>
      <trkpt lat="43.8213" lon="5.97279">
        <ele>508</ele>
        <time>2020-06-20T16:00:21Z</time>
      </trkpt>
      <trkpt lat="43.82137" lon="5.9728">
        <ele>507.4</ele>
        <time>2020-06-20T16:00:22Z</time>
      </trkpt>
      <trkpt lat="43.8215" lon="5.97281">
        <ele>506.3</ele>
        <time>2020-06-20T16:00:24Z</time>
      </trkpt>
      <trkpt lat="43.82156" lon="5.97281">
        <ele>505.8</ele>
        <time>2020-06-20T16:00:25Z</time>
      </trkpt>
      <trkpt lat="43.82167" lon="5.97281">
        <ele>504.9</ele>
        <time>2020-06-20T16:00:27Z</time>
      </trkpt>
      <trkpt lat="43.82173" lon="5.97281">
        <ele>504.3</ele>
        <time>2020-06-20T16:00:29Z</time>
      </trkpt>
      <trkpt lat="43.82183" lon="5.9728">
        <ele>503.3</ele>
        <time>2020-06-20T16:00:31Z</time>
      </trkpt>
      <trkpt lat="43.82193" lon="5.97283">
        <ele>502.2</ele>
        <time>2020-06-20T16:00:32Z</time>
      </trkpt>
      <trkpt lat="43.82203" lon="5.97289">
        <ele>501</ele>
        <time>2020-06-20T16:00:34Z</time>
      </trkpt>
      <trkpt lat="43.82212" lon="5.97301">
        <ele>500.9</ele>
        <time>2020-06-20T16:00:36Z</time>
      </trkpt>
      <trkpt lat="43.82219" lon="5.97315">
        <ele>500.8</ele>
        <time>2020-06-20T16:00:38Z</time>
      </trkpt>
      <trkpt lat="43.82226" lon="5.97331">
        <ele>500.6</ele>
        <time>2020-06-20T16:00:40Z</time>
      </trkpt>
      <trkpt lat="43.82232" lon="5.97344">
        <ele>500.6</ele>
        <time>2020-06-20T16:00:42Z</time>
      </trkpt>
      <trkpt lat="43.82235" lon="5.9735">
        <ele>500.6</ele>
        <time>2020-06-20T16:00:43Z</time>
      </trkpt>
      <trkpt lat="43.82236" lon="5.97353">
        <ele>500.7</ele>
        <time>2020-06-20T16:00:44Z</time>
      </trkpt>
      <trkpt lat="43.82237" lon="5.97362">
        <ele>500.8</ele>
        <time>2020-06-20T16:00:46Z</time>
      </trkpt>
      <trkpt lat="43.82237" lon="5.97366">
        <ele>500.9</ele>
        <time>2020-06-20T16:00:47Z</time>
      </trkpt>
      <trkpt lat="43.82237" lon="5.97372">
        <ele>501.2</ele>
        <time>2020-06-20T16:00:49Z</time>
      </trkpt>
      <trkpt lat="43.82237" lon="5.97378">
        <ele>501.4</ele>
        <time>2020-06-20T16:00:51Z</time>
      </trkpt>
      <trkpt lat="43.82237" lon="5.97386">
        <ele>501.7</ele>
        <time>2020-06-20T16:00:53Z</time>
      </trkpt>
      <trkpt lat="43.82236" lon="5.97391">
        <ele>501.9</ele>
        <time>2020-06-20T16:00:54Z</time>
      </trkpt>
      <trkpt lat="43.82235" lon="5.97395">
        <ele>502</ele>
        <time>2020-06-20T16:00:56Z</time>
      </trkpt>
      <trkpt lat="43.82234" lon="5.97403">
        <ele>502.3</ele>
        <time>2020-06-20T16:00:58Z</time>
      </trkpt>
      <trkpt lat="43.82232" lon="5.97412">
        <ele>502.7</ele>
        <time>2020-06-20T16:00:59Z</time>
      </trkpt>
      <trkpt lat="43.82232" lon="5.97416">
        <ele>502.9</ele>
        <time>2020-06-20T16:01:00Z</time>
      </trkpt>
      <trkpt lat="43.82231" lon="5.97422">
        <ele>503.2</ele>
        <time>2020-06-20T16:01:02Z</time>
      </trkpt>
      <trkpt lat="43.82229" lon="5.97429">
        <ele>503.4</ele>
        <time>2020-06-20T16:01:04Z</time>
      </trkpt>
      <trkpt lat="43.82228" lon="5.97433">
        <ele>503.6</ele>
        <time>2020-06-20T16:01:05Z</time>
      </trkpt>
      <trkpt lat="43.82227" lon="5.97437">
        <ele>503.9</ele>
        <time>2020-06-20T16:01:06Z</time>
      </trkpt>
      <trkpt lat="43.82224" lon="5.97442">
        <ele>504.1</ele>
        <time>2020-06-20T16:01:08Z</time>
      </trkpt>
      <trkpt lat="43.82223" lon="5.97445">
        <ele>504.2</ele>
        <time>2020-06-20T16:01:09Z</time>
      </trkpt>
      <trkpt lat="43.8222" lon="5.9745">
        <ele>504.5</ele>
        <time>2020-06-20T16:01:11Z</time>
      </trkpt>
      <trkpt lat="43.82219" lon="5.97454">
        <ele>504.6</ele>
        <time>2020-06-20T16:01:12Z</time>
      </trkpt>
      <trkpt lat="43.82218" lon="5.97455">
        <ele>504.6</ele>
        <time>2020-06-20T16:01:13Z</time>
      </trkpt>
      <trkpt lat="43.82217" lon="5.97458">
        <ele>504.7</ele>
        <time>2020-06-20T16:01:14Z</time>
      </trkpt>
      <trkpt lat="43.82216" lon="5.97463">
        <ele>504.9</ele>
        <time>2020-06-20T16:01:16Z</time>
      </trkpt>
      <trkpt lat="43.82216" lon="5.97466">
        <ele>504.9</ele>
        <time>2020-06-20T16:01:17Z</time>
      </trkpt>
      <trkpt lat="43.82216" lon="5.97471">
        <ele>505.1</ele>
        <time>2020-06-20T16:01:19Z</time>
      </trkpt>
      <trkpt lat="43.82215" lon="5.97475">
        <ele>505.2</ele>
        <time>2020-06-20T16:01:21Z</time>
      </trkpt>
      <trkpt lat="43.82215" lon="5.97476">
        <ele>505.3</ele>
        <time>2020-06-20T16:01:23Z</time>
      </trkpt>
      <trkpt lat="43.82215" lon="5.97476">
        <ele>505.3</ele>
        <time>2020-06-20T16:01:25Z</time>
      </trkpt>
      <trkpt lat="43.82215" lon="5.97476">
        <ele>505.3</ele>
        <time>2020-06-20T16:01:27Z</time>
      </trkpt>
      <trkpt lat="43.82215" lon="5.97476">
        <ele>505.3</ele>
        <time>2020-06-20T16:01:28Z</time>
      </trkpt>
      <trkpt lat="43.82215" lon="5.97476">
        <ele>505.3</ele>
        <time>2020-06-20T16:01:29Z</time>
      </trkpt>
      <trkpt lat="43.82216" lon="5.97481">
        <ele>505.5</ele>
        <time>2020-06-20T16:01:38Z</time>
      </trkpt>
      <trkpt lat="43.82216" lon="5.97485">
        <ele>505.7</ele>
        <time>2020-06-20T16:01:40Z</time>
      </trkpt>
      <trkpt lat="43.82217" lon="5.97488">
        <ele>505.8</ele>
        <time>2020-06-20T16:01:41Z</time>
      </trkpt>
      <trkpt lat="43.82218" lon="5.9749">
        <ele>505.9</ele>
        <time>2020-06-20T16:01:43Z</time>
      </trkpt>
      <trkpt lat="43.82218" lon="5.97494">
        <ele>506.1</ele>
        <time>2020-06-20T16:01:44Z</time>
      </trkpt>
      <trkpt lat="43.82217" lon="5.97498">
        <ele>506.2</ele>
        <time>2020-06-20T16:01:46Z</time>
      </trkpt>
      <trkpt lat="43.82216" lon="5.97503">
        <ele>506.4</ele>
        <time>2020-06-20T16:01:48Z</time>
      </trkpt>
      <trkpt lat="43.82215" lon="5.97504">
        <ele>506.5</ele>
        <time>2020-06-20T16:01:49Z</time>
      </trkpt>
      <trkpt lat="43.82215" lon="5.97505">
        <ele>506.6</ele>
        <time>2020-06-20T16:01:51Z</time>
      </trkpt>
      <trkpt lat="43.82215" lon="5.97507">
        <ele>506.7</ele>
        <time>2020-06-20T16:01:52Z</time>
      </trkpt>
      <trkpt lat="43.82214" lon="5.9751">
        <ele>506.8</ele>
        <time>2020-06-20T16:01:53Z</time>
      </trkpt>
      <trkpt lat="43.82213" lon="5.97511">
        <ele>506.9</ele>
        <time>2020-06-20T16:01:54Z</time>
      </trkpt>
      <trkpt lat="43.82213" lon="5.97513">
        <ele>507</ele>
        <time>2020-06-20T16:01:55Z</time>
      </trkpt>
      <trkpt lat="43.82212" lon="5.97515">
        <ele>507.2</ele>
        <time>2020-06-20T16:01:56Z</time>
      </trkpt>
      <trkpt lat="43.82211" lon="5.97516">
        <ele>507.3</ele>
        <time>2020-06-20T16:01:57Z</time>
      </trkpt>
      <trkpt lat="43.8221" lon="5.97517">
        <ele>507.4</ele>
        <time>2020-06-20T16:01:58Z</time>
      </trkpt>
      <trkpt lat="43.82207" lon="5.97519">
        <ele>507.6</ele>
        <time>2020-06-20T16:02:00Z</time>
      </trkpt>
      <trkpt lat="43.82205" lon="5.9752">
        <ele>507.8</ele>
        <time>2020-06-20T16:02:02Z</time>
      </trkpt>
      <trkpt lat="43.82204" lon="5.9752">
        <ele>508</ele>
        <time>2020-06-20T16:02:03Z</time>
      </trkpt>
      <trkpt lat="43.82203" lon="5.9752">
        <ele>508</ele>
        <time>2020-06-20T16:02:05Z</time>
      </trkpt>
      <trkpt lat="43.82202" lon="5.97519">
        <ele>508.1</ele>
        <time>2020-06-20T16:02:06Z</time>
      </trkpt>
      <trkpt lat="43.82201" lon="5.97517">
        <ele>508.3</ele>
        <time>2020-06-20T16:02:08Z</time>
      </trkpt>
      <trkpt lat="43.822" lon="5.97516">
        <ele>508.4</ele>
        <time>2020-06-20T16:02:09Z</time>
      </trkpt>
      <trkpt lat="43.82199" lon="5.97515">
        <ele>508.6</ele>
        <time>2020-06-20T16:02:10Z</time>
      </trkpt>
      <trkpt lat="43.82197" lon="5.97513">
        <ele>508.8</ele>
        <time>2020-06-20T16:02:12Z</time>
      </trkpt>
      <trkpt lat="43.82195" lon="5.97512">
        <ele>509</ele>
        <time>2020-06-20T16:02:13Z</time>
      </trkpt>
      <trkpt lat="43.82195" lon="5.97511">
        <ele>509.1</ele>
        <time>2020-06-20T16:02:15Z</time>
      </trkpt>
      <trkpt lat="43.82195" lon="5.97508">
        <ele>509.3</ele>
        <time>2020-06-20T16:02:16Z</time>
      </trkpt>
      <trkpt lat="43.82195" lon="5.97508">
        <ele>509.4</ele>
        <time>2020-06-20T16:02:17Z</time>
      </trkpt>
      <trkpt lat="43.82195" lon="5.97507">
        <ele>509.4</ele>
        <time>2020-06-20T16:02:19Z</time>
      </trkpt>
      <trkpt lat="43.82194" lon="5.97507">
        <ele>509.5</ele>
        <time>2020-06-20T16:02:21Z</time>
      </trkpt>
      <trkpt lat="43.82194" lon="5.97507">
        <ele>509.5</ele>
        <time>2020-06-20T16:02:22Z</time>
      </trkpt>
      <trkpt lat="43.82193" lon="5.97507">
        <ele>509.6</ele>
        <time>2020-06-20T16:02:24Z</time>
      </trkpt>
      <trkpt lat="43.82194" lon="5.97496">
        <ele>510.6</ele>
        <time>2020-06-20T16:02:53Z</time>
      </trkpt>
      <trkpt lat="43.82196" lon="5.97497">
        <ele>510.9</ele>
        <time>2020-06-20T16:02:54Z</time>
      </trkpt>
      <trkpt lat="43.82201" lon="5.97502">
        <ele>510</ele>
        <time>2020-06-20T16:02:56Z</time>
      </trkpt>
      <trkpt lat="43.82203" lon="5.97504">
        <ele>509.6</ele>
        <time>2020-06-20T16:02:58Z</time>
      </trkpt>
      <trkpt lat="43.82203" lon="5.97505">
        <ele>509.5</ele>
        <time>2020-06-20T16:02:59Z</time>
      </trkpt>
      <trkpt lat="43.82206" lon="5.97507">
        <ele>509.1</ele>
        <time>2020-06-20T16:03:00Z</time>
      </trkpt>
      <trkpt lat="43.82217" lon="5.97508">
        <ele>507.9</ele>
        <time>2020-06-20T16:03:01Z</time>
      </trkpt>
      <trkpt lat="43.8222" lon="5.975">
        <ele>507.2</ele>
        <time>2020-06-20T16:03:02Z</time>
      </trkpt>
      <trkpt lat="43.82218" lon="5.97485">
        <ele>506.3</ele>
        <time>2020-06-20T16:03:04Z</time>
      </trkpt>
      <trkpt lat="43.82214" lon="5.97487">
        <ele>506</ele>
        <time>2020-06-20T16:03:06Z</time>
      </trkpt>
      <trkpt lat="43.82213" lon="5.9748">
        <ele>505.7</ele>
        <time>2020-06-20T16:03:07Z</time>
      </trkpt>
      <trkpt lat="43.82216" lon="5.97471">
        <ele>505.2</ele>
        <time>2020-06-20T16:03:09Z</time>
      </trkpt>
      <trkpt lat="43.82219" lon="5.97465">
        <ele>504.9</ele>
        <time>2020-06-20T16:03:10Z</time>
      </trkpt>
      <trkpt lat="43.82223" lon="5.97459">
        <ele>504.7</ele>
        <time>2020-06-20T16:03:11Z</time>
      </trkpt>
      <trkpt lat="43.82227" lon="5.97453">
        <ele>504.4</ele>
        <time>2020-06-20T16:03:13Z</time>
      </trkpt>
      <trkpt lat="43.82231" lon="5.97453">
        <ele>503</ele>
        <time>2020-06-20T16:03:14Z</time>
      </trkpt>
      <trkpt lat="43.82232" lon="5.97453">
        <ele>502.9</ele>
        <time>2020-06-20T16:03:15Z</time>
      </trkpt>
      <trkpt lat="43.82235" lon="5.97455">
        <ele>502.8</ele>
        <time>2020-06-20T16:03:16Z</time>
      </trkpt>
      <trkpt lat="43.82236" lon="5.97459">
        <ele>502.7</ele>
        <time>2020-06-20T16:03:18Z</time>
      </trkpt>
      <trkpt lat="43.82236" lon="5.9746">
        <ele>502.7</ele>
        <time>2020-06-20T16:03:19Z</time>
      </trkpt>
      <trkpt lat="43.82236" lon="5.97463">
        <ele>502.7</ele>
        <time>2020-06-20T16:03:20Z</time>
      </trkpt>
      <trkpt lat="43.82236" lon="5.97465">
        <ele>502.6</ele>
        <time>2020-06-20T16:03:21Z</time>
      </trkpt>
      <trkpt lat="43.82237" lon="5.97468">
        <ele>502.6</ele>
        <time>2020-06-20T16:03:23Z</time>
      </trkpt>
      <trkpt lat="43.82237" lon="5.97472">
        <ele>502.5</ele>
        <time>2020-06-20T16:03:25Z</time>
      </trkpt>
      <trkpt lat="43.82238" lon="5.97477">
        <ele>502.4</ele>
        <time>2020-06-20T16:03:26Z</time>
      </trkpt>
      <trkpt lat="43.82239" lon="5.97484">
        <ele>502.3</ele>
        <time>2020-06-20T16:03:27Z</time>
      </trkpt>
      <trkpt lat="43.8224" lon="5.9749">
        <ele>502.2</ele>
        <time>2020-06-20T16:03:29Z</time>
      </trkpt>
      <trkpt lat="43.82241" lon="5.97497">
        <ele>502.1</ele>
        <time>2020-06-20T16:03:30Z</time>
      </trkpt>
      <trkpt lat="43.82241" lon="5.97503">
        <ele>501.9</ele>
        <time>2020-06-20T16:03:31Z</time>
      </trkpt>
      <trkpt lat="43.82242" lon="5.97513">
        <ele>501.6</ele>
        <time>2020-06-20T16:03:32Z</time>
      </trkpt>
      <trkpt lat="43.82242" lon="5.97519">
        <ele>501.4</ele>
        <time>2020-06-20T16:03:34Z</time>
      </trkpt>
      <trkpt lat="43.82241" lon="5.97524">
        <ele>501.4</ele>
        <time>2020-06-20T16:03:35Z</time>
      </trkpt>
      <trkpt lat="43.82241" lon="5.97529">
        <ele>501.3</ele>
        <time>2020-06-20T16:03:36Z</time>
      </trkpt>
      <trkpt lat="43.82241" lon="5.97533">
        <ele>501.3</ele>
        <time>2020-06-20T16:03:37Z</time>
      </trkpt>
      <trkpt lat="43.82241" lon="5.97538">
        <ele>501.2</ele>
        <time>2020-06-20T16:03:38Z</time>
      </trkpt>
      <trkpt lat="43.82242" lon="5.97542">
        <ele>501.2</ele>
        <time>2020-06-20T16:03:39Z</time>
      </trkpt>
      <trkpt lat="43.82243" lon="5.97546">
        <ele>501.3</ele>
        <time>2020-06-20T16:03:40Z</time>
      </trkpt>
      <trkpt lat="43.82244" lon="5.97551">
        <ele>501.3</ele>
        <time>2020-06-20T16:03:42Z</time>
      </trkpt>
      <trkpt lat="43.82245" lon="5.9756">
        <ele>501.3</ele>
        <time>2020-06-20T16:03:43Z</time>
      </trkpt>
      <trkpt lat="43.82246" lon="5.97569">
        <ele>501.3</ele>
        <time>2020-06-20T16:03:44Z</time>
      </trkpt>
      <trkpt lat="43.82247" lon="5.97578">
        <ele>501.3</ele>
        <time>2020-06-20T16:03:45Z</time>
      </trkpt>
      <trkpt lat="43.82248" lon="5.97589">
        <ele>501.4</ele>
        <time>2020-06-20T16:03:47Z</time>
      </trkpt>
      <trkpt lat="43.82249" lon="5.97598">
        <ele>501.5</ele>
        <time>2020-06-20T16:03:48Z</time>
      </trkpt>
      <trkpt lat="43.8225" lon="5.97606">
        <ele>501.6</ele>
        <time>2020-06-20T16:03:49Z</time>
      </trkpt>
      <trkpt lat="43.8225" lon="5.97612">
        <ele>501.7</ele>
        <time>2020-06-20T16:03:50Z</time>
      </trkpt>
      <trkpt lat="43.82251" lon="5.97618">
        <ele>501.8</ele>
        <time>2020-06-20T16:03:52Z</time>
      </trkpt>
      <trkpt lat="43.82251" lon="5.97623">
        <ele>501.9</ele>
        <time>2020-06-20T16:03:53Z</time>
      </trkpt>
      <trkpt lat="43.82252" lon="5.9763">
        <ele>502.1</ele>
        <time>2020-06-20T16:03:55Z</time>
      </trkpt>
      <trkpt lat="43.82252" lon="5.97634">
        <ele>502.2</ele>
        <time>2020-06-20T16:03:56Z</time>
      </trkpt>
      <trkpt lat="43.82253" lon="5.9764">
        <ele>502.3</ele>
        <time>2020-06-20T16:03:57Z</time>
      </trkpt>
      <trkpt lat="43.82253" lon="5.97647">
        <ele>502.4</ele>
        <time>2020-06-20T16:03:58Z</time>
      </trkpt>
      <trkpt lat="43.82253" lon="5.97656">
        <ele>502.4</ele>
        <time>2020-06-20T16:04:00Z</time>
      </trkpt>
      <trkpt lat="43.82254" lon="5.97664">
        <ele>502.5</ele>
        <time>2020-06-20T16:04:02Z</time>
      </trkpt>
      <trkpt lat="43.82254" lon="5.97671">
        <ele>502.5</ele>
        <time>2020-06-20T16:04:03Z</time>
      </trkpt>
      <trkpt lat="43.82254" lon="5.97679">
        <ele>502.6</ele>
        <time>2020-06-20T16:04:04Z</time>
      </trkpt>
      <trkpt lat="43.82254" lon="5.9769">
        <ele>502.7</ele>
        <time>2020-06-20T16:04:05Z</time>
      </trkpt>
      <trkpt lat="43.82254" lon="5.977">
        <ele>502.9</ele>
        <time>2020-06-20T16:04:06Z</time>
      </trkpt>
      <trkpt lat="43.82252" lon="5.97712">
        <ele>503.6</ele>
        <time>2020-06-20T16:04:08Z</time>
      </trkpt>
      <trkpt lat="43.82252" lon="5.97721">
        <ele>504.1</ele>
        <time>2020-06-20T16:04:09Z</time>
      </trkpt>
      <trkpt lat="43.82252" lon="5.9773">
        <ele>504.4</ele>
        <time>2020-06-20T16:04:10Z</time>
      </trkpt>
      <trkpt lat="43.82253" lon="5.97737">
        <ele>504.5</ele>
        <time>2020-06-20T16:04:11Z</time>
      </trkpt>
      <trkpt lat="43.82253" lon="5.97744">
        <ele>504.5</ele>
        <time>2020-06-20T16:04:12Z</time>
      </trkpt>
      <trkpt lat="43.82254" lon="5.97749">
        <ele>504.5</ele>
        <time>2020-06-20T16:04:13Z</time>
      </trkpt>
      <trkpt lat="43.82254" lon="5.97758">
        <ele>504.6</ele>
        <time>2020-06-20T16:04:15Z</time>
      </trkpt>
      <trkpt lat="43.82254" lon="5.97763">
        <ele>504.7</ele>
        <time>2020-06-20T16:04:16Z</time>
      </trkpt>
      <trkpt lat="43.82254" lon="5.97768">
        <ele>504.8</ele>
        <time>2020-06-20T16:04:17Z</time>
      </trkpt>
      <trkpt lat="43.82254" lon="5.97775">
        <ele>504.9</ele>
        <time>2020-06-20T16:04:19Z</time>
      </trkpt>
      <trkpt lat="43.82255" lon="5.97782">
        <ele>505.1</ele>
        <time>2020-06-20T16:04:21Z</time>
      </trkpt>
      <trkpt lat="43.82255" lon="5.97786">
        <ele>505.2</ele>
        <time>2020-06-20T16:04:22Z</time>
      </trkpt>
      <trkpt lat="43.82255" lon="5.9779">
        <ele>505.2</ele>
        <time>2020-06-20T16:04:23Z</time>
      </trkpt>
      <trkpt lat="43.82255" lon="5.97794">
        <ele>505.3</ele>
        <time>2020-06-20T16:04:24Z</time>
      </trkpt>
      <trkpt lat="43.82255" lon="5.97798">
        <ele>505.3</ele>
        <time>2020-06-20T16:04:25Z</time>
      </trkpt>
      <trkpt lat="43.82256" lon="5.97802">
        <ele>505.4</ele>
        <time>2020-06-20T16:04:26Z</time>
      </trkpt>
      <trkpt lat="43.82257" lon="5.9781">
        <ele>505.5</ele>
        <time>2020-06-20T16:04:28Z</time>
      </trkpt>
      <trkpt lat="43.82257" lon="5.97817">
        <ele>505.7</ele>
        <time>2020-06-20T16:04:30Z</time>
      </trkpt>
      <trkpt lat="43.82258" lon="5.97822">
        <ele>505.8</ele>
        <time>2020-06-20T16:04:31Z</time>
      </trkpt>
      <trkpt lat="43.82259" lon="5.97829">
        <ele>506</ele>
        <time>2020-06-20T16:04:33Z</time>
      </trkpt>
      <trkpt lat="43.82259" lon="5.97835">
        <ele>506.1</ele>
        <time>2020-06-20T16:04:34Z</time>
      </trkpt>
      <trkpt lat="43.82259" lon="5.97841">
        <ele>506.2</ele>
        <time>2020-06-20T16:04:35Z</time>
      </trkpt>
      <trkpt lat="43.8226" lon="5.97849">
        <ele>506.2</ele>
        <time>2020-06-20T16:04:37Z</time>
      </trkpt>
      <trkpt lat="43.8226" lon="5.97855">
        <ele>506.2</ele>
        <time>2020-06-20T16:04:38Z</time>
      </trkpt>
      <trkpt lat="43.82261" lon="5.9786">
        <ele>506.2</ele>
        <time>2020-06-20T16:04:39Z</time>
      </trkpt>
      <trkpt lat="43.82262" lon="5.97864">
        <ele>506.3</ele>
        <time>2020-06-20T16:04:40Z</time>
      </trkpt>
      <trkpt lat="43.82262" lon="5.9787">
        <ele>506.3</ele>
        <time>2020-06-20T16:04:42Z</time>
      </trkpt>
      <trkpt lat="43.82262" lon="5.97874">
        <ele>506.4</ele>
        <time>2020-06-20T16:04:43Z</time>
      </trkpt>
      <trkpt lat="43.82262" lon="5.97881">
        <ele>506.4</ele>
        <time>2020-06-20T16:04:45Z</time>
      </trkpt>
      <trkpt lat="43.82263" lon="5.97887">
        <ele>506.5</ele>
        <time>2020-06-20T16:04:47Z</time>
      </trkpt>
      <trkpt lat="43.82264" lon="5.97892">
        <ele>506.6</ele>
        <time>2020-06-20T16:04:48Z</time>
      </trkpt>
      <trkpt lat="43.82266" lon="5.97898">
        <ele>506.7</ele>
        <time>2020-06-20T16:04:49Z</time>
      </trkpt>
      <trkpt lat="43.82268" lon="5.97905">
        <ele>506.9</ele>
        <time>2020-06-20T16:04:51Z</time>
      </trkpt>
      <trkpt lat="43.8227" lon="5.97911">
        <ele>507.2</ele>
        <time>2020-06-20T16:04:52Z</time>
      </trkpt>
      <trkpt lat="43.82272" lon="5.97917">
        <ele>507.6</ele>
        <time>2020-06-20T16:04:53Z</time>
      </trkpt>
      <trkpt lat="43.82275" lon="5.97925">
        <ele>508</ele>
        <time>2020-06-20T16:04:54Z</time>
      </trkpt>
      <trkpt lat="43.82277" lon="5.9793">
        <ele>508.2</ele>
        <time>2020-06-20T16:04:56Z</time>
      </trkpt>
      <trkpt lat="43.82278" lon="5.97934">
        <ele>508.3</ele>
        <time>2020-06-20T16:04:57Z</time>
      </trkpt>
      <trkpt lat="43.82281" lon="5.97939">
        <ele>508.5</ele>
        <time>2020-06-20T16:04:58Z</time>
      </trkpt>
      <trkpt lat="43.82283" lon="5.97946">
        <ele>508.7</ele>
        <time>2020-06-20T16:04:59Z</time>
      </trkpt>
      <trkpt lat="43.82285" lon="5.97952">
        <ele>508.8</ele>
        <time>2020-06-20T16:05:01Z</time>
      </trkpt>
      <trkpt lat="43.82285" lon="5.97956">
        <ele>509</ele>
        <time>2020-06-20T16:05:02Z</time>
      </trkpt>
      <trkpt lat="43.82286" lon="5.97962">
        <ele>509.2</ele>
        <time>2020-06-20T16:05:03Z</time>
      </trkpt>
      <trkpt lat="43.82288" lon="5.9797">
        <ele>509.5</ele>
        <time>2020-06-20T16:05:04Z</time>
      </trkpt>
      <trkpt lat="43.8229" lon="5.97978">
        <ele>509.7</ele>
        <time>2020-06-20T16:05:06Z</time>
      </trkpt>
      <trkpt lat="43.82292" lon="5.97986">
        <ele>509.9</ele>
        <time>2020-06-20T16:05:07Z</time>
      </trkpt>
      <trkpt lat="43.82294" lon="5.97993">
        <ele>510</ele>
        <time>2020-06-20T16:05:08Z</time>
      </trkpt>
      <trkpt lat="43.82295" lon="5.98002">
        <ele>510.2</ele>
        <time>2020-06-20T16:05:09Z</time>
      </trkpt>
      <trkpt lat="43.82296" lon="5.98007">
        <ele>510.3</ele>
        <time>2020-06-20T16:05:10Z</time>
      </trkpt>
      <trkpt lat="43.82298" lon="5.98017">
        <ele>510.5</ele>
        <time>2020-06-20T16:05:12Z</time>
      </trkpt>
      <trkpt lat="43.82299" lon="5.98022">
        <ele>510.6</ele>
        <time>2020-06-20T16:05:13Z</time>
      </trkpt>
      <trkpt lat="43.82299" lon="5.98026">
        <ele>510.8</ele>
        <time>2020-06-20T16:05:14Z</time>
      </trkpt>
      <trkpt lat="43.82301" lon="5.98035">
        <ele>511</ele>
        <time>2020-06-20T16:05:16Z</time>
      </trkpt>
      <trkpt lat="43.82302" lon="5.98043">
        <ele>511.1</ele>
        <time>2020-06-20T16:05:18Z</time>
      </trkpt>
      <trkpt lat="43.82303" lon="5.98046">
        <ele>511.1</ele>
        <time>2020-06-20T16:05:19Z</time>
      </trkpt>
      <trkpt lat="43.82303" lon="5.98048">
        <ele>511.2</ele>
        <time>2020-06-20T16:05:20Z</time>
      </trkpt>
      <trkpt lat="43.82305" lon="5.98051">
        <ele>511.2</ele>
        <time>2020-06-20T16:05:22Z</time>
      </trkpt>
      <trkpt lat="43.82307" lon="5.98054">
        <ele>511.3</ele>
        <time>2020-06-20T16:05:24Z</time>
      </trkpt>
      <trkpt lat="43.82309" lon="5.98058">
        <ele>511.3</ele>
        <time>2020-06-20T16:05:25Z</time>
      </trkpt>
      <trkpt lat="43.82311" lon="5.98063">
        <ele>511.4</ele>
        <time>2020-06-20T16:05:27Z</time>
      </trkpt>
      <trkpt lat="43.82314" lon="5.98069">
        <ele>511.4</ele>
        <time>2020-06-20T16:05:29Z</time>
      </trkpt>
      <trkpt lat="43.82317" lon="5.98074">
        <ele>511.5</ele>
        <time>2020-06-20T16:05:30Z</time>
      </trkpt>
      <trkpt lat="43.8232" lon="5.98079">
        <ele>511.6</ele>
        <time>2020-06-20T16:05:31Z</time>
      </trkpt>
      <trkpt lat="43.82323" lon="5.98084">
        <ele>511.7</ele>
        <time>2020-06-20T16:05:32Z</time>
      </trkpt>
      <trkpt lat="43.82327" lon="5.98091">
        <ele>511.8</ele>
        <time>2020-06-20T16:05:34Z</time>
      </trkpt>
      <trkpt lat="43.82329" lon="5.98097">
        <ele>511.9</ele>
        <time>2020-06-20T16:05:35Z</time>
      </trkpt>
      <trkpt lat="43.82331" lon="5.98103">
        <ele>511.9</ele>
        <time>2020-06-20T16:05:36Z</time>
      </trkpt>
      <trkpt lat="43.82333" lon="5.98108">
        <ele>512</ele>
        <time>2020-06-20T16:05:37Z</time>
      </trkpt>
      <trkpt lat="43.82335" lon="5.98113">
        <ele>512.1</ele>
        <time>2020-06-20T16:05:39Z</time>
      </trkpt>
      <trkpt lat="43.82337" lon="5.98121">
        <ele>512.2</ele>
        <time>2020-06-20T16:05:40Z</time>
      </trkpt>
      <trkpt lat="43.82338" lon="5.98126">
        <ele>512.3</ele>
        <time>2020-06-20T16:05:41Z</time>
      </trkpt>
      <trkpt lat="43.82341" lon="5.98136">
        <ele>512.5</ele>
        <time>2020-06-20T16:05:43Z</time>
      </trkpt>
      <trkpt lat="43.82343" lon="5.98142">
        <ele>512.7</ele>
        <time>2020-06-20T16:05:44Z</time>
      </trkpt>
      <trkpt lat="43.82346" lon="5.9815">
        <ele>512.9</ele>
        <time>2020-06-20T16:05:46Z</time>
      </trkpt>
      <trkpt lat="43.82347" lon="5.98156">
        <ele>513.2</ele>
        <time>2020-06-20T16:05:47Z</time>
      </trkpt>
      <trkpt lat="43.82348" lon="5.98161">
        <ele>513.4</ele>
        <time>2020-06-20T16:05:48Z</time>
      </trkpt>
      <trkpt lat="43.8235" lon="5.98166">
        <ele>513.7</ele>
        <time>2020-06-20T16:05:50Z</time>
      </trkpt>
      <trkpt lat="43.82352" lon="5.98171">
        <ele>514</ele>
        <time>2020-06-20T16:05:51Z</time>
      </trkpt>
      <trkpt lat="43.82354" lon="5.98177">
        <ele>514.3</ele>
        <time>2020-06-20T16:05:53Z</time>
      </trkpt>
      <trkpt lat="43.82355" lon="5.98182">
        <ele>514.5</ele>
        <time>2020-06-20T16:05:54Z</time>
      </trkpt>
      <trkpt lat="43.82357" lon="5.98188">
        <ele>514.6</ele>
        <time>2020-06-20T16:05:55Z</time>
      </trkpt>
      <trkpt lat="43.82358" lon="5.98192">
        <ele>514.7</ele>
        <time>2020-06-20T16:05:57Z</time>
      </trkpt>
      <trkpt lat="43.8236" lon="5.98197">
        <ele>514.9</ele>
        <time>2020-06-20T16:05:58Z</time>
      </trkpt>
      <trkpt lat="43.82362" lon="5.98202">
        <ele>515</ele>
        <time>2020-06-20T16:05:59Z</time>
      </trkpt>
      <trkpt lat="43.82363" lon="5.98207">
        <ele>515.1</ele>
        <time>2020-06-20T16:06:00Z</time>
      </trkpt>
      <trkpt lat="43.82364" lon="5.98211">
        <ele>515.2</ele>
        <time>2020-06-20T16:06:01Z</time>
      </trkpt>
      <trkpt lat="43.82365" lon="5.98216">
        <ele>515.2</ele>
        <time>2020-06-20T16:06:02Z</time>
      </trkpt>
      <trkpt lat="43.82366" lon="5.98222">
        <ele>515.3</ele>
        <time>2020-06-20T16:06:04Z</time>
      </trkpt>
      <trkpt lat="43.82368" lon="5.98226">
        <ele>515.4</ele>
        <time>2020-06-20T16:06:05Z</time>
      </trkpt>
      <trkpt lat="43.82369" lon="5.9823">
        <ele>515.5</ele>
        <time>2020-06-20T16:06:06Z</time>
      </trkpt>
      <trkpt lat="43.8237" lon="5.98235">
        <ele>515.6</ele>
        <time>2020-06-20T16:06:07Z</time>
      </trkpt>
      <trkpt lat="43.82372" lon="5.9824">
        <ele>515.7</ele>
        <time>2020-06-20T16:06:09Z</time>
      </trkpt>
      <trkpt lat="43.82374" lon="5.98246">
        <ele>515.8</ele>
        <time>2020-06-20T16:06:10Z</time>
      </trkpt>
      <trkpt lat="43.82375" lon="5.98251">
        <ele>515.8</ele>
        <time>2020-06-20T16:06:11Z</time>
      </trkpt>
      <trkpt lat="43.82376" lon="5.98252">
        <ele>515.8</ele>
        <time>2020-06-20T16:06:12Z</time>
      </trkpt>
      <trkpt lat="43.82377" lon="5.98256">
        <ele>515.8</ele>
        <time>2020-06-20T16:06:13Z</time>
      </trkpt>
      <trkpt lat="43.82379" lon="5.9826">
        <ele>515.8</ele>
        <time>2020-06-20T16:06:15Z</time>
      </trkpt>
      <trkpt lat="43.82379" lon="5.98261">
        <ele>515.8</ele>
        <time>2020-06-20T16:06:16Z</time>
      </trkpt>
      <trkpt lat="43.82381" lon="5.98265">
        <ele>515.8</ele>
        <time>2020-06-20T16:06:17Z</time>
      </trkpt>
      <trkpt lat="43.82382" lon="5.98266">
        <ele>515.8</ele>
        <time>2020-06-20T16:06:18Z</time>
      </trkpt>
      <trkpt lat="43.82386" lon="5.98272">
        <ele>515.9</ele>
        <time>2020-06-20T16:06:20Z</time>
      </trkpt>
      <trkpt lat="43.82387" lon="5.98274">
        <ele>515.9</ele>
        <time>2020-06-20T16:06:21Z</time>
      </trkpt>
      <trkpt lat="43.82389" lon="5.98276">
        <ele>515.9</ele>
        <time>2020-06-20T16:06:22Z</time>
      </trkpt>
      <trkpt lat="43.8239" lon="5.9828">
        <ele>515.8</ele>
        <time>2020-06-20T16:06:23Z</time>
      </trkpt>
      <trkpt lat="43.82391" lon="5.98287">
        <ele>515.7</ele>
        <time>2020-06-20T16:06:25Z</time>
      </trkpt>
      <trkpt lat="43.82399" lon="5.98309">
        <ele>515.2</ele>
        <time>2020-06-20T16:06:27Z</time>
      </trkpt>
      <trkpt lat="43.82404" lon="5.98322">
        <ele>514.9</ele>
        <time>2020-06-20T16:06:29Z</time>
      </trkpt>
      <trkpt lat="43.82407" lon="5.98329">
        <ele>514.9</ele>
        <time>2020-06-20T16:06:30Z</time>
      </trkpt>
      <trkpt lat="43.82409" lon="5.98338">
        <ele>514.9</ele>
        <time>2020-06-20T16:06:32Z</time>
      </trkpt>
      <trkpt lat="43.82412" lon="5.98344">
        <ele>515.1</ele>
        <time>2020-06-20T16:06:33Z</time>
      </trkpt>
      <trkpt lat="43.82414" lon="5.9835">
        <ele>515.2</ele>
        <time>2020-06-20T16:06:35Z</time>
      </trkpt>
      <trkpt lat="43.82416" lon="5.98354">
        <ele>515.3</ele>
        <time>2020-06-20T16:06:36Z</time>
      </trkpt>
      <trkpt lat="43.82419" lon="5.98359">
        <ele>515.5</ele>
        <time>2020-06-20T16:06:37Z</time>
      </trkpt>
      <trkpt lat="43.82422" lon="5.98365">
        <ele>515.7</ele>
        <time>2020-06-20T16:06:38Z</time>
      </trkpt>
      <trkpt lat="43.82425" lon="5.98371">
        <ele>515.8</ele>
        <time>2020-06-20T16:06:40Z</time>
      </trkpt>
      <trkpt lat="43.82427" lon="5.98379">
        <ele>515.9</ele>
        <time>2020-06-20T16:06:41Z</time>
      </trkpt>
      <trkpt lat="43.82429" lon="5.98384">
        <ele>516</ele>
        <time>2020-06-20T16:06:42Z</time>
      </trkpt>
      <trkpt lat="43.82432" lon="5.9839">
        <ele>516.1</ele>
        <time>2020-06-20T16:06:43Z</time>
      </trkpt>
      <trkpt lat="43.82434" lon="5.98397">
        <ele>516.2</ele>
        <time>2020-06-20T16:06:45Z</time>
      </trkpt>
      <trkpt lat="43.82437" lon="5.98403">
        <ele>516.3</ele>
        <time>2020-06-20T16:06:46Z</time>
      </trkpt>
      <trkpt lat="43.82439" lon="5.98409">
        <ele>516.4</ele>
        <time>2020-06-20T16:06:47Z</time>
      </trkpt>
      <trkpt lat="43.82443" lon="5.98418">
        <ele>516.7</ele>
        <time>2020-06-20T16:06:49Z</time>
      </trkpt>
      <trkpt lat="43.82446" lon="5.98424">
        <ele>517</ele>
        <time>2020-06-20T16:06:51Z</time>
      </trkpt>
      <trkpt lat="43.82447" lon="5.98429">
        <ele>517.2</ele>
        <time>2020-06-20T16:06:52Z</time>
      </trkpt>
      <trkpt lat="43.82449" lon="5.98435">
        <ele>517.4</ele>
        <time>2020-06-20T16:06:53Z</time>
      </trkpt>
      <trkpt lat="43.82451" lon="5.9844">
        <ele>517.6</ele>
        <time>2020-06-20T16:06:55Z</time>
      </trkpt>
      <trkpt lat="43.82454" lon="5.98444">
        <ele>517.8</ele>
        <time>2020-06-20T16:06:56Z</time>
      </trkpt>
      <trkpt lat="43.82456" lon="5.9845">
        <ele>517.9</ele>
        <time>2020-06-20T16:06:57Z</time>
      </trkpt>
      <trkpt lat="43.82459" lon="5.98455">
        <ele>518.1</ele>
        <time>2020-06-20T16:06:58Z</time>
      </trkpt>
      <trkpt lat="43.8246" lon="5.98459">
        <ele>518.1</ele>
        <time>2020-06-20T16:06:59Z</time>
      </trkpt>
      <trkpt lat="43.82462" lon="5.98462">
        <ele>518.2</ele>
        <time>2020-06-20T16:07:00Z</time>
      </trkpt>
      <trkpt lat="43.82464" lon="5.98467">
        <ele>518.3</ele>
        <time>2020-06-20T16:07:02Z</time>
      </trkpt>
      <trkpt lat="43.82466" lon="5.9847">
        <ele>518.5</ele>
        <time>2020-06-20T16:07:03Z</time>
      </trkpt>
      <trkpt lat="43.82469" lon="5.98475">
        <ele>518.6</ele>
        <time>2020-06-20T16:07:05Z</time>
      </trkpt>
      <trkpt lat="43.8247" lon="5.98478">
        <ele>518.7</ele>
        <time>2020-06-20T16:07:06Z</time>
      </trkpt>
      <trkpt lat="43.82472" lon="5.98481">
        <ele>518.8</ele>
        <time>2020-06-20T16:07:07Z</time>
      </trkpt>
      <trkpt lat="43.82473" lon="5.98483">
        <ele>518.9</ele>
        <time>2020-06-20T16:07:08Z</time>
      </trkpt>
      <trkpt lat="43.82475" lon="5.98487">
        <ele>518.9</ele>
        <time>2020-06-20T16:07:10Z</time>
      </trkpt>
      <trkpt lat="43.82477" lon="5.98491">
        <ele>519</ele>
        <time>2020-06-20T16:07:11Z</time>
      </trkpt>
      <trkpt lat="43.82479" lon="5.98496">
        <ele>519</ele>
        <time>2020-06-20T16:07:12Z</time>
      </trkpt>
      <trkpt lat="43.82482" lon="5.98501">
        <ele>519</ele>
        <time>2020-06-20T16:07:14Z</time>
      </trkpt>
      <trkpt lat="43.82485" lon="5.98505">
        <ele>519</ele>
        <time>2020-06-20T16:07:15Z</time>
      </trkpt>
      <trkpt lat="43.82487" lon="5.98509">
        <ele>518.9</ele>
        <time>2020-06-20T16:07:16Z</time>
      </trkpt>
      <trkpt lat="43.82489" lon="5.98514">
        <ele>518.9</ele>
        <time>2020-06-20T16:07:17Z</time>
      </trkpt>
      <trkpt lat="43.82491" lon="5.98518">
        <ele>518.9</ele>
        <time>2020-06-20T16:07:18Z</time>
      </trkpt>
      <trkpt lat="43.82495" lon="5.98523">
        <ele>518.8</ele>
        <time>2020-06-20T16:07:19Z</time>
      </trkpt>
      <trkpt lat="43.82499" lon="5.98529">
        <ele>518.9</ele>
        <time>2020-06-20T16:07:21Z</time>
      </trkpt>
      <trkpt lat="43.82503" lon="5.98535">
        <ele>518.9</ele>
        <time>2020-06-20T16:07:22Z</time>
      </trkpt>
      <trkpt lat="43.82506" lon="5.98543">
        <ele>519</ele>
        <time>2020-06-20T16:07:24Z</time>
      </trkpt>
      <trkpt lat="43.82509" lon="5.98548">
        <ele>519</ele>
        <time>2020-06-20T16:07:25Z</time>
      </trkpt>
      <trkpt lat="43.82512" lon="5.98553">
        <ele>519</ele>
        <time>2020-06-20T16:07:27Z</time>
      </trkpt>
      <trkpt lat="43.82515" lon="5.98559">
        <ele>519</ele>
        <time>2020-06-20T16:07:28Z</time>
      </trkpt>
      <trkpt lat="43.82516" lon="5.98563">
        <ele>519</ele>
        <time>2020-06-20T16:07:29Z</time>
      </trkpt>
      <trkpt lat="43.82518" lon="5.98567">
        <ele>519.1</ele>
        <time>2020-06-20T16:07:30Z</time>
      </trkpt>
      <trkpt lat="43.8252" lon="5.9857">
        <ele>519.1</ele>
        <time>2020-06-20T16:07:31Z</time>
      </trkpt>
      <trkpt lat="43.82522" lon="5.98574">
        <ele>519.3</ele>
        <time>2020-06-20T16:07:32Z</time>
      </trkpt>
      <trkpt lat="43.82523" lon="5.98577">
        <ele>519.4</ele>
        <time>2020-06-20T16:07:33Z</time>
      </trkpt>
      <trkpt lat="43.82526" lon="5.98582">
        <ele>519.5</ele>
        <time>2020-06-20T16:07:35Z</time>
      </trkpt>
      <trkpt lat="43.82529" lon="5.98587">
        <ele>519.7</ele>
        <time>2020-06-20T16:07:36Z</time>
      </trkpt>
      <trkpt lat="43.82531" lon="5.9859">
        <ele>519.8</ele>
        <time>2020-06-20T16:07:37Z</time>
      </trkpt>
      <trkpt lat="43.82534" lon="5.98596">
        <ele>520.1</ele>
        <time>2020-06-20T16:07:39Z</time>
      </trkpt>
      <trkpt lat="43.82536" lon="5.98602">
        <ele>520.2</ele>
        <time>2020-06-20T16:07:40Z</time>
      </trkpt>
      <trkpt lat="43.82539" lon="5.98606">
        <ele>520.4</ele>
        <time>2020-06-20T16:07:41Z</time>
      </trkpt>
      <trkpt lat="43.82541" lon="5.9861">
        <ele>520.5</ele>
        <time>2020-06-20T16:07:42Z</time>
      </trkpt>
      <trkpt lat="43.82543" lon="5.98615">
        <ele>520.6</ele>
        <time>2020-06-20T16:07:44Z</time>
      </trkpt>
      <trkpt lat="43.82545" lon="5.98619">
        <ele>520.7</ele>
        <time>2020-06-20T16:07:45Z</time>
      </trkpt>
      <trkpt lat="43.82546" lon="5.98622">
        <ele>520.8</ele>
        <time>2020-06-20T16:07:46Z</time>
      </trkpt>
      <trkpt lat="43.82547" lon="5.98623">
        <ele>520.9</ele>
        <time>2020-06-20T16:07:47Z</time>
      </trkpt>
      <trkpt lat="43.82548" lon="5.98625">
        <ele>521</ele>
        <time>2020-06-20T16:07:48Z</time>
      </trkpt>
      <trkpt lat="43.82551" lon="5.98629">
        <ele>521.1</ele>
        <time>2020-06-20T16:07:50Z</time>
      </trkpt>
      <trkpt lat="43.82553" lon="5.98631">
        <ele>521.2</ele>
        <time>2020-06-20T16:07:51Z</time>
      </trkpt>
      <trkpt lat="43.82555" lon="5.98633">
        <ele>521.3</ele>
        <time>2020-06-20T16:07:53Z</time>
      </trkpt>
      <trkpt lat="43.82559" lon="5.98636">
        <ele>521.5</ele>
        <time>2020-06-20T16:07:54Z</time>
      </trkpt>
      <trkpt lat="43.8256" lon="5.98637">
        <ele>521.5</ele>
        <time>2020-06-20T16:07:55Z</time>
      </trkpt>
      <trkpt lat="43.82563" lon="5.98639">
        <ele>521.6</ele>
        <time>2020-06-20T16:07:56Z</time>
      </trkpt>
      <trkpt lat="43.82566" lon="5.98652">
        <ele>522</ele>
        <time>2020-06-20T16:07:58Z</time>
      </trkpt>
      <trkpt lat="43.82567" lon="5.98659">
        <ele>522.2</ele>
        <time>2020-06-20T16:07:59Z</time>
      </trkpt>
      <trkpt lat="43.82569" lon="5.98668">
        <ele>522.4</ele>
        <time>2020-06-20T16:08:01Z</time>
      </trkpt>
      <trkpt lat="43.8257" lon="5.98673">
        <ele>522.6</ele>
        <time>2020-06-20T16:08:02Z</time>
      </trkpt>
      <trkpt lat="43.82571" lon="5.98678">
        <ele>522.7</ele>
        <time>2020-06-20T16:08:03Z</time>
      </trkpt>
      <trkpt lat="43.82573" lon="5.98683">
        <ele>522.8</ele>
        <time>2020-06-20T16:08:05Z</time>
      </trkpt>
      <trkpt lat="43.82575" lon="5.98687">
        <ele>522.8</ele>
        <time>2020-06-20T16:08:06Z</time>
      </trkpt>
      <trkpt lat="43.82576" lon="5.98691">
        <ele>522.9</ele>
        <time>2020-06-20T16:08:07Z</time>
      </trkpt>
      <trkpt lat="43.82578" lon="5.98696">
        <ele>523</ele>
        <time>2020-06-20T16:08:08Z</time>
      </trkpt>
      <trkpt lat="43.8258" lon="5.98701">
        <ele>523.2</ele>
        <time>2020-06-20T16:08:10Z</time>
      </trkpt>
      <trkpt lat="43.82582" lon="5.98705">
        <ele>523.3</ele>
        <time>2020-06-20T16:08:11Z</time>
      </trkpt>
      <trkpt lat="43.82583" lon="5.98709">
        <ele>523.4</ele>
        <time>2020-06-20T16:08:12Z</time>
      </trkpt>
      <trkpt lat="43.82585" lon="5.98713">
        <ele>523.5</ele>
        <time>2020-06-20T16:08:13Z</time>
      </trkpt>
      <trkpt lat="43.82586" lon="5.98714">
        <ele>523.6</ele>
        <time>2020-06-20T16:08:14Z</time>
      </trkpt>
      <trkpt lat="43.82589" lon="5.98719">
        <ele>523.7</ele>
        <time>2020-06-20T16:08:16Z</time>
      </trkpt>
      <trkpt lat="43.82591" lon="5.98723">
        <ele>523.8</ele>
        <time>2020-06-20T16:08:17Z</time>
      </trkpt>
      <trkpt lat="43.82592" lon="5.98727">
        <ele>524</ele>
        <time>2020-06-20T16:08:18Z</time>
      </trkpt>
      <trkpt lat="43.82595" lon="5.98733">
        <ele>524.2</ele>
        <time>2020-06-20T16:08:20Z</time>
      </trkpt>
      <trkpt lat="43.82597" lon="5.98737">
        <ele>524.3</ele>
        <time>2020-06-20T16:08:21Z</time>
      </trkpt>
      <trkpt lat="43.82601" lon="5.98743">
        <ele>524.6</ele>
        <time>2020-06-20T16:08:23Z</time>
      </trkpt>
      <trkpt lat="43.82602" lon="5.98747">
        <ele>524.7</ele>
        <time>2020-06-20T16:08:24Z</time>
      </trkpt>
      <trkpt lat="43.82603" lon="5.98752">
        <ele>524.7</ele>
        <time>2020-06-20T16:08:25Z</time>
      </trkpt>
      <trkpt lat="43.82604" lon="5.98755">
        <ele>524.8</ele>
        <time>2020-06-20T16:08:26Z</time>
      </trkpt>
      <trkpt lat="43.82605" lon="5.98758">
        <ele>524.8</ele>
        <time>2020-06-20T16:08:27Z</time>
      </trkpt>
      <trkpt lat="43.82607" lon="5.98765">
        <ele>524.9</ele>
        <time>2020-06-20T16:08:29Z</time>
      </trkpt>
      <trkpt lat="43.82607" lon="5.98769">
        <ele>525</ele>
        <time>2020-06-20T16:08:31Z</time>
      </trkpt>
      <trkpt lat="43.82608" lon="5.98773">
        <ele>525.1</ele>
        <time>2020-06-20T16:08:32Z</time>
      </trkpt>
      <trkpt lat="43.82608" lon="5.98778">
        <ele>525.1</ele>
        <time>2020-06-20T16:08:33Z</time>
      </trkpt>
      <trkpt lat="43.8261" lon="5.98784">
        <ele>525.2</ele>
        <time>2020-06-20T16:08:35Z</time>
      </trkpt>
      <trkpt lat="43.8261" lon="5.98787">
        <ele>525.3</ele>
        <time>2020-06-20T16:08:36Z</time>
      </trkpt>
      <trkpt lat="43.82611" lon="5.98791">
        <ele>525.3</ele>
        <time>2020-06-20T16:08:37Z</time>
      </trkpt>
      <trkpt lat="43.82612" lon="5.98797">
        <ele>525.3</ele>
        <time>2020-06-20T16:08:39Z</time>
      </trkpt>
      <trkpt lat="43.82613" lon="5.98801">
        <ele>525.3</ele>
        <time>2020-06-20T16:08:40Z</time>
      </trkpt>
      <trkpt lat="43.82616" lon="5.98806">
        <ele>525.3</ele>
        <time>2020-06-20T16:08:42Z</time>
      </trkpt>
      <trkpt lat="43.82618" lon="5.98809">
        <ele>525.3</ele>
        <time>2020-06-20T16:08:43Z</time>
      </trkpt>
      <trkpt lat="43.82621" lon="5.98813">
        <ele>525.3</ele>
        <time>2020-06-20T16:08:44Z</time>
      </trkpt>
      <trkpt lat="43.82623" lon="5.98816">
        <ele>525.3</ele>
        <time>2020-06-20T16:08:45Z</time>
      </trkpt>
      <trkpt lat="43.82626" lon="5.98821">
        <ele>525.3</ele>
        <time>2020-06-20T16:08:47Z</time>
      </trkpt>
      <trkpt lat="43.82629" lon="5.98827">
        <ele>525.3</ele>
        <time>2020-06-20T16:08:49Z</time>
      </trkpt>
      <trkpt lat="43.82632" lon="5.98831">
        <ele>525.3</ele>
        <time>2020-06-20T16:08:50Z</time>
      </trkpt>
      <trkpt lat="43.82634" lon="5.98834">
        <ele>525.3</ele>
        <time>2020-06-20T16:08:51Z</time>
      </trkpt>
      <trkpt lat="43.82636" lon="5.98837">
        <ele>525.3</ele>
        <time>2020-06-20T16:08:52Z</time>
      </trkpt>
      <trkpt lat="43.82638" lon="5.98842">
        <ele>525.3</ele>
        <time>2020-06-20T16:08:54Z</time>
      </trkpt>
      <trkpt lat="43.82641" lon="5.98847">
        <ele>525.4</ele>
        <time>2020-06-20T16:08:55Z</time>
      </trkpt>
      <trkpt lat="43.82642" lon="5.9885">
        <ele>525.4</ele>
        <time>2020-06-20T16:08:56Z</time>
      </trkpt>
      <trkpt lat="43.82645" lon="5.98856">
        <ele>525.4</ele>
        <time>2020-06-20T16:08:58Z</time>
      </trkpt>
      <trkpt lat="43.82649" lon="5.98862">
        <ele>525.5</ele>
        <time>2020-06-20T16:09:00Z</time>
      </trkpt>
      <trkpt lat="43.82651" lon="5.98867">
        <ele>525.5</ele>
        <time>2020-06-20T16:09:02Z</time>
      </trkpt>
      <trkpt lat="43.82653" lon="5.98871">
        <ele>525.6</ele>
        <time>2020-06-20T16:09:03Z</time>
      </trkpt>
      <trkpt lat="43.82655" lon="5.98876">
        <ele>525.6</ele>
        <time>2020-06-20T16:09:05Z</time>
      </trkpt>
      <trkpt lat="43.82657" lon="5.98881">
        <ele>525.6</ele>
        <time>2020-06-20T16:09:06Z</time>
      </trkpt>
      <trkpt lat="43.82659" lon="5.98885">
        <ele>525.7</ele>
        <time>2020-06-20T16:09:07Z</time>
      </trkpt>
      <trkpt lat="43.8266" lon="5.98887">
        <ele>525.7</ele>
        <time>2020-06-20T16:09:08Z</time>
      </trkpt>
      <trkpt lat="43.82662" lon="5.98892">
        <ele>525.7</ele>
        <time>2020-06-20T16:09:10Z</time>
      </trkpt>
      <trkpt lat="43.82664" lon="5.98898">
        <ele>525.6</ele>
        <time>2020-06-20T16:09:11Z</time>
      </trkpt>
      <trkpt lat="43.82667" lon="5.98905">
        <ele>525.3</ele>
        <time>2020-06-20T16:09:13Z</time>
      </trkpt>
      <trkpt lat="43.8267" lon="5.9891">
        <ele>525</ele>
        <time>2020-06-20T16:09:14Z</time>
      </trkpt>
      <trkpt lat="43.82674" lon="5.98914">
        <ele>524.7</ele>
        <time>2020-06-20T16:09:15Z</time>
      </trkpt>
      <trkpt lat="43.82678" lon="5.98918">
        <ele>524.3</ele>
        <time>2020-06-20T16:09:16Z</time>
      </trkpt>
      <trkpt lat="43.82682" lon="5.98922">
        <ele>523.8</ele>
        <time>2020-06-20T16:09:17Z</time>
      </trkpt>
      <trkpt lat="43.82688" lon="5.98925">
        <ele>523.2</ele>
        <time>2020-06-20T16:09:19Z</time>
      </trkpt>
      <trkpt lat="43.82692" lon="5.98928">
        <ele>522.8</ele>
        <time>2020-06-20T16:09:20Z</time>
      </trkpt>
      <trkpt lat="43.82699" lon="5.98933">
        <ele>522.2</ele>
        <time>2020-06-20T16:09:21Z</time>
      </trkpt>
      <trkpt lat="43.82703" lon="5.98937">
        <ele>522</ele>
        <time>2020-06-20T16:09:22Z</time>
      </trkpt>
      <trkpt lat="43.82708" lon="5.98935">
        <ele>521.8</ele>
        <time>2020-06-20T16:09:24Z</time>
      </trkpt>
      <trkpt lat="43.82713" lon="5.98946">
        <ele>521.7</ele>
        <time>2020-06-20T16:09:26Z</time>
      </trkpt>
      <trkpt lat="43.82716" lon="5.98952">
        <ele>521.7</ele>
        <time>2020-06-20T16:09:27Z</time>
      </trkpt>
      <trkpt lat="43.82719" lon="5.98957">
        <ele>521.8</ele>
        <time>2020-06-20T16:09:29Z</time>
      </trkpt>
      <trkpt lat="43.82721" lon="5.98961">
        <ele>521.9</ele>
        <time>2020-06-20T16:09:30Z</time>
      </trkpt>
      <trkpt lat="43.82723" lon="5.98965">
        <ele>522.1</ele>
        <time>2020-06-20T16:09:32Z</time>
      </trkpt>
      <trkpt lat="43.82724" lon="5.98967">
        <ele>522.2</ele>
        <time>2020-06-20T16:09:33Z</time>
      </trkpt>
      <trkpt lat="43.82724" lon="5.98968">
        <ele>522.2</ele>
        <time>2020-06-20T16:09:34Z</time>
      </trkpt>
      <trkpt lat="43.82725" lon="5.98968">
        <ele>522.2</ele>
        <time>2020-06-20T16:09:35Z</time>
      </trkpt>
      <trkpt lat="43.82725" lon="5.98968">
        <ele>522.3</ele>
        <time>2020-06-20T16:09:36Z</time>
      </trkpt>
      <trkpt lat="43.82725" lon="5.98969">
        <ele>522.3</ele>
        <time>2020-06-20T16:09:38Z</time>
      </trkpt>
      <trkpt lat="43.82726" lon="5.9897">
        <ele>522.4</ele>
        <time>2020-06-20T16:09:40Z</time>
      </trkpt>
      <trkpt lat="43.82726" lon="5.98971">
        <ele>522.4</ele>
        <time>2020-06-20T16:09:41Z</time>
      </trkpt>
      <trkpt lat="43.82726" lon="5.98972">
        <ele>522.4</ele>
        <time>2020-06-20T16:09:43Z</time>
      </trkpt>
      <trkpt lat="43.82728" lon="5.98975">
        <ele>522.7</ele>
        <time>2020-06-20T16:10:13Z</time>
      </trkpt>
      <trkpt lat="43.8273" lon="5.98978">
        <ele>522.9</ele>
        <time>2020-06-20T16:10:15Z</time>
      </trkpt>
      <trkpt lat="43.82731" lon="5.98982">
        <ele>523.1</ele>
        <time>2020-06-20T16:10:18Z</time>
      </trkpt>
      <trkpt lat="43.82733" lon="5.98986">
        <ele>523.4</ele>
        <time>2020-06-20T16:10:19Z</time>
      </trkpt>
      <trkpt lat="43.82734" lon="5.9899">
        <ele>523.7</ele>
        <time>2020-06-20T16:10:21Z</time>
      </trkpt>
      <trkpt lat="43.82735" lon="5.98992">
        <ele>523.8</ele>
        <time>2020-06-20T16:10:22Z</time>
      </trkpt>
      <trkpt lat="43.82736" lon="5.98996">
        <ele>524.1</ele>
        <time>2020-06-20T16:10:24Z</time>
      </trkpt>
      <trkpt lat="43.82738" lon="5.99">
        <ele>524.4</ele>
        <time>2020-06-20T16:10:26Z</time>
      </trkpt>
      <trkpt lat="43.82738" lon="5.99001">
        <ele>524.5</ele>
        <time>2020-06-20T16:10:27Z</time>
      </trkpt>
      <trkpt lat="43.82739" lon="5.99004">
        <ele>524.7</ele>
        <time>2020-06-20T16:10:28Z</time>
      </trkpt>
      <trkpt lat="43.8274" lon="5.99005">
        <ele>524.8</ele>
        <time>2020-06-20T16:10:29Z</time>
      </trkpt>
      <trkpt lat="43.82742" lon="5.99008">
        <ele>525.1</ele>
        <time>2020-06-20T16:10:31Z</time>
      </trkpt>
      <trkpt lat="43.82742" lon="5.9901">
        <ele>525.2</ele>
        <time>2020-06-20T16:10:33Z</time>
      </trkpt>
      <trkpt lat="43.82744" lon="5.99015">
        <ele>525.5</ele>
        <time>2020-06-20T16:10:35Z</time>
      </trkpt>
      <trkpt lat="43.82746" lon="5.99018">
        <ele>525.7</ele>
        <time>2020-06-20T16:10:36Z</time>
      </trkpt>
      <trkpt lat="43.82746" lon="5.99019">
        <ele>525.8</ele>
        <time>2020-06-20T16:10:37Z</time>
      </trkpt>
      <trkpt lat="43.82746" lon="5.99022">
        <ele>525.9</ele>
        <time>2020-06-20T16:10:39Z</time>
      </trkpt>
      <trkpt lat="43.82746" lon="5.99025">
        <ele>525.9</ele>
        <time>2020-06-20T16:10:41Z</time>
      </trkpt>
      <trkpt lat="43.82747" lon="5.99027">
        <ele>526</ele>
        <time>2020-06-20T16:10:42Z</time>
      </trkpt>
      <trkpt lat="43.82747" lon="5.99029">
        <ele>526</ele>
        <time>2020-06-20T16:10:43Z</time>
      </trkpt>
      <trkpt lat="43.82749" lon="5.99033">
        <ele>526.1</ele>
        <time>2020-06-20T16:10:44Z</time>
      </trkpt>
      <trkpt lat="43.8275" lon="5.99036">
        <ele>526.1</ele>
        <time>2020-06-20T16:10:46Z</time>
      </trkpt>
      <trkpt lat="43.82752" lon="5.99041">
        <ele>526</ele>
        <time>2020-06-20T16:10:47Z</time>
      </trkpt>
      <trkpt lat="43.82753" lon="5.99045">
        <ele>525.9</ele>
        <time>2020-06-20T16:10:48Z</time>
      </trkpt>
      <trkpt lat="43.82762" lon="5.99055">
        <ele>525.3</ele>
        <time>2020-06-20T16:10:49Z</time>
      </trkpt>
      <trkpt lat="43.82767" lon="5.99061">
        <ele>524.6</ele>
        <time>2020-06-20T16:10:51Z</time>
      </trkpt>
      <trkpt lat="43.82777" lon="5.99075">
        <ele>523.5</ele>
        <time>2020-06-20T16:10:53Z</time>
      </trkpt>
      <trkpt lat="43.8279" lon="5.99085">
        <ele>522.9</ele>
        <time>2020-06-20T16:10:55Z</time>
      </trkpt>
      <trkpt lat="43.82792" lon="5.99088">
        <ele>522.8</ele>
        <time>2020-06-20T16:10:56Z</time>
      </trkpt>
      <trkpt lat="43.82797" lon="5.99092">
        <ele>522.8</ele>
        <time>2020-06-20T16:10:58Z</time>
      </trkpt>
      <trkpt lat="43.82801" lon="5.99095">
        <ele>522.8</ele>
        <time>2020-06-20T16:10:59Z</time>
      </trkpt>
      <trkpt lat="43.82804" lon="5.99097">
        <ele>522.8</ele>
        <time>2020-06-20T16:11:00Z</time>
      </trkpt>
      <trkpt lat="43.82807" lon="5.99101">
        <ele>522.8</ele>
        <time>2020-06-20T16:11:02Z</time>
      </trkpt>
      <trkpt lat="43.82811" lon="5.99104">
        <ele>522.9</ele>
        <time>2020-06-20T16:11:03Z</time>
      </trkpt>
      <trkpt lat="43.82812" lon="5.99106">
        <ele>522.9</ele>
        <time>2020-06-20T16:11:04Z</time>
      </trkpt>
      <trkpt lat="43.82816" lon="5.99111">
        <ele>523</ele>
        <time>2020-06-20T16:11:06Z</time>
      </trkpt>
      <trkpt lat="43.82819" lon="5.99115">
        <ele>523.2</ele>
        <time>2020-06-20T16:11:08Z</time>
      </trkpt>
      <trkpt lat="43.82823" lon="5.9912">
        <ele>523.3</ele>
        <time>2020-06-20T16:11:09Z</time>
      </trkpt>
      <trkpt lat="43.82825" lon="5.99124">
        <ele>523.4</ele>
        <time>2020-06-20T16:11:11Z</time>
      </trkpt>
      <trkpt lat="43.82827" lon="5.99126">
        <ele>523.5</ele>
        <time>2020-06-20T16:11:12Z</time>
      </trkpt>
      <trkpt lat="43.82829" lon="5.99129">
        <ele>523.5</ele>
        <time>2020-06-20T16:11:13Z</time>
      </trkpt>
      <trkpt lat="43.82832" lon="5.99133">
        <ele>523.7</ele>
        <time>2020-06-20T16:11:14Z</time>
      </trkpt>
      <trkpt lat="43.82834" lon="5.99134">
        <ele>523.7</ele>
        <time>2020-06-20T16:11:15Z</time>
      </trkpt>
      <trkpt lat="43.8284" lon="5.99146">
        <ele>524</ele>
        <time>2020-06-20T16:11:16Z</time>
      </trkpt>
      <trkpt lat="43.82845" lon="5.99156">
        <ele>524.2</ele>
        <time>2020-06-20T16:11:17Z</time>
      </trkpt>
      <trkpt lat="43.8285" lon="5.99166">
        <ele>524.4</ele>
        <time>2020-06-20T16:11:19Z</time>
      </trkpt>
      <trkpt lat="43.82853" lon="5.9917">
        <ele>524.6</ele>
        <time>2020-06-20T16:11:20Z</time>
      </trkpt>
      <trkpt lat="43.82858" lon="5.99178">
        <ele>524.9</ele>
        <time>2020-06-20T16:11:22Z</time>
      </trkpt>
      <trkpt lat="43.8286" lon="5.99182">
        <ele>525</ele>
        <time>2020-06-20T16:11:23Z</time>
      </trkpt>
      <trkpt lat="43.82864" lon="5.99189">
        <ele>525.4</ele>
        <time>2020-06-20T16:11:25Z</time>
      </trkpt>
      <trkpt lat="43.82866" lon="5.99192">
        <ele>525.6</ele>
        <time>2020-06-20T16:11:26Z</time>
      </trkpt>
      <trkpt lat="43.82871" lon="5.99199">
        <ele>526</ele>
        <time>2020-06-20T16:11:28Z</time>
      </trkpt>
      <trkpt lat="43.82873" lon="5.99202">
        <ele>526.2</ele>
        <time>2020-06-20T16:11:29Z</time>
      </trkpt>
      <trkpt lat="43.82876" lon="5.99208">
        <ele>526.4</ele>
        <time>2020-06-20T16:11:31Z</time>
      </trkpt>
      <trkpt lat="43.82877" lon="5.99211">
        <ele>526.5</ele>
        <time>2020-06-20T16:11:33Z</time>
      </trkpt>
      <trkpt lat="43.8288" lon="5.99218">
        <ele>526.8</ele>
        <time>2020-06-20T16:11:35Z</time>
      </trkpt>
      <trkpt lat="43.82882" lon="5.99223">
        <ele>527.1</ele>
        <time>2020-06-20T16:11:36Z</time>
      </trkpt>
      <trkpt lat="43.82884" lon="5.99227">
        <ele>527.3</ele>
        <time>2020-06-20T16:11:38Z</time>
      </trkpt>
      <trkpt lat="43.82884" lon="5.99228">
        <ele>527.4</ele>
        <time>2020-06-20T16:11:40Z</time>
      </trkpt>
      <trkpt lat="43.82884" lon="5.99228">
        <ele>527.4</ele>
        <time>2020-06-20T16:11:41Z</time>
      </trkpt>
      <trkpt lat="43.82884" lon="5.99228">
        <ele>527.4</ele>
        <time>2020-06-20T16:11:43Z</time>
      </trkpt>
      <trkpt lat="43.82884" lon="5.99228">
        <ele>527.4</ele>
        <time>2020-06-20T16:11:44Z</time>
      </trkpt>
      <trkpt lat="43.82884" lon="5.99228">
        <ele>527.4</ele>
        <time>2020-06-20T16:11:45Z</time>
      </trkpt>
      <trkpt lat="43.82884" lon="5.99228">
        <ele>527.4</ele>
        <time>2020-06-20T16:11:47Z</time>
      </trkpt>
      <trkpt lat="43.82885" lon="5.99233">
        <ele>527.7</ele>
        <time>2020-06-20T16:11:52Z</time>
      </trkpt>
      <trkpt lat="43.82888" lon="5.99237">
        <ele>528</ele>
        <time>2020-06-20T16:11:54Z</time>
      </trkpt>
      <trkpt lat="43.82891" lon="5.99242">
        <ele>528.5</ele>
        <time>2020-06-20T16:11:56Z</time>
      </trkpt>
      <trkpt lat="43.82893" lon="5.99245">
        <ele>528.8</ele>
        <time>2020-06-20T16:11:57Z</time>
      </trkpt>
      <trkpt lat="43.82893" lon="5.99246">
        <ele>528.9</ele>
        <time>2020-06-20T16:11:58Z</time>
      </trkpt>
      <trkpt lat="43.82893" lon="5.99248">
        <ele>529.1</ele>
        <time>2020-06-20T16:11:59Z</time>
      </trkpt>
      <trkpt lat="43.82893" lon="5.9925">
        <ele>529.2</ele>
        <time>2020-06-20T16:12:01Z</time>
      </trkpt>
      <trkpt lat="43.82893" lon="5.99251">
        <ele>529.3</ele>
        <time>2020-06-20T16:12:02Z</time>
      </trkpt>
      <trkpt lat="43.82892" lon="5.99252">
        <ele>529.4</ele>
        <time>2020-06-20T16:12:03Z</time>
      </trkpt>
      <trkpt lat="43.82893" lon="5.99254">
        <ele>529.5</ele>
        <time>2020-06-20T16:12:05Z</time>
      </trkpt>
      <trkpt lat="43.82894" lon="5.99256">
        <ele>529.7</ele>
        <time>2020-06-20T16:12:06Z</time>
      </trkpt>
      <trkpt lat="43.82896" lon="5.99259">
        <ele>530.1</ele>
        <time>2020-06-20T16:12:07Z</time>
      </trkpt>
      <trkpt lat="43.82896" lon="5.9926">
        <ele>530.2</ele>
        <time>2020-06-20T16:12:08Z</time>
      </trkpt>
      <trkpt lat="43.82899" lon="5.99265">
        <ele>530.7</ele>
        <time>2020-06-20T16:12:10Z</time>
      </trkpt>
      <trkpt lat="43.82901" lon="5.99269">
        <ele>531.1</ele>
        <time>2020-06-20T16:12:12Z</time>
      </trkpt>
      <trkpt lat="43.82901" lon="5.9927">
        <ele>531.2</ele>
        <time>2020-06-20T16:12:13Z</time>
      </trkpt>
      <trkpt lat="43.82902" lon="5.99271">
        <ele>531.4</ele>
        <time>2020-06-20T16:12:14Z</time>
      </trkpt>
      <trkpt lat="43.82904" lon="5.99275">
        <ele>531.8</ele>
        <time>2020-06-20T16:12:16Z</time>
      </trkpt>
      <trkpt lat="43.82904" lon="5.99278">
        <ele>532.1</ele>
        <time>2020-06-20T16:12:17Z</time>
      </trkpt>
      <trkpt lat="43.82905" lon="5.99279">
        <ele>532.3</ele>
        <time>2020-06-20T16:12:18Z</time>
      </trkpt>
      <trkpt lat="43.82906" lon="5.99282">
        <ele>532.6</ele>
        <time>2020-06-20T16:12:20Z</time>
      </trkpt>
      <trkpt lat="43.82907" lon="5.99287">
        <ele>533</ele>
        <time>2020-06-20T16:12:22Z</time>
      </trkpt>
      <trkpt lat="43.82908" lon="5.9929">
        <ele>533.4</ele>
        <time>2020-06-20T16:12:23Z</time>
      </trkpt>
      <trkpt lat="43.82908" lon="5.99291">
        <ele>533.5</ele>
        <time>2020-06-20T16:12:24Z</time>
      </trkpt>
      <trkpt lat="43.82909" lon="5.99295">
        <ele>533.7</ele>
        <time>2020-06-20T16:12:26Z</time>
      </trkpt>
      <trkpt lat="43.82909" lon="5.99298">
        <ele>534</ele>
        <time>2020-06-20T16:12:28Z</time>
      </trkpt>
      <trkpt lat="43.8291" lon="5.99299">
        <ele>534.1</ele>
        <time>2020-06-20T16:12:29Z</time>
      </trkpt>
      <trkpt lat="43.8291" lon="5.99302">
        <ele>534.2</ele>
        <time>2020-06-20T16:12:30Z</time>
      </trkpt>
      <trkpt lat="43.82911" lon="5.99304">
        <ele>534.4</ele>
        <time>2020-06-20T16:12:32Z</time>
      </trkpt>
      <trkpt lat="43.82911" lon="5.99308">
        <ele>534.6</ele>
        <time>2020-06-20T16:12:34Z</time>
      </trkpt>
      <trkpt lat="43.82912" lon="5.9931">
        <ele>534.7</ele>
        <time>2020-06-20T16:12:35Z</time>
      </trkpt>
      <trkpt lat="43.82912" lon="5.99313">
        <ele>534.9</ele>
        <time>2020-06-20T16:12:37Z</time>
      </trkpt>
      <trkpt lat="43.82913" lon="5.99316">
        <ele>535</ele>
        <time>2020-06-20T16:12:38Z</time>
      </trkpt>
      <trkpt lat="43.82913" lon="5.99319">
        <ele>535.1</ele>
        <time>2020-06-20T16:12:40Z</time>
      </trkpt>
      <trkpt lat="43.82914" lon="5.99321">
        <ele>535.2</ele>
        <time>2020-06-20T16:12:41Z</time>
      </trkpt>
      <trkpt lat="43.82914" lon="5.99323">
        <ele>535.3</ele>
        <time>2020-06-20T16:12:42Z</time>
      </trkpt>
      <trkpt lat="43.82917" lon="5.99329">
        <ele>535.4</ele>
        <time>2020-06-20T16:12:44Z</time>
      </trkpt>
      <trkpt lat="43.82918" lon="5.99331">
        <ele>535.4</ele>
        <time>2020-06-20T16:12:45Z</time>
      </trkpt>
      <trkpt lat="43.8292" lon="5.99336">
        <ele>535.5</ele>
        <time>2020-06-20T16:12:46Z</time>
      </trkpt>
      <trkpt lat="43.82922" lon="5.9934">
        <ele>535.6</ele>
        <time>2020-06-20T16:12:47Z</time>
      </trkpt>
      <trkpt lat="43.82924" lon="5.99345">
        <ele>535.6</ele>
        <time>2020-06-20T16:12:49Z</time>
      </trkpt>
      <trkpt lat="43.82926" lon="5.99348">
        <ele>535.6</ele>
        <time>2020-06-20T16:12:50Z</time>
      </trkpt>
      <trkpt lat="43.82927" lon="5.99352">
        <ele>535.7</ele>
        <time>2020-06-20T16:12:51Z</time>
      </trkpt>
      <trkpt lat="43.82929" lon="5.99354">
        <ele>535.7</ele>
        <time>2020-06-20T16:12:52Z</time>
      </trkpt>
      <trkpt lat="43.8293" lon="5.99357">
        <ele>535.7</ele>
        <time>2020-06-20T16:12:54Z</time>
      </trkpt>
      <trkpt lat="43.82933" lon="5.9936">
        <ele>535.7</ele>
        <time>2020-06-20T16:12:55Z</time>
      </trkpt>
      <trkpt lat="43.82934" lon="5.99363">
        <ele>535.8</ele>
        <time>2020-06-20T16:12:56Z</time>
      </trkpt>
      <trkpt lat="43.82937" lon="5.99369">
        <ele>535.8</ele>
        <time>2020-06-20T16:12:58Z</time>
      </trkpt>
      <trkpt lat="43.82939" lon="5.99373">
        <ele>535.8</ele>
        <time>2020-06-20T16:12:59Z</time>
      </trkpt>
      <trkpt lat="43.82939" lon="5.99374">
        <ele>535.9</ele>
        <time>2020-06-20T16:13:00Z</time>
      </trkpt>
      <trkpt lat="43.82942" lon="5.99377">
        <ele>535.9</ele>
        <time>2020-06-20T16:13:01Z</time>
      </trkpt>
      <trkpt lat="43.82942" lon="5.99379">
        <ele>535.9</ele>
        <time>2020-06-20T16:13:02Z</time>
      </trkpt>
      <trkpt lat="43.82944" lon="5.99382">
        <ele>535.9</ele>
        <time>2020-06-20T16:13:04Z</time>
      </trkpt>
      <trkpt lat="43.82946" lon="5.99386">
        <ele>535.9</ele>
        <time>2020-06-20T16:13:05Z</time>
      </trkpt>
      <trkpt lat="43.82949" lon="5.99391">
        <ele>535.8</ele>
        <time>2020-06-20T16:13:06Z</time>
      </trkpt>
      <trkpt lat="43.82949" lon="5.99392">
        <ele>535.8</ele>
        <time>2020-06-20T16:13:07Z</time>
      </trkpt>
      <trkpt lat="43.82951" lon="5.99396">
        <ele>535.8</ele>
        <time>2020-06-20T16:13:08Z</time>
      </trkpt>
      <trkpt lat="43.82953" lon="5.99399">
        <ele>535.8</ele>
        <time>2020-06-20T16:13:09Z</time>
      </trkpt>
      <trkpt lat="43.82955" lon="5.99403">
        <ele>535.8</ele>
        <time>2020-06-20T16:13:10Z</time>
      </trkpt>
      <trkpt lat="43.82958" lon="5.99409">
        <ele>535.8</ele>
        <time>2020-06-20T16:13:12Z</time>
      </trkpt>
      <trkpt lat="43.82961" lon="5.99415">
        <ele>535.8</ele>
        <time>2020-06-20T16:13:13Z</time>
      </trkpt>
      <trkpt lat="43.82965" lon="5.99421">
        <ele>535.8</ele>
        <time>2020-06-20T16:13:15Z</time>
      </trkpt>
      <trkpt lat="43.82967" lon="5.99425">
        <ele>535.8</ele>
        <time>2020-06-20T16:13:17Z</time>
      </trkpt>
      <trkpt lat="43.8297" lon="5.99431">
        <ele>535.8</ele>
        <time>2020-06-20T16:13:18Z</time>
      </trkpt>
      <trkpt lat="43.82972" lon="5.99437">
        <ele>535.9</ele>
        <time>2020-06-20T16:13:19Z</time>
      </trkpt>
      <trkpt lat="43.82974" lon="5.99441">
        <ele>535.9</ele>
        <time>2020-06-20T16:13:20Z</time>
      </trkpt>
      <trkpt lat="43.82976" lon="5.99444">
        <ele>535.9</ele>
        <time>2020-06-20T16:13:21Z</time>
      </trkpt>
      <trkpt lat="43.82978" lon="5.9945">
        <ele>535.9</ele>
        <time>2020-06-20T16:13:23Z</time>
      </trkpt>
      <trkpt lat="43.8298" lon="5.99455">
        <ele>535.9</ele>
        <time>2020-06-20T16:13:24Z</time>
      </trkpt>
      <trkpt lat="43.82982" lon="5.99462">
        <ele>535.9</ele>
        <time>2020-06-20T16:13:26Z</time>
      </trkpt>
      <trkpt lat="43.82984" lon="5.99468">
        <ele>535.9</ele>
        <time>2020-06-20T16:13:27Z</time>
      </trkpt>
      <trkpt lat="43.82986" lon="5.99473">
        <ele>535.8</ele>
        <time>2020-06-20T16:13:28Z</time>
      </trkpt>
      <trkpt lat="43.82988" lon="5.99477">
        <ele>535.8</ele>
        <time>2020-06-20T16:13:29Z</time>
      </trkpt>
      <trkpt lat="43.82993" lon="5.99483">
        <ele>535.7</ele>
        <time>2020-06-20T16:13:31Z</time>
      </trkpt>
      <trkpt lat="43.82997" lon="5.99489">
        <ele>535.7</ele>
        <time>2020-06-20T16:13:33Z</time>
      </trkpt>
      <trkpt lat="43.83001" lon="5.99495">
        <ele>535.6</ele>
        <time>2020-06-20T16:13:34Z</time>
      </trkpt>
      <trkpt lat="43.83004" lon="5.995">
        <ele>535.5</ele>
        <time>2020-06-20T16:13:35Z</time>
      </trkpt>
      <trkpt lat="43.83007" lon="5.99505">
        <ele>535.4</ele>
        <time>2020-06-20T16:13:36Z</time>
      </trkpt>
      <trkpt lat="43.83009" lon="5.9951">
        <ele>535.2</ele>
        <time>2020-06-20T16:13:37Z</time>
      </trkpt>
      <trkpt lat="43.83012" lon="5.99518">
        <ele>535.3</ele>
        <time>2020-06-20T16:13:39Z</time>
      </trkpt>
      <trkpt lat="43.83013" lon="5.99522">
        <ele>535.3</ele>
        <time>2020-06-20T16:13:40Z</time>
      </trkpt>
      <trkpt lat="43.83015" lon="5.99527">
        <ele>535.3</ele>
        <time>2020-06-20T16:13:41Z</time>
      </trkpt>
      <trkpt lat="43.83017" lon="5.99532">
        <ele>535.4</ele>
        <time>2020-06-20T16:13:42Z</time>
      </trkpt>
      <trkpt lat="43.83018" lon="5.99536">
        <ele>535.4</ele>
        <time>2020-06-20T16:13:43Z</time>
      </trkpt>
      <trkpt lat="43.83021" lon="5.99543">
        <ele>535.7</ele>
        <time>2020-06-20T16:13:45Z</time>
      </trkpt>
      <trkpt lat="43.83022" lon="5.99548">
        <ele>536</ele>
        <time>2020-06-20T16:13:46Z</time>
      </trkpt>
      <trkpt lat="43.83023" lon="5.99552">
        <ele>536.1</ele>
        <time>2020-06-20T16:13:47Z</time>
      </trkpt>
      <trkpt lat="43.83024" lon="5.99556">
        <ele>536.3</ele>
        <time>2020-06-20T16:13:49Z</time>
      </trkpt>
      <trkpt lat="43.83025" lon="5.9956">
        <ele>536.4</ele>
        <time>2020-06-20T16:13:50Z</time>
      </trkpt>
      <trkpt lat="43.83026" lon="5.99566">
        <ele>536.5</ele>
        <time>2020-06-20T16:13:51Z</time>
      </trkpt>
      <trkpt lat="43.83028" lon="5.9957">
        <ele>536.5</ele>
        <time>2020-06-20T16:13:54Z</time>
      </trkpt>
      <trkpt lat="43.83029" lon="5.99574">
        <ele>536.6</ele>
        <time>2020-06-20T16:13:55Z</time>
      </trkpt>
      <trkpt lat="43.8303" lon="5.99581">
        <ele>536.7</ele>
        <time>2020-06-20T16:13:57Z</time>
      </trkpt>
      <trkpt lat="43.83031" lon="5.99587">
        <ele>536.7</ele>
        <time>2020-06-20T16:13:58Z</time>
      </trkpt>
      <trkpt lat="43.83032" lon="5.99591">
        <ele>536.8</ele>
        <time>2020-06-20T16:13:59Z</time>
      </trkpt>
      <trkpt lat="43.83033" lon="5.99596">
        <ele>536.9</ele>
        <time>2020-06-20T16:14:01Z</time>
      </trkpt>
      <trkpt lat="43.83034" lon="5.99601">
        <ele>536.8</ele>
        <time>2020-06-20T16:14:02Z</time>
      </trkpt>
      <trkpt lat="43.83036" lon="5.99605">
        <ele>536.8</ele>
        <time>2020-06-20T16:14:03Z</time>
      </trkpt>
      <trkpt lat="43.83036" lon="5.99606">
        <ele>536.8</ele>
        <time>2020-06-20T16:14:04Z</time>
      </trkpt>
      <trkpt lat="43.83036" lon="5.99605">
        <ele>536.7</ele>
        <time>2020-06-20T16:14:05Z</time>
      </trkpt>
      <trkpt lat="43.83035" lon="5.99603">
        <ele>536.7</ele>
        <time>2020-06-20T16:14:08Z</time>
      </trkpt>
      <trkpt lat="43.83035" lon="5.99602">
        <ele>536.7</ele>
        <time>2020-06-20T16:14:09Z</time>
      </trkpt>
      <trkpt lat="43.83035" lon="5.996">
        <ele>536.7</ele>
        <time>2020-06-20T16:14:10Z</time>
      </trkpt>
      <trkpt lat="43.83035" lon="5.99599">
        <ele>536.7</ele>
        <time>2020-06-20T16:14:12Z</time>
      </trkpt>
      <trkpt lat="43.83034" lon="5.99597">
        <ele>536.7</ele>
        <time>2020-06-20T16:14:13Z</time>
      </trkpt>
      <trkpt lat="43.83034" lon="5.99596">
        <ele>536.7</ele>
        <time>2020-06-20T16:14:15Z</time>
      </trkpt>
      <trkpt lat="43.83034" lon="5.99594">
        <ele>536.7</ele>
        <time>2020-06-20T16:14:24Z</time>
      </trkpt>
      <trkpt lat="43.83033" lon="5.99593">
        <ele>536.6</ele>
        <time>2020-06-20T16:14:25Z</time>
      </trkpt>
      <trkpt lat="43.83033" lon="5.99589">
        <ele>536.6</ele>
        <time>2020-06-20T16:14:26Z</time>
      </trkpt>
      <trkpt lat="43.83032" lon="5.99581">
        <ele>536.5</ele>
        <time>2020-06-20T16:14:29Z</time>
      </trkpt>
      <trkpt lat="43.83031" lon="5.99576">
        <ele>536.5</ele>
        <time>2020-06-20T16:14:30Z</time>
      </trkpt>
      <trkpt lat="43.83029" lon="5.99565">
        <ele>536.4</ele>
        <time>2020-06-20T16:14:31Z</time>
      </trkpt>
      <trkpt lat="43.83028" lon="5.99562">
        <ele>536.3</ele>
        <time>2020-06-20T16:14:32Z</time>
      </trkpt>
      <trkpt lat="43.83025" lon="5.99553">
        <ele>536.2</ele>
        <time>2020-06-20T16:14:34Z</time>
      </trkpt>
      <trkpt lat="43.83023" lon="5.99548">
        <ele>536</ele>
        <time>2020-06-20T16:14:35Z</time>
      </trkpt>
      <trkpt lat="43.83024" lon="5.99539">
        <ele>535.5</ele>
        <time>2020-06-20T16:14:38Z</time>
      </trkpt>
      <trkpt lat="43.83037" lon="5.99528">
        <ele>535</ele>
        <time>2020-06-20T16:14:40Z</time>
      </trkpt>
      <trkpt lat="43.83048" lon="5.99512">
        <ele>534.4</ele>
        <time>2020-06-20T16:14:43Z</time>
      </trkpt>
      <trkpt lat="43.83055" lon="5.99502">
        <ele>534.1</ele>
        <time>2020-06-20T16:14:46Z</time>
      </trkpt>
      <trkpt lat="43.83059" lon="5.99498">
        <ele>533.9</ele>
        <time>2020-06-20T16:14:47Z</time>
      </trkpt>
      <trkpt lat="43.83062" lon="5.99493">
        <ele>533.8</ele>
        <time>2020-06-20T16:14:48Z</time>
      </trkpt>
      <trkpt lat="43.83064" lon="5.99492">
        <ele>533.7</ele>
        <time>2020-06-20T16:14:49Z</time>
      </trkpt>
      <trkpt lat="43.83064" lon="5.99491">
        <ele>533.7</ele>
        <time>2020-06-20T16:14:51Z</time>
      </trkpt>
      <trkpt lat="43.83064" lon="5.99491">
        <ele>533.7</ele>
        <time>2020-06-20T16:14:53Z</time>
      </trkpt>
      <trkpt lat="43.83064" lon="5.99491">
        <ele>533.7</ele>
        <time>2020-06-20T16:14:54Z</time>
      </trkpt>
      <trkpt lat="43.83064" lon="5.99491">
        <ele>533.7</ele>
        <time>2020-06-20T16:14:56Z</time>
      </trkpt>
      <trkpt lat="43.83064" lon="5.99491">
        <ele>533.7</ele>
        <time>2020-06-20T16:14:57Z</time>
      </trkpt>
      <trkpt lat="43.83064" lon="5.99491">
        <ele>533.7</ele>
        <time>2020-06-20T16:14:59Z</time>
      </trkpt>
      <trkpt lat="43.83065" lon="5.99489">
        <ele>533.6</ele>
        <time>2020-06-20T16:15:04Z</time>
      </trkpt>
      <trkpt lat="43.83066" lon="5.99487">
        <ele>533.6</ele>
        <time>2020-06-20T16:15:05Z</time>
      </trkpt>
      <trkpt lat="43.83065" lon="5.99485">
        <ele>533.5</ele>
        <time>2020-06-20T16:15:06Z</time>
      </trkpt>
      <trkpt lat="43.83065" lon="5.99485">
        <ele>533.5</ele>
        <time>2020-06-20T16:15:08Z</time>
      </trkpt>
      <trkpt lat="43.83065" lon="5.99485">
        <ele>533.5</ele>
        <time>2020-06-20T16:15:10Z</time>
      </trkpt>
      <trkpt lat="43.83065" lon="5.99485">
        <ele>533.5</ele>
        <time>2020-06-20T16:15:11Z</time>
      </trkpt>
      <trkpt lat="43.83065" lon="5.99485">
        <ele>533.5</ele>
        <time>2020-06-20T16:15:13Z</time>
      </trkpt>
      <trkpt lat="43.83065" lon="5.99485">
        <ele>533.5</ele>
        <time>2020-06-20T16:15:14Z</time>
      </trkpt>
      <trkpt lat="43.83065" lon="5.99485">
        <ele>533.5</ele>
        <time>2020-06-20T16:15:16Z</time>
      </trkpt>
      <trkpt lat="43.83062" lon="5.99489">
        <ele>533.4</ele>
        <time>2020-06-20T16:15:26Z</time>
      </trkpt>
      <trkpt lat="43.8306" lon="5.99492">
        <ele>533.3</ele>
        <time>2020-06-20T16:15:27Z</time>
      </trkpt>
      <trkpt lat="43.83057" lon="5.99494">
        <ele>533.2</ele>
        <time>2020-06-20T16:15:29Z</time>
      </trkpt>
      <trkpt lat="43.83055" lon="5.99496">
        <ele>533.1</ele>
        <time>2020-06-20T16:15:31Z</time>
      </trkpt>
      <trkpt lat="43.83055" lon="5.99496">
        <ele>533.1</ele>
        <time>2020-06-20T16:15:32Z</time>
      </trkpt>
      <trkpt lat="43.83056" lon="5.99496">
        <ele>533.1</ele>
        <time>2020-06-20T16:15:34Z</time>
      </trkpt>
      <trkpt lat="43.83056" lon="5.99496">
        <ele>533.1</ele>
        <time>2020-06-20T16:15:36Z</time>
      </trkpt>
      <trkpt lat="43.83056" lon="5.99496">
        <ele>533.1</ele>
        <time>2020-06-20T16:15:37Z</time>
      </trkpt>
      <trkpt lat="43.83056" lon="5.99496">
        <ele>533.1</ele>
        <time>2020-06-20T16:15:38Z</time>
      </trkpt>
      <trkpt lat="43.83056" lon="5.99496">
        <ele>533.1</ele>
        <time>2020-06-20T16:15:40Z</time>
      </trkpt>
      <trkpt lat="43.83056" lon="5.99496">
        <ele>533.1</ele>
        <time>2020-06-20T16:15:42Z</time>
      </trkpt>
      <trkpt lat="43.83056" lon="5.99492">
        <ele>533</ele>
        <time>2020-06-20T16:16:18Z</time>
      </trkpt>
      <trkpt lat="43.83057" lon="5.99491">
        <ele>533</ele>
        <time>2020-06-20T16:16:19Z</time>
      </trkpt>
      <trkpt lat="43.83059" lon="5.9949">
        <ele>533</ele>
        <time>2020-06-20T16:16:21Z</time>
      </trkpt>
      <trkpt lat="43.83059" lon="5.9949">
        <ele>533</ele>
        <time>2020-06-20T16:16:22Z</time>
      </trkpt>
      <trkpt lat="43.83059" lon="5.9949">
        <ele>533</ele>
        <time>2020-06-20T16:16:23Z</time>
      </trkpt>
      <trkpt lat="43.83059" lon="5.99491">
        <ele>533</ele>
        <time>2020-06-20T16:16:24Z</time>
      </trkpt>
      <trkpt lat="43.83059" lon="5.99491">
        <ele>533</ele>
        <time>2020-06-20T16:16:26Z</time>
      </trkpt>
      <trkpt lat="43.83059" lon="5.99491">
        <ele>533</ele>
        <time>2020-06-20T16:16:27Z</time>
      </trkpt>
      <trkpt lat="43.83059" lon="5.99491">
        <ele>533</ele>
        <time>2020-06-20T16:16:29Z</time>
      </trkpt>
      <trkpt lat="43.83065" lon="5.99487">
        <ele>533.1</ele>
        <time>2020-06-20T16:17:15Z</time>
      </trkpt>
      <trkpt lat="43.83066" lon="5.99486">
        <ele>533.1</ele>
        <time>2020-06-20T16:17:16Z</time>
      </trkpt>
      <trkpt lat="43.83066" lon="5.99486">
        <ele>533.1</ele>
        <time>2020-06-20T16:17:17Z</time>
      </trkpt>
      <trkpt lat="43.83066" lon="5.99486">
        <ele>533.1</ele>
        <time>2020-06-20T16:17:18Z</time>
      </trkpt>
      <trkpt lat="43.83066" lon="5.99486">
        <ele>533.1</ele>
        <time>2020-06-20T16:17:20Z</time>
      </trkpt>
      <trkpt lat="43.83067" lon="5.99486">
        <ele>533.1</ele>
        <time>2020-06-20T16:17:21Z</time>
      </trkpt>
      <trkpt lat="43.83069" lon="5.99484">
        <ele>533.1</ele>
        <time>2020-06-20T16:17:24Z</time>
      </trkpt>
      <trkpt lat="43.83069" lon="5.99484">
        <ele>533.1</ele>
        <time>2020-06-20T16:17:26Z</time>
      </trkpt>
      <trkpt lat="43.8307" lon="5.99484">
        <ele>533.1</ele>
        <time>2020-06-20T16:17:28Z</time>
      </trkpt>
      <trkpt lat="43.83069" lon="5.99484">
        <ele>533.2</ele>
        <time>2020-06-20T16:17:30Z</time>
      </trkpt>
      <trkpt lat="43.8307" lon="5.99485">
        <ele>533.2</ele>
        <time>2020-06-20T16:17:31Z</time>
      </trkpt>
      <trkpt lat="43.8307" lon="5.99485">
        <ele>533.2</ele>
        <time>2020-06-20T16:17:32Z</time>
      </trkpt>
      <trkpt lat="43.8307" lon="5.99486">
        <ele>533.2</ele>
        <time>2020-06-20T16:17:33Z</time>
      </trkpt>
      <trkpt lat="43.83071" lon="5.99486">
        <ele>533.2</ele>
        <time>2020-06-20T16:17:34Z</time>
      </trkpt>
      <trkpt lat="43.83071" lon="5.99487">
        <ele>533.2</ele>
        <time>2020-06-20T16:17:36Z</time>
      </trkpt>
      <trkpt lat="43.83072" lon="5.99488">
        <ele>533.2</ele>
        <time>2020-06-20T16:17:37Z</time>
      </trkpt>
      <trkpt lat="43.83072" lon="5.99488">
        <ele>533.2</ele>
        <time>2020-06-20T16:17:39Z</time>
      </trkpt>
      <trkpt lat="43.83072" lon="5.99488">
        <ele>533.2</ele>
        <time>2020-06-20T16:17:40Z</time>
      </trkpt>
      <trkpt lat="43.83073" lon="5.99488">
        <ele>533.3</ele>
        <time>2020-06-20T16:17:42Z</time>
      </trkpt>
      <trkpt lat="43.83073" lon="5.99488">
        <ele>533.3</ele>
        <time>2020-06-20T16:17:43Z</time>
      </trkpt>
      <trkpt lat="43.83073" lon="5.99489">
        <ele>533.3</ele>
        <time>2020-06-20T16:17:45Z</time>
      </trkpt>
      <trkpt lat="43.8307" lon="5.99494">
        <ele>533.1</ele>
        <time>2020-06-20T16:17:47Z</time>
      </trkpt>
      <trkpt lat="43.83067" lon="5.99496">
        <ele>533.1</ele>
        <time>2020-06-20T16:17:49Z</time>
      </trkpt>
      <trkpt lat="43.83065" lon="5.99499">
        <ele>533</ele>
        <time>2020-06-20T16:17:50Z</time>
      </trkpt>
      <trkpt lat="43.83063" lon="5.995">
        <ele>533</ele>
        <time>2020-06-20T16:17:51Z</time>
      </trkpt>
      <trkpt lat="43.83058" lon="5.99504">
        <ele>533.2</ele>
        <time>2020-06-20T16:17:53Z</time>
      </trkpt>
      <trkpt lat="43.83055" lon="5.99506">
        <ele>533.3</ele>
        <time>2020-06-20T16:17:54Z</time>
      </trkpt>
      <trkpt lat="43.83052" lon="5.99509">
        <ele>533.4</ele>
        <time>2020-06-20T16:17:56Z</time>
      </trkpt>
      <trkpt lat="43.83051" lon="5.9951">
        <ele>533.5</ele>
        <time>2020-06-20T16:17:57Z</time>
      </trkpt>
      <trkpt lat="43.83047" lon="5.99512">
        <ele>533.7</ele>
        <time>2020-06-20T16:17:58Z</time>
      </trkpt>
      <trkpt lat="43.83046" lon="5.99513">
        <ele>533.8</ele>
        <time>2020-06-20T16:17:59Z</time>
      </trkpt>
      <trkpt lat="43.83042" lon="5.99515">
        <ele>534</ele>
        <time>2020-06-20T16:18:01Z</time>
      </trkpt>
      <trkpt lat="43.8304" lon="5.99516">
        <ele>534.1</ele>
        <time>2020-06-20T16:18:02Z</time>
      </trkpt>
      <trkpt lat="43.83038" lon="5.99517">
        <ele>534.2</ele>
        <time>2020-06-20T16:18:03Z</time>
      </trkpt>
      <trkpt lat="43.83036" lon="5.99519">
        <ele>534.3</ele>
        <time>2020-06-20T16:18:04Z</time>
      </trkpt>
      <trkpt lat="43.83033" lon="5.99521">
        <ele>534.4</ele>
        <time>2020-06-20T16:18:06Z</time>
      </trkpt>
      <trkpt lat="43.83031" lon="5.99523">
        <ele>534.5</ele>
        <time>2020-06-20T16:18:07Z</time>
      </trkpt>
      <trkpt lat="43.83027" lon="5.99524">
        <ele>534.7</ele>
        <time>2020-06-20T16:18:08Z</time>
      </trkpt>
      <trkpt lat="43.83026" lon="5.99524">
        <ele>534.7</ele>
        <time>2020-06-20T16:18:09Z</time>
      </trkpt>
      <trkpt lat="43.83024" lon="5.99525">
        <ele>534.9</ele>
        <time>2020-06-20T16:18:11Z</time>
      </trkpt>
      <trkpt lat="43.83023" lon="5.99526">
        <ele>534.9</ele>
        <time>2020-06-20T16:18:12Z</time>
      </trkpt>
      <trkpt lat="43.83022" lon="5.99526">
        <ele>535</ele>
        <time>2020-06-20T16:18:13Z</time>
      </trkpt>
      <trkpt lat="43.8302" lon="5.99528">
        <ele>535.1</ele>
        <time>2020-06-20T16:18:14Z</time>
      </trkpt>
      <trkpt lat="43.83019" lon="5.9953">
        <ele>535.1</ele>
        <time>2020-06-20T16:18:15Z</time>
      </trkpt>
      <trkpt lat="43.83018" lon="5.99533">
        <ele>535.2</ele>
        <time>2020-06-20T16:18:17Z</time>
      </trkpt>
      <trkpt lat="43.83017" lon="5.99537">
        <ele>535.3</ele>
        <time>2020-06-20T16:18:18Z</time>
      </trkpt>
      <trkpt lat="43.83017" lon="5.99539">
        <ele>535.3</ele>
        <time>2020-06-20T16:18:19Z</time>
      </trkpt>
      <trkpt lat="43.83017" lon="5.99543">
        <ele>535.4</ele>
        <time>2020-06-20T16:18:21Z</time>
      </trkpt>
      <trkpt lat="43.83016" lon="5.99544">
        <ele>535.4</ele>
        <time>2020-06-20T16:18:22Z</time>
      </trkpt>
      <trkpt lat="43.83016" lon="5.99547">
        <ele>535.4</ele>
        <time>2020-06-20T16:18:23Z</time>
      </trkpt>
      <trkpt lat="43.83017" lon="5.99549">
        <ele>535.9</ele>
        <time>2020-06-20T16:18:25Z</time>
      </trkpt>
      <trkpt lat="43.83017" lon="5.99553">
        <ele>536.1</ele>
        <time>2020-06-20T16:18:26Z</time>
      </trkpt>
      <trkpt lat="43.83017" lon="5.99554">
        <ele>536.1</ele>
        <time>2020-06-20T16:18:27Z</time>
      </trkpt>
      <trkpt lat="43.83017" lon="5.99557">
        <ele>536.2</ele>
        <time>2020-06-20T16:18:28Z</time>
      </trkpt>
      <trkpt lat="43.83018" lon="5.9956">
        <ele>536.3</ele>
        <time>2020-06-20T16:18:30Z</time>
      </trkpt>
      <trkpt lat="43.83018" lon="5.99565">
        <ele>536.4</ele>
        <time>2020-06-20T16:18:31Z</time>
      </trkpt>
      <trkpt lat="43.83018" lon="5.99567">
        <ele>536.4</ele>
        <time>2020-06-20T16:18:32Z</time>
      </trkpt>
      <trkpt lat="43.83019" lon="5.99571">
        <ele>536.5</ele>
        <time>2020-06-20T16:18:33Z</time>
      </trkpt>
      <trkpt lat="43.83019" lon="5.99573">
        <ele>536.5</ele>
        <time>2020-06-20T16:18:34Z</time>
      </trkpt>
      <trkpt lat="43.8302" lon="5.99577">
        <ele>536.6</ele>
        <time>2020-06-20T16:18:35Z</time>
      </trkpt>
      <trkpt lat="43.8302" lon="5.99578">
        <ele>536.6</ele>
        <time>2020-06-20T16:18:36Z</time>
      </trkpt>
      <trkpt lat="43.83022" lon="5.99585">
        <ele>536.7</ele>
        <time>2020-06-20T16:18:38Z</time>
      </trkpt>
      <trkpt lat="43.83024" lon="5.9959">
        <ele>536.7</ele>
        <time>2020-06-20T16:18:40Z</time>
      </trkpt>
      <trkpt lat="43.83025" lon="5.99594">
        <ele>536.8</ele>
        <time>2020-06-20T16:18:41Z</time>
      </trkpt>
      <trkpt lat="43.83027" lon="5.996">
        <ele>536.9</ele>
        <time>2020-06-20T16:18:43Z</time>
      </trkpt>
      <trkpt lat="43.83029" lon="5.99609">
        <ele>537</ele>
        <time>2020-06-20T16:18:45Z</time>
      </trkpt>
      <trkpt lat="43.8303" lon="5.99616">
        <ele>537.1</ele>
        <time>2020-06-20T16:18:46Z</time>
      </trkpt>
      <trkpt lat="43.83031" lon="5.99621">
        <ele>537.2</ele>
        <time>2020-06-20T16:18:47Z</time>
      </trkpt>
      <trkpt lat="43.83031" lon="5.99626">
        <ele>537.3</ele>
        <time>2020-06-20T16:18:48Z</time>
      </trkpt>
      <trkpt lat="43.83032" lon="5.99632">
        <ele>537.5</ele>
        <time>2020-06-20T16:18:50Z</time>
      </trkpt>
      <trkpt lat="43.83033" lon="5.99636">
        <ele>537.6</ele>
        <time>2020-06-20T16:18:51Z</time>
      </trkpt>
      <trkpt lat="43.83033" lon="5.99641">
        <ele>537.8</ele>
        <time>2020-06-20T16:18:52Z</time>
      </trkpt>
      <trkpt lat="43.83034" lon="5.99645">
        <ele>537.9</ele>
        <time>2020-06-20T16:18:53Z</time>
      </trkpt>
      <trkpt lat="43.83036" lon="5.99652">
        <ele>538.1</ele>
        <time>2020-06-20T16:18:55Z</time>
      </trkpt>
      <trkpt lat="43.83039" lon="5.9966">
        <ele>538.3</ele>
        <time>2020-06-20T16:18:57Z</time>
      </trkpt>
      <trkpt lat="43.8304" lon="5.99665">
        <ele>538.3</ele>
        <time>2020-06-20T16:18:58Z</time>
      </trkpt>
      <trkpt lat="43.83041" lon="5.99672">
        <ele>538.4</ele>
        <time>2020-06-20T16:19:00Z</time>
      </trkpt>
      <trkpt lat="43.83042" lon="5.99677">
        <ele>538.5</ele>
        <time>2020-06-20T16:19:01Z</time>
      </trkpt>
      <trkpt lat="43.83044" lon="5.99683">
        <ele>538.5</ele>
        <time>2020-06-20T16:19:02Z</time>
      </trkpt>
      <trkpt lat="43.83045" lon="5.99688">
        <ele>538.6</ele>
        <time>2020-06-20T16:19:03Z</time>
      </trkpt>
      <trkpt lat="43.83047" lon="5.99693">
        <ele>538.6</ele>
        <time>2020-06-20T16:19:04Z</time>
      </trkpt>
      <trkpt lat="43.83048" lon="5.997">
        <ele>538.7</ele>
        <time>2020-06-20T16:19:06Z</time>
      </trkpt>
      <trkpt lat="43.8305" lon="5.99706">
        <ele>538.7</ele>
        <time>2020-06-20T16:19:07Z</time>
      </trkpt>
      <trkpt lat="43.83051" lon="5.99711">
        <ele>538.8</ele>
        <time>2020-06-20T16:19:08Z</time>
      </trkpt>
      <trkpt lat="43.83051" lon="5.99714">
        <ele>538.8</ele>
        <time>2020-06-20T16:19:09Z</time>
      </trkpt>
      <trkpt lat="43.83053" lon="5.99723">
        <ele>538.9</ele>
        <time>2020-06-20T16:19:11Z</time>
      </trkpt>
      <trkpt lat="43.83054" lon="5.99728">
        <ele>538.9</ele>
        <time>2020-06-20T16:19:12Z</time>
      </trkpt>
      <trkpt lat="43.83055" lon="5.99735">
        <ele>539.1</ele>
        <time>2020-06-20T16:19:14Z</time>
      </trkpt>
      <trkpt lat="43.83056" lon="5.9974">
        <ele>539.2</ele>
        <time>2020-06-20T16:19:15Z</time>
      </trkpt>
      <trkpt lat="43.83056" lon="5.99746">
        <ele>539.4</ele>
        <time>2020-06-20T16:19:16Z</time>
      </trkpt>
      <trkpt lat="43.83057" lon="5.9975">
        <ele>539.5</ele>
        <time>2020-06-20T16:19:17Z</time>
      </trkpt>
      <trkpt lat="43.83058" lon="5.99756">
        <ele>539.6</ele>
        <time>2020-06-20T16:19:19Z</time>
      </trkpt>
      <trkpt lat="43.83059" lon="5.9976">
        <ele>539.7</ele>
        <time>2020-06-20T16:19:20Z</time>
      </trkpt>
      <trkpt lat="43.8306" lon="5.99766">
        <ele>539.9</ele>
        <time>2020-06-20T16:19:21Z</time>
      </trkpt>
      <trkpt lat="43.83061" lon="5.99771">
        <ele>540</ele>
        <time>2020-06-20T16:19:22Z</time>
      </trkpt>
      <trkpt lat="43.83062" lon="5.99775">
        <ele>540.1</ele>
        <time>2020-06-20T16:19:23Z</time>
      </trkpt>
      <trkpt lat="43.83064" lon="5.99781">
        <ele>540.2</ele>
        <time>2020-06-20T16:19:25Z</time>
      </trkpt>
      <trkpt lat="43.83066" lon="5.99785">
        <ele>540.3</ele>
        <time>2020-06-20T16:19:26Z</time>
      </trkpt>
      <trkpt lat="43.83068" lon="5.99789">
        <ele>540.4</ele>
        <time>2020-06-20T16:19:27Z</time>
      </trkpt>
      <trkpt lat="43.8307" lon="5.99793">
        <ele>540.4</ele>
        <time>2020-06-20T16:19:28Z</time>
      </trkpt>
      <trkpt lat="43.83073" lon="5.99798">
        <ele>540.3</ele>
        <time>2020-06-20T16:19:29Z</time>
      </trkpt>
      <trkpt lat="43.83075" lon="5.99802">
        <ele>540.2</ele>
        <time>2020-06-20T16:19:30Z</time>
      </trkpt>
      <trkpt lat="43.83078" lon="5.99809">
        <ele>540</ele>
        <time>2020-06-20T16:19:32Z</time>
      </trkpt>
      <trkpt lat="43.83079" lon="5.99813">
        <ele>539.9</ele>
        <time>2020-06-20T16:19:33Z</time>
      </trkpt>
      <trkpt lat="43.83081" lon="5.99818">
        <ele>539.8</ele>
        <time>2020-06-20T16:19:35Z</time>
      </trkpt>
      <trkpt lat="43.83083" lon="5.99823">
        <ele>539.7</ele>
        <time>2020-06-20T16:19:36Z</time>
      </trkpt>
      <trkpt lat="43.83084" lon="5.99827">
        <ele>539.6</ele>
        <time>2020-06-20T16:19:37Z</time>
      </trkpt>
      <trkpt lat="43.83085" lon="5.99831">
        <ele>539.6</ele>
        <time>2020-06-20T16:19:38Z</time>
      </trkpt>
      <trkpt lat="43.83085" lon="5.99832">
        <ele>539.6</ele>
        <time>2020-06-20T16:19:39Z</time>
      </trkpt>
      <trkpt lat="43.83085" lon="5.99833">
        <ele>539.6</ele>
        <time>2020-06-20T16:19:40Z</time>
      </trkpt>
      <trkpt lat="43.83084" lon="5.99832">
        <ele>539.5</ele>
        <time>2020-06-20T16:19:41Z</time>
      </trkpt>
      <trkpt lat="43.83084" lon="5.99832">
        <ele>539.5</ele>
        <time>2020-06-20T16:19:43Z</time>
      </trkpt>
      <trkpt lat="43.83083" lon="5.99832">
        <ele>539.5</ele>
        <time>2020-06-20T16:19:45Z</time>
      </trkpt>
      <trkpt lat="43.83082" lon="5.99832">
        <ele>539.5</ele>
        <time>2020-06-20T16:19:46Z</time>
      </trkpt>
      <trkpt lat="43.83082" lon="5.99832">
        <ele>539.5</ele>
        <time>2020-06-20T16:19:47Z</time>
      </trkpt>
      <trkpt lat="43.83081" lon="5.99832">
        <ele>539.5</ele>
        <time>2020-06-20T16:19:49Z</time>
      </trkpt>
      <trkpt lat="43.83088" lon="5.99838">
        <ele>539.3</ele>
        <time>2020-06-20T16:20:07Z</time>
      </trkpt>
      <trkpt lat="43.8309" lon="5.99844">
        <ele>539.2</ele>
        <time>2020-06-20T16:20:09Z</time>
      </trkpt>
      <trkpt lat="43.83093" lon="5.99851">
        <ele>539</ele>
        <time>2020-06-20T16:20:10Z</time>
      </trkpt>
      <trkpt lat="43.83096" lon="5.99859">
        <ele>538.7</ele>
        <time>2020-06-20T16:20:12Z</time>
      </trkpt>
      <trkpt lat="43.83098" lon="5.99866">
        <ele>538.5</ele>
        <time>2020-06-20T16:20:13Z</time>
      </trkpt>
      <trkpt lat="43.831" lon="5.99871">
        <ele>538.4</ele>
        <time>2020-06-20T16:20:14Z</time>
      </trkpt>
      <trkpt lat="43.83101" lon="5.99875">
        <ele>538.4</ele>
        <time>2020-06-20T16:20:15Z</time>
      </trkpt>
      <trkpt lat="43.83102" lon="5.99879">
        <ele>538.3</ele>
        <time>2020-06-20T16:20:16Z</time>
      </trkpt>
      <trkpt lat="43.83104" lon="5.99886">
        <ele>538.3</ele>
        <time>2020-06-20T16:20:18Z</time>
      </trkpt>
      <trkpt lat="43.83106" lon="5.99891">
        <ele>538.3</ele>
        <time>2020-06-20T16:20:19Z</time>
      </trkpt>
      <trkpt lat="43.83107" lon="5.99897">
        <ele>538.3</ele>
        <time>2020-06-20T16:20:21Z</time>
      </trkpt>
      <trkpt lat="43.83109" lon="5.99903">
        <ele>538.3</ele>
        <time>2020-06-20T16:20:22Z</time>
      </trkpt>
      <trkpt lat="43.8311" lon="5.99909">
        <ele>538.4</ele>
        <time>2020-06-20T16:20:23Z</time>
      </trkpt>
      <trkpt lat="43.83111" lon="5.99915">
        <ele>538.5</ele>
        <time>2020-06-20T16:20:25Z</time>
      </trkpt>
      <trkpt lat="43.83113" lon="5.99921">
        <ele>538.6</ele>
        <time>2020-06-20T16:20:26Z</time>
      </trkpt>
      <trkpt lat="43.83114" lon="5.99926">
        <ele>538.8</ele>
        <time>2020-06-20T16:20:27Z</time>
      </trkpt>
      <trkpt lat="43.83116" lon="5.99932">
        <ele>538.9</ele>
        <time>2020-06-20T16:20:29Z</time>
      </trkpt>
      <trkpt lat="43.83117" lon="5.99936">
        <ele>539.1</ele>
        <time>2020-06-20T16:20:30Z</time>
      </trkpt>
      <trkpt lat="43.83118" lon="5.99938">
        <ele>539.1</ele>
        <time>2020-06-20T16:20:31Z</time>
      </trkpt>
      <trkpt lat="43.83119" lon="5.99942">
        <ele>539.2</ele>
        <time>2020-06-20T16:20:32Z</time>
      </trkpt>
      <trkpt lat="43.8312" lon="5.99945">
        <ele>539.2</ele>
        <time>2020-06-20T16:20:33Z</time>
      </trkpt>
      <trkpt lat="43.8312" lon="5.99947">
        <ele>539.3</ele>
        <time>2020-06-20T16:20:34Z</time>
      </trkpt>
      <trkpt lat="43.83121" lon="5.9995">
        <ele>539.3</ele>
        <time>2020-06-20T16:20:35Z</time>
      </trkpt>
      <trkpt lat="43.83122" lon="5.99955">
        <ele>539.4</ele>
        <time>2020-06-20T16:20:37Z</time>
      </trkpt>
      <trkpt lat="43.83125" lon="5.99961">
        <ele>539.6</ele>
        <time>2020-06-20T16:20:38Z</time>
      </trkpt>
      <trkpt lat="43.83126" lon="5.99966">
        <ele>539.7</ele>
        <time>2020-06-20T16:20:40Z</time>
      </trkpt>
      <trkpt lat="43.83127" lon="5.99971">
        <ele>539.8</ele>
        <time>2020-06-20T16:20:41Z</time>
      </trkpt>
      <trkpt lat="43.83128" lon="5.99977">
        <ele>540</ele>
        <time>2020-06-20T16:20:42Z</time>
      </trkpt>
      <trkpt lat="43.83131" lon="5.99989">
        <ele>540.3</ele>
        <time>2020-06-20T16:20:44Z</time>
      </trkpt>
      <trkpt lat="43.83134" lon="5.99997">
        <ele>540.5</ele>
        <time>2020-06-20T16:20:46Z</time>
      </trkpt>
      <trkpt lat="43.83135" lon="6.00003">
        <ele>540.6</ele>
        <time>2020-06-20T16:20:47Z</time>
      </trkpt>
      <trkpt lat="43.83138" lon="6.00009">
        <ele>540.8</ele>
        <time>2020-06-20T16:20:49Z</time>
      </trkpt>
      <trkpt lat="43.8314" lon="6.00015">
        <ele>540.9</ele>
        <time>2020-06-20T16:20:50Z</time>
      </trkpt>
      <trkpt lat="43.83143" lon="6.00018">
        <ele>541</ele>
        <time>2020-06-20T16:20:52Z</time>
      </trkpt>
      <trkpt lat="43.83146" lon="6.00021">
        <ele>541</ele>
        <time>2020-06-20T16:20:53Z</time>
      </trkpt>
      <trkpt lat="43.83151" lon="6.00028">
        <ele>540.9</ele>
        <time>2020-06-20T16:20:54Z</time>
      </trkpt>
      <trkpt lat="43.83159" lon="6.00036">
        <ele>540.8</ele>
        <time>2020-06-20T16:20:56Z</time>
      </trkpt>
      <trkpt lat="43.83165" lon="6.00047">
        <ele>540.8</ele>
        <time>2020-06-20T16:20:57Z</time>
      </trkpt>
      <trkpt lat="43.8317" lon="6.00058">
        <ele>540.8</ele>
        <time>2020-06-20T16:20:58Z</time>
      </trkpt>
      <trkpt lat="43.83175" lon="6.00066">
        <ele>540.8</ele>
        <time>2020-06-20T16:21:00Z</time>
      </trkpt>
      <trkpt lat="43.83182" lon="6.00069">
        <ele>540.9</ele>
        <time>2020-06-20T16:21:01Z</time>
      </trkpt>
      <trkpt lat="43.83189" lon="6.0007">
        <ele>540.9</ele>
        <time>2020-06-20T16:21:02Z</time>
      </trkpt>
      <trkpt lat="43.83193" lon="6.00069">
        <ele>541</ele>
        <time>2020-06-20T16:21:03Z</time>
      </trkpt>
      <trkpt lat="43.83202" lon="6.00068">
        <ele>541.2</ele>
        <time>2020-06-20T16:21:05Z</time>
      </trkpt>
      <trkpt lat="43.83207" lon="6.00068">
        <ele>541.4</ele>
        <time>2020-06-20T16:21:06Z</time>
      </trkpt>
      <trkpt lat="43.8321" lon="6.00068">
        <ele>541.5</ele>
        <time>2020-06-20T16:21:07Z</time>
      </trkpt>
      <trkpt lat="43.83217" lon="6.00068">
        <ele>541.7</ele>
        <time>2020-06-20T16:21:09Z</time>
      </trkpt>
      <trkpt lat="43.83222" lon="6.00068">
        <ele>541.9</ele>
        <time>2020-06-20T16:21:10Z</time>
      </trkpt>
      <trkpt lat="43.83225" lon="6.00065">
        <ele>543</ele>
        <time>2020-06-20T16:21:11Z</time>
      </trkpt>
      <trkpt lat="43.83229" lon="6.00062">
        <ele>542.8</ele>
        <time>2020-06-20T16:21:12Z</time>
      </trkpt>
      <trkpt lat="43.83232" lon="6.00056">
        <ele>542.5</ele>
        <time>2020-06-20T16:21:14Z</time>
      </trkpt>
      <trkpt lat="43.83237" lon="6.00048">
        <ele>541.7</ele>
        <time>2020-06-20T16:21:15Z</time>
      </trkpt>
      <trkpt lat="43.83239" lon="6.00044">
        <ele>541.5</ele>
        <time>2020-06-20T16:21:16Z</time>
      </trkpt>
      <trkpt lat="43.83242" lon="6.00036">
        <ele>541.2</ele>
        <time>2020-06-20T16:21:18Z</time>
      </trkpt>
      <trkpt lat="43.83244" lon="6.0003">
        <ele>541</ele>
        <time>2020-06-20T16:21:19Z</time>
      </trkpt>
      <trkpt lat="43.83246" lon="6.00024">
        <ele>540.7</ele>
        <time>2020-06-20T16:21:21Z</time>
      </trkpt>
      <trkpt lat="43.83247" lon="6.00019">
        <ele>540.6</ele>
        <time>2020-06-20T16:21:22Z</time>
      </trkpt>
      <trkpt lat="43.83246" lon="6.00013">
        <ele>540.8</ele>
        <time>2020-06-20T16:21:23Z</time>
      </trkpt>
      <trkpt lat="43.83246" lon="6.00007">
        <ele>540.9</ele>
        <time>2020-06-20T16:21:24Z</time>
      </trkpt>
      <trkpt lat="43.83245" lon="5.99998">
        <ele>541.1</ele>
        <time>2020-06-20T16:21:26Z</time>
      </trkpt>
      <trkpt lat="43.83245" lon="5.99989">
        <ele>541.3</ele>
        <time>2020-06-20T16:21:27Z</time>
      </trkpt>
      <trkpt lat="43.83245" lon="5.99984">
        <ele>541.5</ele>
        <time>2020-06-20T16:21:28Z</time>
      </trkpt>
      <trkpt lat="43.83245" lon="5.99978">
        <ele>541.7</ele>
        <time>2020-06-20T16:21:30Z</time>
      </trkpt>
      <trkpt lat="43.83244" lon="5.99974">
        <ele>541.8</ele>
        <time>2020-06-20T16:21:31Z</time>
      </trkpt>
      <trkpt lat="43.83244" lon="5.9997">
        <ele>542</ele>
        <time>2020-06-20T16:21:32Z</time>
      </trkpt>
      <trkpt lat="43.83244" lon="5.99964">
        <ele>542.2</ele>
        <time>2020-06-20T16:21:33Z</time>
      </trkpt>
      <trkpt lat="43.83244" lon="5.99959">
        <ele>542.5</ele>
        <time>2020-06-20T16:21:35Z</time>
      </trkpt>
      <trkpt lat="43.83244" lon="5.99954">
        <ele>542.7</ele>
        <time>2020-06-20T16:21:36Z</time>
      </trkpt>
      <trkpt lat="43.83244" lon="5.99947">
        <ele>543.1</ele>
        <time>2020-06-20T16:21:38Z</time>
      </trkpt>
      <trkpt lat="43.83244" lon="5.99938">
        <ele>543.6</ele>
        <time>2020-06-20T16:21:40Z</time>
      </trkpt>
      <trkpt lat="43.83244" lon="5.99931">
        <ele>544</ele>
        <time>2020-06-20T16:21:42Z</time>
      </trkpt>
      <trkpt lat="43.83244" lon="5.99925">
        <ele>544.3</ele>
        <time>2020-06-20T16:21:43Z</time>
      </trkpt>
      <trkpt lat="43.83243" lon="5.99921">
        <ele>544.6</ele>
        <time>2020-06-20T16:21:44Z</time>
      </trkpt>
      <trkpt lat="43.83243" lon="5.99915">
        <ele>544.9</ele>
        <time>2020-06-20T16:21:45Z</time>
      </trkpt>
      <trkpt lat="43.83242" lon="5.99908">
        <ele>545.3</ele>
        <time>2020-06-20T16:21:47Z</time>
      </trkpt>
      <trkpt lat="43.83241" lon="5.99902">
        <ele>545.6</ele>
        <time>2020-06-20T16:21:48Z</time>
      </trkpt>
      <trkpt lat="43.8324" lon="5.99896">
        <ele>546</ele>
        <time>2020-06-20T16:21:50Z</time>
      </trkpt>
      <trkpt lat="43.83238" lon="5.9989">
        <ele>546.3</ele>
        <time>2020-06-20T16:21:51Z</time>
      </trkpt>
      <trkpt lat="43.83238" lon="5.99885">
        <ele>546.5</ele>
        <time>2020-06-20T16:21:52Z</time>
      </trkpt>
      <trkpt lat="43.83237" lon="5.99881">
        <ele>546.8</ele>
        <time>2020-06-20T16:21:53Z</time>
      </trkpt>
      <trkpt lat="43.83236" lon="5.99874">
        <ele>547.2</ele>
        <time>2020-06-20T16:21:55Z</time>
      </trkpt>
      <trkpt lat="43.83235" lon="5.99867">
        <ele>547.6</ele>
        <time>2020-06-20T16:21:57Z</time>
      </trkpt>
      <trkpt lat="43.83234" lon="5.99863">
        <ele>547.8</ele>
        <time>2020-06-20T16:21:58Z</time>
      </trkpt>
      <trkpt lat="43.83233" lon="5.9986">
        <ele>548</ele>
        <time>2020-06-20T16:21:59Z</time>
      </trkpt>
      <trkpt lat="43.8323" lon="5.99854">
        <ele>548.4</ele>
        <time>2020-06-20T16:22:01Z</time>
      </trkpt>
      <trkpt lat="43.83229" lon="5.99851">
        <ele>548.7</ele>
        <time>2020-06-20T16:22:03Z</time>
      </trkpt>
      <trkpt lat="43.83228" lon="5.99847">
        <ele>548.9</ele>
        <time>2020-06-20T16:22:04Z</time>
      </trkpt>
      <trkpt lat="43.83227" lon="5.99844">
        <ele>549.1</ele>
        <time>2020-06-20T16:22:05Z</time>
      </trkpt>
      <trkpt lat="43.83226" lon="5.9984">
        <ele>549.4</ele>
        <time>2020-06-20T16:22:06Z</time>
      </trkpt>
      <trkpt lat="43.83222" lon="5.99831">
        <ele>549.9</ele>
        <time>2020-06-20T16:22:09Z</time>
      </trkpt>
      <trkpt lat="43.83221" lon="5.99827">
        <ele>550.1</ele>
        <time>2020-06-20T16:22:10Z</time>
      </trkpt>
      <trkpt lat="43.8322" lon="5.99822">
        <ele>550.4</ele>
        <time>2020-06-20T16:22:11Z</time>
      </trkpt>
      <trkpt lat="43.83219" lon="5.9982">
        <ele>550.5</ele>
        <time>2020-06-20T16:22:12Z</time>
      </trkpt>
      <trkpt lat="43.83218" lon="5.99815">
        <ele>550.8</ele>
        <time>2020-06-20T16:22:14Z</time>
      </trkpt>
      <trkpt lat="43.83217" lon="5.99809">
        <ele>551.1</ele>
        <time>2020-06-20T16:22:16Z</time>
      </trkpt>
      <trkpt lat="43.83218" lon="5.99803">
        <ele>551.4</ele>
        <time>2020-06-20T16:22:17Z</time>
      </trkpt>
      <trkpt lat="43.83217" lon="5.998">
        <ele>551.6</ele>
        <time>2020-06-20T16:22:18Z</time>
      </trkpt>
      <trkpt lat="43.83217" lon="5.99796">
        <ele>551.8</ele>
        <time>2020-06-20T16:22:19Z</time>
      </trkpt>
      <trkpt lat="43.83216" lon="5.99792">
        <ele>551.9</ele>
        <time>2020-06-20T16:22:20Z</time>
      </trkpt>
      <trkpt lat="43.83216" lon="5.99785">
        <ele>552.3</ele>
        <time>2020-06-20T16:22:22Z</time>
      </trkpt>
      <trkpt lat="43.83215" lon="5.99781">
        <ele>552.5</ele>
        <time>2020-06-20T16:22:23Z</time>
      </trkpt>
      <trkpt lat="43.83215" lon="5.99774">
        <ele>552.9</ele>
        <time>2020-06-20T16:22:25Z</time>
      </trkpt>
      <trkpt lat="43.83215" lon="5.9977">
        <ele>553.1</ele>
        <time>2020-06-20T16:22:26Z</time>
      </trkpt>
      <trkpt lat="43.83216" lon="5.99765">
        <ele>553.3</ele>
        <time>2020-06-20T16:22:28Z</time>
      </trkpt>
      <trkpt lat="43.83216" lon="5.99762">
        <ele>553.5</ele>
        <time>2020-06-20T16:22:29Z</time>
      </trkpt>
      <trkpt lat="43.83217" lon="5.99757">
        <ele>553.7</ele>
        <time>2020-06-20T16:22:31Z</time>
      </trkpt>
      <trkpt lat="43.83218" lon="5.99751">
        <ele>554</ele>
        <time>2020-06-20T16:22:33Z</time>
      </trkpt>
      <trkpt lat="43.83218" lon="5.99749">
        <ele>554.1</ele>
        <time>2020-06-20T16:22:34Z</time>
      </trkpt>
      <trkpt lat="43.83218" lon="5.99747">
        <ele>554.2</ele>
        <time>2020-06-20T16:22:35Z</time>
      </trkpt>
      <trkpt lat="43.83219" lon="5.99742">
        <ele>554.5</ele>
        <time>2020-06-20T16:22:37Z</time>
      </trkpt>
      <trkpt lat="43.83219" lon="5.99739">
        <ele>554.7</ele>
        <time>2020-06-20T16:22:38Z</time>
      </trkpt>
      <trkpt lat="43.83219" lon="5.99734">
        <ele>554.9</ele>
        <time>2020-06-20T16:22:40Z</time>
      </trkpt>
      <trkpt lat="43.83219" lon="5.9973">
        <ele>555.1</ele>
        <time>2020-06-20T16:22:41Z</time>
      </trkpt>
      <trkpt lat="43.83219" lon="5.99728">
        <ele>555.2</ele>
        <time>2020-06-20T16:22:42Z</time>
      </trkpt>
      <trkpt lat="43.83219" lon="5.99724">
        <ele>555.4</ele>
        <time>2020-06-20T16:22:43Z</time>
      </trkpt>
      <trkpt lat="43.83219" lon="5.99717">
        <ele>555.7</ele>
        <time>2020-06-20T16:22:45Z</time>
      </trkpt>
      <trkpt lat="43.83219" lon="5.99715">
        <ele>555.8</ele>
        <time>2020-06-20T16:22:46Z</time>
      </trkpt>
      <trkpt lat="43.83219" lon="5.99713">
        <ele>555.9</ele>
        <time>2020-06-20T16:22:47Z</time>
      </trkpt>
      <trkpt lat="43.8322" lon="5.99708">
        <ele>556.2</ele>
        <time>2020-06-20T16:22:48Z</time>
      </trkpt>
      <trkpt lat="43.83221" lon="5.99704">
        <ele>556.4</ele>
        <time>2020-06-20T16:22:50Z</time>
      </trkpt>
      <trkpt lat="43.8322" lon="5.997">
        <ele>556.6</ele>
        <time>2020-06-20T16:22:51Z</time>
      </trkpt>
      <trkpt lat="43.83219" lon="5.99694">
        <ele>556.9</ele>
        <time>2020-06-20T16:22:52Z</time>
      </trkpt>
      <trkpt lat="43.83219" lon="5.99693">
        <ele>557</ele>
        <time>2020-06-20T16:22:53Z</time>
      </trkpt>
      <trkpt lat="43.8322" lon="5.9969">
        <ele>557.1</ele>
        <time>2020-06-20T16:22:54Z</time>
      </trkpt>
      <trkpt lat="43.8322" lon="5.99688">
        <ele>557.2</ele>
        <time>2020-06-20T16:22:55Z</time>
      </trkpt>
      <trkpt lat="43.8322" lon="5.99685">
        <ele>557.3</ele>
        <time>2020-06-20T16:22:56Z</time>
      </trkpt>
      <trkpt lat="43.8322" lon="5.99682">
        <ele>557.5</ele>
        <time>2020-06-20T16:22:58Z</time>
      </trkpt>
      <trkpt lat="43.8322" lon="5.99678">
        <ele>557.8</ele>
        <time>2020-06-20T16:22:59Z</time>
      </trkpt>
      <trkpt lat="43.8322" lon="5.99674">
        <ele>558</ele>
        <time>2020-06-20T16:23:00Z</time>
      </trkpt>
      <trkpt lat="43.8322" lon="5.99672">
        <ele>558.1</ele>
        <time>2020-06-20T16:23:01Z</time>
      </trkpt>
      <trkpt lat="43.83221" lon="5.99667">
        <ele>558.4</ele>
        <time>2020-06-20T16:23:03Z</time>
      </trkpt>
      <trkpt lat="43.83221" lon="5.99665">
        <ele>558.5</ele>
        <time>2020-06-20T16:23:04Z</time>
      </trkpt>
      <trkpt lat="43.8322" lon="5.9966">
        <ele>558.8</ele>
        <time>2020-06-20T16:23:05Z</time>
      </trkpt>
      <trkpt lat="43.8322" lon="5.99658">
        <ele>558.9</ele>
        <time>2020-06-20T16:23:06Z</time>
      </trkpt>
      <trkpt lat="43.8322" lon="5.99654">
        <ele>559.2</ele>
        <time>2020-06-20T16:23:08Z</time>
      </trkpt>
      <trkpt lat="43.8322" lon="5.99649">
        <ele>559.4</ele>
        <time>2020-06-20T16:23:09Z</time>
      </trkpt>
      <trkpt lat="43.8322" lon="5.99644">
        <ele>559.8</ele>
        <time>2020-06-20T16:23:11Z</time>
      </trkpt>
      <trkpt lat="43.8322" lon="5.9964">
        <ele>560</ele>
        <time>2020-06-20T16:23:12Z</time>
      </trkpt>
      <trkpt lat="43.8322" lon="5.99637">
        <ele>560.2</ele>
        <time>2020-06-20T16:23:14Z</time>
      </trkpt>
      <trkpt lat="43.83219" lon="5.99632">
        <ele>560.5</ele>
        <time>2020-06-20T16:23:15Z</time>
      </trkpt>
      <trkpt lat="43.83219" lon="5.9963">
        <ele>560.6</ele>
        <time>2020-06-20T16:23:16Z</time>
      </trkpt>
      <trkpt lat="43.83218" lon="5.99627">
        <ele>560.8</ele>
        <time>2020-06-20T16:23:17Z</time>
      </trkpt>
      <trkpt lat="43.83217" lon="5.99625">
        <ele>561</ele>
        <time>2020-06-20T16:23:19Z</time>
      </trkpt>
      <trkpt lat="43.83218" lon="5.99619">
        <ele>561.3</ele>
        <time>2020-06-20T16:23:20Z</time>
      </trkpt>
      <trkpt lat="43.83218" lon="5.99617">
        <ele>561.4</ele>
        <time>2020-06-20T16:23:21Z</time>
      </trkpt>
      <trkpt lat="43.83217" lon="5.99612">
        <ele>561.8</ele>
        <time>2020-06-20T16:23:23Z</time>
      </trkpt>
      <trkpt lat="43.83217" lon="5.99611">
        <ele>561.9</ele>
        <time>2020-06-20T16:23:24Z</time>
      </trkpt>
      <trkpt lat="43.83216" lon="5.99607">
        <ele>562.1</ele>
        <time>2020-06-20T16:23:25Z</time>
      </trkpt>
      <trkpt lat="43.83217" lon="5.99602">
        <ele>562.4</ele>
        <time>2020-06-20T16:23:26Z</time>
      </trkpt>
      <trkpt lat="43.83217" lon="5.996">
        <ele>562.5</ele>
        <time>2020-06-20T16:23:27Z</time>
      </trkpt>
      <trkpt lat="43.83217" lon="5.99595">
        <ele>562.8</ele>
        <time>2020-06-20T16:23:29Z</time>
      </trkpt>
      <trkpt lat="43.83217" lon="5.99591">
        <ele>563</ele>
        <time>2020-06-20T16:23:30Z</time>
      </trkpt>
      <trkpt lat="43.83218" lon="5.99587">
        <ele>563.2</ele>
        <time>2020-06-20T16:23:31Z</time>
      </trkpt>
      <trkpt lat="43.83218" lon="5.99581">
        <ele>563.6</ele>
        <time>2020-06-20T16:23:33Z</time>
      </trkpt>
      <trkpt lat="43.83218" lon="5.99579">
        <ele>563.7</ele>
        <time>2020-06-20T16:23:34Z</time>
      </trkpt>
      <trkpt lat="43.83217" lon="5.99575">
        <ele>563.9</ele>
        <time>2020-06-20T16:23:36Z</time>
      </trkpt>
      <trkpt lat="43.83217" lon="5.99572">
        <ele>564.1</ele>
        <time>2020-06-20T16:23:37Z</time>
      </trkpt>
      <trkpt lat="43.83217" lon="5.99569">
        <ele>564.3</ele>
        <time>2020-06-20T16:23:39Z</time>
      </trkpt>
      <trkpt lat="43.83216" lon="5.99564">
        <ele>564.6</ele>
        <time>2020-06-20T16:23:40Z</time>
      </trkpt>
      <trkpt lat="43.83216" lon="5.99561">
        <ele>564.7</ele>
        <time>2020-06-20T16:23:41Z</time>
      </trkpt>
      <trkpt lat="43.83215" lon="5.99554">
        <ele>565.1</ele>
        <time>2020-06-20T16:23:43Z</time>
      </trkpt>
      <trkpt lat="43.83215" lon="5.99552">
        <ele>565.2</ele>
        <time>2020-06-20T16:23:45Z</time>
      </trkpt>
      <trkpt lat="43.83214" lon="5.99549">
        <ele>565.4</ele>
        <time>2020-06-20T16:23:46Z</time>
      </trkpt>
      <trkpt lat="43.83214" lon="5.99544">
        <ele>565.6</ele>
        <time>2020-06-20T16:23:47Z</time>
      </trkpt>
      <trkpt lat="43.83214" lon="5.99543">
        <ele>565.7</ele>
        <time>2020-06-20T16:23:48Z</time>
      </trkpt>
      <trkpt lat="43.83214" lon="5.99537">
        <ele>566</ele>
        <time>2020-06-20T16:23:50Z</time>
      </trkpt>
      <trkpt lat="43.83214" lon="5.99535">
        <ele>566.1</ele>
        <time>2020-06-20T16:23:51Z</time>
      </trkpt>
      <trkpt lat="43.83214" lon="5.99533">
        <ele>566.2</ele>
        <time>2020-06-20T16:23:52Z</time>
      </trkpt>
      <trkpt lat="43.83214" lon="5.99527">
        <ele>566.5</ele>
        <time>2020-06-20T16:23:54Z</time>
      </trkpt>
      <trkpt lat="43.83214" lon="5.99525">
        <ele>566.6</ele>
        <time>2020-06-20T16:23:55Z</time>
      </trkpt>
      <trkpt lat="43.83214" lon="5.99522">
        <ele>566.7</ele>
        <time>2020-06-20T16:23:56Z</time>
      </trkpt>
      <trkpt lat="43.83214" lon="5.99519">
        <ele>566.9</ele>
        <time>2020-06-20T16:23:58Z</time>
      </trkpt>
      <trkpt lat="43.83213" lon="5.99514">
        <ele>567.2</ele>
        <time>2020-06-20T16:23:59Z</time>
      </trkpt>
      <trkpt lat="43.83213" lon="5.99509">
        <ele>567.4</ele>
        <time>2020-06-20T16:24:01Z</time>
      </trkpt>
      <trkpt lat="43.83213" lon="5.99507">
        <ele>567.5</ele>
        <time>2020-06-20T16:24:02Z</time>
      </trkpt>
      <trkpt lat="43.83213" lon="5.99503">
        <ele>567.7</ele>
        <time>2020-06-20T16:24:03Z</time>
      </trkpt>
      <trkpt lat="43.83213" lon="5.99501">
        <ele>567.8</ele>
        <time>2020-06-20T16:24:04Z</time>
      </trkpt>
      <trkpt lat="43.83212" lon="5.99497">
        <ele>568.1</ele>
        <time>2020-06-20T16:24:06Z</time>
      </trkpt>
      <trkpt lat="43.83211" lon="5.99494">
        <ele>568.2</ele>
        <time>2020-06-20T16:24:07Z</time>
      </trkpt>
      <trkpt lat="43.8321" lon="5.9949">
        <ele>568.5</ele>
        <time>2020-06-20T16:24:09Z</time>
      </trkpt>
      <trkpt lat="43.83209" lon="5.99487">
        <ele>568.7</ele>
        <time>2020-06-20T16:24:10Z</time>
      </trkpt>
      <trkpt lat="43.83209" lon="5.99483">
        <ele>568.9</ele>
        <time>2020-06-20T16:24:12Z</time>
      </trkpt>
      <trkpt lat="43.83208" lon="5.9948">
        <ele>569</ele>
        <time>2020-06-20T16:24:13Z</time>
      </trkpt>
      <trkpt lat="43.83207" lon="5.99477">
        <ele>569.2</ele>
        <time>2020-06-20T16:24:15Z</time>
      </trkpt>
      <trkpt lat="43.83205" lon="5.99472">
        <ele>569.5</ele>
        <time>2020-06-20T16:24:16Z</time>
      </trkpt>
      <trkpt lat="43.83205" lon="5.9947">
        <ele>569.6</ele>
        <time>2020-06-20T16:24:17Z</time>
      </trkpt>
      <trkpt lat="43.83204" lon="5.99466">
        <ele>569.8</ele>
        <time>2020-06-20T16:24:18Z</time>
      </trkpt>
      <trkpt lat="43.83203" lon="5.99461">
        <ele>570.1</ele>
        <time>2020-06-20T16:24:20Z</time>
      </trkpt>
      <trkpt lat="43.83201" lon="5.99454">
        <ele>570.4</ele>
        <time>2020-06-20T16:24:22Z</time>
      </trkpt>
      <trkpt lat="43.83201" lon="5.99452">
        <ele>570.5</ele>
        <time>2020-06-20T16:24:23Z</time>
      </trkpt>
      <trkpt lat="43.832" lon="5.9945">
        <ele>570.6</ele>
        <time>2020-06-20T16:24:24Z</time>
      </trkpt>
      <trkpt lat="43.83199" lon="5.99446">
        <ele>570.8</ele>
        <time>2020-06-20T16:24:25Z</time>
      </trkpt>
      <trkpt lat="43.83197" lon="5.99441">
        <ele>571</ele>
        <time>2020-06-20T16:24:27Z</time>
      </trkpt>
      <trkpt lat="43.83196" lon="5.99437">
        <ele>571.2</ele>
        <time>2020-06-20T16:24:29Z</time>
      </trkpt>
      <trkpt lat="43.83195" lon="5.99434">
        <ele>571.4</ele>
        <time>2020-06-20T16:24:30Z</time>
      </trkpt>
      <trkpt lat="43.83194" lon="5.99428">
        <ele>571.6</ele>
        <time>2020-06-20T16:24:32Z</time>
      </trkpt>
      <trkpt lat="43.83193" lon="5.99426">
        <ele>571.8</ele>
        <time>2020-06-20T16:24:33Z</time>
      </trkpt>
      <trkpt lat="43.83192" lon="5.99423">
        <ele>571.9</ele>
        <time>2020-06-20T16:24:35Z</time>
      </trkpt>
      <trkpt lat="43.8319" lon="5.99419">
        <ele>572.1</ele>
        <time>2020-06-20T16:24:36Z</time>
      </trkpt>
      <trkpt lat="43.83188" lon="5.99413">
        <ele>572.4</ele>
        <time>2020-06-20T16:24:38Z</time>
      </trkpt>
      <trkpt lat="43.83186" lon="5.99409">
        <ele>572.6</ele>
        <time>2020-06-20T16:24:40Z</time>
      </trkpt>
      <trkpt lat="43.83185" lon="5.99405">
        <ele>572.8</ele>
        <time>2020-06-20T16:24:41Z</time>
      </trkpt>
      <trkpt lat="43.83183" lon="5.99401">
        <ele>573</ele>
        <time>2020-06-20T16:24:43Z</time>
      </trkpt>
      <trkpt lat="43.83183" lon="5.99397">
        <ele>573.2</ele>
        <time>2020-06-20T16:24:44Z</time>
      </trkpt>
      <trkpt lat="43.83181" lon="5.99392">
        <ele>573.5</ele>
        <time>2020-06-20T16:24:46Z</time>
      </trkpt>
      <trkpt lat="43.8318" lon="5.99389">
        <ele>573.6</ele>
        <time>2020-06-20T16:24:47Z</time>
      </trkpt>
      <trkpt lat="43.83179" lon="5.99385">
        <ele>573.9</ele>
        <time>2020-06-20T16:24:49Z</time>
      </trkpt>
      <trkpt lat="43.83178" lon="5.99381">
        <ele>574.1</ele>
        <time>2020-06-20T16:24:50Z</time>
      </trkpt>
      <trkpt lat="43.83177" lon="5.99377">
        <ele>574.2</ele>
        <time>2020-06-20T16:24:51Z</time>
      </trkpt>
      <trkpt lat="43.83176" lon="5.99371">
        <ele>574.5</ele>
        <time>2020-06-20T16:24:53Z</time>
      </trkpt>
      <trkpt lat="43.83175" lon="5.99366">
        <ele>574.7</ele>
        <time>2020-06-20T16:24:54Z</time>
      </trkpt>
      <trkpt lat="43.83175" lon="5.99365">
        <ele>574.8</ele>
        <time>2020-06-20T16:24:55Z</time>
      </trkpt>
      <trkpt lat="43.83174" lon="5.99361">
        <ele>574.9</ele>
        <time>2020-06-20T16:24:57Z</time>
      </trkpt>
      <trkpt lat="43.83173" lon="5.99358">
        <ele>575.1</ele>
        <time>2020-06-20T16:24:58Z</time>
      </trkpt>
      <trkpt lat="43.83173" lon="5.99354">
        <ele>575.2</ele>
        <time>2020-06-20T16:25:00Z</time>
      </trkpt>
      <trkpt lat="43.83172" lon="5.9935">
        <ele>575.4</ele>
        <time>2020-06-20T16:25:01Z</time>
      </trkpt>
      <trkpt lat="43.83172" lon="5.99346">
        <ele>575.6</ele>
        <time>2020-06-20T16:25:03Z</time>
      </trkpt>
      <trkpt lat="43.83172" lon="5.99342">
        <ele>575.7</ele>
        <time>2020-06-20T16:25:04Z</time>
      </trkpt>
      <trkpt lat="43.83171" lon="5.99337">
        <ele>575.9</ele>
        <time>2020-06-20T16:25:06Z</time>
      </trkpt>
      <trkpt lat="43.83171" lon="5.99334">
        <ele>576.1</ele>
        <time>2020-06-20T16:25:07Z</time>
      </trkpt>
      <trkpt lat="43.83169" lon="5.9933">
        <ele>576.3</ele>
        <time>2020-06-20T16:25:09Z</time>
      </trkpt>
      <trkpt lat="43.83169" lon="5.99328">
        <ele>576.3</ele>
        <time>2020-06-20T16:25:10Z</time>
      </trkpt>
      <trkpt lat="43.83169" lon="5.99323">
        <ele>576.6</ele>
        <time>2020-06-20T16:25:11Z</time>
      </trkpt>
      <trkpt lat="43.83168" lon="5.99321">
        <ele>576.6</ele>
        <time>2020-06-20T16:25:12Z</time>
      </trkpt>
      <trkpt lat="43.83168" lon="5.99317">
        <ele>576.8</ele>
        <time>2020-06-20T16:25:14Z</time>
      </trkpt>
      <trkpt lat="43.83168" lon="5.99313">
        <ele>577</ele>
        <time>2020-06-20T16:25:15Z</time>
      </trkpt>
      <trkpt lat="43.83167" lon="5.9931">
        <ele>577.1</ele>
        <time>2020-06-20T16:25:16Z</time>
      </trkpt>
      <trkpt lat="43.83167" lon="5.99306">
        <ele>577.3</ele>
        <time>2020-06-20T16:25:18Z</time>
      </trkpt>
      <trkpt lat="43.83166" lon="5.99301">
        <ele>577.5</ele>
        <time>2020-06-20T16:25:19Z</time>
      </trkpt>
      <trkpt lat="43.83166" lon="5.99299">
        <ele>577.6</ele>
        <time>2020-06-20T16:25:20Z</time>
      </trkpt>
      <trkpt lat="43.83165" lon="5.99294">
        <ele>577.8</ele>
        <time>2020-06-20T16:25:22Z</time>
      </trkpt>
      <trkpt lat="43.83165" lon="5.99291">
        <ele>577.9</ele>
        <time>2020-06-20T16:25:23Z</time>
      </trkpt>
      <trkpt lat="43.83165" lon="5.99287">
        <ele>578.1</ele>
        <time>2020-06-20T16:25:25Z</time>
      </trkpt>
      <trkpt lat="43.83164" lon="5.99282">
        <ele>578.3</ele>
        <time>2020-06-20T16:25:26Z</time>
      </trkpt>
      <trkpt lat="43.83164" lon="5.99281">
        <ele>578.4</ele>
        <time>2020-06-20T16:25:27Z</time>
      </trkpt>
      <trkpt lat="43.83163" lon="5.99279">
        <ele>578.5</ele>
        <time>2020-06-20T16:25:28Z</time>
      </trkpt>
      <trkpt lat="43.83162" lon="5.99276">
        <ele>578.6</ele>
        <time>2020-06-20T16:25:30Z</time>
      </trkpt>
      <trkpt lat="43.83161" lon="5.99272">
        <ele>578.8</ele>
        <time>2020-06-20T16:25:32Z</time>
      </trkpt>
      <trkpt lat="43.8316" lon="5.99271">
        <ele>578.8</ele>
        <time>2020-06-20T16:25:33Z</time>
      </trkpt>
      <trkpt lat="43.83159" lon="5.99268">
        <ele>579</ele>
        <time>2020-06-20T16:25:35Z</time>
      </trkpt>
      <trkpt lat="43.83158" lon="5.99267">
        <ele>579</ele>
        <time>2020-06-20T16:25:36Z</time>
      </trkpt>
      <trkpt lat="43.83159" lon="5.99264">
        <ele>579.2</ele>
        <time>2020-06-20T16:25:37Z</time>
      </trkpt>
      <trkpt lat="43.83158" lon="5.9926">
        <ele>579.3</ele>
        <time>2020-06-20T16:25:39Z</time>
      </trkpt>
      <trkpt lat="43.83156" lon="5.99256">
        <ele>579.5</ele>
        <time>2020-06-20T16:25:40Z</time>
      </trkpt>
      <trkpt lat="43.83155" lon="5.99251">
        <ele>579.7</ele>
        <time>2020-06-20T16:25:41Z</time>
      </trkpt>
      <trkpt lat="43.83153" lon="5.99242">
        <ele>580.1</ele>
        <time>2020-06-20T16:25:43Z</time>
      </trkpt>
      <trkpt lat="43.83153" lon="5.99235">
        <ele>580.3</ele>
        <time>2020-06-20T16:25:45Z</time>
      </trkpt>
      <trkpt lat="43.83153" lon="5.9923">
        <ele>580.5</ele>
        <time>2020-06-20T16:25:46Z</time>
      </trkpt>
      <trkpt lat="43.83153" lon="5.99226">
        <ele>580.7</ele>
        <time>2020-06-20T16:25:47Z</time>
      </trkpt>
      <trkpt lat="43.83153" lon="5.99223">
        <ele>580.8</ele>
        <time>2020-06-20T16:25:48Z</time>
      </trkpt>
      <trkpt lat="43.83153" lon="5.99218">
        <ele>581</ele>
        <time>2020-06-20T16:25:50Z</time>
      </trkpt>
      <trkpt lat="43.83155" lon="5.99213">
        <ele>581.2</ele>
        <time>2020-06-20T16:25:51Z</time>
      </trkpt>
      <trkpt lat="43.83157" lon="5.99209">
        <ele>581.3</ele>
        <time>2020-06-20T16:25:52Z</time>
      </trkpt>
      <trkpt lat="43.83158" lon="5.99206">
        <ele>581.5</ele>
        <time>2020-06-20T16:25:53Z</time>
      </trkpt>
      <trkpt lat="43.8316" lon="5.99203">
        <ele>581.6</ele>
        <time>2020-06-20T16:25:54Z</time>
      </trkpt>
      <trkpt lat="43.83163" lon="5.992">
        <ele>581.7</ele>
        <time>2020-06-20T16:25:56Z</time>
      </trkpt>
      <trkpt lat="43.83165" lon="5.99198">
        <ele>581.7</ele>
        <time>2020-06-20T16:25:57Z</time>
      </trkpt>
      <trkpt lat="43.83169" lon="5.99196">
        <ele>582</ele>
        <time>2020-06-20T16:25:59Z</time>
      </trkpt>
      <trkpt lat="43.83172" lon="5.99196">
        <ele>582.1</ele>
        <time>2020-06-20T16:26:00Z</time>
      </trkpt>
      <trkpt lat="43.83175" lon="5.99196">
        <ele>582.2</ele>
        <time>2020-06-20T16:26:02Z</time>
      </trkpt>
      <trkpt lat="43.83178" lon="5.99195">
        <ele>582.2</ele>
        <time>2020-06-20T16:26:03Z</time>
      </trkpt>
      <trkpt lat="43.83181" lon="5.99195">
        <ele>582.3</ele>
        <time>2020-06-20T16:26:04Z</time>
      </trkpt>
      <trkpt lat="43.83184" lon="5.99196">
        <ele>582.3</ele>
        <time>2020-06-20T16:26:06Z</time>
      </trkpt>
      <trkpt lat="43.83188" lon="5.99197">
        <ele>582.3</ele>
        <time>2020-06-20T16:26:07Z</time>
      </trkpt>
      <trkpt lat="43.83191" lon="5.99198">
        <ele>582.2</ele>
        <time>2020-06-20T16:26:08Z</time>
      </trkpt>
      <trkpt lat="43.83195" lon="5.99199">
        <ele>582.2</ele>
        <time>2020-06-20T16:26:09Z</time>
      </trkpt>
      <trkpt lat="43.83199" lon="5.99202">
        <ele>582.1</ele>
        <time>2020-06-20T16:26:11Z</time>
      </trkpt>
      <trkpt lat="43.83203" lon="5.99206">
        <ele>582</ele>
        <time>2020-06-20T16:26:12Z</time>
      </trkpt>
      <trkpt lat="43.83207" lon="5.99209">
        <ele>581.9</ele>
        <time>2020-06-20T16:26:13Z</time>
      </trkpt>
      <trkpt lat="43.83211" lon="5.99212">
        <ele>581.8</ele>
        <time>2020-06-20T16:26:14Z</time>
      </trkpt>
      <trkpt lat="43.83217" lon="5.99216">
        <ele>581.5</ele>
        <time>2020-06-20T16:26:15Z</time>
      </trkpt>
      <trkpt lat="43.83222" lon="5.99218">
        <ele>581.3</ele>
        <time>2020-06-20T16:26:16Z</time>
      </trkpt>
      <trkpt lat="43.83233" lon="5.99221">
        <ele>580.9</ele>
        <time>2020-06-20T16:26:18Z</time>
      </trkpt>
      <trkpt lat="43.83243" lon="5.99216">
        <ele>580.4</ele>
        <time>2020-06-20T16:26:20Z</time>
      </trkpt>
      <trkpt lat="43.83248" lon="5.99213">
        <ele>580.2</ele>
        <time>2020-06-20T16:26:22Z</time>
      </trkpt>
      <trkpt lat="43.83254" lon="5.99209">
        <ele>579.9</ele>
        <time>2020-06-20T16:26:23Z</time>
      </trkpt>
      <trkpt lat="43.83257" lon="5.99205">
        <ele>579.7</ele>
        <time>2020-06-20T16:26:24Z</time>
      </trkpt>
      <trkpt lat="43.83259" lon="5.99203">
        <ele>579.6</ele>
        <time>2020-06-20T16:26:26Z</time>
      </trkpt>
      <trkpt lat="43.83259" lon="5.99205">
        <ele>579.6</ele>
        <time>2020-06-20T16:26:27Z</time>
      </trkpt>
      <trkpt lat="43.83259" lon="5.99206">
        <ele>579.6</ele>
        <time>2020-06-20T16:26:28Z</time>
      </trkpt>
      <trkpt lat="43.83259" lon="5.99207">
        <ele>579.5</ele>
        <time>2020-06-20T16:26:30Z</time>
      </trkpt>
      <trkpt lat="43.83259" lon="5.99208">
        <ele>579.5</ele>
        <time>2020-06-20T16:26:31Z</time>
      </trkpt>
      <trkpt lat="43.8326" lon="5.99205">
        <ele>579.4</ele>
        <time>2020-06-20T16:26:34Z</time>
      </trkpt>
      <trkpt lat="43.83261" lon="5.99201">
        <ele>579.3</ele>
        <time>2020-06-20T16:26:35Z</time>
      </trkpt>
      <trkpt lat="43.83261" lon="5.99197">
        <ele>579.2</ele>
        <time>2020-06-20T16:26:37Z</time>
      </trkpt>
      <trkpt lat="43.83262" lon="5.99194">
        <ele>579.1</ele>
        <time>2020-06-20T16:26:38Z</time>
      </trkpt>
      <trkpt lat="43.83262" lon="5.9919">
        <ele>579.1</ele>
        <time>2020-06-20T16:26:39Z</time>
      </trkpt>
      <trkpt lat="43.83263" lon="5.99186">
        <ele>578.9</ele>
        <time>2020-06-20T16:26:41Z</time>
      </trkpt>
      <trkpt lat="43.83263" lon="5.99183">
        <ele>578.8</ele>
        <time>2020-06-20T16:26:55Z</time>
      </trkpt>
      <trkpt lat="43.83264" lon="5.99179">
        <ele>578.7</ele>
        <time>2020-06-20T16:26:56Z</time>
      </trkpt>
      <trkpt lat="43.8327" lon="5.99166">
        <ele>578.2</ele>
        <time>2020-06-20T16:26:57Z</time>
      </trkpt>
      <trkpt lat="43.83273" lon="5.9916">
        <ele>578</ele>
        <time>2020-06-20T16:26:58Z</time>
      </trkpt>
      <trkpt lat="43.83274" lon="5.99159">
        <ele>577.9</ele>
        <time>2020-06-20T16:27:00Z</time>
      </trkpt>
      <trkpt lat="43.83281" lon="5.99149">
        <ele>577.5</ele>
        <time>2020-06-20T16:27:02Z</time>
      </trkpt>
      <trkpt lat="43.83286" lon="5.9914">
        <ele>577.1</ele>
        <time>2020-06-20T16:27:04Z</time>
      </trkpt>
      <trkpt lat="43.83297" lon="5.99126">
        <ele>576.4</ele>
        <time>2020-06-20T16:27:05Z</time>
      </trkpt>
      <trkpt lat="43.83302" lon="5.99122">
        <ele>576</ele>
        <time>2020-06-20T16:27:07Z</time>
      </trkpt>
      <trkpt lat="43.83312" lon="5.99115">
        <ele>575.4</ele>
        <time>2020-06-20T16:27:08Z</time>
      </trkpt>
      <trkpt lat="43.83318" lon="5.99114">
        <ele>575.1</ele>
        <time>2020-06-20T16:27:10Z</time>
      </trkpt>
      <trkpt lat="43.83331" lon="5.99118">
        <ele>574.3</ele>
        <time>2020-06-20T16:27:12Z</time>
      </trkpt>
      <trkpt lat="43.83345" lon="5.99126">
        <ele>573.5</ele>
        <time>2020-06-20T16:27:13Z</time>
      </trkpt>
      <trkpt lat="43.83359" lon="5.99128">
        <ele>572.7</ele>
        <time>2020-06-20T16:27:15Z</time>
      </trkpt>
      <trkpt lat="43.83366" lon="5.99124">
        <ele>572.3</ele>
        <time>2020-06-20T16:27:16Z</time>
      </trkpt>
      <trkpt lat="43.83378" lon="5.99114">
        <ele>571.6</ele>
        <time>2020-06-20T16:27:19Z</time>
      </trkpt>
      <trkpt lat="43.83383" lon="5.99108">
        <ele>571.4</ele>
        <time>2020-06-20T16:27:20Z</time>
      </trkpt>
      <trkpt lat="43.8339" lon="5.99105">
        <ele>571.6</ele>
        <time>2020-06-20T16:27:21Z</time>
      </trkpt>
      <trkpt lat="43.83396" lon="5.9911">
        <ele>574.6</ele>
        <time>2020-06-20T16:27:23Z</time>
      </trkpt>
      <trkpt lat="43.83398" lon="5.99117">
        <ele>575.7</ele>
        <time>2020-06-20T16:27:25Z</time>
      </trkpt>
      <trkpt lat="43.83398" lon="5.99121">
        <ele>576.2</ele>
        <time>2020-06-20T16:27:26Z</time>
      </trkpt>
      <trkpt lat="43.83398" lon="5.99124">
        <ele>576.7</ele>
        <time>2020-06-20T16:27:27Z</time>
      </trkpt>
      <trkpt lat="43.83398" lon="5.99126">
        <ele>576.6</ele>
        <time>2020-06-20T16:27:29Z</time>
      </trkpt>
      <trkpt lat="43.83398" lon="5.99128">
        <ele>576.5</ele>
        <time>2020-06-20T16:27:30Z</time>
      </trkpt>
      <trkpt lat="43.83399" lon="5.9913">
        <ele>576.4</ele>
        <time>2020-06-20T16:27:31Z</time>
      </trkpt>
      <trkpt lat="43.834" lon="5.9913">
        <ele>576.4</ele>
        <time>2020-06-20T16:27:33Z</time>
      </trkpt>
      <trkpt lat="43.83401" lon="5.9913">
        <ele>576.3</ele>
        <time>2020-06-20T16:27:34Z</time>
      </trkpt>
      <trkpt lat="43.83402" lon="5.99131">
        <ele>576.2</ele>
        <time>2020-06-20T16:27:36Z</time>
      </trkpt>
      <trkpt lat="43.83402" lon="5.99131">
        <ele>576.2</ele>
        <time>2020-06-20T16:27:37Z</time>
      </trkpt>
      <trkpt lat="43.83402" lon="5.99131">
        <ele>576.2</ele>
        <time>2020-06-20T16:27:38Z</time>
      </trkpt>
      <trkpt lat="43.83401" lon="5.99131">
        <ele>576.1</ele>
        <time>2020-06-20T16:27:40Z</time>
      </trkpt>
      <trkpt lat="43.83401" lon="5.9913">
        <ele>576.1</ele>
        <time>2020-06-20T16:27:42Z</time>
      </trkpt>
      <trkpt lat="43.83402" lon="5.9913">
        <ele>576.1</ele>
        <time>2020-06-20T16:27:43Z</time>
      </trkpt>
      <trkpt lat="43.83402" lon="5.9913">
        <ele>576</ele>
        <time>2020-06-20T16:27:45Z</time>
      </trkpt>
      <trkpt lat="43.83403" lon="5.9913">
        <ele>576</ele>
        <time>2020-06-20T16:27:47Z</time>
      </trkpt>
      <trkpt lat="43.83403" lon="5.9913">
        <ele>576</ele>
        <time>2020-06-20T16:27:49Z</time>
      </trkpt>
      <trkpt lat="43.83403" lon="5.9913">
        <ele>576</ele>
        <time>2020-06-20T16:27:50Z</time>
      </trkpt>
      <trkpt lat="43.83403" lon="5.99129">
        <ele>575.9</ele>
        <time>2020-06-20T16:27:52Z</time>
      </trkpt>
      <trkpt lat="43.83403" lon="5.9913">
        <ele>575.9</ele>
        <time>2020-06-20T16:27:55Z</time>
      </trkpt>
      <trkpt lat="43.83403" lon="5.9913">
        <ele>575.9</ele>
        <time>2020-06-20T16:27:57Z</time>
      </trkpt>
      <trkpt lat="43.834" lon="5.99133">
        <ele>575.6</ele>
        <time>2020-06-20T16:27:58Z</time>
      </trkpt>
      <trkpt lat="43.834" lon="5.99133">
        <ele>575.6</ele>
        <time>2020-06-20T16:27:59Z</time>
      </trkpt>
      <trkpt lat="43.834" lon="5.99133">
        <ele>575.6</ele>
        <time>2020-06-20T16:28:00Z</time>
      </trkpt>
      <trkpt lat="43.834" lon="5.99133">
        <ele>575.6</ele>
        <time>2020-06-20T16:28:02Z</time>
      </trkpt>
      <trkpt lat="43.834" lon="5.99133">
        <ele>575.6</ele>
        <time>2020-06-20T16:28:04Z</time>
      </trkpt>
      <trkpt lat="43.834" lon="5.99133">
        <ele>575.6</ele>
        <time>2020-06-20T16:28:05Z</time>
      </trkpt>
      <trkpt lat="43.834" lon="5.99133">
        <ele>575.6</ele>
        <time>2020-06-20T16:28:06Z</time>
      </trkpt>
      <trkpt lat="43.834" lon="5.99133">
        <ele>575.6</ele>
        <time>2020-06-20T16:28:08Z</time>
      </trkpt>
      <trkpt lat="43.83398" lon="5.99131">
        <ele>575.4</ele>
        <time>2020-06-20T16:28:26Z</time>
      </trkpt>
      <trkpt lat="43.83395" lon="5.99133">
        <ele>575.1</ele>
        <time>2020-06-20T16:28:27Z</time>
      </trkpt>
      <trkpt lat="43.83392" lon="5.99125">
        <ele>574.6</ele>
        <time>2020-06-20T16:28:28Z</time>
      </trkpt>
      <trkpt lat="43.83392" lon="5.99115">
        <ele>574</ele>
        <time>2020-06-20T16:28:29Z</time>
      </trkpt>
      <trkpt lat="43.83391" lon="5.99105">
        <ele>573.4</ele>
        <time>2020-06-20T16:28:30Z</time>
      </trkpt>
      <trkpt lat="43.8339" lon="5.99095">
        <ele>571.2</ele>
        <time>2020-06-20T16:28:32Z</time>
      </trkpt>
      <trkpt lat="43.83386" lon="5.99077">
        <ele>570.1</ele>
        <time>2020-06-20T16:28:33Z</time>
      </trkpt>
      <trkpt lat="43.83381" lon="5.99062">
        <ele>569</ele>
        <time>2020-06-20T16:28:35Z</time>
      </trkpt>
      <trkpt lat="43.83377" lon="5.99046">
        <ele>568.1</ele>
        <time>2020-06-20T16:28:37Z</time>
      </trkpt>
      <trkpt lat="43.83371" lon="5.99031">
        <ele>567.4</ele>
        <time>2020-06-20T16:28:40Z</time>
      </trkpt>
      <trkpt lat="43.83366" lon="5.99016">
        <ele>566.7</ele>
        <time>2020-06-20T16:28:41Z</time>
      </trkpt>
      <trkpt lat="43.83365" lon="5.99007">
        <ele>566.3</ele>
        <time>2020-06-20T16:28:43Z</time>
      </trkpt>
      <trkpt lat="43.83365" lon="5.98989">
        <ele>565.6</ele>
        <time>2020-06-20T16:28:44Z</time>
      </trkpt>
      <trkpt lat="43.83372" lon="5.98972">
        <ele>564.8</ele>
        <time>2020-06-20T16:28:46Z</time>
      </trkpt>
      <trkpt lat="43.83386" lon="5.98953">
        <ele>563.6</ele>
        <time>2020-06-20T16:28:49Z</time>
      </trkpt>
      <trkpt lat="43.83395" lon="5.98939">
        <ele>562.8</ele>
        <time>2020-06-20T16:28:51Z</time>
      </trkpt>
      <trkpt lat="43.834" lon="5.98931">
        <ele>562.4</ele>
        <time>2020-06-20T16:28:52Z</time>
      </trkpt>
      <trkpt lat="43.83405" lon="5.98923">
        <ele>562</ele>
        <time>2020-06-20T16:28:53Z</time>
      </trkpt>
      <trkpt lat="43.83409" lon="5.98916">
        <ele>561.6</ele>
        <time>2020-06-20T16:28:54Z</time>
      </trkpt>
      <trkpt lat="43.83418" lon="5.989">
        <ele>560.9</ele>
        <time>2020-06-20T16:28:57Z</time>
      </trkpt>
      <trkpt lat="43.83426" lon="5.98885">
        <ele>560.1</ele>
        <time>2020-06-20T16:28:59Z</time>
      </trkpt>
      <trkpt lat="43.83433" lon="5.98868">
        <ele>559.4</ele>
        <time>2020-06-20T16:29:00Z</time>
      </trkpt>
      <trkpt lat="43.83437" lon="5.9886">
        <ele>559</ele>
        <time>2020-06-20T16:29:01Z</time>
      </trkpt>
      <trkpt lat="43.83446" lon="5.98848">
        <ele>558.3</ele>
        <time>2020-06-20T16:29:03Z</time>
      </trkpt>
      <trkpt lat="43.83457" lon="5.9884">
        <ele>557.5</ele>
        <time>2020-06-20T16:29:05Z</time>
      </trkpt>
      <trkpt lat="43.8347" lon="5.98837">
        <ele>556.6</ele>
        <time>2020-06-20T16:29:07Z</time>
      </trkpt>
      <trkpt lat="43.83485" lon="5.98842">
        <ele>555.6</ele>
        <time>2020-06-20T16:29:09Z</time>
      </trkpt>
      <trkpt lat="43.83491" lon="5.98847">
        <ele>555</ele>
        <time>2020-06-20T16:29:10Z</time>
      </trkpt>
      <trkpt lat="43.83497" lon="5.98853">
        <ele>554.5</ele>
        <time>2020-06-20T16:29:11Z</time>
      </trkpt>
      <trkpt lat="43.8351" lon="5.98864">
        <ele>553.6</ele>
        <time>2020-06-20T16:29:13Z</time>
      </trkpt>
      <trkpt lat="43.83517" lon="5.9887">
        <ele>553.1</ele>
        <time>2020-06-20T16:29:14Z</time>
      </trkpt>
      <trkpt lat="43.83523" lon="5.98876">
        <ele>552.6</ele>
        <time>2020-06-20T16:29:15Z</time>
      </trkpt>
      <trkpt lat="43.8353" lon="5.98883">
        <ele>552</ele>
        <time>2020-06-20T16:29:16Z</time>
      </trkpt>
      <trkpt lat="43.83537" lon="5.98891">
        <ele>551.5</ele>
        <time>2020-06-20T16:29:18Z</time>
      </trkpt>
      <trkpt lat="43.83548" lon="5.9891">
        <ele>550.5</ele>
        <time>2020-06-20T16:29:19Z</time>
      </trkpt>
      <trkpt lat="43.83554" lon="5.98919">
        <ele>549.9</ele>
        <time>2020-06-20T16:29:20Z</time>
      </trkpt>
      <trkpt lat="43.83561" lon="5.98927">
        <ele>549.5</ele>
        <time>2020-06-20T16:29:21Z</time>
      </trkpt>
      <trkpt lat="43.83577" lon="5.98937">
        <ele>548.5</ele>
        <time>2020-06-20T16:29:23Z</time>
      </trkpt>
      <trkpt lat="43.83594" lon="5.98943">
        <ele>547.5</ele>
        <time>2020-06-20T16:29:25Z</time>
      </trkpt>
      <trkpt lat="43.83602" lon="5.98947">
        <ele>547</ele>
        <time>2020-06-20T16:29:26Z</time>
      </trkpt>
      <trkpt lat="43.83611" lon="5.98952">
        <ele>546.6</ele>
        <time>2020-06-20T16:29:27Z</time>
      </trkpt>
      <trkpt lat="43.83619" lon="5.98958">
        <ele>546.5</ele>
        <time>2020-06-20T16:29:28Z</time>
      </trkpt>
      <trkpt lat="43.83632" lon="5.98974">
        <ele>546.4</ele>
        <time>2020-06-20T16:29:31Z</time>
      </trkpt>
      <trkpt lat="43.83647" lon="5.98997">
        <ele>546</ele>
        <time>2020-06-20T16:29:33Z</time>
      </trkpt>
      <trkpt lat="43.83652" lon="5.99003">
        <ele>545.9</ele>
        <time>2020-06-20T16:29:34Z</time>
      </trkpt>
      <trkpt lat="43.83661" lon="5.99016">
        <ele>545.7</ele>
        <time>2020-06-20T16:29:37Z</time>
      </trkpt>
      <trkpt lat="43.83671" lon="5.99026">
        <ele>545.5</ele>
        <time>2020-06-20T16:29:38Z</time>
      </trkpt>
      <trkpt lat="43.83676" lon="5.9903">
        <ele>545.3</ele>
        <time>2020-06-20T16:29:39Z</time>
      </trkpt>
      <trkpt lat="43.83688" lon="5.9904">
        <ele>545</ele>
        <time>2020-06-20T16:29:41Z</time>
      </trkpt>
      <trkpt lat="43.83698" lon="5.99051">
        <ele>544.9</ele>
        <time>2020-06-20T16:29:43Z</time>
      </trkpt>
      <trkpt lat="43.83703" lon="5.99055">
        <ele>544.9</ele>
        <time>2020-06-20T16:29:44Z</time>
      </trkpt>
      <trkpt lat="43.83712" lon="5.99062">
        <ele>544.8</ele>
        <time>2020-06-20T16:29:46Z</time>
      </trkpt>
      <trkpt lat="43.83716" lon="5.99066">
        <ele>544.8</ele>
        <time>2020-06-20T16:29:47Z</time>
      </trkpt>
      <trkpt lat="43.8372" lon="5.9907">
        <ele>544.8</ele>
        <time>2020-06-20T16:29:48Z</time>
      </trkpt>
      <trkpt lat="43.8373" lon="5.9908">
        <ele>544.6</ele>
        <time>2020-06-20T16:29:50Z</time>
      </trkpt>
      <trkpt lat="43.83742" lon="5.99091">
        <ele>544.6</ele>
        <time>2020-06-20T16:29:52Z</time>
      </trkpt>
      <trkpt lat="43.83753" lon="5.99103">
        <ele>544.7</ele>
        <time>2020-06-20T16:29:54Z</time>
      </trkpt>
      <trkpt lat="43.83758" lon="5.99108">
        <ele>544.7</ele>
        <time>2020-06-20T16:29:56Z</time>
      </trkpt>
      <trkpt lat="43.83768" lon="5.99116">
        <ele>544.8</ele>
        <time>2020-06-20T16:29:57Z</time>
      </trkpt>
      <trkpt lat="43.83773" lon="5.9912">
        <ele>544.8</ele>
        <time>2020-06-20T16:29:58Z</time>
      </trkpt>
      <trkpt lat="43.83786" lon="5.99124">
        <ele>544.9</ele>
        <time>2020-06-20T16:30:00Z</time>
      </trkpt>
      <trkpt lat="43.83792" lon="5.99123">
        <ele>544.9</ele>
        <time>2020-06-20T16:30:01Z</time>
      </trkpt>
      <trkpt lat="43.83798" lon="5.99121">
        <ele>544.5</ele>
        <time>2020-06-20T16:30:02Z</time>
      </trkpt>
      <trkpt lat="43.83804" lon="5.99118">
        <ele>543.7</ele>
        <time>2020-06-20T16:30:03Z</time>
      </trkpt>
      <trkpt lat="43.8381" lon="5.99115">
        <ele>543.6</ele>
        <time>2020-06-20T16:30:04Z</time>
      </trkpt>
      <trkpt lat="43.83819" lon="5.9911">
        <ele>543.5</ele>
        <time>2020-06-20T16:30:07Z</time>
      </trkpt>
      <trkpt lat="43.83825" lon="5.99105">
        <ele>543.4</ele>
        <time>2020-06-20T16:30:08Z</time>
      </trkpt>
      <trkpt lat="43.83827" lon="5.99103">
        <ele>543.4</ele>
        <time>2020-06-20T16:30:09Z</time>
      </trkpt>
      <trkpt lat="43.83832" lon="5.99096">
        <ele>543.3</ele>
        <time>2020-06-20T16:30:11Z</time>
      </trkpt>
      <trkpt lat="43.83835" lon="5.99091">
        <ele>543.3</ele>
        <time>2020-06-20T16:30:12Z</time>
      </trkpt>
      <trkpt lat="43.83844" lon="5.99079">
        <ele>543.3</ele>
        <time>2020-06-20T16:30:14Z</time>
      </trkpt>
      <trkpt lat="43.83845" lon="5.99073">
        <ele>543.3</ele>
        <time>2020-06-20T16:30:15Z</time>
      </trkpt>
      <trkpt lat="43.83845" lon="5.99071">
        <ele>543.4</ele>
        <time>2020-06-20T16:30:17Z</time>
      </trkpt>
      <trkpt lat="43.83846" lon="5.9907">
        <ele>543.4</ele>
        <time>2020-06-20T16:30:18Z</time>
      </trkpt>
      <trkpt lat="43.83848" lon="5.99068">
        <ele>543.4</ele>
        <time>2020-06-20T16:30:19Z</time>
      </trkpt>
      <trkpt lat="43.8385" lon="5.99066">
        <ele>543.4</ele>
        <time>2020-06-20T16:30:21Z</time>
      </trkpt>
      <trkpt lat="43.83853" lon="5.99062">
        <ele>543.5</ele>
        <time>2020-06-20T16:30:22Z</time>
      </trkpt>
      <trkpt lat="43.83855" lon="5.99059">
        <ele>543.5</ele>
        <time>2020-06-20T16:30:23Z</time>
      </trkpt>
      <trkpt lat="43.83857" lon="5.99056">
        <ele>543.6</ele>
        <time>2020-06-20T16:30:24Z</time>
      </trkpt>
      <trkpt lat="43.83859" lon="5.99052">
        <ele>543.6</ele>
        <time>2020-06-20T16:30:26Z</time>
      </trkpt>
      <trkpt lat="43.83861" lon="5.99047">
        <ele>543.7</ele>
        <time>2020-06-20T16:30:27Z</time>
      </trkpt>
      <trkpt lat="43.83862" lon="5.99042">
        <ele>543.8</ele>
        <time>2020-06-20T16:30:28Z</time>
      </trkpt>
      <trkpt lat="43.83864" lon="5.99035">
        <ele>544</ele>
        <time>2020-06-20T16:30:30Z</time>
      </trkpt>
      <trkpt lat="43.83866" lon="5.99028">
        <ele>544.1</ele>
        <time>2020-06-20T16:30:32Z</time>
      </trkpt>
      <trkpt lat="43.83867" lon="5.99019">
        <ele>544.3</ele>
        <time>2020-06-20T16:30:33Z</time>
      </trkpt>
      <trkpt lat="43.83868" lon="5.99014">
        <ele>544.4</ele>
        <time>2020-06-20T16:30:34Z</time>
      </trkpt>
      <trkpt lat="43.83868" lon="5.99002">
        <ele>544.9</ele>
        <time>2020-06-20T16:30:36Z</time>
      </trkpt>
      <trkpt lat="43.83869" lon="5.98994">
        <ele>545.4</ele>
        <time>2020-06-20T16:30:38Z</time>
      </trkpt>
      <trkpt lat="43.8387" lon="5.98986">
        <ele>545.9</ele>
        <time>2020-06-20T16:30:39Z</time>
      </trkpt>
      <trkpt lat="43.8387" lon="5.98978">
        <ele>546.3</ele>
        <time>2020-06-20T16:30:41Z</time>
      </trkpt>
      <trkpt lat="43.83871" lon="5.98973">
        <ele>546.7</ele>
        <time>2020-06-20T16:30:42Z</time>
      </trkpt>
      <trkpt lat="43.83871" lon="5.98967">
        <ele>547.4</ele>
        <time>2020-06-20T16:30:44Z</time>
      </trkpt>
      <trkpt lat="43.83871" lon="5.98961">
        <ele>547.6</ele>
        <time>2020-06-20T16:30:45Z</time>
      </trkpt>
      <trkpt lat="43.83871" lon="5.98951">
        <ele>548.2</ele>
        <time>2020-06-20T16:30:46Z</time>
      </trkpt>
      <trkpt lat="43.83871" lon="5.98937">
        <ele>548.6</ele>
        <time>2020-06-20T16:30:48Z</time>
      </trkpt>
      <trkpt lat="43.8387" lon="5.9893">
        <ele>548.9</ele>
        <time>2020-06-20T16:30:49Z</time>
      </trkpt>
      <trkpt lat="43.83869" lon="5.9892">
        <ele>549.3</ele>
        <time>2020-06-20T16:30:50Z</time>
      </trkpt>
      <trkpt lat="43.83867" lon="5.9891">
        <ele>549.7</ele>
        <time>2020-06-20T16:30:52Z</time>
      </trkpt>
      <trkpt lat="43.83866" lon="5.98905">
        <ele>549.8</ele>
        <time>2020-06-20T16:30:53Z</time>
      </trkpt>
      <trkpt lat="43.83866" lon="5.989">
        <ele>550</ele>
        <time>2020-06-20T16:30:54Z</time>
      </trkpt>
      <trkpt lat="43.83864" lon="5.98896">
        <ele>550.2</ele>
        <time>2020-06-20T16:30:55Z</time>
      </trkpt>
      <trkpt lat="43.83863" lon="5.98889">
        <ele>550.5</ele>
        <time>2020-06-20T16:30:57Z</time>
      </trkpt>
      <trkpt lat="43.83862" lon="5.98885">
        <ele>550.6</ele>
        <time>2020-06-20T16:30:58Z</time>
      </trkpt>
      <trkpt lat="43.83861" lon="5.98882">
        <ele>550.8</ele>
        <time>2020-06-20T16:31:00Z</time>
      </trkpt>
      <trkpt lat="43.8386" lon="5.98877">
        <ele>550.9</ele>
        <time>2020-06-20T16:31:01Z</time>
      </trkpt>
      <trkpt lat="43.8386" lon="5.98873">
        <ele>551.1</ele>
        <time>2020-06-20T16:31:02Z</time>
      </trkpt>
      <trkpt lat="43.83859" lon="5.9887">
        <ele>551.2</ele>
        <time>2020-06-20T16:31:03Z</time>
      </trkpt>
      <trkpt lat="43.83858" lon="5.98865">
        <ele>551.4</ele>
        <time>2020-06-20T16:31:05Z</time>
      </trkpt>
      <trkpt lat="43.83857" lon="5.98862">
        <ele>551.9</ele>
        <time>2020-06-20T16:31:06Z</time>
      </trkpt>
      <trkpt lat="43.83856" lon="5.98857">
        <ele>552.1</ele>
        <time>2020-06-20T16:31:08Z</time>
      </trkpt>
      <trkpt lat="43.83853" lon="5.98852">
        <ele>552.4</ele>
        <time>2020-06-20T16:31:09Z</time>
      </trkpt>
      <trkpt lat="43.83852" lon="5.98848">
        <ele>552.6</ele>
        <time>2020-06-20T16:31:10Z</time>
      </trkpt>
      <trkpt lat="43.8385" lon="5.9884">
        <ele>552.9</ele>
        <time>2020-06-20T16:31:12Z</time>
      </trkpt>
      <trkpt lat="43.83849" lon="5.98836">
        <ele>553.1</ele>
        <time>2020-06-20T16:31:13Z</time>
      </trkpt>
      <trkpt lat="43.83848" lon="5.98828">
        <ele>553.4</ele>
        <time>2020-06-20T16:31:15Z</time>
      </trkpt>
      <trkpt lat="43.83846" lon="5.98824">
        <ele>553.6</ele>
        <time>2020-06-20T16:31:16Z</time>
      </trkpt>
      <trkpt lat="43.83843" lon="5.98818">
        <ele>553.9</ele>
        <time>2020-06-20T16:31:18Z</time>
      </trkpt>
      <trkpt lat="43.83841" lon="5.98814">
        <ele>554.1</ele>
        <time>2020-06-20T16:31:19Z</time>
      </trkpt>
      <trkpt lat="43.83839" lon="5.98807">
        <ele>554.3</ele>
        <time>2020-06-20T16:31:21Z</time>
      </trkpt>
      <trkpt lat="43.83837" lon="5.98801">
        <ele>554.6</ele>
        <time>2020-06-20T16:31:23Z</time>
      </trkpt>
      <trkpt lat="43.83836" lon="5.98799">
        <ele>554.6</ele>
        <time>2020-06-20T16:31:24Z</time>
      </trkpt>
      <trkpt lat="43.83836" lon="5.98797">
        <ele>554.7</ele>
        <time>2020-06-20T16:31:25Z</time>
      </trkpt>
      <trkpt lat="43.83834" lon="5.98793">
        <ele>554.9</ele>
        <time>2020-06-20T16:31:26Z</time>
      </trkpt>
      <trkpt lat="43.83832" lon="5.98789">
        <ele>555</ele>
        <time>2020-06-20T16:31:28Z</time>
      </trkpt>
      <trkpt lat="43.83831" lon="5.98785">
        <ele>555.2</ele>
        <time>2020-06-20T16:31:29Z</time>
      </trkpt>
      <trkpt lat="43.8383" lon="5.98781">
        <ele>555.5</ele>
        <time>2020-06-20T16:31:30Z</time>
      </trkpt>
      <trkpt lat="43.83828" lon="5.98777">
        <ele>555.6</ele>
        <time>2020-06-20T16:31:31Z</time>
      </trkpt>
      <trkpt lat="43.83826" lon="5.98771">
        <ele>555.8</ele>
        <time>2020-06-20T16:31:33Z</time>
      </trkpt>
      <trkpt lat="43.83825" lon="5.98767">
        <ele>555.9</ele>
        <time>2020-06-20T16:31:34Z</time>
      </trkpt>
      <trkpt lat="43.83825" lon="5.98763">
        <ele>556</ele>
        <time>2020-06-20T16:31:36Z</time>
      </trkpt>
      <trkpt lat="43.83825" lon="5.98762">
        <ele>556</ele>
        <time>2020-06-20T16:31:37Z</time>
      </trkpt>
      <trkpt lat="43.83826" lon="5.98757">
        <ele>556.2</ele>
        <time>2020-06-20T16:31:38Z</time>
      </trkpt>
      <trkpt lat="43.83826" lon="5.98755">
        <ele>556.2</ele>
        <time>2020-06-20T16:31:39Z</time>
      </trkpt>
      <trkpt lat="43.83826" lon="5.98751">
        <ele>556.5</ele>
        <time>2020-06-20T16:31:40Z</time>
      </trkpt>
      <trkpt lat="43.83826" lon="5.98745">
        <ele>556.8</ele>
        <time>2020-06-20T16:31:42Z</time>
      </trkpt>
      <trkpt lat="43.83825" lon="5.98741">
        <ele>556.9</ele>
        <time>2020-06-20T16:31:43Z</time>
      </trkpt>
      <trkpt lat="43.83824" lon="5.98738">
        <ele>557</ele>
        <time>2020-06-20T16:31:44Z</time>
      </trkpt>
      <trkpt lat="43.83822" lon="5.98734">
        <ele>557.1</ele>
        <time>2020-06-20T16:31:46Z</time>
      </trkpt>
      <trkpt lat="43.83819" lon="5.98729">
        <ele>557.3</ele>
        <time>2020-06-20T16:31:48Z</time>
      </trkpt>
      <trkpt lat="43.83817" lon="5.98727">
        <ele>557.4</ele>
        <time>2020-06-20T16:31:49Z</time>
      </trkpt>
      <trkpt lat="43.83815" lon="5.98722">
        <ele>557.5</ele>
        <time>2020-06-20T16:31:51Z</time>
      </trkpt>
      <trkpt lat="43.83813" lon="5.98718">
        <ele>557.6</ele>
        <time>2020-06-20T16:31:52Z</time>
      </trkpt>
      <trkpt lat="43.83812" lon="5.98715">
        <ele>557.7</ele>
        <time>2020-06-20T16:31:54Z</time>
      </trkpt>
      <trkpt lat="43.8381" lon="5.98711">
        <ele>557.8</ele>
        <time>2020-06-20T16:31:55Z</time>
      </trkpt>
      <trkpt lat="43.83809" lon="5.98707">
        <ele>557.9</ele>
        <time>2020-06-20T16:31:57Z</time>
      </trkpt>
      <trkpt lat="43.83808" lon="5.98703">
        <ele>558</ele>
        <time>2020-06-20T16:31:58Z</time>
      </trkpt>
      <trkpt lat="43.83806" lon="5.98698">
        <ele>558.2</ele>
        <time>2020-06-20T16:32:00Z</time>
      </trkpt>
      <trkpt lat="43.83803" lon="5.98693">
        <ele>558.4</ele>
        <time>2020-06-20T16:32:01Z</time>
      </trkpt>
      <trkpt lat="43.83802" lon="5.98691">
        <ele>558.4</ele>
        <time>2020-06-20T16:32:02Z</time>
      </trkpt>
      <trkpt lat="43.838" lon="5.98687">
        <ele>558.6</ele>
        <time>2020-06-20T16:32:04Z</time>
      </trkpt>
      <trkpt lat="43.83798" lon="5.98682">
        <ele>558.8</ele>
        <time>2020-06-20T16:32:05Z</time>
      </trkpt>
      <trkpt lat="43.83796" lon="5.98679">
        <ele>558.9</ele>
        <time>2020-06-20T16:32:06Z</time>
      </trkpt>
      <trkpt lat="43.83794" lon="5.98676">
        <ele>559</ele>
        <time>2020-06-20T16:32:08Z</time>
      </trkpt>
      <trkpt lat="43.83793" lon="5.98673">
        <ele>559.2</ele>
        <time>2020-06-20T16:32:09Z</time>
      </trkpt>
      <trkpt lat="43.8379" lon="5.98669">
        <ele>559.4</ele>
        <time>2020-06-20T16:32:10Z</time>
      </trkpt>
      <trkpt lat="43.83789" lon="5.98668">
        <ele>559.4</ele>
        <time>2020-06-20T16:32:11Z</time>
      </trkpt>
      <trkpt lat="43.83787" lon="5.98665">
        <ele>559.6</ele>
        <time>2020-06-20T16:32:12Z</time>
      </trkpt>
      <trkpt lat="43.83785" lon="5.9866">
        <ele>559.8</ele>
        <time>2020-06-20T16:32:14Z</time>
      </trkpt>
      <trkpt lat="43.83783" lon="5.98657">
        <ele>560</ele>
        <time>2020-06-20T16:32:15Z</time>
      </trkpt>
      <trkpt lat="43.83782" lon="5.98655">
        <ele>560</ele>
        <time>2020-06-20T16:32:16Z</time>
      </trkpt>
      <trkpt lat="43.8378" lon="5.98652">
        <ele>560.2</ele>
        <time>2020-06-20T16:32:17Z</time>
      </trkpt>
      <trkpt lat="43.83778" lon="5.98648">
        <ele>560.4</ele>
        <time>2020-06-20T16:32:19Z</time>
      </trkpt>
      <trkpt lat="43.83775" lon="5.98644">
        <ele>560.6</ele>
        <time>2020-06-20T16:32:20Z</time>
      </trkpt>
      <trkpt lat="43.83772" lon="5.98641">
        <ele>560.9</ele>
        <time>2020-06-20T16:32:22Z</time>
      </trkpt>
      <trkpt lat="43.83771" lon="5.98639">
        <ele>561</ele>
        <time>2020-06-20T16:32:23Z</time>
      </trkpt>
      <trkpt lat="43.83769" lon="5.98635">
        <ele>561.2</ele>
        <time>2020-06-20T16:32:25Z</time>
      </trkpt>
      <trkpt lat="43.83769" lon="5.9863">
        <ele>561.4</ele>
        <time>2020-06-20T16:32:26Z</time>
      </trkpt>
      <trkpt lat="43.83768" lon="5.98626">
        <ele>561.6</ele>
        <time>2020-06-20T16:32:27Z</time>
      </trkpt>
      <trkpt lat="43.83767" lon="5.98625">
        <ele>561.7</ele>
        <time>2020-06-20T16:32:28Z</time>
      </trkpt>
      <trkpt lat="43.83767" lon="5.98623">
        <ele>561.8</ele>
        <time>2020-06-20T16:32:29Z</time>
      </trkpt>
      <trkpt lat="43.83766" lon="5.98616">
        <ele>562.1</ele>
        <time>2020-06-20T16:32:31Z</time>
      </trkpt>
      <trkpt lat="43.83767" lon="5.98612">
        <ele>562.3</ele>
        <time>2020-06-20T16:32:33Z</time>
      </trkpt>
      <trkpt lat="43.83768" lon="5.98608">
        <ele>562.6</ele>
        <time>2020-06-20T16:32:34Z</time>
      </trkpt>
      <trkpt lat="43.83769" lon="5.98603">
        <ele>563</ele>
        <time>2020-06-20T16:32:36Z</time>
      </trkpt>
      <trkpt lat="43.83772" lon="5.98598">
        <ele>563.3</ele>
        <time>2020-06-20T16:32:38Z</time>
      </trkpt>
      <trkpt lat="43.83773" lon="5.98594">
        <ele>563.5</ele>
        <time>2020-06-20T16:32:39Z</time>
      </trkpt>
      <trkpt lat="43.83774" lon="5.98592">
        <ele>563.6</ele>
        <time>2020-06-20T16:32:40Z</time>
      </trkpt>
      <trkpt lat="43.83775" lon="5.98589">
        <ele>563.8</ele>
        <time>2020-06-20T16:32:42Z</time>
      </trkpt>
      <trkpt lat="43.83777" lon="5.98585">
        <ele>564</ele>
        <time>2020-06-20T16:32:43Z</time>
      </trkpt>
      <trkpt lat="43.83779" lon="5.98579">
        <ele>564.3</ele>
        <time>2020-06-20T16:32:45Z</time>
      </trkpt>
      <trkpt lat="43.8378" lon="5.98577">
        <ele>564.7</ele>
        <time>2020-06-20T16:32:46Z</time>
      </trkpt>
      <trkpt lat="43.8378" lon="5.98575">
        <ele>564.8</ele>
        <time>2020-06-20T16:32:47Z</time>
      </trkpt>
      <trkpt lat="43.83783" lon="5.98571">
        <ele>565.1</ele>
        <time>2020-06-20T16:32:49Z</time>
      </trkpt>
      <trkpt lat="43.83785" lon="5.98568">
        <ele>565.4</ele>
        <time>2020-06-20T16:32:51Z</time>
      </trkpt>
      <trkpt lat="43.83788" lon="5.98564">
        <ele>565.7</ele>
        <time>2020-06-20T16:32:53Z</time>
      </trkpt>
      <trkpt lat="43.8379" lon="5.9856">
        <ele>566</ele>
        <time>2020-06-20T16:32:54Z</time>
      </trkpt>
      <trkpt lat="43.83795" lon="5.98553">
        <ele>566.5</ele>
        <time>2020-06-20T16:32:56Z</time>
      </trkpt>
      <trkpt lat="43.83799" lon="5.98549">
        <ele>566.8</ele>
        <time>2020-06-20T16:32:58Z</time>
      </trkpt>
      <trkpt lat="43.83802" lon="5.98546">
        <ele>567</ele>
        <time>2020-06-20T16:33:00Z</time>
      </trkpt>
      <trkpt lat="43.83804" lon="5.98543">
        <ele>567.1</ele>
        <time>2020-06-20T16:33:01Z</time>
      </trkpt>
      <trkpt lat="43.83806" lon="5.98539">
        <ele>567.2</ele>
        <time>2020-06-20T16:33:02Z</time>
      </trkpt>
      <trkpt lat="43.83809" lon="5.98536">
        <ele>567.3</ele>
        <time>2020-06-20T16:33:03Z</time>
      </trkpt>
      <trkpt lat="43.8381" lon="5.98535">
        <ele>567.4</ele>
        <time>2020-06-20T16:33:04Z</time>
      </trkpt>
      <trkpt lat="43.83811" lon="5.98533">
        <ele>567.4</ele>
        <time>2020-06-20T16:33:06Z</time>
      </trkpt>
      <trkpt lat="43.83813" lon="5.9853">
        <ele>567.5</ele>
        <time>2020-06-20T16:33:08Z</time>
      </trkpt>
      <trkpt lat="43.83814" lon="5.98529">
        <ele>567.5</ele>
        <time>2020-06-20T16:33:09Z</time>
      </trkpt>
      <trkpt lat="43.83816" lon="5.98526">
        <ele>567.6</ele>
        <time>2020-06-20T16:33:11Z</time>
      </trkpt>
      <trkpt lat="43.83818" lon="5.98524">
        <ele>567.7</ele>
        <time>2020-06-20T16:33:12Z</time>
      </trkpt>
      <trkpt lat="43.83822" lon="5.98522">
        <ele>567.7</ele>
        <time>2020-06-20T16:33:14Z</time>
      </trkpt>
      <trkpt lat="43.83825" lon="5.9852">
        <ele>567.8</ele>
        <time>2020-06-20T16:33:15Z</time>
      </trkpt>
      <trkpt lat="43.83828" lon="5.98518">
        <ele>567.8</ele>
        <time>2020-06-20T16:33:16Z</time>
      </trkpt>
      <trkpt lat="43.8383" lon="5.98517">
        <ele>567.8</ele>
        <time>2020-06-20T16:33:17Z</time>
      </trkpt>
      <trkpt lat="43.83833" lon="5.98516">
        <ele>567.9</ele>
        <time>2020-06-20T16:33:19Z</time>
      </trkpt>
      <trkpt lat="43.83835" lon="5.98514">
        <ele>567.9</ele>
        <time>2020-06-20T16:33:20Z</time>
      </trkpt>
      <trkpt lat="43.83838" lon="5.98511">
        <ele>568</ele>
        <time>2020-06-20T16:33:21Z</time>
      </trkpt>
      <trkpt lat="43.8384" lon="5.98509">
        <ele>568.1</ele>
        <time>2020-06-20T16:33:22Z</time>
      </trkpt>
      <trkpt lat="43.83844" lon="5.98507">
        <ele>568</ele>
        <time>2020-06-20T16:33:23Z</time>
      </trkpt>
      <trkpt lat="43.83848" lon="5.98507">
        <ele>567.6</ele>
        <time>2020-06-20T16:33:24Z</time>
      </trkpt>
      <trkpt lat="43.83855" lon="5.98507">
        <ele>568.5</ele>
        <time>2020-06-20T16:33:26Z</time>
      </trkpt>
      <trkpt lat="43.83861" lon="5.98506">
        <ele>569.4</ele>
        <time>2020-06-20T16:33:28Z</time>
      </trkpt>
      <trkpt lat="43.83866" lon="5.98506">
        <ele>570.1</ele>
        <time>2020-06-20T16:33:29Z</time>
      </trkpt>
      <trkpt lat="43.83869" lon="5.98506">
        <ele>570.4</ele>
        <time>2020-06-20T16:33:30Z</time>
      </trkpt>
      <trkpt lat="43.83872" lon="5.98505">
        <ele>570.9</ele>
        <time>2020-06-20T16:33:32Z</time>
      </trkpt>
      <trkpt lat="43.83875" lon="5.98505">
        <ele>571.3</ele>
        <time>2020-06-20T16:33:33Z</time>
      </trkpt>
      <trkpt lat="43.83878" lon="5.98504">
        <ele>571.7</ele>
        <time>2020-06-20T16:33:34Z</time>
      </trkpt>
      <trkpt lat="43.83881" lon="5.98503">
        <ele>572</ele>
        <time>2020-06-20T16:33:35Z</time>
      </trkpt>
      <trkpt lat="43.83885" lon="5.98503">
        <ele>572.6</ele>
        <time>2020-06-20T16:33:37Z</time>
      </trkpt>
      <trkpt lat="43.83888" lon="5.985">
        <ele>573</ele>
        <time>2020-06-20T16:33:38Z</time>
      </trkpt>
      <trkpt lat="43.8389" lon="5.98493">
        <ele>573.8</ele>
        <time>2020-06-20T16:33:40Z</time>
      </trkpt>
      <trkpt lat="43.8389" lon="5.98489">
        <ele>576.7</ele>
        <time>2020-06-20T16:33:41Z</time>
      </trkpt>
      <trkpt lat="43.8389" lon="5.98484">
        <ele>576.9</ele>
        <time>2020-06-20T16:33:42Z</time>
      </trkpt>
      <trkpt lat="43.8389" lon="5.98482">
        <ele>577</ele>
        <time>2020-06-20T16:33:43Z</time>
      </trkpt>
      <trkpt lat="43.83891" lon="5.98479">
        <ele>577.2</ele>
        <time>2020-06-20T16:33:45Z</time>
      </trkpt>
      <trkpt lat="43.83892" lon="5.98474">
        <ele>577.5</ele>
        <time>2020-06-20T16:33:47Z</time>
      </trkpt>
      <trkpt lat="43.83893" lon="5.98471">
        <ele>577.7</ele>
        <time>2020-06-20T16:33:48Z</time>
      </trkpt>
      <trkpt lat="43.83895" lon="5.9847">
        <ele>577.8</ele>
        <time>2020-06-20T16:33:49Z</time>
      </trkpt>
      <trkpt lat="43.83896" lon="5.98468">
        <ele>577.9</ele>
        <time>2020-06-20T16:33:50Z</time>
      </trkpt>
      <trkpt lat="43.83897" lon="5.98464">
        <ele>578.1</ele>
        <time>2020-06-20T16:33:52Z</time>
      </trkpt>
      <trkpt lat="43.83898" lon="5.98463">
        <ele>578.2</ele>
        <time>2020-06-20T16:33:53Z</time>
      </trkpt>
      <trkpt lat="43.83899" lon="5.98459">
        <ele>578.3</ele>
        <time>2020-06-20T16:33:54Z</time>
      </trkpt>
      <trkpt lat="43.839" lon="5.98458">
        <ele>578.4</ele>
        <time>2020-06-20T16:33:56Z</time>
      </trkpt>
      <trkpt lat="43.839" lon="5.98456">
        <ele>578.5</ele>
        <time>2020-06-20T16:33:57Z</time>
      </trkpt>
      <trkpt lat="43.83901" lon="5.98454">
        <ele>578.6</ele>
        <time>2020-06-20T16:33:58Z</time>
      </trkpt>
      <trkpt lat="43.83903" lon="5.98449">
        <ele>578.8</ele>
        <time>2020-06-20T16:33:59Z</time>
      </trkpt>
      <trkpt lat="43.83904" lon="5.98446">
        <ele>578.9</ele>
        <time>2020-06-20T16:34:00Z</time>
      </trkpt>
      <trkpt lat="43.83905" lon="5.98443">
        <ele>579</ele>
        <time>2020-06-20T16:34:01Z</time>
      </trkpt>
      <trkpt lat="43.83906" lon="5.98438">
        <ele>579.2</ele>
        <time>2020-06-20T16:34:03Z</time>
      </trkpt>
      <trkpt lat="43.83907" lon="5.98434">
        <ele>579.3</ele>
        <time>2020-06-20T16:34:04Z</time>
      </trkpt>
      <trkpt lat="43.83909" lon="5.98429">
        <ele>579.5</ele>
        <time>2020-06-20T16:34:06Z</time>
      </trkpt>
      <trkpt lat="43.83911" lon="5.98426">
        <ele>579.6</ele>
        <time>2020-06-20T16:34:07Z</time>
      </trkpt>
      <trkpt lat="43.83912" lon="5.98424">
        <ele>579.7</ele>
        <time>2020-06-20T16:34:08Z</time>
      </trkpt>
      <trkpt lat="43.83913" lon="5.98423">
        <ele>579.8</ele>
        <time>2020-06-20T16:34:10Z</time>
      </trkpt>
      <trkpt lat="43.83914" lon="5.98422">
        <ele>579.8</ele>
        <time>2020-06-20T16:34:12Z</time>
      </trkpt>
      <trkpt lat="43.83916" lon="5.98421">
        <ele>579.9</ele>
        <time>2020-06-20T16:34:13Z</time>
      </trkpt>
      <trkpt lat="43.83917" lon="5.98419">
        <ele>579</ele>
        <time>2020-06-20T16:34:15Z</time>
      </trkpt>
      <trkpt lat="43.83917" lon="5.98417">
        <ele>578.8</ele>
        <time>2020-06-20T16:34:16Z</time>
      </trkpt>
      <trkpt lat="43.83918" lon="5.98413">
        <ele>578.3</ele>
        <time>2020-06-20T16:34:17Z</time>
      </trkpt>
      <trkpt lat="43.8392" lon="5.9841">
        <ele>577.9</ele>
        <time>2020-06-20T16:34:18Z</time>
      </trkpt>
      <trkpt lat="43.83922" lon="5.98405">
        <ele>577.1</ele>
        <time>2020-06-20T16:34:20Z</time>
      </trkpt>
      <trkpt lat="43.83923" lon="5.98404">
        <ele>576.9</ele>
        <time>2020-06-20T16:34:21Z</time>
      </trkpt>
      <trkpt lat="43.83924" lon="5.98403">
        <ele>576.1</ele>
        <time>2020-06-20T16:34:22Z</time>
      </trkpt>
      <trkpt lat="43.83925" lon="5.984">
        <ele>576.4</ele>
        <time>2020-06-20T16:34:23Z</time>
      </trkpt>
      <trkpt lat="43.83928" lon="5.98399">
        <ele>576.9</ele>
        <time>2020-06-20T16:34:25Z</time>
      </trkpt>
      <trkpt lat="43.83929" lon="5.98397">
        <ele>577.1</ele>
        <time>2020-06-20T16:34:26Z</time>
      </trkpt>
      <trkpt lat="43.83931" lon="5.98396">
        <ele>577.4</ele>
        <time>2020-06-20T16:34:27Z</time>
      </trkpt>
      <trkpt lat="43.83932" lon="5.98394">
        <ele>577.6</ele>
        <time>2020-06-20T16:34:28Z</time>
      </trkpt>
      <trkpt lat="43.83933" lon="5.98392">
        <ele>577.8</ele>
        <time>2020-06-20T16:34:29Z</time>
      </trkpt>
      <trkpt lat="43.83935" lon="5.9839">
        <ele>578.2</ele>
        <time>2020-06-20T16:34:30Z</time>
      </trkpt>
      <trkpt lat="43.83936" lon="5.98389">
        <ele>578.3</ele>
        <time>2020-06-20T16:34:32Z</time>
      </trkpt>
      <trkpt lat="43.83937" lon="5.98388">
        <ele>578.5</ele>
        <time>2020-06-20T16:34:33Z</time>
      </trkpt>
      <trkpt lat="43.83938" lon="5.98387">
        <ele>578.6</ele>
        <time>2020-06-20T16:34:34Z</time>
      </trkpt>
      <trkpt lat="43.8394" lon="5.98386">
        <ele>578.9</ele>
        <time>2020-06-20T16:34:35Z</time>
      </trkpt>
      <trkpt lat="43.83942" lon="5.98385">
        <ele>579.1</ele>
        <time>2020-06-20T16:34:37Z</time>
      </trkpt>
      <trkpt lat="43.83945" lon="5.98383">
        <ele>579.4</ele>
        <time>2020-06-20T16:34:38Z</time>
      </trkpt>
      <trkpt lat="43.83945" lon="5.98382">
        <ele>579.5</ele>
        <time>2020-06-20T16:34:39Z</time>
      </trkpt>
      <trkpt lat="43.83948" lon="5.98381">
        <ele>579.8</ele>
        <time>2020-06-20T16:34:40Z</time>
      </trkpt>
      <trkpt lat="43.83949" lon="5.9838">
        <ele>580</ele>
        <time>2020-06-20T16:34:42Z</time>
      </trkpt>
      <trkpt lat="43.83952" lon="5.98378">
        <ele>580.3</ele>
        <time>2020-06-20T16:34:43Z</time>
      </trkpt>
      <trkpt lat="43.83953" lon="5.98377">
        <ele>580.4</ele>
        <time>2020-06-20T16:34:44Z</time>
      </trkpt>
      <trkpt lat="43.83955" lon="5.98375">
        <ele>580.7</ele>
        <time>2020-06-20T16:34:45Z</time>
      </trkpt>
      <trkpt lat="43.83957" lon="5.98374">
        <ele>580.9</ele>
        <time>2020-06-20T16:34:47Z</time>
      </trkpt>
      <trkpt lat="43.83959" lon="5.98372">
        <ele>581.2</ele>
        <time>2020-06-20T16:34:48Z</time>
      </trkpt>
      <trkpt lat="43.8396" lon="5.98371">
        <ele>581.3</ele>
        <time>2020-06-20T16:34:49Z</time>
      </trkpt>
      <trkpt lat="43.83962" lon="5.98369">
        <ele>581.5</ele>
        <time>2020-06-20T16:34:50Z</time>
      </trkpt>
      <trkpt lat="43.83963" lon="5.98368">
        <ele>581.7</ele>
        <time>2020-06-20T16:34:52Z</time>
      </trkpt>
      <trkpt lat="43.83965" lon="5.98365">
        <ele>581.9</ele>
        <time>2020-06-20T16:34:53Z</time>
      </trkpt>
      <trkpt lat="43.83966" lon="5.98365">
        <ele>582</ele>
        <time>2020-06-20T16:34:54Z</time>
      </trkpt>
      <trkpt lat="43.83968" lon="5.98363">
        <ele>582.3</ele>
        <time>2020-06-20T16:34:55Z</time>
      </trkpt>
      <trkpt lat="43.8397" lon="5.98361">
        <ele>582.4</ele>
        <time>2020-06-20T16:34:57Z</time>
      </trkpt>
      <trkpt lat="43.83971" lon="5.9836">
        <ele>582.6</ele>
        <time>2020-06-20T16:34:58Z</time>
      </trkpt>
      <trkpt lat="43.83972" lon="5.98359">
        <ele>582.7</ele>
        <time>2020-06-20T16:34:59Z</time>
      </trkpt>
      <trkpt lat="43.83976" lon="5.98356">
        <ele>583.2</ele>
        <time>2020-06-20T16:35:01Z</time>
      </trkpt>
      <trkpt lat="43.83978" lon="5.98355">
        <ele>583.4</ele>
        <time>2020-06-20T16:35:03Z</time>
      </trkpt>
      <trkpt lat="43.83979" lon="5.98354">
        <ele>583.5</ele>
        <time>2020-06-20T16:35:04Z</time>
      </trkpt>
      <trkpt lat="43.83981" lon="5.98352">
        <ele>583.8</ele>
        <time>2020-06-20T16:35:05Z</time>
      </trkpt>
      <trkpt lat="43.83983" lon="5.98351">
        <ele>584</ele>
        <time>2020-06-20T16:35:07Z</time>
      </trkpt>
      <trkpt lat="43.83986" lon="5.98349">
        <ele>584.3</ele>
        <time>2020-06-20T16:35:08Z</time>
      </trkpt>
      <trkpt lat="43.83987" lon="5.98349">
        <ele>584.5</ele>
        <time>2020-06-20T16:35:09Z</time>
      </trkpt>
      <trkpt lat="43.83989" lon="5.98346">
        <ele>584.8</ele>
        <time>2020-06-20T16:35:11Z</time>
      </trkpt>
      <trkpt lat="43.8399" lon="5.98345">
        <ele>584.9</ele>
        <time>2020-06-20T16:35:12Z</time>
      </trkpt>
      <trkpt lat="43.83992" lon="5.98343">
        <ele>585.3</ele>
        <time>2020-06-20T16:35:13Z</time>
      </trkpt>
      <trkpt lat="43.83996" lon="5.98339">
        <ele>585.8</ele>
        <time>2020-06-20T16:35:15Z</time>
      </trkpt>
      <trkpt lat="43.83997" lon="5.98338">
        <ele>585.9</ele>
        <time>2020-06-20T16:35:17Z</time>
      </trkpt>
      <trkpt lat="43.83999" lon="5.98336">
        <ele>586.1</ele>
        <time>2020-06-20T16:35:18Z</time>
      </trkpt>
      <trkpt lat="43.84" lon="5.98335">
        <ele>586.3</ele>
        <time>2020-06-20T16:35:19Z</time>
      </trkpt>
      <trkpt lat="43.84002" lon="5.98333">
        <ele>586.5</ele>
        <time>2020-06-20T16:35:21Z</time>
      </trkpt>
      <trkpt lat="43.84004" lon="5.9833">
        <ele>586.8</ele>
        <time>2020-06-20T16:35:22Z</time>
      </trkpt>
      <trkpt lat="43.84005" lon="5.98329">
        <ele>586.9</ele>
        <time>2020-06-20T16:35:23Z</time>
      </trkpt>
      <trkpt lat="43.84006" lon="5.98328">
        <ele>587</ele>
        <time>2020-06-20T16:35:24Z</time>
      </trkpt>
      <trkpt lat="43.84008" lon="5.98326">
        <ele>587.3</ele>
        <time>2020-06-20T16:35:26Z</time>
      </trkpt>
      <trkpt lat="43.84011" lon="5.98324">
        <ele>587.5</ele>
        <time>2020-06-20T16:35:27Z</time>
      </trkpt>
      <trkpt lat="43.84011" lon="5.98323">
        <ele>587.6</ele>
        <time>2020-06-20T16:35:28Z</time>
      </trkpt>
      <trkpt lat="43.84013" lon="5.98322">
        <ele>587.8</ele>
        <time>2020-06-20T16:35:30Z</time>
      </trkpt>
      <trkpt lat="43.84013" lon="5.98322">
        <ele>587.8</ele>
        <time>2020-06-20T16:35:31Z</time>
      </trkpt>
      <trkpt lat="43.84013" lon="5.98321">
        <ele>587.8</ele>
        <time>2020-06-20T16:35:33Z</time>
      </trkpt>
      <trkpt lat="43.84014" lon="5.98321">
        <ele>587.9</ele>
        <time>2020-06-20T16:35:34Z</time>
      </trkpt>
      <trkpt lat="43.84014" lon="5.98321">
        <ele>587.9</ele>
        <time>2020-06-20T16:35:35Z</time>
      </trkpt>
      <trkpt lat="43.84014" lon="5.98321">
        <ele>587.9</ele>
        <time>2020-06-20T16:35:36Z</time>
      </trkpt>
      <trkpt lat="43.84015" lon="5.98321">
        <ele>587.9</ele>
        <time>2020-06-20T16:35:37Z</time>
      </trkpt>
      <trkpt lat="43.84015" lon="5.98321">
        <ele>588</ele>
        <time>2020-06-20T16:35:39Z</time>
      </trkpt>
      <trkpt lat="43.84015" lon="5.98321">
        <ele>588</ele>
        <time>2020-06-20T16:35:40Z</time>
      </trkpt>
      <trkpt lat="43.84015" lon="5.98321">
        <ele>588</ele>
        <time>2020-06-20T16:35:42Z</time>
      </trkpt>
      <trkpt lat="43.84016" lon="5.98321">
        <ele>588</ele>
        <time>2020-06-20T16:35:43Z</time>
      </trkpt>
      <trkpt lat="43.84016" lon="5.98321">
        <ele>588.1</ele>
        <time>2020-06-20T16:35:44Z</time>
      </trkpt>
      <trkpt lat="43.84016" lon="5.98321">
        <ele>588.1</ele>
        <time>2020-06-20T16:35:46Z</time>
      </trkpt>
      <trkpt lat="43.84016" lon="5.98321">
        <ele>588.1</ele>
        <time>2020-06-20T16:35:48Z</time>
      </trkpt>
      <trkpt lat="43.84017" lon="5.9832">
        <ele>588.1</ele>
        <time>2020-06-20T16:35:49Z</time>
      </trkpt>
      <trkpt lat="43.84017" lon="5.9832">
        <ele>588.2</ele>
        <time>2020-06-20T16:35:50Z</time>
      </trkpt>
      <trkpt lat="43.84017" lon="5.9832">
        <ele>588.2</ele>
        <time>2020-06-20T16:35:52Z</time>
      </trkpt>
      <trkpt lat="43.84017" lon="5.9832">
        <ele>588.2</ele>
        <time>2020-06-20T16:35:54Z</time>
      </trkpt>
      <trkpt lat="43.84018" lon="5.9832">
        <ele>588.2</ele>
        <time>2020-06-20T16:35:56Z</time>
      </trkpt>
      <trkpt lat="43.84018" lon="5.9832">
        <ele>588.3</ele>
        <time>2020-06-20T16:35:57Z</time>
      </trkpt>
      <trkpt lat="43.84018" lon="5.9832">
        <ele>588.3</ele>
        <time>2020-06-20T16:35:58Z</time>
      </trkpt>
      <trkpt lat="43.84019" lon="5.9832">
        <ele>588.3</ele>
        <time>2020-06-20T16:35:59Z</time>
      </trkpt>
      <trkpt lat="43.84019" lon="5.9832">
        <ele>588.3</ele>
        <time>2020-06-20T16:36:01Z</time>
      </trkpt>
      <trkpt lat="43.84019" lon="5.9832">
        <ele>588.3</ele>
        <time>2020-06-20T16:36:02Z</time>
      </trkpt>
      <trkpt lat="43.84019" lon="5.9832">
        <ele>588.4</ele>
        <time>2020-06-20T16:36:04Z</time>
      </trkpt>
      <trkpt lat="43.8402" lon="5.9832">
        <ele>588.4</ele>
        <time>2020-06-20T16:36:06Z</time>
      </trkpt>
      <trkpt lat="43.8402" lon="5.98319">
        <ele>588.4</ele>
        <time>2020-06-20T16:36:08Z</time>
      </trkpt>
      <trkpt lat="43.8402" lon="5.98319">
        <ele>588.4</ele>
        <time>2020-06-20T16:36:10Z</time>
      </trkpt>
      <trkpt lat="43.8402" lon="5.98319">
        <ele>588.5</ele>
        <time>2020-06-20T16:36:12Z</time>
      </trkpt>
      <trkpt lat="43.84021" lon="5.98319">
        <ele>588.5</ele>
        <time>2020-06-20T16:36:14Z</time>
      </trkpt>
      <trkpt lat="43.84021" lon="5.98319">
        <ele>588.5</ele>
        <time>2020-06-20T16:36:14Z</time>
      </trkpt>
      <trkpt lat="43.84022" lon="5.98319">
        <ele>588.6</ele>
        <time>2020-06-20T16:36:16Z</time>
      </trkpt>
      <trkpt lat="43.84022" lon="5.98319">
        <ele>588.6</ele>
        <time>2020-06-20T16:36:17Z</time>
      </trkpt>
      <trkpt lat="43.84023" lon="5.98319">
        <ele>588.7</ele>
        <time>2020-06-20T16:36:18Z</time>
      </trkpt>
      <trkpt lat="43.84026" lon="5.98317">
        <ele>589.1</ele>
        <time>2020-06-20T16:36:20Z</time>
      </trkpt>
      <trkpt lat="43.84027" lon="5.98317">
        <ele>589.1</ele>
        <time>2020-06-20T16:36:21Z</time>
      </trkpt>
      <trkpt lat="43.84027" lon="5.98317">
        <ele>589.1</ele>
        <time>2020-06-20T16:36:22Z</time>
      </trkpt>
      <trkpt lat="43.84028" lon="5.98317">
        <ele>589.1</ele>
        <time>2020-06-20T16:36:24Z</time>
      </trkpt>
      <trkpt lat="43.84028" lon="5.98317">
        <ele>589.1</ele>
        <time>2020-06-20T16:36:25Z</time>
      </trkpt>
      <trkpt lat="43.84028" lon="5.98318">
        <ele>589.1</ele>
        <time>2020-06-20T16:36:26Z</time>
      </trkpt>
      <trkpt lat="43.84029" lon="5.98318">
        <ele>589.1</ele>
        <time>2020-06-20T16:36:28Z</time>
      </trkpt>
      <trkpt lat="43.84029" lon="5.98318">
        <ele>589.1</ele>
        <time>2020-06-20T16:36:29Z</time>
      </trkpt>
      <trkpt lat="43.8403" lon="5.98318">
        <ele>589.1</ele>
        <time>2020-06-20T16:36:30Z</time>
      </trkpt>
      <trkpt lat="43.84032" lon="5.98318">
        <ele>589.1</ele>
        <time>2020-06-20T16:36:31Z</time>
      </trkpt>
      <trkpt lat="43.84033" lon="5.98318">
        <ele>589.1</ele>
        <time>2020-06-20T16:36:33Z</time>
      </trkpt>
      <trkpt lat="43.84033" lon="5.98318">
        <ele>589.1</ele>
        <time>2020-06-20T16:36:35Z</time>
      </trkpt>
      <trkpt lat="43.84035" lon="5.98318">
        <ele>589.1</ele>
        <time>2020-06-20T16:36:36Z</time>
      </trkpt>
      <trkpt lat="43.84038" lon="5.98318">
        <ele>589.1</ele>
        <time>2020-06-20T16:36:38Z</time>
      </trkpt>
      <trkpt lat="43.84035" lon="5.98318">
        <ele>589.1</ele>
        <time>2020-06-20T16:36:39Z</time>
      </trkpt>
      <trkpt lat="43.84031" lon="5.98319">
        <ele>589.1</ele>
        <time>2020-06-20T16:36:40Z</time>
      </trkpt>
      <trkpt lat="43.84027" lon="5.98319">
        <ele>589.1</ele>
        <time>2020-06-20T16:36:42Z</time>
      </trkpt>
      <trkpt lat="43.84023" lon="5.9832">
        <ele>589.1</ele>
        <time>2020-06-20T16:36:43Z</time>
      </trkpt>
      <trkpt lat="43.84022" lon="5.9832">
        <ele>588.7</ele>
        <time>2020-06-20T16:36:44Z</time>
      </trkpt>
      <trkpt lat="43.84021" lon="5.9832">
        <ele>588.6</ele>
        <time>2020-06-20T16:36:46Z</time>
      </trkpt>
      <trkpt lat="43.84021" lon="5.9832">
        <ele>588.6</ele>
        <time>2020-06-20T16:36:48Z</time>
      </trkpt>
      <trkpt lat="43.84021" lon="5.9832">
        <ele>588.6</ele>
        <time>2020-06-20T16:36:49Z</time>
      </trkpt>
      <trkpt lat="43.84021" lon="5.9832">
        <ele>588.6</ele>
        <time>2020-06-20T16:36:51Z</time>
      </trkpt>
      <trkpt lat="43.84026" lon="5.98319">
        <ele>588.5</ele>
        <time>2020-06-20T16:37:01Z</time>
      </trkpt>
      <trkpt lat="43.84029" lon="5.98315">
        <ele>588.4</ele>
        <time>2020-06-20T16:37:03Z</time>
      </trkpt>
      <trkpt lat="43.84029" lon="5.98313">
        <ele>588.4</ele>
        <time>2020-06-20T16:37:05Z</time>
      </trkpt>
      <trkpt lat="43.84029" lon="5.98313">
        <ele>588.4</ele>
        <time>2020-06-20T16:37:06Z</time>
      </trkpt>
      <trkpt lat="43.84029" lon="5.98313">
        <ele>588.3</ele>
        <time>2020-06-20T16:37:07Z</time>
      </trkpt>
      <trkpt lat="43.84026" lon="5.98311">
        <ele>588.3</ele>
        <time>2020-06-20T16:37:09Z</time>
      </trkpt>
      <trkpt lat="43.84024" lon="5.9831">
        <ele>588.2</ele>
        <time>2020-06-20T16:37:10Z</time>
      </trkpt>
      <trkpt lat="43.84022" lon="5.98308">
        <ele>588.1</ele>
        <time>2020-06-20T16:37:12Z</time>
      </trkpt>
      <trkpt lat="43.84019" lon="5.98306">
        <ele>588</ele>
        <time>2020-06-20T16:37:13Z</time>
      </trkpt>
      <trkpt lat="43.84016" lon="5.98307">
        <ele>588</ele>
        <time>2020-06-20T16:37:14Z</time>
      </trkpt>
      <trkpt lat="43.84015" lon="5.98308">
        <ele>587.9</ele>
        <time>2020-06-20T16:37:15Z</time>
      </trkpt>
      <trkpt lat="43.84009" lon="5.9831">
        <ele>587.7</ele>
        <time>2020-06-20T16:37:17Z</time>
      </trkpt>
      <trkpt lat="43.84004" lon="5.98311">
        <ele>587.6</ele>
        <time>2020-06-20T16:37:18Z</time>
      </trkpt>
      <trkpt lat="43.84" lon="5.98312">
        <ele>587.5</ele>
        <time>2020-06-20T16:37:19Z</time>
      </trkpt>
      <trkpt lat="43.83996" lon="5.98313">
        <ele>587.3</ele>
        <time>2020-06-20T16:37:20Z</time>
      </trkpt>
      <trkpt lat="43.8399" lon="5.98314">
        <ele>587.2</ele>
        <time>2020-06-20T16:37:22Z</time>
      </trkpt>
      <trkpt lat="43.83985" lon="5.98315">
        <ele>587</ele>
        <time>2020-06-20T16:37:23Z</time>
      </trkpt>
      <trkpt lat="43.83981" lon="5.98315">
        <ele>586.9</ele>
        <time>2020-06-20T16:37:24Z</time>
      </trkpt>
      <trkpt lat="43.83977" lon="5.98316">
        <ele>586.7</ele>
        <time>2020-06-20T16:37:26Z</time>
      </trkpt>
      <trkpt lat="43.83974" lon="5.98317">
        <ele>586.6</ele>
        <time>2020-06-20T16:37:27Z</time>
      </trkpt>
      <trkpt lat="43.83973" lon="5.98318">
        <ele>586.6</ele>
        <time>2020-06-20T16:37:28Z</time>
      </trkpt>
      <trkpt lat="43.83966" lon="5.9832">
        <ele>586.3</ele>
        <time>2020-06-20T16:37:29Z</time>
      </trkpt>
      <trkpt lat="43.83962" lon="5.98322">
        <ele>586.2</ele>
        <time>2020-06-20T16:37:30Z</time>
      </trkpt>
      <trkpt lat="43.83955" lon="5.98326">
        <ele>586.1</ele>
        <time>2020-06-20T16:37:31Z</time>
      </trkpt>
      <trkpt lat="43.83947" lon="5.98327">
        <ele>585.9</ele>
        <time>2020-06-20T16:37:33Z</time>
      </trkpt>
      <trkpt lat="43.8395" lon="5.98327">
        <ele>585.8</ele>
        <time>2020-06-20T16:37:35Z</time>
      </trkpt>
      <trkpt lat="43.83954" lon="5.98327">
        <ele>585.7</ele>
        <time>2020-06-20T16:37:36Z</time>
      </trkpt>
      <trkpt lat="43.8394" lon="5.98328">
        <ele>585.4</ele>
        <time>2020-06-20T16:37:38Z</time>
      </trkpt>
      <trkpt lat="43.83931" lon="5.98323">
        <ele>585.4</ele>
        <time>2020-06-20T16:37:40Z</time>
      </trkpt>
      <trkpt lat="43.83926" lon="5.98325">
        <ele>585.4</ele>
        <time>2020-06-20T16:37:41Z</time>
      </trkpt>
      <trkpt lat="43.83922" lon="5.98329">
        <ele>585.3</ele>
        <time>2020-06-20T16:37:42Z</time>
      </trkpt>
      <trkpt lat="43.83918" lon="5.98332">
        <ele>585.3</ele>
        <time>2020-06-20T16:37:43Z</time>
      </trkpt>
      <trkpt lat="43.8391" lon="5.98324">
        <ele>585.3</ele>
        <time>2020-06-20T16:37:45Z</time>
      </trkpt>
      <trkpt lat="43.83906" lon="5.98318">
        <ele>585.3</ele>
        <time>2020-06-20T16:37:46Z</time>
      </trkpt>
      <trkpt lat="43.83901" lon="5.98311">
        <ele>585.3</ele>
        <time>2020-06-20T16:37:48Z</time>
      </trkpt>
      <trkpt lat="43.83898" lon="5.98306">
        <ele>585.3</ele>
        <time>2020-06-20T16:37:49Z</time>
      </trkpt>
      <trkpt lat="43.83895" lon="5.98303">
        <ele>585.4</ele>
        <time>2020-06-20T16:37:50Z</time>
      </trkpt>
      <trkpt lat="43.83891" lon="5.98299">
        <ele>585.4</ele>
        <time>2020-06-20T16:37:52Z</time>
      </trkpt>
      <trkpt lat="43.83888" lon="5.98297">
        <ele>585.4</ele>
        <time>2020-06-20T16:37:53Z</time>
      </trkpt>
      <trkpt lat="43.83887" lon="5.98296">
        <ele>585.4</ele>
        <time>2020-06-20T16:37:54Z</time>
      </trkpt>
      <trkpt lat="43.83884" lon="5.98295">
        <ele>585.5</ele>
        <time>2020-06-20T16:37:55Z</time>
      </trkpt>
      <trkpt lat="43.83881" lon="5.98293">
        <ele>585.5</ele>
        <time>2020-06-20T16:37:57Z</time>
      </trkpt>
      <trkpt lat="43.83877" lon="5.9829">
        <ele>585.5</ele>
        <time>2020-06-20T16:37:58Z</time>
      </trkpt>
      <trkpt lat="43.83873" lon="5.98288">
        <ele>585.6</ele>
        <time>2020-06-20T16:37:59Z</time>
      </trkpt>
      <trkpt lat="43.8387" lon="5.98286">
        <ele>585.6</ele>
        <time>2020-06-20T16:38:01Z</time>
      </trkpt>
      <trkpt lat="43.83867" lon="5.98284">
        <ele>585.7</ele>
        <time>2020-06-20T16:38:02Z</time>
      </trkpt>
      <trkpt lat="43.83863" lon="5.98281">
        <ele>585.7</ele>
        <time>2020-06-20T16:38:03Z</time>
      </trkpt>
      <trkpt lat="43.83859" lon="5.98279">
        <ele>585.8</ele>
        <time>2020-06-20T16:38:04Z</time>
      </trkpt>
      <trkpt lat="43.83855" lon="5.98276">
        <ele>585.8</ele>
        <time>2020-06-20T16:38:06Z</time>
      </trkpt>
      <trkpt lat="43.83853" lon="5.98273">
        <ele>585.8</ele>
        <time>2020-06-20T16:38:07Z</time>
      </trkpt>
      <trkpt lat="43.8385" lon="5.9827">
        <ele>585.9</ele>
        <time>2020-06-20T16:38:08Z</time>
      </trkpt>
      <trkpt lat="43.83845" lon="5.98262">
        <ele>585.9</ele>
        <time>2020-06-20T16:38:09Z</time>
      </trkpt>
      <trkpt lat="43.8384" lon="5.98252">
        <ele>586.1</ele>
        <time>2020-06-20T16:38:11Z</time>
      </trkpt>
      <trkpt lat="43.8384" lon="5.98246">
        <ele>586.1</ele>
        <time>2020-06-20T16:38:12Z</time>
      </trkpt>
      <trkpt lat="43.83839" lon="5.98238">
        <ele>586.1</ele>
        <time>2020-06-20T16:38:14Z</time>
      </trkpt>
      <trkpt lat="43.83839" lon="5.98233">
        <ele>587.6</ele>
        <time>2020-06-20T16:38:15Z</time>
      </trkpt>
      <trkpt lat="43.83839" lon="5.98228">
        <ele>588.1</ele>
        <time>2020-06-20T16:38:17Z</time>
      </trkpt>
      <trkpt lat="43.8384" lon="5.98223">
        <ele>588.7</ele>
        <time>2020-06-20T16:38:19Z</time>
      </trkpt>
      <trkpt lat="43.8384" lon="5.98217">
        <ele>589.3</ele>
        <time>2020-06-20T16:38:20Z</time>
      </trkpt>
      <trkpt lat="43.83843" lon="5.98212">
        <ele>589.8</ele>
        <time>2020-06-20T16:38:22Z</time>
      </trkpt>
      <trkpt lat="43.83844" lon="5.98208">
        <ele>589.8</ele>
        <time>2020-06-20T16:38:23Z</time>
      </trkpt>
      <trkpt lat="43.83845" lon="5.98204">
        <ele>589.8</ele>
        <time>2020-06-20T16:38:24Z</time>
      </trkpt>
      <trkpt lat="43.83846" lon="5.982">
        <ele>589.8</ele>
        <time>2020-06-20T16:38:26Z</time>
      </trkpt>
      <trkpt lat="43.83848" lon="5.98197">
        <ele>589.8</ele>
        <time>2020-06-20T16:38:27Z</time>
      </trkpt>
      <trkpt lat="43.8385" lon="5.98193">
        <ele>589.8</ele>
        <time>2020-06-20T16:38:29Z</time>
      </trkpt>
      <trkpt lat="43.83851" lon="5.98187">
        <ele>589.6</ele>
        <time>2020-06-20T16:38:31Z</time>
      </trkpt>
      <trkpt lat="43.83852" lon="5.98186">
        <ele>589.6</ele>
        <time>2020-06-20T16:38:32Z</time>
      </trkpt>
      <trkpt lat="43.83852" lon="5.98184">
        <ele>589.6</ele>
        <time>2020-06-20T16:38:33Z</time>
      </trkpt>
      <trkpt lat="43.83852" lon="5.98181">
        <ele>589.5</ele>
        <time>2020-06-20T16:38:35Z</time>
      </trkpt>
      <trkpt lat="43.83854" lon="5.98173">
        <ele>589.4</ele>
        <time>2020-06-20T16:38:37Z</time>
      </trkpt>
      <trkpt lat="43.83856" lon="5.98165">
        <ele>589.3</ele>
        <time>2020-06-20T16:38:39Z</time>
      </trkpt>
      <trkpt lat="43.83857" lon="5.98161">
        <ele>589.2</ele>
        <time>2020-06-20T16:38:40Z</time>
      </trkpt>
      <trkpt lat="43.83859" lon="5.98157">
        <ele>589</ele>
        <time>2020-06-20T16:38:41Z</time>
      </trkpt>
      <trkpt lat="43.83863" lon="5.9815">
        <ele>588.8</ele>
        <time>2020-06-20T16:38:43Z</time>
      </trkpt>
      <trkpt lat="43.83865" lon="5.98146">
        <ele>588.6</ele>
        <time>2020-06-20T16:38:44Z</time>
      </trkpt>
      <trkpt lat="43.83868" lon="5.9814">
        <ele>588.2</ele>
        <time>2020-06-20T16:38:46Z</time>
      </trkpt>
      <trkpt lat="43.83869" lon="5.98135">
        <ele>587.9</ele>
        <time>2020-06-20T16:38:47Z</time>
      </trkpt>
      <trkpt lat="43.8387" lon="5.98131">
        <ele>587.7</ele>
        <time>2020-06-20T16:38:48Z</time>
      </trkpt>
      <trkpt lat="43.83869" lon="5.98127">
        <ele>587.8</ele>
        <time>2020-06-20T16:38:50Z</time>
      </trkpt>
      <trkpt lat="43.83869" lon="5.98126">
        <ele>587.8</ele>
        <time>2020-06-20T16:38:51Z</time>
      </trkpt>
      <trkpt lat="43.8387" lon="5.98125">
        <ele>587.8</ele>
        <time>2020-06-20T16:38:53Z</time>
      </trkpt>
      <trkpt lat="43.8387" lon="5.98124">
        <ele>587.8</ele>
        <time>2020-06-20T16:38:54Z</time>
      </trkpt>
      <trkpt lat="43.83871" lon="5.98123">
        <ele>587.8</ele>
        <time>2020-06-20T16:38:56Z</time>
      </trkpt>
      <trkpt lat="43.83871" lon="5.98121">
        <ele>587.9</ele>
        <time>2020-06-20T16:38:58Z</time>
      </trkpt>
      <trkpt lat="43.83871" lon="5.9812">
        <ele>587.9</ele>
        <time>2020-06-20T16:38:59Z</time>
      </trkpt>
      <trkpt lat="43.83871" lon="5.98119">
        <ele>587.9</ele>
        <time>2020-06-20T16:39:00Z</time>
      </trkpt>
      <trkpt lat="43.83866" lon="5.98118">
        <ele>588</ele>
        <time>2020-06-20T16:39:23Z</time>
      </trkpt>
      <trkpt lat="43.83863" lon="5.9812">
        <ele>588.1</ele>
        <time>2020-06-20T16:39:24Z</time>
      </trkpt>
      <trkpt lat="43.8386" lon="5.98123">
        <ele>588.2</ele>
        <time>2020-06-20T16:39:26Z</time>
      </trkpt>
      <trkpt lat="43.83859" lon="5.98128">
        <ele>588.3</ele>
        <time>2020-06-20T16:39:28Z</time>
      </trkpt>
      <trkpt lat="43.83859" lon="5.98129">
        <ele>588.3</ele>
        <time>2020-06-20T16:39:29Z</time>
      </trkpt>
      <trkpt lat="43.8386" lon="5.98134">
        <ele>588.4</ele>
        <time>2020-06-20T16:39:31Z</time>
      </trkpt>
      <trkpt lat="43.83859" lon="5.98139">
        <ele>588.4</ele>
        <time>2020-06-20T16:39:32Z</time>
      </trkpt>
      <trkpt lat="43.83859" lon="5.98148">
        <ele>588.8</ele>
        <time>2020-06-20T16:39:33Z</time>
      </trkpt>
      <trkpt lat="43.83858" lon="5.98155">
        <ele>589</ele>
        <time>2020-06-20T16:39:34Z</time>
      </trkpt>
      <trkpt lat="43.83857" lon="5.98161">
        <ele>589.2</ele>
        <time>2020-06-20T16:39:36Z</time>
      </trkpt>
      <trkpt lat="43.83855" lon="5.98167">
        <ele>589.3</ele>
        <time>2020-06-20T16:39:37Z</time>
      </trkpt>
      <trkpt lat="43.83854" lon="5.98171">
        <ele>589.3</ele>
        <time>2020-06-20T16:39:38Z</time>
      </trkpt>
      <trkpt lat="43.83852" lon="5.98175">
        <ele>589.4</ele>
        <time>2020-06-20T16:39:39Z</time>
      </trkpt>
      <trkpt lat="43.8385" lon="5.98181">
        <ele>589.5</ele>
        <time>2020-06-20T16:39:41Z</time>
      </trkpt>
      <trkpt lat="43.83847" lon="5.98188">
        <ele>589.6</ele>
        <time>2020-06-20T16:39:42Z</time>
      </trkpt>
      <trkpt lat="43.83846" lon="5.98193">
        <ele>589.8</ele>
        <time>2020-06-20T16:39:43Z</time>
      </trkpt>
      <trkpt lat="43.83843" lon="5.98199">
        <ele>589.8</ele>
        <time>2020-06-20T16:39:44Z</time>
      </trkpt>
      <trkpt lat="43.8384" lon="5.98206">
        <ele>589.8</ele>
        <time>2020-06-20T16:39:46Z</time>
      </trkpt>
      <trkpt lat="43.83837" lon="5.98211">
        <ele>589.8</ele>
        <time>2020-06-20T16:39:47Z</time>
      </trkpt>
      <trkpt lat="43.83834" lon="5.98215">
        <ele>588.9</ele>
        <time>2020-06-20T16:39:48Z</time>
      </trkpt>
      <trkpt lat="43.83832" lon="5.98219">
        <ele>588.2</ele>
        <time>2020-06-20T16:39:50Z</time>
      </trkpt>
      <trkpt lat="43.8383" lon="5.98221">
        <ele>587.9</ele>
        <time>2020-06-20T16:39:51Z</time>
      </trkpt>
      <trkpt lat="43.83827" lon="5.98224">
        <ele>586</ele>
        <time>2020-06-20T16:39:53Z</time>
      </trkpt>
      <trkpt lat="43.83824" lon="5.98231">
        <ele>585.9</ele>
        <time>2020-06-20T16:39:55Z</time>
      </trkpt>
      <trkpt lat="43.83822" lon="5.98236">
        <ele>585.9</ele>
        <time>2020-06-20T16:39:56Z</time>
      </trkpt>
      <trkpt lat="43.8382" lon="5.98241">
        <ele>586.3</ele>
        <time>2020-06-20T16:39:57Z</time>
      </trkpt>
      <trkpt lat="43.83818" lon="5.98246">
        <ele>586.4</ele>
        <time>2020-06-20T16:39:58Z</time>
      </trkpt>
      <trkpt lat="43.83817" lon="5.98248">
        <ele>586.5</ele>
        <time>2020-06-20T16:39:59Z</time>
      </trkpt>
      <trkpt lat="43.83816" lon="5.9825">
        <ele>586.6</ele>
        <time>2020-06-20T16:40:00Z</time>
      </trkpt>
      <trkpt lat="43.83812" lon="5.98255">
        <ele>586.7</ele>
        <time>2020-06-20T16:40:02Z</time>
      </trkpt>
      <trkpt lat="43.83809" lon="5.98258">
        <ele>586.8</ele>
        <time>2020-06-20T16:40:03Z</time>
      </trkpt>
      <trkpt lat="43.83806" lon="5.98262">
        <ele>587</ele>
        <time>2020-06-20T16:40:04Z</time>
      </trkpt>
      <trkpt lat="43.83803" lon="5.98266">
        <ele>587.1</ele>
        <time>2020-06-20T16:40:06Z</time>
      </trkpt>
      <trkpt lat="43.838" lon="5.9827">
        <ele>587</ele>
        <time>2020-06-20T16:40:07Z</time>
      </trkpt>
      <trkpt lat="43.83796" lon="5.98273">
        <ele>586.8</ele>
        <time>2020-06-20T16:40:08Z</time>
      </trkpt>
      <trkpt lat="43.83794" lon="5.98276">
        <ele>586.7</ele>
        <time>2020-06-20T16:40:10Z</time>
      </trkpt>
      <trkpt lat="43.83795" lon="5.98278">
        <ele>586.7</ele>
        <time>2020-06-20T16:40:12Z</time>
      </trkpt>
      <trkpt lat="43.83796" lon="5.98278">
        <ele>586.7</ele>
        <time>2020-06-20T16:40:13Z</time>
      </trkpt>
      <trkpt lat="43.83796" lon="5.9828">
        <ele>586.7</ele>
        <time>2020-06-20T16:40:15Z</time>
      </trkpt>
      <trkpt lat="43.83797" lon="5.98282">
        <ele>586.7</ele>
        <time>2020-06-20T16:40:16Z</time>
      </trkpt>
      <trkpt lat="43.83797" lon="5.98285">
        <ele>586.6</ele>
        <time>2020-06-20T16:40:18Z</time>
      </trkpt>
      <trkpt lat="43.83797" lon="5.98286">
        <ele>586.6</ele>
        <time>2020-06-20T16:40:19Z</time>
      </trkpt>
      <trkpt lat="43.83796" lon="5.98288">
        <ele>586.6</ele>
        <time>2020-06-20T16:40:20Z</time>
      </trkpt>
      <trkpt lat="43.83796" lon="5.98291">
        <ele>586.6</ele>
        <time>2020-06-20T16:40:22Z</time>
      </trkpt>
      <trkpt lat="43.83793" lon="5.98289">
        <ele>586.5</ele>
        <time>2020-06-20T16:40:24Z</time>
      </trkpt>
      <trkpt lat="43.83792" lon="5.98289">
        <ele>586.5</ele>
        <time>2020-06-20T16:40:25Z</time>
      </trkpt>
      <trkpt lat="43.83791" lon="5.98288">
        <ele>586.5</ele>
        <time>2020-06-20T16:40:26Z</time>
      </trkpt>
      <trkpt lat="43.83789" lon="5.98289">
        <ele>586.4</ele>
        <time>2020-06-20T16:40:28Z</time>
      </trkpt>
      <trkpt lat="43.83788" lon="5.9829">
        <ele>586.4</ele>
        <time>2020-06-20T16:40:30Z</time>
      </trkpt>
      <trkpt lat="43.83787" lon="5.98291">
        <ele>586.4</ele>
        <time>2020-06-20T16:40:31Z</time>
      </trkpt>
      <trkpt lat="43.83787" lon="5.98292">
        <ele>586.4</ele>
        <time>2020-06-20T16:40:32Z</time>
      </trkpt>
      <trkpt lat="43.83786" lon="5.98296">
        <ele>586.3</ele>
        <time>2020-06-20T16:40:34Z</time>
      </trkpt>
      <trkpt lat="43.83785" lon="5.98299">
        <ele>586.3</ele>
        <time>2020-06-20T16:40:35Z</time>
      </trkpt>
      <trkpt lat="43.83781" lon="5.98301">
        <ele>586.2</ele>
        <time>2020-06-20T16:40:37Z</time>
      </trkpt>
      <trkpt lat="43.83776" lon="5.983">
        <ele>586.2</ele>
        <time>2020-06-20T16:40:39Z</time>
      </trkpt>
      <trkpt lat="43.83771" lon="5.98298">
        <ele>586.1</ele>
        <time>2020-06-20T16:40:40Z</time>
      </trkpt>
      <trkpt lat="43.83767" lon="5.98297">
        <ele>586.1</ele>
        <time>2020-06-20T16:40:42Z</time>
      </trkpt>
      <trkpt lat="43.83765" lon="5.98295">
        <ele>586.1</ele>
        <time>2020-06-20T16:40:43Z</time>
      </trkpt>
      <trkpt lat="43.83763" lon="5.98293">
        <ele>586.1</ele>
        <time>2020-06-20T16:40:45Z</time>
      </trkpt>
      <trkpt lat="43.83762" lon="5.98292">
        <ele>586.1</ele>
        <time>2020-06-20T16:40:46Z</time>
      </trkpt>
      <trkpt lat="43.83761" lon="5.98291">
        <ele>586.1</ele>
        <time>2020-06-20T16:40:47Z</time>
      </trkpt>
      <trkpt lat="43.83761" lon="5.98289">
        <ele>586.1</ele>
        <time>2020-06-20T16:40:49Z</time>
      </trkpt>
      <trkpt lat="43.83759" lon="5.98285">
        <ele>586.1</ele>
        <time>2020-06-20T16:40:50Z</time>
      </trkpt>
      <trkpt lat="43.83757" lon="5.98283">
        <ele>586.1</ele>
        <time>2020-06-20T16:40:51Z</time>
      </trkpt>
      <trkpt lat="43.83756" lon="5.98283">
        <ele>586.1</ele>
        <time>2020-06-20T16:40:52Z</time>
      </trkpt>
      <trkpt lat="43.83754" lon="5.9828">
        <ele>585.4</ele>
        <time>2020-06-20T16:40:54Z</time>
      </trkpt>
      <trkpt lat="43.83751" lon="5.98278">
        <ele>585.4</ele>
        <time>2020-06-20T16:40:55Z</time>
      </trkpt>
      <trkpt lat="43.83744" lon="5.98275">
        <ele>585.3</ele>
        <time>2020-06-20T16:40:57Z</time>
      </trkpt>
      <trkpt lat="43.83741" lon="5.98273">
        <ele>585.3</ele>
        <time>2020-06-20T16:40:58Z</time>
      </trkpt>
      <trkpt lat="43.83738" lon="5.98272">
        <ele>585.3</ele>
        <time>2020-06-20T16:40:59Z</time>
      </trkpt>
      <trkpt lat="43.83733" lon="5.98272">
        <ele>585.2</ele>
        <time>2020-06-20T16:41:00Z</time>
      </trkpt>
      <trkpt lat="43.83731" lon="5.98273">
        <ele>585.2</ele>
        <time>2020-06-20T16:41:01Z</time>
      </trkpt>
      <trkpt lat="43.83727" lon="5.98275">
        <ele>585.2</ele>
        <time>2020-06-20T16:41:02Z</time>
      </trkpt>
      <trkpt lat="43.83723" lon="5.98277">
        <ele>585.2</ele>
        <time>2020-06-20T16:41:04Z</time>
      </trkpt>
      <trkpt lat="43.83721" lon="5.98278">
        <ele>585.1</ele>
        <time>2020-06-20T16:41:05Z</time>
      </trkpt>
      <trkpt lat="43.83716" lon="5.9828">
        <ele>585</ele>
        <time>2020-06-20T16:41:06Z</time>
      </trkpt>
      <trkpt lat="43.83715" lon="5.98281">
        <ele>584.9</ele>
        <time>2020-06-20T16:41:07Z</time>
      </trkpt>
      <trkpt lat="43.8371" lon="5.98286">
        <ele>584.2</ele>
        <time>2020-06-20T16:41:09Z</time>
      </trkpt>
      <trkpt lat="43.83705" lon="5.98289">
        <ele>583.7</ele>
        <time>2020-06-20T16:41:10Z</time>
      </trkpt>
      <trkpt lat="43.83703" lon="5.98291">
        <ele>583.2</ele>
        <time>2020-06-20T16:41:12Z</time>
      </trkpt>
      <trkpt lat="43.837" lon="5.98296">
        <ele>582.4</ele>
        <time>2020-06-20T16:41:13Z</time>
      </trkpt>
      <trkpt lat="43.83696" lon="5.98302">
        <ele>581.5</ele>
        <time>2020-06-20T16:41:15Z</time>
      </trkpt>
      <trkpt lat="43.83694" lon="5.98305">
        <ele>580.8</ele>
        <time>2020-06-20T16:41:16Z</time>
      </trkpt>
      <trkpt lat="43.83693" lon="5.98306">
        <ele>580.6</ele>
        <time>2020-06-20T16:41:17Z</time>
      </trkpt>
      <trkpt lat="43.83691" lon="5.98307">
        <ele>580.3</ele>
        <time>2020-06-20T16:41:18Z</time>
      </trkpt>
      <trkpt lat="43.83687" lon="5.98311">
        <ele>579.4</ele>
        <time>2020-06-20T16:41:21Z</time>
      </trkpt>
      <trkpt lat="43.83683" lon="5.98314">
        <ele>578.7</ele>
        <time>2020-06-20T16:41:23Z</time>
      </trkpt>
      <trkpt lat="43.8368" lon="5.98316">
        <ele>578.1</ele>
        <time>2020-06-20T16:41:24Z</time>
      </trkpt>
      <trkpt lat="43.83679" lon="5.98317">
        <ele>577.9</ele>
        <time>2020-06-20T16:41:25Z</time>
      </trkpt>
      <trkpt lat="43.83676" lon="5.98319">
        <ele>577.3</ele>
        <time>2020-06-20T16:41:26Z</time>
      </trkpt>
      <trkpt lat="43.83675" lon="5.98319">
        <ele>577.2</ele>
        <time>2020-06-20T16:41:27Z</time>
      </trkpt>
      <trkpt lat="43.83673" lon="5.9832">
        <ele>576.9</ele>
        <time>2020-06-20T16:41:29Z</time>
      </trkpt>
      <trkpt lat="43.83672" lon="5.98321">
        <ele>576.8</ele>
        <time>2020-06-20T16:41:30Z</time>
      </trkpt>
      <trkpt lat="43.83669" lon="5.98322">
        <ele>576.4</ele>
        <time>2020-06-20T16:41:31Z</time>
      </trkpt>
      <trkpt lat="43.83667" lon="5.98323">
        <ele>576.1</ele>
        <time>2020-06-20T16:41:32Z</time>
      </trkpt>
      <trkpt lat="43.83663" lon="5.98324">
        <ele>575.7</ele>
        <time>2020-06-20T16:41:34Z</time>
      </trkpt>
      <trkpt lat="43.83661" lon="5.98324">
        <ele>575.2</ele>
        <time>2020-06-20T16:41:35Z</time>
      </trkpt>
      <trkpt lat="43.8366" lon="5.98325">
        <ele>575.1</ele>
        <time>2020-06-20T16:41:36Z</time>
      </trkpt>
      <trkpt lat="43.83658" lon="5.98326">
        <ele>574.6</ele>
        <time>2020-06-20T16:41:38Z</time>
      </trkpt>
      <trkpt lat="43.83655" lon="5.98328">
        <ele>574</ele>
        <time>2020-06-20T16:41:39Z</time>
      </trkpt>
      <trkpt lat="43.83653" lon="5.98328">
        <ele>573.1</ele>
        <time>2020-06-20T16:41:40Z</time>
      </trkpt>
      <trkpt lat="43.83652" lon="5.98329">
        <ele>572.9</ele>
        <time>2020-06-20T16:41:41Z</time>
      </trkpt>
      <trkpt lat="43.83652" lon="5.98329">
        <ele>572.8</ele>
        <time>2020-06-20T16:41:43Z</time>
      </trkpt>
      <trkpt lat="43.83652" lon="5.98329">
        <ele>572.8</ele>
        <time>2020-06-20T16:41:45Z</time>
      </trkpt>
      <trkpt lat="43.83651" lon="5.98329">
        <ele>572.6</ele>
        <time>2020-06-20T16:41:46Z</time>
      </trkpt>
      <trkpt lat="43.8365" lon="5.98329">
        <ele>572.4</ele>
        <time>2020-06-20T16:41:47Z</time>
      </trkpt>
      <trkpt lat="43.83649" lon="5.98329">
        <ele>572.2</ele>
        <time>2020-06-20T16:41:48Z</time>
      </trkpt>
      <trkpt lat="43.83647" lon="5.98329">
        <ele>572</ele>
        <time>2020-06-20T16:41:50Z</time>
      </trkpt>
      <trkpt lat="43.83647" lon="5.98329">
        <ele>571.9</ele>
        <time>2020-06-20T16:41:53Z</time>
      </trkpt>
      <trkpt lat="43.83646" lon="5.9833">
        <ele>571.8</ele>
        <time>2020-06-20T16:41:54Z</time>
      </trkpt>
      <trkpt lat="43.83646" lon="5.9833">
        <ele>571.7</ele>
        <time>2020-06-20T16:41:55Z</time>
      </trkpt>
      <trkpt lat="43.83645" lon="5.9833">
        <ele>571.6</ele>
        <time>2020-06-20T16:41:57Z</time>
      </trkpt>
      <trkpt lat="43.83645" lon="5.9833">
        <ele>571.5</ele>
        <time>2020-06-20T16:41:58Z</time>
      </trkpt>
      <trkpt lat="43.83644" lon="5.9833">
        <ele>571.3</ele>
        <time>2020-06-20T16:41:59Z</time>
      </trkpt>
      <trkpt lat="43.83642" lon="5.9833">
        <ele>571.1</ele>
        <time>2020-06-20T16:42:01Z</time>
      </trkpt>
      <trkpt lat="43.8364" lon="5.98331">
        <ele>570.7</ele>
        <time>2020-06-20T16:42:03Z</time>
      </trkpt>
      <trkpt lat="43.83638" lon="5.98332">
        <ele>570.4</ele>
        <time>2020-06-20T16:42:04Z</time>
      </trkpt>
      <trkpt lat="43.83635" lon="5.98334">
        <ele>569.9</ele>
        <time>2020-06-20T16:42:06Z</time>
      </trkpt>
      <trkpt lat="43.83633" lon="5.98335">
        <ele>569.5</ele>
        <time>2020-06-20T16:42:07Z</time>
      </trkpt>
      <trkpt lat="43.83632" lon="5.98335">
        <ele>569.3</ele>
        <time>2020-06-20T16:42:08Z</time>
      </trkpt>
      <trkpt lat="43.83631" lon="5.98335">
        <ele>569</ele>
        <time>2020-06-20T16:42:10Z</time>
      </trkpt>
      <trkpt lat="43.83629" lon="5.98336">
        <ele>567.9</ele>
        <time>2020-06-20T16:42:11Z</time>
      </trkpt>
      <trkpt lat="43.83628" lon="5.98336">
        <ele>567.7</ele>
        <time>2020-06-20T16:42:13Z</time>
      </trkpt>
      <trkpt lat="43.83626" lon="5.98335">
        <ele>567.4</ele>
        <time>2020-06-20T16:42:14Z</time>
      </trkpt>
      <trkpt lat="43.83624" lon="5.98334">
        <ele>567.2</ele>
        <time>2020-06-20T16:42:15Z</time>
      </trkpt>
      <trkpt lat="43.83623" lon="5.98332">
        <ele>567</ele>
        <time>2020-06-20T16:42:16Z</time>
      </trkpt>
      <trkpt lat="43.83621" lon="5.98331">
        <ele>566.7</ele>
        <time>2020-06-20T16:42:18Z</time>
      </trkpt>
      <trkpt lat="43.8362" lon="5.98331">
        <ele>566.6</ele>
        <time>2020-06-20T16:42:20Z</time>
      </trkpt>
      <trkpt lat="43.83619" lon="5.98331">
        <ele>566.5</ele>
        <time>2020-06-20T16:42:21Z</time>
      </trkpt>
      <trkpt lat="43.83618" lon="5.98331">
        <ele>566.3</ele>
        <time>2020-06-20T16:42:23Z</time>
      </trkpt>
      <trkpt lat="43.83617" lon="5.98331">
        <ele>565.8</ele>
        <time>2020-06-20T16:42:24Z</time>
      </trkpt>
      <trkpt lat="43.83616" lon="5.98332">
        <ele>565.6</ele>
        <time>2020-06-20T16:42:26Z</time>
      </trkpt>
      <trkpt lat="43.83616" lon="5.98332">
        <ele>565.5</ele>
        <time>2020-06-20T16:42:27Z</time>
      </trkpt>
      <trkpt lat="43.83614" lon="5.98333">
        <ele>565.2</ele>
        <time>2020-06-20T16:42:29Z</time>
      </trkpt>
      <trkpt lat="43.83613" lon="5.98334">
        <ele>565</ele>
        <time>2020-06-20T16:42:31Z</time>
      </trkpt>
      <trkpt lat="43.83611" lon="5.98336">
        <ele>564.5</ele>
        <time>2020-06-20T16:42:32Z</time>
      </trkpt>
      <trkpt lat="43.8361" lon="5.98337">
        <ele>564.4</ele>
        <time>2020-06-20T16:42:33Z</time>
      </trkpt>
      <trkpt lat="43.83608" lon="5.98338">
        <ele>564</ele>
        <time>2020-06-20T16:42:35Z</time>
      </trkpt>
      <trkpt lat="43.83606" lon="5.98339">
        <ele>563.8</ele>
        <time>2020-06-20T16:42:36Z</time>
      </trkpt>
      <trkpt lat="43.83605" lon="5.98339">
        <ele>563.6</ele>
        <time>2020-06-20T16:42:37Z</time>
      </trkpt>
      <trkpt lat="43.83604" lon="5.9834">
        <ele>563.4</ele>
        <time>2020-06-20T16:42:38Z</time>
      </trkpt>
      <trkpt lat="43.83603" lon="5.9834">
        <ele>563.2</ele>
        <time>2020-06-20T16:42:40Z</time>
      </trkpt>
      <trkpt lat="43.83602" lon="5.9834">
        <ele>563</ele>
        <time>2020-06-20T16:42:41Z</time>
      </trkpt>
      <trkpt lat="43.83601" lon="5.9834">
        <ele>562.8</ele>
        <time>2020-06-20T16:42:42Z</time>
      </trkpt>
      <trkpt lat="43.836" lon="5.9834">
        <ele>562.7</ele>
        <time>2020-06-20T16:42:43Z</time>
      </trkpt>
      <trkpt lat="43.83599" lon="5.9834">
        <ele>562.5</ele>
        <time>2020-06-20T16:42:45Z</time>
      </trkpt>
      <trkpt lat="43.83598" lon="5.9834">
        <ele>562.4</ele>
        <time>2020-06-20T16:42:46Z</time>
      </trkpt>
      <trkpt lat="43.83598" lon="5.9834">
        <ele>562.4</ele>
        <time>2020-06-20T16:42:47Z</time>
      </trkpt>
      <trkpt lat="43.83598" lon="5.9834">
        <ele>562.3</ele>
        <time>2020-06-20T16:42:49Z</time>
      </trkpt>
      <trkpt lat="43.83598" lon="5.9834">
        <ele>562.3</ele>
        <time>2020-06-20T16:42:50Z</time>
      </trkpt>
      <trkpt lat="43.83597" lon="5.98339">
        <ele>562.1</ele>
        <time>2020-06-20T16:42:52Z</time>
      </trkpt>
      <trkpt lat="43.83595" lon="5.98339">
        <ele>561.9</ele>
        <time>2020-06-20T16:42:53Z</time>
      </trkpt>
      <trkpt lat="43.83594" lon="5.98337">
        <ele>561.5</ele>
        <time>2020-06-20T16:42:54Z</time>
      </trkpt>
      <trkpt lat="43.83592" lon="5.98333">
        <ele>561.1</ele>
        <time>2020-06-20T16:42:56Z</time>
      </trkpt>
      <trkpt lat="43.83591" lon="5.98329">
        <ele>560.7</ele>
        <time>2020-06-20T16:42:57Z</time>
      </trkpt>
      <trkpt lat="43.8359" lon="5.98327">
        <ele>560.6</ele>
        <time>2020-06-20T16:42:58Z</time>
      </trkpt>
      <trkpt lat="43.83589" lon="5.98323">
        <ele>560.6</ele>
        <time>2020-06-20T16:43:00Z</time>
      </trkpt>
      <trkpt lat="43.83591" lon="5.98321">
        <ele>560.5</ele>
        <time>2020-06-20T16:43:01Z</time>
      </trkpt>
      <trkpt lat="43.83591" lon="5.98318">
        <ele>560.5</ele>
        <time>2020-06-20T16:43:03Z</time>
      </trkpt>
      <trkpt lat="43.83592" lon="5.98318">
        <ele>560.4</ele>
        <time>2020-06-20T16:43:04Z</time>
      </trkpt>
      <trkpt lat="43.83593" lon="5.98316">
        <ele>560.4</ele>
        <time>2020-06-20T16:43:06Z</time>
      </trkpt>
      <trkpt lat="43.83592" lon="5.98313">
        <ele>560.3</ele>
        <time>2020-06-20T16:43:08Z</time>
      </trkpt>
      <trkpt lat="43.83591" lon="5.98311">
        <ele>560.3</ele>
        <time>2020-06-20T16:43:09Z</time>
      </trkpt>
      <trkpt lat="43.8359" lon="5.9831">
        <ele>560.2</ele>
        <time>2020-06-20T16:43:10Z</time>
      </trkpt>
      <trkpt lat="43.83589" lon="5.98308">
        <ele>560.2</ele>
        <time>2020-06-20T16:43:11Z</time>
      </trkpt>
      <trkpt lat="43.83588" lon="5.98308">
        <ele>560.2</ele>
        <time>2020-06-20T16:43:13Z</time>
      </trkpt>
      <trkpt lat="43.83587" lon="5.98307">
        <ele>558.5</ele>
        <time>2020-06-20T16:43:14Z</time>
      </trkpt>
      <trkpt lat="43.83585" lon="5.98311">
        <ele>558.2</ele>
        <time>2020-06-20T16:43:15Z</time>
      </trkpt>
      <trkpt lat="43.83584" lon="5.98313">
        <ele>558</ele>
        <time>2020-06-20T16:43:16Z</time>
      </trkpt>
      <trkpt lat="43.83581" lon="5.98317">
        <ele>557.7</ele>
        <time>2020-06-20T16:43:18Z</time>
      </trkpt>
      <trkpt lat="43.83581" lon="5.98322">
        <ele>557.3</ele>
        <time>2020-06-20T16:43:20Z</time>
      </trkpt>
      <trkpt lat="43.8358" lon="5.98328">
        <ele>556.9</ele>
        <time>2020-06-20T16:43:21Z</time>
      </trkpt>
      <trkpt lat="43.8358" lon="5.98333">
        <ele>556.6</ele>
        <time>2020-06-20T16:43:22Z</time>
      </trkpt>
      <trkpt lat="43.8358" lon="5.98339">
        <ele>556.2</ele>
        <time>2020-06-20T16:43:24Z</time>
      </trkpt>
      <trkpt lat="43.83578" lon="5.98347">
        <ele>555.7</ele>
        <time>2020-06-20T16:43:25Z</time>
      </trkpt>
      <trkpt lat="43.83582" lon="5.98357">
        <ele>554.7</ele>
        <time>2020-06-20T16:43:26Z</time>
      </trkpt>
      <trkpt lat="43.83586" lon="5.9837">
        <ele>553.5</ele>
        <time>2020-06-20T16:43:28Z</time>
      </trkpt>
      <trkpt lat="43.83589" lon="5.9838">
        <ele>552.6</ele>
        <time>2020-06-20T16:43:29Z</time>
      </trkpt>
      <trkpt lat="43.83591" lon="5.98388">
        <ele>551.9</ele>
        <time>2020-06-20T16:43:31Z</time>
      </trkpt>
      <trkpt lat="43.83594" lon="5.98395">
        <ele>551.3</ele>
        <time>2020-06-20T16:43:32Z</time>
      </trkpt>
      <trkpt lat="43.83596" lon="5.98401">
        <ele>550.8</ele>
        <time>2020-06-20T16:43:34Z</time>
      </trkpt>
      <trkpt lat="43.83598" lon="5.98409">
        <ele>550.2</ele>
        <time>2020-06-20T16:43:35Z</time>
      </trkpt>
      <trkpt lat="43.836" lon="5.98416">
        <ele>549.6</ele>
        <time>2020-06-20T16:43:37Z</time>
      </trkpt>
      <trkpt lat="43.83601" lon="5.98422">
        <ele>549.1</ele>
        <time>2020-06-20T16:43:39Z</time>
      </trkpt>
      <trkpt lat="43.83603" lon="5.98427">
        <ele>548.7</ele>
        <time>2020-06-20T16:43:40Z</time>
      </trkpt>
      <trkpt lat="43.83603" lon="5.98431">
        <ele>547.6</ele>
        <time>2020-06-20T16:43:41Z</time>
      </trkpt>
      <trkpt lat="43.83604" lon="5.98435">
        <ele>546.8</ele>
        <time>2020-06-20T16:43:42Z</time>
      </trkpt>
      <trkpt lat="43.83605" lon="5.98437">
        <ele>546.4</ele>
        <time>2020-06-20T16:43:43Z</time>
      </trkpt>
      <trkpt lat="43.83605" lon="5.98439">
        <ele>545.9</ele>
        <time>2020-06-20T16:43:44Z</time>
      </trkpt>
      <trkpt lat="43.83605" lon="5.9844">
        <ele>545.9</ele>
        <time>2020-06-20T16:43:46Z</time>
      </trkpt>
      <trkpt lat="43.83605" lon="5.98441">
        <ele>545.9</ele>
        <time>2020-06-20T16:43:48Z</time>
      </trkpt>
      <trkpt lat="43.83605" lon="5.98442">
        <ele>545.9</ele>
        <time>2020-06-20T16:43:49Z</time>
      </trkpt>
      <trkpt lat="43.83605" lon="5.98444">
        <ele>545.9</ele>
        <time>2020-06-20T16:43:50Z</time>
      </trkpt>
      <trkpt lat="43.83606" lon="5.98445">
        <ele>545.9</ele>
        <time>2020-06-20T16:43:51Z</time>
      </trkpt>
      <trkpt lat="43.83607" lon="5.98447">
        <ele>545.9</ele>
        <time>2020-06-20T16:43:52Z</time>
      </trkpt>
      <trkpt lat="43.83608" lon="5.9845">
        <ele>545.9</ele>
        <time>2020-06-20T16:43:55Z</time>
      </trkpt>
      <trkpt lat="43.83608" lon="5.98451">
        <ele>545.9</ele>
        <time>2020-06-20T16:43:57Z</time>
      </trkpt>
      <trkpt lat="43.83607" lon="5.9845">
        <ele>545.9</ele>
        <time>2020-06-20T16:43:58Z</time>
      </trkpt>
      <trkpt lat="43.83607" lon="5.9845">
        <ele>545.9</ele>
        <time>2020-06-20T16:44:00Z</time>
      </trkpt>
      <trkpt lat="43.83607" lon="5.98449">
        <ele>545.9</ele>
        <time>2020-06-20T16:44:01Z</time>
      </trkpt>
      <trkpt lat="43.83608" lon="5.98449">
        <ele>545.9</ele>
        <time>2020-06-20T16:44:03Z</time>
      </trkpt>
      <trkpt lat="43.83608" lon="5.98449">
        <ele>545.9</ele>
        <time>2020-06-20T16:44:04Z</time>
      </trkpt>
      <trkpt lat="43.83608" lon="5.98451">
        <ele>545.9</ele>
        <time>2020-06-20T16:44:06Z</time>
      </trkpt>
      <trkpt lat="43.83608" lon="5.98451">
        <ele>545.9</ele>
        <time>2020-06-20T16:44:08Z</time>
      </trkpt>
      <trkpt lat="43.83604" lon="5.98439">
        <ele>545.9</ele>
        <time>2020-06-20T16:44:13Z</time>
      </trkpt>
      <trkpt lat="43.83605" lon="5.98438">
        <ele>545.9</ele>
        <time>2020-06-20T16:44:15Z</time>
      </trkpt>
      <trkpt lat="43.83605" lon="5.98438">
        <ele>545.9</ele>
        <time>2020-06-20T16:44:17Z</time>
      </trkpt>
      <trkpt lat="43.83605" lon="5.98438">
        <ele>545.9</ele>
        <time>2020-06-20T16:44:18Z</time>
      </trkpt>
      <trkpt lat="43.83605" lon="5.98438">
        <ele>545.9</ele>
        <time>2020-06-20T16:44:19Z</time>
      </trkpt>
      <trkpt lat="43.83605" lon="5.98438">
        <ele>545.9</ele>
        <time>2020-06-20T16:44:20Z</time>
      </trkpt>
      <trkpt lat="43.83605" lon="5.98438">
        <ele>545.9</ele>
        <time>2020-06-20T16:44:22Z</time>
      </trkpt>
      <trkpt lat="43.83605" lon="5.98438">
        <ele>545.9</ele>
        <time>2020-06-20T16:44:24Z</time>
      </trkpt>
      <trkpt lat="43.83605" lon="5.98438">
        <ele>545.9</ele>
        <time>2020-06-20T16:44:25Z</time>
      </trkpt>
      <trkpt lat="43.83605" lon="5.98438">
        <ele>545.9</ele>
        <time>2020-06-20T16:44:26Z</time>
      </trkpt>
      <trkpt lat="43.83605" lon="5.98438">
        <ele>545.9</ele>
        <time>2020-06-20T16:44:29Z</time>
      </trkpt>
      <trkpt lat="43.83605" lon="5.98438">
        <ele>545.9</ele>
        <time>2020-06-20T16:44:30Z</time>
      </trkpt>
      <trkpt lat="43.83605" lon="5.98438">
        <ele>545.9</ele>
        <time>2020-06-20T16:44:31Z</time>
      </trkpt>
      <trkpt lat="43.83605" lon="5.98438">
        <ele>545.9</ele>
        <time>2020-06-20T16:44:33Z</time>
      </trkpt>
      <trkpt lat="43.83605" lon="5.98438">
        <ele>545.9</ele>
        <time>2020-06-20T16:44:35Z</time>
      </trkpt>
      <trkpt lat="43.83605" lon="5.98438">
        <ele>545.9</ele>
        <time>2020-06-20T16:44:36Z</time>
      </trkpt>
      <trkpt lat="43.83605" lon="5.98438">
        <ele>545.9</ele>
        <time>2020-06-20T16:44:37Z</time>
      </trkpt>
      <trkpt lat="43.83605" lon="5.98438">
        <ele>545.9</ele>
        <time>2020-06-20T16:44:38Z</time>
      </trkpt>
      <trkpt lat="43.83605" lon="5.98438">
        <ele>545.9</ele>
        <time>2020-06-20T16:44:40Z</time>
      </trkpt>
      <trkpt lat="43.83606" lon="5.98437">
        <ele>545.9</ele>
        <time>2020-06-20T16:44:41Z</time>
      </trkpt>
      <trkpt lat="43.83606" lon="5.98437">
        <ele>545.9</ele>
        <time>2020-06-20T16:44:42Z</time>
      </trkpt>
      <trkpt lat="43.83605" lon="5.98438">
        <ele>545.9</ele>
        <time>2020-06-20T16:44:43Z</time>
      </trkpt>
      <trkpt lat="43.83605" lon="5.98438">
        <ele>545.9</ele>
        <time>2020-06-20T16:44:45Z</time>
      </trkpt>
      <trkpt lat="43.83605" lon="5.98438">
        <ele>545.9</ele>
        <time>2020-06-20T16:44:46Z</time>
      </trkpt>
      <trkpt lat="43.83605" lon="5.98438">
        <ele>545.9</ele>
        <time>2020-06-20T16:44:48Z</time>
      </trkpt>
      <trkpt lat="43.83605" lon="5.98438">
        <ele>545.9</ele>
        <time>2020-06-20T16:44:49Z</time>
      </trkpt>
      <trkpt lat="43.83605" lon="5.98438">
        <ele>545.9</ele>
        <time>2020-06-20T16:44:50Z</time>
      </trkpt>
      <trkpt lat="43.83605" lon="5.98438">
        <ele>545.9</ele>
        <time>2020-06-20T16:44:51Z</time>
      </trkpt>
      <trkpt lat="43.83605" lon="5.98438">
        <ele>545.9</ele>
        <time>2020-06-20T16:44:52Z</time>
      </trkpt>
      <trkpt lat="43.83607" lon="5.98444">
        <ele>545.9</ele>
        <time>2020-06-20T16:46:08Z</time>
      </trkpt>
      <trkpt lat="43.83607" lon="5.98447">
        <ele>545.9</ele>
        <time>2020-06-20T16:46:10Z</time>
      </trkpt>
      <trkpt lat="43.83605" lon="5.98449">
        <ele>545.9</ele>
        <time>2020-06-20T16:46:12Z</time>
      </trkpt>
      <trkpt lat="43.83601" lon="5.98449">
        <ele>545.9</ele>
        <time>2020-06-20T16:46:13Z</time>
      </trkpt>
      <trkpt lat="43.83598" lon="5.98447">
        <ele>544.8</ele>
        <time>2020-06-20T16:46:14Z</time>
      </trkpt>
      <trkpt lat="43.83597" lon="5.98446">
        <ele>544.3</ele>
        <time>2020-06-20T16:46:15Z</time>
      </trkpt>
      <trkpt lat="43.83594" lon="5.98444">
        <ele>543.7</ele>
        <time>2020-06-20T16:46:17Z</time>
      </trkpt>
      <trkpt lat="43.83592" lon="5.98441">
        <ele>543.7</ele>
        <time>2020-06-20T16:46:18Z</time>
      </trkpt>
      <trkpt lat="43.8359" lon="5.98438">
        <ele>542.6</ele>
        <time>2020-06-20T16:46:20Z</time>
      </trkpt>
      <trkpt lat="43.83587" lon="5.98436">
        <ele>541.9</ele>
        <time>2020-06-20T16:46:21Z</time>
      </trkpt>
      <trkpt lat="43.83578" lon="5.98431">
        <ele>541</ele>
        <time>2020-06-20T16:46:22Z</time>
      </trkpt>
      <trkpt lat="43.8358" lon="5.98433">
        <ele>541</ele>
        <time>2020-06-20T16:46:23Z</time>
      </trkpt>
      <trkpt lat="43.83582" lon="5.98435">
        <ele>540.9</ele>
        <time>2020-06-20T16:46:24Z</time>
      </trkpt>
      <trkpt lat="43.83584" lon="5.9843">
        <ele>540.8</ele>
        <time>2020-06-20T16:46:26Z</time>
      </trkpt>
      <trkpt lat="43.83582" lon="5.98427">
        <ele>540.7</ele>
        <time>2020-06-20T16:46:27Z</time>
      </trkpt>
      <trkpt lat="43.83574" lon="5.98425">
        <ele>540.5</ele>
        <time>2020-06-20T16:46:28Z</time>
      </trkpt>
      <trkpt lat="43.83566" lon="5.98415">
        <ele>540.1</ele>
        <time>2020-06-20T16:46:30Z</time>
      </trkpt>
      <trkpt lat="43.83561" lon="5.98407">
        <ele>539.8</ele>
        <time>2020-06-20T16:46:31Z</time>
      </trkpt>
      <trkpt lat="43.83551" lon="5.98396">
        <ele>539.3</ele>
        <time>2020-06-20T16:46:33Z</time>
      </trkpt>
      <trkpt lat="43.83543" lon="5.98392">
        <ele>539</ele>
        <time>2020-06-20T16:46:34Z</time>
      </trkpt>
      <trkpt lat="43.83537" lon="5.98389">
        <ele>538.8</ele>
        <time>2020-06-20T16:46:35Z</time>
      </trkpt>
      <trkpt lat="43.83533" lon="5.98387">
        <ele>538.6</ele>
        <time>2020-06-20T16:46:36Z</time>
      </trkpt>
      <trkpt lat="43.8353" lon="5.98384">
        <ele>538.5</ele>
        <time>2020-06-20T16:46:37Z</time>
      </trkpt>
      <trkpt lat="43.83525" lon="5.98381">
        <ele>538.4</ele>
        <time>2020-06-20T16:46:39Z</time>
      </trkpt>
      <trkpt lat="43.83521" lon="5.98379">
        <ele>538.3</ele>
        <time>2020-06-20T16:46:40Z</time>
      </trkpt>
      <trkpt lat="43.83511" lon="5.98371">
        <ele>538</ele>
        <time>2020-06-20T16:46:42Z</time>
      </trkpt>
      <trkpt lat="43.83505" lon="5.98365">
        <ele>537.7</ele>
        <time>2020-06-20T16:46:43Z</time>
      </trkpt>
      <trkpt lat="43.83495" lon="5.98357">
        <ele>537.3</ele>
        <time>2020-06-20T16:46:45Z</time>
      </trkpt>
      <trkpt lat="43.83489" lon="5.98354">
        <ele>537</ele>
        <time>2020-06-20T16:46:46Z</time>
      </trkpt>
      <trkpt lat="43.83485" lon="5.98353">
        <ele>536.8</ele>
        <time>2020-06-20T16:46:47Z</time>
      </trkpt>
      <trkpt lat="43.83482" lon="5.98353">
        <ele>536.7</ele>
        <time>2020-06-20T16:46:48Z</time>
      </trkpt>
      <trkpt lat="43.83475" lon="5.98356">
        <ele>536.6</ele>
        <time>2020-06-20T16:46:50Z</time>
      </trkpt>
      <trkpt lat="43.83468" lon="5.98356">
        <ele>536.8</ele>
        <time>2020-06-20T16:46:52Z</time>
      </trkpt>
      <trkpt lat="43.83466" lon="5.98356">
        <ele>536.9</ele>
        <time>2020-06-20T16:46:53Z</time>
      </trkpt>
      <trkpt lat="43.83466" lon="5.98356">
        <ele>537</ele>
        <time>2020-06-20T16:46:54Z</time>
      </trkpt>
      <trkpt lat="43.83465" lon="5.98357">
        <ele>537</ele>
        <time>2020-06-20T16:46:56Z</time>
      </trkpt>
      <trkpt lat="43.83464" lon="5.98358">
        <ele>537.1</ele>
        <time>2020-06-20T16:46:57Z</time>
      </trkpt>
      <trkpt lat="43.83464" lon="5.98359">
        <ele>537.1</ele>
        <time>2020-06-20T16:46:58Z</time>
      </trkpt>
      <trkpt lat="43.83464" lon="5.98361">
        <ele>537.1</ele>
        <time>2020-06-20T16:47:00Z</time>
      </trkpt>
      <trkpt lat="43.83464" lon="5.98361">
        <ele>537.2</ele>
        <time>2020-06-20T16:47:02Z</time>
      </trkpt>
      <trkpt lat="43.83464" lon="5.98361">
        <ele>537.2</ele>
        <time>2020-06-20T16:47:03Z</time>
      </trkpt>
      <trkpt lat="43.83464" lon="5.98361">
        <ele>537.2</ele>
        <time>2020-06-20T16:47:04Z</time>
      </trkpt>
      <trkpt lat="43.83464" lon="5.98359">
        <ele>537.2</ele>
        <time>2020-06-20T16:47:06Z</time>
      </trkpt>
      <trkpt lat="43.83464" lon="5.98358">
        <ele>537.3</ele>
        <time>2020-06-20T16:47:07Z</time>
      </trkpt>
      <trkpt lat="43.83464" lon="5.98356">
        <ele>537.3</ele>
        <time>2020-06-20T16:47:09Z</time>
      </trkpt>
      <trkpt lat="43.83464" lon="5.98353">
        <ele>537.4</ele>
        <time>2020-06-20T16:47:11Z</time>
      </trkpt>
      <trkpt lat="43.83464" lon="5.98353">
        <ele>537.4</ele>
        <time>2020-06-20T16:47:12Z</time>
      </trkpt>
      <trkpt lat="43.83464" lon="5.98354">
        <ele>537.5</ele>
        <time>2020-06-20T16:47:13Z</time>
      </trkpt>
      <trkpt lat="43.83463" lon="5.98354">
        <ele>537.5</ele>
        <time>2020-06-20T16:47:15Z</time>
      </trkpt>
      <trkpt lat="43.83463" lon="5.98354">
        <ele>537.5</ele>
        <time>2020-06-20T16:47:16Z</time>
      </trkpt>
      <trkpt lat="43.83464" lon="5.98356">
        <ele>537.6</ele>
        <time>2020-06-20T16:47:18Z</time>
      </trkpt>
      <trkpt lat="43.83464" lon="5.98356">
        <ele>537.6</ele>
        <time>2020-06-20T16:47:20Z</time>
      </trkpt>
      <trkpt lat="43.83464" lon="5.98356">
        <ele>537.6</ele>
        <time>2020-06-20T16:47:21Z</time>
      </trkpt>
      <trkpt lat="43.83464" lon="5.98356">
        <ele>537.6</ele>
        <time>2020-06-20T16:47:22Z</time>
      </trkpt>
      <trkpt lat="43.83464" lon="5.98356">
        <ele>537.6</ele>
        <time>2020-06-20T16:47:23Z</time>
      </trkpt>
      <trkpt lat="43.83466" lon="5.9836">
        <ele>537.7</ele>
        <time>2020-06-20T16:47:36Z</time>
      </trkpt>
      <trkpt lat="43.83467" lon="5.98363">
        <ele>537.8</ele>
        <time>2020-06-20T16:47:37Z</time>
      </trkpt>
      <trkpt lat="43.83468" lon="5.98363">
        <ele>537.8</ele>
        <time>2020-06-20T16:47:38Z</time>
      </trkpt>
      <trkpt lat="43.83471" lon="5.98363">
        <ele>538</ele>
        <time>2020-06-20T16:47:40Z</time>
      </trkpt>
      <trkpt lat="43.83475" lon="5.98361">
        <ele>538.1</ele>
        <time>2020-06-20T16:47:42Z</time>
      </trkpt>
      <trkpt lat="43.83476" lon="5.98358">
        <ele>538.3</ele>
        <time>2020-06-20T16:47:43Z</time>
      </trkpt>
      <trkpt lat="43.83477" lon="5.98352">
        <ele>538.4</ele>
        <time>2020-06-20T16:47:44Z</time>
      </trkpt>
      <trkpt lat="43.83475" lon="5.98345">
        <ele>538.6</ele>
        <time>2020-06-20T16:47:46Z</time>
      </trkpt>
      <trkpt lat="43.83471" lon="5.98341">
        <ele>538.8</ele>
        <time>2020-06-20T16:47:47Z</time>
      </trkpt>
      <trkpt lat="43.83465" lon="5.98335">
        <ele>539.1</ele>
        <time>2020-06-20T16:47:49Z</time>
      </trkpt>
      <trkpt lat="43.83461" lon="5.98332">
        <ele>539.3</ele>
        <time>2020-06-20T16:47:50Z</time>
      </trkpt>
      <trkpt lat="43.83458" lon="5.98326">
        <ele>539.8</ele>
        <time>2020-06-20T16:47:52Z</time>
      </trkpt>
      <trkpt lat="43.83457" lon="5.98324">
        <ele>539.9</ele>
        <time>2020-06-20T16:47:53Z</time>
      </trkpt>
      <trkpt lat="43.83457" lon="5.98322">
        <ele>540</ele>
        <time>2020-06-20T16:47:54Z</time>
      </trkpt>
      <trkpt lat="43.83454" lon="5.98319">
        <ele>540.4</ele>
        <time>2020-06-20T16:47:55Z</time>
      </trkpt>
      <trkpt lat="43.83453" lon="5.98318">
        <ele>540.5</ele>
        <time>2020-06-20T16:47:56Z</time>
      </trkpt>
      <trkpt lat="43.83452" lon="5.98313">
        <ele>540.9</ele>
        <time>2020-06-20T16:47:57Z</time>
      </trkpt>
      <trkpt lat="43.83451" lon="5.98312">
        <ele>541</ele>
        <time>2020-06-20T16:47:58Z</time>
      </trkpt>
      <trkpt lat="43.83449" lon="5.98307">
        <ele>541.4</ele>
        <time>2020-06-20T16:48:00Z</time>
      </trkpt>
      <trkpt lat="43.83447" lon="5.98304">
        <ele>541.8</ele>
        <time>2020-06-20T16:48:01Z</time>
      </trkpt>
      <trkpt lat="43.83446" lon="5.98303">
        <ele>541.9</ele>
        <time>2020-06-20T16:48:02Z</time>
      </trkpt>
      <trkpt lat="43.83445" lon="5.98301">
        <ele>542.1</ele>
        <time>2020-06-20T16:48:03Z</time>
      </trkpt>
      <trkpt lat="43.83444" lon="5.98299">
        <ele>542.3</ele>
        <time>2020-06-20T16:48:04Z</time>
      </trkpt>
      <trkpt lat="43.83443" lon="5.98297">
        <ele>542.4</ele>
        <time>2020-06-20T16:48:05Z</time>
      </trkpt>
      <trkpt lat="43.83441" lon="5.98294">
        <ele>542.8</ele>
        <time>2020-06-20T16:48:07Z</time>
      </trkpt>
      <trkpt lat="43.83438" lon="5.9829">
        <ele>543.1</ele>
        <time>2020-06-20T16:48:08Z</time>
      </trkpt>
      <trkpt lat="43.83437" lon="5.98289">
        <ele>543.2</ele>
        <time>2020-06-20T16:48:09Z</time>
      </trkpt>
      <trkpt lat="43.83434" lon="5.98288">
        <ele>543.4</ele>
        <time>2020-06-20T16:48:10Z</time>
      </trkpt>
      <trkpt lat="43.83433" lon="5.98287">
        <ele>543.5</ele>
        <time>2020-06-20T16:48:11Z</time>
      </trkpt>
      <trkpt lat="43.83432" lon="5.98287">
        <ele>543.6</ele>
        <time>2020-06-20T16:48:13Z</time>
      </trkpt>
      <trkpt lat="43.83431" lon="5.98286">
        <ele>543.8</ele>
        <time>2020-06-20T16:48:14Z</time>
      </trkpt>
      <trkpt lat="43.83429" lon="5.98285">
        <ele>543.9</ele>
        <time>2020-06-20T16:48:15Z</time>
      </trkpt>
      <trkpt lat="43.83428" lon="5.98283">
        <ele>544.1</ele>
        <time>2020-06-20T16:48:16Z</time>
      </trkpt>
      <trkpt lat="43.83427" lon="5.98281">
        <ele>544.3</ele>
        <time>2020-06-20T16:48:17Z</time>
      </trkpt>
      <trkpt lat="43.83425" lon="5.98278">
        <ele>544.6</ele>
        <time>2020-06-20T16:48:19Z</time>
      </trkpt>
      <trkpt lat="43.83424" lon="5.98276">
        <ele>544.8</ele>
        <time>2020-06-20T16:48:20Z</time>
      </trkpt>
      <trkpt lat="43.83423" lon="5.98274">
        <ele>545</ele>
        <time>2020-06-20T16:48:22Z</time>
      </trkpt>
      <trkpt lat="43.83421" lon="5.98271">
        <ele>545.2</ele>
        <time>2020-06-20T16:48:23Z</time>
      </trkpt>
      <trkpt lat="43.83421" lon="5.98265">
        <ele>545.6</ele>
        <time>2020-06-20T16:48:25Z</time>
      </trkpt>
      <trkpt lat="43.8342" lon="5.98256">
        <ele>546.1</ele>
        <time>2020-06-20T16:48:27Z</time>
      </trkpt>
      <trkpt lat="43.8342" lon="5.9825">
        <ele>546.3</ele>
        <time>2020-06-20T16:48:29Z</time>
      </trkpt>
      <trkpt lat="43.8342" lon="5.98244">
        <ele>546.6</ele>
        <time>2020-06-20T16:48:30Z</time>
      </trkpt>
      <trkpt lat="43.83419" lon="5.98242">
        <ele>546.7</ele>
        <time>2020-06-20T16:48:31Z</time>
      </trkpt>
      <trkpt lat="43.83418" lon="5.98237">
        <ele>546.9</ele>
        <time>2020-06-20T16:48:33Z</time>
      </trkpt>
      <trkpt lat="43.83418" lon="5.9823">
        <ele>547.1</ele>
        <time>2020-06-20T16:48:34Z</time>
      </trkpt>
      <trkpt lat="43.83417" lon="5.98222">
        <ele>547.3</ele>
        <time>2020-06-20T16:48:36Z</time>
      </trkpt>
      <trkpt lat="43.83417" lon="5.98217">
        <ele>547.5</ele>
        <time>2020-06-20T16:48:37Z</time>
      </trkpt>
      <trkpt lat="43.83415" lon="5.98212">
        <ele>547.7</ele>
        <time>2020-06-20T16:48:39Z</time>
      </trkpt>
      <trkpt lat="43.83414" lon="5.98208">
        <ele>547.8</ele>
        <time>2020-06-20T16:48:40Z</time>
      </trkpt>
      <trkpt lat="43.83412" lon="5.98203">
        <ele>548</ele>
        <time>2020-06-20T16:48:42Z</time>
      </trkpt>
      <trkpt lat="43.83411" lon="5.98199">
        <ele>548.1</ele>
        <time>2020-06-20T16:48:43Z</time>
      </trkpt>
      <trkpt lat="43.8341" lon="5.98194">
        <ele>548.2</ele>
        <time>2020-06-20T16:48:45Z</time>
      </trkpt>
      <trkpt lat="43.83409" lon="5.98191">
        <ele>548.3</ele>
        <time>2020-06-20T16:48:46Z</time>
      </trkpt>
      <trkpt lat="43.83408" lon="5.98186">
        <ele>548.4</ele>
        <time>2020-06-20T16:48:48Z</time>
      </trkpt>
      <trkpt lat="43.83408" lon="5.98182">
        <ele>548.7</ele>
        <time>2020-06-20T16:48:49Z</time>
      </trkpt>
      <trkpt lat="43.83408" lon="5.98178">
        <ele>548.9</ele>
        <time>2020-06-20T16:48:50Z</time>
      </trkpt>
      <trkpt lat="43.83409" lon="5.9817">
        <ele>549.2</ele>
        <time>2020-06-20T16:48:52Z</time>
      </trkpt>
      <trkpt lat="43.83409" lon="5.98166">
        <ele>549.3</ele>
        <time>2020-06-20T16:48:54Z</time>
      </trkpt>
      <trkpt lat="43.83409" lon="5.98162">
        <ele>549.5</ele>
        <time>2020-06-20T16:48:55Z</time>
      </trkpt>
      <trkpt lat="43.83409" lon="5.98157">
        <ele>549.7</ele>
        <time>2020-06-20T16:48:56Z</time>
      </trkpt>
      <trkpt lat="43.8341" lon="5.98155">
        <ele>549.7</ele>
        <time>2020-06-20T16:48:57Z</time>
      </trkpt>
      <trkpt lat="43.8341" lon="5.98151">
        <ele>549.8</ele>
        <time>2020-06-20T16:48:59Z</time>
      </trkpt>
      <trkpt lat="43.83411" lon="5.98147">
        <ele>549.9</ele>
        <time>2020-06-20T16:49:00Z</time>
      </trkpt>
      <trkpt lat="43.83411" lon="5.98144">
        <ele>549.9</ele>
        <time>2020-06-20T16:49:01Z</time>
      </trkpt>
      <trkpt lat="43.83413" lon="5.98138">
        <ele>549.9</ele>
        <time>2020-06-20T16:49:03Z</time>
      </trkpt>
      <trkpt lat="43.83415" lon="5.98135">
        <ele>549.9</ele>
        <time>2020-06-20T16:49:04Z</time>
      </trkpt>
      <trkpt lat="43.83415" lon="5.98134">
        <ele>549.9</ele>
        <time>2020-06-20T16:49:05Z</time>
      </trkpt>
      <trkpt lat="43.83417" lon="5.9813">
        <ele>549.8</ele>
        <time>2020-06-20T16:49:06Z</time>
      </trkpt>
      <trkpt lat="43.83418" lon="5.98126">
        <ele>549.6</ele>
        <time>2020-06-20T16:49:08Z</time>
      </trkpt>
      <trkpt lat="43.8342" lon="5.98121">
        <ele>549.6</ele>
        <time>2020-06-20T16:49:09Z</time>
      </trkpt>
      <trkpt lat="43.83421" lon="5.98119">
        <ele>549.6</ele>
        <time>2020-06-20T16:49:10Z</time>
      </trkpt>
      <trkpt lat="43.83423" lon="5.98113">
        <ele>549.5</ele>
        <time>2020-06-20T16:49:12Z</time>
      </trkpt>
      <trkpt lat="43.83425" lon="5.98108">
        <ele>549.5</ele>
        <time>2020-06-20T16:49:13Z</time>
      </trkpt>
      <trkpt lat="43.83426" lon="5.98104">
        <ele>549.4</ele>
        <time>2020-06-20T16:49:14Z</time>
      </trkpt>
      <trkpt lat="43.83427" lon="5.98101">
        <ele>549.4</ele>
        <time>2020-06-20T16:49:15Z</time>
      </trkpt>
      <trkpt lat="43.83428" lon="5.98095">
        <ele>549.4</ele>
        <time>2020-06-20T16:49:17Z</time>
      </trkpt>
      <trkpt lat="43.83427" lon="5.98086">
        <ele>549.2</ele>
        <time>2020-06-20T16:49:19Z</time>
      </trkpt>
      <trkpt lat="43.83424" lon="5.9808">
        <ele>549.3</ele>
        <time>2020-06-20T16:49:20Z</time>
      </trkpt>
      <trkpt lat="43.83422" lon="5.98076">
        <ele>549.3</ele>
        <time>2020-06-20T16:49:21Z</time>
      </trkpt>
      <trkpt lat="43.8342" lon="5.98072">
        <ele>549.4</ele>
        <time>2020-06-20T16:49:22Z</time>
      </trkpt>
      <trkpt lat="43.83416" lon="5.98068">
        <ele>549.5</ele>
        <time>2020-06-20T16:49:24Z</time>
      </trkpt>
      <trkpt lat="43.83413" lon="5.98064">
        <ele>549.7</ele>
        <time>2020-06-20T16:49:25Z</time>
      </trkpt>
      <trkpt lat="43.83411" lon="5.98061">
        <ele>549.8</ele>
        <time>2020-06-20T16:49:26Z</time>
      </trkpt>
      <trkpt lat="43.83407" lon="5.98057">
        <ele>550</ele>
        <time>2020-06-20T16:49:28Z</time>
      </trkpt>
      <trkpt lat="43.83405" lon="5.98055">
        <ele>550.2</ele>
        <time>2020-06-20T16:49:29Z</time>
      </trkpt>
      <trkpt lat="43.83403" lon="5.98052">
        <ele>550.4</ele>
        <time>2020-06-20T16:49:30Z</time>
      </trkpt>
      <trkpt lat="43.83401" lon="5.98049">
        <ele>550.6</ele>
        <time>2020-06-20T16:49:31Z</time>
      </trkpt>
      <trkpt lat="43.834" lon="5.98047">
        <ele>550.7</ele>
        <time>2020-06-20T16:49:32Z</time>
      </trkpt>
      <trkpt lat="43.83398" lon="5.98044">
        <ele>551</ele>
        <time>2020-06-20T16:49:34Z</time>
      </trkpt>
      <trkpt lat="43.83396" lon="5.98042">
        <ele>551.2</ele>
        <time>2020-06-20T16:49:35Z</time>
      </trkpt>
      <trkpt lat="43.83395" lon="5.98041">
        <ele>551.3</ele>
        <time>2020-06-20T16:49:36Z</time>
      </trkpt>
      <trkpt lat="43.83392" lon="5.98039">
        <ele>551.7</ele>
        <time>2020-06-20T16:49:37Z</time>
      </trkpt>
      <trkpt lat="43.83391" lon="5.98038">
        <ele>551.8</ele>
        <time>2020-06-20T16:49:38Z</time>
      </trkpt>
      <trkpt lat="43.83389" lon="5.98035">
        <ele>552.1</ele>
        <time>2020-06-20T16:49:39Z</time>
      </trkpt>
      <trkpt lat="43.83388" lon="5.98034">
        <ele>552.3</ele>
        <time>2020-06-20T16:49:40Z</time>
      </trkpt>
      <trkpt lat="43.83385" lon="5.98032">
        <ele>552.6</ele>
        <time>2020-06-20T16:49:42Z</time>
      </trkpt>
      <trkpt lat="43.83384" lon="5.98032">
        <ele>552.7</ele>
        <time>2020-06-20T16:49:43Z</time>
      </trkpt>
      <trkpt lat="43.83381" lon="5.98031">
        <ele>553</ele>
        <time>2020-06-20T16:49:44Z</time>
      </trkpt>
      <trkpt lat="43.8338" lon="5.98031">
        <ele>553.2</ele>
        <time>2020-06-20T16:49:45Z</time>
      </trkpt>
      <trkpt lat="43.83377" lon="5.9803">
        <ele>553.4</ele>
        <time>2020-06-20T16:49:46Z</time>
      </trkpt>
      <trkpt lat="43.83376" lon="5.98029">
        <ele>553.5</ele>
        <time>2020-06-20T16:49:47Z</time>
      </trkpt>
      <trkpt lat="43.83374" lon="5.98025">
        <ele>553.8</ele>
        <time>2020-06-20T16:49:49Z</time>
      </trkpt>
      <trkpt lat="43.83374" lon="5.98024">
        <ele>553.9</ele>
        <time>2020-06-20T16:49:50Z</time>
      </trkpt>
      <trkpt lat="43.83372" lon="5.98022">
        <ele>554.1</ele>
        <time>2020-06-20T16:49:51Z</time>
      </trkpt>
      <trkpt lat="43.83371" lon="5.98021">
        <ele>554.2</ele>
        <time>2020-06-20T16:49:52Z</time>
      </trkpt>
      <trkpt lat="43.83368" lon="5.98017">
        <ele>554.5</ele>
        <time>2020-06-20T16:49:54Z</time>
      </trkpt>
      <trkpt lat="43.83365" lon="5.98013">
        <ele>554.8</ele>
        <time>2020-06-20T16:49:56Z</time>
      </trkpt>
      <trkpt lat="43.83363" lon="5.9801">
        <ele>555</ele>
        <time>2020-06-20T16:49:57Z</time>
      </trkpt>
      <trkpt lat="43.83362" lon="5.98008">
        <ele>555.1</ele>
        <time>2020-06-20T16:49:58Z</time>
      </trkpt>
      <trkpt lat="43.8336" lon="5.98003">
        <ele>555.2</ele>
        <time>2020-06-20T16:50:00Z</time>
      </trkpt>
      <trkpt lat="43.83358" lon="5.97998">
        <ele>555.3</ele>
        <time>2020-06-20T16:50:01Z</time>
      </trkpt>
      <trkpt lat="43.83357" lon="5.97995">
        <ele>555.4</ele>
        <time>2020-06-20T16:50:02Z</time>
      </trkpt>
      <trkpt lat="43.83355" lon="5.9799">
        <ele>555.4</ele>
        <time>2020-06-20T16:50:04Z</time>
      </trkpt>
      <trkpt lat="43.83353" lon="5.97981">
        <ele>555.2</ele>
        <time>2020-06-20T16:50:06Z</time>
      </trkpt>
      <trkpt lat="43.83351" lon="5.97972">
        <ele>555</ele>
        <time>2020-06-20T16:50:07Z</time>
      </trkpt>
      <trkpt lat="43.83351" lon="5.97965">
        <ele>554.8</ele>
        <time>2020-06-20T16:50:09Z</time>
      </trkpt>
      <trkpt lat="43.8335" lon="5.97958">
        <ele>554.6</ele>
        <time>2020-06-20T16:50:10Z</time>
      </trkpt>
      <trkpt lat="43.83351" lon="5.97946">
        <ele>554</ele>
        <time>2020-06-20T16:50:11Z</time>
      </trkpt>
      <trkpt lat="43.83351" lon="5.97938">
        <ele>553.5</ele>
        <time>2020-06-20T16:50:12Z</time>
      </trkpt>
      <trkpt lat="43.83348" lon="5.97922">
        <ele>552.7</ele>
        <time>2020-06-20T16:50:14Z</time>
      </trkpt>
      <trkpt lat="43.83341" lon="5.97913">
        <ele>552.4</ele>
        <time>2020-06-20T16:50:16Z</time>
      </trkpt>
      <trkpt lat="43.83335" lon="5.97911">
        <ele>552.2</ele>
        <time>2020-06-20T16:50:18Z</time>
      </trkpt>
      <trkpt lat="43.83332" lon="5.97909">
        <ele>552.2</ele>
        <time>2020-06-20T16:50:19Z</time>
      </trkpt>
      <trkpt lat="43.83328" lon="5.97906">
        <ele>552.2</ele>
        <time>2020-06-20T16:50:20Z</time>
      </trkpt>
      <trkpt lat="43.83324" lon="5.97903">
        <ele>552.2</ele>
        <time>2020-06-20T16:50:22Z</time>
      </trkpt>
      <trkpt lat="43.83319" lon="5.97899">
        <ele>552.3</ele>
        <time>2020-06-20T16:50:23Z</time>
      </trkpt>
      <trkpt lat="43.83314" lon="5.97893">
        <ele>552.4</ele>
        <time>2020-06-20T16:50:25Z</time>
      </trkpt>
      <trkpt lat="43.83311" lon="5.97888">
        <ele>552.4</ele>
        <time>2020-06-20T16:50:26Z</time>
      </trkpt>
      <trkpt lat="43.83308" lon="5.97883">
        <ele>552.6</ele>
        <time>2020-06-20T16:50:27Z</time>
      </trkpt>
      <trkpt lat="43.83306" lon="5.97879">
        <ele>552.7</ele>
        <time>2020-06-20T16:50:29Z</time>
      </trkpt>
      <trkpt lat="43.83305" lon="5.97876">
        <ele>552.8</ele>
        <time>2020-06-20T16:50:30Z</time>
      </trkpt>
      <trkpt lat="43.83304" lon="5.9787">
        <ele>552.9</ele>
        <time>2020-06-20T16:50:31Z</time>
      </trkpt>
      <trkpt lat="43.83303" lon="5.97863">
        <ele>553</ele>
        <time>2020-06-20T16:50:33Z</time>
      </trkpt>
      <trkpt lat="43.83302" lon="5.97856">
        <ele>553.1</ele>
        <time>2020-06-20T16:50:34Z</time>
      </trkpt>
      <trkpt lat="43.83301" lon="5.97849">
        <ele>553.1</ele>
        <time>2020-06-20T16:50:36Z</time>
      </trkpt>
      <trkpt lat="43.83299" lon="5.97843">
        <ele>553.2</ele>
        <time>2020-06-20T16:50:37Z</time>
      </trkpt>
      <trkpt lat="43.83299" lon="5.97836">
        <ele>553.2</ele>
        <time>2020-06-20T16:50:39Z</time>
      </trkpt>
      <trkpt lat="43.83299" lon="5.97828">
        <ele>553.3</ele>
        <time>2020-06-20T16:50:40Z</time>
      </trkpt>
      <trkpt lat="43.83299" lon="5.97819">
        <ele>553.3</ele>
        <time>2020-06-20T16:50:42Z</time>
      </trkpt>
      <trkpt lat="43.833" lon="5.97813">
        <ele>553.4</ele>
        <time>2020-06-20T16:50:43Z</time>
      </trkpt>
      <trkpt lat="43.83301" lon="5.97807">
        <ele>553.4</ele>
        <time>2020-06-20T16:50:44Z</time>
      </trkpt>
      <trkpt lat="43.83301" lon="5.97799">
        <ele>553.5</ele>
        <time>2020-06-20T16:50:46Z</time>
      </trkpt>
      <trkpt lat="43.83301" lon="5.97793">
        <ele>553.6</ele>
        <time>2020-06-20T16:50:47Z</time>
      </trkpt>
      <trkpt lat="43.833" lon="5.97786">
        <ele>553.7</ele>
        <time>2020-06-20T16:50:49Z</time>
      </trkpt>
      <trkpt lat="43.83301" lon="5.97782">
        <ele>553.8</ele>
        <time>2020-06-20T16:50:50Z</time>
      </trkpt>
      <trkpt lat="43.83301" lon="5.97778">
        <ele>553.9</ele>
        <time>2020-06-20T16:50:51Z</time>
      </trkpt>
      <trkpt lat="43.83302" lon="5.97777">
        <ele>553.9</ele>
        <time>2020-06-20T16:50:52Z</time>
      </trkpt>
      <trkpt lat="43.83303" lon="5.97775">
        <ele>554</ele>
        <time>2020-06-20T16:50:54Z</time>
      </trkpt>
      <trkpt lat="43.83304" lon="5.97774">
        <ele>554</ele>
        <time>2020-06-20T16:50:55Z</time>
      </trkpt>
      <trkpt lat="43.83305" lon="5.97774">
        <ele>554</ele>
        <time>2020-06-20T16:50:57Z</time>
      </trkpt>
      <trkpt lat="43.83305" lon="5.97774">
        <ele>554</ele>
        <time>2020-06-20T16:50:59Z</time>
      </trkpt>
      <trkpt lat="43.83306" lon="5.97774">
        <ele>554.1</ele>
        <time>2020-06-20T16:51:00Z</time>
      </trkpt>
      <trkpt lat="43.83307" lon="5.97773">
        <ele>554.1</ele>
        <time>2020-06-20T16:51:02Z</time>
      </trkpt>
      <trkpt lat="43.83307" lon="5.97773">
        <ele>554.1</ele>
        <time>2020-06-20T16:51:06Z</time>
      </trkpt>
      <trkpt lat="43.83308" lon="5.97773">
        <ele>554.1</ele>
        <time>2020-06-20T16:51:07Z</time>
      </trkpt>
      <trkpt lat="43.83309" lon="5.97772">
        <ele>554.1</ele>
        <time>2020-06-20T16:51:08Z</time>
      </trkpt>
      <trkpt lat="43.83308" lon="5.9777">
        <ele>554.2</ele>
        <time>2020-06-20T16:51:10Z</time>
      </trkpt>
      <trkpt lat="43.83309" lon="5.97769">
        <ele>554.3</ele>
        <time>2020-06-20T16:51:11Z</time>
      </trkpt>
      <trkpt lat="43.83309" lon="5.97765">
        <ele>554.4</ele>
        <time>2020-06-20T16:51:13Z</time>
      </trkpt>
      <trkpt lat="43.8331" lon="5.97761">
        <ele>554.5</ele>
        <time>2020-06-20T16:51:14Z</time>
      </trkpt>
      <trkpt lat="43.83309" lon="5.9775">
        <ele>554.9</ele>
        <time>2020-06-20T16:51:15Z</time>
      </trkpt>
      <trkpt lat="43.83308" lon="5.97732">
        <ele>556.8</ele>
        <time>2020-06-20T16:51:17Z</time>
      </trkpt>
      <trkpt lat="43.83306" lon="5.97723">
        <ele>558</ele>
        <time>2020-06-20T16:51:18Z</time>
      </trkpt>
      <trkpt lat="43.83303" lon="5.97712">
        <ele>558.1</ele>
        <time>2020-06-20T16:51:20Z</time>
      </trkpt>
      <trkpt lat="43.833" lon="5.97703">
        <ele>557.9</ele>
        <time>2020-06-20T16:51:21Z</time>
      </trkpt>
      <trkpt lat="43.83295" lon="5.97693">
        <ele>557.1</ele>
        <time>2020-06-20T16:51:23Z</time>
      </trkpt>
      <trkpt lat="43.8329" lon="5.97686">
        <ele>556.8</ele>
        <time>2020-06-20T16:51:24Z</time>
      </trkpt>
      <trkpt lat="43.83287" lon="5.9768">
        <ele>556.5</ele>
        <time>2020-06-20T16:51:26Z</time>
      </trkpt>
      <trkpt lat="43.83283" lon="5.97675">
        <ele>556.4</ele>
        <time>2020-06-20T16:51:27Z</time>
      </trkpt>
      <trkpt lat="43.8328" lon="5.9767">
        <ele>556.2</ele>
        <time>2020-06-20T16:51:28Z</time>
      </trkpt>
      <trkpt lat="43.83275" lon="5.97661">
        <ele>555.9</ele>
        <time>2020-06-20T16:51:30Z</time>
      </trkpt>
      <trkpt lat="43.83272" lon="5.97655">
        <ele>555.8</ele>
        <time>2020-06-20T16:51:31Z</time>
      </trkpt>
      <trkpt lat="43.83267" lon="5.97646">
        <ele>555.2</ele>
        <time>2020-06-20T16:51:33Z</time>
      </trkpt>
      <trkpt lat="43.83262" lon="5.97637">
        <ele>554.4</ele>
        <time>2020-06-20T16:51:34Z</time>
      </trkpt>
      <trkpt lat="43.83254" lon="5.97623">
        <ele>552.9</ele>
        <time>2020-06-20T16:51:36Z</time>
      </trkpt>
      <trkpt lat="43.8325" lon="5.97617">
        <ele>552.3</ele>
        <time>2020-06-20T16:51:37Z</time>
      </trkpt>
      <trkpt lat="43.83245" lon="5.97611">
        <ele>551.9</ele>
        <time>2020-06-20T16:51:38Z</time>
      </trkpt>
      <trkpt lat="43.83241" lon="5.97605">
        <ele>551.4</ele>
        <time>2020-06-20T16:51:39Z</time>
      </trkpt>
      <trkpt lat="43.83236" lon="5.97599">
        <ele>550.9</ele>
        <time>2020-06-20T16:51:40Z</time>
      </trkpt>
      <trkpt lat="43.83228" lon="5.9759">
        <ele>550.2</ele>
        <time>2020-06-20T16:51:42Z</time>
      </trkpt>
      <trkpt lat="43.83222" lon="5.97583">
        <ele>549.8</ele>
        <time>2020-06-20T16:51:44Z</time>
      </trkpt>
      <trkpt lat="43.83217" lon="5.9758">
        <ele>549.5</ele>
        <time>2020-06-20T16:51:46Z</time>
      </trkpt>
      <trkpt lat="43.83214" lon="5.97577">
        <ele>549.3</ele>
        <time>2020-06-20T16:51:47Z</time>
      </trkpt>
      <trkpt lat="43.83209" lon="5.97569">
        <ele>548.7</ele>
        <time>2020-06-20T16:51:48Z</time>
      </trkpt>
      <trkpt lat="43.83207" lon="5.97564">
        <ele>548.3</ele>
        <time>2020-06-20T16:51:50Z</time>
      </trkpt>
      <trkpt lat="43.832" lon="5.9755">
        <ele>547.1</ele>
        <time>2020-06-20T16:51:51Z</time>
      </trkpt>
      <trkpt lat="43.83198" lon="5.97544">
        <ele>546.5</ele>
        <time>2020-06-20T16:51:52Z</time>
      </trkpt>
      <trkpt lat="43.83198" lon="5.9754">
        <ele>546.1</ele>
        <time>2020-06-20T16:51:53Z</time>
      </trkpt>
      <trkpt lat="43.83195" lon="5.97535">
        <ele>545.4</ele>
        <time>2020-06-20T16:51:54Z</time>
      </trkpt>
      <trkpt lat="43.8319" lon="5.97531">
        <ele>544.6</ele>
        <time>2020-06-20T16:51:56Z</time>
      </trkpt>
      <trkpt lat="43.83185" lon="5.97527">
        <ele>543.8</ele>
        <time>2020-06-20T16:51:57Z</time>
      </trkpt>
      <trkpt lat="43.83181" lon="5.97525">
        <ele>543.2</ele>
        <time>2020-06-20T16:51:59Z</time>
      </trkpt>
      <trkpt lat="43.83172" lon="5.9752">
        <ele>541.8</ele>
        <time>2020-06-20T16:52:00Z</time>
      </trkpt>
      <trkpt lat="43.83166" lon="5.97518">
        <ele>541.8</ele>
        <time>2020-06-20T16:52:01Z</time>
      </trkpt>
      <trkpt lat="43.83154" lon="5.97518">
        <ele>540.6</ele>
        <time>2020-06-20T16:52:03Z</time>
      </trkpt>
      <trkpt lat="43.83142" lon="5.97519">
        <ele>539.4</ele>
        <time>2020-06-20T16:52:05Z</time>
      </trkpt>
      <trkpt lat="43.83135" lon="5.97519">
        <ele>538.9</ele>
        <time>2020-06-20T16:52:06Z</time>
      </trkpt>
      <trkpt lat="43.8313" lon="5.97519">
        <ele>538.4</ele>
        <time>2020-06-20T16:52:07Z</time>
      </trkpt>
      <trkpt lat="43.83123" lon="5.97519">
        <ele>537.8</ele>
        <time>2020-06-20T16:52:09Z</time>
      </trkpt>
      <trkpt lat="43.8312" lon="5.97517">
        <ele>537.5</ele>
        <time>2020-06-20T16:52:10Z</time>
      </trkpt>
      <trkpt lat="43.83115" lon="5.97515">
        <ele>537</ele>
        <time>2020-06-20T16:52:11Z</time>
      </trkpt>
      <trkpt lat="43.83103" lon="5.97505">
        <ele>535.7</ele>
        <time>2020-06-20T16:52:13Z</time>
      </trkpt>
      <trkpt lat="43.83089" lon="5.97495">
        <ele>533.7</ele>
        <time>2020-06-20T16:52:15Z</time>
      </trkpt>
      <trkpt lat="43.83075" lon="5.97486">
        <ele>531.8</ele>
        <time>2020-06-20T16:52:17Z</time>
      </trkpt>
      <trkpt lat="43.8306" lon="5.97477">
        <ele>530.2</ele>
        <time>2020-06-20T16:52:19Z</time>
      </trkpt>
      <trkpt lat="43.83052" lon="5.97472">
        <ele>529.4</ele>
        <time>2020-06-20T16:52:20Z</time>
      </trkpt>
      <trkpt lat="43.83045" lon="5.97467">
        <ele>528.7</ele>
        <time>2020-06-20T16:52:21Z</time>
      </trkpt>
      <trkpt lat="43.83038" lon="5.97463">
        <ele>528</ele>
        <time>2020-06-20T16:52:22Z</time>
      </trkpt>
      <trkpt lat="43.83028" lon="5.97455">
        <ele>527.6</ele>
        <time>2020-06-20T16:52:24Z</time>
      </trkpt>
      <trkpt lat="43.83024" lon="5.97451">
        <ele>527.5</ele>
        <time>2020-06-20T16:52:25Z</time>
      </trkpt>
      <trkpt lat="43.8302" lon="5.97447">
        <ele>527.3</ele>
        <time>2020-06-20T16:52:26Z</time>
      </trkpt>
      <trkpt lat="43.83009" lon="5.9744">
        <ele>526.9</ele>
        <time>2020-06-20T16:52:28Z</time>
      </trkpt>
      <trkpt lat="43.82998" lon="5.97434">
        <ele>526.4</ele>
        <time>2020-06-20T16:52:30Z</time>
      </trkpt>
      <trkpt lat="43.82991" lon="5.97432">
        <ele>526.1</ele>
        <time>2020-06-20T16:52:31Z</time>
      </trkpt>
      <trkpt lat="43.82984" lon="5.97429">
        <ele>525.9</ele>
        <time>2020-06-20T16:52:32Z</time>
      </trkpt>
      <trkpt lat="43.82973" lon="5.97423">
        <ele>525.7</ele>
        <time>2020-06-20T16:52:34Z</time>
      </trkpt>
      <trkpt lat="43.82968" lon="5.97419">
        <ele>525.6</ele>
        <time>2020-06-20T16:52:35Z</time>
      </trkpt>
      <trkpt lat="43.82957" lon="5.97408">
        <ele>525.2</ele>
        <time>2020-06-20T16:52:37Z</time>
      </trkpt>
      <trkpt lat="43.82951" lon="5.97403">
        <ele>524.9</ele>
        <time>2020-06-20T16:52:38Z</time>
      </trkpt>
      <trkpt lat="43.82945" lon="5.97397">
        <ele>524.3</ele>
        <time>2020-06-20T16:52:39Z</time>
      </trkpt>
      <trkpt lat="43.82939" lon="5.97392">
        <ele>523.6</ele>
        <time>2020-06-20T16:52:40Z</time>
      </trkpt>
      <trkpt lat="43.82934" lon="5.97387">
        <ele>523</ele>
        <time>2020-06-20T16:52:41Z</time>
      </trkpt>
      <trkpt lat="43.82924" lon="5.97378">
        <ele>521.9</ele>
        <time>2020-06-20T16:52:43Z</time>
      </trkpt>
      <trkpt lat="43.82914" lon="5.97368">
        <ele>521.2</ele>
        <time>2020-06-20T16:52:45Z</time>
      </trkpt>
      <trkpt lat="43.82908" lon="5.97363">
        <ele>521.1</ele>
        <time>2020-06-20T16:52:46Z</time>
      </trkpt>
      <trkpt lat="43.82897" lon="5.97353">
        <ele>520.8</ele>
        <time>2020-06-20T16:52:48Z</time>
      </trkpt>
      <trkpt lat="43.82891" lon="5.97348">
        <ele>520.6</ele>
        <time>2020-06-20T16:52:49Z</time>
      </trkpt>
      <trkpt lat="43.82879" lon="5.97337">
        <ele>520.2</ele>
        <time>2020-06-20T16:52:51Z</time>
      </trkpt>
      <trkpt lat="43.82873" lon="5.97332">
        <ele>520</ele>
        <time>2020-06-20T16:52:52Z</time>
      </trkpt>
      <trkpt lat="43.82868" lon="5.97328">
        <ele>519.9</ele>
        <time>2020-06-20T16:52:53Z</time>
      </trkpt>
      <trkpt lat="43.82857" lon="5.97318">
        <ele>519.6</ele>
        <time>2020-06-20T16:52:55Z</time>
      </trkpt>
      <trkpt lat="43.82851" lon="5.97313">
        <ele>519.5</ele>
        <time>2020-06-20T16:52:56Z</time>
      </trkpt>
      <trkpt lat="43.82845" lon="5.97307">
        <ele>519.4</ele>
        <time>2020-06-20T16:52:57Z</time>
      </trkpt>
      <trkpt lat="43.82834" lon="5.97297">
        <ele>519.2</ele>
        <time>2020-06-20T16:52:59Z</time>
      </trkpt>
      <trkpt lat="43.82828" lon="5.97291">
        <ele>519.2</ele>
        <time>2020-06-20T16:53:00Z</time>
      </trkpt>
      <trkpt lat="43.82822" lon="5.97286">
        <ele>519.2</ele>
        <time>2020-06-20T16:53:01Z</time>
      </trkpt>
      <trkpt lat="43.82812" lon="5.97276">
        <ele>518.6</ele>
        <time>2020-06-20T16:53:03Z</time>
      </trkpt>
      <trkpt lat="43.82802" lon="5.97265">
        <ele>517.9</ele>
        <time>2020-06-20T16:53:05Z</time>
      </trkpt>
      <trkpt lat="43.82797" lon="5.97261">
        <ele>517.7</ele>
        <time>2020-06-20T16:53:06Z</time>
      </trkpt>
      <trkpt lat="43.82793" lon="5.97256">
        <ele>517.4</ele>
        <time>2020-06-20T16:53:07Z</time>
      </trkpt>
      <trkpt lat="43.82788" lon="5.97251">
        <ele>517.1</ele>
        <time>2020-06-20T16:53:08Z</time>
      </trkpt>
      <trkpt lat="43.82779" lon="5.9724">
        <ele>516.4</ele>
        <time>2020-06-20T16:53:10Z</time>
      </trkpt>
      <trkpt lat="43.82774" lon="5.97235">
        <ele>516.1</ele>
        <time>2020-06-20T16:53:11Z</time>
      </trkpt>
      <trkpt lat="43.82764" lon="5.97225">
        <ele>515.3</ele>
        <time>2020-06-20T16:53:13Z</time>
      </trkpt>
      <trkpt lat="43.82759" lon="5.97219">
        <ele>514.9</ele>
        <time>2020-06-20T16:53:14Z</time>
      </trkpt>
      <trkpt lat="43.82751" lon="5.97207">
        <ele>514.5</ele>
        <time>2020-06-20T16:53:16Z</time>
      </trkpt>
      <trkpt lat="43.82748" lon="5.972">
        <ele>515</ele>
        <time>2020-06-20T16:53:17Z</time>
      </trkpt>
      <trkpt lat="43.82741" lon="5.9719">
        <ele>515.7</ele>
        <time>2020-06-20T16:53:19Z</time>
      </trkpt>
      <trkpt lat="43.82739" lon="5.97186">
        <ele>516</ele>
        <time>2020-06-20T16:53:20Z</time>
      </trkpt>
      <trkpt lat="43.82737" lon="5.97184">
        <ele>516.2</ele>
        <time>2020-06-20T16:53:21Z</time>
      </trkpt>
      <trkpt lat="43.82734" lon="5.97178">
        <ele>516.5</ele>
        <time>2020-06-20T16:53:23Z</time>
      </trkpt>
      <trkpt lat="43.82732" lon="5.97175">
        <ele>516.8</ele>
        <time>2020-06-20T16:53:24Z</time>
      </trkpt>
      <trkpt lat="43.82731" lon="5.97174">
        <ele>516.8</ele>
        <time>2020-06-20T16:53:25Z</time>
      </trkpt>
      <trkpt lat="43.82731" lon="5.97172">
        <ele>516.9</ele>
        <time>2020-06-20T16:53:27Z</time>
      </trkpt>
      <trkpt lat="43.82731" lon="5.97171">
        <ele>517</ele>
        <time>2020-06-20T16:53:28Z</time>
      </trkpt>
      <trkpt lat="43.82732" lon="5.97172">
        <ele>517</ele>
        <time>2020-06-20T16:53:29Z</time>
      </trkpt>
      <trkpt lat="43.82732" lon="5.97171">
        <ele>517</ele>
        <time>2020-06-20T16:53:30Z</time>
      </trkpt>
      <trkpt lat="43.8273" lon="5.97169">
        <ele>517.2</ele>
        <time>2020-06-20T16:53:31Z</time>
      </trkpt>
      <trkpt lat="43.8273" lon="5.97166">
        <ele>517.3</ele>
        <time>2020-06-20T16:53:33Z</time>
      </trkpt>
      <trkpt lat="43.82729" lon="5.97164">
        <ele>517.4</ele>
        <time>2020-06-20T16:53:34Z</time>
      </trkpt>
      <trkpt lat="43.82727" lon="5.97161">
        <ele>517.7</ele>
        <time>2020-06-20T16:53:35Z</time>
      </trkpt>
      <trkpt lat="43.82726" lon="5.9716">
        <ele>517.6</ele>
        <time>2020-06-20T16:53:36Z</time>
      </trkpt>
      <trkpt lat="43.82722" lon="5.97157">
        <ele>517.6</ele>
        <time>2020-06-20T16:53:38Z</time>
      </trkpt>
      <trkpt lat="43.82719" lon="5.97154">
        <ele>517.7</ele>
        <time>2020-06-20T16:53:39Z</time>
      </trkpt>
      <trkpt lat="43.82718" lon="5.97153">
        <ele>517.7</ele>
        <time>2020-06-20T16:53:40Z</time>
      </trkpt>
      <trkpt lat="43.82716" lon="5.9715">
        <ele>517.7</ele>
        <time>2020-06-20T16:53:41Z</time>
      </trkpt>
      <trkpt lat="43.82712" lon="5.97147">
        <ele>518.5</ele>
        <time>2020-06-20T16:53:43Z</time>
      </trkpt>
      <trkpt lat="43.82711" lon="5.97146">
        <ele>518.8</ele>
        <time>2020-06-20T16:53:44Z</time>
      </trkpt>
      <trkpt lat="43.82709" lon="5.97146">
        <ele>519.2</ele>
        <time>2020-06-20T16:53:45Z</time>
      </trkpt>
      <trkpt lat="43.82707" lon="5.97145">
        <ele>519.6</ele>
        <time>2020-06-20T16:53:47Z</time>
      </trkpt>
      <trkpt lat="43.82705" lon="5.97142">
        <ele>520.2</ele>
        <time>2020-06-20T16:53:48Z</time>
      </trkpt>
      <trkpt lat="43.82704" lon="5.97142">
        <ele>520.3</ele>
        <time>2020-06-20T16:53:49Z</time>
      </trkpt>
      <trkpt lat="43.82701" lon="5.97139">
        <ele>520.9</ele>
        <time>2020-06-20T16:53:50Z</time>
      </trkpt>
      <trkpt lat="43.82701" lon="5.97138">
        <ele>521.1</ele>
        <time>2020-06-20T16:53:51Z</time>
      </trkpt>
      <trkpt lat="43.82699" lon="5.97137">
        <ele>521.3</ele>
        <time>2020-06-20T16:53:52Z</time>
      </trkpt>
      <trkpt lat="43.82697" lon="5.97136">
        <ele>521.6</ele>
        <time>2020-06-20T16:53:54Z</time>
      </trkpt>
      <trkpt lat="43.82695" lon="5.97134">
        <ele>522</ele>
        <time>2020-06-20T16:53:55Z</time>
      </trkpt>
      <trkpt lat="43.82693" lon="5.97132">
        <ele>522.3</ele>
        <time>2020-06-20T16:53:56Z</time>
      </trkpt>
      <trkpt lat="43.82691" lon="5.97131">
        <ele>522.5</ele>
        <time>2020-06-20T16:53:58Z</time>
      </trkpt>
      <trkpt lat="43.82691" lon="5.97131">
        <ele>522.6</ele>
        <time>2020-06-20T16:53:59Z</time>
      </trkpt>
      <trkpt lat="43.8269" lon="5.9713">
        <ele>522.7</ele>
        <time>2020-06-20T16:54:00Z</time>
      </trkpt>
      <trkpt lat="43.82688" lon="5.97129">
        <ele>522.9</ele>
        <time>2020-06-20T16:54:02Z</time>
      </trkpt>
      <trkpt lat="43.82688" lon="5.97128">
        <ele>523</ele>
        <time>2020-06-20T16:54:03Z</time>
      </trkpt>
      <trkpt lat="43.82688" lon="5.97128">
        <ele>523</ele>
        <time>2020-06-20T16:54:04Z</time>
      </trkpt>
      <trkpt lat="43.82687" lon="5.97128">
        <ele>523.1</ele>
        <time>2020-06-20T16:54:06Z</time>
      </trkpt>
      <trkpt lat="43.82687" lon="5.97127">
        <ele>523.1</ele>
        <time>2020-06-20T16:54:07Z</time>
      </trkpt>
      <trkpt lat="43.82685" lon="5.97127">
        <ele>523.3</ele>
        <time>2020-06-20T16:54:09Z</time>
      </trkpt>
      <trkpt lat="43.82682" lon="5.97123">
        <ele>523.7</ele>
        <time>2020-06-20T16:54:11Z</time>
      </trkpt>
      <trkpt lat="43.8268" lon="5.9712">
        <ele>523.9</ele>
        <time>2020-06-20T16:54:13Z</time>
      </trkpt>
      <trkpt lat="43.82678" lon="5.97116">
        <ele>524.1</ele>
        <time>2020-06-20T16:54:42Z</time>
      </trkpt>
      <trkpt lat="43.82676" lon="5.97112">
        <ele>524.3</ele>
        <time>2020-06-20T16:54:43Z</time>
      </trkpt>
      <trkpt lat="43.82674" lon="5.97109">
        <ele>524.5</ele>
        <time>2020-06-20T16:54:44Z</time>
      </trkpt>
      <trkpt lat="43.82669" lon="5.97102">
        <ele>524.8</ele>
        <time>2020-06-20T16:54:45Z</time>
      </trkpt>
      <trkpt lat="43.82661" lon="5.97091">
        <ele>525.3</ele>
        <time>2020-06-20T16:54:47Z</time>
      </trkpt>
      <trkpt lat="43.82657" lon="5.97085">
        <ele>525.5</ele>
        <time>2020-06-20T16:54:48Z</time>
      </trkpt>
      <trkpt lat="43.82654" lon="5.97083">
        <ele>525.7</ele>
        <time>2020-06-20T16:54:49Z</time>
      </trkpt>
      <trkpt lat="43.82652" lon="5.9708">
        <ele>525.8</ele>
        <time>2020-06-20T16:54:51Z</time>
      </trkpt>
      <trkpt lat="43.82651" lon="5.97079">
        <ele>525.9</ele>
        <time>2020-06-20T16:54:52Z</time>
      </trkpt>
      <trkpt lat="43.82645" lon="5.97067">
        <ele>526.2</ele>
        <time>2020-06-20T16:54:54Z</time>
      </trkpt>
      <trkpt lat="43.8264" lon="5.97059">
        <ele>526.5</ele>
        <time>2020-06-20T16:54:55Z</time>
      </trkpt>
      <trkpt lat="43.82637" lon="5.97053">
        <ele>526.7</ele>
        <time>2020-06-20T16:54:56Z</time>
      </trkpt>
      <trkpt lat="43.82632" lon="5.97042">
        <ele>527.1</ele>
        <time>2020-06-20T16:54:57Z</time>
      </trkpt>
      <trkpt lat="43.82628" lon="5.97036">
        <ele>527.4</ele>
        <time>2020-06-20T16:54:59Z</time>
      </trkpt>
      <trkpt lat="43.82624" lon="5.97027">
        <ele>527.8</ele>
        <time>2020-06-20T16:55:00Z</time>
      </trkpt>
      <trkpt lat="43.82619" lon="5.97009">
        <ele>528.6</ele>
        <time>2020-06-20T16:55:02Z</time>
      </trkpt>
      <trkpt lat="43.82616" lon="5.97">
        <ele>529</ele>
        <time>2020-06-20T16:55:03Z</time>
      </trkpt>
      <trkpt lat="43.82613" lon="5.96992">
        <ele>529.4</ele>
        <time>2020-06-20T16:55:05Z</time>
      </trkpt>
      <trkpt lat="43.82611" lon="5.96986">
        <ele>529.6</ele>
        <time>2020-06-20T16:55:06Z</time>
      </trkpt>
      <trkpt lat="43.82606" lon="5.96977">
        <ele>530</ele>
        <time>2020-06-20T16:55:08Z</time>
      </trkpt>
      <trkpt lat="43.82603" lon="5.96971">
        <ele>530.3</ele>
        <time>2020-06-20T16:55:09Z</time>
      </trkpt>
      <trkpt lat="43.82599" lon="5.96965">
        <ele>530.5</ele>
        <time>2020-06-20T16:55:10Z</time>
      </trkpt>
      <trkpt lat="43.82595" lon="5.96958">
        <ele>530.5</ele>
        <time>2020-06-20T16:55:12Z</time>
      </trkpt>
      <trkpt lat="43.82593" lon="5.96953">
        <ele>530.5</ele>
        <time>2020-06-20T16:55:13Z</time>
      </trkpt>
      <trkpt lat="43.8259" lon="5.96947">
        <ele>530.5</ele>
        <time>2020-06-20T16:55:14Z</time>
      </trkpt>
      <trkpt lat="43.82587" lon="5.96943">
        <ele>530.5</ele>
        <time>2020-06-20T16:55:15Z</time>
      </trkpt>
      <trkpt lat="43.82584" lon="5.96938">
        <ele>530.4</ele>
        <time>2020-06-20T16:55:16Z</time>
      </trkpt>
      <trkpt lat="43.8258" lon="5.96932">
        <ele>530.3</ele>
        <time>2020-06-20T16:55:18Z</time>
      </trkpt>
      <trkpt lat="43.82573" lon="5.9692">
        <ele>530</ele>
        <time>2020-06-20T16:55:19Z</time>
      </trkpt>
      <trkpt lat="43.82565" lon="5.96908">
        <ele>529.8</ele>
        <time>2020-06-20T16:55:21Z</time>
      </trkpt>
      <trkpt lat="43.82557" lon="5.96896">
        <ele>529.5</ele>
        <time>2020-06-20T16:55:23Z</time>
      </trkpt>
      <trkpt lat="43.82554" lon="5.9689">
        <ele>529.4</ele>
        <time>2020-06-20T16:55:24Z</time>
      </trkpt>
      <trkpt lat="43.8255" lon="5.96885">
        <ele>529.3</ele>
        <time>2020-06-20T16:55:25Z</time>
      </trkpt>
      <trkpt lat="43.82543" lon="5.96875">
        <ele>529</ele>
        <time>2020-06-20T16:55:27Z</time>
      </trkpt>
      <trkpt lat="43.82534" lon="5.96863">
        <ele>528.7</ele>
        <time>2020-06-20T16:55:29Z</time>
      </trkpt>
      <trkpt lat="43.82525" lon="5.96852">
        <ele>528</ele>
        <time>2020-06-20T16:55:31Z</time>
      </trkpt>
      <trkpt lat="43.82519" lon="5.96846">
        <ele>527.6</ele>
        <time>2020-06-20T16:55:32Z</time>
      </trkpt>
      <trkpt lat="43.82508" lon="5.96833">
        <ele>526.4</ele>
        <time>2020-06-20T16:55:34Z</time>
      </trkpt>
      <trkpt lat="43.82496" lon="5.96819">
        <ele>525.5</ele>
        <time>2020-06-20T16:55:36Z</time>
      </trkpt>
      <trkpt lat="43.82491" lon="5.96811">
        <ele>525.1</ele>
        <time>2020-06-20T16:55:37Z</time>
      </trkpt>
      <trkpt lat="43.82485" lon="5.96804">
        <ele>524.8</ele>
        <time>2020-06-20T16:55:38Z</time>
      </trkpt>
      <trkpt lat="43.82476" lon="5.96791">
        <ele>524.5</ele>
        <time>2020-06-20T16:55:40Z</time>
      </trkpt>
      <trkpt lat="43.82473" lon="5.96784">
        <ele>524.5</ele>
        <time>2020-06-20T16:55:41Z</time>
      </trkpt>
      <trkpt lat="43.82466" lon="5.96771">
        <ele>524.5</ele>
        <time>2020-06-20T16:55:43Z</time>
      </trkpt>
      <trkpt lat="43.82463" lon="5.96764">
        <ele>524.5</ele>
        <time>2020-06-20T16:55:44Z</time>
      </trkpt>
      <trkpt lat="43.8246" lon="5.96758">
        <ele>524.5</ele>
        <time>2020-06-20T16:55:45Z</time>
      </trkpt>
      <trkpt lat="43.82457" lon="5.96751">
        <ele>524.5</ele>
        <time>2020-06-20T16:55:46Z</time>
      </trkpt>
      <trkpt lat="43.82449" lon="5.96737">
        <ele>524.4</ele>
        <time>2020-06-20T16:55:48Z</time>
      </trkpt>
      <trkpt lat="43.82445" lon="5.96731">
        <ele>524.4</ele>
        <time>2020-06-20T16:55:49Z</time>
      </trkpt>
      <trkpt lat="43.82437" lon="5.9672">
        <ele>524.1</ele>
        <time>2020-06-20T16:55:51Z</time>
      </trkpt>
      <trkpt lat="43.82428" lon="5.96709">
        <ele>523.7</ele>
        <time>2020-06-20T16:55:53Z</time>
      </trkpt>
      <trkpt lat="43.82418" lon="5.96698">
        <ele>523.2</ele>
        <time>2020-06-20T16:55:55Z</time>
      </trkpt>
      <trkpt lat="43.82412" lon="5.96692">
        <ele>522.8</ele>
        <time>2020-06-20T16:55:56Z</time>
      </trkpt>
      <trkpt lat="43.82406" lon="5.96686">
        <ele>522.4</ele>
        <time>2020-06-20T16:55:57Z</time>
      </trkpt>
      <trkpt lat="43.82395" lon="5.96677">
        <ele>521.1</ele>
        <time>2020-06-20T16:55:59Z</time>
      </trkpt>
      <trkpt lat="43.82385" lon="5.96678">
        <ele>519.9</ele>
        <time>2020-06-20T16:56:01Z</time>
      </trkpt>
      <trkpt lat="43.82378" lon="5.96682">
        <ele>518.9</ele>
        <time>2020-06-20T16:56:02Z</time>
      </trkpt>
      <trkpt lat="43.82364" lon="5.9669">
        <ele>516.7</ele>
        <time>2020-06-20T16:56:04Z</time>
      </trkpt>
      <trkpt lat="43.82358" lon="5.9669">
        <ele>515.8</ele>
        <time>2020-06-20T16:56:05Z</time>
      </trkpt>
      <trkpt lat="43.82346" lon="5.96685">
        <ele>513.8</ele>
        <time>2020-06-20T16:56:07Z</time>
      </trkpt>
      <trkpt lat="43.82332" lon="5.96671">
        <ele>512.4</ele>
        <time>2020-06-20T16:56:09Z</time>
      </trkpt>
      <trkpt lat="43.82321" lon="5.96656">
        <ele>511.9</ele>
        <time>2020-06-20T16:56:11Z</time>
      </trkpt>
      <trkpt lat="43.82317" lon="5.96649">
        <ele>511.8</ele>
        <time>2020-06-20T16:56:12Z</time>
      </trkpt>
      <trkpt lat="43.82309" lon="5.96637">
        <ele>511.6</ele>
        <time>2020-06-20T16:56:14Z</time>
      </trkpt>
      <trkpt lat="43.82301" lon="5.96626">
        <ele>511.5</ele>
        <time>2020-06-20T16:56:16Z</time>
      </trkpt>
      <trkpt lat="43.82299" lon="5.96623">
        <ele>511.4</ele>
        <time>2020-06-20T16:56:17Z</time>
      </trkpt>
      <trkpt lat="43.82295" lon="5.96616">
        <ele>511.3</ele>
        <time>2020-06-20T16:56:19Z</time>
      </trkpt>
      <trkpt lat="43.82292" lon="5.96614">
        <ele>511.3</ele>
        <time>2020-06-20T16:56:21Z</time>
      </trkpt>
      <trkpt lat="43.8229" lon="5.96613">
        <ele>511.2</ele>
        <time>2020-06-20T16:56:23Z</time>
      </trkpt>
      <trkpt lat="43.82289" lon="5.96616">
        <ele>511.2</ele>
        <time>2020-06-20T16:56:25Z</time>
      </trkpt>
      <trkpt lat="43.82289" lon="5.96617">
        <ele>511.2</ele>
        <time>2020-06-20T16:56:27Z</time>
      </trkpt>
      <trkpt lat="43.82289" lon="5.96618">
        <ele>510.9</ele>
        <time>2020-06-20T16:56:29Z</time>
      </trkpt>
      <trkpt lat="43.82289" lon="5.9662">
        <ele>510.8</ele>
        <time>2020-06-20T16:56:30Z</time>
      </trkpt>
      <trkpt lat="43.82289" lon="5.96622">
        <ele>510.6</ele>
        <time>2020-06-20T16:56:32Z</time>
      </trkpt>
      <trkpt lat="43.82289" lon="5.96623">
        <ele>510.6</ele>
        <time>2020-06-20T16:56:33Z</time>
      </trkpt>
      <trkpt lat="43.82288" lon="5.96624">
        <ele>510.5</ele>
        <time>2020-06-20T16:56:35Z</time>
      </trkpt>
      <trkpt lat="43.82287" lon="5.96625">
        <ele>510.4</ele>
        <time>2020-06-20T16:56:36Z</time>
      </trkpt>
      <trkpt lat="43.82287" lon="5.96625">
        <ele>510.3</ele>
        <time>2020-06-20T16:56:38Z</time>
      </trkpt>
      <trkpt lat="43.82287" lon="5.96625">
        <ele>510.3</ele>
        <time>2020-06-20T16:56:39Z</time>
      </trkpt>
      <trkpt lat="43.82287" lon="5.96625">
        <ele>510.3</ele>
        <time>2020-06-20T16:56:41Z</time>
      </trkpt>
      <trkpt lat="43.82288" lon="5.96625">
        <ele>510.3</ele>
        <time>2020-06-20T16:56:43Z</time>
      </trkpt>
      <trkpt lat="43.82289" lon="5.96626">
        <ele>510.2</ele>
        <time>2020-06-20T16:56:44Z</time>
      </trkpt>
      <trkpt lat="43.82289" lon="5.96626">
        <ele>510.1</ele>
        <time>2020-06-20T16:56:45Z</time>
      </trkpt>
      <trkpt lat="43.8229" lon="5.96625">
        <ele>510</ele>
        <time>2020-06-20T16:56:47Z</time>
      </trkpt>
      <trkpt lat="43.82291" lon="5.96625">
        <ele>509.9</ele>
        <time>2020-06-20T16:56:48Z</time>
      </trkpt>
      <trkpt lat="43.82288" lon="5.96625">
        <ele>509.6</ele>
        <time>2020-06-20T16:56:49Z</time>
      </trkpt>
      <trkpt lat="43.82283" lon="5.96625">
        <ele>509.2</ele>
        <time>2020-06-20T16:56:50Z</time>
      </trkpt>
      <trkpt lat="43.82274" lon="5.96625">
        <ele>508.6</ele>
        <time>2020-06-20T16:56:51Z</time>
      </trkpt>
      <trkpt lat="43.82258" lon="5.96627">
        <ele>507.5</ele>
        <time>2020-06-20T16:56:53Z</time>
      </trkpt>
      <trkpt lat="43.82252" lon="5.96628">
        <ele>507</ele>
        <time>2020-06-20T16:56:54Z</time>
      </trkpt>
      <trkpt lat="43.82247" lon="5.96629">
        <ele>506.6</ele>
        <time>2020-06-20T16:56:55Z</time>
      </trkpt>
      <trkpt lat="43.82239" lon="5.96629">
        <ele>505.9</ele>
        <time>2020-06-20T16:56:57Z</time>
      </trkpt>
      <trkpt lat="43.82235" lon="5.96621">
        <ele>505.3</ele>
        <time>2020-06-20T16:56:58Z</time>
      </trkpt>
      <trkpt lat="43.82227" lon="5.96603">
        <ele>504.2</ele>
        <time>2020-06-20T16:57:00Z</time>
      </trkpt>
      <trkpt lat="43.82219" lon="5.96588">
        <ele>503.5</ele>
        <time>2020-06-20T16:57:02Z</time>
      </trkpt>
      <trkpt lat="43.82214" lon="5.96581">
        <ele>503.2</ele>
        <time>2020-06-20T16:57:03Z</time>
      </trkpt>
      <trkpt lat="43.82208" lon="5.96575">
        <ele>503</ele>
        <time>2020-06-20T16:57:04Z</time>
      </trkpt>
      <trkpt lat="43.82196" lon="5.96565">
        <ele>502.7</ele>
        <time>2020-06-20T16:57:06Z</time>
      </trkpt>
      <trkpt lat="43.8219" lon="5.96562">
        <ele>502.5</ele>
        <time>2020-06-20T16:57:07Z</time>
      </trkpt>
      <trkpt lat="43.8218" lon="5.96556">
        <ele>502</ele>
        <time>2020-06-20T16:57:09Z</time>
      </trkpt>
      <trkpt lat="43.82169" lon="5.96549">
        <ele>501.6</ele>
        <time>2020-06-20T16:57:11Z</time>
      </trkpt>
      <trkpt lat="43.82159" lon="5.96539">
        <ele>501.1</ele>
        <time>2020-06-20T16:57:13Z</time>
      </trkpt>
      <trkpt lat="43.82154" lon="5.96533">
        <ele>500.8</ele>
        <time>2020-06-20T16:57:14Z</time>
      </trkpt>
      <trkpt lat="43.82145" lon="5.96521">
        <ele>500.4</ele>
        <time>2020-06-20T16:57:16Z</time>
      </trkpt>
      <trkpt lat="43.82141" lon="5.96513">
        <ele>500.3</ele>
        <time>2020-06-20T16:57:17Z</time>
      </trkpt>
      <trkpt lat="43.82137" lon="5.96506">
        <ele>500.4</ele>
        <time>2020-06-20T16:57:18Z</time>
      </trkpt>
      <trkpt lat="43.8213" lon="5.9649">
        <ele>500.7</ele>
        <time>2020-06-20T16:57:20Z</time>
      </trkpt>
      <trkpt lat="43.82125" lon="5.96478">
        <ele>501</ele>
        <time>2020-06-20T16:57:22Z</time>
      </trkpt>
      <trkpt lat="43.82124" lon="5.96473">
        <ele>501.1</ele>
        <time>2020-06-20T16:57:23Z</time>
      </trkpt>
      <trkpt lat="43.82121" lon="5.96462">
        <ele>501</ele>
        <time>2020-06-20T16:57:25Z</time>
      </trkpt>
      <trkpt lat="43.8212" lon="5.96454">
        <ele>500.8</ele>
        <time>2020-06-20T16:57:27Z</time>
      </trkpt>
      <trkpt lat="43.82119" lon="5.96448">
        <ele>500.6</ele>
        <time>2020-06-20T16:57:28Z</time>
      </trkpt>
      <trkpt lat="43.82119" lon="5.96447">
        <ele>500.6</ele>
        <time>2020-06-20T16:57:30Z</time>
      </trkpt>
      <trkpt lat="43.82119" lon="5.96447">
        <ele>500.6</ele>
        <time>2020-06-20T16:57:31Z</time>
      </trkpt>
      <trkpt lat="43.82118" lon="5.96448">
        <ele>500.5</ele>
        <time>2020-06-20T16:57:34Z</time>
      </trkpt>
      <trkpt lat="43.82118" lon="5.96449">
        <ele>500.5</ele>
        <time>2020-06-20T16:57:36Z</time>
      </trkpt>
      <trkpt lat="43.82117" lon="5.96449">
        <ele>500.5</ele>
        <time>2020-06-20T16:57:38Z</time>
      </trkpt>
      <trkpt lat="43.82117" lon="5.9645">
        <ele>500.5</ele>
        <time>2020-06-20T16:57:40Z</time>
      </trkpt>
      <trkpt lat="43.82116" lon="5.96451">
        <ele>500.4</ele>
        <time>2020-06-20T16:57:41Z</time>
      </trkpt>
      <trkpt lat="43.82116" lon="5.96451">
        <ele>500.4</ele>
        <time>2020-06-20T16:57:43Z</time>
      </trkpt>
      <trkpt lat="43.82116" lon="5.96452">
        <ele>500.4</ele>
        <time>2020-06-20T16:57:44Z</time>
      </trkpt>
      <trkpt lat="43.82115" lon="5.96452">
        <ele>500.4</ele>
        <time>2020-06-20T16:57:46Z</time>
      </trkpt>
      <trkpt lat="43.82115" lon="5.96453">
        <ele>500.3</ele>
        <time>2020-06-20T16:58:00Z</time>
      </trkpt>
      <trkpt lat="43.82114" lon="5.96454">
        <ele>500.3</ele>
        <time>2020-06-20T16:58:01Z</time>
      </trkpt>
      <trkpt lat="43.82114" lon="5.96454">
        <ele>500.3</ele>
        <time>2020-06-20T16:58:02Z</time>
      </trkpt>
      <trkpt lat="43.82113" lon="5.96456">
        <ele>500.2</ele>
        <time>2020-06-20T16:58:03Z</time>
      </trkpt>
      <trkpt lat="43.82112" lon="5.96456">
        <ele>500.2</ele>
        <time>2020-06-20T16:58:05Z</time>
      </trkpt>
      <trkpt lat="43.8211" lon="5.96456">
        <ele>500.1</ele>
        <time>2020-06-20T16:58:06Z</time>
      </trkpt>
      <trkpt lat="43.82109" lon="5.96457">
        <ele>500.1</ele>
        <time>2020-06-20T16:58:08Z</time>
      </trkpt>
      <trkpt lat="43.82108" lon="5.96457">
        <ele>500</ele>
        <time>2020-06-20T16:58:09Z</time>
      </trkpt>
      <trkpt lat="43.82107" lon="5.96457">
        <ele>500</ele>
        <time>2020-06-20T16:58:10Z</time>
      </trkpt>
      <trkpt lat="43.82104" lon="5.96452">
        <ele>499.9</ele>
        <time>2020-06-20T16:58:11Z</time>
      </trkpt>
      <trkpt lat="43.82101" lon="5.96445">
        <ele>499.7</ele>
        <time>2020-06-20T16:58:13Z</time>
      </trkpt>
      <trkpt lat="43.82097" lon="5.96433">
        <ele>499.3</ele>
        <time>2020-06-20T16:58:14Z</time>
      </trkpt>
      <trkpt lat="43.82094" lon="5.96424">
        <ele>499</ele>
        <time>2020-06-20T16:58:15Z</time>
      </trkpt>
      <trkpt lat="43.8209" lon="5.96417">
        <ele>498.7</ele>
        <time>2020-06-20T16:58:16Z</time>
      </trkpt>
      <trkpt lat="43.82086" lon="5.96408">
        <ele>498.4</ele>
        <time>2020-06-20T16:58:18Z</time>
      </trkpt>
      <trkpt lat="43.82083" lon="5.96401">
        <ele>498.1</ele>
        <time>2020-06-20T16:58:19Z</time>
      </trkpt>
      <trkpt lat="43.82077" lon="5.96391">
        <ele>497.8</ele>
        <time>2020-06-20T16:58:20Z</time>
      </trkpt>
      <trkpt lat="43.82072" lon="5.96385">
        <ele>497.6</ele>
        <time>2020-06-20T16:58:21Z</time>
      </trkpt>
      <trkpt lat="43.82064" lon="5.96374">
        <ele>497.3</ele>
        <time>2020-06-20T16:58:23Z</time>
      </trkpt>
      <trkpt lat="43.82057" lon="5.96363">
        <ele>497</ele>
        <time>2020-06-20T16:58:25Z</time>
      </trkpt>
      <trkpt lat="43.82053" lon="5.96357">
        <ele>496.9</ele>
        <time>2020-06-20T16:58:26Z</time>
      </trkpt>
      <trkpt lat="43.82049" lon="5.96352">
        <ele>496.8</ele>
        <time>2020-06-20T16:58:27Z</time>
      </trkpt>
      <trkpt lat="43.82045" lon="5.96346">
        <ele>496.7</ele>
        <time>2020-06-20T16:58:29Z</time>
      </trkpt>
      <trkpt lat="43.82042" lon="5.96343">
        <ele>496.7</ele>
        <time>2020-06-20T16:58:30Z</time>
      </trkpt>
      <trkpt lat="43.8204" lon="5.9634">
        <ele>496.6</ele>
        <time>2020-06-20T16:58:31Z</time>
      </trkpt>
      <trkpt lat="43.82037" lon="5.96331">
        <ele>496.4</ele>
        <time>2020-06-20T16:58:33Z</time>
      </trkpt>
      <trkpt lat="43.82035" lon="5.96323">
        <ele>496.2</ele>
        <time>2020-06-20T16:58:34Z</time>
      </trkpt>
      <trkpt lat="43.82031" lon="5.96314">
        <ele>495.8</ele>
        <time>2020-06-20T16:58:35Z</time>
      </trkpt>
      <trkpt lat="43.82029" lon="5.96308">
        <ele>495.6</ele>
        <time>2020-06-20T16:58:37Z</time>
      </trkpt>
      <trkpt lat="43.82024" lon="5.96295">
        <ele>495.1</ele>
        <time>2020-06-20T16:58:38Z</time>
      </trkpt>
      <trkpt lat="43.82021" lon="5.96288">
        <ele>494.8</ele>
        <time>2020-06-20T16:58:39Z</time>
      </trkpt>
      <trkpt lat="43.82012" lon="5.96274">
        <ele>494.5</ele>
        <time>2020-06-20T16:58:41Z</time>
      </trkpt>
      <trkpt lat="43.82004" lon="5.96262">
        <ele>494.4</ele>
        <time>2020-06-20T16:58:43Z</time>
      </trkpt>
      <trkpt lat="43.82002" lon="5.96257">
        <ele>494.4</ele>
        <time>2020-06-20T16:58:45Z</time>
      </trkpt>
      <trkpt lat="43.81999" lon="5.96254">
        <ele>494.4</ele>
        <time>2020-06-20T16:58:46Z</time>
      </trkpt>
      <trkpt lat="43.81995" lon="5.96248">
        <ele>494.1</ele>
        <time>2020-06-20T16:58:48Z</time>
      </trkpt>
      <trkpt lat="43.8199" lon="5.96243">
        <ele>493.9</ele>
        <time>2020-06-20T16:58:49Z</time>
      </trkpt>
      <trkpt lat="43.81986" lon="5.9624">
        <ele>493.8</ele>
        <time>2020-06-20T16:58:50Z</time>
      </trkpt>
      <trkpt lat="43.81983" lon="5.96238">
        <ele>493.6</ele>
        <time>2020-06-20T16:58:52Z</time>
      </trkpt>
      <trkpt lat="43.81982" lon="5.96239">
        <ele>493.6</ele>
        <time>2020-06-20T16:58:53Z</time>
      </trkpt>
      <trkpt lat="43.81982" lon="5.9624">
        <ele>493.6</ele>
        <time>2020-06-20T16:58:55Z</time>
      </trkpt>
      <trkpt lat="43.81982" lon="5.96242">
        <ele>493.5</ele>
        <time>2020-06-20T16:58:57Z</time>
      </trkpt>
      <trkpt lat="43.81982" lon="5.96243">
        <ele>493.5</ele>
        <time>2020-06-20T16:58:59Z</time>
      </trkpt>
      <trkpt lat="43.81982" lon="5.96244">
        <ele>493.5</ele>
        <time>2020-06-20T16:59:01Z</time>
      </trkpt>
      <trkpt lat="43.81981" lon="5.96245">
        <ele>493.4</ele>
        <time>2020-06-20T16:59:02Z</time>
      </trkpt>
      <trkpt lat="43.8198" lon="5.96245">
        <ele>493.4</ele>
        <time>2020-06-20T16:59:03Z</time>
      </trkpt>
      <trkpt lat="43.81978" lon="5.96245">
        <ele>493.3</ele>
        <time>2020-06-20T16:59:05Z</time>
      </trkpt>
      <trkpt lat="43.81977" lon="5.96245">
        <ele>493</ele>
        <time>2020-06-20T16:59:07Z</time>
      </trkpt>
      <trkpt lat="43.81976" lon="5.96244">
        <ele>493.1</ele>
        <time>2020-06-20T16:59:08Z</time>
      </trkpt>
      <trkpt lat="43.81975" lon="5.96245">
        <ele>493.1</ele>
        <time>2020-06-20T16:59:09Z</time>
      </trkpt>
      <trkpt lat="43.81974" lon="5.96242">
        <ele>493.3</ele>
        <time>2020-06-20T16:59:11Z</time>
      </trkpt>
      <trkpt lat="43.81974" lon="5.96242">
        <ele>493.3</ele>
        <time>2020-06-20T16:59:12Z</time>
      </trkpt>
      <trkpt lat="43.81972" lon="5.96237">
        <ele>493.6</ele>
        <time>2020-06-20T16:59:14Z</time>
      </trkpt>
      <trkpt lat="43.81977" lon="5.96219">
        <ele>494.6</ele>
        <time>2020-06-20T16:59:15Z</time>
      </trkpt>
      <trkpt lat="43.81979" lon="5.96212">
        <ele>495</ele>
        <time>2020-06-20T16:59:17Z</time>
      </trkpt>
      <trkpt lat="43.81981" lon="5.96205">
        <ele>495.5</ele>
        <time>2020-06-20T16:59:18Z</time>
      </trkpt>
      <trkpt lat="43.81983" lon="5.962">
        <ele>495.8</ele>
        <time>2020-06-20T16:59:19Z</time>
      </trkpt>
      <trkpt lat="43.81985" lon="5.96196">
        <ele>496.1</ele>
        <time>2020-06-20T16:59:20Z</time>
      </trkpt>
      <trkpt lat="43.81986" lon="5.96193">
        <ele>496.4</ele>
        <time>2020-06-20T16:59:21Z</time>
      </trkpt>
      <trkpt lat="43.81988" lon="5.96187">
        <ele>496.8</ele>
        <time>2020-06-20T16:59:23Z</time>
      </trkpt>
      <trkpt lat="43.81989" lon="5.96182">
        <ele>497.1</ele>
        <time>2020-06-20T16:59:25Z</time>
      </trkpt>
      <trkpt lat="43.81989" lon="5.96181">
        <ele>497.2</ele>
        <time>2020-06-20T16:59:26Z</time>
      </trkpt>
      <trkpt lat="43.81991" lon="5.96177">
        <ele>497.5</ele>
        <time>2020-06-20T16:59:27Z</time>
      </trkpt>
      <trkpt lat="43.81991" lon="5.96176">
        <ele>497.6</ele>
        <time>2020-06-20T16:59:28Z</time>
      </trkpt>
      <trkpt lat="43.81995" lon="5.96171">
        <ele>498.1</ele>
        <time>2020-06-20T16:59:30Z</time>
      </trkpt>
      <trkpt lat="43.81996" lon="5.96169">
        <ele>498.3</ele>
        <time>2020-06-20T16:59:31Z</time>
      </trkpt>
      <trkpt lat="43.81997" lon="5.96167">
        <ele>498.4</ele>
        <time>2020-06-20T16:59:32Z</time>
      </trkpt>
      <trkpt lat="43.81999" lon="5.96163">
        <ele>498.9</ele>
        <time>2020-06-20T16:59:33Z</time>
      </trkpt>
      <trkpt lat="43.81999" lon="5.96162">
        <ele>498.9</ele>
        <time>2020-06-20T16:59:34Z</time>
      </trkpt>
      <trkpt lat="43.82001" lon="5.96157">
        <ele>499.1</ele>
        <time>2020-06-20T16:59:36Z</time>
      </trkpt>
      <trkpt lat="43.82003" lon="5.96154">
        <ele>499.2</ele>
        <time>2020-06-20T16:59:37Z</time>
      </trkpt>
      <trkpt lat="43.82004" lon="5.96152">
        <ele>499.3</ele>
        <time>2020-06-20T16:59:38Z</time>
      </trkpt>
      <trkpt lat="43.82006" lon="5.96148">
        <ele>499.5</ele>
        <time>2020-06-20T16:59:39Z</time>
      </trkpt>
      <trkpt lat="43.82006" lon="5.96147">
        <ele>499.6</ele>
        <time>2020-06-20T16:59:40Z</time>
      </trkpt>
      <trkpt lat="43.82008" lon="5.96144">
        <ele>499.8</ele>
        <time>2020-06-20T16:59:41Z</time>
      </trkpt>
      <trkpt lat="43.82009" lon="5.96141">
        <ele>500</ele>
        <time>2020-06-20T16:59:43Z</time>
      </trkpt>
      <trkpt lat="43.82009" lon="5.96137">
        <ele>500.2</ele>
        <time>2020-06-20T16:59:44Z</time>
      </trkpt>
      <trkpt lat="43.8201" lon="5.96135">
        <ele>500.3</ele>
        <time>2020-06-20T16:59:45Z</time>
      </trkpt>
      <trkpt lat="43.82012" lon="5.96132">
        <ele>500.6</ele>
        <time>2020-06-20T16:59:47Z</time>
      </trkpt>
      <trkpt lat="43.82014" lon="5.96129">
        <ele>500.9</ele>
        <time>2020-06-20T16:59:48Z</time>
      </trkpt>
      <trkpt lat="43.82016" lon="5.96126">
        <ele>501.1</ele>
        <time>2020-06-20T16:59:50Z</time>
      </trkpt>
      <trkpt lat="43.82018" lon="5.96124">
        <ele>501.3</ele>
        <time>2020-06-20T16:59:51Z</time>
      </trkpt>
      <trkpt lat="43.82021" lon="5.96119">
        <ele>501.6</ele>
        <time>2020-06-20T16:59:53Z</time>
      </trkpt>
      <trkpt lat="43.82022" lon="5.96117">
        <ele>501.8</ele>
        <time>2020-06-20T16:59:54Z</time>
      </trkpt>
      <trkpt lat="43.82025" lon="5.96114">
        <ele>502.1</ele>
        <time>2020-06-20T16:59:56Z</time>
      </trkpt>
      <trkpt lat="43.82027" lon="5.96111">
        <ele>502.4</ele>
        <time>2020-06-20T16:59:57Z</time>
      </trkpt>
      <trkpt lat="43.8203" lon="5.96107">
        <ele>502.7</ele>
        <time>2020-06-20T16:59:58Z</time>
      </trkpt>
      <trkpt lat="43.82032" lon="5.96104">
        <ele>503</ele>
        <time>2020-06-20T17:00:00Z</time>
      </trkpt>
      <trkpt lat="43.82034" lon="5.961">
        <ele>503.3</ele>
        <time>2020-06-20T17:00:01Z</time>
      </trkpt>
      <trkpt lat="43.82035" lon="5.96099">
        <ele>503.3</ele>
        <time>2020-06-20T17:00:02Z</time>
      </trkpt>
      <trkpt lat="43.82036" lon="5.96096">
        <ele>503.5</ele>
        <time>2020-06-20T17:00:03Z</time>
      </trkpt>
      <trkpt lat="43.82037" lon="5.96093">
        <ele>503.7</ele>
        <time>2020-06-20T17:00:05Z</time>
      </trkpt>
      <trkpt lat="43.82037" lon="5.96091">
        <ele>503.8</ele>
        <time>2020-06-20T17:00:06Z</time>
      </trkpt>
      <trkpt lat="43.82037" lon="5.96089">
        <ele>504</ele>
        <time>2020-06-20T17:00:07Z</time>
      </trkpt>
      <trkpt lat="43.82039" lon="5.96084">
        <ele>504.3</ele>
        <time>2020-06-20T17:00:08Z</time>
      </trkpt>
      <trkpt lat="43.8204" lon="5.96083">
        <ele>504.4</ele>
        <time>2020-06-20T17:00:10Z</time>
      </trkpt>
      <trkpt lat="43.8204" lon="5.96081">
        <ele>504.6</ele>
        <time>2020-06-20T17:00:11Z</time>
      </trkpt>
      <trkpt lat="43.82041" lon="5.96079">
        <ele>504.7</ele>
        <time>2020-06-20T17:00:12Z</time>
      </trkpt>
      <trkpt lat="43.82042" lon="5.96077">
        <ele>504.9</ele>
        <time>2020-06-20T17:00:13Z</time>
      </trkpt>
      <trkpt lat="43.82043" lon="5.96075">
        <ele>505.1</ele>
        <time>2020-06-20T17:00:14Z</time>
      </trkpt>
      <trkpt lat="43.82044" lon="5.96073">
        <ele>505.3</ele>
        <time>2020-06-20T17:00:16Z</time>
      </trkpt>
      <trkpt lat="43.82045" lon="5.96071">
        <ele>505.5</ele>
        <time>2020-06-20T17:00:17Z</time>
      </trkpt>
      <trkpt lat="43.82046" lon="5.96068">
        <ele>505.7</ele>
        <time>2020-06-20T17:00:18Z</time>
      </trkpt>
      <trkpt lat="43.82048" lon="5.96066">
        <ele>505.9</ele>
        <time>2020-06-20T17:00:20Z</time>
      </trkpt>
      <trkpt lat="43.82049" lon="5.96063">
        <ele>506.3</ele>
        <time>2020-06-20T17:00:21Z</time>
      </trkpt>
      <trkpt lat="43.82049" lon="5.96061">
        <ele>506.4</ele>
        <time>2020-06-20T17:00:22Z</time>
      </trkpt>
      <trkpt lat="43.8205" lon="5.96058">
        <ele>506.6</ele>
        <time>2020-06-20T17:00:23Z</time>
      </trkpt>
      <trkpt lat="43.8205" lon="5.96057">
        <ele>506.7</ele>
        <time>2020-06-20T17:00:25Z</time>
      </trkpt>
      <trkpt lat="43.8205" lon="5.96055">
        <ele>506.9</ele>
        <time>2020-06-20T17:00:26Z</time>
      </trkpt>
      <trkpt lat="43.8205" lon="5.96054">
        <ele>506.9</ele>
        <time>2020-06-20T17:00:27Z</time>
      </trkpt>
      <trkpt lat="43.8205" lon="5.96054">
        <ele>507</ele>
        <time>2020-06-20T17:00:29Z</time>
      </trkpt>
      <trkpt lat="43.8205" lon="5.96053">
        <ele>507</ele>
        <time>2020-06-20T17:00:30Z</time>
      </trkpt>
      <trkpt lat="43.8205" lon="5.96053">
        <ele>507</ele>
        <time>2020-06-20T17:00:31Z</time>
      </trkpt>
      <trkpt lat="43.82049" lon="5.96053">
        <ele>507</ele>
        <time>2020-06-20T17:00:33Z</time>
      </trkpt>
      <trkpt lat="43.82049" lon="5.96053">
        <ele>507</ele>
        <time>2020-06-20T17:00:35Z</time>
      </trkpt>
      <trkpt lat="43.82051" lon="5.96046">
        <ele>507.6</ele>
        <time>2020-06-20T17:00:45Z</time>
      </trkpt>
      <trkpt lat="43.82052" lon="5.96044">
        <ele>507.8</ele>
        <time>2020-06-20T17:00:46Z</time>
      </trkpt>
      <trkpt lat="43.82052" lon="5.9604">
        <ele>508.1</ele>
        <time>2020-06-20T17:00:48Z</time>
      </trkpt>
      <trkpt lat="43.82052" lon="5.96038">
        <ele>508.3</ele>
        <time>2020-06-20T17:00:49Z</time>
      </trkpt>
      <trkpt lat="43.82052" lon="5.96038">
        <ele>508.3</ele>
        <time>2020-06-20T17:00:50Z</time>
      </trkpt>
      <trkpt lat="43.82052" lon="5.96037">
        <ele>508.4</ele>
        <time>2020-06-20T17:00:52Z</time>
      </trkpt>
      <trkpt lat="43.82052" lon="5.96035">
        <ele>508.5</ele>
        <time>2020-06-20T17:00:53Z</time>
      </trkpt>
      <trkpt lat="43.82052" lon="5.96033">
        <ele>508.7</ele>
        <time>2020-06-20T17:00:54Z</time>
      </trkpt>
      <trkpt lat="43.82052" lon="5.96031">
        <ele>508.9</ele>
        <time>2020-06-20T17:00:55Z</time>
      </trkpt>
      <trkpt lat="43.82052" lon="5.9603">
        <ele>509</ele>
        <time>2020-06-20T17:00:56Z</time>
      </trkpt>
      <trkpt lat="43.82052" lon="5.96028">
        <ele>509.2</ele>
        <time>2020-06-20T17:00:57Z</time>
      </trkpt>
      <trkpt lat="43.82052" lon="5.96027">
        <ele>509.3</ele>
        <time>2020-06-20T17:00:59Z</time>
      </trkpt>
      <trkpt lat="43.82052" lon="5.96026">
        <ele>509.4</ele>
        <time>2020-06-20T17:01:00Z</time>
      </trkpt>
      <trkpt lat="43.82053" lon="5.96025">
        <ele>509.4</ele>
        <time>2020-06-20T17:01:01Z</time>
      </trkpt>
      <trkpt lat="43.82053" lon="5.96024">
        <ele>509.5</ele>
        <time>2020-06-20T17:01:03Z</time>
      </trkpt>
      <trkpt lat="43.82053" lon="5.96023">
        <ele>509.6</ele>
        <time>2020-06-20T17:01:04Z</time>
      </trkpt>
      <trkpt lat="43.82053" lon="5.96021">
        <ele>509.8</ele>
        <time>2020-06-20T17:01:05Z</time>
      </trkpt>
      <trkpt lat="43.82054" lon="5.96018">
        <ele>510.1</ele>
        <time>2020-06-20T17:01:06Z</time>
      </trkpt>
      <trkpt lat="43.82054" lon="5.96017">
        <ele>510.2</ele>
        <time>2020-06-20T17:01:07Z</time>
      </trkpt>
      <trkpt lat="43.82054" lon="5.96016">
        <ele>510.3</ele>
        <time>2020-06-20T17:01:09Z</time>
      </trkpt>
      <trkpt lat="43.82054" lon="5.96015">
        <ele>510.4</ele>
        <time>2020-06-20T17:01:10Z</time>
      </trkpt>
      <trkpt lat="43.82055" lon="5.96013">
        <ele>510.5</ele>
        <time>2020-06-20T17:01:11Z</time>
      </trkpt>
      <trkpt lat="43.82055" lon="5.96011">
        <ele>510.8</ele>
        <time>2020-06-20T17:01:12Z</time>
      </trkpt>
      <trkpt lat="43.82055" lon="5.96009">
        <ele>510.9</ele>
        <time>2020-06-20T17:01:13Z</time>
      </trkpt>
      <trkpt lat="43.82055" lon="5.96008">
        <ele>511.1</ele>
        <time>2020-06-20T17:01:15Z</time>
      </trkpt>
      <trkpt lat="43.82056" lon="5.96006">
        <ele>511.3</ele>
        <time>2020-06-20T17:01:16Z</time>
      </trkpt>
      <trkpt lat="43.82056" lon="5.96005">
        <ele>511.4</ele>
        <time>2020-06-20T17:01:17Z</time>
      </trkpt>
      <trkpt lat="43.82056" lon="5.96003">
        <ele>511.6</ele>
        <time>2020-06-20T17:01:18Z</time>
      </trkpt>
      <trkpt lat="43.82056" lon="5.96002">
        <ele>511.7</ele>
        <time>2020-06-20T17:01:19Z</time>
      </trkpt>
      <trkpt lat="43.82056" lon="5.96">
        <ele>511.9</ele>
        <time>2020-06-20T17:01:20Z</time>
      </trkpt>
      <trkpt lat="43.82056" lon="5.95998">
        <ele>512.1</ele>
        <time>2020-06-20T17:01:22Z</time>
      </trkpt>
      <trkpt lat="43.82056" lon="5.95997">
        <ele>512.3</ele>
        <time>2020-06-20T17:01:23Z</time>
      </trkpt>
      <trkpt lat="43.82056" lon="5.95994">
        <ele>512.6</ele>
        <time>2020-06-20T17:01:24Z</time>
      </trkpt>
      <trkpt lat="43.82056" lon="5.95993">
        <ele>512.8</ele>
        <time>2020-06-20T17:01:25Z</time>
      </trkpt>
      <trkpt lat="43.82056" lon="5.95991">
        <ele>513</ele>
        <time>2020-06-20T17:01:27Z</time>
      </trkpt>
      <trkpt lat="43.82056" lon="5.95989">
        <ele>513.2</ele>
        <time>2020-06-20T17:01:28Z</time>
      </trkpt>
      <trkpt lat="43.82056" lon="5.95988">
        <ele>513.3</ele>
        <time>2020-06-20T17:01:29Z</time>
      </trkpt>
      <trkpt lat="43.82055" lon="5.95986">
        <ele>513.5</ele>
        <time>2020-06-20T17:01:30Z</time>
      </trkpt>
      <trkpt lat="43.82055" lon="5.95984">
        <ele>513.7</ele>
        <time>2020-06-20T17:01:32Z</time>
      </trkpt>
      <trkpt lat="43.82055" lon="5.95982">
        <ele>514</ele>
        <time>2020-06-20T17:01:33Z</time>
      </trkpt>
      <trkpt lat="43.82055" lon="5.95981">
        <ele>514.1</ele>
        <time>2020-06-20T17:01:34Z</time>
      </trkpt>
      <trkpt lat="43.82055" lon="5.9598">
        <ele>514.2</ele>
        <time>2020-06-20T17:01:36Z</time>
      </trkpt>
      <trkpt lat="43.82055" lon="5.95979">
        <ele>514.4</ele>
        <time>2020-06-20T17:01:37Z</time>
      </trkpt>
      <trkpt lat="43.82056" lon="5.95977">
        <ele>514.6</ele>
        <time>2020-06-20T17:01:38Z</time>
      </trkpt>
      <trkpt lat="43.82056" lon="5.95975">
        <ele>514.8</ele>
        <time>2020-06-20T17:01:39Z</time>
      </trkpt>
      <trkpt lat="43.82056" lon="5.95974">
        <ele>514.8</ele>
        <time>2020-06-20T17:01:40Z</time>
      </trkpt>
      <trkpt lat="43.82056" lon="5.95973">
        <ele>515</ele>
        <time>2020-06-20T17:01:42Z</time>
      </trkpt>
      <trkpt lat="43.82056" lon="5.95972">
        <ele>515.1</ele>
        <time>2020-06-20T17:01:43Z</time>
      </trkpt>
      <trkpt lat="43.82057" lon="5.95971">
        <ele>515.3</ele>
        <time>2020-06-20T17:01:45Z</time>
      </trkpt>
      <trkpt lat="43.82057" lon="5.95969">
        <ele>515.4</ele>
        <time>2020-06-20T17:01:46Z</time>
      </trkpt>
      <trkpt lat="43.82057" lon="5.95968">
        <ele>515.5</ele>
        <time>2020-06-20T17:01:47Z</time>
      </trkpt>
      <trkpt lat="43.82057" lon="5.95967">
        <ele>515.7</ele>
        <time>2020-06-20T17:01:48Z</time>
      </trkpt>
      <trkpt lat="43.82057" lon="5.95967">
        <ele>515.7</ele>
        <time>2020-06-20T17:01:49Z</time>
      </trkpt>
      <trkpt lat="43.82057" lon="5.95967">
        <ele>515.7</ele>
        <time>2020-06-20T17:01:51Z</time>
      </trkpt>
      <trkpt lat="43.82057" lon="5.95966">
        <ele>515.8</ele>
        <time>2020-06-20T17:01:52Z</time>
      </trkpt>
      <trkpt lat="43.82057" lon="5.95965">
        <ele>515.9</ele>
        <time>2020-06-20T17:01:53Z</time>
      </trkpt>
      <trkpt lat="43.82057" lon="5.95964">
        <ele>516</ele>
        <time>2020-06-20T17:01:55Z</time>
      </trkpt>
      <trkpt lat="43.82057" lon="5.95962">
        <ele>516.2</ele>
        <time>2020-06-20T17:01:56Z</time>
      </trkpt>
      <trkpt lat="43.82057" lon="5.95962">
        <ele>516.3</ele>
        <time>2020-06-20T17:01:57Z</time>
      </trkpt>
      <trkpt lat="43.82058" lon="5.95961">
        <ele>516.4</ele>
        <time>2020-06-20T17:01:58Z</time>
      </trkpt>
      <trkpt lat="43.82058" lon="5.9596">
        <ele>516.5</ele>
        <time>2020-06-20T17:02:00Z</time>
      </trkpt>
      <trkpt lat="43.82058" lon="5.95959">
        <ele>516.6</ele>
        <time>2020-06-20T17:02:01Z</time>
      </trkpt>
      <trkpt lat="43.82058" lon="5.95958">
        <ele>516.7</ele>
        <time>2020-06-20T17:02:03Z</time>
      </trkpt>
      <trkpt lat="43.82058" lon="5.95957">
        <ele>516.8</ele>
        <time>2020-06-20T17:02:04Z</time>
      </trkpt>
      <trkpt lat="43.82058" lon="5.95956">
        <ele>517</ele>
        <time>2020-06-20T17:02:05Z</time>
      </trkpt>
      <trkpt lat="43.82058" lon="5.95954">
        <ele>517.2</ele>
        <time>2020-06-20T17:02:07Z</time>
      </trkpt>
      <trkpt lat="43.82058" lon="5.95952">
        <ele>517.4</ele>
        <time>2020-06-20T17:02:08Z</time>
      </trkpt>
      <trkpt lat="43.82058" lon="5.95952">
        <ele>517.4</ele>
        <time>2020-06-20T17:02:09Z</time>
      </trkpt>
      <trkpt lat="43.82058" lon="5.95951">
        <ele>517.5</ele>
        <time>2020-06-20T17:02:11Z</time>
      </trkpt>
      <trkpt lat="43.82058" lon="5.95949">
        <ele>517.7</ele>
        <time>2020-06-20T17:02:12Z</time>
      </trkpt>
      <trkpt lat="43.82058" lon="5.95948">
        <ele>517.8</ele>
        <time>2020-06-20T17:02:13Z</time>
      </trkpt>
      <trkpt lat="43.82058" lon="5.95945">
        <ele>518</ele>
        <time>2020-06-20T17:02:15Z</time>
      </trkpt>
      <trkpt lat="43.82057" lon="5.95945">
        <ele>518.1</ele>
        <time>2020-06-20T17:02:16Z</time>
      </trkpt>
      <trkpt lat="43.82057" lon="5.95944">
        <ele>518.2</ele>
        <time>2020-06-20T17:02:17Z</time>
      </trkpt>
      <trkpt lat="43.82056" lon="5.95943">
        <ele>518.3</ele>
        <time>2020-06-20T17:02:19Z</time>
      </trkpt>
      <trkpt lat="43.82056" lon="5.95942">
        <ele>518.4</ele>
        <time>2020-06-20T17:02:20Z</time>
      </trkpt>
      <trkpt lat="43.82055" lon="5.95941">
        <ele>518.5</ele>
        <time>2020-06-20T17:02:22Z</time>
      </trkpt>
      <trkpt lat="43.82055" lon="5.9594">
        <ele>518.6</ele>
        <time>2020-06-20T17:02:24Z</time>
      </trkpt>
      <trkpt lat="43.82054" lon="5.95939">
        <ele>518.8</ele>
        <time>2020-06-20T17:04:25Z</time>
      </trkpt>
      <trkpt lat="43.82054" lon="5.95939">
        <ele>518.8</ele>
        <time>2020-06-20T17:04:26Z</time>
      </trkpt>
      <trkpt lat="43.82053" lon="5.95939">
        <ele>518.9</ele>
        <time>2020-06-20T17:04:28Z</time>
      </trkpt>
      <trkpt lat="43.82054" lon="5.9594">
        <ele>518.9</ele>
        <time>2020-06-20T17:04:30Z</time>
      </trkpt>
      <trkpt lat="43.82054" lon="5.9594">
        <ele>518.9</ele>
        <time>2020-06-20T17:04:32Z</time>
      </trkpt>
      <trkpt lat="43.82054" lon="5.9594">
        <ele>518.9</ele>
        <time>2020-06-20T17:04:33Z</time>
      </trkpt>
      <trkpt lat="43.82054" lon="5.9594">
        <ele>519</ele>
        <time>2020-06-20T17:04:34Z</time>
      </trkpt>
      <trkpt lat="43.82054" lon="5.9594">
        <ele>519</ele>
        <time>2020-06-20T17:04:35Z</time>
      </trkpt>
      <trkpt lat="43.82056" lon="5.95939">
        <ele>519.2</ele>
        <time>2020-06-20T17:04:37Z</time>
      </trkpt>
      <trkpt lat="43.82057" lon="5.95937">
        <ele>519.4</ele>
        <time>2020-06-20T17:04:38Z</time>
      </trkpt>
      <trkpt lat="43.82056" lon="5.95933">
        <ele>519.8</ele>
        <time>2020-06-20T17:04:40Z</time>
      </trkpt>
      <trkpt lat="43.82056" lon="5.95932">
        <ele>519.9</ele>
        <time>2020-06-20T17:04:41Z</time>
      </trkpt>
      <trkpt lat="43.82056" lon="5.9593">
        <ele>520.1</ele>
        <time>2020-06-20T17:04:43Z</time>
      </trkpt>
      <trkpt lat="43.82056" lon="5.95927">
        <ele>520.3</ele>
        <time>2020-06-20T17:04:44Z</time>
      </trkpt>
      <trkpt lat="43.82055" lon="5.95923">
        <ele>520.7</ele>
        <time>2020-06-20T17:04:45Z</time>
      </trkpt>
      <trkpt lat="43.82055" lon="5.95921">
        <ele>520.8</ele>
        <time>2020-06-20T17:04:46Z</time>
      </trkpt>
      <trkpt lat="43.82053" lon="5.95916">
        <ele>521.4</ele>
        <time>2020-06-20T17:04:48Z</time>
      </trkpt>
      <trkpt lat="43.82053" lon="5.95914">
        <ele>521.5</ele>
        <time>2020-06-20T17:04:49Z</time>
      </trkpt>
      <trkpt lat="43.82052" lon="5.95912">
        <ele>521.7</ele>
        <time>2020-06-20T17:04:50Z</time>
      </trkpt>
      <trkpt lat="43.82051" lon="5.95908">
        <ele>522</ele>
        <time>2020-06-20T17:04:52Z</time>
      </trkpt>
      <trkpt lat="43.82049" lon="5.95905">
        <ele>522.3</ele>
        <time>2020-06-20T17:04:53Z</time>
      </trkpt>
      <trkpt lat="43.82048" lon="5.95901">
        <ele>522.6</ele>
        <time>2020-06-20T17:04:54Z</time>
      </trkpt>
      <trkpt lat="43.82046" lon="5.95895">
        <ele>523.1</ele>
        <time>2020-06-20T17:04:56Z</time>
      </trkpt>
      <trkpt lat="43.82044" lon="5.9589">
        <ele>523.4</ele>
        <time>2020-06-20T17:04:57Z</time>
      </trkpt>
      <trkpt lat="43.82043" lon="5.95889">
        <ele>523.6</ele>
        <time>2020-06-20T17:04:58Z</time>
      </trkpt>
      <trkpt lat="43.82042" lon="5.95885">
        <ele>523.8</ele>
        <time>2020-06-20T17:05:00Z</time>
      </trkpt>
      <trkpt lat="43.82041" lon="5.95884">
        <ele>523.9</ele>
        <time>2020-06-20T17:05:01Z</time>
      </trkpt>
      <trkpt lat="43.8204" lon="5.95879">
        <ele>524.3</ele>
        <time>2020-06-20T17:05:03Z</time>
      </trkpt>
      <trkpt lat="43.8204" lon="5.95879">
        <ele>524.3</ele>
        <time>2020-06-20T17:05:04Z</time>
      </trkpt>
      <trkpt lat="43.82039" lon="5.95877">
        <ele>524.4</ele>
        <time>2020-06-20T17:05:05Z</time>
      </trkpt>
      <trkpt lat="43.82039" lon="5.95876">
        <ele>524.6</ele>
        <time>2020-06-20T17:05:06Z</time>
      </trkpt>
      <trkpt lat="43.82038" lon="5.95873">
        <ele>524.8</ele>
        <time>2020-06-20T17:05:08Z</time>
      </trkpt>
      <trkpt lat="43.82037" lon="5.95872">
        <ele>524.9</ele>
        <time>2020-06-20T17:05:09Z</time>
      </trkpt>
      <trkpt lat="43.82037" lon="5.9587">
        <ele>525.1</ele>
        <time>2020-06-20T17:05:11Z</time>
      </trkpt>
      <trkpt lat="43.82036" lon="5.95868">
        <ele>525.3</ele>
        <time>2020-06-20T17:05:13Z</time>
      </trkpt>
      <trkpt lat="43.82036" lon="5.95865">
        <ele>525.5</ele>
        <time>2020-06-20T17:05:14Z</time>
      </trkpt>
      <trkpt lat="43.82035" lon="5.95863">
        <ele>525.7</ele>
        <time>2020-06-20T17:05:15Z</time>
      </trkpt>
      <trkpt lat="43.82035" lon="5.95862">
        <ele>525.8</ele>
        <time>2020-06-20T17:05:16Z</time>
      </trkpt>
      <trkpt lat="43.82033" lon="5.95858">
        <ele>526.2</ele>
        <time>2020-06-20T17:05:18Z</time>
      </trkpt>
      <trkpt lat="43.82032" lon="5.95854">
        <ele>526.5</ele>
        <time>2020-06-20T17:05:19Z</time>
      </trkpt>
      <trkpt lat="43.82032" lon="5.95853">
        <ele>526.6</ele>
        <time>2020-06-20T17:05:20Z</time>
      </trkpt>
      <trkpt lat="43.8203" lon="5.95848">
        <ele>527</ele>
        <time>2020-06-20T17:05:22Z</time>
      </trkpt>
      <trkpt lat="43.82029" lon="5.95846">
        <ele>527.2</ele>
        <time>2020-06-20T17:05:23Z</time>
      </trkpt>
      <trkpt lat="43.82029" lon="5.95844">
        <ele>527.3</ele>
        <time>2020-06-20T17:05:24Z</time>
      </trkpt>
      <trkpt lat="43.82027" lon="5.9584">
        <ele>527.6</ele>
        <time>2020-06-20T17:05:26Z</time>
      </trkpt>
      <trkpt lat="43.82027" lon="5.95839">
        <ele>527.7</ele>
        <time>2020-06-20T17:05:27Z</time>
      </trkpt>
      <trkpt lat="43.82026" lon="5.95836">
        <ele>527.9</ele>
        <time>2020-06-20T17:05:28Z</time>
      </trkpt>
      <trkpt lat="43.82025" lon="5.95833">
        <ele>528.1</ele>
        <time>2020-06-20T17:05:30Z</time>
      </trkpt>
      <trkpt lat="43.82024" lon="5.95829">
        <ele>528.3</ele>
        <time>2020-06-20T17:05:31Z</time>
      </trkpt>
      <trkpt lat="43.82023" lon="5.95825">
        <ele>528.6</ele>
        <time>2020-06-20T17:05:32Z</time>
      </trkpt>
      <trkpt lat="43.82023" lon="5.95824">
        <ele>528.6</ele>
        <time>2020-06-20T17:05:33Z</time>
      </trkpt>
      <trkpt lat="43.82021" lon="5.95821">
        <ele>528.8</ele>
        <time>2020-06-20T17:05:34Z</time>
      </trkpt>
      <trkpt lat="43.8202" lon="5.95819">
        <ele>528.9</ele>
        <time>2020-06-20T17:05:36Z</time>
      </trkpt>
      <trkpt lat="43.82018" lon="5.95815">
        <ele>529.1</ele>
        <time>2020-06-20T17:05:37Z</time>
      </trkpt>
      <trkpt lat="43.82016" lon="5.95811">
        <ele>529.3</ele>
        <time>2020-06-20T17:05:38Z</time>
      </trkpt>
      <trkpt lat="43.82014" lon="5.95807">
        <ele>529.4</ele>
        <time>2020-06-20T17:05:39Z</time>
      </trkpt>
      <trkpt lat="43.82012" lon="5.95803">
        <ele>529.5</ele>
        <time>2020-06-20T17:05:40Z</time>
      </trkpt>
      <trkpt lat="43.8201" lon="5.95799">
        <ele>529.6</ele>
        <time>2020-06-20T17:05:42Z</time>
      </trkpt>
      <trkpt lat="43.82009" lon="5.95795">
        <ele>529.7</ele>
        <time>2020-06-20T17:05:43Z</time>
      </trkpt>
      <trkpt lat="43.82009" lon="5.95791">
        <ele>529.8</ele>
        <time>2020-06-20T17:05:44Z</time>
      </trkpt>
      <trkpt lat="43.82008" lon="5.95786">
        <ele>529.9</ele>
        <time>2020-06-20T17:05:46Z</time>
      </trkpt>
      <trkpt lat="43.82007" lon="5.95783">
        <ele>530</ele>
        <time>2020-06-20T17:05:47Z</time>
      </trkpt>
      <trkpt lat="43.82006" lon="5.95778">
        <ele>530</ele>
        <time>2020-06-20T17:05:48Z</time>
      </trkpt>
      <trkpt lat="43.82005" lon="5.95774">
        <ele>530.1</ele>
        <time>2020-06-20T17:05:50Z</time>
      </trkpt>
      <trkpt lat="43.82004" lon="5.95769">
        <ele>530.2</ele>
        <time>2020-06-20T17:05:51Z</time>
      </trkpt>
      <trkpt lat="43.82004" lon="5.95767">
        <ele>530.3</ele>
        <time>2020-06-20T17:05:52Z</time>
      </trkpt>
      <trkpt lat="43.82003" lon="5.95762">
        <ele>530.3</ele>
        <time>2020-06-20T17:05:53Z</time>
      </trkpt>
      <trkpt lat="43.82002" lon="5.9576">
        <ele>530.4</ele>
        <time>2020-06-20T17:05:54Z</time>
      </trkpt>
      <trkpt lat="43.82001" lon="5.95756">
        <ele>530.4</ele>
        <time>2020-06-20T17:05:56Z</time>
      </trkpt>
      <trkpt lat="43.82" lon="5.95752">
        <ele>530.5</ele>
        <time>2020-06-20T17:05:57Z</time>
      </trkpt>
      <trkpt lat="43.81999" lon="5.95746">
        <ele>530.6</ele>
        <time>2020-06-20T17:05:59Z</time>
      </trkpt>
      <trkpt lat="43.81998" lon="5.95741">
        <ele>530.7</ele>
        <time>2020-06-20T17:06:00Z</time>
      </trkpt>
      <trkpt lat="43.81997" lon="5.95738">
        <ele>530.7</ele>
        <time>2020-06-20T17:06:01Z</time>
      </trkpt>
      <trkpt lat="43.81997" lon="5.95734">
        <ele>530.8</ele>
        <time>2020-06-20T17:06:02Z</time>
      </trkpt>
      <trkpt lat="43.81996" lon="5.9573">
        <ele>530.8</ele>
        <time>2020-06-20T17:06:03Z</time>
      </trkpt>
      <trkpt lat="43.81995" lon="5.95726">
        <ele>530.9</ele>
        <time>2020-06-20T17:06:05Z</time>
      </trkpt>
      <trkpt lat="43.81994" lon="5.95721">
        <ele>531</ele>
        <time>2020-06-20T17:06:06Z</time>
      </trkpt>
      <trkpt lat="43.81994" lon="5.95716">
        <ele>531</ele>
        <time>2020-06-20T17:06:07Z</time>
      </trkpt>
      <trkpt lat="43.81994" lon="5.95714">
        <ele>531</ele>
        <time>2020-06-20T17:06:08Z</time>
      </trkpt>
      <trkpt lat="43.81993" lon="5.9571">
        <ele>531.1</ele>
        <time>2020-06-20T17:06:10Z</time>
      </trkpt>
      <trkpt lat="43.81993" lon="5.95704">
        <ele>531.2</ele>
        <time>2020-06-20T17:06:11Z</time>
      </trkpt>
      <trkpt lat="43.81993" lon="5.957">
        <ele>531.2</ele>
        <time>2020-06-20T17:06:12Z</time>
      </trkpt>
      <trkpt lat="43.81994" lon="5.95696">
        <ele>531.3</ele>
        <time>2020-06-20T17:06:13Z</time>
      </trkpt>
      <trkpt lat="43.81995" lon="5.95691">
        <ele>531.5</ele>
        <time>2020-06-20T17:06:15Z</time>
      </trkpt>
      <trkpt lat="43.81995" lon="5.95687">
        <ele>531.6</ele>
        <time>2020-06-20T17:06:17Z</time>
      </trkpt>
      <trkpt lat="43.81996" lon="5.95683">
        <ele>531.8</ele>
        <time>2020-06-20T17:06:18Z</time>
      </trkpt>
      <trkpt lat="43.81996" lon="5.95678">
        <ele>531.9</ele>
        <time>2020-06-20T17:06:19Z</time>
      </trkpt>
      <trkpt lat="43.81996" lon="5.95677">
        <ele>532</ele>
        <time>2020-06-20T17:06:20Z</time>
      </trkpt>
      <trkpt lat="43.81997" lon="5.95672">
        <ele>532.2</ele>
        <time>2020-06-20T17:06:22Z</time>
      </trkpt>
      <trkpt lat="43.81997" lon="5.95669">
        <ele>532.4</ele>
        <time>2020-06-20T17:06:23Z</time>
      </trkpt>
      <trkpt lat="43.81998" lon="5.95664">
        <ele>532.7</ele>
        <time>2020-06-20T17:06:25Z</time>
      </trkpt>
      <trkpt lat="43.81999" lon="5.95659">
        <ele>533</ele>
        <time>2020-06-20T17:06:27Z</time>
      </trkpt>
      <trkpt lat="43.81999" lon="5.95657">
        <ele>533.1</ele>
        <time>2020-06-20T17:06:28Z</time>
      </trkpt>
      <trkpt lat="43.82" lon="5.95653">
        <ele>533.4</ele>
        <time>2020-06-20T17:06:29Z</time>
      </trkpt>
      <trkpt lat="43.82" lon="5.95652">
        <ele>533.5</ele>
        <time>2020-06-20T17:06:30Z</time>
      </trkpt>
      <trkpt lat="43.82001" lon="5.95648">
        <ele>533.8</ele>
        <time>2020-06-20T17:06:31Z</time>
      </trkpt>
      <trkpt lat="43.82001" lon="5.95646">
        <ele>534</ele>
        <time>2020-06-20T17:06:33Z</time>
      </trkpt>
      <trkpt lat="43.82002" lon="5.95641">
        <ele>534.3</ele>
        <time>2020-06-20T17:06:34Z</time>
      </trkpt>
      <trkpt lat="43.82003" lon="5.9564">
        <ele>534.4</ele>
        <time>2020-06-20T17:06:35Z</time>
      </trkpt>
      <trkpt lat="43.82003" lon="5.95634">
        <ele>534.8</ele>
        <time>2020-06-20T17:06:37Z</time>
      </trkpt>
      <trkpt lat="43.82003" lon="5.95632">
        <ele>535</ele>
        <time>2020-06-20T17:06:38Z</time>
      </trkpt>
      <trkpt lat="43.82004" lon="5.95628">
        <ele>535.3</ele>
        <time>2020-06-20T17:06:39Z</time>
      </trkpt>
      <trkpt lat="43.82004" lon="5.95624">
        <ele>535.6</ele>
        <time>2020-06-20T17:06:41Z</time>
      </trkpt>
      <trkpt lat="43.82005" lon="5.95618">
        <ele>536</ele>
        <time>2020-06-20T17:06:43Z</time>
      </trkpt>
      <trkpt lat="43.82004" lon="5.95615">
        <ele>536.2</ele>
        <time>2020-06-20T17:06:44Z</time>
      </trkpt>
      <trkpt lat="43.82005" lon="5.95611">
        <ele>536.5</ele>
        <time>2020-06-20T17:06:46Z</time>
      </trkpt>
      <trkpt lat="43.82004" lon="5.95607">
        <ele>536.8</ele>
        <time>2020-06-20T17:06:47Z</time>
      </trkpt>
      <trkpt lat="43.82003" lon="5.95602">
        <ele>537.2</ele>
        <time>2020-06-20T17:06:49Z</time>
      </trkpt>
      <trkpt lat="43.82003" lon="5.95597">
        <ele>537.6</ele>
        <time>2020-06-20T17:06:50Z</time>
      </trkpt>
      <trkpt lat="43.82001" lon="5.95592">
        <ele>538</ele>
        <time>2020-06-20T17:06:52Z</time>
      </trkpt>
      <trkpt lat="43.82" lon="5.9559">
        <ele>538.2</ele>
        <time>2020-06-20T17:06:53Z</time>
      </trkpt>
      <trkpt lat="43.82" lon="5.95588">
        <ele>538.3</ele>
        <time>2020-06-20T17:06:54Z</time>
      </trkpt>
      <trkpt lat="43.81998" lon="5.95586">
        <ele>538.5</ele>
        <time>2020-06-20T17:06:56Z</time>
      </trkpt>
      <trkpt lat="43.81998" lon="5.95585">
        <ele>538.6</ele>
        <time>2020-06-20T17:06:58Z</time>
      </trkpt>
      <trkpt lat="43.81997" lon="5.95585">
        <ele>538.6</ele>
        <time>2020-06-20T17:07:00Z</time>
      </trkpt>
      <trkpt lat="43.81997" lon="5.95585">
        <ele>538.6</ele>
        <time>2020-06-20T17:07:01Z</time>
      </trkpt>
      <trkpt lat="43.81997" lon="5.95585">
        <ele>538.7</ele>
        <time>2020-06-20T17:07:02Z</time>
      </trkpt>
      <trkpt lat="43.81995" lon="5.95584">
        <ele>538.8</ele>
        <time>2020-06-20T17:07:03Z</time>
      </trkpt>
      <trkpt lat="43.81994" lon="5.95584">
        <ele>538.9</ele>
        <time>2020-06-20T17:07:05Z</time>
      </trkpt>
      <trkpt lat="43.81993" lon="5.95583">
        <ele>539</ele>
        <time>2020-06-20T17:07:06Z</time>
      </trkpt>
      <trkpt lat="43.81992" lon="5.95583">
        <ele>539.1</ele>
        <time>2020-06-20T17:07:07Z</time>
      </trkpt>
      <trkpt lat="43.81991" lon="5.95582">
        <ele>539.2</ele>
        <time>2020-06-20T17:07:09Z</time>
      </trkpt>
      <trkpt lat="43.8199" lon="5.95581">
        <ele>539.3</ele>
        <time>2020-06-20T17:07:10Z</time>
      </trkpt>
      <trkpt lat="43.81989" lon="5.9558">
        <ele>539.4</ele>
        <time>2020-06-20T17:07:11Z</time>
      </trkpt>
      <trkpt lat="43.81988" lon="5.95579">
        <ele>539.5</ele>
        <time>2020-06-20T17:07:12Z</time>
      </trkpt>
      <trkpt lat="43.81987" lon="5.95578">
        <ele>539.6</ele>
        <time>2020-06-20T17:07:13Z</time>
      </trkpt>
      <trkpt lat="43.81986" lon="5.95578">
        <ele>539.7</ele>
        <time>2020-06-20T17:07:14Z</time>
      </trkpt>
      <trkpt lat="43.81985" lon="5.95577">
        <ele>539.7</ele>
        <time>2020-06-20T17:07:15Z</time>
      </trkpt>
      <trkpt lat="43.81985" lon="5.95575">
        <ele>539.8</ele>
        <time>2020-06-20T17:07:17Z</time>
      </trkpt>
      <trkpt lat="43.81985" lon="5.95575">
        <ele>539.9</ele>
        <time>2020-06-20T17:07:19Z</time>
      </trkpt>
      <trkpt lat="43.81985" lon="5.95575">
        <ele>539.9</ele>
        <time>2020-06-20T17:07:20Z</time>
      </trkpt>
      <trkpt lat="43.81984" lon="5.95575">
        <ele>539.9</ele>
        <time>2020-06-20T17:07:21Z</time>
      </trkpt>
      <trkpt lat="43.81984" lon="5.95574">
        <ele>540</ele>
        <time>2020-06-20T17:07:23Z</time>
      </trkpt>
      <trkpt lat="43.81982" lon="5.95573">
        <ele>540.1</ele>
        <time>2020-06-20T17:07:24Z</time>
      </trkpt>
      <trkpt lat="43.81981" lon="5.95572">
        <ele>540.2</ele>
        <time>2020-06-20T17:07:25Z</time>
      </trkpt>
      <trkpt lat="43.8198" lon="5.95571">
        <ele>540.3</ele>
        <time>2020-06-20T17:07:26Z</time>
      </trkpt>
      <trkpt lat="43.81979" lon="5.9557">
        <ele>540.5</ele>
        <time>2020-06-20T17:07:28Z</time>
      </trkpt>
      <trkpt lat="43.81978" lon="5.95569">
        <ele>540.6</ele>
        <time>2020-06-20T17:07:29Z</time>
      </trkpt>
      <trkpt lat="43.81977" lon="5.95568">
        <ele>540.7</ele>
        <time>2020-06-20T17:07:30Z</time>
      </trkpt>
      <trkpt lat="43.81977" lon="5.95568">
        <ele>540.8</ele>
        <time>2020-06-20T17:07:31Z</time>
      </trkpt>
      <trkpt lat="43.81976" lon="5.95567">
        <ele>540.8</ele>
        <time>2020-06-20T17:07:32Z</time>
      </trkpt>
      <trkpt lat="43.81975" lon="5.95566">
        <ele>541</ele>
        <time>2020-06-20T17:07:34Z</time>
      </trkpt>
      <trkpt lat="43.81974" lon="5.95566">
        <ele>541.1</ele>
        <time>2020-06-20T17:07:35Z</time>
      </trkpt>
      <trkpt lat="43.81974" lon="5.95565">
        <ele>541.2</ele>
        <time>2020-06-20T17:07:36Z</time>
      </trkpt>
      <trkpt lat="43.81972" lon="5.95564">
        <ele>541.4</ele>
        <time>2020-06-20T17:07:38Z</time>
      </trkpt>
      <trkpt lat="43.81971" lon="5.95563">
        <ele>541.6</ele>
        <time>2020-06-20T17:07:39Z</time>
      </trkpt>
      <trkpt lat="43.8197" lon="5.95562">
        <ele>541.7</ele>
        <time>2020-06-20T17:07:40Z</time>
      </trkpt>
      <trkpt lat="43.8197" lon="5.95561">
        <ele>541.8</ele>
        <time>2020-06-20T17:07:41Z</time>
      </trkpt>
      <trkpt lat="43.81969" lon="5.9556">
        <ele>542</ele>
        <time>2020-06-20T17:07:43Z</time>
      </trkpt>
      <trkpt lat="43.81969" lon="5.95559">
        <ele>542.1</ele>
        <time>2020-06-20T17:07:44Z</time>
      </trkpt>
      <trkpt lat="43.81969" lon="5.95558">
        <ele>542.2</ele>
        <time>2020-06-20T17:07:45Z</time>
      </trkpt>
      <trkpt lat="43.81968" lon="5.95556">
        <ele>542.4</ele>
        <time>2020-06-20T17:07:47Z</time>
      </trkpt>
      <trkpt lat="43.81967" lon="5.95555">
        <ele>542.6</ele>
        <time>2020-06-20T17:07:48Z</time>
      </trkpt>
      <trkpt lat="43.81966" lon="5.95552">
        <ele>542.9</ele>
        <time>2020-06-20T17:07:49Z</time>
      </trkpt>
      <trkpt lat="43.81965" lon="5.95551">
        <ele>543.1</ele>
        <time>2020-06-20T17:07:51Z</time>
      </trkpt>
      <trkpt lat="43.81964" lon="5.9555">
        <ele>543.3</ele>
        <time>2020-06-20T17:07:52Z</time>
      </trkpt>
      <trkpt lat="43.81963" lon="5.95549">
        <ele>543.5</ele>
        <time>2020-06-20T17:07:54Z</time>
      </trkpt>
      <trkpt lat="43.81962" lon="5.95547">
        <ele>543.8</ele>
        <time>2020-06-20T17:07:55Z</time>
      </trkpt>
      <trkpt lat="43.81962" lon="5.95546">
        <ele>543.9</ele>
        <time>2020-06-20T17:07:56Z</time>
      </trkpt>
      <trkpt lat="43.81961" lon="5.95545">
        <ele>544.1</ele>
        <time>2020-06-20T17:07:58Z</time>
      </trkpt>
      <trkpt lat="43.8196" lon="5.95544">
        <ele>544.3</ele>
        <time>2020-06-20T17:07:59Z</time>
      </trkpt>
      <trkpt lat="43.81959" lon="5.95543">
        <ele>544.5</ele>
        <time>2020-06-20T17:08:01Z</time>
      </trkpt>
      <trkpt lat="43.81958" lon="5.95541">
        <ele>544.8</ele>
        <time>2020-06-20T17:08:02Z</time>
      </trkpt>
      <trkpt lat="43.81958" lon="5.9554">
        <ele>545</ele>
        <time>2020-06-20T17:08:03Z</time>
      </trkpt>
      <trkpt lat="43.81957" lon="5.95538">
        <ele>545.1</ele>
        <time>2020-06-20T17:08:04Z</time>
      </trkpt>
      <trkpt lat="43.81956" lon="5.95537">
        <ele>545.3</ele>
        <time>2020-06-20T17:08:05Z</time>
      </trkpt>
      <trkpt lat="43.81955" lon="5.95536">
        <ele>545.6</ele>
        <time>2020-06-20T17:08:07Z</time>
      </trkpt>
      <trkpt lat="43.81955" lon="5.95535">
        <ele>545.7</ele>
        <time>2020-06-20T17:08:08Z</time>
      </trkpt>
      <trkpt lat="43.81954" lon="5.95533">
        <ele>545.8</ele>
        <time>2020-06-20T17:08:09Z</time>
      </trkpt>
      <trkpt lat="43.81954" lon="5.95532">
        <ele>546</ele>
        <time>2020-06-20T17:08:10Z</time>
      </trkpt>
      <trkpt lat="43.81954" lon="5.95531">
        <ele>546.1</ele>
        <time>2020-06-20T17:08:12Z</time>
      </trkpt>
      <trkpt lat="43.81953" lon="5.9553">
        <ele>546.3</ele>
        <time>2020-06-20T17:08:13Z</time>
      </trkpt>
      <trkpt lat="43.81954" lon="5.95529">
        <ele>546.3</ele>
        <time>2020-06-20T17:08:14Z</time>
      </trkpt>
      <trkpt lat="43.81954" lon="5.9553">
        <ele>546.3</ele>
        <time>2020-06-20T17:08:16Z</time>
      </trkpt>
      <trkpt lat="43.81954" lon="5.9553">
        <ele>546.3</ele>
        <time>2020-06-20T17:08:18Z</time>
      </trkpt>
      <trkpt lat="43.81954" lon="5.9553">
        <ele>546.4</ele>
        <time>2020-06-20T17:08:20Z</time>
      </trkpt>
      <trkpt lat="43.81954" lon="5.9553">
        <ele>546.4</ele>
        <time>2020-06-20T17:08:22Z</time>
      </trkpt>
      <trkpt lat="43.81954" lon="5.9553">
        <ele>546.4</ele>
        <time>2020-06-20T17:08:23Z</time>
      </trkpt>
      <trkpt lat="43.81954" lon="5.9553">
        <ele>546.4</ele>
        <time>2020-06-20T17:08:25Z</time>
      </trkpt>
      <trkpt lat="43.81955" lon="5.9553">
        <ele>546.5</ele>
        <time>2020-06-20T17:08:27Z</time>
      </trkpt>
      <trkpt lat="43.81955" lon="5.9553">
        <ele>546.5</ele>
        <time>2020-06-20T17:08:29Z</time>
      </trkpt>
      <trkpt lat="43.81955" lon="5.9553">
        <ele>546.5</ele>
        <time>2020-06-20T17:08:31Z</time>
      </trkpt>
      <trkpt lat="43.81955" lon="5.95531">
        <ele>546.5</ele>
        <time>2020-06-20T17:08:33Z</time>
      </trkpt>
      <trkpt lat="43.81955" lon="5.95531">
        <ele>546.6</ele>
        <time>2020-06-20T17:08:34Z</time>
      </trkpt>
      <trkpt lat="43.81956" lon="5.95531">
        <ele>546.8</ele>
        <time>2020-06-20T17:08:35Z</time>
      </trkpt>
      <trkpt lat="43.81957" lon="5.95531">
        <ele>546.9</ele>
        <time>2020-06-20T17:08:37Z</time>
      </trkpt>
      <trkpt lat="43.81958" lon="5.95531">
        <ele>547</ele>
        <time>2020-06-20T17:08:39Z</time>
      </trkpt>
      <trkpt lat="43.81958" lon="5.95531">
        <ele>547</ele>
        <time>2020-06-20T17:08:41Z</time>
      </trkpt>
      <trkpt lat="43.81958" lon="5.95531">
        <ele>547</ele>
        <time>2020-06-20T17:08:43Z</time>
      </trkpt>
      <trkpt lat="43.81957" lon="5.95526">
        <ele>547.4</ele>
        <time>2020-06-20T17:09:08Z</time>
      </trkpt>
      <trkpt lat="43.81958" lon="5.95524">
        <ele>547.6</ele>
        <time>2020-06-20T17:09:09Z</time>
      </trkpt>
      <trkpt lat="43.81959" lon="5.95521">
        <ele>547.9</ele>
        <time>2020-06-20T17:09:11Z</time>
      </trkpt>
      <trkpt lat="43.81959" lon="5.95519">
        <ele>548.1</ele>
        <time>2020-06-20T17:09:12Z</time>
      </trkpt>
      <trkpt lat="43.8196" lon="5.95517">
        <ele>548.3</ele>
        <time>2020-06-20T17:09:13Z</time>
      </trkpt>
      <trkpt lat="43.81961" lon="5.95513">
        <ele>548.6</ele>
        <time>2020-06-20T17:09:14Z</time>
      </trkpt>
      <trkpt lat="43.81961" lon="5.95512">
        <ele>548.7</ele>
        <time>2020-06-20T17:09:15Z</time>
      </trkpt>
      <trkpt lat="43.81963" lon="5.95503">
        <ele>549.3</ele>
        <time>2020-06-20T17:09:17Z</time>
      </trkpt>
      <trkpt lat="43.81963" lon="5.95497">
        <ele>549.6</ele>
        <time>2020-06-20T17:09:18Z</time>
      </trkpt>
      <trkpt lat="43.81964" lon="5.95493">
        <ele>549.9</ele>
        <time>2020-06-20T17:09:19Z</time>
      </trkpt>
      <trkpt lat="43.81965" lon="5.95489">
        <ele>550.1</ele>
        <time>2020-06-20T17:09:20Z</time>
      </trkpt>
      <trkpt lat="43.81966" lon="5.95484">
        <ele>550.3</ele>
        <time>2020-06-20T17:09:22Z</time>
      </trkpt>
      <trkpt lat="43.81966" lon="5.95479">
        <ele>550.6</ele>
        <time>2020-06-20T17:09:23Z</time>
      </trkpt>
      <trkpt lat="43.81967" lon="5.95477">
        <ele>550.6</ele>
        <time>2020-06-20T17:09:24Z</time>
      </trkpt>
      <trkpt lat="43.81967" lon="5.95472">
        <ele>550.9</ele>
        <time>2020-06-20T17:09:26Z</time>
      </trkpt>
      <trkpt lat="43.81967" lon="5.95469">
        <ele>551</ele>
        <time>2020-06-20T17:09:27Z</time>
      </trkpt>
      <trkpt lat="43.81967" lon="5.95464">
        <ele>551.2</ele>
        <time>2020-06-20T17:09:29Z</time>
      </trkpt>
      <trkpt lat="43.81967" lon="5.95462">
        <ele>551.3</ele>
        <time>2020-06-20T17:09:30Z</time>
      </trkpt>
      <trkpt lat="43.81969" lon="5.95459">
        <ele>551.5</ele>
        <time>2020-06-20T17:09:32Z</time>
      </trkpt>
      <trkpt lat="43.81969" lon="5.95457">
        <ele>551.5</ele>
        <time>2020-06-20T17:09:33Z</time>
      </trkpt>
      <trkpt lat="43.8197" lon="5.95455">
        <ele>551.6</ele>
        <time>2020-06-20T17:09:34Z</time>
      </trkpt>
      <trkpt lat="43.81971" lon="5.95453">
        <ele>551.8</ele>
        <time>2020-06-20T17:09:35Z</time>
      </trkpt>
      <trkpt lat="43.81972" lon="5.95448">
        <ele>552</ele>
        <time>2020-06-20T17:09:37Z</time>
      </trkpt>
      <trkpt lat="43.81972" lon="5.95444">
        <ele>552.3</ele>
        <time>2020-06-20T17:09:38Z</time>
      </trkpt>
      <trkpt lat="43.81971" lon="5.95441">
        <ele>552.5</ele>
        <time>2020-06-20T17:09:40Z</time>
      </trkpt>
      <trkpt lat="43.81971" lon="5.95439">
        <ele>552.7</ele>
        <time>2020-06-20T17:09:42Z</time>
      </trkpt>
      <trkpt lat="43.8197" lon="5.95436">
        <ele>552.9</ele>
        <time>2020-06-20T17:09:44Z</time>
      </trkpt>
      <trkpt lat="43.8197" lon="5.95434">
        <ele>553.2</ele>
        <time>2020-06-20T17:09:45Z</time>
      </trkpt>
      <trkpt lat="43.81969" lon="5.95431">
        <ele>553.4</ele>
        <time>2020-06-20T17:09:46Z</time>
      </trkpt>
      <trkpt lat="43.81968" lon="5.95427">
        <ele>553.7</ele>
        <time>2020-06-20T17:09:48Z</time>
      </trkpt>
      <trkpt lat="43.81966" lon="5.95423">
        <ele>554.1</ele>
        <time>2020-06-20T17:09:49Z</time>
      </trkpt>
      <trkpt lat="43.81964" lon="5.9542">
        <ele>554.4</ele>
        <time>2020-06-20T17:09:51Z</time>
      </trkpt>
      <trkpt lat="43.81962" lon="5.95417">
        <ele>554.8</ele>
        <time>2020-06-20T17:09:53Z</time>
      </trkpt>
      <trkpt lat="43.8196" lon="5.95414">
        <ele>555.1</ele>
        <time>2020-06-20T17:09:54Z</time>
      </trkpt>
      <trkpt lat="43.81959" lon="5.95411">
        <ele>555.3</ele>
        <time>2020-06-20T17:09:55Z</time>
      </trkpt>
      <trkpt lat="43.81958" lon="5.95407">
        <ele>555.6</ele>
        <time>2020-06-20T17:09:57Z</time>
      </trkpt>
      <trkpt lat="43.81958" lon="5.95405">
        <ele>555.9</ele>
        <time>2020-06-20T17:09:58Z</time>
      </trkpt>
      <trkpt lat="43.81958" lon="5.95402">
        <ele>556.1</ele>
        <time>2020-06-20T17:09:59Z</time>
      </trkpt>
      <trkpt lat="43.81958" lon="5.95397">
        <ele>556.6</ele>
        <time>2020-06-20T17:10:01Z</time>
      </trkpt>
      <trkpt lat="43.81958" lon="5.95395">
        <ele>556.8</ele>
        <time>2020-06-20T17:10:02Z</time>
      </trkpt>
      <trkpt lat="43.81957" lon="5.95394">
        <ele>556.9</ele>
        <time>2020-06-20T17:10:03Z</time>
      </trkpt>
      <trkpt lat="43.81956" lon="5.95392">
        <ele>557.1</ele>
        <time>2020-06-20T17:10:04Z</time>
      </trkpt>
      <trkpt lat="43.81955" lon="5.9539">
        <ele>557.4</ele>
        <time>2020-06-20T17:10:06Z</time>
      </trkpt>
      <trkpt lat="43.81954" lon="5.95388">
        <ele>557.6</ele>
        <time>2020-06-20T17:10:07Z</time>
      </trkpt>
      <trkpt lat="43.81952" lon="5.95386">
        <ele>557.9</ele>
        <time>2020-06-20T17:10:09Z</time>
      </trkpt>
      <trkpt lat="43.81949" lon="5.95383">
        <ele>558.3</ele>
        <time>2020-06-20T17:10:10Z</time>
      </trkpt>
      <trkpt lat="43.81949" lon="5.95382">
        <ele>558.3</ele>
        <time>2020-06-20T17:10:11Z</time>
      </trkpt>
      <trkpt lat="43.81946" lon="5.95379">
        <ele>558.7</ele>
        <time>2020-06-20T17:10:13Z</time>
      </trkpt>
      <trkpt lat="43.81945" lon="5.95378">
        <ele>558.8</ele>
        <time>2020-06-20T17:10:14Z</time>
      </trkpt>
      <trkpt lat="43.81945" lon="5.95376">
        <ele>558.9</ele>
        <time>2020-06-20T17:10:16Z</time>
      </trkpt>
      <trkpt lat="43.81944" lon="5.95374">
        <ele>559</ele>
        <time>2020-06-20T17:10:17Z</time>
      </trkpt>
      <trkpt lat="43.81944" lon="5.95372">
        <ele>559.1</ele>
        <time>2020-06-20T17:10:18Z</time>
      </trkpt>
      <trkpt lat="43.81944" lon="5.95364">
        <ele>559.5</ele>
        <time>2020-06-20T17:10:20Z</time>
      </trkpt>
      <trkpt lat="43.81945" lon="5.95356">
        <ele>559.7</ele>
        <time>2020-06-20T17:10:21Z</time>
      </trkpt>
      <trkpt lat="43.81945" lon="5.95351">
        <ele>559.8</ele>
        <time>2020-06-20T17:10:23Z</time>
      </trkpt>
      <trkpt lat="43.81945" lon="5.95347">
        <ele>559.8</ele>
        <time>2020-06-20T17:10:24Z</time>
      </trkpt>
      <trkpt lat="43.81945" lon="5.95342">
        <ele>559.8</ele>
        <time>2020-06-20T17:10:25Z</time>
      </trkpt>
      <trkpt lat="43.81944" lon="5.9534">
        <ele>559.8</ele>
        <time>2020-06-20T17:10:26Z</time>
      </trkpt>
      <trkpt lat="43.81944" lon="5.95335">
        <ele>559.8</ele>
        <time>2020-06-20T17:10:28Z</time>
      </trkpt>
      <trkpt lat="43.81943" lon="5.9533">
        <ele>559.8</ele>
        <time>2020-06-20T17:10:29Z</time>
      </trkpt>
      <trkpt lat="43.81943" lon="5.95325">
        <ele>559.9</ele>
        <time>2020-06-20T17:10:30Z</time>
      </trkpt>
      <trkpt lat="43.81942" lon="5.95316">
        <ele>559.9</ele>
        <time>2020-06-20T17:10:32Z</time>
      </trkpt>
      <trkpt lat="43.81942" lon="5.95308">
        <ele>559.9</ele>
        <time>2020-06-20T17:10:34Z</time>
      </trkpt>
      <trkpt lat="43.81943" lon="5.95302">
        <ele>559.9</ele>
        <time>2020-06-20T17:10:35Z</time>
      </trkpt>
      <trkpt lat="43.81943" lon="5.95296">
        <ele>559.9</ele>
        <time>2020-06-20T17:10:37Z</time>
      </trkpt>
      <trkpt lat="43.81943" lon="5.95291">
        <ele>559.8</ele>
        <time>2020-06-20T17:10:38Z</time>
      </trkpt>
      <trkpt lat="43.81944" lon="5.95284">
        <ele>559.8</ele>
        <time>2020-06-20T17:10:40Z</time>
      </trkpt>
      <trkpt lat="43.81944" lon="5.95279">
        <ele>559.7</ele>
        <time>2020-06-20T17:10:41Z</time>
      </trkpt>
      <trkpt lat="43.81943" lon="5.95274">
        <ele>559.7</ele>
        <time>2020-06-20T17:10:42Z</time>
      </trkpt>
      <trkpt lat="43.81943" lon="5.95268">
        <ele>559.6</ele>
        <time>2020-06-20T17:10:44Z</time>
      </trkpt>
      <trkpt lat="43.81941" lon="5.95263">
        <ele>559.6</ele>
        <time>2020-06-20T17:10:45Z</time>
      </trkpt>
      <trkpt lat="43.81939" lon="5.95259">
        <ele>559.5</ele>
        <time>2020-06-20T17:10:46Z</time>
      </trkpt>
      <trkpt lat="43.81937" lon="5.95253">
        <ele>559.5</ele>
        <time>2020-06-20T17:10:47Z</time>
      </trkpt>
      <trkpt lat="43.81936" lon="5.95245">
        <ele>559.4</ele>
        <time>2020-06-20T17:10:49Z</time>
      </trkpt>
      <trkpt lat="43.81937" lon="5.95237">
        <ele>559.3</ele>
        <time>2020-06-20T17:10:51Z</time>
      </trkpt>
      <trkpt lat="43.81938" lon="5.95233">
        <ele>559.3</ele>
        <time>2020-06-20T17:10:52Z</time>
      </trkpt>
      <trkpt lat="43.81938" lon="5.95224">
        <ele>559.2</ele>
        <time>2020-06-20T17:10:54Z</time>
      </trkpt>
      <trkpt lat="43.81939" lon="5.95219">
        <ele>559.2</ele>
        <time>2020-06-20T17:10:55Z</time>
      </trkpt>
      <trkpt lat="43.81939" lon="5.95214">
        <ele>559.2</ele>
        <time>2020-06-20T17:10:56Z</time>
      </trkpt>
      <trkpt lat="43.8194" lon="5.95209">
        <ele>559.2</ele>
        <time>2020-06-20T17:10:57Z</time>
      </trkpt>
      <trkpt lat="43.81941" lon="5.95205">
        <ele>559.2</ele>
        <time>2020-06-20T17:10:59Z</time>
      </trkpt>
      <trkpt lat="43.81942" lon="5.952">
        <ele>559.2</ele>
        <time>2020-06-20T17:11:00Z</time>
      </trkpt>
      <trkpt lat="43.81943" lon="5.9519">
        <ele>559.3</ele>
        <time>2020-06-20T17:11:02Z</time>
      </trkpt>
      <trkpt lat="43.81943" lon="5.95184">
        <ele>559.3</ele>
        <time>2020-06-20T17:11:03Z</time>
      </trkpt>
      <trkpt lat="43.81944" lon="5.95178">
        <ele>559.3</ele>
        <time>2020-06-20T17:11:05Z</time>
      </trkpt>
      <trkpt lat="43.81944" lon="5.95173">
        <ele>559.4</ele>
        <time>2020-06-20T17:11:06Z</time>
      </trkpt>
      <trkpt lat="43.81945" lon="5.95169">
        <ele>559.4</ele>
        <time>2020-06-20T17:11:07Z</time>
      </trkpt>
      <trkpt lat="43.81947" lon="5.95165">
        <ele>559.5</ele>
        <time>2020-06-20T17:11:09Z</time>
      </trkpt>
      <trkpt lat="43.81949" lon="5.95161">
        <ele>559.5</ele>
        <time>2020-06-20T17:11:10Z</time>
      </trkpt>
      <trkpt lat="43.8195" lon="5.95157">
        <ele>559.6</ele>
        <time>2020-06-20T17:11:12Z</time>
      </trkpt>
      <trkpt lat="43.8195" lon="5.95153">
        <ele>559.7</ele>
        <time>2020-06-20T17:11:14Z</time>
      </trkpt>
      <trkpt lat="43.8195" lon="5.95151">
        <ele>559.5</ele>
        <time>2020-06-20T17:11:15Z</time>
      </trkpt>
      <trkpt lat="43.81949" lon="5.95151">
        <ele>559.5</ele>
        <time>2020-06-20T17:11:17Z</time>
      </trkpt>
      <trkpt lat="43.81949" lon="5.95151">
        <ele>559.5</ele>
        <time>2020-06-20T17:11:18Z</time>
      </trkpt>
      <trkpt lat="43.81949" lon="5.95151">
        <ele>559.5</ele>
        <time>2020-06-20T17:11:20Z</time>
      </trkpt>
      <trkpt lat="43.81949" lon="5.9515">
        <ele>559.5</ele>
        <time>2020-06-20T17:11:22Z</time>
      </trkpt>
      <trkpt lat="43.81948" lon="5.95149">
        <ele>559.5</ele>
        <time>2020-06-20T17:11:23Z</time>
      </trkpt>
      <trkpt lat="43.81948" lon="5.95149">
        <ele>559.5</ele>
        <time>2020-06-20T17:11:25Z</time>
      </trkpt>
      <trkpt lat="43.8195" lon="5.95144">
        <ele>559.4</ele>
        <time>2020-06-20T17:12:46Z</time>
      </trkpt>
      <trkpt lat="43.81949" lon="5.95139">
        <ele>559.4</ele>
        <time>2020-06-20T17:12:48Z</time>
      </trkpt>
      <trkpt lat="43.81948" lon="5.95133">
        <ele>559.4</ele>
        <time>2020-06-20T17:12:49Z</time>
      </trkpt>
      <trkpt lat="43.81946" lon="5.9513">
        <ele>559.3</ele>
        <time>2020-06-20T17:12:51Z</time>
      </trkpt>
      <trkpt lat="43.81944" lon="5.95126">
        <ele>559.3</ele>
        <time>2020-06-20T17:12:52Z</time>
      </trkpt>
      <trkpt lat="43.8194" lon="5.95118">
        <ele>559.1</ele>
        <time>2020-06-20T17:12:53Z</time>
      </trkpt>
      <trkpt lat="43.81937" lon="5.95112">
        <ele>559</ele>
        <time>2020-06-20T17:12:54Z</time>
      </trkpt>
      <trkpt lat="43.81934" lon="5.95104">
        <ele>558.7</ele>
        <time>2020-06-20T17:12:55Z</time>
      </trkpt>
      <trkpt lat="43.8193" lon="5.95095">
        <ele>558.6</ele>
        <time>2020-06-20T17:12:57Z</time>
      </trkpt>
      <trkpt lat="43.81929" lon="5.95088">
        <ele>558.5</ele>
        <time>2020-06-20T17:12:58Z</time>
      </trkpt>
      <trkpt lat="43.81927" lon="5.95081">
        <ele>558.4</ele>
        <time>2020-06-20T17:12:59Z</time>
      </trkpt>
      <trkpt lat="43.81926" lon="5.95074">
        <ele>558.4</ele>
        <time>2020-06-20T17:13:00Z</time>
      </trkpt>
      <trkpt lat="43.81925" lon="5.95068">
        <ele>558.3</ele>
        <time>2020-06-20T17:13:01Z</time>
      </trkpt>
      <trkpt lat="43.81924" lon="5.9506">
        <ele>558.1</ele>
        <time>2020-06-20T17:13:03Z</time>
      </trkpt>
      <trkpt lat="43.81922" lon="5.9505">
        <ele>557.9</ele>
        <time>2020-06-20T17:13:05Z</time>
      </trkpt>
      <trkpt lat="43.81921" lon="5.95043">
        <ele>557.8</ele>
        <time>2020-06-20T17:13:07Z</time>
      </trkpt>
      <trkpt lat="43.8192" lon="5.95038">
        <ele>557.7</ele>
        <time>2020-06-20T17:13:08Z</time>
      </trkpt>
      <trkpt lat="43.8192" lon="5.95033">
        <ele>557.6</ele>
        <time>2020-06-20T17:13:09Z</time>
      </trkpt>
      <trkpt lat="43.81919" lon="5.95022">
        <ele>557.5</ele>
        <time>2020-06-20T17:13:11Z</time>
      </trkpt>
      <trkpt lat="43.81918" lon="5.95015">
        <ele>557.4</ele>
        <time>2020-06-20T17:13:12Z</time>
      </trkpt>
      <trkpt lat="43.81918" lon="5.9501">
        <ele>557.3</ele>
        <time>2020-06-20T17:13:13Z</time>
      </trkpt>
      <trkpt lat="43.81917" lon="5.95005">
        <ele>557.3</ele>
        <time>2020-06-20T17:13:14Z</time>
      </trkpt>
      <trkpt lat="43.81916" lon="5.94994">
        <ele>557.2</ele>
        <time>2020-06-20T17:13:16Z</time>
      </trkpt>
      <trkpt lat="43.81915" lon="5.94987">
        <ele>557.1</ele>
        <time>2020-06-20T17:13:18Z</time>
      </trkpt>
      <trkpt lat="43.81914" lon="5.94981">
        <ele>557</ele>
        <time>2020-06-20T17:13:19Z</time>
      </trkpt>
      <trkpt lat="43.81913" lon="5.94974">
        <ele>556.9</ele>
        <time>2020-06-20T17:13:20Z</time>
      </trkpt>
      <trkpt lat="43.81912" lon="5.94969">
        <ele>556.8</ele>
        <time>2020-06-20T17:13:21Z</time>
      </trkpt>
      <trkpt lat="43.81911" lon="5.94964">
        <ele>556.7</ele>
        <time>2020-06-20T17:13:23Z</time>
      </trkpt>
      <trkpt lat="43.8191" lon="5.94959">
        <ele>556.6</ele>
        <time>2020-06-20T17:13:24Z</time>
      </trkpt>
      <trkpt lat="43.81909" lon="5.94952">
        <ele>556.5</ele>
        <time>2020-06-20T17:13:25Z</time>
      </trkpt>
      <trkpt lat="43.81908" lon="5.94947">
        <ele>556.5</ele>
        <time>2020-06-20T17:13:26Z</time>
      </trkpt>
      <trkpt lat="43.81906" lon="5.94938">
        <ele>556.6</ele>
        <time>2020-06-20T17:13:28Z</time>
      </trkpt>
      <trkpt lat="43.81906" lon="5.94932">
        <ele>556.6</ele>
        <time>2020-06-20T17:13:29Z</time>
      </trkpt>
      <trkpt lat="43.81906" lon="5.94926">
        <ele>556.5</ele>
        <time>2020-06-20T17:13:30Z</time>
      </trkpt>
      <trkpt lat="43.81905" lon="5.94918">
        <ele>556.5</ele>
        <time>2020-06-20T17:13:31Z</time>
      </trkpt>
      <trkpt lat="43.81904" lon="5.94912">
        <ele>556.5</ele>
        <time>2020-06-20T17:13:32Z</time>
      </trkpt>
      <trkpt lat="43.81903" lon="5.94906">
        <ele>556.5</ele>
        <time>2020-06-20T17:13:33Z</time>
      </trkpt>
      <trkpt lat="43.81902" lon="5.94902">
        <ele>556.4</ele>
        <time>2020-06-20T17:13:34Z</time>
      </trkpt>
      <trkpt lat="43.81899" lon="5.94892">
        <ele>556.4</ele>
        <time>2020-06-20T17:13:36Z</time>
      </trkpt>
      <trkpt lat="43.81897" lon="5.94885">
        <ele>556.3</ele>
        <time>2020-06-20T17:13:37Z</time>
      </trkpt>
      <trkpt lat="43.81896" lon="5.94877">
        <ele>556.3</ele>
        <time>2020-06-20T17:13:39Z</time>
      </trkpt>
      <trkpt lat="43.81895" lon="5.9487">
        <ele>556.2</ele>
        <time>2020-06-20T17:13:40Z</time>
      </trkpt>
      <trkpt lat="43.81894" lon="5.94865">
        <ele>556.2</ele>
        <time>2020-06-20T17:13:41Z</time>
      </trkpt>
      <trkpt lat="43.81892" lon="5.94858">
        <ele>556.2</ele>
        <time>2020-06-20T17:13:42Z</time>
      </trkpt>
      <trkpt lat="43.81891" lon="5.94851">
        <ele>556.1</ele>
        <time>2020-06-20T17:13:43Z</time>
      </trkpt>
      <trkpt lat="43.8189" lon="5.94845">
        <ele>556</ele>
        <time>2020-06-20T17:13:44Z</time>
      </trkpt>
      <trkpt lat="43.81888" lon="5.94836">
        <ele>555.8</ele>
        <time>2020-06-20T17:13:46Z</time>
      </trkpt>
      <trkpt lat="43.81886" lon="5.9483">
        <ele>555.7</ele>
        <time>2020-06-20T17:13:47Z</time>
      </trkpt>
      <trkpt lat="43.81883" lon="5.94819">
        <ele>555.4</ele>
        <time>2020-06-20T17:13:49Z</time>
      </trkpt>
      <trkpt lat="43.81881" lon="5.94813">
        <ele>555.2</ele>
        <time>2020-06-20T17:13:50Z</time>
      </trkpt>
      <trkpt lat="43.81879" lon="5.94807">
        <ele>555</ele>
        <time>2020-06-20T17:13:51Z</time>
      </trkpt>
      <trkpt lat="43.81878" lon="5.94801">
        <ele>554.8</ele>
        <time>2020-06-20T17:13:52Z</time>
      </trkpt>
      <trkpt lat="43.81875" lon="5.94792">
        <ele>554.5</ele>
        <time>2020-06-20T17:13:53Z</time>
      </trkpt>
      <trkpt lat="43.81873" lon="5.94786">
        <ele>554.3</ele>
        <time>2020-06-20T17:13:54Z</time>
      </trkpt>
      <trkpt lat="43.81869" lon="5.94772">
        <ele>553.9</ele>
        <time>2020-06-20T17:13:56Z</time>
      </trkpt>
      <trkpt lat="43.81866" lon="5.94765">
        <ele>553.7</ele>
        <time>2020-06-20T17:13:57Z</time>
      </trkpt>
      <trkpt lat="43.81864" lon="5.94758">
        <ele>553.5</ele>
        <time>2020-06-20T17:13:58Z</time>
      </trkpt>
      <trkpt lat="43.81862" lon="5.94751">
        <ele>553.4</ele>
        <time>2020-06-20T17:13:59Z</time>
      </trkpt>
      <trkpt lat="43.8186" lon="5.94744">
        <ele>553.1</ele>
        <time>2020-06-20T17:14:00Z</time>
      </trkpt>
      <trkpt lat="43.81855" lon="5.9473">
        <ele>552.7</ele>
        <time>2020-06-20T17:14:02Z</time>
      </trkpt>
      <trkpt lat="43.81849" lon="5.94716">
        <ele>552.3</ele>
        <time>2020-06-20T17:14:04Z</time>
      </trkpt>
      <trkpt lat="43.81846" lon="5.9471">
        <ele>552.1</ele>
        <time>2020-06-20T17:14:05Z</time>
      </trkpt>
      <trkpt lat="43.81843" lon="5.94703">
        <ele>552</ele>
        <time>2020-06-20T17:14:06Z</time>
      </trkpt>
      <trkpt lat="43.8184" lon="5.94697">
        <ele>551.8</ele>
        <time>2020-06-20T17:14:07Z</time>
      </trkpt>
      <trkpt lat="43.81837" lon="5.94691">
        <ele>551.7</ele>
        <time>2020-06-20T17:14:08Z</time>
      </trkpt>
      <trkpt lat="43.81831" lon="5.9468">
        <ele>551.6</ele>
        <time>2020-06-20T17:14:10Z</time>
      </trkpt>
      <trkpt lat="43.81824" lon="5.94669">
        <ele>551.4</ele>
        <time>2020-06-20T17:14:12Z</time>
      </trkpt>
      <trkpt lat="43.81821" lon="5.94664">
        <ele>551.3</ele>
        <time>2020-06-20T17:14:13Z</time>
      </trkpt>
      <trkpt lat="43.81814" lon="5.94654">
        <ele>551</ele>
        <time>2020-06-20T17:14:15Z</time>
      </trkpt>
      <trkpt lat="43.81807" lon="5.94644">
        <ele>550.7</ele>
        <time>2020-06-20T17:14:17Z</time>
      </trkpt>
      <trkpt lat="43.818" lon="5.94634">
        <ele>550.4</ele>
        <time>2020-06-20T17:14:19Z</time>
      </trkpt>
      <trkpt lat="43.81793" lon="5.94623">
        <ele>550.2</ele>
        <time>2020-06-20T17:14:21Z</time>
      </trkpt>
      <trkpt lat="43.81789" lon="5.94617">
        <ele>550</ele>
        <time>2020-06-20T17:14:22Z</time>
      </trkpt>
      <trkpt lat="43.81785" lon="5.94612">
        <ele>549.9</ele>
        <time>2020-06-20T17:14:23Z</time>
      </trkpt>
      <trkpt lat="43.81778" lon="5.94601">
        <ele>549.9</ele>
        <time>2020-06-20T17:14:25Z</time>
      </trkpt>
      <trkpt lat="43.81771" lon="5.9459">
        <ele>549.8</ele>
        <time>2020-06-20T17:14:27Z</time>
      </trkpt>
      <trkpt lat="43.81765" lon="5.9458">
        <ele>549.7</ele>
        <time>2020-06-20T17:14:29Z</time>
      </trkpt>
      <trkpt lat="43.81761" lon="5.94575">
        <ele>549.6</ele>
        <time>2020-06-20T17:14:30Z</time>
      </trkpt>
      <trkpt lat="43.81755" lon="5.94565">
        <ele>549.4</ele>
        <time>2020-06-20T17:14:32Z</time>
      </trkpt>
      <trkpt lat="43.81749" lon="5.94555">
        <ele>549.2</ele>
        <time>2020-06-20T17:14:34Z</time>
      </trkpt>
      <trkpt lat="43.81746" lon="5.9455">
        <ele>549.1</ele>
        <time>2020-06-20T17:14:35Z</time>
      </trkpt>
      <trkpt lat="43.81743" lon="5.94545">
        <ele>549</ele>
        <time>2020-06-20T17:14:36Z</time>
      </trkpt>
      <trkpt lat="43.81741" lon="5.9454">
        <ele>548.9</ele>
        <time>2020-06-20T17:14:37Z</time>
      </trkpt>
      <trkpt lat="43.81736" lon="5.94529">
        <ele>548.9</ele>
        <time>2020-06-20T17:14:39Z</time>
      </trkpt>
      <trkpt lat="43.81733" lon="5.94524">
        <ele>548.9</ele>
        <time>2020-06-20T17:14:40Z</time>
      </trkpt>
      <trkpt lat="43.8173" lon="5.94519">
        <ele>548.8</ele>
        <time>2020-06-20T17:14:41Z</time>
      </trkpt>
      <trkpt lat="43.81729" lon="5.94515">
        <ele>548.8</ele>
        <time>2020-06-20T17:14:42Z</time>
      </trkpt>
      <trkpt lat="43.81726" lon="5.9451">
        <ele>548.8</ele>
        <time>2020-06-20T17:14:43Z</time>
      </trkpt>
      <trkpt lat="43.81719" lon="5.94499">
        <ele>548.5</ele>
        <time>2020-06-20T17:14:45Z</time>
      </trkpt>
      <trkpt lat="43.81713" lon="5.94488">
        <ele>548.2</ele>
        <time>2020-06-20T17:14:47Z</time>
      </trkpt>
      <trkpt lat="43.81709" lon="5.94483">
        <ele>548</ele>
        <time>2020-06-20T17:14:48Z</time>
      </trkpt>
      <trkpt lat="43.81702" lon="5.94473">
        <ele>547.4</ele>
        <time>2020-06-20T17:14:50Z</time>
      </trkpt>
      <trkpt lat="43.81697" lon="5.94467">
        <ele>547.1</ele>
        <time>2020-06-20T17:14:51Z</time>
      </trkpt>
      <trkpt lat="43.81688" lon="5.94455">
        <ele>546.5</ele>
        <time>2020-06-20T17:14:53Z</time>
      </trkpt>
      <trkpt lat="43.81677" lon="5.94443">
        <ele>545.7</ele>
        <time>2020-06-20T17:14:55Z</time>
      </trkpt>
      <trkpt lat="43.81671" lon="5.94436">
        <ele>545.4</ele>
        <time>2020-06-20T17:14:56Z</time>
      </trkpt>
      <trkpt lat="43.81661" lon="5.94423">
        <ele>544.8</ele>
        <time>2020-06-20T17:14:58Z</time>
      </trkpt>
      <trkpt lat="43.81656" lon="5.94417">
        <ele>544.6</ele>
        <time>2020-06-20T17:14:59Z</time>
      </trkpt>
      <trkpt lat="43.81647" lon="5.94405">
        <ele>544.2</ele>
        <time>2020-06-20T17:15:01Z</time>
      </trkpt>
      <trkpt lat="43.81644" lon="5.94399">
        <ele>544.1</ele>
        <time>2020-06-20T17:15:02Z</time>
      </trkpt>
      <trkpt lat="43.81638" lon="5.94386">
        <ele>543.9</ele>
        <time>2020-06-20T17:15:04Z</time>
      </trkpt>
      <trkpt lat="43.81635" lon="5.94379">
        <ele>543.8</ele>
        <time>2020-06-20T17:15:05Z</time>
      </trkpt>
      <trkpt lat="43.81633" lon="5.94372">
        <ele>543.7</ele>
        <time>2020-06-20T17:15:06Z</time>
      </trkpt>
      <trkpt lat="43.81629" lon="5.9436">
        <ele>543.6</ele>
        <time>2020-06-20T17:15:08Z</time>
      </trkpt>
      <trkpt lat="43.81624" lon="5.94348">
        <ele>543.4</ele>
        <time>2020-06-20T17:15:10Z</time>
      </trkpt>
      <trkpt lat="43.81622" lon="5.94342">
        <ele>543.3</ele>
        <time>2020-06-20T17:15:11Z</time>
      </trkpt>
      <trkpt lat="43.81618" lon="5.94337">
        <ele>543.1</ele>
        <time>2020-06-20T17:15:12Z</time>
      </trkpt>
      <trkpt lat="43.81609" lon="5.94329">
        <ele>542.6</ele>
        <time>2020-06-20T17:15:14Z</time>
      </trkpt>
      <trkpt lat="43.816" lon="5.94319">
        <ele>541.9</ele>
        <time>2020-06-20T17:15:16Z</time>
      </trkpt>
      <trkpt lat="43.81596" lon="5.94313">
        <ele>541.5</ele>
        <time>2020-06-20T17:15:17Z</time>
      </trkpt>
      <trkpt lat="43.81589" lon="5.94303">
        <ele>540.6</ele>
        <time>2020-06-20T17:15:19Z</time>
      </trkpt>
      <trkpt lat="43.8158" lon="5.94296">
        <ele>539.6</ele>
        <time>2020-06-20T17:15:21Z</time>
      </trkpt>
      <trkpt lat="43.81565" lon="5.94293">
        <ele>537.9</ele>
        <time>2020-06-20T17:15:23Z</time>
      </trkpt>
      <trkpt lat="43.81551" lon="5.9429">
        <ele>536.1</ele>
        <time>2020-06-20T17:15:25Z</time>
      </trkpt>
      <trkpt lat="43.81545" lon="5.94286">
        <ele>535.3</ele>
        <time>2020-06-20T17:15:26Z</time>
      </trkpt>
      <trkpt lat="43.81534" lon="5.94272">
        <ele>533.7</ele>
        <time>2020-06-20T17:15:28Z</time>
      </trkpt>
      <trkpt lat="43.81528" lon="5.94253">
        <ele>532.1</ele>
        <time>2020-06-20T17:15:30Z</time>
      </trkpt>
      <trkpt lat="43.81528" lon="5.94233">
        <ele>530.4</ele>
        <time>2020-06-20T17:15:32Z</time>
      </trkpt>
      <trkpt lat="43.81533" lon="5.94212">
        <ele>528.7</ele>
        <time>2020-06-20T17:15:34Z</time>
      </trkpt>
      <trkpt lat="43.81537" lon="5.94196">
        <ele>527.7</ele>
        <time>2020-06-20T17:15:36Z</time>
      </trkpt>
      <trkpt lat="43.8154" lon="5.94182">
        <ele>526.9</ele>
        <time>2020-06-20T17:15:38Z</time>
      </trkpt>
      <trkpt lat="43.8154" lon="5.94174">
        <ele>526.5</ele>
        <time>2020-06-20T17:15:39Z</time>
      </trkpt>
      <trkpt lat="43.81541" lon="5.94165">
        <ele>526.1</ele>
        <time>2020-06-20T17:15:40Z</time>
      </trkpt>
      <trkpt lat="43.81541" lon="5.94145">
        <ele>524.8</ele>
        <time>2020-06-20T17:15:42Z</time>
      </trkpt>
      <trkpt lat="43.81538" lon="5.94125">
        <ele>523.3</ele>
        <time>2020-06-20T17:15:44Z</time>
      </trkpt>
      <trkpt lat="43.81535" lon="5.94114">
        <ele>522.5</ele>
        <time>2020-06-20T17:15:45Z</time>
      </trkpt>
      <trkpt lat="43.81531" lon="5.94104">
        <ele>521.7</ele>
        <time>2020-06-20T17:15:46Z</time>
      </trkpt>
      <trkpt lat="43.81527" lon="5.94096">
        <ele>521</ele>
        <time>2020-06-20T17:15:47Z</time>
      </trkpt>
      <trkpt lat="43.81522" lon="5.94089">
        <ele>520.3</ele>
        <time>2020-06-20T17:15:48Z</time>
      </trkpt>
      <trkpt lat="43.81517" lon="5.94083">
        <ele>519.7</ele>
        <time>2020-06-20T17:15:49Z</time>
      </trkpt>
      <trkpt lat="43.81512" lon="5.94076">
        <ele>518.9</ele>
        <time>2020-06-20T17:15:50Z</time>
      </trkpt>
      <trkpt lat="43.81503" lon="5.9406">
        <ele>517.4</ele>
        <time>2020-06-20T17:15:52Z</time>
      </trkpt>
      <trkpt lat="43.81494" lon="5.94045">
        <ele>516</ele>
        <time>2020-06-20T17:15:54Z</time>
      </trkpt>
      <trkpt lat="43.81489" lon="5.94037">
        <ele>515.1</ele>
        <time>2020-06-20T17:15:55Z</time>
      </trkpt>
      <trkpt lat="43.81484" lon="5.94029">
        <ele>514.3</ele>
        <time>2020-06-20T17:15:56Z</time>
      </trkpt>
      <trkpt lat="43.81479" lon="5.9402">
        <ele>513.3</ele>
        <time>2020-06-20T17:15:57Z</time>
      </trkpt>
      <trkpt lat="43.81473" lon="5.94011">
        <ele>512.4</ele>
        <time>2020-06-20T17:15:58Z</time>
      </trkpt>
      <trkpt lat="43.8146" lon="5.93992">
        <ele>510.8</ele>
        <time>2020-06-20T17:16:00Z</time>
      </trkpt>
      <trkpt lat="43.81453" lon="5.93983">
        <ele>510</ele>
        <time>2020-06-20T17:16:01Z</time>
      </trkpt>
      <trkpt lat="43.81444" lon="5.93967">
        <ele>508.7</ele>
        <time>2020-06-20T17:16:03Z</time>
      </trkpt>
      <trkpt lat="43.8144" lon="5.93955">
        <ele>508.2</ele>
        <time>2020-06-20T17:16:05Z</time>
      </trkpt>
      <trkpt lat="43.81441" lon="5.93945">
        <ele>507.7</ele>
        <time>2020-06-20T17:16:07Z</time>
      </trkpt>
      <trkpt lat="43.81442" lon="5.93941">
        <ele>507.4</ele>
        <time>2020-06-20T17:16:08Z</time>
      </trkpt>
      <trkpt lat="43.8144" lon="5.93931">
        <ele>506.7</ele>
        <time>2020-06-20T17:16:10Z</time>
      </trkpt>
      <trkpt lat="43.81435" lon="5.93918">
        <ele>505.5</ele>
        <time>2020-06-20T17:16:12Z</time>
      </trkpt>
      <trkpt lat="43.81436" lon="5.93916">
        <ele>505.3</ele>
        <time>2020-06-20T17:16:13Z</time>
      </trkpt>
      <trkpt lat="43.81434" lon="5.93909">
        <ele>504.6</ele>
        <time>2020-06-20T17:16:15Z</time>
      </trkpt>
      <trkpt lat="43.81433" lon="5.93903">
        <ele>504.1</ele>
        <time>2020-06-20T17:16:16Z</time>
      </trkpt>
      <trkpt lat="43.81429" lon="5.93886">
        <ele>502.5</ele>
        <time>2020-06-20T17:16:18Z</time>
      </trkpt>
      <trkpt lat="43.81427" lon="5.93875">
        <ele>501.4</ele>
        <time>2020-06-20T17:16:20Z</time>
      </trkpt>
      <trkpt lat="43.81428" lon="5.9387">
        <ele>500.9</ele>
        <time>2020-06-20T17:16:21Z</time>
      </trkpt>
      <trkpt lat="43.81422" lon="5.93849">
        <ele>498.6</ele>
        <time>2020-06-20T17:16:23Z</time>
      </trkpt>
      <trkpt lat="43.81424" lon="5.93837">
        <ele>497.4</ele>
        <time>2020-06-20T17:16:24Z</time>
      </trkpt>
      <trkpt lat="43.81425" lon="5.93829">
        <ele>496.5</ele>
        <time>2020-06-20T17:16:26Z</time>
      </trkpt>
      <trkpt lat="43.81425" lon="5.93822">
        <ele>495.8</ele>
        <time>2020-06-20T17:16:27Z</time>
      </trkpt>
      <trkpt lat="43.81424" lon="5.93815">
        <ele>495.1</ele>
        <time>2020-06-20T17:16:28Z</time>
      </trkpt>
      <trkpt lat="43.81425" lon="5.93809">
        <ele>494.5</ele>
        <time>2020-06-20T17:16:30Z</time>
      </trkpt>
      <trkpt lat="43.81425" lon="5.93802">
        <ele>493.8</ele>
        <time>2020-06-20T17:16:31Z</time>
      </trkpt>
      <trkpt lat="43.81425" lon="5.93795">
        <ele>493.1</ele>
        <time>2020-06-20T17:16:32Z</time>
      </trkpt>
      <trkpt lat="43.81425" lon="5.93785">
        <ele>491.8</ele>
        <time>2020-06-20T17:16:34Z</time>
      </trkpt>
      <trkpt lat="43.81424" lon="5.93779">
        <ele>491.1</ele>
        <time>2020-06-20T17:16:35Z</time>
      </trkpt>
      <trkpt lat="43.81422" lon="5.93773">
        <ele>490.3</ele>
        <time>2020-06-20T17:16:36Z</time>
      </trkpt>
      <trkpt lat="43.81419" lon="5.93765">
        <ele>489.9</ele>
        <time>2020-06-20T17:16:38Z</time>
      </trkpt>
      <trkpt lat="43.81416" lon="5.9376">
        <ele>489.6</ele>
        <time>2020-06-20T17:16:39Z</time>
      </trkpt>
      <trkpt lat="43.81415" lon="5.93755">
        <ele>489.3</ele>
        <time>2020-06-20T17:16:40Z</time>
      </trkpt>
      <trkpt lat="43.81416" lon="5.93752">
        <ele>489.2</ele>
        <time>2020-06-20T17:16:41Z</time>
      </trkpt>
      <trkpt lat="43.81416" lon="5.93752">
        <ele>489.2</ele>
        <time>2020-06-20T17:16:43Z</time>
      </trkpt>
      <trkpt lat="43.81416" lon="5.93753">
        <ele>489.2</ele>
        <time>2020-06-20T17:16:44Z</time>
      </trkpt>
      <trkpt lat="43.81416" lon="5.93754">
        <ele>489.1</ele>
        <time>2020-06-20T17:16:45Z</time>
      </trkpt>
      <trkpt lat="43.81417" lon="5.93755">
        <ele>489</ele>
        <time>2020-06-20T17:16:47Z</time>
      </trkpt>
      <trkpt lat="43.81417" lon="5.93756">
        <ele>489</ele>
        <time>2020-06-20T17:16:48Z</time>
      </trkpt>
      <trkpt lat="43.81418" lon="5.93756">
        <ele>489</ele>
        <time>2020-06-20T17:16:50Z</time>
      </trkpt>
      <trkpt lat="43.81418" lon="5.93756">
        <ele>489</ele>
        <time>2020-06-20T17:16:51Z</time>
      </trkpt>
      <trkpt lat="43.81418" lon="5.93756">
        <ele>489</ele>
        <time>2020-06-20T17:16:52Z</time>
      </trkpt>
      <trkpt lat="43.81418" lon="5.93757">
        <ele>489</ele>
        <time>2020-06-20T17:16:54Z</time>
      </trkpt>
      <trkpt lat="43.81418" lon="5.93757">
        <ele>488.9</ele>
        <time>2020-06-20T17:16:56Z</time>
      </trkpt>
      <trkpt lat="43.81418" lon="5.93757">
        <ele>488.9</ele>
        <time>2020-06-20T17:16:58Z</time>
      </trkpt>
      <trkpt lat="43.81416" lon="5.93755">
        <ele>488.8</ele>
        <time>2020-06-20T17:17:00Z</time>
      </trkpt>
      <trkpt lat="43.81415" lon="5.93754">
        <ele>488.7</ele>
        <time>2020-06-20T17:17:02Z</time>
      </trkpt>
      <trkpt lat="43.81414" lon="5.93752">
        <ele>488.6</ele>
        <time>2020-06-20T17:17:03Z</time>
      </trkpt>
      <trkpt lat="43.81414" lon="5.93751">
        <ele>488.5</ele>
        <time>2020-06-20T17:17:04Z</time>
      </trkpt>
      <trkpt lat="43.81414" lon="5.93749">
        <ele>488.5</ele>
        <time>2020-06-20T17:17:05Z</time>
      </trkpt>
      <trkpt lat="43.81413" lon="5.93747">
        <ele>488.4</ele>
        <time>2020-06-20T17:17:07Z</time>
      </trkpt>
      <trkpt lat="43.81413" lon="5.93745">
        <ele>488.3</ele>
        <time>2020-06-20T17:17:09Z</time>
      </trkpt>
      <trkpt lat="43.81413" lon="5.93744">
        <ele>488.2</ele>
        <time>2020-06-20T17:17:12Z</time>
      </trkpt>
      <trkpt lat="43.81412" lon="5.93742">
        <ele>488.1</ele>
        <time>2020-06-20T17:17:13Z</time>
      </trkpt>
      <trkpt lat="43.8141" lon="5.9373">
        <ele>487.6</ele>
        <time>2020-06-20T17:17:15Z</time>
      </trkpt>
      <trkpt lat="43.81408" lon="5.93723">
        <ele>487.3</ele>
        <time>2020-06-20T17:17:16Z</time>
      </trkpt>
      <trkpt lat="43.81405" lon="5.93708">
        <ele>486.2</ele>
        <time>2020-06-20T17:17:18Z</time>
      </trkpt>
      <trkpt lat="43.81402" lon="5.93701">
        <ele>485.8</ele>
        <time>2020-06-20T17:17:19Z</time>
      </trkpt>
      <trkpt lat="43.81394" lon="5.9369">
        <ele>484.9</ele>
        <time>2020-06-20T17:17:21Z</time>
      </trkpt>
      <trkpt lat="43.81389" lon="5.93686">
        <ele>484.4</ele>
        <time>2020-06-20T17:17:22Z</time>
      </trkpt>
      <trkpt lat="43.81384" lon="5.93682">
        <ele>483.9</ele>
        <time>2020-06-20T17:17:23Z</time>
      </trkpt>
      <trkpt lat="43.81378" lon="5.93678">
        <ele>483.3</ele>
        <time>2020-06-20T17:17:24Z</time>
      </trkpt>
      <trkpt lat="43.81372" lon="5.93674">
        <ele>482.8</ele>
        <time>2020-06-20T17:17:25Z</time>
      </trkpt>
      <trkpt lat="43.81359" lon="5.93668">
        <ele>481.8</ele>
        <time>2020-06-20T17:17:27Z</time>
      </trkpt>
      <trkpt lat="43.81353" lon="5.93665">
        <ele>481.3</ele>
        <time>2020-06-20T17:17:28Z</time>
      </trkpt>
      <trkpt lat="43.81339" lon="5.93659">
        <ele>480.3</ele>
        <time>2020-06-20T17:17:30Z</time>
      </trkpt>
      <trkpt lat="43.81333" lon="5.93656">
        <ele>479.8</ele>
        <time>2020-06-20T17:17:31Z</time>
      </trkpt>
      <trkpt lat="43.81326" lon="5.93653">
        <ele>479.4</ele>
        <time>2020-06-20T17:17:32Z</time>
      </trkpt>
      <trkpt lat="43.81312" lon="5.93646">
        <ele>478.5</ele>
        <time>2020-06-20T17:17:34Z</time>
      </trkpt>
      <trkpt lat="43.81305" lon="5.93644">
        <ele>478.2</ele>
        <time>2020-06-20T17:17:35Z</time>
      </trkpt>
      <trkpt lat="43.81297" lon="5.93642">
        <ele>477.8</ele>
        <time>2020-06-20T17:17:36Z</time>
      </trkpt>
      <trkpt lat="43.8129" lon="5.93641">
        <ele>477.5</ele>
        <time>2020-06-20T17:17:37Z</time>
      </trkpt>
      <trkpt lat="43.81278" lon="5.93641">
        <ele>477</ele>
        <time>2020-06-20T17:17:39Z</time>
      </trkpt>
      <trkpt lat="43.81272" lon="5.93642">
        <ele>476.9</ele>
        <time>2020-06-20T17:17:40Z</time>
      </trkpt>
      <trkpt lat="43.8126" lon="5.93645">
        <ele>476.4</ele>
        <time>2020-06-20T17:17:42Z</time>
      </trkpt>
      <trkpt lat="43.8125" lon="5.93647">
        <ele>476.1</ele>
        <time>2020-06-20T17:17:44Z</time>
      </trkpt>
      <trkpt lat="43.81242" lon="5.93647">
        <ele>475.9</ele>
        <time>2020-06-20T17:17:46Z</time>
      </trkpt>
      <trkpt lat="43.81238" lon="5.93647">
        <ele>475.8</ele>
        <time>2020-06-20T17:17:47Z</time>
      </trkpt>
      <trkpt lat="43.81231" lon="5.93649">
        <ele>475.6</ele>
        <time>2020-06-20T17:17:49Z</time>
      </trkpt>
      <trkpt lat="43.81226" lon="5.93651">
        <ele>475.5</ele>
        <time>2020-06-20T17:17:50Z</time>
      </trkpt>
      <trkpt lat="43.81223" lon="5.93647">
        <ele>475.4</ele>
        <time>2020-06-20T17:17:51Z</time>
      </trkpt>
      <trkpt lat="43.81218" lon="5.93649">
        <ele>475.3</ele>
        <time>2020-06-20T17:17:52Z</time>
      </trkpt>
      <trkpt lat="43.81212" lon="5.93651">
        <ele>475.2</ele>
        <time>2020-06-20T17:17:53Z</time>
      </trkpt>
      <trkpt lat="43.81205" lon="5.93655">
        <ele>475.2</ele>
        <time>2020-06-20T17:17:55Z</time>
      </trkpt>
      <trkpt lat="43.812" lon="5.93658">
        <ele>475.2</ele>
        <time>2020-06-20T17:17:56Z</time>
      </trkpt>
      <trkpt lat="43.8119" lon="5.93663">
        <ele>475.1</ele>
        <time>2020-06-20T17:17:58Z</time>
      </trkpt>
      <trkpt lat="43.81184" lon="5.93665">
        <ele>475.1</ele>
        <time>2020-06-20T17:17:59Z</time>
      </trkpt>
      <trkpt lat="43.81175" lon="5.93669">
        <ele>474.9</ele>
        <time>2020-06-20T17:18:01Z</time>
      </trkpt>
      <trkpt lat="43.8117" lon="5.93671">
        <ele>474.9</ele>
        <time>2020-06-20T17:18:02Z</time>
      </trkpt>
      <trkpt lat="43.81164" lon="5.93674">
        <ele>474.8</ele>
        <time>2020-06-20T17:18:04Z</time>
      </trkpt>
      <trkpt lat="43.81161" lon="5.93675">
        <ele>474.8</ele>
        <time>2020-06-20T17:18:05Z</time>
      </trkpt>
      <trkpt lat="43.81156" lon="5.93677">
        <ele>474.8</ele>
        <time>2020-06-20T17:18:07Z</time>
      </trkpt>
      <trkpt lat="43.81155" lon="5.93678">
        <ele>474.8</ele>
        <time>2020-06-20T17:18:08Z</time>
      </trkpt>
      <trkpt lat="43.81155" lon="5.93679">
        <ele>474.8</ele>
        <time>2020-06-20T17:18:09Z</time>
      </trkpt>
      <trkpt lat="43.81155" lon="5.93681">
        <ele>474.8</ele>
        <time>2020-06-20T17:18:11Z</time>
      </trkpt>
      <trkpt lat="43.81154" lon="5.93683">
        <ele>474.8</ele>
        <time>2020-06-20T17:18:13Z</time>
      </trkpt>
      <trkpt lat="43.81154" lon="5.93684">
        <ele>474.8</ele>
        <time>2020-06-20T17:18:14Z</time>
      </trkpt>
      <trkpt lat="43.81154" lon="5.93685">
        <ele>474.7</ele>
        <time>2020-06-20T17:18:15Z</time>
      </trkpt>
      <trkpt lat="43.81153" lon="5.93686">
        <ele>474.7</ele>
        <time>2020-06-20T17:18:16Z</time>
      </trkpt>
      <trkpt lat="43.81153" lon="5.93688">
        <ele>474.7</ele>
        <time>2020-06-20T17:18:18Z</time>
      </trkpt>
      <trkpt lat="43.81156" lon="5.93683">
        <ele>474.7</ele>
        <time>2020-06-20T17:18:20Z</time>
      </trkpt>
      <trkpt lat="43.81159" lon="5.93682">
        <ele>474.7</ele>
        <time>2020-06-20T17:18:21Z</time>
      </trkpt>
      <trkpt lat="43.81162" lon="5.93681">
        <ele>474.7</ele>
        <time>2020-06-20T17:18:22Z</time>
      </trkpt>
      <trkpt lat="43.81166" lon="5.93682">
        <ele>474.7</ele>
        <time>2020-06-20T17:18:24Z</time>
      </trkpt>
      <trkpt lat="43.81167" lon="5.93682">
        <ele>474.7</ele>
        <time>2020-06-20T17:18:25Z</time>
      </trkpt>
      <trkpt lat="43.8117" lon="5.93682">
        <ele>474.8</ele>
        <time>2020-06-20T17:18:26Z</time>
      </trkpt>
      <trkpt lat="43.81173" lon="5.93682">
        <ele>474.8</ele>
        <time>2020-06-20T17:18:27Z</time>
      </trkpt>
      <trkpt lat="43.81176" lon="5.93682">
        <ele>474.8</ele>
        <time>2020-06-20T17:18:28Z</time>
      </trkpt>
      <trkpt lat="43.81184" lon="5.93676">
        <ele>474.9</ele>
        <time>2020-06-20T17:18:30Z</time>
      </trkpt>
      <trkpt lat="43.8119" lon="5.9367">
        <ele>474.9</ele>
        <time>2020-06-20T17:18:31Z</time>
      </trkpt>
      <trkpt lat="43.81196" lon="5.93665">
        <ele>475</ele>
        <time>2020-06-20T17:18:32Z</time>
      </trkpt>
      <trkpt lat="43.81204" lon="5.9366">
        <ele>475.1</ele>
        <time>2020-06-20T17:18:34Z</time>
      </trkpt>
      <trkpt lat="43.81208" lon="5.93658">
        <ele>475.2</ele>
        <time>2020-06-20T17:18:35Z</time>
      </trkpt>
      <trkpt lat="43.81211" lon="5.93656">
        <ele>475.2</ele>
        <time>2020-06-20T17:18:36Z</time>
      </trkpt>
      <trkpt lat="43.81215" lon="5.93654">
        <ele>475.2</ele>
        <time>2020-06-20T17:18:37Z</time>
      </trkpt>
      <trkpt lat="43.81219" lon="5.93652">
        <ele>475.2</ele>
        <time>2020-06-20T17:18:39Z</time>
      </trkpt>
      <trkpt lat="43.81222" lon="5.93649">
        <ele>475.2</ele>
        <time>2020-06-20T17:18:41Z</time>
      </trkpt>
      <trkpt lat="43.81222" lon="5.93645">
        <ele>475.3</ele>
        <time>2020-06-20T17:18:42Z</time>
      </trkpt>
      <trkpt lat="43.81221" lon="5.93643">
        <ele>475.3</ele>
        <time>2020-06-20T17:18:43Z</time>
      </trkpt>
      <trkpt lat="43.81218" lon="5.93637">
        <ele>474.8</ele>
        <time>2020-06-20T17:18:44Z</time>
      </trkpt>
      <trkpt lat="43.81215" lon="5.93631">
        <ele>474.4</ele>
        <time>2020-06-20T17:18:46Z</time>
      </trkpt>
      <trkpt lat="43.81212" lon="5.93626">
        <ele>473.6</ele>
        <time>2020-06-20T17:18:48Z</time>
      </trkpt>
      <trkpt lat="43.81209" lon="5.93624">
        <ele>473.5</ele>
        <time>2020-06-20T17:18:49Z</time>
      </trkpt>
      <trkpt lat="43.81207" lon="5.93622">
        <ele>473.1</ele>
        <time>2020-06-20T17:18:50Z</time>
      </trkpt>
      <trkpt lat="43.81204" lon="5.9362">
        <ele>473</ele>
        <time>2020-06-20T17:18:51Z</time>
      </trkpt>
      <trkpt lat="43.81201" lon="5.93616">
        <ele>472.6</ele>
        <time>2020-06-20T17:18:52Z</time>
      </trkpt>
      <trkpt lat="43.812" lon="5.93615">
        <ele>472.6</ele>
        <time>2020-06-20T17:18:53Z</time>
      </trkpt>
      <trkpt lat="43.81198" lon="5.93612">
        <ele>472.2</ele>
        <time>2020-06-20T17:18:55Z</time>
      </trkpt>
      <trkpt lat="43.81196" lon="5.93609">
        <ele>472</ele>
        <time>2020-06-20T17:18:56Z</time>
      </trkpt>
      <trkpt lat="43.81193" lon="5.93605">
        <ele>471.8</ele>
        <time>2020-06-20T17:18:57Z</time>
      </trkpt>
      <trkpt lat="43.81192" lon="5.93603">
        <ele>471.7</ele>
        <time>2020-06-20T17:18:58Z</time>
      </trkpt>
      <trkpt lat="43.8119" lon="5.93599">
        <ele>471.7</ele>
        <time>2020-06-20T17:19:00Z</time>
      </trkpt>
      <trkpt lat="43.81189" lon="5.93595">
        <ele>471.7</ele>
        <time>2020-06-20T17:19:01Z</time>
      </trkpt>
      <trkpt lat="43.81189" lon="5.9359">
        <ele>471.8</ele>
        <time>2020-06-20T17:19:03Z</time>
      </trkpt>
      <trkpt lat="43.81189" lon="5.93584">
        <ele>472.1</ele>
        <time>2020-06-20T17:19:04Z</time>
      </trkpt>
      <trkpt lat="43.81189" lon="5.93579">
        <ele>472.8</ele>
        <time>2020-06-20T17:19:06Z</time>
      </trkpt>
      <trkpt lat="43.8119" lon="5.93576">
        <ele>472.9</ele>
        <time>2020-06-20T17:19:07Z</time>
      </trkpt>
      <trkpt lat="43.81189" lon="5.9357">
        <ele>473.4</ele>
        <time>2020-06-20T17:19:09Z</time>
      </trkpt>
      <trkpt lat="43.81189" lon="5.93567">
        <ele>473.5</ele>
        <time>2020-06-20T17:19:10Z</time>
      </trkpt>
      <trkpt lat="43.81189" lon="5.93566">
        <ele>473.8</ele>
        <time>2020-06-20T17:19:11Z</time>
      </trkpt>
      <trkpt lat="43.81189" lon="5.93564">
        <ele>473.9</ele>
        <time>2020-06-20T17:19:12Z</time>
      </trkpt>
      <trkpt lat="43.81189" lon="5.93559">
        <ele>474.2</ele>
        <time>2020-06-20T17:19:14Z</time>
      </trkpt>
      <trkpt lat="43.81189" lon="5.93557">
        <ele>474.5</ele>
        <time>2020-06-20T17:19:15Z</time>
      </trkpt>
      <trkpt lat="43.81189" lon="5.93552">
        <ele>474.8</ele>
        <time>2020-06-20T17:19:16Z</time>
      </trkpt>
      <trkpt lat="43.81189" lon="5.93547">
        <ele>475.1</ele>
        <time>2020-06-20T17:19:18Z</time>
      </trkpt>
      <trkpt lat="43.81189" lon="5.93543">
        <ele>475.5</ele>
        <time>2020-06-20T17:19:19Z</time>
      </trkpt>
      <trkpt lat="43.81189" lon="5.93538">
        <ele>475.9</ele>
        <time>2020-06-20T17:19:20Z</time>
      </trkpt>
      <trkpt lat="43.81189" lon="5.93536">
        <ele>476.3</ele>
        <time>2020-06-20T17:19:21Z</time>
      </trkpt>
      <trkpt lat="43.81187" lon="5.93531">
        <ele>476.8</ele>
        <time>2020-06-20T17:19:23Z</time>
      </trkpt>
      <trkpt lat="43.81184" lon="5.93528">
        <ele>477.1</ele>
        <time>2020-06-20T17:19:25Z</time>
      </trkpt>
      <trkpt lat="43.81182" lon="5.93525">
        <ele>477</ele>
        <time>2020-06-20T17:19:26Z</time>
      </trkpt>
      <trkpt lat="43.8118" lon="5.93524">
        <ele>477.1</ele>
        <time>2020-06-20T17:19:27Z</time>
      </trkpt>
      <trkpt lat="43.81178" lon="5.93523">
        <ele>477.4</ele>
        <time>2020-06-20T17:19:29Z</time>
      </trkpt>
      <trkpt lat="43.81177" lon="5.93523">
        <ele>477.5</ele>
        <time>2020-06-20T17:19:30Z</time>
      </trkpt>
      <trkpt lat="43.81176" lon="5.93522">
        <ele>477.3</ele>
        <time>2020-06-20T17:19:31Z</time>
      </trkpt>
      <trkpt lat="43.81175" lon="5.93522">
        <ele>477.4</ele>
        <time>2020-06-20T17:19:33Z</time>
      </trkpt>
      <trkpt lat="43.81173" lon="5.93522">
        <ele>477.2</ele>
        <time>2020-06-20T17:19:34Z</time>
      </trkpt>
      <trkpt lat="43.81172" lon="5.93521">
        <ele>477.2</ele>
        <time>2020-06-20T17:19:35Z</time>
      </trkpt>
      <trkpt lat="43.8117" lon="5.93521">
        <ele>477</ele>
        <time>2020-06-20T17:19:37Z</time>
      </trkpt>
      <trkpt lat="43.81169" lon="5.9352">
        <ele>477.1</ele>
        <time>2020-06-20T17:19:38Z</time>
      </trkpt>
      <trkpt lat="43.81168" lon="5.93519">
        <ele>477.1</ele>
        <time>2020-06-20T17:19:39Z</time>
      </trkpt>
      <trkpt lat="43.81166" lon="5.93518">
        <ele>477.5</ele>
        <time>2020-06-20T17:19:41Z</time>
      </trkpt>
      <trkpt lat="43.81165" lon="5.93517">
        <ele>477.5</ele>
        <time>2020-06-20T17:19:42Z</time>
      </trkpt>
      <trkpt lat="43.81164" lon="5.93517">
        <ele>477.3</ele>
        <time>2020-06-20T17:19:43Z</time>
      </trkpt>
      <trkpt lat="43.81162" lon="5.93515">
        <ele>477.3</ele>
        <time>2020-06-20T17:19:44Z</time>
      </trkpt>
      <trkpt lat="43.8116" lon="5.93515">
        <ele>477.7</ele>
        <time>2020-06-20T17:19:46Z</time>
      </trkpt>
      <trkpt lat="43.81159" lon="5.93514">
        <ele>477.8</ele>
        <time>2020-06-20T17:19:47Z</time>
      </trkpt>
      <trkpt lat="43.81157" lon="5.93512">
        <ele>477.6</ele>
        <time>2020-06-20T17:19:48Z</time>
      </trkpt>
      <trkpt lat="43.81155" lon="5.9351">
        <ele>478</ele>
        <time>2020-06-20T17:19:50Z</time>
      </trkpt>
      <trkpt lat="43.81152" lon="5.93508">
        <ele>478.1</ele>
        <time>2020-06-20T17:19:51Z</time>
      </trkpt>
      <trkpt lat="43.81151" lon="5.93507">
        <ele>477.9</ele>
        <time>2020-06-20T17:19:52Z</time>
      </trkpt>
      <trkpt lat="43.81149" lon="5.93506">
        <ele>478.7</ele>
        <time>2020-06-20T17:19:53Z</time>
      </trkpt>
      <trkpt lat="43.81148" lon="5.93504">
        <ele>478.5</ele>
        <time>2020-06-20T17:19:55Z</time>
      </trkpt>
      <trkpt lat="43.81146" lon="5.93501">
        <ele>479.3</ele>
        <time>2020-06-20T17:19:56Z</time>
      </trkpt>
      <trkpt lat="43.81145" lon="5.935">
        <ele>479.2</ele>
        <time>2020-06-20T17:19:58Z</time>
      </trkpt>
      <trkpt lat="43.81145" lon="5.93499">
        <ele>479.3</ele>
        <time>2020-06-20T17:19:59Z</time>
      </trkpt>
      <trkpt lat="43.81144" lon="5.93498">
        <ele>479.3</ele>
        <time>2020-06-20T17:20:01Z</time>
      </trkpt>
      <trkpt lat="43.81144" lon="5.93497">
        <ele>480.1</ele>
        <time>2020-06-20T17:20:03Z</time>
      </trkpt>
      <trkpt lat="43.81144" lon="5.93497">
        <ele>480.2</ele>
        <time>2020-06-20T17:20:04Z</time>
      </trkpt>
      <trkpt lat="43.81143" lon="5.93497">
        <ele>480.2</ele>
        <time>2020-06-20T17:20:06Z</time>
      </trkpt>
      <trkpt lat="43.81142" lon="5.93496">
        <ele>480.2</ele>
        <time>2020-06-20T17:20:08Z</time>
      </trkpt>
      <trkpt lat="43.81142" lon="5.93496">
        <ele>480.2</ele>
        <time>2020-06-20T17:20:10Z</time>
      </trkpt>
      <trkpt lat="43.81142" lon="5.93496">
        <ele>480.2</ele>
        <time>2020-06-20T17:20:11Z</time>
      </trkpt>
      <trkpt lat="43.8114" lon="5.93497">
        <ele>480.3</ele>
        <time>2020-06-20T17:20:24Z</time>
      </trkpt>
      <trkpt lat="43.8114" lon="5.93497">
        <ele>480.2</ele>
        <time>2020-06-20T17:20:25Z</time>
      </trkpt>
      <trkpt lat="43.81139" lon="5.93498">
        <ele>479.5</ele>
        <time>2020-06-20T17:20:27Z</time>
      </trkpt>
      <trkpt lat="43.81138" lon="5.93498">
        <ele>479.5</ele>
        <time>2020-06-20T17:20:29Z</time>
      </trkpt>
      <trkpt lat="43.81137" lon="5.93498">
        <ele>479.6</ele>
        <time>2020-06-20T17:20:30Z</time>
      </trkpt>
      <trkpt lat="43.81137" lon="5.93499">
        <ele>479.6</ele>
        <time>2020-06-20T17:20:31Z</time>
      </trkpt>
      <trkpt lat="43.81136" lon="5.93499">
        <ele>479.6</ele>
        <time>2020-06-20T17:20:32Z</time>
      </trkpt>
      <trkpt lat="43.81136" lon="5.935">
        <ele>479.6</ele>
        <time>2020-06-20T17:20:33Z</time>
      </trkpt>
      <trkpt lat="43.81136" lon="5.93499">
        <ele>479.7</ele>
        <time>2020-06-20T17:20:35Z</time>
      </trkpt>
      <trkpt lat="43.81136" lon="5.93499">
        <ele>479.7</ele>
        <time>2020-06-20T17:20:36Z</time>
      </trkpt>
      <trkpt lat="43.81135" lon="5.93499">
        <ele>479.8</ele>
        <time>2020-06-20T17:20:38Z</time>
      </trkpt>
      <trkpt lat="43.81135" lon="5.93499">
        <ele>479.8</ele>
        <time>2020-06-20T17:20:39Z</time>
      </trkpt>
      <trkpt lat="43.81135" lon="5.93499">
        <ele>479.9</ele>
        <time>2020-06-20T17:20:40Z</time>
      </trkpt>
      <trkpt lat="43.81135" lon="5.93499">
        <ele>479.9</ele>
        <time>2020-06-20T17:20:42Z</time>
      </trkpt>
      <trkpt lat="43.81134" lon="5.93499">
        <ele>480</ele>
        <time>2020-06-20T17:20:43Z</time>
      </trkpt>
      <trkpt lat="43.81134" lon="5.93499">
        <ele>480</ele>
        <time>2020-06-20T17:20:44Z</time>
      </trkpt>
      <trkpt lat="43.81133" lon="5.93499">
        <ele>480</ele>
        <time>2020-06-20T17:20:46Z</time>
      </trkpt>
      <trkpt lat="43.81132" lon="5.935">
        <ele>480.1</ele>
        <time>2020-06-20T17:20:47Z</time>
      </trkpt>
      <trkpt lat="43.81132" lon="5.935">
        <ele>480.1</ele>
        <time>2020-06-20T17:20:48Z</time>
      </trkpt>
      <trkpt lat="43.81133" lon="5.93498">
        <ele>480.2</ele>
        <time>2020-06-20T17:20:50Z</time>
      </trkpt>
      <trkpt lat="43.81134" lon="5.93497">
        <ele>481.1</ele>
        <time>2020-06-20T17:20:51Z</time>
      </trkpt>
      <trkpt lat="43.81135" lon="5.93496">
        <ele>481.1</ele>
        <time>2020-06-20T17:20:53Z</time>
      </trkpt>
      <trkpt lat="43.81135" lon="5.93496">
        <ele>481.2</ele>
        <time>2020-06-20T17:20:54Z</time>
      </trkpt>
      <trkpt lat="43.81135" lon="5.93495">
        <ele>481.2</ele>
        <time>2020-06-20T17:20:55Z</time>
      </trkpt>
      <trkpt lat="43.81134" lon="5.93495">
        <ele>481.3</ele>
        <time>2020-06-20T17:20:57Z</time>
      </trkpt>
      <trkpt lat="43.81134" lon="5.93495">
        <ele>481.3</ele>
        <time>2020-06-20T17:20:58Z</time>
      </trkpt>
      <trkpt lat="43.81134" lon="5.93494">
        <ele>481.4</ele>
        <time>2020-06-20T17:20:59Z</time>
      </trkpt>
      <trkpt lat="43.81134" lon="5.93493">
        <ele>482.2</ele>
        <time>2020-06-20T17:21:01Z</time>
      </trkpt>
      <trkpt lat="43.81135" lon="5.93491">
        <ele>482.3</ele>
        <time>2020-06-20T17:21:02Z</time>
      </trkpt>
      <trkpt lat="43.81135" lon="5.9349">
        <ele>482.3</ele>
        <time>2020-06-20T17:21:03Z</time>
      </trkpt>
      <trkpt lat="43.81135" lon="5.93488">
        <ele>483.2</ele>
        <time>2020-06-20T17:21:05Z</time>
      </trkpt>
      <trkpt lat="43.81135" lon="5.93486">
        <ele>483.3</ele>
        <time>2020-06-20T17:21:06Z</time>
      </trkpt>
      <trkpt lat="43.81136" lon="5.93482">
        <ele>484.2</ele>
        <time>2020-06-20T17:21:07Z</time>
      </trkpt>
      <trkpt lat="43.81137" lon="5.93481">
        <ele>484.3</ele>
        <time>2020-06-20T17:21:08Z</time>
      </trkpt>
      <trkpt lat="43.81137" lon="5.93479">
        <ele>485.2</ele>
        <time>2020-06-20T17:21:09Z</time>
      </trkpt>
      <trkpt lat="43.81137" lon="5.93478">
        <ele>485.3</ele>
        <time>2020-06-20T17:21:10Z</time>
      </trkpt>
      <trkpt lat="43.81137" lon="5.93477">
        <ele>485.3</ele>
        <time>2020-06-20T17:21:12Z</time>
      </trkpt>
      <trkpt lat="43.81137" lon="5.93475">
        <ele>486.3</ele>
        <time>2020-06-20T17:21:13Z</time>
      </trkpt>
      <trkpt lat="43.81137" lon="5.93474">
        <ele>486.4</ele>
        <time>2020-06-20T17:21:15Z</time>
      </trkpt>
      <trkpt lat="43.81138" lon="5.93471">
        <ele>486.6</ele>
        <time>2020-06-20T17:21:17Z</time>
      </trkpt>
      <trkpt lat="43.8114" lon="5.93468">
        <ele>486.9</ele>
        <time>2020-06-20T17:21:19Z</time>
      </trkpt>
      <trkpt lat="43.8114" lon="5.93468">
        <ele>486.9</ele>
        <time>2020-06-20T17:21:19Z</time>
      </trkpt>
      <trkpt lat="43.81141" lon="5.93467">
        <ele>487.1</ele>
        <time>2020-06-20T17:21:20Z</time>
      </trkpt>
      <trkpt lat="43.81142" lon="5.93466">
        <ele>487.3</ele>
        <time>2020-06-20T17:21:21Z</time>
      </trkpt>
      <trkpt lat="43.81143" lon="5.93465">
        <ele>487.4</ele>
        <time>2020-06-20T17:21:23Z</time>
      </trkpt>
      <trkpt lat="43.81143" lon="5.93464">
        <ele>487.5</ele>
        <time>2020-06-20T17:21:24Z</time>
      </trkpt>
      <trkpt lat="43.81143" lon="5.93462">
        <ele>487.6</ele>
        <time>2020-06-20T17:21:25Z</time>
      </trkpt>
      <trkpt lat="43.81143" lon="5.9346">
        <ele>487.7</ele>
        <time>2020-06-20T17:21:27Z</time>
      </trkpt>
      <trkpt lat="43.81143" lon="5.93459">
        <ele>487.8</ele>
        <time>2020-06-20T17:21:28Z</time>
      </trkpt>
      <trkpt lat="43.81144" lon="5.93457">
        <ele>488</ele>
        <time>2020-06-20T17:21:30Z</time>
      </trkpt>
      <trkpt lat="43.81154" lon="5.93454">
        <ele>489.1</ele>
        <time>2020-06-20T17:21:57Z</time>
      </trkpt>
      <trkpt lat="43.81155" lon="5.93455">
        <ele>489.2</ele>
        <time>2020-06-20T17:21:59Z</time>
      </trkpt>
      <trkpt lat="43.81155" lon="5.93456">
        <ele>489.3</ele>
        <time>2020-06-20T17:22:00Z</time>
      </trkpt>
      <trkpt lat="43.81156" lon="5.93456">
        <ele>489.4</ele>
        <time>2020-06-20T17:22:01Z</time>
      </trkpt>
      <trkpt lat="43.81157" lon="5.93455">
        <ele>489.5</ele>
        <time>2020-06-20T17:22:03Z</time>
      </trkpt>
      <trkpt lat="43.81158" lon="5.93454">
        <ele>489.6</ele>
        <time>2020-06-20T17:22:04Z</time>
      </trkpt>
      <trkpt lat="43.81159" lon="5.93453">
        <ele>489.8</ele>
        <time>2020-06-20T17:22:05Z</time>
      </trkpt>
      <trkpt lat="43.8116" lon="5.93452">
        <ele>489.9</ele>
        <time>2020-06-20T17:22:07Z</time>
      </trkpt>
      <trkpt lat="43.81161" lon="5.93451">
        <ele>490</ele>
        <time>2020-06-20T17:22:08Z</time>
      </trkpt>
      <trkpt lat="43.81162" lon="5.9345">
        <ele>490.1</ele>
        <time>2020-06-20T17:22:10Z</time>
      </trkpt>
      <trkpt lat="43.81163" lon="5.93449">
        <ele>490.3</ele>
        <time>2020-06-20T17:22:11Z</time>
      </trkpt>
      <trkpt lat="43.81164" lon="5.93448">
        <ele>490.4</ele>
        <time>2020-06-20T17:22:12Z</time>
      </trkpt>
      <trkpt lat="43.81165" lon="5.93447">
        <ele>490.6</ele>
        <time>2020-06-20T17:22:14Z</time>
      </trkpt>
      <trkpt lat="43.81166" lon="5.93447">
        <ele>490.7</ele>
        <time>2020-06-20T17:22:15Z</time>
      </trkpt>
      <trkpt lat="43.81167" lon="5.93446">
        <ele>490.7</ele>
        <time>2020-06-20T17:22:16Z</time>
      </trkpt>
      <trkpt lat="43.81168" lon="5.93445">
        <ele>490.9</ele>
        <time>2020-06-20T17:22:17Z</time>
      </trkpt>
      <trkpt lat="43.81169" lon="5.93443">
        <ele>491.1</ele>
        <time>2020-06-20T17:22:18Z</time>
      </trkpt>
      <trkpt lat="43.8117" lon="5.93443">
        <ele>491.2</ele>
        <time>2020-06-20T17:22:20Z</time>
      </trkpt>
      <trkpt lat="43.81171" lon="5.93442">
        <ele>491.3</ele>
        <time>2020-06-20T17:22:21Z</time>
      </trkpt>
      <trkpt lat="43.81171" lon="5.93441">
        <ele>491.4</ele>
        <time>2020-06-20T17:22:23Z</time>
      </trkpt>
      <trkpt lat="43.81172" lon="5.93441">
        <ele>491.5</ele>
        <time>2020-06-20T17:22:24Z</time>
      </trkpt>
      <trkpt lat="43.81173" lon="5.9344">
        <ele>491.5</ele>
        <time>2020-06-20T17:22:25Z</time>
      </trkpt>
      <trkpt lat="43.81173" lon="5.9344">
        <ele>491.6</ele>
        <time>2020-06-20T17:22:26Z</time>
      </trkpt>
      <trkpt lat="43.81174" lon="5.9344">
        <ele>491.7</ele>
        <time>2020-06-20T17:22:27Z</time>
      </trkpt>
      <trkpt lat="43.81174" lon="5.9344">
        <ele>491.7</ele>
        <time>2020-06-20T17:22:29Z</time>
      </trkpt>
      <trkpt lat="43.81175" lon="5.93439">
        <ele>491.8</ele>
        <time>2020-06-20T17:22:30Z</time>
      </trkpt>
      <trkpt lat="43.81175" lon="5.93439">
        <ele>491.8</ele>
        <time>2020-06-20T17:22:31Z</time>
      </trkpt>
      <trkpt lat="43.81176" lon="5.93438">
        <ele>491.9</ele>
        <time>2020-06-20T17:22:33Z</time>
      </trkpt>
      <trkpt lat="43.81176" lon="5.93438">
        <ele>492</ele>
        <time>2020-06-20T17:22:35Z</time>
      </trkpt>
      <trkpt lat="43.81183" lon="5.93434">
        <ele>494.3</ele>
        <time>2020-06-20T17:22:57Z</time>
      </trkpt>
      <trkpt lat="43.81183" lon="5.93434">
        <ele>494.4</ele>
        <time>2020-06-20T17:22:58Z</time>
      </trkpt>
      <trkpt lat="43.81184" lon="5.93434">
        <ele>494.4</ele>
        <time>2020-06-20T17:23:00Z</time>
      </trkpt>
      <trkpt lat="43.81184" lon="5.93434">
        <ele>494.5</ele>
        <time>2020-06-20T17:23:01Z</time>
      </trkpt>
      <trkpt lat="43.81184" lon="5.93433">
        <ele>494.6</ele>
        <time>2020-06-20T17:23:02Z</time>
      </trkpt>
      <trkpt lat="43.81185" lon="5.93433">
        <ele>494.6</ele>
        <time>2020-06-20T17:23:03Z</time>
      </trkpt>
      <trkpt lat="43.81185" lon="5.93432">
        <ele>494.7</ele>
        <time>2020-06-20T17:23:05Z</time>
      </trkpt>
      <trkpt lat="43.81186" lon="5.93431">
        <ele>494.8</ele>
        <time>2020-06-20T17:23:06Z</time>
      </trkpt>
      <trkpt lat="43.81186" lon="5.93431">
        <ele>494.9</ele>
        <time>2020-06-20T17:23:08Z</time>
      </trkpt>
      <trkpt lat="43.81187" lon="5.93431">
        <ele>495</ele>
        <time>2020-06-20T17:23:09Z</time>
      </trkpt>
      <trkpt lat="43.81187" lon="5.93431">
        <ele>495.1</ele>
        <time>2020-06-20T17:23:10Z</time>
      </trkpt>
      <trkpt lat="43.81188" lon="5.93431">
        <ele>495.2</ele>
        <time>2020-06-20T17:23:12Z</time>
      </trkpt>
      <trkpt lat="43.81189" lon="5.9343">
        <ele>495.3</ele>
        <time>2020-06-20T17:23:13Z</time>
      </trkpt>
      <trkpt lat="43.8119" lon="5.9343">
        <ele>495.4</ele>
        <time>2020-06-20T17:23:14Z</time>
      </trkpt>
      <trkpt lat="43.81191" lon="5.93429">
        <ele>495.6</ele>
        <time>2020-06-20T17:23:16Z</time>
      </trkpt>
      <trkpt lat="43.81191" lon="5.93428">
        <ele>495.7</ele>
        <time>2020-06-20T17:23:17Z</time>
      </trkpt>
      <trkpt lat="43.81193" lon="5.93427">
        <ele>496</ele>
        <time>2020-06-20T17:23:19Z</time>
      </trkpt>
      <trkpt lat="43.81194" lon="5.93427">
        <ele>496.1</ele>
        <time>2020-06-20T17:23:20Z</time>
      </trkpt>
      <trkpt lat="43.81195" lon="5.93427">
        <ele>496.2</ele>
        <time>2020-06-20T17:23:21Z</time>
      </trkpt>
      <trkpt lat="43.81195" lon="5.93427">
        <ele>496.2</ele>
        <time>2020-06-20T17:23:22Z</time>
      </trkpt>
      <trkpt lat="43.81195" lon="5.93427">
        <ele>496.3</ele>
        <time>2020-06-20T17:23:24Z</time>
      </trkpt>
      <trkpt lat="43.81195" lon="5.93427">
        <ele>496.3</ele>
        <time>2020-06-20T17:23:25Z</time>
      </trkpt>
      <trkpt lat="43.81196" lon="5.93427">
        <ele>496.4</ele>
        <time>2020-06-20T17:23:28Z</time>
      </trkpt>
      <trkpt lat="43.81196" lon="5.93426">
        <ele>496.4</ele>
        <time>2020-06-20T17:23:30Z</time>
      </trkpt>
      <trkpt lat="43.81196" lon="5.93426">
        <ele>496.5</ele>
        <time>2020-06-20T17:23:31Z</time>
      </trkpt>
      <trkpt lat="43.81194" lon="5.93423">
        <ele>496.9</ele>
        <time>2020-06-20T17:23:49Z</time>
      </trkpt>
      <trkpt lat="43.81194" lon="5.93422">
        <ele>497</ele>
        <time>2020-06-20T17:23:50Z</time>
      </trkpt>
      <trkpt lat="43.81194" lon="5.93424">
        <ele>497.1</ele>
        <time>2020-06-20T17:23:51Z</time>
      </trkpt>
      <trkpt lat="43.81195" lon="5.93423">
        <ele>497.2</ele>
        <time>2020-06-20T17:23:52Z</time>
      </trkpt>
      <trkpt lat="43.81195" lon="5.93421">
        <ele>497.4</ele>
        <time>2020-06-20T17:23:54Z</time>
      </trkpt>
      <trkpt lat="43.81196" lon="5.93421">
        <ele>497.5</ele>
        <time>2020-06-20T17:23:55Z</time>
      </trkpt>
      <trkpt lat="43.81197" lon="5.93421">
        <ele>497.7</ele>
        <time>2020-06-20T17:23:56Z</time>
      </trkpt>
      <trkpt lat="43.81198" lon="5.9342">
        <ele>497.8</ele>
        <time>2020-06-20T17:23:57Z</time>
      </trkpt>
      <trkpt lat="43.81199" lon="5.93419">
        <ele>498</ele>
        <time>2020-06-20T17:23:58Z</time>
      </trkpt>
      <trkpt lat="43.812" lon="5.93419">
        <ele>498.1</ele>
        <time>2020-06-20T17:24:00Z</time>
      </trkpt>
      <trkpt lat="43.812" lon="5.93418">
        <ele>498.2</ele>
        <time>2020-06-20T17:24:01Z</time>
      </trkpt>
      <trkpt lat="43.812" lon="5.93417">
        <ele>498.3</ele>
        <time>2020-06-20T17:24:02Z</time>
      </trkpt>
      <trkpt lat="43.81201" lon="5.93416">
        <ele>498.4</ele>
        <time>2020-06-20T17:24:03Z</time>
      </trkpt>
      <trkpt lat="43.81204" lon="5.93415">
        <ele>498.8</ele>
        <time>2020-06-20T17:24:05Z</time>
      </trkpt>
      <trkpt lat="43.81206" lon="5.93415">
        <ele>499</ele>
        <time>2020-06-20T17:24:06Z</time>
      </trkpt>
      <trkpt lat="43.81207" lon="5.93415">
        <ele>499.2</ele>
        <time>2020-06-20T17:24:07Z</time>
      </trkpt>
      <trkpt lat="43.81208" lon="5.93414">
        <ele>499.4</ele>
        <time>2020-06-20T17:24:09Z</time>
      </trkpt>
      <trkpt lat="43.8121" lon="5.93414">
        <ele>499.6</ele>
        <time>2020-06-20T17:24:10Z</time>
      </trkpt>
      <trkpt lat="43.81212" lon="5.93413">
        <ele>499.9</ele>
        <time>2020-06-20T17:24:11Z</time>
      </trkpt>
      <trkpt lat="43.81213" lon="5.93413">
        <ele>500.1</ele>
        <time>2020-06-20T17:24:12Z</time>
      </trkpt>
      <trkpt lat="43.81215" lon="5.93413">
        <ele>500.3</ele>
        <time>2020-06-20T17:24:13Z</time>
      </trkpt>
      <trkpt lat="43.81216" lon="5.93412">
        <ele>500.5</ele>
        <time>2020-06-20T17:24:15Z</time>
      </trkpt>
      <trkpt lat="43.81216" lon="5.93411">
        <ele>500.6</ele>
        <time>2020-06-20T17:24:16Z</time>
      </trkpt>
      <trkpt lat="43.81217" lon="5.9341">
        <ele>500.8</ele>
        <time>2020-06-20T17:24:18Z</time>
      </trkpt>
      <trkpt lat="43.81218" lon="5.93409">
        <ele>500.9</ele>
        <time>2020-06-20T17:24:19Z</time>
      </trkpt>
      <trkpt lat="43.81219" lon="5.93409">
        <ele>501.1</ele>
        <time>2020-06-20T17:24:20Z</time>
      </trkpt>
      <trkpt lat="43.8122" lon="5.93408">
        <ele>501.2</ele>
        <time>2020-06-20T17:24:21Z</time>
      </trkpt>
      <trkpt lat="43.81221" lon="5.93407">
        <ele>501.3</ele>
        <time>2020-06-20T17:24:23Z</time>
      </trkpt>
      <trkpt lat="43.81222" lon="5.93406">
        <ele>501.5</ele>
        <time>2020-06-20T17:24:24Z</time>
      </trkpt>
      <trkpt lat="43.81222" lon="5.93405">
        <ele>501.6</ele>
        <time>2020-06-20T17:24:25Z</time>
      </trkpt>
      <trkpt lat="43.81223" lon="5.93404">
        <ele>501.7</ele>
        <time>2020-06-20T17:24:26Z</time>
      </trkpt>
      <trkpt lat="43.81224" lon="5.93404">
        <ele>501.9</ele>
        <time>2020-06-20T17:24:27Z</time>
      </trkpt>
      <trkpt lat="43.81225" lon="5.93403">
        <ele>502</ele>
        <time>2020-06-20T17:24:29Z</time>
      </trkpt>
      <trkpt lat="43.81226" lon="5.93403">
        <ele>502.1</ele>
        <time>2020-06-20T17:24:30Z</time>
      </trkpt>
      <trkpt lat="43.81226" lon="5.93402">
        <ele>502.2</ele>
        <time>2020-06-20T17:24:31Z</time>
      </trkpt>
      <trkpt lat="43.81227" lon="5.93402">
        <ele>502.3</ele>
        <time>2020-06-20T17:24:32Z</time>
      </trkpt>
      <trkpt lat="43.81228" lon="5.93402">
        <ele>502.4</ele>
        <time>2020-06-20T17:24:34Z</time>
      </trkpt>
      <trkpt lat="43.81229" lon="5.93401">
        <ele>502.6</ele>
        <time>2020-06-20T17:24:35Z</time>
      </trkpt>
      <trkpt lat="43.8123" lon="5.93401">
        <ele>502.8</ele>
        <time>2020-06-20T17:24:36Z</time>
      </trkpt>
      <trkpt lat="43.81231" lon="5.93401">
        <ele>503</ele>
        <time>2020-06-20T17:24:37Z</time>
      </trkpt>
      <trkpt lat="43.81232" lon="5.93401">
        <ele>503.1</ele>
        <time>2020-06-20T17:24:38Z</time>
      </trkpt>
      <trkpt lat="43.81233" lon="5.93401">
        <ele>503.2</ele>
        <time>2020-06-20T17:24:39Z</time>
      </trkpt>
      <trkpt lat="43.81234" lon="5.93401">
        <ele>503.4</ele>
        <time>2020-06-20T17:24:41Z</time>
      </trkpt>
      <trkpt lat="43.81235" lon="5.93401">
        <ele>503.5</ele>
        <time>2020-06-20T17:24:42Z</time>
      </trkpt>
      <trkpt lat="43.81237" lon="5.93399">
        <ele>503.8</ele>
        <time>2020-06-20T17:24:44Z</time>
      </trkpt>
      <trkpt lat="43.81238" lon="5.93399">
        <ele>504</ele>
        <time>2020-06-20T17:24:45Z</time>
      </trkpt>
      <trkpt lat="43.81239" lon="5.93398">
        <ele>504.1</ele>
        <time>2020-06-20T17:24:46Z</time>
      </trkpt>
      <trkpt lat="43.8124" lon="5.93398">
        <ele>504.2</ele>
        <time>2020-06-20T17:24:47Z</time>
      </trkpt>
      <trkpt lat="43.8124" lon="5.93397">
        <ele>504.3</ele>
        <time>2020-06-20T17:24:48Z</time>
      </trkpt>
      <trkpt lat="43.81241" lon="5.93397">
        <ele>504.5</ele>
        <time>2020-06-20T17:24:49Z</time>
      </trkpt>
      <trkpt lat="43.81242" lon="5.93396">
        <ele>504.6</ele>
        <time>2020-06-20T17:24:51Z</time>
      </trkpt>
      <trkpt lat="43.81243" lon="5.93396">
        <ele>504.7</ele>
        <time>2020-06-20T17:24:52Z</time>
      </trkpt>
      <trkpt lat="43.81245" lon="5.93395">
        <ele>504.9</ele>
        <time>2020-06-20T17:24:53Z</time>
      </trkpt>
      <trkpt lat="43.81246" lon="5.93394">
        <ele>505.2</ele>
        <time>2020-06-20T17:24:55Z</time>
      </trkpt>
      <trkpt lat="43.81247" lon="5.93393">
        <ele>505.3</ele>
        <time>2020-06-20T17:24:56Z</time>
      </trkpt>
      <trkpt lat="43.81247" lon="5.93392">
        <ele>505.4</ele>
        <time>2020-06-20T17:24:57Z</time>
      </trkpt>
      <trkpt lat="43.81248" lon="5.93391">
        <ele>505.6</ele>
        <time>2020-06-20T17:24:58Z</time>
      </trkpt>
      <trkpt lat="43.81249" lon="5.93389">
        <ele>505.8</ele>
        <time>2020-06-20T17:24:59Z</time>
      </trkpt>
      <trkpt lat="43.8125" lon="5.93389">
        <ele>505.9</ele>
        <time>2020-06-20T17:25:01Z</time>
      </trkpt>
      <trkpt lat="43.81251" lon="5.93388">
        <ele>506.1</ele>
        <time>2020-06-20T17:25:02Z</time>
      </trkpt>
      <trkpt lat="43.81251" lon="5.93387">
        <ele>506.2</ele>
        <time>2020-06-20T17:25:03Z</time>
      </trkpt>
      <trkpt lat="43.81252" lon="5.93386">
        <ele>507.3</ele>
        <time>2020-06-20T17:25:05Z</time>
      </trkpt>
      <trkpt lat="43.81252" lon="5.93385">
        <ele>507.3</ele>
        <time>2020-06-20T17:25:06Z</time>
      </trkpt>
      <trkpt lat="43.81253" lon="5.93384">
        <ele>507.5</ele>
        <time>2020-06-20T17:25:08Z</time>
      </trkpt>
      <trkpt lat="43.81254" lon="5.93382">
        <ele>507.6</ele>
        <time>2020-06-20T17:25:09Z</time>
      </trkpt>
      <trkpt lat="43.81255" lon="5.9338">
        <ele>507.9</ele>
        <time>2020-06-20T17:25:11Z</time>
      </trkpt>
      <trkpt lat="43.81256" lon="5.93379">
        <ele>508</ele>
        <time>2020-06-20T17:25:12Z</time>
      </trkpt>
      <trkpt lat="43.81257" lon="5.93379">
        <ele>508.1</ele>
        <time>2020-06-20T17:25:14Z</time>
      </trkpt>
      <trkpt lat="43.81258" lon="5.93378">
        <ele>508.3</ele>
        <time>2020-06-20T17:25:15Z</time>
      </trkpt>
      <trkpt lat="43.81259" lon="5.93377">
        <ele>508.4</ele>
        <time>2020-06-20T17:25:16Z</time>
      </trkpt>
      <trkpt lat="43.8126" lon="5.93376">
        <ele>508.5</ele>
        <time>2020-06-20T17:25:17Z</time>
      </trkpt>
      <trkpt lat="43.81261" lon="5.93376">
        <ele>509.1</ele>
        <time>2020-06-20T17:25:18Z</time>
      </trkpt>
      <trkpt lat="43.81262" lon="5.93375">
        <ele>509.2</ele>
        <time>2020-06-20T17:25:20Z</time>
      </trkpt>
      <trkpt lat="43.81264" lon="5.93374">
        <ele>509.4</ele>
        <time>2020-06-20T17:25:21Z</time>
      </trkpt>
      <trkpt lat="43.81267" lon="5.93373">
        <ele>509.7</ele>
        <time>2020-06-20T17:25:23Z</time>
      </trkpt>
      <trkpt lat="43.81267" lon="5.93373">
        <ele>509.7</ele>
        <time>2020-06-20T17:25:24Z</time>
      </trkpt>
      <trkpt lat="43.81269" lon="5.93373">
        <ele>509.9</ele>
        <time>2020-06-20T17:25:25Z</time>
      </trkpt>
      <trkpt lat="43.8127" lon="5.93373">
        <ele>510</ele>
        <time>2020-06-20T17:25:26Z</time>
      </trkpt>
      <trkpt lat="43.81271" lon="5.93373">
        <ele>510.1</ele>
        <time>2020-06-20T17:25:28Z</time>
      </trkpt>
      <trkpt lat="43.81272" lon="5.93373">
        <ele>510.2</ele>
        <time>2020-06-20T17:25:29Z</time>
      </trkpt>
      <trkpt lat="43.81273" lon="5.93373">
        <ele>510.3</ele>
        <time>2020-06-20T17:25:30Z</time>
      </trkpt>
      <trkpt lat="43.81274" lon="5.93373">
        <ele>510.4</ele>
        <time>2020-06-20T17:25:32Z</time>
      </trkpt>
      <trkpt lat="43.81275" lon="5.93373">
        <ele>510.5</ele>
        <time>2020-06-20T17:25:33Z</time>
      </trkpt>
      <trkpt lat="43.81276" lon="5.93373">
        <ele>510.6</ele>
        <time>2020-06-20T17:25:34Z</time>
      </trkpt>
      <trkpt lat="43.81277" lon="5.93373">
        <ele>510.7</ele>
        <time>2020-06-20T17:25:35Z</time>
      </trkpt>
      <trkpt lat="43.81278" lon="5.93372">
        <ele>510.9</ele>
        <time>2020-06-20T17:25:37Z</time>
      </trkpt>
      <trkpt lat="43.8128" lon="5.93372">
        <ele>511</ele>
        <time>2020-06-20T17:25:38Z</time>
      </trkpt>
      <trkpt lat="43.81281" lon="5.93373">
        <ele>511.1</ele>
        <time>2020-06-20T17:25:39Z</time>
      </trkpt>
      <trkpt lat="43.81284" lon="5.93373">
        <ele>511.4</ele>
        <time>2020-06-20T17:25:41Z</time>
      </trkpt>
      <trkpt lat="43.81285" lon="5.93374">
        <ele>511.5</ele>
        <time>2020-06-20T17:25:42Z</time>
      </trkpt>
      <trkpt lat="43.81286" lon="5.93374">
        <ele>511.6</ele>
        <time>2020-06-20T17:25:43Z</time>
      </trkpt>
      <trkpt lat="43.81287" lon="5.93374">
        <ele>511.8</ele>
        <time>2020-06-20T17:25:44Z</time>
      </trkpt>
      <trkpt lat="43.81288" lon="5.93375">
        <ele>511.9</ele>
        <time>2020-06-20T17:25:46Z</time>
      </trkpt>
      <trkpt lat="43.8129" lon="5.93375">
        <ele>512.1</ele>
        <time>2020-06-20T17:25:47Z</time>
      </trkpt>
      <trkpt lat="43.81292" lon="5.93375">
        <ele>512.3</ele>
        <time>2020-06-20T17:25:48Z</time>
      </trkpt>
      <trkpt lat="43.81293" lon="5.93375">
        <ele>512.4</ele>
        <time>2020-06-20T17:25:49Z</time>
      </trkpt>
      <trkpt lat="43.81294" lon="5.93376">
        <ele>512.5</ele>
        <time>2020-06-20T17:25:51Z</time>
      </trkpt>
      <trkpt lat="43.81295" lon="5.93376">
        <ele>512.6</ele>
        <time>2020-06-20T17:25:52Z</time>
      </trkpt>
      <trkpt lat="43.81296" lon="5.93376">
        <ele>512.7</ele>
        <time>2020-06-20T17:25:53Z</time>
      </trkpt>
      <trkpt lat="43.81297" lon="5.93376">
        <ele>512.8</ele>
        <time>2020-06-20T17:25:54Z</time>
      </trkpt>
      <trkpt lat="43.81298" lon="5.93377">
        <ele>512.9</ele>
        <time>2020-06-20T17:25:55Z</time>
      </trkpt>
      <trkpt lat="43.81299" lon="5.93377">
        <ele>513</ele>
        <time>2020-06-20T17:25:57Z</time>
      </trkpt>
      <trkpt lat="43.813" lon="5.93377">
        <ele>513.1</ele>
        <time>2020-06-20T17:25:58Z</time>
      </trkpt>
      <trkpt lat="43.81301" lon="5.93377">
        <ele>513.2</ele>
        <time>2020-06-20T17:25:59Z</time>
      </trkpt>
      <trkpt lat="43.81303" lon="5.93377">
        <ele>513.4</ele>
        <time>2020-06-20T17:26:00Z</time>
      </trkpt>
      <trkpt lat="43.81304" lon="5.93377">
        <ele>513.5</ele>
        <time>2020-06-20T17:26:02Z</time>
      </trkpt>
      <trkpt lat="43.81305" lon="5.93377">
        <ele>513.5</ele>
        <time>2020-06-20T17:26:03Z</time>
      </trkpt>
      <trkpt lat="43.81306" lon="5.93377">
        <ele>513.7</ele>
        <time>2020-06-20T17:26:04Z</time>
      </trkpt>
      <trkpt lat="43.81308" lon="5.93378">
        <ele>513.9</ele>
        <time>2020-06-20T17:26:06Z</time>
      </trkpt>
      <trkpt lat="43.81309" lon="5.93378">
        <ele>514</ele>
        <time>2020-06-20T17:26:07Z</time>
      </trkpt>
      <trkpt lat="43.8131" lon="5.93378">
        <ele>514.1</ele>
        <time>2020-06-20T17:26:08Z</time>
      </trkpt>
      <trkpt lat="43.81311" lon="5.93378">
        <ele>514.2</ele>
        <time>2020-06-20T17:26:09Z</time>
      </trkpt>
      <trkpt lat="43.81312" lon="5.93378">
        <ele>514.3</ele>
        <time>2020-06-20T17:26:11Z</time>
      </trkpt>
      <trkpt lat="43.81313" lon="5.93377">
        <ele>514.4</ele>
        <time>2020-06-20T17:26:12Z</time>
      </trkpt>
      <trkpt lat="43.81314" lon="5.93377">
        <ele>514.5</ele>
        <time>2020-06-20T17:26:13Z</time>
      </trkpt>
      <trkpt lat="43.81315" lon="5.93377">
        <ele>514.6</ele>
        <time>2020-06-20T17:26:15Z</time>
      </trkpt>
      <trkpt lat="43.81316" lon="5.93377">
        <ele>514.7</ele>
        <time>2020-06-20T17:26:16Z</time>
      </trkpt>
      <trkpt lat="43.81317" lon="5.93377">
        <ele>514.8</ele>
        <time>2020-06-20T17:26:17Z</time>
      </trkpt>
      <trkpt lat="43.81318" lon="5.93377">
        <ele>514.9</ele>
        <time>2020-06-20T17:26:18Z</time>
      </trkpt>
      <trkpt lat="43.8132" lon="5.93377">
        <ele>515</ele>
        <time>2020-06-20T17:26:20Z</time>
      </trkpt>
      <trkpt lat="43.8132" lon="5.93377">
        <ele>515.1</ele>
        <time>2020-06-20T17:26:21Z</time>
      </trkpt>
      <trkpt lat="43.81322" lon="5.93377">
        <ele>515.3</ele>
        <time>2020-06-20T17:26:22Z</time>
      </trkpt>
      <trkpt lat="43.81323" lon="5.93377">
        <ele>515.4</ele>
        <time>2020-06-20T17:26:24Z</time>
      </trkpt>
      <trkpt lat="43.81324" lon="5.93376">
        <ele>515.5</ele>
        <time>2020-06-20T17:26:25Z</time>
      </trkpt>
      <trkpt lat="43.81327" lon="5.93377">
        <ele>515.7</ele>
        <time>2020-06-20T17:26:27Z</time>
      </trkpt>
      <trkpt lat="43.81327" lon="5.93377">
        <ele>515.8</ele>
        <time>2020-06-20T17:26:28Z</time>
      </trkpt>
      <trkpt lat="43.81328" lon="5.93377">
        <ele>515.9</ele>
        <time>2020-06-20T17:26:29Z</time>
      </trkpt>
      <trkpt lat="43.81329" lon="5.93377">
        <ele>516</ele>
        <time>2020-06-20T17:26:31Z</time>
      </trkpt>
      <trkpt lat="43.81331" lon="5.93378">
        <ele>516.2</ele>
        <time>2020-06-20T17:26:32Z</time>
      </trkpt>
      <trkpt lat="43.81331" lon="5.93377">
        <ele>516.2</ele>
        <time>2020-06-20T17:26:33Z</time>
      </trkpt>
      <trkpt lat="43.81332" lon="5.93377">
        <ele>516.3</ele>
        <time>2020-06-20T17:26:35Z</time>
      </trkpt>
      <trkpt lat="43.81333" lon="5.93377">
        <ele>516.4</ele>
        <time>2020-06-20T17:26:36Z</time>
      </trkpt>
      <trkpt lat="43.81334" lon="5.93376">
        <ele>516.6</ele>
        <time>2020-06-20T17:26:37Z</time>
      </trkpt>
      <trkpt lat="43.81336" lon="5.93375">
        <ele>516.8</ele>
        <time>2020-06-20T17:26:38Z</time>
      </trkpt>
      <trkpt lat="43.81337" lon="5.93374">
        <ele>516.9</ele>
        <time>2020-06-20T17:26:40Z</time>
      </trkpt>
      <trkpt lat="43.81338" lon="5.93374">
        <ele>516.9</ele>
        <time>2020-06-20T17:26:41Z</time>
      </trkpt>
      <trkpt lat="43.81339" lon="5.93373">
        <ele>517.1</ele>
        <time>2020-06-20T17:26:42Z</time>
      </trkpt>
      <trkpt lat="43.8134" lon="5.93373">
        <ele>517.2</ele>
        <time>2020-06-20T17:26:43Z</time>
      </trkpt>
      <trkpt lat="43.81341" lon="5.93372">
        <ele>517.3</ele>
        <time>2020-06-20T17:26:44Z</time>
      </trkpt>
      <trkpt lat="43.81343" lon="5.93372">
        <ele>517.5</ele>
        <time>2020-06-20T17:26:45Z</time>
      </trkpt>
      <trkpt lat="43.81344" lon="5.93372">
        <ele>517.6</ele>
        <time>2020-06-20T17:26:47Z</time>
      </trkpt>
      <trkpt lat="43.81345" lon="5.93371">
        <ele>517.7</ele>
        <time>2020-06-20T17:26:48Z</time>
      </trkpt>
      <trkpt lat="43.81346" lon="5.93371">
        <ele>517.8</ele>
        <time>2020-06-20T17:26:49Z</time>
      </trkpt>
      <trkpt lat="43.81347" lon="5.93371">
        <ele>517.8</ele>
        <time>2020-06-20T17:26:50Z</time>
      </trkpt>
      <trkpt lat="43.81347" lon="5.93371">
        <ele>517.9</ele>
        <time>2020-06-20T17:26:52Z</time>
      </trkpt>
      <trkpt lat="43.81348" lon="5.93371">
        <ele>518</ele>
        <time>2020-06-20T17:26:54Z</time>
      </trkpt>
      <trkpt lat="43.81349" lon="5.93371">
        <ele>518.1</ele>
        <time>2020-06-20T17:26:55Z</time>
      </trkpt>
      <trkpt lat="43.8135" lon="5.93371">
        <ele>518.2</ele>
        <time>2020-06-20T17:26:56Z</time>
      </trkpt>
      <trkpt lat="43.81351" lon="5.93372">
        <ele>518.3</ele>
        <time>2020-06-20T17:26:57Z</time>
      </trkpt>
      <trkpt lat="43.81353" lon="5.93371">
        <ele>518.5</ele>
        <time>2020-06-20T17:26:58Z</time>
      </trkpt>
      <trkpt lat="43.81355" lon="5.9337">
        <ele>518.7</ele>
        <time>2020-06-20T17:27:00Z</time>
      </trkpt>
      <trkpt lat="43.81356" lon="5.9337">
        <ele>518.8</ele>
        <time>2020-06-20T17:27:01Z</time>
      </trkpt>
      <trkpt lat="43.81358" lon="5.9337">
        <ele>519</ele>
        <time>2020-06-20T17:27:02Z</time>
      </trkpt>
      <trkpt lat="43.81361" lon="5.93369">
        <ele>519.3</ele>
        <time>2020-06-20T17:27:04Z</time>
      </trkpt>
      <trkpt lat="43.81365" lon="5.93366">
        <ele>519.7</ele>
        <time>2020-06-20T17:27:05Z</time>
      </trkpt>
      <trkpt lat="43.81368" lon="5.93365">
        <ele>520.1</ele>
        <time>2020-06-20T17:27:06Z</time>
      </trkpt>
      <trkpt lat="43.81372" lon="5.93365">
        <ele>520.4</ele>
        <time>2020-06-20T17:27:07Z</time>
      </trkpt>
      <trkpt lat="43.81374" lon="5.93365">
        <ele>520.7</ele>
        <time>2020-06-20T17:27:09Z</time>
      </trkpt>
      <trkpt lat="43.81377" lon="5.93365">
        <ele>520.9</ele>
        <time>2020-06-20T17:27:10Z</time>
      </trkpt>
      <trkpt lat="43.81379" lon="5.93365">
        <ele>521.2</ele>
        <time>2020-06-20T17:27:12Z</time>
      </trkpt>
      <trkpt lat="43.81382" lon="5.93364">
        <ele>521.5</ele>
        <time>2020-06-20T17:27:13Z</time>
      </trkpt>
      <trkpt lat="43.81383" lon="5.93364">
        <ele>521.6</ele>
        <time>2020-06-20T17:27:14Z</time>
      </trkpt>
      <trkpt lat="43.81386" lon="5.93364">
        <ele>521.9</ele>
        <time>2020-06-20T17:27:15Z</time>
      </trkpt>
      <trkpt lat="43.8139" lon="5.93364">
        <ele>522.2</ele>
        <time>2020-06-20T17:27:17Z</time>
      </trkpt>
      <trkpt lat="43.81391" lon="5.93364">
        <ele>522.4</ele>
        <time>2020-06-20T17:27:18Z</time>
      </trkpt>
      <trkpt lat="43.81393" lon="5.93364">
        <ele>522.6</ele>
        <time>2020-06-20T17:27:19Z</time>
      </trkpt>
      <trkpt lat="43.81395" lon="5.93365">
        <ele>522.8</ele>
        <time>2020-06-20T17:27:21Z</time>
      </trkpt>
      <trkpt lat="43.81398" lon="5.93364">
        <ele>523.1</ele>
        <time>2020-06-20T17:27:22Z</time>
      </trkpt>
      <trkpt lat="43.81401" lon="5.93365">
        <ele>523.4</ele>
        <time>2020-06-20T17:27:24Z</time>
      </trkpt>
      <trkpt lat="43.81402" lon="5.93365">
        <ele>523.5</ele>
        <time>2020-06-20T17:27:25Z</time>
      </trkpt>
      <trkpt lat="43.81405" lon="5.93366">
        <ele>523.8</ele>
        <time>2020-06-20T17:27:26Z</time>
      </trkpt>
      <trkpt lat="43.81406" lon="5.93367">
        <ele>524</ele>
        <time>2020-06-20T17:27:28Z</time>
      </trkpt>
      <trkpt lat="43.81408" lon="5.93368">
        <ele>524.1</ele>
        <time>2020-06-20T17:27:29Z</time>
      </trkpt>
      <trkpt lat="43.8141" lon="5.9337">
        <ele>524.4</ele>
        <time>2020-06-20T17:27:31Z</time>
      </trkpt>
      <trkpt lat="43.81413" lon="5.93371">
        <ele>524.7</ele>
        <time>2020-06-20T17:27:33Z</time>
      </trkpt>
      <trkpt lat="43.81414" lon="5.93371">
        <ele>524.8</ele>
        <time>2020-06-20T17:27:34Z</time>
      </trkpt>
      <trkpt lat="43.81415" lon="5.93371">
        <ele>524.9</ele>
        <time>2020-06-20T17:27:35Z</time>
      </trkpt>
      <trkpt lat="43.81418" lon="5.93372">
        <ele>525.2</ele>
        <time>2020-06-20T17:27:37Z</time>
      </trkpt>
      <trkpt lat="43.81421" lon="5.93373">
        <ele>525.5</ele>
        <time>2020-06-20T17:27:38Z</time>
      </trkpt>
      <trkpt lat="43.81422" lon="5.93373">
        <ele>525.6</ele>
        <time>2020-06-20T17:27:39Z</time>
      </trkpt>
      <trkpt lat="43.81423" lon="5.93373">
        <ele>525.7</ele>
        <time>2020-06-20T17:27:40Z</time>
      </trkpt>
      <trkpt lat="43.81425" lon="5.93373">
        <ele>525.9</ele>
        <time>2020-06-20T17:27:42Z</time>
      </trkpt>
      <trkpt lat="43.81428" lon="5.93373">
        <ele>526.2</ele>
        <time>2020-06-20T17:27:43Z</time>
      </trkpt>
      <trkpt lat="43.8143" lon="5.93373">
        <ele>526.4</ele>
        <time>2020-06-20T17:27:44Z</time>
      </trkpt>
      <trkpt lat="43.81432" lon="5.93373">
        <ele>526.6</ele>
        <time>2020-06-20T17:27:46Z</time>
      </trkpt>
      <trkpt lat="43.81434" lon="5.93374">
        <ele>526.8</ele>
        <time>2020-06-20T17:27:48Z</time>
      </trkpt>
      <trkpt lat="43.81435" lon="5.93374">
        <ele>526.9</ele>
        <time>2020-06-20T17:27:50Z</time>
      </trkpt>
      <trkpt lat="43.81435" lon="5.93374">
        <ele>526.9</ele>
        <time>2020-06-20T17:27:51Z</time>
      </trkpt>
      <trkpt lat="43.81436" lon="5.93374">
        <ele>527</ele>
        <time>2020-06-20T17:27:53Z</time>
      </trkpt>
      <trkpt lat="43.81437" lon="5.93374">
        <ele>527.1</ele>
        <time>2020-06-20T17:27:54Z</time>
      </trkpt>
      <trkpt lat="43.81438" lon="5.93374">
        <ele>527.2</ele>
        <time>2020-06-20T17:27:56Z</time>
      </trkpt>
      <trkpt lat="43.81442" lon="5.93374">
        <ele>527.6</ele>
        <time>2020-06-20T17:28:59Z</time>
      </trkpt>
      <trkpt lat="43.81444" lon="5.93374">
        <ele>527.8</ele>
        <time>2020-06-20T17:29:00Z</time>
      </trkpt>
      <trkpt lat="43.81446" lon="5.93374">
        <ele>528</ele>
        <time>2020-06-20T17:29:02Z</time>
      </trkpt>
      <trkpt lat="43.81448" lon="5.93374">
        <ele>528.2</ele>
        <time>2020-06-20T17:29:03Z</time>
      </trkpt>
      <trkpt lat="43.81452" lon="5.93376">
        <ele>528.7</ele>
        <time>2020-06-20T17:29:05Z</time>
      </trkpt>
      <trkpt lat="43.81455" lon="5.93377">
        <ele>528.9</ele>
        <time>2020-06-20T17:29:06Z</time>
      </trkpt>
      <trkpt lat="43.81456" lon="5.93378">
        <ele>529</ele>
        <time>2020-06-20T17:29:07Z</time>
      </trkpt>
      <trkpt lat="43.81458" lon="5.93379">
        <ele>529.3</ele>
        <time>2020-06-20T17:29:08Z</time>
      </trkpt>
      <trkpt lat="43.8146" lon="5.9338">
        <ele>529.5</ele>
        <time>2020-06-20T17:29:10Z</time>
      </trkpt>
      <trkpt lat="43.81462" lon="5.9338">
        <ele>529.7</ele>
        <time>2020-06-20T17:29:11Z</time>
      </trkpt>
      <trkpt lat="43.81464" lon="5.9338">
        <ele>529.9</ele>
        <time>2020-06-20T17:29:12Z</time>
      </trkpt>
      <trkpt lat="43.81466" lon="5.93381">
        <ele>530.1</ele>
        <time>2020-06-20T17:29:14Z</time>
      </trkpt>
      <trkpt lat="43.81469" lon="5.93382">
        <ele>530.5</ele>
        <time>2020-06-20T17:29:16Z</time>
      </trkpt>
      <trkpt lat="43.81474" lon="5.93383">
        <ele>530.9</ele>
        <time>2020-06-20T17:29:18Z</time>
      </trkpt>
      <trkpt lat="43.81475" lon="5.93384">
        <ele>531</ele>
        <time>2020-06-20T17:29:19Z</time>
      </trkpt>
      <trkpt lat="43.81476" lon="5.93384">
        <ele>531.1</ele>
        <time>2020-06-20T17:29:20Z</time>
      </trkpt>
      <trkpt lat="43.81479" lon="5.93383">
        <ele>531.5</ele>
        <time>2020-06-20T17:29:21Z</time>
      </trkpt>
      <trkpt lat="43.8148" lon="5.93383">
        <ele>531.6</ele>
        <time>2020-06-20T17:29:22Z</time>
      </trkpt>
      <trkpt lat="43.81484" lon="5.93383">
        <ele>531.9</ele>
        <time>2020-06-20T17:29:24Z</time>
      </trkpt>
      <trkpt lat="43.81485" lon="5.93383">
        <ele>532</ele>
        <time>2020-06-20T17:29:25Z</time>
      </trkpt>
      <trkpt lat="43.81489" lon="5.93382">
        <ele>532.4</ele>
        <time>2020-06-20T17:29:27Z</time>
      </trkpt>
      <trkpt lat="43.81493" lon="5.93381">
        <ele>532.8</ele>
        <time>2020-06-20T17:29:28Z</time>
      </trkpt>
      <trkpt lat="43.81496" lon="5.93381">
        <ele>533.1</ele>
        <time>2020-06-20T17:29:30Z</time>
      </trkpt>
      <trkpt lat="43.815" lon="5.9338">
        <ele>533.5</ele>
        <time>2020-06-20T17:29:32Z</time>
      </trkpt>
      <trkpt lat="43.81503" lon="5.93379">
        <ele>533.9</ele>
        <time>2020-06-20T17:29:33Z</time>
      </trkpt>
      <trkpt lat="43.81507" lon="5.93378">
        <ele>534.2</ele>
        <time>2020-06-20T17:29:34Z</time>
      </trkpt>
      <trkpt lat="43.81507" lon="5.93378">
        <ele>534.3</ele>
        <time>2020-06-20T17:29:35Z</time>
      </trkpt>
      <trkpt lat="43.81509" lon="5.93379">
        <ele>534.5</ele>
        <time>2020-06-20T17:29:36Z</time>
      </trkpt>
      <trkpt lat="43.81511" lon="5.93379">
        <ele>534.6</ele>
        <time>2020-06-20T17:29:37Z</time>
      </trkpt>
      <trkpt lat="43.81513" lon="5.9338">
        <ele>534.9</ele>
        <time>2020-06-20T17:29:39Z</time>
      </trkpt>
      <trkpt lat="43.81514" lon="5.9338">
        <ele>535</ele>
        <time>2020-06-20T17:29:40Z</time>
      </trkpt>
      <trkpt lat="43.81517" lon="5.9338">
        <ele>535.3</ele>
        <time>2020-06-20T17:29:41Z</time>
      </trkpt>
      <trkpt lat="43.81519" lon="5.93381">
        <ele>535.5</ele>
        <time>2020-06-20T17:29:43Z</time>
      </trkpt>
      <trkpt lat="43.81522" lon="5.93382">
        <ele>535.8</ele>
        <time>2020-06-20T17:29:45Z</time>
      </trkpt>
      <trkpt lat="43.81525" lon="5.93382">
        <ele>536.1</ele>
        <time>2020-06-20T17:29:46Z</time>
      </trkpt>
      <trkpt lat="43.81529" lon="5.93381">
        <ele>536.5</ele>
        <time>2020-06-20T17:29:48Z</time>
      </trkpt>
      <trkpt lat="43.81532" lon="5.93381">
        <ele>536.8</ele>
        <time>2020-06-20T17:29:49Z</time>
      </trkpt>
      <trkpt lat="43.81533" lon="5.93381">
        <ele>536.9</ele>
        <time>2020-06-20T17:29:50Z</time>
      </trkpt>
      <trkpt lat="43.81535" lon="5.93381">
        <ele>537.2</ele>
        <time>2020-06-20T17:29:51Z</time>
      </trkpt>
      <trkpt lat="43.81536" lon="5.93381">
        <ele>537.3</ele>
        <time>2020-06-20T17:29:52Z</time>
      </trkpt>
      <trkpt lat="43.81539" lon="5.93381">
        <ele>537.5</ele>
        <time>2020-06-20T17:29:54Z</time>
      </trkpt>
      <trkpt lat="43.81542" lon="5.93381">
        <ele>537.8</ele>
        <time>2020-06-20T17:29:56Z</time>
      </trkpt>
      <trkpt lat="43.81543" lon="5.93382">
        <ele>538</ele>
        <time>2020-06-20T17:29:57Z</time>
      </trkpt>
      <trkpt lat="43.81544" lon="5.93384">
        <ele>538.1</ele>
        <time>2020-06-20T17:29:58Z</time>
      </trkpt>
      <trkpt lat="43.81546" lon="5.93385">
        <ele>538.3</ele>
        <time>2020-06-20T17:30:00Z</time>
      </trkpt>
      <trkpt lat="43.81547" lon="5.93385">
        <ele>538.4</ele>
        <time>2020-06-20T17:30:01Z</time>
      </trkpt>
      <trkpt lat="43.81549" lon="5.93385">
        <ele>538.6</ele>
        <time>2020-06-20T17:30:03Z</time>
      </trkpt>
      <trkpt lat="43.81552" lon="5.93386">
        <ele>538.9</ele>
        <time>2020-06-20T17:30:04Z</time>
      </trkpt>
      <trkpt lat="43.81553" lon="5.93386">
        <ele>539</ele>
        <time>2020-06-20T17:30:05Z</time>
      </trkpt>
      <trkpt lat="43.81554" lon="5.93386">
        <ele>539.2</ele>
        <time>2020-06-20T17:30:06Z</time>
      </trkpt>
      <trkpt lat="43.81556" lon="5.93386">
        <ele>539.3</ele>
        <time>2020-06-20T17:30:08Z</time>
      </trkpt>
      <trkpt lat="43.8156" lon="5.93386">
        <ele>539.7</ele>
        <time>2020-06-20T17:30:10Z</time>
      </trkpt>
      <trkpt lat="43.81562" lon="5.93386">
        <ele>539.9</ele>
        <time>2020-06-20T17:30:11Z</time>
      </trkpt>
      <trkpt lat="43.81563" lon="5.93386">
        <ele>540</ele>
        <time>2020-06-20T17:30:12Z</time>
      </trkpt>
      <trkpt lat="43.81565" lon="5.93385">
        <ele>540.7</ele>
        <time>2020-06-20T17:30:13Z</time>
      </trkpt>
      <trkpt lat="43.81568" lon="5.93383">
        <ele>540.9</ele>
        <time>2020-06-20T17:30:15Z</time>
      </trkpt>
      <trkpt lat="43.8157" lon="5.9338">
        <ele>541.1</ele>
        <time>2020-06-20T17:30:16Z</time>
      </trkpt>
      <trkpt lat="43.81573" lon="5.93377">
        <ele>541.3</ele>
        <time>2020-06-20T17:30:17Z</time>
      </trkpt>
      <trkpt lat="43.81573" lon="5.93376">
        <ele>541.4</ele>
        <time>2020-06-20T17:30:18Z</time>
      </trkpt>
      <trkpt lat="43.81575" lon="5.93371">
        <ele>541.7</ele>
        <time>2020-06-20T17:30:19Z</time>
      </trkpt>
      <trkpt lat="43.81576" lon="5.93369">
        <ele>541.8</ele>
        <time>2020-06-20T17:30:20Z</time>
      </trkpt>
      <trkpt lat="43.81577" lon="5.93363">
        <ele>542.2</ele>
        <time>2020-06-20T17:30:21Z</time>
      </trkpt>
      <trkpt lat="43.81574" lon="5.93357">
        <ele>542.6</ele>
        <time>2020-06-20T17:30:23Z</time>
      </trkpt>
      <trkpt lat="43.81571" lon="5.93353">
        <ele>542.9</ele>
        <time>2020-06-20T17:30:24Z</time>
      </trkpt>
      <trkpt lat="43.81568" lon="5.93346">
        <ele>543.3</ele>
        <time>2020-06-20T17:30:25Z</time>
      </trkpt>
      <trkpt lat="43.81567" lon="5.93339">
        <ele>543.6</ele>
        <time>2020-06-20T17:30:27Z</time>
      </trkpt>
      <trkpt lat="43.81567" lon="5.93337">
        <ele>543.8</ele>
        <time>2020-06-20T17:30:28Z</time>
      </trkpt>
      <trkpt lat="43.81566" lon="5.93334">
        <ele>543.9</ele>
        <time>2020-06-20T17:30:29Z</time>
      </trkpt>
      <trkpt lat="43.81566" lon="5.9333">
        <ele>544.1</ele>
        <time>2020-06-20T17:30:30Z</time>
      </trkpt>
      <trkpt lat="43.81567" lon="5.93326">
        <ele>544.4</ele>
        <time>2020-06-20T17:30:31Z</time>
      </trkpt>
      <trkpt lat="43.81568" lon="5.93323">
        <ele>544.5</ele>
        <time>2020-06-20T17:30:32Z</time>
      </trkpt>
      <trkpt lat="43.8157" lon="5.9332">
        <ele>544.8</ele>
        <time>2020-06-20T17:30:34Z</time>
      </trkpt>
      <trkpt lat="43.8157" lon="5.93316">
        <ele>545.1</ele>
        <time>2020-06-20T17:30:35Z</time>
      </trkpt>
      <trkpt lat="43.8157" lon="5.9331">
        <ele>545.1</ele>
        <time>2020-06-20T17:30:37Z</time>
      </trkpt>
      <trkpt lat="43.81571" lon="5.93304">
        <ele>545.2</ele>
        <time>2020-06-20T17:30:38Z</time>
      </trkpt>
      <trkpt lat="43.81572" lon="5.933">
        <ele>545.2</ele>
        <time>2020-06-20T17:30:40Z</time>
      </trkpt>
      <trkpt lat="43.81572" lon="5.93299">
        <ele>545.2</ele>
        <time>2020-06-20T17:30:41Z</time>
      </trkpt>
      <trkpt lat="43.81574" lon="5.93294">
        <ele>545.2</ele>
        <time>2020-06-20T17:30:42Z</time>
      </trkpt>
      <trkpt lat="43.81575" lon="5.93289">
        <ele>545.2</ele>
        <time>2020-06-20T17:30:44Z</time>
      </trkpt>
      <trkpt lat="43.81576" lon="5.93287">
        <ele>545.2</ele>
        <time>2020-06-20T17:30:45Z</time>
      </trkpt>
      <trkpt lat="43.81577" lon="5.93282">
        <ele>545.3</ele>
        <time>2020-06-20T17:30:47Z</time>
      </trkpt>
      <trkpt lat="43.81578" lon="5.93276">
        <ele>545.3</ele>
        <time>2020-06-20T17:30:49Z</time>
      </trkpt>
      <trkpt lat="43.81579" lon="5.93273">
        <ele>545.3</ele>
        <time>2020-06-20T17:30:50Z</time>
      </trkpt>
      <trkpt lat="43.81581" lon="5.93268">
        <ele>545.3</ele>
        <time>2020-06-20T17:30:52Z</time>
      </trkpt>
      <trkpt lat="43.81581" lon="5.93262">
        <ele>545.4</ele>
        <time>2020-06-20T17:30:53Z</time>
      </trkpt>
      <trkpt lat="43.81581" lon="5.93259">
        <ele>545.4</ele>
        <time>2020-06-20T17:30:54Z</time>
      </trkpt>
      <trkpt lat="43.81581" lon="5.93254">
        <ele>545.4</ele>
        <time>2020-06-20T17:30:56Z</time>
      </trkpt>
      <trkpt lat="43.81582" lon="5.9325">
        <ele>545.4</ele>
        <time>2020-06-20T17:30:57Z</time>
      </trkpt>
      <trkpt lat="43.81582" lon="5.93247">
        <ele>545.4</ele>
        <time>2020-06-20T17:30:59Z</time>
      </trkpt>
      <trkpt lat="43.81583" lon="5.93245">
        <ele>545.4</ele>
        <time>2020-06-20T17:31:01Z</time>
      </trkpt>
      <trkpt lat="43.81583" lon="5.93243">
        <ele>545.4</ele>
        <time>2020-06-20T17:31:02Z</time>
      </trkpt>
      <trkpt lat="43.81583" lon="5.93242">
        <ele>545.5</ele>
        <time>2020-06-20T17:31:04Z</time>
      </trkpt>
      <trkpt lat="43.81583" lon="5.9324">
        <ele>545.5</ele>
        <time>2020-06-20T17:31:05Z</time>
      </trkpt>
      <trkpt lat="43.81583" lon="5.93236">
        <ele>545.8</ele>
        <time>2020-06-20T17:31:06Z</time>
      </trkpt>
      <trkpt lat="43.81582" lon="5.93231">
        <ele>545.8</ele>
        <time>2020-06-20T17:31:07Z</time>
      </trkpt>
      <trkpt lat="43.81581" lon="5.93226">
        <ele>545.8</ele>
        <time>2020-06-20T17:31:09Z</time>
      </trkpt>
      <trkpt lat="43.81579" lon="5.93223">
        <ele>545.8</ele>
        <time>2020-06-20T17:31:10Z</time>
      </trkpt>
      <trkpt lat="43.81557" lon="5.93218">
        <ele>544.6</ele>
        <time>2020-06-20T17:31:11Z</time>
      </trkpt>
      <trkpt lat="43.81551" lon="5.93217">
        <ele>544.4</ele>
        <time>2020-06-20T17:31:13Z</time>
      </trkpt>
      <trkpt lat="43.81546" lon="5.93216">
        <ele>544.2</ele>
        <time>2020-06-20T17:31:14Z</time>
      </trkpt>
      <trkpt lat="43.81541" lon="5.93216">
        <ele>544.1</ele>
        <time>2020-06-20T17:31:15Z</time>
      </trkpt>
      <trkpt lat="43.81541" lon="5.93221">
        <ele>544</ele>
        <time>2020-06-20T17:31:17Z</time>
      </trkpt>
      <trkpt lat="43.81534" lon="5.93219">
        <ele>543.8</ele>
        <time>2020-06-20T17:31:19Z</time>
      </trkpt>
      <trkpt lat="43.8153" lon="5.93217">
        <ele>543.6</ele>
        <time>2020-06-20T17:31:20Z</time>
      </trkpt>
      <trkpt lat="43.81519" lon="5.9321">
        <ele>543.4</ele>
        <time>2020-06-20T17:31:22Z</time>
      </trkpt>
      <trkpt lat="43.8151" lon="5.93207">
        <ele>543.2</ele>
        <time>2020-06-20T17:31:23Z</time>
      </trkpt>
      <trkpt lat="43.815" lon="5.93206">
        <ele>543</ele>
        <time>2020-06-20T17:31:25Z</time>
      </trkpt>
      <trkpt lat="43.81494" lon="5.93207">
        <ele>542.8</ele>
        <time>2020-06-20T17:31:26Z</time>
      </trkpt>
      <trkpt lat="43.81485" lon="5.93208">
        <ele>542.6</ele>
        <time>2020-06-20T17:31:28Z</time>
      </trkpt>
      <trkpt lat="43.81477" lon="5.93208">
        <ele>542.4</ele>
        <time>2020-06-20T17:31:30Z</time>
      </trkpt>
      <trkpt lat="43.81473" lon="5.93208">
        <ele>542.3</ele>
        <time>2020-06-20T17:31:31Z</time>
      </trkpt>
      <trkpt lat="43.81462" lon="5.93209">
        <ele>542.1</ele>
        <time>2020-06-20T17:31:33Z</time>
      </trkpt>
      <trkpt lat="43.81456" lon="5.93209">
        <ele>542</ele>
        <time>2020-06-20T17:31:34Z</time>
      </trkpt>
      <trkpt lat="43.81446" lon="5.93209">
        <ele>541.7</ele>
        <time>2020-06-20T17:31:36Z</time>
      </trkpt>
      <trkpt lat="43.81441" lon="5.93208">
        <ele>541.6</ele>
        <time>2020-06-20T17:31:37Z</time>
      </trkpt>
      <trkpt lat="43.81431" lon="5.93204">
        <ele>541.3</ele>
        <time>2020-06-20T17:31:39Z</time>
      </trkpt>
      <trkpt lat="43.8142" lon="5.932">
        <ele>541</ele>
        <time>2020-06-20T17:31:41Z</time>
      </trkpt>
      <trkpt lat="43.81415" lon="5.93197">
        <ele>540.9</ele>
        <time>2020-06-20T17:31:42Z</time>
      </trkpt>
      <trkpt lat="43.81405" lon="5.93191">
        <ele>540.6</ele>
        <time>2020-06-20T17:31:44Z</time>
      </trkpt>
      <trkpt lat="43.81401" lon="5.93188">
        <ele>540.5</ele>
        <time>2020-06-20T17:31:45Z</time>
      </trkpt>
      <trkpt lat="43.81392" lon="5.9318">
        <ele>540.3</ele>
        <time>2020-06-20T17:31:47Z</time>
      </trkpt>
      <trkpt lat="43.81387" lon="5.93176">
        <ele>540.1</ele>
        <time>2020-06-20T17:31:48Z</time>
      </trkpt>
      <trkpt lat="43.81379" lon="5.93167">
        <ele>539.9</ele>
        <time>2020-06-20T17:31:50Z</time>
      </trkpt>
      <trkpt lat="43.81372" lon="5.93157">
        <ele>539.6</ele>
        <time>2020-06-20T17:31:52Z</time>
      </trkpt>
      <trkpt lat="43.81366" lon="5.93147">
        <ele>539.4</ele>
        <time>2020-06-20T17:31:54Z</time>
      </trkpt>
      <trkpt lat="43.81362" lon="5.93142">
        <ele>539.3</ele>
        <time>2020-06-20T17:31:55Z</time>
      </trkpt>
      <trkpt lat="43.81357" lon="5.9313">
        <ele>539</ele>
        <time>2020-06-20T17:31:57Z</time>
      </trkpt>
      <trkpt lat="43.81351" lon="5.93117">
        <ele>538.7</ele>
        <time>2020-06-20T17:31:59Z</time>
      </trkpt>
      <trkpt lat="43.81348" lon="5.93111">
        <ele>538.6</ele>
        <time>2020-06-20T17:32:00Z</time>
      </trkpt>
      <trkpt lat="43.81344" lon="5.93107">
        <ele>538.6</ele>
        <time>2020-06-20T17:32:01Z</time>
      </trkpt>
      <trkpt lat="43.81334" lon="5.93101">
        <ele>538.7</ele>
        <time>2020-06-20T17:32:03Z</time>
      </trkpt>
      <trkpt lat="43.81329" lon="5.93098">
        <ele>538.9</ele>
        <time>2020-06-20T17:32:04Z</time>
      </trkpt>
      <trkpt lat="43.81324" lon="5.93094">
        <ele>538.9</ele>
        <time>2020-06-20T17:32:05Z</time>
      </trkpt>
      <trkpt lat="43.81314" lon="5.93087">
        <ele>539</ele>
        <time>2020-06-20T17:32:07Z</time>
      </trkpt>
      <trkpt lat="43.8131" lon="5.93082">
        <ele>539</ele>
        <time>2020-06-20T17:32:08Z</time>
      </trkpt>
      <trkpt lat="43.81303" lon="5.93073">
        <ele>539</ele>
        <time>2020-06-20T17:32:10Z</time>
      </trkpt>
      <trkpt lat="43.81299" lon="5.93066">
        <ele>539</ele>
        <time>2020-06-20T17:32:12Z</time>
      </trkpt>
      <trkpt lat="43.81294" lon="5.93058">
        <ele>539</ele>
        <time>2020-06-20T17:32:14Z</time>
      </trkpt>
      <trkpt lat="43.81292" lon="5.93054">
        <ele>539</ele>
        <time>2020-06-20T17:32:15Z</time>
      </trkpt>
      <trkpt lat="43.81289" lon="5.93049">
        <ele>539</ele>
        <time>2020-06-20T17:32:16Z</time>
      </trkpt>
      <trkpt lat="43.81287" lon="5.93045">
        <ele>539</ele>
        <time>2020-06-20T17:32:17Z</time>
      </trkpt>
      <trkpt lat="43.81285" lon="5.9304">
        <ele>539</ele>
        <time>2020-06-20T17:32:19Z</time>
      </trkpt>
      <trkpt lat="43.81283" lon="5.93037">
        <ele>539</ele>
        <time>2020-06-20T17:32:20Z</time>
      </trkpt>
      <trkpt lat="43.81279" lon="5.93033">
        <ele>539.1</ele>
        <time>2020-06-20T17:32:22Z</time>
      </trkpt>
      <trkpt lat="43.81277" lon="5.9303">
        <ele>539.1</ele>
        <time>2020-06-20T17:32:23Z</time>
      </trkpt>
      <trkpt lat="43.81275" lon="5.93026">
        <ele>539.1</ele>
        <time>2020-06-20T17:32:24Z</time>
      </trkpt>
      <trkpt lat="43.81272" lon="5.93021">
        <ele>539.1</ele>
        <time>2020-06-20T17:32:25Z</time>
      </trkpt>
      <trkpt lat="43.8127" lon="5.93017">
        <ele>539.1</ele>
        <time>2020-06-20T17:32:27Z</time>
      </trkpt>
      <trkpt lat="43.81268" lon="5.93013">
        <ele>539.1</ele>
        <time>2020-06-20T17:32:28Z</time>
      </trkpt>
      <trkpt lat="43.81265" lon="5.93009">
        <ele>539.1</ele>
        <time>2020-06-20T17:32:30Z</time>
      </trkpt>
      <trkpt lat="43.81263" lon="5.93005">
        <ele>539.1</ele>
        <time>2020-06-20T17:32:31Z</time>
      </trkpt>
      <trkpt lat="43.81261" lon="5.93">
        <ele>539.1</ele>
        <time>2020-06-20T17:32:32Z</time>
      </trkpt>
      <trkpt lat="43.8126" lon="5.92996">
        <ele>539.1</ele>
        <time>2020-06-20T17:32:33Z</time>
      </trkpt>
      <trkpt lat="43.81259" lon="5.92991">
        <ele>539.1</ele>
        <time>2020-06-20T17:32:35Z</time>
      </trkpt>
      <trkpt lat="43.81257" lon="5.92987">
        <ele>539.1</ele>
        <time>2020-06-20T17:32:36Z</time>
      </trkpt>
      <trkpt lat="43.81255" lon="5.92983">
        <ele>539.1</ele>
        <time>2020-06-20T17:32:37Z</time>
      </trkpt>
      <trkpt lat="43.81253" lon="5.92977">
        <ele>539.1</ele>
        <time>2020-06-20T17:32:39Z</time>
      </trkpt>
      <trkpt lat="43.81252" lon="5.92972">
        <ele>539.1</ele>
        <time>2020-06-20T17:32:40Z</time>
      </trkpt>
      <trkpt lat="43.81249" lon="5.92966">
        <ele>539.2</ele>
        <time>2020-06-20T17:32:41Z</time>
      </trkpt>
      <trkpt lat="43.81244" lon="5.92958">
        <ele>539.2</ele>
        <time>2020-06-20T17:32:43Z</time>
      </trkpt>
      <trkpt lat="43.81241" lon="5.92949">
        <ele>539.2</ele>
        <time>2020-06-20T17:32:45Z</time>
      </trkpt>
      <trkpt lat="43.81239" lon="5.92944">
        <ele>539.2</ele>
        <time>2020-06-20T17:32:46Z</time>
      </trkpt>
      <trkpt lat="43.81237" lon="5.92938">
        <ele>539.2</ele>
        <time>2020-06-20T17:32:47Z</time>
      </trkpt>
      <trkpt lat="43.81234" lon="5.92933">
        <ele>539.2</ele>
        <time>2020-06-20T17:32:48Z</time>
      </trkpt>
      <trkpt lat="43.81231" lon="5.92928">
        <ele>539.2</ele>
        <time>2020-06-20T17:32:49Z</time>
      </trkpt>
      <trkpt lat="43.81228" lon="5.9292">
        <ele>539.2</ele>
        <time>2020-06-20T17:32:51Z</time>
      </trkpt>
      <trkpt lat="43.81226" lon="5.92915">
        <ele>539.2</ele>
        <time>2020-06-20T17:32:52Z</time>
      </trkpt>
      <trkpt lat="43.81222" lon="5.92908">
        <ele>539.2</ele>
        <time>2020-06-20T17:32:53Z</time>
      </trkpt>
      <trkpt lat="43.81219" lon="5.92902">
        <ele>539.2</ele>
        <time>2020-06-20T17:32:55Z</time>
      </trkpt>
      <trkpt lat="43.81217" lon="5.92897">
        <ele>539.3</ele>
        <time>2020-06-20T17:32:56Z</time>
      </trkpt>
      <trkpt lat="43.81214" lon="5.92892">
        <ele>539.3</ele>
        <time>2020-06-20T17:32:57Z</time>
      </trkpt>
      <trkpt lat="43.81211" lon="5.92886">
        <ele>539.3</ele>
        <time>2020-06-20T17:32:58Z</time>
      </trkpt>
      <trkpt lat="43.81208" lon="5.92878">
        <ele>539.3</ele>
        <time>2020-06-20T17:33:00Z</time>
      </trkpt>
      <trkpt lat="43.81206" lon="5.92872">
        <ele>539.3</ele>
        <time>2020-06-20T17:33:01Z</time>
      </trkpt>
      <trkpt lat="43.81204" lon="5.92867">
        <ele>539.3</ele>
        <time>2020-06-20T17:33:02Z</time>
      </trkpt>
      <trkpt lat="43.81202" lon="5.92862">
        <ele>539.3</ele>
        <time>2020-06-20T17:33:03Z</time>
      </trkpt>
      <trkpt lat="43.812" lon="5.92857">
        <ele>539.3</ele>
        <time>2020-06-20T17:33:04Z</time>
      </trkpt>
      <trkpt lat="43.81198" lon="5.92851">
        <ele>539.3</ele>
        <time>2020-06-20T17:33:05Z</time>
      </trkpt>
      <trkpt lat="43.81194" lon="5.92842">
        <ele>539.3</ele>
        <time>2020-06-20T17:33:07Z</time>
      </trkpt>
      <trkpt lat="43.81191" lon="5.92835">
        <ele>539.3</ele>
        <time>2020-06-20T17:33:08Z</time>
      </trkpt>
      <trkpt lat="43.81187" lon="5.92826">
        <ele>539.4</ele>
        <time>2020-06-20T17:33:10Z</time>
      </trkpt>
      <trkpt lat="43.81185" lon="5.92818">
        <ele>539.4</ele>
        <time>2020-06-20T17:33:11Z</time>
      </trkpt>
      <trkpt lat="43.81182" lon="5.92806">
        <ele>539.4</ele>
        <time>2020-06-20T17:33:13Z</time>
      </trkpt>
      <trkpt lat="43.8118" lon="5.92799">
        <ele>539.4</ele>
        <time>2020-06-20T17:33:14Z</time>
      </trkpt>
      <trkpt lat="43.81179" lon="5.92791">
        <ele>539.4</ele>
        <time>2020-06-20T17:33:15Z</time>
      </trkpt>
      <trkpt lat="43.81179" lon="5.92785">
        <ele>539.4</ele>
        <time>2020-06-20T17:33:16Z</time>
      </trkpt>
      <trkpt lat="43.81178" lon="5.9278">
        <ele>539.4</ele>
        <time>2020-06-20T17:33:17Z</time>
      </trkpt>
      <trkpt lat="43.81177" lon="5.92773">
        <ele>539.4</ele>
        <time>2020-06-20T17:33:19Z</time>
      </trkpt>
      <trkpt lat="43.81176" lon="5.92767">
        <ele>539.4</ele>
        <time>2020-06-20T17:33:20Z</time>
      </trkpt>
      <trkpt lat="43.81176" lon="5.92758">
        <ele>539.4</ele>
        <time>2020-06-20T17:33:22Z</time>
      </trkpt>
      <trkpt lat="43.81176" lon="5.92752">
        <ele>539.5</ele>
        <time>2020-06-20T17:33:23Z</time>
      </trkpt>
      <trkpt lat="43.81176" lon="5.92746">
        <ele>539.5</ele>
        <time>2020-06-20T17:33:24Z</time>
      </trkpt>
      <trkpt lat="43.81175" lon="5.92741">
        <ele>539.5</ele>
        <time>2020-06-20T17:33:25Z</time>
      </trkpt>
      <trkpt lat="43.81174" lon="5.92735">
        <ele>539.5</ele>
        <time>2020-06-20T17:33:26Z</time>
      </trkpt>
      <trkpt lat="43.81174" lon="5.9273">
        <ele>539.5</ele>
        <time>2020-06-20T17:33:28Z</time>
      </trkpt>
      <trkpt lat="43.81173" lon="5.92724">
        <ele>539.5</ele>
        <time>2020-06-20T17:33:29Z</time>
      </trkpt>
      <trkpt lat="43.81173" lon="5.92719">
        <ele>539.5</ele>
        <time>2020-06-20T17:33:30Z</time>
      </trkpt>
      <trkpt lat="43.81173" lon="5.92712">
        <ele>539.5</ele>
        <time>2020-06-20T17:33:31Z</time>
      </trkpt>
      <trkpt lat="43.81173" lon="5.92705">
        <ele>539.5</ele>
        <time>2020-06-20T17:33:33Z</time>
      </trkpt>
      <trkpt lat="43.81172" lon="5.92697">
        <ele>539.5</ele>
        <time>2020-06-20T17:33:34Z</time>
      </trkpt>
      <trkpt lat="43.81171" lon="5.92691">
        <ele>539.5</ele>
        <time>2020-06-20T17:33:35Z</time>
      </trkpt>
      <trkpt lat="43.8117" lon="5.92682">
        <ele>539.5</ele>
        <time>2020-06-20T17:33:37Z</time>
      </trkpt>
      <trkpt lat="43.8117" lon="5.92676">
        <ele>539.5</ele>
        <time>2020-06-20T17:33:38Z</time>
      </trkpt>
      <trkpt lat="43.81169" lon="5.92665">
        <ele>539.6</ele>
        <time>2020-06-20T17:33:39Z</time>
      </trkpt>
      <trkpt lat="43.81169" lon="5.92658">
        <ele>539.6</ele>
        <time>2020-06-20T17:33:41Z</time>
      </trkpt>
      <trkpt lat="43.81167" lon="5.92649">
        <ele>539.6</ele>
        <time>2020-06-20T17:33:42Z</time>
      </trkpt>
      <trkpt lat="43.81166" lon="5.9264">
        <ele>539.6</ele>
        <time>2020-06-20T17:33:44Z</time>
      </trkpt>
      <trkpt lat="43.81167" lon="5.92634">
        <ele>539.6</ele>
        <time>2020-06-20T17:33:45Z</time>
      </trkpt>
      <trkpt lat="43.81167" lon="5.92624">
        <ele>539.6</ele>
        <time>2020-06-20T17:33:47Z</time>
      </trkpt>
      <trkpt lat="43.81166" lon="5.92618">
        <ele>539.6</ele>
        <time>2020-06-20T17:33:48Z</time>
      </trkpt>
      <trkpt lat="43.81166" lon="5.92609">
        <ele>539.6</ele>
        <time>2020-06-20T17:33:49Z</time>
      </trkpt>
      <trkpt lat="43.81166" lon="5.92603">
        <ele>539.6</ele>
        <time>2020-06-20T17:33:50Z</time>
      </trkpt>
      <trkpt lat="43.81166" lon="5.92594">
        <ele>539.6</ele>
        <time>2020-06-20T17:33:52Z</time>
      </trkpt>
      <trkpt lat="43.81166" lon="5.92584">
        <ele>539.7</ele>
        <time>2020-06-20T17:33:54Z</time>
      </trkpt>
      <trkpt lat="43.81166" lon="5.92576">
        <ele>539.7</ele>
        <time>2020-06-20T17:33:55Z</time>
      </trkpt>
      <trkpt lat="43.81166" lon="5.92567">
        <ele>539.7</ele>
        <time>2020-06-20T17:33:57Z</time>
      </trkpt>
      <trkpt lat="43.81165" lon="5.92557">
        <ele>539.7</ele>
        <time>2020-06-20T17:33:58Z</time>
      </trkpt>
      <trkpt lat="43.81165" lon="5.9255">
        <ele>539.7</ele>
        <time>2020-06-20T17:33:59Z</time>
      </trkpt>
      <trkpt lat="43.81164" lon="5.92537">
        <ele>539.7</ele>
        <time>2020-06-20T17:34:01Z</time>
      </trkpt>
      <trkpt lat="43.81163" lon="5.92532">
        <ele>539.7</ele>
        <time>2020-06-20T17:34:02Z</time>
      </trkpt>
      <trkpt lat="43.8116" lon="5.92521">
        <ele>539.7</ele>
        <time>2020-06-20T17:34:04Z</time>
      </trkpt>
      <trkpt lat="43.81159" lon="5.92515">
        <ele>539.7</ele>
        <time>2020-06-20T17:34:05Z</time>
      </trkpt>
      <trkpt lat="43.81158" lon="5.92509">
        <ele>539.8</ele>
        <time>2020-06-20T17:34:06Z</time>
      </trkpt>
      <trkpt lat="43.81157" lon="5.92503">
        <ele>539.8</ele>
        <time>2020-06-20T17:34:07Z</time>
      </trkpt>
      <trkpt lat="43.81155" lon="5.92494">
        <ele>539.8</ele>
        <time>2020-06-20T17:34:08Z</time>
      </trkpt>
      <trkpt lat="43.81153" lon="5.92488">
        <ele>539.8</ele>
        <time>2020-06-20T17:34:10Z</time>
      </trkpt>
      <trkpt lat="43.8115" lon="5.92484">
        <ele>539.8</ele>
        <time>2020-06-20T17:34:11Z</time>
      </trkpt>
      <trkpt lat="43.81146" lon="5.92481">
        <ele>539.8</ele>
        <time>2020-06-20T17:34:12Z</time>
      </trkpt>
      <trkpt lat="43.81141" lon="5.92477">
        <ele>539.8</ele>
        <time>2020-06-20T17:34:13Z</time>
      </trkpt>
      <trkpt lat="43.81137" lon="5.92474">
        <ele>539.8</ele>
        <time>2020-06-20T17:34:14Z</time>
      </trkpt>
      <trkpt lat="43.81132" lon="5.92471">
        <ele>539.8</ele>
        <time>2020-06-20T17:34:16Z</time>
      </trkpt>
      <trkpt lat="43.81126" lon="5.92467">
        <ele>539.8</ele>
        <time>2020-06-20T17:34:17Z</time>
      </trkpt>
      <trkpt lat="43.8112" lon="5.92462">
        <ele>539.8</ele>
        <time>2020-06-20T17:34:18Z</time>
      </trkpt>
      <trkpt lat="43.81115" lon="5.92458">
        <ele>539.9</ele>
        <time>2020-06-20T17:34:20Z</time>
      </trkpt>
      <trkpt lat="43.81112" lon="5.92456">
        <ele>539.9</ele>
        <time>2020-06-20T17:34:21Z</time>
      </trkpt>
      <trkpt lat="43.81106" lon="5.92452">
        <ele>539.9</ele>
        <time>2020-06-20T17:34:23Z</time>
      </trkpt>
      <trkpt lat="43.81101" lon="5.92448">
        <ele>539.9</ele>
        <time>2020-06-20T17:34:24Z</time>
      </trkpt>
      <trkpt lat="43.81097" lon="5.92444">
        <ele>539.9</ele>
        <time>2020-06-20T17:34:25Z</time>
      </trkpt>
      <trkpt lat="43.81093" lon="5.92441">
        <ele>539.9</ele>
        <time>2020-06-20T17:34:27Z</time>
      </trkpt>
      <trkpt lat="43.81088" lon="5.92437">
        <ele>539.9</ele>
        <time>2020-06-20T17:34:28Z</time>
      </trkpt>
      <trkpt lat="43.81085" lon="5.92433">
        <ele>539.9</ele>
        <time>2020-06-20T17:34:29Z</time>
      </trkpt>
      <trkpt lat="43.81081" lon="5.92428">
        <ele>539.9</ele>
        <time>2020-06-20T17:34:31Z</time>
      </trkpt>
      <trkpt lat="43.81077" lon="5.92423">
        <ele>539.9</ele>
        <time>2020-06-20T17:34:32Z</time>
      </trkpt>
      <trkpt lat="43.81074" lon="5.92417">
        <ele>540</ele>
        <time>2020-06-20T17:34:33Z</time>
      </trkpt>
      <trkpt lat="43.81071" lon="5.92413">
        <ele>539.9</ele>
        <time>2020-06-20T17:34:34Z</time>
      </trkpt>
      <trkpt lat="43.81068" lon="5.92408">
        <ele>539.9</ele>
        <time>2020-06-20T17:34:35Z</time>
      </trkpt>
      <trkpt lat="43.81065" lon="5.92403">
        <ele>539.9</ele>
        <time>2020-06-20T17:34:36Z</time>
      </trkpt>
      <trkpt lat="43.8106" lon="5.92393">
        <ele>539.9</ele>
        <time>2020-06-20T17:34:38Z</time>
      </trkpt>
      <trkpt lat="43.81055" lon="5.92382">
        <ele>539.9</ele>
        <time>2020-06-20T17:34:40Z</time>
      </trkpt>
      <trkpt lat="43.81051" lon="5.9238">
        <ele>539.9</ele>
        <time>2020-06-20T17:34:41Z</time>
      </trkpt>
      <trkpt lat="43.81049" lon="5.92373">
        <ele>539.9</ele>
        <time>2020-06-20T17:34:43Z</time>
      </trkpt>
      <trkpt lat="43.81046" lon="5.92366">
        <ele>539.9</ele>
        <time>2020-06-20T17:34:44Z</time>
      </trkpt>
      <trkpt lat="43.8104" lon="5.92352">
        <ele>539.9</ele>
        <time>2020-06-20T17:34:46Z</time>
      </trkpt>
      <trkpt lat="43.81035" lon="5.9234">
        <ele>539.9</ele>
        <time>2020-06-20T17:34:48Z</time>
      </trkpt>
      <trkpt lat="43.81032" lon="5.9233">
        <ele>539.8</ele>
        <time>2020-06-20T17:34:50Z</time>
      </trkpt>
      <trkpt lat="43.81029" lon="5.92323">
        <ele>539.8</ele>
        <time>2020-06-20T17:34:51Z</time>
      </trkpt>
      <trkpt lat="43.81025" lon="5.92311">
        <ele>539.8</ele>
        <time>2020-06-20T17:34:53Z</time>
      </trkpt>
      <trkpt lat="43.81023" lon="5.92305">
        <ele>539.8</ele>
        <time>2020-06-20T17:34:54Z</time>
      </trkpt>
      <trkpt lat="43.8102" lon="5.92293">
        <ele>539.8</ele>
        <time>2020-06-20T17:34:56Z</time>
      </trkpt>
      <trkpt lat="43.81018" lon="5.92287">
        <ele>539.8</ele>
        <time>2020-06-20T17:34:57Z</time>
      </trkpt>
      <trkpt lat="43.81019" lon="5.92284">
        <ele>539.8</ele>
        <time>2020-06-20T17:34:58Z</time>
      </trkpt>
      <trkpt lat="43.81017" lon="5.92278">
        <ele>539.8</ele>
        <time>2020-06-20T17:35:00Z</time>
      </trkpt>
      <trkpt lat="43.81012" lon="5.92266">
        <ele>539.8</ele>
        <time>2020-06-20T17:35:01Z</time>
      </trkpt>
      <trkpt lat="43.81007" lon="5.92253">
        <ele>539.8</ele>
        <time>2020-06-20T17:35:03Z</time>
      </trkpt>
      <trkpt lat="43.81004" lon="5.9224">
        <ele>539.7</ele>
        <time>2020-06-20T17:35:05Z</time>
      </trkpt>
      <trkpt lat="43.81002" lon="5.92234">
        <ele>539.7</ele>
        <time>2020-06-20T17:35:06Z</time>
      </trkpt>
      <trkpt lat="43.81001" lon="5.92228">
        <ele>539.7</ele>
        <time>2020-06-20T17:35:07Z</time>
      </trkpt>
      <trkpt lat="43.80997" lon="5.92217">
        <ele>539.7</ele>
        <time>2020-06-20T17:35:09Z</time>
      </trkpt>
      <trkpt lat="43.80995" lon="5.92211">
        <ele>539.7</ele>
        <time>2020-06-20T17:35:10Z</time>
      </trkpt>
      <trkpt lat="43.80991" lon="5.922">
        <ele>539.7</ele>
        <time>2020-06-20T17:35:12Z</time>
      </trkpt>
      <trkpt lat="43.80985" lon="5.92188">
        <ele>539.7</ele>
        <time>2020-06-20T17:35:14Z</time>
      </trkpt>
      <trkpt lat="43.80982" lon="5.92182">
        <ele>539.7</ele>
        <time>2020-06-20T17:35:15Z</time>
      </trkpt>
      <trkpt lat="43.80977" lon="5.9217">
        <ele>539.7</ele>
        <time>2020-06-20T17:35:17Z</time>
      </trkpt>
      <trkpt lat="43.80971" lon="5.92158">
        <ele>539.6</ele>
        <time>2020-06-20T17:35:19Z</time>
      </trkpt>
      <trkpt lat="43.80969" lon="5.92152">
        <ele>539.6</ele>
        <time>2020-06-20T17:35:20Z</time>
      </trkpt>
      <trkpt lat="43.80964" lon="5.9214">
        <ele>539.6</ele>
        <time>2020-06-20T17:35:22Z</time>
      </trkpt>
      <trkpt lat="43.80962" lon="5.92134">
        <ele>539.6</ele>
        <time>2020-06-20T17:35:23Z</time>
      </trkpt>
      <trkpt lat="43.80959" lon="5.92129">
        <ele>539.6</ele>
        <time>2020-06-20T17:35:24Z</time>
      </trkpt>
      <trkpt lat="43.80957" lon="5.92123">
        <ele>539.6</ele>
        <time>2020-06-20T17:35:25Z</time>
      </trkpt>
      <trkpt lat="43.80953" lon="5.92112">
        <ele>539.6</ele>
        <time>2020-06-20T17:35:27Z</time>
      </trkpt>
      <trkpt lat="43.8095" lon="5.92107">
        <ele>539.6</ele>
        <time>2020-06-20T17:35:28Z</time>
      </trkpt>
      <trkpt lat="43.80947" lon="5.92099">
        <ele>539.6</ele>
        <time>2020-06-20T17:35:30Z</time>
      </trkpt>
      <trkpt lat="43.80942" lon="5.92088">
        <ele>539.6</ele>
        <time>2020-06-20T17:35:32Z</time>
      </trkpt>
      <trkpt lat="43.8094" lon="5.92083">
        <ele>539.6</ele>
        <time>2020-06-20T17:35:33Z</time>
      </trkpt>
      <trkpt lat="43.80936" lon="5.92069">
        <ele>539.5</ele>
        <time>2020-06-20T17:35:35Z</time>
      </trkpt>
      <trkpt lat="43.80934" lon="5.92063">
        <ele>539.5</ele>
        <time>2020-06-20T17:35:36Z</time>
      </trkpt>
      <trkpt lat="43.80929" lon="5.92051">
        <ele>539.5</ele>
        <time>2020-06-20T17:35:38Z</time>
      </trkpt>
      <trkpt lat="43.80925" lon="5.92039">
        <ele>539.5</ele>
        <time>2020-06-20T17:35:40Z</time>
      </trkpt>
      <trkpt lat="43.8092" lon="5.92027">
        <ele>539.5</ele>
        <time>2020-06-20T17:35:42Z</time>
      </trkpt>
      <trkpt lat="43.80917" lon="5.92021">
        <ele>539.5</ele>
        <time>2020-06-20T17:35:43Z</time>
      </trkpt>
      <trkpt lat="43.80915" lon="5.92015">
        <ele>539.5</ele>
        <time>2020-06-20T17:35:44Z</time>
      </trkpt>
      <trkpt lat="43.8091" lon="5.92004">
        <ele>539.5</ele>
        <time>2020-06-20T17:35:46Z</time>
      </trkpt>
      <trkpt lat="43.80905" lon="5.91992">
        <ele>539.4</ele>
        <time>2020-06-20T17:35:48Z</time>
      </trkpt>
      <trkpt lat="43.809" lon="5.9198">
        <ele>539.4</ele>
        <time>2020-06-20T17:35:50Z</time>
      </trkpt>
      <trkpt lat="43.80896" lon="5.91968">
        <ele>539.4</ele>
        <time>2020-06-20T17:35:52Z</time>
      </trkpt>
      <trkpt lat="43.80891" lon="5.91957">
        <ele>539.4</ele>
        <time>2020-06-20T17:35:54Z</time>
      </trkpt>
      <trkpt lat="43.80887" lon="5.91945">
        <ele>539.4</ele>
        <time>2020-06-20T17:35:56Z</time>
      </trkpt>
      <trkpt lat="43.80882" lon="5.91933">
        <ele>539.4</ele>
        <time>2020-06-20T17:35:58Z</time>
      </trkpt>
      <trkpt lat="43.8088" lon="5.91928">
        <ele>539.4</ele>
        <time>2020-06-20T17:35:59Z</time>
      </trkpt>
      <trkpt lat="43.80877" lon="5.91922">
        <ele>539.4</ele>
        <time>2020-06-20T17:36:00Z</time>
      </trkpt>
      <trkpt lat="43.80875" lon="5.91917">
        <ele>539.4</ele>
        <time>2020-06-20T17:36:01Z</time>
      </trkpt>
      <trkpt lat="43.80872" lon="5.91908">
        <ele>539.4</ele>
        <time>2020-06-20T17:36:03Z</time>
      </trkpt>
      <trkpt lat="43.8087" lon="5.91901">
        <ele>539.3</ele>
        <time>2020-06-20T17:36:04Z</time>
      </trkpt>
      <trkpt lat="43.80867" lon="5.91895">
        <ele>539.3</ele>
        <time>2020-06-20T17:36:05Z</time>
      </trkpt>
      <trkpt lat="43.80864" lon="5.9189">
        <ele>539.3</ele>
        <time>2020-06-20T17:36:06Z</time>
      </trkpt>
      <trkpt lat="43.8086" lon="5.91885">
        <ele>539.3</ele>
        <time>2020-06-20T17:36:07Z</time>
      </trkpt>
      <trkpt lat="43.80853" lon="5.91877">
        <ele>539.3</ele>
        <time>2020-06-20T17:36:09Z</time>
      </trkpt>
      <trkpt lat="43.80848" lon="5.91874">
        <ele>539.3</ele>
        <time>2020-06-20T17:36:10Z</time>
      </trkpt>
      <trkpt lat="43.80839" lon="5.91868">
        <ele>539.3</ele>
        <time>2020-06-20T17:36:12Z</time>
      </trkpt>
      <trkpt lat="43.80835" lon="5.91866">
        <ele>539.3</ele>
        <time>2020-06-20T17:36:13Z</time>
      </trkpt>
      <trkpt lat="43.8083" lon="5.91864">
        <ele>539.3</ele>
        <time>2020-06-20T17:36:14Z</time>
      </trkpt>
      <trkpt lat="43.80823" lon="5.9186">
        <ele>539.3</ele>
        <time>2020-06-20T17:36:16Z</time>
      </trkpt>
      <trkpt lat="43.80819" lon="5.91859">
        <ele>539.3</ele>
        <time>2020-06-20T17:36:17Z</time>
      </trkpt>
      <trkpt lat="43.80812" lon="5.91854">
        <ele>539.2</ele>
        <time>2020-06-20T17:36:19Z</time>
      </trkpt>
      <trkpt lat="43.80807" lon="5.91851">
        <ele>539.2</ele>
        <time>2020-06-20T17:36:20Z</time>
      </trkpt>
      <trkpt lat="43.80806" lon="5.91847">
        <ele>539.2</ele>
        <time>2020-06-20T17:36:21Z</time>
      </trkpt>
      <trkpt lat="43.80801" lon="5.91843">
        <ele>539.2</ele>
        <time>2020-06-20T17:36:23Z</time>
      </trkpt>
      <trkpt lat="43.80796" lon="5.9184">
        <ele>539.2</ele>
        <time>2020-06-20T17:36:24Z</time>
      </trkpt>
      <trkpt lat="43.80791" lon="5.91837">
        <ele>539.2</ele>
        <time>2020-06-20T17:36:25Z</time>
      </trkpt>
      <trkpt lat="43.80786" lon="5.91832">
        <ele>539.2</ele>
        <time>2020-06-20T17:36:27Z</time>
      </trkpt>
      <trkpt lat="43.80782" lon="5.91828">
        <ele>539.2</ele>
        <time>2020-06-20T17:36:28Z</time>
      </trkpt>
      <trkpt lat="43.80778" lon="5.91823">
        <ele>539.2</ele>
        <time>2020-06-20T17:36:29Z</time>
      </trkpt>
      <trkpt lat="43.80773" lon="5.91818">
        <ele>539.2</ele>
        <time>2020-06-20T17:36:31Z</time>
      </trkpt>
      <trkpt lat="43.8077" lon="5.91815">
        <ele>539.2</ele>
        <time>2020-06-20T17:36:32Z</time>
      </trkpt>
      <trkpt lat="43.80766" lon="5.91813">
        <ele>539.2</ele>
        <time>2020-06-20T17:36:33Z</time>
      </trkpt>
      <trkpt lat="43.80763" lon="5.9181">
        <ele>539.2</ele>
        <time>2020-06-20T17:36:34Z</time>
      </trkpt>
      <trkpt lat="43.80758" lon="5.91807">
        <ele>539.2</ele>
        <time>2020-06-20T17:36:35Z</time>
      </trkpt>
      <trkpt lat="43.80754" lon="5.91804">
        <ele>539.1</ele>
        <time>2020-06-20T17:36:36Z</time>
      </trkpt>
      <trkpt lat="43.80749" lon="5.918">
        <ele>539.1</ele>
        <time>2020-06-20T17:36:38Z</time>
      </trkpt>
      <trkpt lat="43.80745" lon="5.91798">
        <ele>539.1</ele>
        <time>2020-06-20T17:36:39Z</time>
      </trkpt>
      <trkpt lat="43.80741" lon="5.91794">
        <ele>539.1</ele>
        <time>2020-06-20T17:36:41Z</time>
      </trkpt>
      <trkpt lat="43.80738" lon="5.9179">
        <ele>539.1</ele>
        <time>2020-06-20T17:36:42Z</time>
      </trkpt>
      <trkpt lat="43.80735" lon="5.91787">
        <ele>539.1</ele>
        <time>2020-06-20T17:36:43Z</time>
      </trkpt>
      <trkpt lat="43.80731" lon="5.91785">
        <ele>539.1</ele>
        <time>2020-06-20T17:36:44Z</time>
      </trkpt>
      <trkpt lat="43.80727" lon="5.91782">
        <ele>539.1</ele>
        <time>2020-06-20T17:36:46Z</time>
      </trkpt>
      <trkpt lat="43.80723" lon="5.9178">
        <ele>539.1</ele>
        <time>2020-06-20T17:36:47Z</time>
      </trkpt>
      <trkpt lat="43.80717" lon="5.91775">
        <ele>539.1</ele>
        <time>2020-06-20T17:36:49Z</time>
      </trkpt>
      <trkpt lat="43.80712" lon="5.91772">
        <ele>539.1</ele>
        <time>2020-06-20T17:36:50Z</time>
      </trkpt>
      <trkpt lat="43.80707" lon="5.91769">
        <ele>539.2</ele>
        <time>2020-06-20T17:36:52Z</time>
      </trkpt>
      <trkpt lat="43.80703" lon="5.91767">
        <ele>539.2</ele>
        <time>2020-06-20T17:36:53Z</time>
      </trkpt>
      <trkpt lat="43.80698" lon="5.91764">
        <ele>539.2</ele>
        <time>2020-06-20T17:36:55Z</time>
      </trkpt>
      <trkpt lat="43.80694" lon="5.91762">
        <ele>539.3</ele>
        <time>2020-06-20T17:36:56Z</time>
      </trkpt>
      <trkpt lat="43.80689" lon="5.91758">
        <ele>539.3</ele>
        <time>2020-06-20T17:36:58Z</time>
      </trkpt>
      <trkpt lat="43.80686" lon="5.91755">
        <ele>539.3</ele>
        <time>2020-06-20T17:36:59Z</time>
      </trkpt>
      <trkpt lat="43.80679" lon="5.9175">
        <ele>539.4</ele>
        <time>2020-06-20T17:37:01Z</time>
      </trkpt>
      <trkpt lat="43.80676" lon="5.91748">
        <ele>539.4</ele>
        <time>2020-06-20T17:37:02Z</time>
      </trkpt>
      <trkpt lat="43.80673" lon="5.91745">
        <ele>539.4</ele>
        <time>2020-06-20T17:37:04Z</time>
      </trkpt>
      <trkpt lat="43.8067" lon="5.91743">
        <ele>539.4</ele>
        <time>2020-06-20T17:37:05Z</time>
      </trkpt>
      <trkpt lat="43.80668" lon="5.91741">
        <ele>539.5</ele>
        <time>2020-06-20T17:37:06Z</time>
      </trkpt>
      <trkpt lat="43.80665" lon="5.91737">
        <ele>539.5</ele>
        <time>2020-06-20T17:37:07Z</time>
      </trkpt>
      <trkpt lat="43.80662" lon="5.91733">
        <ele>539.5</ele>
        <time>2020-06-20T17:37:09Z</time>
      </trkpt>
      <trkpt lat="43.80658" lon="5.91731">
        <ele>539.5</ele>
        <time>2020-06-20T17:37:11Z</time>
      </trkpt>
      <trkpt lat="43.80653" lon="5.9173">
        <ele>539.5</ele>
        <time>2020-06-20T17:37:12Z</time>
      </trkpt>
      <trkpt lat="43.8065" lon="5.9173">
        <ele>539.5</ele>
        <time>2020-06-20T17:37:13Z</time>
      </trkpt>
      <trkpt lat="43.80646" lon="5.9173">
        <ele>539.4</ele>
        <time>2020-06-20T17:37:15Z</time>
      </trkpt>
      <trkpt lat="43.80643" lon="5.91729">
        <ele>539.4</ele>
        <time>2020-06-20T17:37:16Z</time>
      </trkpt>
      <trkpt lat="43.8064" lon="5.9173">
        <ele>539.3</ele>
        <time>2020-06-20T17:37:17Z</time>
      </trkpt>
      <trkpt lat="43.80636" lon="5.9173">
        <ele>539.2</ele>
        <time>2020-06-20T17:37:18Z</time>
      </trkpt>
      <trkpt lat="43.80632" lon="5.91729">
        <ele>539.1</ele>
        <time>2020-06-20T17:37:20Z</time>
      </trkpt>
      <trkpt lat="43.80626" lon="5.91727">
        <ele>539</ele>
        <time>2020-06-20T17:37:21Z</time>
      </trkpt>
      <trkpt lat="43.80621" lon="5.91726">
        <ele>538.8</ele>
        <time>2020-06-20T17:37:23Z</time>
      </trkpt>
      <trkpt lat="43.80612" lon="5.91722">
        <ele>538.6</ele>
        <time>2020-06-20T17:37:25Z</time>
      </trkpt>
      <trkpt lat="43.80608" lon="5.91719">
        <ele>538.5</ele>
        <time>2020-06-20T17:37:26Z</time>
      </trkpt>
      <trkpt lat="43.80605" lon="5.91715">
        <ele>538.3</ele>
        <time>2020-06-20T17:37:27Z</time>
      </trkpt>
      <trkpt lat="43.80599" lon="5.91707">
        <ele>538</ele>
        <time>2020-06-20T17:37:29Z</time>
      </trkpt>
      <trkpt lat="43.80595" lon="5.91699">
        <ele>537.6</ele>
        <time>2020-06-20T17:37:30Z</time>
      </trkpt>
      <trkpt lat="43.80591" lon="5.91693">
        <ele>537.4</ele>
        <time>2020-06-20T17:37:32Z</time>
      </trkpt>
      <trkpt lat="43.80588" lon="5.91687">
        <ele>537.3</ele>
        <time>2020-06-20T17:37:33Z</time>
      </trkpt>
      <trkpt lat="43.8058" lon="5.91675">
        <ele>536.5</ele>
        <time>2020-06-20T17:37:35Z</time>
      </trkpt>
      <trkpt lat="43.80577" lon="5.9167">
        <ele>536.3</ele>
        <time>2020-06-20T17:37:36Z</time>
      </trkpt>
      <trkpt lat="43.80571" lon="5.91659">
        <ele>536</ele>
        <time>2020-06-20T17:37:38Z</time>
      </trkpt>
      <trkpt lat="43.80565" lon="5.91648">
        <ele>535.7</ele>
        <time>2020-06-20T17:37:40Z</time>
      </trkpt>
      <trkpt lat="43.80559" lon="5.91638">
        <ele>535.5</ele>
        <time>2020-06-20T17:37:42Z</time>
      </trkpt>
      <trkpt lat="43.80556" lon="5.91633">
        <ele>535.4</ele>
        <time>2020-06-20T17:37:43Z</time>
      </trkpt>
      <trkpt lat="43.80553" lon="5.91626">
        <ele>535.2</ele>
        <time>2020-06-20T17:37:45Z</time>
      </trkpt>
      <trkpt lat="43.8055" lon="5.91621">
        <ele>535.1</ele>
        <time>2020-06-20T17:37:46Z</time>
      </trkpt>
      <trkpt lat="43.80546" lon="5.91615">
        <ele>535.1</ele>
        <time>2020-06-20T17:37:47Z</time>
      </trkpt>
      <trkpt lat="43.80541" lon="5.91606">
        <ele>534.9</ele>
        <time>2020-06-20T17:37:49Z</time>
      </trkpt>
      <trkpt lat="43.80536" lon="5.91598">
        <ele>534.9</ele>
        <time>2020-06-20T17:37:50Z</time>
      </trkpt>
      <trkpt lat="43.80533" lon="5.91592">
        <ele>534.8</ele>
        <time>2020-06-20T17:37:51Z</time>
      </trkpt>
      <trkpt lat="43.80529" lon="5.91583">
        <ele>534.7</ele>
        <time>2020-06-20T17:37:53Z</time>
      </trkpt>
      <trkpt lat="43.80523" lon="5.91572">
        <ele>534.5</ele>
        <time>2020-06-20T17:37:55Z</time>
      </trkpt>
      <trkpt lat="43.80517" lon="5.9156">
        <ele>534.1</ele>
        <time>2020-06-20T17:37:57Z</time>
      </trkpt>
      <trkpt lat="43.80514" lon="5.91553">
        <ele>533.9</ele>
        <time>2020-06-20T17:37:59Z</time>
      </trkpt>
      <trkpt lat="43.80511" lon="5.9155">
        <ele>533.9</ele>
        <time>2020-06-20T17:38:00Z</time>
      </trkpt>
      <trkpt lat="43.80509" lon="5.91547">
        <ele>533.9</ele>
        <time>2020-06-20T17:38:01Z</time>
      </trkpt>
      <trkpt lat="43.80502" lon="5.91532">
        <ele>533.9</ele>
        <time>2020-06-20T17:38:03Z</time>
      </trkpt>
      <trkpt lat="43.80499" lon="5.91525">
        <ele>533.9</ele>
        <time>2020-06-20T17:38:04Z</time>
      </trkpt>
      <trkpt lat="43.80495" lon="5.91513">
        <ele>533.9</ele>
        <time>2020-06-20T17:38:06Z</time>
      </trkpt>
      <trkpt lat="43.80489" lon="5.91501">
        <ele>533.9</ele>
        <time>2020-06-20T17:38:08Z</time>
      </trkpt>
      <trkpt lat="43.80486" lon="5.91495">
        <ele>533.9</ele>
        <time>2020-06-20T17:38:09Z</time>
      </trkpt>
      <trkpt lat="43.80481" lon="5.91488">
        <ele>533.9</ele>
        <time>2020-06-20T17:38:11Z</time>
      </trkpt>
      <trkpt lat="43.80481" lon="5.9148">
        <ele>533.9</ele>
        <time>2020-06-20T17:38:13Z</time>
      </trkpt>
      <trkpt lat="43.80477" lon="5.91473">
        <ele>533.9</ele>
        <time>2020-06-20T17:38:14Z</time>
      </trkpt>
      <trkpt lat="43.80473" lon="5.91468">
        <ele>533.9</ele>
        <time>2020-06-20T17:38:15Z</time>
      </trkpt>
      <trkpt lat="43.8047" lon="5.91462">
        <ele>533.8</ele>
        <time>2020-06-20T17:38:16Z</time>
      </trkpt>
      <trkpt lat="43.80467" lon="5.91454">
        <ele>533.7</ele>
        <time>2020-06-20T17:38:18Z</time>
      </trkpt>
      <trkpt lat="43.80464" lon="5.91448">
        <ele>533.6</ele>
        <time>2020-06-20T17:38:19Z</time>
      </trkpt>
      <trkpt lat="43.8046" lon="5.91442">
        <ele>533.5</ele>
        <time>2020-06-20T17:38:20Z</time>
      </trkpt>
      <trkpt lat="43.80458" lon="5.91437">
        <ele>533.4</ele>
        <time>2020-06-20T17:38:21Z</time>
      </trkpt>
      <trkpt lat="43.80455" lon="5.91432">
        <ele>533.5</ele>
        <time>2020-06-20T17:38:22Z</time>
      </trkpt>
      <trkpt lat="43.80452" lon="5.91426">
        <ele>533.5</ele>
        <time>2020-06-20T17:38:24Z</time>
      </trkpt>
      <trkpt lat="43.80448" lon="5.91416">
        <ele>533.6</ele>
        <time>2020-06-20T17:38:26Z</time>
      </trkpt>
      <trkpt lat="43.80445" lon="5.91411">
        <ele>533.6</ele>
        <time>2020-06-20T17:38:27Z</time>
      </trkpt>
      <trkpt lat="43.80443" lon="5.91406">
        <ele>533.5</ele>
        <time>2020-06-20T17:38:28Z</time>
      </trkpt>
      <trkpt lat="43.80438" lon="5.91398">
        <ele>533.5</ele>
        <time>2020-06-20T17:38:30Z</time>
      </trkpt>
      <trkpt lat="43.80434" lon="5.91391">
        <ele>533.5</ele>
        <time>2020-06-20T17:38:31Z</time>
      </trkpt>
      <trkpt lat="43.80432" lon="5.91386">
        <ele>533.6</ele>
        <time>2020-06-20T17:38:32Z</time>
      </trkpt>
      <trkpt lat="43.8043" lon="5.91383">
        <ele>533.6</ele>
        <time>2020-06-20T17:38:33Z</time>
      </trkpt>
      <trkpt lat="43.80426" lon="5.91377">
        <ele>533.8</ele>
        <time>2020-06-20T17:38:35Z</time>
      </trkpt>
      <trkpt lat="43.80422" lon="5.91368">
        <ele>533.9</ele>
        <time>2020-06-20T17:38:36Z</time>
      </trkpt>
      <trkpt lat="43.80419" lon="5.91362">
        <ele>533.9</ele>
        <time>2020-06-20T17:38:37Z</time>
      </trkpt>
      <trkpt lat="43.80413" lon="5.9135">
        <ele>533.9</ele>
        <time>2020-06-20T17:38:39Z</time>
      </trkpt>
      <trkpt lat="43.8041" lon="5.91345">
        <ele>533.8</ele>
        <time>2020-06-20T17:38:40Z</time>
      </trkpt>
      <trkpt lat="43.80405" lon="5.91336">
        <ele>533.6</ele>
        <time>2020-06-20T17:38:42Z</time>
      </trkpt>
      <trkpt lat="43.80399" lon="5.91324">
        <ele>533.2</ele>
        <time>2020-06-20T17:38:44Z</time>
      </trkpt>
      <trkpt lat="43.80393" lon="5.91314">
        <ele>532.9</ele>
        <time>2020-06-20T17:38:46Z</time>
      </trkpt>
      <trkpt lat="43.80393" lon="5.91307">
        <ele>532.7</ele>
        <time>2020-06-20T17:38:47Z</time>
      </trkpt>
      <trkpt lat="43.80391" lon="5.91303">
        <ele>532.6</ele>
        <time>2020-06-20T17:38:48Z</time>
      </trkpt>
      <trkpt lat="43.80385" lon="5.91293">
        <ele>532.3</ele>
        <time>2020-06-20T17:38:50Z</time>
      </trkpt>
      <trkpt lat="43.80383" lon="5.91289">
        <ele>532.1</ele>
        <time>2020-06-20T17:38:51Z</time>
      </trkpt>
      <trkpt lat="43.8038" lon="5.91285">
        <ele>531.9</ele>
        <time>2020-06-20T17:38:52Z</time>
      </trkpt>
      <trkpt lat="43.80377" lon="5.91279">
        <ele>531.7</ele>
        <time>2020-06-20T17:38:53Z</time>
      </trkpt>
      <trkpt lat="43.80372" lon="5.91268">
        <ele>531.1</ele>
        <time>2020-06-20T17:38:55Z</time>
      </trkpt>
      <trkpt lat="43.80369" lon="5.9126">
        <ele>530.7</ele>
        <time>2020-06-20T17:38:57Z</time>
      </trkpt>
      <trkpt lat="43.80367" lon="5.91255">
        <ele>530.5</ele>
        <time>2020-06-20T17:38:58Z</time>
      </trkpt>
      <trkpt lat="43.80363" lon="5.91247">
        <ele>530.3</ele>
        <time>2020-06-20T17:38:59Z</time>
      </trkpt>
      <trkpt lat="43.80356" lon="5.91235">
        <ele>530.2</ele>
        <time>2020-06-20T17:39:01Z</time>
      </trkpt>
      <trkpt lat="43.80352" lon="5.91225">
        <ele>530.2</ele>
        <time>2020-06-20T17:39:03Z</time>
      </trkpt>
      <trkpt lat="43.80348" lon="5.91218">
        <ele>530.2</ele>
        <time>2020-06-20T17:39:04Z</time>
      </trkpt>
      <trkpt lat="43.80345" lon="5.91212">
        <ele>530.2</ele>
        <time>2020-06-20T17:39:05Z</time>
      </trkpt>
      <trkpt lat="43.80341" lon="5.91207">
        <ele>530.2</ele>
        <time>2020-06-20T17:39:06Z</time>
      </trkpt>
      <trkpt lat="43.80337" lon="5.91201">
        <ele>530.2</ele>
        <time>2020-06-20T17:39:07Z</time>
      </trkpt>
      <trkpt lat="43.8033" lon="5.91189">
        <ele>530.3</ele>
        <time>2020-06-20T17:39:09Z</time>
      </trkpt>
      <trkpt lat="43.80323" lon="5.91178">
        <ele>530.2</ele>
        <time>2020-06-20T17:39:11Z</time>
      </trkpt>
      <trkpt lat="43.80316" lon="5.91166">
        <ele>530.1</ele>
        <time>2020-06-20T17:39:13Z</time>
      </trkpt>
      <trkpt lat="43.8031" lon="5.91154">
        <ele>530</ele>
        <time>2020-06-20T17:39:15Z</time>
      </trkpt>
      <trkpt lat="43.80303" lon="5.91143">
        <ele>529.9</ele>
        <time>2020-06-20T17:39:17Z</time>
      </trkpt>
      <trkpt lat="43.80299" lon="5.91138">
        <ele>529.8</ele>
        <time>2020-06-20T17:39:18Z</time>
      </trkpt>
      <trkpt lat="43.80292" lon="5.91128">
        <ele>529.8</ele>
        <time>2020-06-20T17:39:20Z</time>
      </trkpt>
      <trkpt lat="43.80284" lon="5.91118">
        <ele>529.5</ele>
        <time>2020-06-20T17:39:22Z</time>
      </trkpt>
      <trkpt lat="43.80277" lon="5.91109">
        <ele>529.2</ele>
        <time>2020-06-20T17:39:24Z</time>
      </trkpt>
      <trkpt lat="43.80269" lon="5.911">
        <ele>528.7</ele>
        <time>2020-06-20T17:39:26Z</time>
      </trkpt>
      <trkpt lat="43.80261" lon="5.91091">
        <ele>528.3</ele>
        <time>2020-06-20T17:39:28Z</time>
      </trkpt>
      <trkpt lat="43.80257" lon="5.91087">
        <ele>528.2</ele>
        <time>2020-06-20T17:39:29Z</time>
      </trkpt>
      <trkpt lat="43.80249" lon="5.91078">
        <ele>528</ele>
        <time>2020-06-20T17:39:31Z</time>
      </trkpt>
      <trkpt lat="43.80241" lon="5.91069">
        <ele>527.8</ele>
        <time>2020-06-20T17:39:33Z</time>
      </trkpt>
      <trkpt lat="43.80232" lon="5.91061">
        <ele>527.5</ele>
        <time>2020-06-20T17:39:35Z</time>
      </trkpt>
      <trkpt lat="43.80228" lon="5.91057">
        <ele>527.4</ele>
        <time>2020-06-20T17:39:36Z</time>
      </trkpt>
      <trkpt lat="43.80224" lon="5.91053">
        <ele>527.3</ele>
        <time>2020-06-20T17:39:37Z</time>
      </trkpt>
      <trkpt lat="43.80215" lon="5.91046">
        <ele>527</ele>
        <time>2020-06-20T17:39:39Z</time>
      </trkpt>
      <trkpt lat="43.8021" lon="5.91042">
        <ele>526.9</ele>
        <time>2020-06-20T17:39:40Z</time>
      </trkpt>
      <trkpt lat="43.80202" lon="5.91034">
        <ele>526.7</ele>
        <time>2020-06-20T17:39:42Z</time>
      </trkpt>
      <trkpt lat="43.80197" lon="5.9103">
        <ele>526.7</ele>
        <time>2020-06-20T17:39:43Z</time>
      </trkpt>
      <trkpt lat="43.80189" lon="5.91023">
        <ele>526.7</ele>
        <time>2020-06-20T17:39:45Z</time>
      </trkpt>
      <trkpt lat="43.8018" lon="5.91016">
        <ele>526.7</ele>
        <time>2020-06-20T17:39:47Z</time>
      </trkpt>
      <trkpt lat="43.80176" lon="5.91013">
        <ele>526.7</ele>
        <time>2020-06-20T17:39:48Z</time>
      </trkpt>
      <trkpt lat="43.80172" lon="5.91009">
        <ele>526.8</ele>
        <time>2020-06-20T17:39:49Z</time>
      </trkpt>
      <trkpt lat="43.80164" lon="5.91002">
        <ele>526.8</ele>
        <time>2020-06-20T17:39:51Z</time>
      </trkpt>
      <trkpt lat="43.8016" lon="5.90998">
        <ele>526.9</ele>
        <time>2020-06-20T17:39:52Z</time>
      </trkpt>
      <trkpt lat="43.80153" lon="5.90989">
        <ele>527.1</ele>
        <time>2020-06-20T17:39:54Z</time>
      </trkpt>
      <trkpt lat="43.80149" lon="5.90985">
        <ele>527.2</ele>
        <time>2020-06-20T17:39:55Z</time>
      </trkpt>
      <trkpt lat="43.80143" lon="5.90976">
        <ele>527.4</ele>
        <time>2020-06-20T17:39:57Z</time>
      </trkpt>
      <trkpt lat="43.80139" lon="5.90972">
        <ele>527.5</ele>
        <time>2020-06-20T17:39:58Z</time>
      </trkpt>
      <trkpt lat="43.80135" lon="5.90964">
        <ele>527.6</ele>
        <time>2020-06-20T17:40:00Z</time>
      </trkpt>
      <trkpt lat="43.80133" lon="5.9096">
        <ele>527.6</ele>
        <time>2020-06-20T17:40:01Z</time>
      </trkpt>
      <trkpt lat="43.80129" lon="5.9095">
        <ele>527.6</ele>
        <time>2020-06-20T17:40:03Z</time>
      </trkpt>
      <trkpt lat="43.80126" lon="5.90938">
        <ele>527.6</ele>
        <time>2020-06-20T17:40:04Z</time>
      </trkpt>
      <trkpt lat="43.80129" lon="5.90937">
        <ele>527.6</ele>
        <time>2020-06-20T17:40:05Z</time>
      </trkpt>
      <trkpt lat="43.80126" lon="5.90932">
        <ele>527.6</ele>
        <time>2020-06-20T17:40:07Z</time>
      </trkpt>
      <trkpt lat="43.80123" lon="5.90925">
        <ele>527.6</ele>
        <time>2020-06-20T17:40:08Z</time>
      </trkpt>
      <trkpt lat="43.80119" lon="5.90918">
        <ele>527.6</ele>
        <time>2020-06-20T17:40:09Z</time>
      </trkpt>
      <trkpt lat="43.80116" lon="5.90911">
        <ele>527.7</ele>
        <time>2020-06-20T17:40:10Z</time>
      </trkpt>
      <trkpt lat="43.80113" lon="5.90906">
        <ele>527.8</ele>
        <time>2020-06-20T17:40:12Z</time>
      </trkpt>
      <trkpt lat="43.80112" lon="5.90901">
        <ele>527.9</ele>
        <time>2020-06-20T17:40:13Z</time>
      </trkpt>
      <trkpt lat="43.8011" lon="5.90895">
        <ele>528</ele>
        <time>2020-06-20T17:40:14Z</time>
      </trkpt>
      <trkpt lat="43.80107" lon="5.90888">
        <ele>528.1</ele>
        <time>2020-06-20T17:40:15Z</time>
      </trkpt>
      <trkpt lat="43.80105" lon="5.90884">
        <ele>528.1</ele>
        <time>2020-06-20T17:40:17Z</time>
      </trkpt>
      <trkpt lat="43.80104" lon="5.90879">
        <ele>528.1</ele>
        <time>2020-06-20T17:40:18Z</time>
      </trkpt>
      <trkpt lat="43.80102" lon="5.90875">
        <ele>528.1</ele>
        <time>2020-06-20T17:40:19Z</time>
      </trkpt>
      <trkpt lat="43.80099" lon="5.90869">
        <ele>528.1</ele>
        <time>2020-06-20T17:40:20Z</time>
      </trkpt>
      <trkpt lat="43.80096" lon="5.90862">
        <ele>528.1</ele>
        <time>2020-06-20T17:40:22Z</time>
      </trkpt>
      <trkpt lat="43.80093" lon="5.90854">
        <ele>528.1</ele>
        <time>2020-06-20T17:40:23Z</time>
      </trkpt>
      <trkpt lat="43.80091" lon="5.90849">
        <ele>528</ele>
        <time>2020-06-20T17:40:25Z</time>
      </trkpt>
      <trkpt lat="43.80088" lon="5.90844">
        <ele>527.9</ele>
        <time>2020-06-20T17:40:26Z</time>
      </trkpt>
      <trkpt lat="43.80086" lon="5.90839">
        <ele>527.8</ele>
        <time>2020-06-20T17:40:27Z</time>
      </trkpt>
      <trkpt lat="43.80084" lon="5.90835">
        <ele>527.8</ele>
        <time>2020-06-20T17:40:28Z</time>
      </trkpt>
      <trkpt lat="43.80082" lon="5.90829">
        <ele>527.8</ele>
        <time>2020-06-20T17:40:29Z</time>
      </trkpt>
      <trkpt lat="43.80079" lon="5.90823">
        <ele>527.8</ele>
        <time>2020-06-20T17:40:31Z</time>
      </trkpt>
      <trkpt lat="43.80077" lon="5.90816">
        <ele>527.8</ele>
        <time>2020-06-20T17:40:32Z</time>
      </trkpt>
      <trkpt lat="43.80074" lon="5.9081">
        <ele>527.8</ele>
        <time>2020-06-20T17:40:33Z</time>
      </trkpt>
      <trkpt lat="43.80071" lon="5.90804">
        <ele>527.8</ele>
        <time>2020-06-20T17:40:35Z</time>
      </trkpt>
      <trkpt lat="43.80069" lon="5.908">
        <ele>527.9</ele>
        <time>2020-06-20T17:40:36Z</time>
      </trkpt>
      <trkpt lat="43.80067" lon="5.90795">
        <ele>527.9</ele>
        <time>2020-06-20T17:40:37Z</time>
      </trkpt>
      <trkpt lat="43.80065" lon="5.90789">
        <ele>527.9</ele>
        <time>2020-06-20T17:40:39Z</time>
      </trkpt>
      <trkpt lat="43.80062" lon="5.90785">
        <ele>528</ele>
        <time>2020-06-20T17:40:40Z</time>
      </trkpt>
      <trkpt lat="43.8006" lon="5.90781">
        <ele>528</ele>
        <time>2020-06-20T17:40:41Z</time>
      </trkpt>
      <trkpt lat="43.80056" lon="5.90775">
        <ele>528.1</ele>
        <time>2020-06-20T17:40:42Z</time>
      </trkpt>
      <trkpt lat="43.80051" lon="5.90768">
        <ele>528.4</ele>
        <time>2020-06-20T17:40:44Z</time>
      </trkpt>
      <trkpt lat="43.80049" lon="5.90763">
        <ele>528.5</ele>
        <time>2020-06-20T17:40:45Z</time>
      </trkpt>
      <trkpt lat="43.80045" lon="5.90759">
        <ele>528.6</ele>
        <time>2020-06-20T17:40:47Z</time>
      </trkpt>
      <trkpt lat="43.80042" lon="5.90754">
        <ele>528.7</ele>
        <time>2020-06-20T17:40:48Z</time>
      </trkpt>
      <trkpt lat="43.80038" lon="5.90748">
        <ele>528.7</ele>
        <time>2020-06-20T17:40:49Z</time>
      </trkpt>
      <trkpt lat="43.80035" lon="5.90743">
        <ele>528.7</ele>
        <time>2020-06-20T17:40:51Z</time>
      </trkpt>
      <trkpt lat="43.80033" lon="5.90739">
        <ele>528.7</ele>
        <time>2020-06-20T17:40:52Z</time>
      </trkpt>
      <trkpt lat="43.80031" lon="5.90736">
        <ele>528.6</ele>
        <time>2020-06-20T17:40:53Z</time>
      </trkpt>
      <trkpt lat="43.80027" lon="5.90729">
        <ele>528.4</ele>
        <time>2020-06-20T17:40:55Z</time>
      </trkpt>
      <trkpt lat="43.80024" lon="5.90724">
        <ele>528.1</ele>
        <time>2020-06-20T17:40:56Z</time>
      </trkpt>
      <trkpt lat="43.80021" lon="5.90719">
        <ele>527.8</ele>
        <time>2020-06-20T17:40:57Z</time>
      </trkpt>
      <trkpt lat="43.80018" lon="5.90711">
        <ele>527.4</ele>
        <time>2020-06-20T17:40:58Z</time>
      </trkpt>
      <trkpt lat="43.80016" lon="5.90706">
        <ele>527.1</ele>
        <time>2020-06-20T17:41:00Z</time>
      </trkpt>
      <trkpt lat="43.80014" lon="5.90701">
        <ele>526.9</ele>
        <time>2020-06-20T17:41:01Z</time>
      </trkpt>
      <trkpt lat="43.80011" lon="5.90697">
        <ele>526.6</ele>
        <time>2020-06-20T17:41:02Z</time>
      </trkpt>
      <trkpt lat="43.80009" lon="5.90693">
        <ele>526.4</ele>
        <time>2020-06-20T17:41:03Z</time>
      </trkpt>
      <trkpt lat="43.80006" lon="5.90686">
        <ele>526.1</ele>
        <time>2020-06-20T17:41:04Z</time>
      </trkpt>
      <trkpt lat="43.80002" lon="5.90679">
        <ele>525.8</ele>
        <time>2020-06-20T17:41:06Z</time>
      </trkpt>
      <trkpt lat="43.79998" lon="5.90671">
        <ele>525.5</ele>
        <time>2020-06-20T17:41:08Z</time>
      </trkpt>
      <trkpt lat="43.79995" lon="5.90665">
        <ele>525.3</ele>
        <time>2020-06-20T17:41:09Z</time>
      </trkpt>
      <trkpt lat="43.79992" lon="5.90658">
        <ele>525.1</ele>
        <time>2020-06-20T17:41:10Z</time>
      </trkpt>
      <trkpt lat="43.79989" lon="5.90654">
        <ele>524.9</ele>
        <time>2020-06-20T17:41:11Z</time>
      </trkpt>
      <trkpt lat="43.79986" lon="5.90648">
        <ele>524.6</ele>
        <time>2020-06-20T17:41:13Z</time>
      </trkpt>
      <trkpt lat="43.79984" lon="5.90644">
        <ele>524.4</ele>
        <time>2020-06-20T17:41:14Z</time>
      </trkpt>
      <trkpt lat="43.7998" lon="5.90638">
        <ele>524.2</ele>
        <time>2020-06-20T17:41:15Z</time>
      </trkpt>
      <trkpt lat="43.79975" lon="5.90628">
        <ele>524.1</ele>
        <time>2020-06-20T17:41:17Z</time>
      </trkpt>
      <trkpt lat="43.79972" lon="5.90622">
        <ele>524.1</ele>
        <time>2020-06-20T17:41:18Z</time>
      </trkpt>
      <trkpt lat="43.79965" lon="5.90611">
        <ele>524</ele>
        <time>2020-06-20T17:41:20Z</time>
      </trkpt>
      <trkpt lat="43.79961" lon="5.90605">
        <ele>524</ele>
        <time>2020-06-20T17:41:21Z</time>
      </trkpt>
      <trkpt lat="43.79953" lon="5.90594">
        <ele>524</ele>
        <time>2020-06-20T17:41:23Z</time>
      </trkpt>
      <trkpt lat="43.79949" lon="5.90588">
        <ele>524.1</ele>
        <time>2020-06-20T17:41:24Z</time>
      </trkpt>
      <trkpt lat="43.79944" lon="5.90583">
        <ele>524.3</ele>
        <time>2020-06-20T17:41:25Z</time>
      </trkpt>
      <trkpt lat="43.79935" lon="5.90571">
        <ele>524.5</ele>
        <time>2020-06-20T17:41:27Z</time>
      </trkpt>
      <trkpt lat="43.79931" lon="5.90566">
        <ele>524.7</ele>
        <time>2020-06-20T17:41:28Z</time>
      </trkpt>
      <trkpt lat="43.79923" lon="5.90556">
        <ele>524.9</ele>
        <time>2020-06-20T17:41:30Z</time>
      </trkpt>
      <trkpt lat="43.79915" lon="5.90546">
        <ele>525.1</ele>
        <time>2020-06-20T17:41:32Z</time>
      </trkpt>
      <trkpt lat="43.79912" lon="5.90541">
        <ele>525.1</ele>
        <time>2020-06-20T17:41:33Z</time>
      </trkpt>
      <trkpt lat="43.79909" lon="5.90536">
        <ele>525.2</ele>
        <time>2020-06-20T17:41:34Z</time>
      </trkpt>
      <trkpt lat="43.79905" lon="5.90526">
        <ele>525.1</ele>
        <time>2020-06-20T17:41:36Z</time>
      </trkpt>
      <trkpt lat="43.79901" lon="5.90513">
        <ele>524.7</ele>
        <time>2020-06-20T17:41:38Z</time>
      </trkpt>
      <trkpt lat="43.79899" lon="5.90508">
        <ele>524.4</ele>
        <time>2020-06-20T17:41:39Z</time>
      </trkpt>
      <trkpt lat="43.79896" lon="5.90503">
        <ele>524.4</ele>
        <time>2020-06-20T17:41:40Z</time>
      </trkpt>
      <trkpt lat="43.79894" lon="5.90499">
        <ele>524.4</ele>
        <time>2020-06-20T17:41:42Z</time>
      </trkpt>
      <trkpt lat="43.7989" lon="5.90496">
        <ele>524.3</ele>
        <time>2020-06-20T17:41:43Z</time>
      </trkpt>
      <trkpt lat="43.79886" lon="5.90491">
        <ele>524.2</ele>
        <time>2020-06-20T17:41:44Z</time>
      </trkpt>
      <trkpt lat="43.79882" lon="5.90486">
        <ele>524.2</ele>
        <time>2020-06-20T17:41:46Z</time>
      </trkpt>
      <trkpt lat="43.79879" lon="5.90482">
        <ele>524.2</ele>
        <time>2020-06-20T17:41:47Z</time>
      </trkpt>
      <trkpt lat="43.79875" lon="5.90476">
        <ele>524.2</ele>
        <time>2020-06-20T17:41:48Z</time>
      </trkpt>
      <trkpt lat="43.79873" lon="5.90473">
        <ele>524.2</ele>
        <time>2020-06-20T17:41:50Z</time>
      </trkpt>
      <trkpt lat="43.7987" lon="5.90467">
        <ele>524.1</ele>
        <time>2020-06-20T17:41:51Z</time>
      </trkpt>
      <trkpt lat="43.79867" lon="5.90463">
        <ele>524.1</ele>
        <time>2020-06-20T17:41:52Z</time>
      </trkpt>
      <trkpt lat="43.79863" lon="5.90457">
        <ele>524.1</ele>
        <time>2020-06-20T17:41:54Z</time>
      </trkpt>
      <trkpt lat="43.79859" lon="5.90453">
        <ele>524</ele>
        <time>2020-06-20T17:41:55Z</time>
      </trkpt>
      <trkpt lat="43.79854" lon="5.90448">
        <ele>523.9</ele>
        <time>2020-06-20T17:41:56Z</time>
      </trkpt>
      <trkpt lat="43.7985" lon="5.90443">
        <ele>523.8</ele>
        <time>2020-06-20T17:41:58Z</time>
      </trkpt>
      <trkpt lat="43.79843" lon="5.90438">
        <ele>524.1</ele>
        <time>2020-06-20T17:41:59Z</time>
      </trkpt>
      <trkpt lat="43.79839" lon="5.90435">
        <ele>524.1</ele>
        <time>2020-06-20T17:42:00Z</time>
      </trkpt>
      <trkpt lat="43.79834" lon="5.9043">
        <ele>524.3</ele>
        <time>2020-06-20T17:42:02Z</time>
      </trkpt>
      <trkpt lat="43.79832" lon="5.90425">
        <ele>524.4</ele>
        <time>2020-06-20T17:42:03Z</time>
      </trkpt>
      <trkpt lat="43.7983" lon="5.90418">
        <ele>524.5</ele>
        <time>2020-06-20T17:42:05Z</time>
      </trkpt>
      <trkpt lat="43.79831" lon="5.90412">
        <ele>524.5</ele>
        <time>2020-06-20T17:42:06Z</time>
      </trkpt>
      <trkpt lat="43.79834" lon="5.90408">
        <ele>524.6</ele>
        <time>2020-06-20T17:42:07Z</time>
      </trkpt>
      <trkpt lat="43.79836" lon="5.90408">
        <ele>524.7</ele>
        <time>2020-06-20T17:42:08Z</time>
      </trkpt>
      <trkpt lat="43.79838" lon="5.90411">
        <ele>524.7</ele>
        <time>2020-06-20T17:42:10Z</time>
      </trkpt>
      <trkpt lat="43.7984" lon="5.90415">
        <ele>524.8</ele>
        <time>2020-06-20T17:42:11Z</time>
      </trkpt>
      <trkpt lat="43.79841" lon="5.90417">
        <ele>524.8</ele>
        <time>2020-06-20T17:42:12Z</time>
      </trkpt>
      <trkpt lat="43.79839" lon="5.9042">
        <ele>524.9</ele>
        <time>2020-06-20T17:42:14Z</time>
      </trkpt>
      <trkpt lat="43.79838" lon="5.9042">
        <ele>524.9</ele>
        <time>2020-06-20T17:42:15Z</time>
      </trkpt>
      <trkpt lat="43.79834" lon="5.90418">
        <ele>525</ele>
        <time>2020-06-20T17:42:16Z</time>
      </trkpt>
      <trkpt lat="43.79831" lon="5.90418">
        <ele>525</ele>
        <time>2020-06-20T17:42:17Z</time>
      </trkpt>
      <trkpt lat="43.79828" lon="5.90418">
        <ele>525.1</ele>
        <time>2020-06-20T17:42:19Z</time>
      </trkpt>
      <trkpt lat="43.79824" lon="5.90419">
        <ele>525.2</ele>
        <time>2020-06-20T17:42:20Z</time>
      </trkpt>
      <trkpt lat="43.79817" lon="5.90419">
        <ele>524.8</ele>
        <time>2020-06-20T17:42:21Z</time>
      </trkpt>
      <trkpt lat="43.79812" lon="5.90418">
        <ele>524.6</ele>
        <time>2020-06-20T17:42:23Z</time>
      </trkpt>
      <trkpt lat="43.79805" lon="5.90415">
        <ele>524.1</ele>
        <time>2020-06-20T17:42:25Z</time>
      </trkpt>
      <trkpt lat="43.79796" lon="5.90414">
        <ele>523.5</ele>
        <time>2020-06-20T17:42:27Z</time>
      </trkpt>
      <trkpt lat="43.79784" lon="5.90412">
        <ele>522.6</ele>
        <time>2020-06-20T17:42:29Z</time>
      </trkpt>
      <trkpt lat="43.79773" lon="5.90412">
        <ele>521.8</ele>
        <time>2020-06-20T17:42:31Z</time>
      </trkpt>
      <trkpt lat="43.79761" lon="5.9041">
        <ele>520.9</ele>
        <time>2020-06-20T17:42:33Z</time>
      </trkpt>
      <trkpt lat="43.79749" lon="5.90405">
        <ele>520</ele>
        <time>2020-06-20T17:42:35Z</time>
      </trkpt>
      <trkpt lat="43.79738" lon="5.90399">
        <ele>519.2</ele>
        <time>2020-06-20T17:42:37Z</time>
      </trkpt>
      <trkpt lat="43.79732" lon="5.90397">
        <ele>518.8</ele>
        <time>2020-06-20T17:42:38Z</time>
      </trkpt>
      <trkpt lat="43.79726" lon="5.90395">
        <ele>518.4</ele>
        <time>2020-06-20T17:42:39Z</time>
      </trkpt>
      <trkpt lat="43.79715" lon="5.90391">
        <ele>517.5</ele>
        <time>2020-06-20T17:42:41Z</time>
      </trkpt>
      <trkpt lat="43.79704" lon="5.90387">
        <ele>516.5</ele>
        <time>2020-06-20T17:42:43Z</time>
      </trkpt>
      <trkpt lat="43.79692" lon="5.90384">
        <ele>515.6</ele>
        <time>2020-06-20T17:42:45Z</time>
      </trkpt>
      <trkpt lat="43.79686" lon="5.90382">
        <ele>515.1</ele>
        <time>2020-06-20T17:42:46Z</time>
      </trkpt>
      <trkpt lat="43.79673" lon="5.90378">
        <ele>514.4</ele>
        <time>2020-06-20T17:42:48Z</time>
      </trkpt>
      <trkpt lat="43.79661" lon="5.90375">
        <ele>513.9</ele>
        <time>2020-06-20T17:42:50Z</time>
      </trkpt>
      <trkpt lat="43.79655" lon="5.90373">
        <ele>513.6</ele>
        <time>2020-06-20T17:42:51Z</time>
      </trkpt>
      <trkpt lat="43.79645" lon="5.90366">
        <ele>513.4</ele>
        <time>2020-06-20T17:42:53Z</time>
      </trkpt>
      <trkpt lat="43.79641" lon="5.90361">
        <ele>513.5</ele>
        <time>2020-06-20T17:42:54Z</time>
      </trkpt>
      <trkpt lat="43.79637" lon="5.90356">
        <ele>513.8</ele>
        <time>2020-06-20T17:42:55Z</time>
      </trkpt>
      <trkpt lat="43.79629" lon="5.90344">
        <ele>514.5</ele>
        <time>2020-06-20T17:42:57Z</time>
      </trkpt>
      <trkpt lat="43.79626" lon="5.90339">
        <ele>514.8</ele>
        <time>2020-06-20T17:42:58Z</time>
      </trkpt>
      <trkpt lat="43.79622" lon="5.90334">
        <ele>515.1</ele>
        <time>2020-06-20T17:42:59Z</time>
      </trkpt>
      <trkpt lat="43.79617" lon="5.90327">
        <ele>515.6</ele>
        <time>2020-06-20T17:43:01Z</time>
      </trkpt>
      <trkpt lat="43.79614" lon="5.90324">
        <ele>515.9</ele>
        <time>2020-06-20T17:43:02Z</time>
      </trkpt>
      <trkpt lat="43.79611" lon="5.90321">
        <ele>516.1</ele>
        <time>2020-06-20T17:43:03Z</time>
      </trkpt>
      <trkpt lat="43.79609" lon="5.90319">
        <ele>516.3</ele>
        <time>2020-06-20T17:43:04Z</time>
      </trkpt>
      <trkpt lat="43.79603" lon="5.90314">
        <ele>516.8</ele>
        <time>2020-06-20T17:43:06Z</time>
      </trkpt>
      <trkpt lat="43.79605" lon="5.90315">
        <ele>516.9</ele>
        <time>2020-06-20T17:43:07Z</time>
      </trkpt>
      <trkpt lat="43.79601" lon="5.90312">
        <ele>517.1</ele>
        <time>2020-06-20T17:43:08Z</time>
      </trkpt>
      <trkpt lat="43.79598" lon="5.9031">
        <ele>517.4</ele>
        <time>2020-06-20T17:43:10Z</time>
      </trkpt>
      <trkpt lat="43.79595" lon="5.90308">
        <ele>517.5</ele>
        <time>2020-06-20T17:43:11Z</time>
      </trkpt>
      <trkpt lat="43.79592" lon="5.90306">
        <ele>517.7</ele>
        <time>2020-06-20T17:43:12Z</time>
      </trkpt>
      <trkpt lat="43.79588" lon="5.90304">
        <ele>517.9</ele>
        <time>2020-06-20T17:43:14Z</time>
      </trkpt>
      <trkpt lat="43.79586" lon="5.90301">
        <ele>518.1</ele>
        <time>2020-06-20T17:43:15Z</time>
      </trkpt>
      <trkpt lat="43.79584" lon="5.90299">
        <ele>518.3</ele>
        <time>2020-06-20T17:43:16Z</time>
      </trkpt>
      <trkpt lat="43.79582" lon="5.90297">
        <ele>518.4</ele>
        <time>2020-06-20T17:43:17Z</time>
      </trkpt>
      <trkpt lat="43.79578" lon="5.90294">
        <ele>518.6</ele>
        <time>2020-06-20T17:43:19Z</time>
      </trkpt>
      <trkpt lat="43.79575" lon="5.90293">
        <ele>518.7</ele>
        <time>2020-06-20T17:43:20Z</time>
      </trkpt>
      <trkpt lat="43.79573" lon="5.90291">
        <ele>518.8</ele>
        <time>2020-06-20T17:43:21Z</time>
      </trkpt>
      <trkpt lat="43.7957" lon="5.9029">
        <ele>518.8</ele>
        <time>2020-06-20T17:43:23Z</time>
      </trkpt>
      <trkpt lat="43.79567" lon="5.90288">
        <ele>518.9</ele>
        <time>2020-06-20T17:43:24Z</time>
      </trkpt>
      <trkpt lat="43.79566" lon="5.90286">
        <ele>518.9</ele>
        <time>2020-06-20T17:43:25Z</time>
      </trkpt>
      <trkpt lat="43.79563" lon="5.90284">
        <ele>518.9</ele>
        <time>2020-06-20T17:43:27Z</time>
      </trkpt>
      <trkpt lat="43.79562" lon="5.90283">
        <ele>518.9</ele>
        <time>2020-06-20T17:43:28Z</time>
      </trkpt>
      <trkpt lat="43.79559" lon="5.9028">
        <ele>518.9</ele>
        <time>2020-06-20T17:43:30Z</time>
      </trkpt>
      <trkpt lat="43.79556" lon="5.90278">
        <ele>518.8</ele>
        <time>2020-06-20T17:43:31Z</time>
      </trkpt>
      <trkpt lat="43.79555" lon="5.90277">
        <ele>518.7</ele>
        <time>2020-06-20T17:43:32Z</time>
      </trkpt>
      <trkpt lat="43.79553" lon="5.90275">
        <ele>518.6</ele>
        <time>2020-06-20T17:43:33Z</time>
      </trkpt>
      <trkpt lat="43.7955" lon="5.90272">
        <ele>518.4</ele>
        <time>2020-06-20T17:43:35Z</time>
      </trkpt>
      <trkpt lat="43.79548" lon="5.9027">
        <ele>518.3</ele>
        <time>2020-06-20T17:43:36Z</time>
      </trkpt>
      <trkpt lat="43.79545" lon="5.90267">
        <ele>518</ele>
        <time>2020-06-20T17:43:37Z</time>
      </trkpt>
      <trkpt lat="43.79541" lon="5.90261">
        <ele>517.6</ele>
        <time>2020-06-20T17:43:39Z</time>
      </trkpt>
      <trkpt lat="43.79536" lon="5.90253">
        <ele>517.3</ele>
        <time>2020-06-20T17:43:40Z</time>
      </trkpt>
      <trkpt lat="43.79532" lon="5.90247">
        <ele>517</ele>
        <time>2020-06-20T17:43:41Z</time>
      </trkpt>
      <trkpt lat="43.79528" lon="5.90241">
        <ele>516.6</ele>
        <time>2020-06-20T17:43:42Z</time>
      </trkpt>
      <trkpt lat="43.79524" lon="5.90234">
        <ele>516.4</ele>
        <time>2020-06-20T17:43:43Z</time>
      </trkpt>
      <trkpt lat="43.79517" lon="5.90222">
        <ele>516.1</ele>
        <time>2020-06-20T17:43:45Z</time>
      </trkpt>
      <trkpt lat="43.7951" lon="5.90212">
        <ele>516</ele>
        <time>2020-06-20T17:43:47Z</time>
      </trkpt>
      <trkpt lat="43.79506" lon="5.90208">
        <ele>516</ele>
        <time>2020-06-20T17:43:48Z</time>
      </trkpt>
      <trkpt lat="43.79503" lon="5.90203">
        <ele>515.9</ele>
        <time>2020-06-20T17:43:49Z</time>
      </trkpt>
      <trkpt lat="43.79499" lon="5.90197">
        <ele>515.8</ele>
        <time>2020-06-20T17:43:51Z</time>
      </trkpt>
      <trkpt lat="43.79496" lon="5.90193">
        <ele>515.7</ele>
        <time>2020-06-20T17:43:52Z</time>
      </trkpt>
      <trkpt lat="43.79491" lon="5.90187">
        <ele>515.5</ele>
        <time>2020-06-20T17:43:53Z</time>
      </trkpt>
      <trkpt lat="43.79487" lon="5.90182">
        <ele>515.4</ele>
        <time>2020-06-20T17:43:54Z</time>
      </trkpt>
      <trkpt lat="43.79484" lon="5.90178">
        <ele>515.4</ele>
        <time>2020-06-20T17:43:55Z</time>
      </trkpt>
      <trkpt lat="43.79476" lon="5.90168">
        <ele>515.2</ele>
        <time>2020-06-20T17:43:57Z</time>
      </trkpt>
      <trkpt lat="43.79467" lon="5.9016">
        <ele>515.2</ele>
        <time>2020-06-20T17:43:59Z</time>
      </trkpt>
      <trkpt lat="43.79462" lon="5.90157">
        <ele>515.2</ele>
        <time>2020-06-20T17:44:00Z</time>
      </trkpt>
      <trkpt lat="43.79459" lon="5.90154">
        <ele>515.3</ele>
        <time>2020-06-20T17:44:01Z</time>
      </trkpt>
      <trkpt lat="43.79455" lon="5.90152">
        <ele>515.4</ele>
        <time>2020-06-20T17:44:02Z</time>
      </trkpt>
      <trkpt lat="43.79452" lon="5.90153">
        <ele>515.5</ele>
        <time>2020-06-20T17:44:03Z</time>
      </trkpt>
      <trkpt lat="43.79448" lon="5.90154">
        <ele>515.7</ele>
        <time>2020-06-20T17:44:05Z</time>
      </trkpt>
      <trkpt lat="43.79443" lon="5.90154">
        <ele>515.8</ele>
        <time>2020-06-20T17:44:06Z</time>
      </trkpt>
      <trkpt lat="43.79439" lon="5.90153">
        <ele>516</ele>
        <time>2020-06-20T17:44:07Z</time>
      </trkpt>
      <trkpt lat="43.79436" lon="5.90153">
        <ele>516.1</ele>
        <time>2020-06-20T17:44:08Z</time>
      </trkpt>
      <trkpt lat="43.79431" lon="5.90152">
        <ele>516.3</ele>
        <time>2020-06-20T17:44:10Z</time>
      </trkpt>
      <trkpt lat="43.79425" lon="5.90151">
        <ele>516.6</ele>
        <time>2020-06-20T17:44:12Z</time>
      </trkpt>
      <trkpt lat="43.79421" lon="5.9015">
        <ele>516.7</ele>
        <time>2020-06-20T17:44:13Z</time>
      </trkpt>
      <trkpt lat="43.79419" lon="5.90148">
        <ele>516.9</ele>
        <time>2020-06-20T17:44:14Z</time>
      </trkpt>
      <trkpt lat="43.79415" lon="5.90147">
        <ele>517</ele>
        <time>2020-06-20T17:44:15Z</time>
      </trkpt>
      <trkpt lat="43.79409" lon="5.90145">
        <ele>517.1</ele>
        <time>2020-06-20T17:44:17Z</time>
      </trkpt>
      <trkpt lat="43.79405" lon="5.90144">
        <ele>517</ele>
        <time>2020-06-20T17:44:18Z</time>
      </trkpt>
      <trkpt lat="43.79401" lon="5.90143">
        <ele>516.9</ele>
        <time>2020-06-20T17:44:19Z</time>
      </trkpt>
      <trkpt lat="43.79396" lon="5.90141">
        <ele>516.8</ele>
        <time>2020-06-20T17:44:21Z</time>
      </trkpt>
      <trkpt lat="43.7939" lon="5.90139">
        <ele>516.6</ele>
        <time>2020-06-20T17:44:23Z</time>
      </trkpt>
      <trkpt lat="43.79384" lon="5.90138">
        <ele>516.4</ele>
        <time>2020-06-20T17:44:24Z</time>
      </trkpt>
      <trkpt lat="43.79376" lon="5.90137">
        <ele>516.1</ele>
        <time>2020-06-20T17:44:25Z</time>
      </trkpt>
      <trkpt lat="43.79364" lon="5.90135">
        <ele>515.7</ele>
        <time>2020-06-20T17:44:27Z</time>
      </trkpt>
      <trkpt lat="43.79359" lon="5.90135">
        <ele>515.6</ele>
        <time>2020-06-20T17:44:28Z</time>
      </trkpt>
      <trkpt lat="43.79349" lon="5.90134">
        <ele>515.4</ele>
        <time>2020-06-20T17:44:30Z</time>
      </trkpt>
      <trkpt lat="43.79343" lon="5.90134">
        <ele>515.3</ele>
        <time>2020-06-20T17:44:31Z</time>
      </trkpt>
      <trkpt lat="43.79332" lon="5.90133">
        <ele>515.1</ele>
        <time>2020-06-20T17:44:33Z</time>
      </trkpt>
      <trkpt lat="43.79322" lon="5.90134">
        <ele>515</ele>
        <time>2020-06-20T17:44:35Z</time>
      </trkpt>
      <trkpt lat="43.79317" lon="5.90135">
        <ele>515</ele>
        <time>2020-06-20T17:44:36Z</time>
      </trkpt>
      <trkpt lat="43.79307" lon="5.90135">
        <ele>515</ele>
        <time>2020-06-20T17:44:38Z</time>
      </trkpt>
      <trkpt lat="43.79298" lon="5.90133">
        <ele>515.1</ele>
        <time>2020-06-20T17:44:40Z</time>
      </trkpt>
      <trkpt lat="43.79295" lon="5.90133">
        <ele>515.1</ele>
        <time>2020-06-20T17:44:41Z</time>
      </trkpt>
      <trkpt lat="43.7929" lon="5.90131">
        <ele>515.1</ele>
        <time>2020-06-20T17:44:43Z</time>
      </trkpt>
      <trkpt lat="43.79284" lon="5.90131">
        <ele>515.1</ele>
        <time>2020-06-20T17:44:44Z</time>
      </trkpt>
      <trkpt lat="43.79278" lon="5.9013">
        <ele>515</ele>
        <time>2020-06-20T17:44:45Z</time>
      </trkpt>
      <trkpt lat="43.79268" lon="5.90128">
        <ele>514.8</ele>
        <time>2020-06-20T17:44:47Z</time>
      </trkpt>
      <trkpt lat="43.79263" lon="5.90126">
        <ele>514.9</ele>
        <time>2020-06-20T17:44:48Z</time>
      </trkpt>
      <trkpt lat="43.79258" lon="5.90126">
        <ele>514.9</ele>
        <time>2020-06-20T17:44:49Z</time>
      </trkpt>
      <trkpt lat="43.79249" lon="5.90123">
        <ele>515</ele>
        <time>2020-06-20T17:44:51Z</time>
      </trkpt>
      <trkpt lat="43.79245" lon="5.9012">
        <ele>515</ele>
        <time>2020-06-20T17:44:52Z</time>
      </trkpt>
      <trkpt lat="43.79238" lon="5.90118">
        <ele>515</ele>
        <time>2020-06-20T17:44:54Z</time>
      </trkpt>
      <trkpt lat="43.79234" lon="5.90116">
        <ele>515</ele>
        <time>2020-06-20T17:44:55Z</time>
      </trkpt>
      <trkpt lat="43.79227" lon="5.90114">
        <ele>515</ele>
        <time>2020-06-20T17:44:57Z</time>
      </trkpt>
      <trkpt lat="43.7922" lon="5.90114">
        <ele>515</ele>
        <time>2020-06-20T17:44:58Z</time>
      </trkpt>
      <trkpt lat="43.79215" lon="5.90114">
        <ele>515</ele>
        <time>2020-06-20T17:44:59Z</time>
      </trkpt>
      <trkpt lat="43.79209" lon="5.90114">
        <ele>515</ele>
        <time>2020-06-20T17:45:01Z</time>
      </trkpt>
      <trkpt lat="43.79203" lon="5.90113">
        <ele>515</ele>
        <time>2020-06-20T17:45:02Z</time>
      </trkpt>
      <trkpt lat="43.79197" lon="5.90112">
        <ele>514.9</ele>
        <time>2020-06-20T17:45:03Z</time>
      </trkpt>
      <trkpt lat="43.79193" lon="5.9011">
        <ele>514.9</ele>
        <time>2020-06-20T17:45:04Z</time>
      </trkpt>
      <trkpt lat="43.79186" lon="5.90109">
        <ele>514.8</ele>
        <time>2020-06-20T17:45:06Z</time>
      </trkpt>
      <trkpt lat="43.79179" lon="5.90108">
        <ele>514.8</ele>
        <time>2020-06-20T17:45:08Z</time>
      </trkpt>
      <trkpt lat="43.79173" lon="5.90107">
        <ele>514.8</ele>
        <time>2020-06-20T17:45:09Z</time>
      </trkpt>
      <trkpt lat="43.79165" lon="5.90106">
        <ele>514.8</ele>
        <time>2020-06-20T17:45:11Z</time>
      </trkpt>
      <trkpt lat="43.79157" lon="5.90104">
        <ele>514.8</ele>
        <time>2020-06-20T17:45:12Z</time>
      </trkpt>
      <trkpt lat="43.79152" lon="5.90102">
        <ele>514.8</ele>
        <time>2020-06-20T17:45:13Z</time>
      </trkpt>
      <trkpt lat="43.79147" lon="5.90101">
        <ele>514.8</ele>
        <time>2020-06-20T17:45:14Z</time>
      </trkpt>
      <trkpt lat="43.79138" lon="5.90099">
        <ele>514.8</ele>
        <time>2020-06-20T17:45:16Z</time>
      </trkpt>
      <trkpt lat="43.79133" lon="5.90097">
        <ele>514.8</ele>
        <time>2020-06-20T17:45:17Z</time>
      </trkpt>
      <trkpt lat="43.79129" lon="5.90096">
        <ele>514.8</ele>
        <time>2020-06-20T17:45:18Z</time>
      </trkpt>
      <trkpt lat="43.79121" lon="5.90094">
        <ele>514.8</ele>
        <time>2020-06-20T17:45:20Z</time>
      </trkpt>
      <trkpt lat="43.79111" lon="5.9009">
        <ele>514.6</ele>
        <time>2020-06-20T17:45:22Z</time>
      </trkpt>
      <trkpt lat="43.79108" lon="5.9009">
        <ele>514.5</ele>
        <time>2020-06-20T17:45:23Z</time>
      </trkpt>
      <trkpt lat="43.791" lon="5.90088">
        <ele>514.2</ele>
        <time>2020-06-20T17:45:24Z</time>
      </trkpt>
      <trkpt lat="43.79094" lon="5.90081">
        <ele>514</ele>
        <time>2020-06-20T17:45:26Z</time>
      </trkpt>
      <trkpt lat="43.79088" lon="5.90081">
        <ele>513.9</ele>
        <time>2020-06-20T17:45:27Z</time>
      </trkpt>
      <trkpt lat="43.7908" lon="5.90073">
        <ele>513.9</ele>
        <time>2020-06-20T17:45:29Z</time>
      </trkpt>
      <trkpt lat="43.79072" lon="5.90066">
        <ele>513.9</ele>
        <time>2020-06-20T17:45:31Z</time>
      </trkpt>
      <trkpt lat="43.79068" lon="5.90062">
        <ele>513.9</ele>
        <time>2020-06-20T17:45:32Z</time>
      </trkpt>
      <trkpt lat="43.79061" lon="5.90053">
        <ele>513.9</ele>
        <time>2020-06-20T17:45:34Z</time>
      </trkpt>
      <trkpt lat="43.79058" lon="5.90049">
        <ele>513.9</ele>
        <time>2020-06-20T17:45:35Z</time>
      </trkpt>
      <trkpt lat="43.79051" lon="5.9004">
        <ele>513.9</ele>
        <time>2020-06-20T17:45:37Z</time>
      </trkpt>
      <trkpt lat="43.79044" lon="5.90031">
        <ele>513.8</ele>
        <time>2020-06-20T17:45:39Z</time>
      </trkpt>
      <trkpt lat="43.79038" lon="5.90022">
        <ele>513.7</ele>
        <time>2020-06-20T17:45:41Z</time>
      </trkpt>
      <trkpt lat="43.79035" lon="5.90018">
        <ele>513.7</ele>
        <time>2020-06-20T17:45:42Z</time>
      </trkpt>
      <trkpt lat="43.79031" lon="5.90013">
        <ele>513.6</ele>
        <time>2020-06-20T17:45:44Z</time>
      </trkpt>
      <trkpt lat="43.79028" lon="5.90007">
        <ele>513.6</ele>
        <time>2020-06-20T17:45:45Z</time>
      </trkpt>
      <trkpt lat="43.79022" lon="5.89997">
        <ele>513.6</ele>
        <time>2020-06-20T17:45:47Z</time>
      </trkpt>
      <trkpt lat="43.79017" lon="5.89988">
        <ele>513.7</ele>
        <time>2020-06-20T17:45:48Z</time>
      </trkpt>
      <trkpt lat="43.79013" lon="5.89981">
        <ele>513.7</ele>
        <time>2020-06-20T17:45:50Z</time>
      </trkpt>
      <trkpt lat="43.7901" lon="5.89976">
        <ele>513.7</ele>
        <time>2020-06-20T17:45:51Z</time>
      </trkpt>
      <trkpt lat="43.79006" lon="5.89971">
        <ele>513.7</ele>
        <time>2020-06-20T17:45:52Z</time>
      </trkpt>
      <trkpt lat="43.79004" lon="5.89966">
        <ele>513.7</ele>
        <time>2020-06-20T17:45:53Z</time>
      </trkpt>
      <trkpt lat="43.79001" lon="5.8996">
        <ele>513.7</ele>
        <time>2020-06-20T17:45:54Z</time>
      </trkpt>
      <trkpt lat="43.78998" lon="5.89953">
        <ele>513.7</ele>
        <time>2020-06-20T17:45:56Z</time>
      </trkpt>
      <trkpt lat="43.78995" lon="5.89949">
        <ele>513.7</ele>
        <time>2020-06-20T17:45:57Z</time>
      </trkpt>
      <trkpt lat="43.78992" lon="5.89945">
        <ele>513.7</ele>
        <time>2020-06-20T17:45:58Z</time>
      </trkpt>
      <trkpt lat="43.78989" lon="5.89939">
        <ele>513.7</ele>
        <time>2020-06-20T17:45:59Z</time>
      </trkpt>
      <trkpt lat="43.78984" lon="5.89933">
        <ele>513.7</ele>
        <time>2020-06-20T17:46:01Z</time>
      </trkpt>
      <trkpt lat="43.78981" lon="5.89928">
        <ele>513.7</ele>
        <time>2020-06-20T17:46:02Z</time>
      </trkpt>
      <trkpt lat="43.78978" lon="5.89924">
        <ele>513.7</ele>
        <time>2020-06-20T17:46:03Z</time>
      </trkpt>
      <trkpt lat="43.78973" lon="5.89917">
        <ele>513.6</ele>
        <time>2020-06-20T17:46:05Z</time>
      </trkpt>
      <trkpt lat="43.78971" lon="5.89913">
        <ele>513.5</ele>
        <time>2020-06-20T17:46:06Z</time>
      </trkpt>
      <trkpt lat="43.78968" lon="5.89908">
        <ele>513.5</ele>
        <time>2020-06-20T17:46:07Z</time>
      </trkpt>
      <trkpt lat="43.78963" lon="5.89901">
        <ele>513.4</ele>
        <time>2020-06-20T17:46:09Z</time>
      </trkpt>
      <trkpt lat="43.7896" lon="5.89895">
        <ele>513.3</ele>
        <time>2020-06-20T17:46:10Z</time>
      </trkpt>
      <trkpt lat="43.78957" lon="5.89889">
        <ele>513.3</ele>
        <time>2020-06-20T17:46:11Z</time>
      </trkpt>
      <trkpt lat="43.78952" lon="5.8988">
        <ele>513.3</ele>
        <time>2020-06-20T17:46:13Z</time>
      </trkpt>
      <trkpt lat="43.78949" lon="5.89874">
        <ele>513.3</ele>
        <time>2020-06-20T17:46:14Z</time>
      </trkpt>
      <trkpt lat="43.78942" lon="5.89863">
        <ele>513.3</ele>
        <time>2020-06-20T17:46:16Z</time>
      </trkpt>
      <trkpt lat="43.7894" lon="5.8986">
        <ele>513.4</ele>
        <time>2020-06-20T17:46:17Z</time>
      </trkpt>
      <trkpt lat="43.78934" lon="5.89854">
        <ele>513.5</ele>
        <time>2020-06-20T17:46:19Z</time>
      </trkpt>
      <trkpt lat="43.78929" lon="5.89847">
        <ele>513.6</ele>
        <time>2020-06-20T17:46:20Z</time>
      </trkpt>
      <trkpt lat="43.78929" lon="5.89842">
        <ele>513.7</ele>
        <time>2020-06-20T17:46:21Z</time>
      </trkpt>
      <trkpt lat="43.78925" lon="5.89834">
        <ele>513.8</ele>
        <time>2020-06-20T17:46:23Z</time>
      </trkpt>
      <trkpt lat="43.78921" lon="5.89824">
        <ele>514</ele>
        <time>2020-06-20T17:46:25Z</time>
      </trkpt>
      <trkpt lat="43.78918" lon="5.89818">
        <ele>514.1</ele>
        <time>2020-06-20T17:46:26Z</time>
      </trkpt>
      <trkpt lat="43.78916" lon="5.89814">
        <ele>514.1</ele>
        <time>2020-06-20T17:46:28Z</time>
      </trkpt>
      <trkpt lat="43.78914" lon="5.8981">
        <ele>514.1</ele>
        <time>2020-06-20T17:46:29Z</time>
      </trkpt>
      <trkpt lat="43.78912" lon="5.89805">
        <ele>514</ele>
        <time>2020-06-20T17:46:30Z</time>
      </trkpt>
      <trkpt lat="43.7891" lon="5.89799">
        <ele>513.9</ele>
        <time>2020-06-20T17:46:31Z</time>
      </trkpt>
      <trkpt lat="43.78909" lon="5.89794">
        <ele>513.7</ele>
        <time>2020-06-20T17:46:32Z</time>
      </trkpt>
      <trkpt lat="43.78907" lon="5.89784">
        <ele>513.2</ele>
        <time>2020-06-20T17:46:34Z</time>
      </trkpt>
      <trkpt lat="43.78905" lon="5.89776">
        <ele>512.8</ele>
        <time>2020-06-20T17:46:35Z</time>
      </trkpt>
      <trkpt lat="43.78902" lon="5.89761">
        <ele>512</ele>
        <time>2020-06-20T17:46:37Z</time>
      </trkpt>
      <trkpt lat="43.78901" lon="5.89753">
        <ele>511.9</ele>
        <time>2020-06-20T17:46:38Z</time>
      </trkpt>
      <trkpt lat="43.789" lon="5.89744">
        <ele>511.5</ele>
        <time>2020-06-20T17:46:39Z</time>
      </trkpt>
      <trkpt lat="43.78898" lon="5.89729">
        <ele>510.9</ele>
        <time>2020-06-20T17:46:41Z</time>
      </trkpt>
      <trkpt lat="43.78894" lon="5.89714">
        <ele>510.3</ele>
        <time>2020-06-20T17:46:43Z</time>
      </trkpt>
      <trkpt lat="43.78891" lon="5.89699">
        <ele>509.7</ele>
        <time>2020-06-20T17:46:45Z</time>
      </trkpt>
      <trkpt lat="43.78889" lon="5.89693">
        <ele>509.5</ele>
        <time>2020-06-20T17:46:46Z</time>
      </trkpt>
      <trkpt lat="43.78886" lon="5.89686">
        <ele>509.3</ele>
        <time>2020-06-20T17:46:47Z</time>
      </trkpt>
      <trkpt lat="43.78881" lon="5.89675">
        <ele>508.8</ele>
        <time>2020-06-20T17:46:49Z</time>
      </trkpt>
      <trkpt lat="43.78879" lon="5.89669">
        <ele>508.6</ele>
        <time>2020-06-20T17:46:50Z</time>
      </trkpt>
      <trkpt lat="43.78873" lon="5.89659">
        <ele>508.4</ele>
        <time>2020-06-20T17:46:52Z</time>
      </trkpt>
      <trkpt lat="43.78869" lon="5.89654">
        <ele>508.5</ele>
        <time>2020-06-20T17:46:53Z</time>
      </trkpt>
      <trkpt lat="43.78862" lon="5.89646">
        <ele>508.4</ele>
        <time>2020-06-20T17:46:55Z</time>
      </trkpt>
      <trkpt lat="43.78858" lon="5.89642">
        <ele>508.3</ele>
        <time>2020-06-20T17:46:56Z</time>
      </trkpt>
      <trkpt lat="43.78849" lon="5.89635">
        <ele>507.9</ele>
        <time>2020-06-20T17:46:58Z</time>
      </trkpt>
      <trkpt lat="43.78843" lon="5.89632">
        <ele>507.6</ele>
        <time>2020-06-20T17:46:59Z</time>
      </trkpt>
      <trkpt lat="43.78834" lon="5.89625">
        <ele>507.3</ele>
        <time>2020-06-20T17:47:01Z</time>
      </trkpt>
      <trkpt lat="43.78829" lon="5.89622">
        <ele>507.1</ele>
        <time>2020-06-20T17:47:02Z</time>
      </trkpt>
      <trkpt lat="43.78823" lon="5.89618">
        <ele>506.9</ele>
        <time>2020-06-20T17:47:03Z</time>
      </trkpt>
      <trkpt lat="43.78812" lon="5.8961">
        <ele>506.6</ele>
        <time>2020-06-20T17:47:05Z</time>
      </trkpt>
      <trkpt lat="43.78807" lon="5.89606">
        <ele>506.5</ele>
        <time>2020-06-20T17:47:06Z</time>
      </trkpt>
      <trkpt lat="43.78797" lon="5.89597">
        <ele>506.4</ele>
        <time>2020-06-20T17:47:08Z</time>
      </trkpt>
      <trkpt lat="43.78787" lon="5.89589">
        <ele>506.5</ele>
        <time>2020-06-20T17:47:10Z</time>
      </trkpt>
      <trkpt lat="43.78782" lon="5.89585">
        <ele>506.6</ele>
        <time>2020-06-20T17:47:11Z</time>
      </trkpt>
      <trkpt lat="43.78777" lon="5.89582">
        <ele>506.7</ele>
        <time>2020-06-20T17:47:12Z</time>
      </trkpt>
      <trkpt lat="43.78773" lon="5.8958">
        <ele>507</ele>
        <time>2020-06-20T17:47:13Z</time>
      </trkpt>
      <trkpt lat="43.78769" lon="5.89578">
        <ele>507.2</ele>
        <time>2020-06-20T17:47:14Z</time>
      </trkpt>
      <trkpt lat="43.78763" lon="5.89575">
        <ele>507.6</ele>
        <time>2020-06-20T17:47:16Z</time>
      </trkpt>
      <trkpt lat="43.78758" lon="5.89574">
        <ele>507.9</ele>
        <time>2020-06-20T17:47:18Z</time>
      </trkpt>
      <trkpt lat="43.78753" lon="5.89573">
        <ele>508.3</ele>
        <time>2020-06-20T17:47:20Z</time>
      </trkpt>
      <trkpt lat="43.78752" lon="5.89573">
        <ele>508.4</ele>
        <time>2020-06-20T17:47:21Z</time>
      </trkpt>
      <trkpt lat="43.7875" lon="5.89573">
        <ele>508.5</ele>
        <time>2020-06-20T17:47:22Z</time>
      </trkpt>
      <trkpt lat="43.78747" lon="5.89571">
        <ele>508.7</ele>
        <time>2020-06-20T17:47:23Z</time>
      </trkpt>
      <trkpt lat="43.78746" lon="5.8957">
        <ele>508.8</ele>
        <time>2020-06-20T17:47:24Z</time>
      </trkpt>
      <trkpt lat="43.78742" lon="5.89569">
        <ele>509</ele>
        <time>2020-06-20T17:47:26Z</time>
      </trkpt>
      <trkpt lat="43.78737" lon="5.89568">
        <ele>509.4</ele>
        <time>2020-06-20T17:47:28Z</time>
      </trkpt>
      <trkpt lat="43.78734" lon="5.89565">
        <ele>509.6</ele>
        <time>2020-06-20T17:47:29Z</time>
      </trkpt>
      <trkpt lat="43.78731" lon="5.89563">
        <ele>509.8</ele>
        <time>2020-06-20T17:47:30Z</time>
      </trkpt>
      <trkpt lat="43.78728" lon="5.89561">
        <ele>509.9</ele>
        <time>2020-06-20T17:47:32Z</time>
      </trkpt>
      <trkpt lat="43.78725" lon="5.89559">
        <ele>510.1</ele>
        <time>2020-06-20T17:47:33Z</time>
      </trkpt>
      <trkpt lat="43.78723" lon="5.89557">
        <ele>510.2</ele>
        <time>2020-06-20T17:47:34Z</time>
      </trkpt>
      <trkpt lat="43.78721" lon="5.89554">
        <ele>510.4</ele>
        <time>2020-06-20T17:47:35Z</time>
      </trkpt>
      <trkpt lat="43.78718" lon="5.89551">
        <ele>510.5</ele>
        <time>2020-06-20T17:47:37Z</time>
      </trkpt>
      <trkpt lat="43.78716" lon="5.89549">
        <ele>510.6</ele>
        <time>2020-06-20T17:47:38Z</time>
      </trkpt>
      <trkpt lat="43.78713" lon="5.89547">
        <ele>510.7</ele>
        <time>2020-06-20T17:47:39Z</time>
      </trkpt>
      <trkpt lat="43.7871" lon="5.89546">
        <ele>510.8</ele>
        <time>2020-06-20T17:47:41Z</time>
      </trkpt>
      <trkpt lat="43.78707" lon="5.89543">
        <ele>510.8</ele>
        <time>2020-06-20T17:47:42Z</time>
      </trkpt>
      <trkpt lat="43.78704" lon="5.8954">
        <ele>510.8</ele>
        <time>2020-06-20T17:47:43Z</time>
      </trkpt>
      <trkpt lat="43.78704" lon="5.89538">
        <ele>510.8</ele>
        <time>2020-06-20T17:47:44Z</time>
      </trkpt>
      <trkpt lat="43.787" lon="5.89534">
        <ele>510.8</ele>
        <time>2020-06-20T17:47:45Z</time>
      </trkpt>
      <trkpt lat="43.78699" lon="5.89533">
        <ele>510.8</ele>
        <time>2020-06-20T17:47:46Z</time>
      </trkpt>
      <trkpt lat="43.78695" lon="5.89527">
        <ele>510.7</ele>
        <time>2020-06-20T17:47:48Z</time>
      </trkpt>
      <trkpt lat="43.78694" lon="5.89525">
        <ele>510.6</ele>
        <time>2020-06-20T17:47:49Z</time>
      </trkpt>
      <trkpt lat="43.78693" lon="5.89523">
        <ele>510.6</ele>
        <time>2020-06-20T17:47:50Z</time>
      </trkpt>
      <trkpt lat="43.7869" lon="5.89518">
        <ele>510.4</ele>
        <time>2020-06-20T17:47:52Z</time>
      </trkpt>
      <trkpt lat="43.78687" lon="5.89515">
        <ele>510.3</ele>
        <time>2020-06-20T17:47:53Z</time>
      </trkpt>
      <trkpt lat="43.78683" lon="5.89508">
        <ele>510</ele>
        <time>2020-06-20T17:47:54Z</time>
      </trkpt>
      <trkpt lat="43.78679" lon="5.89501">
        <ele>509.6</ele>
        <time>2020-06-20T17:47:55Z</time>
      </trkpt>
      <trkpt lat="43.7867" lon="5.89487">
        <ele>509</ele>
        <time>2020-06-20T17:47:57Z</time>
      </trkpt>
      <trkpt lat="43.78659" lon="5.89474">
        <ele>508.6</ele>
        <time>2020-06-20T17:47:59Z</time>
      </trkpt>
      <trkpt lat="43.78649" lon="5.89463">
        <ele>508.6</ele>
        <time>2020-06-20T17:48:01Z</time>
      </trkpt>
      <trkpt lat="43.78641" lon="5.89455">
        <ele>508.8</ele>
        <time>2020-06-20T17:48:03Z</time>
      </trkpt>
      <trkpt lat="43.78638" lon="5.8945">
        <ele>508.8</ele>
        <time>2020-06-20T17:48:04Z</time>
      </trkpt>
      <trkpt lat="43.78637" lon="5.89448">
        <ele>508.9</ele>
        <time>2020-06-20T17:48:05Z</time>
      </trkpt>
      <trkpt lat="43.78633" lon="5.89445">
        <ele>509</ele>
        <time>2020-06-20T17:48:06Z</time>
      </trkpt>
      <trkpt lat="43.7863" lon="5.89442">
        <ele>509.1</ele>
        <time>2020-06-20T17:48:08Z</time>
      </trkpt>
      <trkpt lat="43.78626" lon="5.89439">
        <ele>509.3</ele>
        <time>2020-06-20T17:48:09Z</time>
      </trkpt>
      <trkpt lat="43.78621" lon="5.89434">
        <ele>509.4</ele>
        <time>2020-06-20T17:48:10Z</time>
      </trkpt>
      <trkpt lat="43.78618" lon="5.89431">
        <ele>509.6</ele>
        <time>2020-06-20T17:48:11Z</time>
      </trkpt>
      <trkpt lat="43.78615" lon="5.89428">
        <ele>509.7</ele>
        <time>2020-06-20T17:48:12Z</time>
      </trkpt>
      <trkpt lat="43.78612" lon="5.89425">
        <ele>509.8</ele>
        <time>2020-06-20T17:48:13Z</time>
      </trkpt>
      <trkpt lat="43.78609" lon="5.89422">
        <ele>509.9</ele>
        <time>2020-06-20T17:48:15Z</time>
      </trkpt>
      <trkpt lat="43.78606" lon="5.89419">
        <ele>510</ele>
        <time>2020-06-20T17:48:16Z</time>
      </trkpt>
      <trkpt lat="43.78604" lon="5.89416">
        <ele>510.1</ele>
        <time>2020-06-20T17:48:17Z</time>
      </trkpt>
      <trkpt lat="43.78601" lon="5.89412">
        <ele>510.1</ele>
        <time>2020-06-20T17:48:18Z</time>
      </trkpt>
      <trkpt lat="43.78599" lon="5.89409">
        <ele>510.1</ele>
        <time>2020-06-20T17:48:20Z</time>
      </trkpt>
      <trkpt lat="43.78597" lon="5.8941">
        <ele>510.1</ele>
        <time>2020-06-20T17:48:21Z</time>
      </trkpt>
      <trkpt lat="43.78596" lon="5.8941">
        <ele>510</ele>
        <time>2020-06-20T17:48:22Z</time>
      </trkpt>
      <trkpt lat="43.78595" lon="5.8941">
        <ele>510</ele>
        <time>2020-06-20T17:48:24Z</time>
      </trkpt>
      <trkpt lat="43.78595" lon="5.89411">
        <ele>510</ele>
        <time>2020-06-20T17:48:25Z</time>
      </trkpt>
      <trkpt lat="43.78594" lon="5.89411">
        <ele>510</ele>
        <time>2020-06-20T17:48:26Z</time>
      </trkpt>
      <trkpt lat="43.78594" lon="5.89412">
        <ele>510</ele>
        <time>2020-06-20T17:48:27Z</time>
      </trkpt>
      <trkpt lat="43.78593" lon="5.89412">
        <ele>509.9</ele>
        <time>2020-06-20T17:48:29Z</time>
      </trkpt>
      <trkpt lat="43.78593" lon="5.89412">
        <ele>509.9</ele>
        <time>2020-06-20T17:48:30Z</time>
      </trkpt>
      <trkpt lat="43.78593" lon="5.89411">
        <ele>509.9</ele>
        <time>2020-06-20T17:48:31Z</time>
      </trkpt>
      <trkpt lat="43.78593" lon="5.8941">
        <ele>509.8</ele>
        <time>2020-06-20T17:48:33Z</time>
      </trkpt>
      <trkpt lat="43.78593" lon="5.89409">
        <ele>509.8</ele>
        <time>2020-06-20T17:48:36Z</time>
      </trkpt>
      <trkpt lat="43.78593" lon="5.89408">
        <ele>509.8</ele>
        <time>2020-06-20T17:48:39Z</time>
      </trkpt>
      <trkpt lat="43.78594" lon="5.89407">
        <ele>509.7</ele>
        <time>2020-06-20T17:48:42Z</time>
      </trkpt>
      <trkpt lat="43.78594" lon="5.89406">
        <ele>509.7</ele>
        <time>2020-06-20T17:48:43Z</time>
      </trkpt>
      <trkpt lat="43.78594" lon="5.89405">
        <ele>509.6</ele>
        <time>2020-06-20T17:48:57Z</time>
      </trkpt>
      <trkpt lat="43.78594" lon="5.89403">
        <ele>509.6</ele>
        <time>2020-06-20T17:48:59Z</time>
      </trkpt>
      <trkpt lat="43.78594" lon="5.89402">
        <ele>509.4</ele>
        <time>2020-06-20T17:49:00Z</time>
      </trkpt>
      <trkpt lat="43.78593" lon="5.89395">
        <ele>509.2</ele>
        <time>2020-06-20T17:49:02Z</time>
      </trkpt>
      <trkpt lat="43.7859" lon="5.89387">
        <ele>509</ele>
        <time>2020-06-20T17:49:03Z</time>
      </trkpt>
      <trkpt lat="43.78588" lon="5.89376">
        <ele>508.5</ele>
        <time>2020-06-20T17:49:05Z</time>
      </trkpt>
      <trkpt lat="43.78586" lon="5.89361">
        <ele>507.7</ele>
        <time>2020-06-20T17:49:07Z</time>
      </trkpt>
      <trkpt lat="43.78587" lon="5.89353">
        <ele>507.3</ele>
        <time>2020-06-20T17:49:08Z</time>
      </trkpt>
      <trkpt lat="43.78587" lon="5.89339">
        <ele>506.5</ele>
        <time>2020-06-20T17:49:10Z</time>
      </trkpt>
      <trkpt lat="43.78587" lon="5.89331">
        <ele>506.1</ele>
        <time>2020-06-20T17:49:11Z</time>
      </trkpt>
      <trkpt lat="43.78586" lon="5.89323">
        <ele>505.7</ele>
        <time>2020-06-20T17:49:12Z</time>
      </trkpt>
      <trkpt lat="43.78585" lon="5.89315">
        <ele>505.3</ele>
        <time>2020-06-20T17:49:13Z</time>
      </trkpt>
      <trkpt lat="43.78584" lon="5.89307">
        <ele>505</ele>
        <time>2020-06-20T17:49:14Z</time>
      </trkpt>
      <trkpt lat="43.78578" lon="5.8929">
        <ele>504.8</ele>
        <time>2020-06-20T17:49:16Z</time>
      </trkpt>
      <trkpt lat="43.78575" lon="5.89282">
        <ele>504.8</ele>
        <time>2020-06-20T17:49:17Z</time>
      </trkpt>
      <trkpt lat="43.78568" lon="5.89268">
        <ele>504.7</ele>
        <time>2020-06-20T17:49:19Z</time>
      </trkpt>
      <trkpt lat="43.78564" lon="5.89262">
        <ele>504.7</ele>
        <time>2020-06-20T17:49:20Z</time>
      </trkpt>
      <trkpt lat="43.78559" lon="5.89258">
        <ele>504.7</ele>
        <time>2020-06-20T17:49:21Z</time>
      </trkpt>
      <trkpt lat="43.78549" lon="5.8925">
        <ele>504.8</ele>
        <time>2020-06-20T17:49:23Z</time>
      </trkpt>
      <trkpt lat="43.7854" lon="5.89243">
        <ele>505</ele>
        <time>2020-06-20T17:49:25Z</time>
      </trkpt>
      <trkpt lat="43.78536" lon="5.8924">
        <ele>505.1</ele>
        <time>2020-06-20T17:49:26Z</time>
      </trkpt>
      <trkpt lat="43.78528" lon="5.89234">
        <ele>505.3</ele>
        <time>2020-06-20T17:49:28Z</time>
      </trkpt>
      <trkpt lat="43.78525" lon="5.89232">
        <ele>505.3</ele>
        <time>2020-06-20T17:49:29Z</time>
      </trkpt>
      <trkpt lat="43.78522" lon="5.8923">
        <ele>505.4</ele>
        <time>2020-06-20T17:49:30Z</time>
      </trkpt>
      <trkpt lat="43.78515" lon="5.89224">
        <ele>505.6</ele>
        <time>2020-06-20T17:49:32Z</time>
      </trkpt>
      <trkpt lat="43.78512" lon="5.89221">
        <ele>505.8</ele>
        <time>2020-06-20T17:49:33Z</time>
      </trkpt>
      <trkpt lat="43.78505" lon="5.89214">
        <ele>506</ele>
        <time>2020-06-20T17:49:35Z</time>
      </trkpt>
      <trkpt lat="43.78502" lon="5.89211">
        <ele>506.1</ele>
        <time>2020-06-20T17:49:36Z</time>
      </trkpt>
      <trkpt lat="43.78497" lon="5.89206">
        <ele>506.2</ele>
        <time>2020-06-20T17:49:38Z</time>
      </trkpt>
      <trkpt lat="43.78493" lon="5.89202">
        <ele>506.2</ele>
        <time>2020-06-20T17:49:39Z</time>
      </trkpt>
      <trkpt lat="43.78487" lon="5.89195">
        <ele>506.2</ele>
        <time>2020-06-20T17:49:41Z</time>
      </trkpt>
      <trkpt lat="43.78484" lon="5.89191">
        <ele>506.1</ele>
        <time>2020-06-20T17:49:42Z</time>
      </trkpt>
      <trkpt lat="43.78481" lon="5.89188">
        <ele>506</ele>
        <time>2020-06-20T17:49:43Z</time>
      </trkpt>
      <trkpt lat="43.78475" lon="5.89182">
        <ele>505.8</ele>
        <time>2020-06-20T17:49:44Z</time>
      </trkpt>
      <trkpt lat="43.7847" lon="5.89174">
        <ele>505.5</ele>
        <time>2020-06-20T17:49:46Z</time>
      </trkpt>
      <trkpt lat="43.78461" lon="5.89163">
        <ele>504.9</ele>
        <time>2020-06-20T17:49:48Z</time>
      </trkpt>
      <trkpt lat="43.78453" lon="5.89154">
        <ele>504.3</ele>
        <time>2020-06-20T17:49:50Z</time>
      </trkpt>
      <trkpt lat="43.78449" lon="5.8915">
        <ele>504</ele>
        <time>2020-06-20T17:49:51Z</time>
      </trkpt>
      <trkpt lat="43.78443" lon="5.89145">
        <ele>503.8</ele>
        <time>2020-06-20T17:49:52Z</time>
      </trkpt>
      <trkpt lat="43.78438" lon="5.89141">
        <ele>503.5</ele>
        <time>2020-06-20T17:49:53Z</time>
      </trkpt>
      <trkpt lat="43.78429" lon="5.8913">
        <ele>503.1</ele>
        <time>2020-06-20T17:49:55Z</time>
      </trkpt>
      <trkpt lat="43.78425" lon="5.89123">
        <ele>503.1</ele>
        <time>2020-06-20T17:49:56Z</time>
      </trkpt>
      <trkpt lat="43.78418" lon="5.89107">
        <ele>503.1</ele>
        <time>2020-06-20T17:49:58Z</time>
      </trkpt>
      <trkpt lat="43.78416" lon="5.89098">
        <ele>503.2</ele>
        <time>2020-06-20T17:49:59Z</time>
      </trkpt>
      <trkpt lat="43.78412" lon="5.89081">
        <ele>503.4</ele>
        <time>2020-06-20T17:50:01Z</time>
      </trkpt>
      <trkpt lat="43.7841" lon="5.89073">
        <ele>503.5</ele>
        <time>2020-06-20T17:50:02Z</time>
      </trkpt>
      <trkpt lat="43.78409" lon="5.89059">
        <ele>503.8</ele>
        <time>2020-06-20T17:50:04Z</time>
      </trkpt>
      <trkpt lat="43.78409" lon="5.89047">
        <ele>504.1</ele>
        <time>2020-06-20T17:50:06Z</time>
      </trkpt>
      <trkpt lat="43.78409" lon="5.89037">
        <ele>504.5</ele>
        <time>2020-06-20T17:50:08Z</time>
      </trkpt>
      <trkpt lat="43.7841" lon="5.89033">
        <ele>504.7</ele>
        <time>2020-06-20T17:50:09Z</time>
      </trkpt>
      <trkpt lat="43.78411" lon="5.89025">
        <ele>505</ele>
        <time>2020-06-20T17:50:11Z</time>
      </trkpt>
      <trkpt lat="43.78414" lon="5.89021">
        <ele>505.2</ele>
        <time>2020-06-20T17:50:13Z</time>
      </trkpt>
      <trkpt lat="43.78414" lon="5.89017">
        <ele>505.4</ele>
        <time>2020-06-20T17:50:14Z</time>
      </trkpt>
      <trkpt lat="43.78415" lon="5.89013">
        <ele>505.6</ele>
        <time>2020-06-20T17:50:15Z</time>
      </trkpt>
      <trkpt lat="43.78417" lon="5.89009">
        <ele>505.8</ele>
        <time>2020-06-20T17:50:16Z</time>
      </trkpt>
      <trkpt lat="43.78419" lon="5.89005">
        <ele>505.9</ele>
        <time>2020-06-20T17:50:17Z</time>
      </trkpt>
      <trkpt lat="43.7842" lon="5.89001">
        <ele>506</ele>
        <time>2020-06-20T17:50:18Z</time>
      </trkpt>
      <trkpt lat="43.78421" lon="5.88997">
        <ele>506.2</ele>
        <time>2020-06-20T17:50:20Z</time>
      </trkpt>
      <trkpt lat="43.78421" lon="5.88993">
        <ele>506.2</ele>
        <time>2020-06-20T17:50:21Z</time>
      </trkpt>
      <trkpt lat="43.78421" lon="5.88985">
        <ele>506.4</ele>
        <time>2020-06-20T17:50:22Z</time>
      </trkpt>
      <trkpt lat="43.78421" lon="5.88976">
        <ele>506.5</ele>
        <time>2020-06-20T17:50:24Z</time>
      </trkpt>
      <trkpt lat="43.7842" lon="5.88969">
        <ele>506.7</ele>
        <time>2020-06-20T17:50:25Z</time>
      </trkpt>
      <trkpt lat="43.78419" lon="5.88964">
        <ele>506.7</ele>
        <time>2020-06-20T17:50:26Z</time>
      </trkpt>
      <trkpt lat="43.78419" lon="5.88957">
        <ele>506.8</ele>
        <time>2020-06-20T17:50:27Z</time>
      </trkpt>
      <trkpt lat="43.78418" lon="5.88951">
        <ele>506.8</ele>
        <time>2020-06-20T17:50:28Z</time>
      </trkpt>
      <trkpt lat="43.78418" lon="5.88944">
        <ele>506.9</ele>
        <time>2020-06-20T17:50:30Z</time>
      </trkpt>
      <trkpt lat="43.78417" lon="5.88938">
        <ele>506.9</ele>
        <time>2020-06-20T17:50:31Z</time>
      </trkpt>
      <trkpt lat="43.78416" lon="5.88931">
        <ele>506.9</ele>
        <time>2020-06-20T17:50:32Z</time>
      </trkpt>
      <trkpt lat="43.78416" lon="5.88924">
        <ele>506.9</ele>
        <time>2020-06-20T17:50:34Z</time>
      </trkpt>
      <trkpt lat="43.78417" lon="5.88916">
        <ele>507.1</ele>
        <time>2020-06-20T17:50:35Z</time>
      </trkpt>
      <trkpt lat="43.78416" lon="5.88909">
        <ele>507.2</ele>
        <time>2020-06-20T17:50:37Z</time>
      </trkpt>
      <trkpt lat="43.78416" lon="5.88904">
        <ele>507.3</ele>
        <time>2020-06-20T17:50:38Z</time>
      </trkpt>
      <trkpt lat="43.78416" lon="5.88898">
        <ele>507.5</ele>
        <time>2020-06-20T17:50:39Z</time>
      </trkpt>
      <trkpt lat="43.78416" lon="5.88891">
        <ele>507.7</ele>
        <time>2020-06-20T17:50:40Z</time>
      </trkpt>
      <trkpt lat="43.78416" lon="5.88885">
        <ele>507.8</ele>
        <time>2020-06-20T17:50:42Z</time>
      </trkpt>
      <trkpt lat="43.78416" lon="5.88882">
        <ele>507.9</ele>
        <time>2020-06-20T17:50:43Z</time>
      </trkpt>
      <trkpt lat="43.78415" lon="5.88874">
        <ele>508</ele>
        <time>2020-06-20T17:50:45Z</time>
      </trkpt>
      <trkpt lat="43.78415" lon="5.88867">
        <ele>508.1</ele>
        <time>2020-06-20T17:50:46Z</time>
      </trkpt>
      <trkpt lat="43.78414" lon="5.88863">
        <ele>508.2</ele>
        <time>2020-06-20T17:50:47Z</time>
      </trkpt>
      <trkpt lat="43.78414" lon="5.88858">
        <ele>508.2</ele>
        <time>2020-06-20T17:50:49Z</time>
      </trkpt>
      <trkpt lat="43.78414" lon="5.88853">
        <ele>508.1</ele>
        <time>2020-06-20T17:50:50Z</time>
      </trkpt>
      <trkpt lat="43.78414" lon="5.88849">
        <ele>508.1</ele>
        <time>2020-06-20T17:50:51Z</time>
      </trkpt>
      <trkpt lat="43.78414" lon="5.88843">
        <ele>508</ele>
        <time>2020-06-20T17:50:52Z</time>
      </trkpt>
      <trkpt lat="43.78415" lon="5.88837">
        <ele>507.8</ele>
        <time>2020-06-20T17:50:54Z</time>
      </trkpt>
      <trkpt lat="43.78415" lon="5.88832">
        <ele>507.7</ele>
        <time>2020-06-20T17:50:55Z</time>
      </trkpt>
      <trkpt lat="43.78414" lon="5.88827">
        <ele>507.6</ele>
        <time>2020-06-20T17:50:56Z</time>
      </trkpt>
      <trkpt lat="43.78414" lon="5.88823">
        <ele>507.4</ele>
        <time>2020-06-20T17:50:57Z</time>
      </trkpt>
      <trkpt lat="43.78413" lon="5.88818">
        <ele>507.2</ele>
        <time>2020-06-20T17:50:59Z</time>
      </trkpt>
      <trkpt lat="43.78412" lon="5.88811">
        <ele>506.9</ele>
        <time>2020-06-20T17:51:00Z</time>
      </trkpt>
      <trkpt lat="43.78412" lon="5.88802">
        <ele>506.6</ele>
        <time>2020-06-20T17:51:01Z</time>
      </trkpt>
      <trkpt lat="43.78412" lon="5.88792">
        <ele>506.3</ele>
        <time>2020-06-20T17:51:03Z</time>
      </trkpt>
      <trkpt lat="43.78412" lon="5.8878">
        <ele>505.9</ele>
        <time>2020-06-20T17:51:05Z</time>
      </trkpt>
      <trkpt lat="43.78413" lon="5.8877">
        <ele>505.6</ele>
        <time>2020-06-20T17:51:06Z</time>
      </trkpt>
      <trkpt lat="43.78413" lon="5.88763">
        <ele>505.4</ele>
        <time>2020-06-20T17:51:07Z</time>
      </trkpt>
      <trkpt lat="43.78414" lon="5.88754">
        <ele>505.2</ele>
        <time>2020-06-20T17:51:09Z</time>
      </trkpt>
      <trkpt lat="43.78415" lon="5.88748">
        <ele>505.1</ele>
        <time>2020-06-20T17:51:10Z</time>
      </trkpt>
      <trkpt lat="43.78415" lon="5.88741">
        <ele>505</ele>
        <time>2020-06-20T17:51:11Z</time>
      </trkpt>
      <trkpt lat="43.78416" lon="5.88736">
        <ele>505</ele>
        <time>2020-06-20T17:51:12Z</time>
      </trkpt>
      <trkpt lat="43.78416" lon="5.88723">
        <ele>505.1</ele>
        <time>2020-06-20T17:51:14Z</time>
      </trkpt>
      <trkpt lat="43.78415" lon="5.88712">
        <ele>505.2</ele>
        <time>2020-06-20T17:51:16Z</time>
      </trkpt>
      <trkpt lat="43.78414" lon="5.88707">
        <ele>505.3</ele>
        <time>2020-06-20T17:51:17Z</time>
      </trkpt>
      <trkpt lat="43.78414" lon="5.88698">
        <ele>505.5</ele>
        <time>2020-06-20T17:51:18Z</time>
      </trkpt>
      <trkpt lat="43.78413" lon="5.8869">
        <ele>505.7</ele>
        <time>2020-06-20T17:51:20Z</time>
      </trkpt>
      <trkpt lat="43.78412" lon="5.88686">
        <ele>505.8</ele>
        <time>2020-06-20T17:51:21Z</time>
      </trkpt>
      <trkpt lat="43.78411" lon="5.8868">
        <ele>505.9</ele>
        <time>2020-06-20T17:51:22Z</time>
      </trkpt>
      <trkpt lat="43.7841" lon="5.88675">
        <ele>506</ele>
        <time>2020-06-20T17:51:23Z</time>
      </trkpt>
      <trkpt lat="43.7841" lon="5.88669">
        <ele>506.1</ele>
        <time>2020-06-20T17:51:25Z</time>
      </trkpt>
      <trkpt lat="43.78409" lon="5.88664">
        <ele>506.2</ele>
        <time>2020-06-20T17:51:26Z</time>
      </trkpt>
      <trkpt lat="43.78409" lon="5.8866">
        <ele>506.2</ele>
        <time>2020-06-20T17:51:27Z</time>
      </trkpt>
      <trkpt lat="43.78409" lon="5.88656">
        <ele>506.3</ele>
        <time>2020-06-20T17:51:28Z</time>
      </trkpt>
      <trkpt lat="43.78409" lon="5.88647">
        <ele>506.4</ele>
        <time>2020-06-20T17:51:30Z</time>
      </trkpt>
      <trkpt lat="43.78409" lon="5.88642">
        <ele>506.5</ele>
        <time>2020-06-20T17:51:31Z</time>
      </trkpt>
      <trkpt lat="43.7841" lon="5.88635">
        <ele>506.6</ele>
        <time>2020-06-20T17:51:32Z</time>
      </trkpt>
      <trkpt lat="43.78409" lon="5.8863">
        <ele>506.8</ele>
        <time>2020-06-20T17:51:33Z</time>
      </trkpt>
      <trkpt lat="43.78408" lon="5.88621">
        <ele>506.9</ele>
        <time>2020-06-20T17:51:35Z</time>
      </trkpt>
      <trkpt lat="43.78408" lon="5.88616">
        <ele>507</ele>
        <time>2020-06-20T17:51:37Z</time>
      </trkpt>
      <trkpt lat="43.78407" lon="5.88611">
        <ele>507.2</ele>
        <time>2020-06-20T17:51:38Z</time>
      </trkpt>
      <trkpt lat="43.78407" lon="5.88604">
        <ele>507.3</ele>
        <time>2020-06-20T17:51:39Z</time>
      </trkpt>
      <trkpt lat="43.78407" lon="5.88597">
        <ele>507.4</ele>
        <time>2020-06-20T17:51:41Z</time>
      </trkpt>
      <trkpt lat="43.78407" lon="5.8859">
        <ele>507.5</ele>
        <time>2020-06-20T17:51:42Z</time>
      </trkpt>
      <trkpt lat="43.78406" lon="5.88584">
        <ele>507.5</ele>
        <time>2020-06-20T17:51:43Z</time>
      </trkpt>
      <trkpt lat="43.78406" lon="5.88579">
        <ele>507.6</ele>
        <time>2020-06-20T17:51:45Z</time>
      </trkpt>
      <trkpt lat="43.78407" lon="5.88575">
        <ele>507.6</ele>
        <time>2020-06-20T17:51:46Z</time>
      </trkpt>
      <trkpt lat="43.78407" lon="5.88566">
        <ele>507.7</ele>
        <time>2020-06-20T17:51:48Z</time>
      </trkpt>
      <trkpt lat="43.78408" lon="5.88561">
        <ele>507.7</ele>
        <time>2020-06-20T17:51:49Z</time>
      </trkpt>
      <trkpt lat="43.78409" lon="5.88554">
        <ele>507.8</ele>
        <time>2020-06-20T17:51:50Z</time>
      </trkpt>
      <trkpt lat="43.78409" lon="5.88548">
        <ele>507.8</ele>
        <time>2020-06-20T17:51:51Z</time>
      </trkpt>
      <trkpt lat="43.78409" lon="5.8854">
        <ele>508</ele>
        <time>2020-06-20T17:51:53Z</time>
      </trkpt>
      <trkpt lat="43.78409" lon="5.88534">
        <ele>508</ele>
        <time>2020-06-20T17:51:54Z</time>
      </trkpt>
      <trkpt lat="43.7841" lon="5.88527">
        <ele>508.1</ele>
        <time>2020-06-20T17:51:56Z</time>
      </trkpt>
      <trkpt lat="43.7841" lon="5.88521">
        <ele>508.2</ele>
        <time>2020-06-20T17:51:57Z</time>
      </trkpt>
      <trkpt lat="43.7841" lon="5.88513">
        <ele>508.3</ele>
        <time>2020-06-20T17:51:58Z</time>
      </trkpt>
      <trkpt lat="43.7841" lon="5.88507">
        <ele>508.3</ele>
        <time>2020-06-20T17:51:59Z</time>
      </trkpt>
      <trkpt lat="43.7841" lon="5.885">
        <ele>508.4</ele>
        <time>2020-06-20T17:52:01Z</time>
      </trkpt>
      <trkpt lat="43.78411" lon="5.88494">
        <ele>508.4</ele>
        <time>2020-06-20T17:52:02Z</time>
      </trkpt>
      <trkpt lat="43.78411" lon="5.88486">
        <ele>508.4</ele>
        <time>2020-06-20T17:52:04Z</time>
      </trkpt>
      <trkpt lat="43.78411" lon="5.88477">
        <ele>508.4</ele>
        <time>2020-06-20T17:52:06Z</time>
      </trkpt>
      <trkpt lat="43.78411" lon="5.8847">
        <ele>508.4</ele>
        <time>2020-06-20T17:52:07Z</time>
      </trkpt>
      <trkpt lat="43.78412" lon="5.88461">
        <ele>508.4</ele>
        <time>2020-06-20T17:52:09Z</time>
      </trkpt>
      <trkpt lat="43.78411" lon="5.88455">
        <ele>508.4</ele>
        <time>2020-06-20T17:52:10Z</time>
      </trkpt>
      <trkpt lat="43.78411" lon="5.8845">
        <ele>508.4</ele>
        <time>2020-06-20T17:52:11Z</time>
      </trkpt>
      <trkpt lat="43.7841" lon="5.8844">
        <ele>508.4</ele>
        <time>2020-06-20T17:52:13Z</time>
      </trkpt>
      <trkpt lat="43.7841" lon="5.88433">
        <ele>508.4</ele>
        <time>2020-06-20T17:52:15Z</time>
      </trkpt>
      <trkpt lat="43.78409" lon="5.88427">
        <ele>508.5</ele>
        <time>2020-06-20T17:52:16Z</time>
      </trkpt>
      <trkpt lat="43.78409" lon="5.88421">
        <ele>508.6</ele>
        <time>2020-06-20T17:52:17Z</time>
      </trkpt>
      <trkpt lat="43.78409" lon="5.88415">
        <ele>508.6</ele>
        <time>2020-06-20T17:52:18Z</time>
      </trkpt>
      <trkpt lat="43.78408" lon="5.88407">
        <ele>508.8</ele>
        <time>2020-06-20T17:52:20Z</time>
      </trkpt>
      <trkpt lat="43.78407" lon="5.88401">
        <ele>508.8</ele>
        <time>2020-06-20T17:52:21Z</time>
      </trkpt>
      <trkpt lat="43.78406" lon="5.88395">
        <ele>508.9</ele>
        <time>2020-06-20T17:52:22Z</time>
      </trkpt>
      <trkpt lat="43.78404" lon="5.88386">
        <ele>508.9</ele>
        <time>2020-06-20T17:52:24Z</time>
      </trkpt>
      <trkpt lat="43.78403" lon="5.88381">
        <ele>508.9</ele>
        <time>2020-06-20T17:52:25Z</time>
      </trkpt>
      <trkpt lat="43.78401" lon="5.88374">
        <ele>508.9</ele>
        <time>2020-06-20T17:52:27Z</time>
      </trkpt>
      <trkpt lat="43.78399" lon="5.88367">
        <ele>508.9</ele>
        <time>2020-06-20T17:52:28Z</time>
      </trkpt>
      <trkpt lat="43.78397" lon="5.88361">
        <ele>509</ele>
        <time>2020-06-20T17:52:30Z</time>
      </trkpt>
      <trkpt lat="43.78395" lon="5.88356">
        <ele>509</ele>
        <time>2020-06-20T17:52:31Z</time>
      </trkpt>
      <trkpt lat="43.78394" lon="5.88351">
        <ele>509</ele>
        <time>2020-06-20T17:52:32Z</time>
      </trkpt>
      <trkpt lat="43.78392" lon="5.88346">
        <ele>509.1</ele>
        <time>2020-06-20T17:52:33Z</time>
      </trkpt>
      <trkpt lat="43.7839" lon="5.8834">
        <ele>509.2</ele>
        <time>2020-06-20T17:52:34Z</time>
      </trkpt>
      <trkpt lat="43.78388" lon="5.88336">
        <ele>509.3</ele>
        <time>2020-06-20T17:52:36Z</time>
      </trkpt>
      <trkpt lat="43.78386" lon="5.88331">
        <ele>509.3</ele>
        <time>2020-06-20T17:52:37Z</time>
      </trkpt>
      <trkpt lat="43.78384" lon="5.88325">
        <ele>509.4</ele>
        <time>2020-06-20T17:52:38Z</time>
      </trkpt>
      <trkpt lat="43.7838" lon="5.88316">
        <ele>509.4</ele>
        <time>2020-06-20T17:52:40Z</time>
      </trkpt>
      <trkpt lat="43.78377" lon="5.88308">
        <ele>509.3</ele>
        <time>2020-06-20T17:52:42Z</time>
      </trkpt>
      <trkpt lat="43.78374" lon="5.88301">
        <ele>509.2</ele>
        <time>2020-06-20T17:52:44Z</time>
      </trkpt>
      <trkpt lat="43.78372" lon="5.88296">
        <ele>509.2</ele>
        <time>2020-06-20T17:52:45Z</time>
      </trkpt>
      <trkpt lat="43.7837" lon="5.88292">
        <ele>509.2</ele>
        <time>2020-06-20T17:52:46Z</time>
      </trkpt>
      <trkpt lat="43.78369" lon="5.88288">
        <ele>509.1</ele>
        <time>2020-06-20T17:52:47Z</time>
      </trkpt>
      <trkpt lat="43.78367" lon="5.88282">
        <ele>509.1</ele>
        <time>2020-06-20T17:52:48Z</time>
      </trkpt>
      <trkpt lat="43.78365" lon="5.88276">
        <ele>509</ele>
        <time>2020-06-20T17:52:50Z</time>
      </trkpt>
      <trkpt lat="43.78363" lon="5.88269">
        <ele>508.9</ele>
        <time>2020-06-20T17:52:51Z</time>
      </trkpt>
      <trkpt lat="43.78359" lon="5.88261">
        <ele>508.9</ele>
        <time>2020-06-20T17:52:53Z</time>
      </trkpt>
      <trkpt lat="43.78356" lon="5.88255">
        <ele>508.8</ele>
        <time>2020-06-20T17:52:54Z</time>
      </trkpt>
      <trkpt lat="43.78353" lon="5.88248">
        <ele>508.7</ele>
        <time>2020-06-20T17:52:56Z</time>
      </trkpt>
      <trkpt lat="43.7835" lon="5.88243">
        <ele>508.6</ele>
        <time>2020-06-20T17:52:57Z</time>
      </trkpt>
      <trkpt lat="43.78348" lon="5.88238">
        <ele>508.5</ele>
        <time>2020-06-20T17:52:58Z</time>
      </trkpt>
      <trkpt lat="43.78344" lon="5.8823">
        <ele>508.3</ele>
        <time>2020-06-20T17:53:00Z</time>
      </trkpt>
      <trkpt lat="43.7834" lon="5.8822">
        <ele>508</ele>
        <time>2020-06-20T17:53:01Z</time>
      </trkpt>
      <trkpt lat="43.78336" lon="5.88214">
        <ele>507.8</ele>
        <time>2020-06-20T17:53:02Z</time>
      </trkpt>
      <trkpt lat="43.7833" lon="5.88202">
        <ele>507.3</ele>
        <time>2020-06-20T17:53:04Z</time>
      </trkpt>
      <trkpt lat="43.78324" lon="5.88191">
        <ele>506.8</ele>
        <time>2020-06-20T17:53:06Z</time>
      </trkpt>
      <trkpt lat="43.78316" lon="5.8818">
        <ele>506.2</ele>
        <time>2020-06-20T17:53:08Z</time>
      </trkpt>
      <trkpt lat="43.78308" lon="5.88168">
        <ele>505.5</ele>
        <time>2020-06-20T17:53:10Z</time>
      </trkpt>
      <trkpt lat="43.78299" lon="5.88155">
        <ele>505</ele>
        <time>2020-06-20T17:53:12Z</time>
      </trkpt>
      <trkpt lat="43.7829" lon="5.88143">
        <ele>504.5</ele>
        <time>2020-06-20T17:53:14Z</time>
      </trkpt>
      <trkpt lat="43.78281" lon="5.88131">
        <ele>504.1</ele>
        <time>2020-06-20T17:53:16Z</time>
      </trkpt>
      <trkpt lat="43.78274" lon="5.8812">
        <ele>503.8</ele>
        <time>2020-06-20T17:53:18Z</time>
      </trkpt>
      <trkpt lat="43.7827" lon="5.88115">
        <ele>503.7</ele>
        <time>2020-06-20T17:53:19Z</time>
      </trkpt>
      <trkpt lat="43.78264" lon="5.88104">
        <ele>503.5</ele>
        <time>2020-06-20T17:53:21Z</time>
      </trkpt>
      <trkpt lat="43.78261" lon="5.88099">
        <ele>503.4</ele>
        <time>2020-06-20T17:53:22Z</time>
      </trkpt>
      <trkpt lat="43.78257" lon="5.88088">
        <ele>503.4</ele>
        <time>2020-06-20T17:53:24Z</time>
      </trkpt>
      <trkpt lat="43.78254" lon="5.88078">
        <ele>503.4</ele>
        <time>2020-06-20T17:53:26Z</time>
      </trkpt>
      <trkpt lat="43.78253" lon="5.88073">
        <ele>503.3</ele>
        <time>2020-06-20T17:53:27Z</time>
      </trkpt>
      <trkpt lat="43.7825" lon="5.88062">
        <ele>503.3</ele>
        <time>2020-06-20T17:53:29Z</time>
      </trkpt>
      <trkpt lat="43.78246" lon="5.88049">
        <ele>503.3</ele>
        <time>2020-06-20T17:53:31Z</time>
      </trkpt>
      <trkpt lat="43.78249" lon="5.88046">
        <ele>503.4</ele>
        <time>2020-06-20T17:53:32Z</time>
      </trkpt>
      <trkpt lat="43.78248" lon="5.88041">
        <ele>503.4</ele>
        <time>2020-06-20T17:53:34Z</time>
      </trkpt>
      <trkpt lat="43.78242" lon="5.88032">
        <ele>503.4</ele>
        <time>2020-06-20T17:53:35Z</time>
      </trkpt>
      <trkpt lat="43.78237" lon="5.88025">
        <ele>503.4</ele>
        <time>2020-06-20T17:53:37Z</time>
      </trkpt>
      <trkpt lat="43.78232" lon="5.88018">
        <ele>503.4</ele>
        <time>2020-06-20T17:53:38Z</time>
      </trkpt>
      <trkpt lat="43.78229" lon="5.88013">
        <ele>503.4</ele>
        <time>2020-06-20T17:53:39Z</time>
      </trkpt>
      <trkpt lat="43.78224" lon="5.88007">
        <ele>503.3</ele>
        <time>2020-06-20T17:53:41Z</time>
      </trkpt>
      <trkpt lat="43.78221" lon="5.88002">
        <ele>503.2</ele>
        <time>2020-06-20T17:53:42Z</time>
      </trkpt>
      <trkpt lat="43.78218" lon="5.87998">
        <ele>503.2</ele>
        <time>2020-06-20T17:53:43Z</time>
      </trkpt>
      <trkpt lat="43.78214" lon="5.87993">
        <ele>503.1</ele>
        <time>2020-06-20T17:53:44Z</time>
      </trkpt>
      <trkpt lat="43.78211" lon="5.87989">
        <ele>503</ele>
        <time>2020-06-20T17:53:45Z</time>
      </trkpt>
      <trkpt lat="43.78206" lon="5.87982">
        <ele>502.9</ele>
        <time>2020-06-20T17:53:47Z</time>
      </trkpt>
      <trkpt lat="43.78203" lon="5.87976">
        <ele>502.8</ele>
        <time>2020-06-20T17:53:48Z</time>
      </trkpt>
      <trkpt lat="43.782" lon="5.87972">
        <ele>502.7</ele>
        <time>2020-06-20T17:53:49Z</time>
      </trkpt>
      <trkpt lat="43.78197" lon="5.87964">
        <ele>502.5</ele>
        <time>2020-06-20T17:53:51Z</time>
      </trkpt>
      <trkpt lat="43.78193" lon="5.87957">
        <ele>502.4</ele>
        <time>2020-06-20T17:53:52Z</time>
      </trkpt>
      <trkpt lat="43.7819" lon="5.87949">
        <ele>502.2</ele>
        <time>2020-06-20T17:53:54Z</time>
      </trkpt>
      <trkpt lat="43.78187" lon="5.87942">
        <ele>502</ele>
        <time>2020-06-20T17:53:55Z</time>
      </trkpt>
      <trkpt lat="43.78183" lon="5.87935">
        <ele>501.8</ele>
        <time>2020-06-20T17:53:56Z</time>
      </trkpt>
      <trkpt lat="43.7818" lon="5.87929">
        <ele>501.7</ele>
        <time>2020-06-20T17:53:57Z</time>
      </trkpt>
      <trkpt lat="43.78176" lon="5.87916">
        <ele>501.3</ele>
        <time>2020-06-20T17:53:59Z</time>
      </trkpt>
      <trkpt lat="43.78175" lon="5.8791">
        <ele>501.1</ele>
        <time>2020-06-20T17:54:00Z</time>
      </trkpt>
      <trkpt lat="43.78174" lon="5.87905">
        <ele>501</ele>
        <time>2020-06-20T17:54:01Z</time>
      </trkpt>
      <trkpt lat="43.78173" lon="5.87898">
        <ele>500.8</ele>
        <time>2020-06-20T17:54:02Z</time>
      </trkpt>
      <trkpt lat="43.78172" lon="5.87891">
        <ele>500.6</ele>
        <time>2020-06-20T17:54:03Z</time>
      </trkpt>
      <trkpt lat="43.78167" lon="5.87881">
        <ele>500.3</ele>
        <time>2020-06-20T17:54:05Z</time>
      </trkpt>
      <trkpt lat="43.78164" lon="5.87873">
        <ele>500</ele>
        <time>2020-06-20T17:54:06Z</time>
      </trkpt>
      <trkpt lat="43.78157" lon="5.87858">
        <ele>499.6</ele>
        <time>2020-06-20T17:54:08Z</time>
      </trkpt>
      <trkpt lat="43.78153" lon="5.87853">
        <ele>499.5</ele>
        <time>2020-06-20T17:54:09Z</time>
      </trkpt>
      <trkpt lat="43.78149" lon="5.87848">
        <ele>499.4</ele>
        <time>2020-06-20T17:54:10Z</time>
      </trkpt>
      <trkpt lat="43.7814" lon="5.87841">
        <ele>499.3</ele>
        <time>2020-06-20T17:54:12Z</time>
      </trkpt>
      <trkpt lat="43.78133" lon="5.87836">
        <ele>499.3</ele>
        <time>2020-06-20T17:54:14Z</time>
      </trkpt>
      <trkpt lat="43.78126" lon="5.87827">
        <ele>499.3</ele>
        <time>2020-06-20T17:54:16Z</time>
      </trkpt>
      <trkpt lat="43.78123" lon="5.87823">
        <ele>499.3</ele>
        <time>2020-06-20T17:54:17Z</time>
      </trkpt>
      <trkpt lat="43.78118" lon="5.87817">
        <ele>499.3</ele>
        <time>2020-06-20T17:54:19Z</time>
      </trkpt>
      <trkpt lat="43.78115" lon="5.87811">
        <ele>499.3</ele>
        <time>2020-06-20T17:54:20Z</time>
      </trkpt>
      <trkpt lat="43.7811" lon="5.87803">
        <ele>499.3</ele>
        <time>2020-06-20T17:54:22Z</time>
      </trkpt>
      <trkpt lat="43.78107" lon="5.87798">
        <ele>499.3</ele>
        <time>2020-06-20T17:54:23Z</time>
      </trkpt>
      <trkpt lat="43.78104" lon="5.87793">
        <ele>499.3</ele>
        <time>2020-06-20T17:54:24Z</time>
      </trkpt>
      <trkpt lat="43.78101" lon="5.87788">
        <ele>499.3</ele>
        <time>2020-06-20T17:54:25Z</time>
      </trkpt>
      <trkpt lat="43.78093" lon="5.87777">
        <ele>499.2</ele>
        <time>2020-06-20T17:54:27Z</time>
      </trkpt>
      <trkpt lat="43.78089" lon="5.87772">
        <ele>499.2</ele>
        <time>2020-06-20T17:54:28Z</time>
      </trkpt>
      <trkpt lat="43.78086" lon="5.87767">
        <ele>499.1</ele>
        <time>2020-06-20T17:54:29Z</time>
      </trkpt>
      <trkpt lat="43.78081" lon="5.87762">
        <ele>499</ele>
        <time>2020-06-20T17:54:31Z</time>
      </trkpt>
      <trkpt lat="43.78077" lon="5.87757">
        <ele>498.9</ele>
        <time>2020-06-20T17:54:32Z</time>
      </trkpt>
      <trkpt lat="43.78071" lon="5.8775">
        <ele>498.7</ele>
        <time>2020-06-20T17:54:34Z</time>
      </trkpt>
      <trkpt lat="43.78067" lon="5.87743">
        <ele>498.6</ele>
        <time>2020-06-20T17:54:35Z</time>
      </trkpt>
      <trkpt lat="43.78061" lon="5.87736">
        <ele>498.4</ele>
        <time>2020-06-20T17:54:37Z</time>
      </trkpt>
      <trkpt lat="43.78057" lon="5.87733">
        <ele>498.2</ele>
        <time>2020-06-20T17:54:38Z</time>
      </trkpt>
      <trkpt lat="43.78051" lon="5.87729">
        <ele>498</ele>
        <time>2020-06-20T17:54:40Z</time>
      </trkpt>
      <trkpt lat="43.78047" lon="5.87727">
        <ele>497.9</ele>
        <time>2020-06-20T17:54:41Z</time>
      </trkpt>
      <trkpt lat="43.78045" lon="5.87726">
        <ele>497.8</ele>
        <time>2020-06-20T17:54:43Z</time>
      </trkpt>
      <trkpt lat="43.78044" lon="5.87726">
        <ele>497.8</ele>
        <time>2020-06-20T17:54:44Z</time>
      </trkpt>
      <trkpt lat="43.78044" lon="5.87726">
        <ele>497.8</ele>
        <time>2020-06-20T17:54:45Z</time>
      </trkpt>
      <trkpt lat="43.78044" lon="5.87727">
        <ele>497.8</ele>
        <time>2020-06-20T17:54:46Z</time>
      </trkpt>
      <trkpt lat="43.78044" lon="5.87727">
        <ele>497.8</ele>
        <time>2020-06-20T17:54:48Z</time>
      </trkpt>
      <trkpt lat="43.78044" lon="5.87727">
        <ele>497.8</ele>
        <time>2020-06-20T17:54:49Z</time>
      </trkpt>
      <trkpt lat="43.78044" lon="5.87728">
        <ele>497.8</ele>
        <time>2020-06-20T17:54:51Z</time>
      </trkpt>
      <trkpt lat="43.78039" lon="5.87723">
        <ele>497.6</ele>
        <time>2020-06-20T17:57:16Z</time>
      </trkpt>
      <trkpt lat="43.78029" lon="5.87722">
        <ele>497.3</ele>
        <time>2020-06-20T17:57:18Z</time>
      </trkpt>
      <trkpt lat="43.78023" lon="5.87722">
        <ele>497.1</ele>
        <time>2020-06-20T17:57:19Z</time>
      </trkpt>
      <trkpt lat="43.78011" lon="5.87719">
        <ele>496.8</ele>
        <time>2020-06-20T17:57:21Z</time>
      </trkpt>
      <trkpt lat="43.78001" lon="5.87713">
        <ele>496.6</ele>
        <time>2020-06-20T17:57:23Z</time>
      </trkpt>
      <trkpt lat="43.77995" lon="5.8771">
        <ele>496.6</ele>
        <time>2020-06-20T17:57:24Z</time>
      </trkpt>
      <trkpt lat="43.77986" lon="5.87703">
        <ele>496.6</ele>
        <time>2020-06-20T17:57:26Z</time>
      </trkpt>
      <trkpt lat="43.77982" lon="5.87699">
        <ele>496.6</ele>
        <time>2020-06-20T17:57:27Z</time>
      </trkpt>
      <trkpt lat="43.77978" lon="5.87698">
        <ele>496.7</ele>
        <time>2020-06-20T17:57:29Z</time>
      </trkpt>
      <trkpt lat="43.77975" lon="5.87696">
        <ele>496.8</ele>
        <time>2020-06-20T17:57:30Z</time>
      </trkpt>
      <trkpt lat="43.77971" lon="5.87692">
        <ele>496.8</ele>
        <time>2020-06-20T17:57:31Z</time>
      </trkpt>
      <trkpt lat="43.77968" lon="5.87688">
        <ele>496.9</ele>
        <time>2020-06-20T17:57:32Z</time>
      </trkpt>
      <trkpt lat="43.77964" lon="5.87684">
        <ele>497.1</ele>
        <time>2020-06-20T17:57:33Z</time>
      </trkpt>
      <trkpt lat="43.77958" lon="5.87677">
        <ele>497.2</ele>
        <time>2020-06-20T17:57:35Z</time>
      </trkpt>
      <trkpt lat="43.77955" lon="5.87673">
        <ele>497.3</ele>
        <time>2020-06-20T17:57:36Z</time>
      </trkpt>
      <trkpt lat="43.77951" lon="5.87668">
        <ele>497.4</ele>
        <time>2020-06-20T17:57:38Z</time>
      </trkpt>
      <trkpt lat="43.77947" lon="5.87661">
        <ele>497.5</ele>
        <time>2020-06-20T17:57:39Z</time>
      </trkpt>
      <trkpt lat="43.77945" lon="5.87656">
        <ele>497.5</ele>
        <time>2020-06-20T17:57:40Z</time>
      </trkpt>
      <trkpt lat="43.7794" lon="5.87648">
        <ele>497.6</ele>
        <time>2020-06-20T17:57:42Z</time>
      </trkpt>
      <trkpt lat="43.77936" lon="5.87644">
        <ele>497.7</ele>
        <time>2020-06-20T17:57:43Z</time>
      </trkpt>
      <trkpt lat="43.7793" lon="5.87636">
        <ele>497.7</ele>
        <time>2020-06-20T17:57:44Z</time>
      </trkpt>
      <trkpt lat="43.77925" lon="5.87629">
        <ele>497.8</ele>
        <time>2020-06-20T17:57:46Z</time>
      </trkpt>
      <trkpt lat="43.77921" lon="5.87623">
        <ele>497.8</ele>
        <time>2020-06-20T17:57:48Z</time>
      </trkpt>
      <trkpt lat="43.77918" lon="5.87617">
        <ele>497.8</ele>
        <time>2020-06-20T17:57:49Z</time>
      </trkpt>
      <trkpt lat="43.77915" lon="5.87612">
        <ele>497.9</ele>
        <time>2020-06-20T17:57:50Z</time>
      </trkpt>
      <trkpt lat="43.77909" lon="5.87602">
        <ele>497.9</ele>
        <time>2020-06-20T17:57:52Z</time>
      </trkpt>
      <trkpt lat="43.77906" lon="5.87597">
        <ele>497.9</ele>
        <time>2020-06-20T17:57:53Z</time>
      </trkpt>
      <trkpt lat="43.77898" lon="5.87587">
        <ele>497.8</ele>
        <time>2020-06-20T17:57:55Z</time>
      </trkpt>
      <trkpt lat="43.77894" lon="5.87582">
        <ele>497.5</ele>
        <time>2020-06-20T17:57:56Z</time>
      </trkpt>
      <trkpt lat="43.77885" lon="5.87569">
        <ele>496.9</ele>
        <time>2020-06-20T17:57:58Z</time>
      </trkpt>
      <trkpt lat="43.7788" lon="5.87562">
        <ele>496.4</ele>
        <time>2020-06-20T17:57:59Z</time>
      </trkpt>
      <trkpt lat="43.7787" lon="5.87551">
        <ele>495.5</ele>
        <time>2020-06-20T17:58:01Z</time>
      </trkpt>
      <trkpt lat="43.77864" lon="5.87546">
        <ele>494.9</ele>
        <time>2020-06-20T17:58:02Z</time>
      </trkpt>
      <trkpt lat="43.77858" lon="5.87542">
        <ele>494.3</ele>
        <time>2020-06-20T17:58:03Z</time>
      </trkpt>
      <trkpt lat="43.77847" lon="5.87533">
        <ele>493</ele>
        <time>2020-06-20T17:58:05Z</time>
      </trkpt>
      <trkpt lat="43.77841" lon="5.87527">
        <ele>492.3</ele>
        <time>2020-06-20T17:58:06Z</time>
      </trkpt>
      <trkpt lat="43.77836" lon="5.87521">
        <ele>491.5</ele>
        <time>2020-06-20T17:58:07Z</time>
      </trkpt>
      <trkpt lat="43.7783" lon="5.87515">
        <ele>490.8</ele>
        <time>2020-06-20T17:58:08Z</time>
      </trkpt>
      <trkpt lat="43.77824" lon="5.87509">
        <ele>490.2</ele>
        <time>2020-06-20T17:58:09Z</time>
      </trkpt>
      <trkpt lat="43.77814" lon="5.87495">
        <ele>489.1</ele>
        <time>2020-06-20T17:58:11Z</time>
      </trkpt>
      <trkpt lat="43.77808" lon="5.87481">
        <ele>488.7</ele>
        <time>2020-06-20T17:58:13Z</time>
      </trkpt>
      <trkpt lat="43.77804" lon="5.87467">
        <ele>488.7</ele>
        <time>2020-06-20T17:58:15Z</time>
      </trkpt>
      <trkpt lat="43.77803" lon="5.87463">
        <ele>488.7</ele>
        <time>2020-06-20T17:58:16Z</time>
      </trkpt>
      <trkpt lat="43.77802" lon="5.87459">
        <ele>488.8</ele>
        <time>2020-06-20T17:58:17Z</time>
      </trkpt>
      <trkpt lat="43.778" lon="5.87455">
        <ele>489</ele>
        <time>2020-06-20T17:58:18Z</time>
      </trkpt>
      <trkpt lat="43.778" lon="5.87454">
        <ele>489</ele>
        <time>2020-06-20T17:58:19Z</time>
      </trkpt>
      <trkpt lat="43.77799" lon="5.87451">
        <ele>489.2</ele>
        <time>2020-06-20T17:58:21Z</time>
      </trkpt>
      <trkpt lat="43.77798" lon="5.87449">
        <ele>489.3</ele>
        <time>2020-06-20T17:58:22Z</time>
      </trkpt>
      <trkpt lat="43.77798" lon="5.87448">
        <ele>489.4</ele>
        <time>2020-06-20T17:58:23Z</time>
      </trkpt>
      <trkpt lat="43.77798" lon="5.87446">
        <ele>489.5</ele>
        <time>2020-06-20T17:58:24Z</time>
      </trkpt>
      <trkpt lat="43.77797" lon="5.87443">
        <ele>489.7</ele>
        <time>2020-06-20T17:58:26Z</time>
      </trkpt>
      <trkpt lat="43.77797" lon="5.87443">
        <ele>489.7</ele>
        <time>2020-06-20T17:58:28Z</time>
      </trkpt>
      <trkpt lat="43.77797" lon="5.87441">
        <ele>489.8</ele>
        <time>2020-06-20T17:58:29Z</time>
      </trkpt>
      <trkpt lat="43.77797" lon="5.8744">
        <ele>489.9</ele>
        <time>2020-06-20T17:58:30Z</time>
      </trkpt>
      <trkpt lat="43.77797" lon="5.87436">
        <ele>490.2</ele>
        <time>2020-06-20T17:58:32Z</time>
      </trkpt>
      <trkpt lat="43.77797" lon="5.87435">
        <ele>490.3</ele>
        <time>2020-06-20T17:58:33Z</time>
      </trkpt>
      <trkpt lat="43.77797" lon="5.87434">
        <ele>490.4</ele>
        <time>2020-06-20T17:58:34Z</time>
      </trkpt>
      <trkpt lat="43.77797" lon="5.87433">
        <ele>490.5</ele>
        <time>2020-06-20T17:58:35Z</time>
      </trkpt>
      <trkpt lat="43.77796" lon="5.8743">
        <ele>490.7</ele>
        <time>2020-06-20T17:58:37Z</time>
      </trkpt>
      <trkpt lat="43.77796" lon="5.8743">
        <ele>490.8</ele>
        <time>2020-06-20T17:58:38Z</time>
      </trkpt>
      <trkpt lat="43.77796" lon="5.87429">
        <ele>490.8</ele>
        <time>2020-06-20T17:58:39Z</time>
      </trkpt>
      <trkpt lat="43.77795" lon="5.87426">
        <ele>491.1</ele>
        <time>2020-06-20T17:58:41Z</time>
      </trkpt>
      <trkpt lat="43.77794" lon="5.87426">
        <ele>491.2</ele>
        <time>2020-06-20T17:58:42Z</time>
      </trkpt>
      <trkpt lat="43.77793" lon="5.87425">
        <ele>491.3</ele>
        <time>2020-06-20T17:58:43Z</time>
      </trkpt>
      <trkpt lat="43.77793" lon="5.87424">
        <ele>491.4</ele>
        <time>2020-06-20T17:58:45Z</time>
      </trkpt>
      <trkpt lat="43.77792" lon="5.87423">
        <ele>491.5</ele>
        <time>2020-06-20T17:58:46Z</time>
      </trkpt>
      <trkpt lat="43.77791" lon="5.87423">
        <ele>491.6</ele>
        <time>2020-06-20T17:58:48Z</time>
      </trkpt>
      <trkpt lat="43.77791" lon="5.87422">
        <ele>491.8</ele>
        <time>2020-06-20T17:58:49Z</time>
      </trkpt>
      <trkpt lat="43.7779" lon="5.87421">
        <ele>491.9</ele>
        <time>2020-06-20T17:58:50Z</time>
      </trkpt>
      <trkpt lat="43.77789" lon="5.8742">
        <ele>492.1</ele>
        <time>2020-06-20T17:58:51Z</time>
      </trkpt>
      <trkpt lat="43.77788" lon="5.87419">
        <ele>492.3</ele>
        <time>2020-06-20T17:58:53Z</time>
      </trkpt>
      <trkpt lat="43.77787" lon="5.8742">
        <ele>492.4</ele>
        <time>2020-06-20T17:58:55Z</time>
      </trkpt>
      <trkpt lat="43.77786" lon="5.87419">
        <ele>492.5</ele>
        <time>2020-06-20T17:58:56Z</time>
      </trkpt>
      <trkpt lat="43.77786" lon="5.87418">
        <ele>492.6</ele>
        <time>2020-06-20T17:58:57Z</time>
      </trkpt>
      <trkpt lat="43.77784" lon="5.87415">
        <ele>492.9</ele>
        <time>2020-06-20T17:58:59Z</time>
      </trkpt>
      <trkpt lat="43.77782" lon="5.87411">
        <ele>493.3</ele>
        <time>2020-06-20T17:59:00Z</time>
      </trkpt>
      <trkpt lat="43.77782" lon="5.8741">
        <ele>493.5</ele>
        <time>2020-06-20T17:59:01Z</time>
      </trkpt>
      <trkpt lat="43.77781" lon="5.87408">
        <ele>493.7</ele>
        <time>2020-06-20T17:59:02Z</time>
      </trkpt>
      <trkpt lat="43.7778" lon="5.87406">
        <ele>493.9</ele>
        <time>2020-06-20T17:59:03Z</time>
      </trkpt>
      <trkpt lat="43.77778" lon="5.87402">
        <ele>494.3</ele>
        <time>2020-06-20T17:59:05Z</time>
      </trkpt>
      <trkpt lat="43.77778" lon="5.87401">
        <ele>494.4</ele>
        <time>2020-06-20T17:59:06Z</time>
      </trkpt>
      <trkpt lat="43.77776" lon="5.87397">
        <ele>494.8</ele>
        <time>2020-06-20T17:59:07Z</time>
      </trkpt>
      <trkpt lat="43.77772" lon="5.87394">
        <ele>495.2</ele>
        <time>2020-06-20T17:59:08Z</time>
      </trkpt>
      <trkpt lat="43.7777" lon="5.87391">
        <ele>495.6</ele>
        <time>2020-06-20T17:59:10Z</time>
      </trkpt>
      <trkpt lat="43.77767" lon="5.87388">
        <ele>495.9</ele>
        <time>2020-06-20T17:59:11Z</time>
      </trkpt>
      <trkpt lat="43.77766" lon="5.87386">
        <ele>496</ele>
        <time>2020-06-20T17:59:12Z</time>
      </trkpt>
      <trkpt lat="43.77764" lon="5.87383">
        <ele>496.3</ele>
        <time>2020-06-20T17:59:14Z</time>
      </trkpt>
      <trkpt lat="43.77763" lon="5.87381">
        <ele>496.4</ele>
        <time>2020-06-20T17:59:15Z</time>
      </trkpt>
      <trkpt lat="43.77761" lon="5.87377">
        <ele>496.7</ele>
        <time>2020-06-20T17:59:16Z</time>
      </trkpt>
      <trkpt lat="43.77761" lon="5.87376">
        <ele>496.7</ele>
        <time>2020-06-20T17:59:17Z</time>
      </trkpt>
      <trkpt lat="43.7776" lon="5.87373">
        <ele>496.9</ele>
        <time>2020-06-20T17:59:18Z</time>
      </trkpt>
      <trkpt lat="43.77759" lon="5.87369">
        <ele>497.1</ele>
        <time>2020-06-20T17:59:20Z</time>
      </trkpt>
      <trkpt lat="43.77758" lon="5.87367">
        <ele>497.2</ele>
        <time>2020-06-20T17:59:21Z</time>
      </trkpt>
      <trkpt lat="43.77756" lon="5.87361">
        <ele>497.5</ele>
        <time>2020-06-20T17:59:23Z</time>
      </trkpt>
      <trkpt lat="43.77755" lon="5.87357">
        <ele>497.7</ele>
        <time>2020-06-20T17:59:24Z</time>
      </trkpt>
      <trkpt lat="43.77755" lon="5.87355">
        <ele>497.7</ele>
        <time>2020-06-20T17:59:25Z</time>
      </trkpt>
      <trkpt lat="43.77754" lon="5.87352">
        <ele>497.8</ele>
        <time>2020-06-20T17:59:26Z</time>
      </trkpt>
      <trkpt lat="43.77753" lon="5.8735">
        <ele>497.9</ele>
        <time>2020-06-20T17:59:28Z</time>
      </trkpt>
      <trkpt lat="43.77753" lon="5.87347">
        <ele>498</ele>
        <time>2020-06-20T17:59:29Z</time>
      </trkpt>
      <trkpt lat="43.77752" lon="5.87345">
        <ele>498.1</ele>
        <time>2020-06-20T17:59:30Z</time>
      </trkpt>
      <trkpt lat="43.77751" lon="5.87343">
        <ele>498.1</ele>
        <time>2020-06-20T17:59:31Z</time>
      </trkpt>
      <trkpt lat="43.7775" lon="5.87341">
        <ele>498.2</ele>
        <time>2020-06-20T17:59:33Z</time>
      </trkpt>
      <trkpt lat="43.77748" lon="5.87341">
        <ele>498.3</ele>
        <time>2020-06-20T17:59:34Z</time>
      </trkpt>
      <trkpt lat="43.77746" lon="5.87342">
        <ele>498.3</ele>
        <time>2020-06-20T17:59:35Z</time>
      </trkpt>
      <trkpt lat="43.77743" lon="5.87344">
        <ele>498.3</ele>
        <time>2020-06-20T17:59:36Z</time>
      </trkpt>
      <trkpt lat="43.77741" lon="5.87344">
        <ele>498.3</ele>
        <time>2020-06-20T17:59:37Z</time>
      </trkpt>
      <trkpt lat="43.77737" lon="5.87344">
        <ele>498.3</ele>
        <time>2020-06-20T17:59:38Z</time>
      </trkpt>
      <trkpt lat="43.77733" lon="5.87344">
        <ele>498.3</ele>
        <time>2020-06-20T17:59:40Z</time>
      </trkpt>
      <trkpt lat="43.77729" lon="5.87345">
        <ele>498.3</ele>
        <time>2020-06-20T17:59:41Z</time>
      </trkpt>
      <trkpt lat="43.77723" lon="5.87346">
        <ele>498.4</ele>
        <time>2020-06-20T17:59:43Z</time>
      </trkpt>
      <trkpt lat="43.77719" lon="5.87348">
        <ele>498.4</ele>
        <time>2020-06-20T17:59:44Z</time>
      </trkpt>
      <trkpt lat="43.77714" lon="5.87349">
        <ele>498.3</ele>
        <time>2020-06-20T17:59:45Z</time>
      </trkpt>
      <trkpt lat="43.77707" lon="5.87351">
        <ele>498.3</ele>
        <time>2020-06-20T17:59:47Z</time>
      </trkpt>
      <trkpt lat="43.77701" lon="5.87353">
        <ele>498.3</ele>
        <time>2020-06-20T17:59:49Z</time>
      </trkpt>
      <trkpt lat="43.77694" lon="5.87355">
        <ele>498.3</ele>
        <time>2020-06-20T17:59:50Z</time>
      </trkpt>
      <trkpt lat="43.77689" lon="5.87356">
        <ele>498.2</ele>
        <time>2020-06-20T17:59:52Z</time>
      </trkpt>
      <trkpt lat="43.77684" lon="5.87358">
        <ele>498.2</ele>
        <time>2020-06-20T17:59:53Z</time>
      </trkpt>
      <trkpt lat="43.77679" lon="5.87359">
        <ele>498.2</ele>
        <time>2020-06-20T17:59:54Z</time>
      </trkpt>
      <trkpt lat="43.77675" lon="5.8736">
        <ele>498.2</ele>
        <time>2020-06-20T17:59:55Z</time>
      </trkpt>
      <trkpt lat="43.77671" lon="5.87361">
        <ele>498.2</ele>
        <time>2020-06-20T17:59:56Z</time>
      </trkpt>
      <trkpt lat="43.77667" lon="5.87362">
        <ele>498.1</ele>
        <time>2020-06-20T17:59:57Z</time>
      </trkpt>
      <trkpt lat="43.77661" lon="5.87364">
        <ele>498.1</ele>
        <time>2020-06-20T17:59:59Z</time>
      </trkpt>
      <trkpt lat="43.77656" lon="5.87365">
        <ele>498.1</ele>
        <time>2020-06-20T18:00:00Z</time>
      </trkpt>
      <trkpt lat="43.77649" lon="5.87368">
        <ele>498.1</ele>
        <time>2020-06-20T18:00:02Z</time>
      </trkpt>
      <trkpt lat="43.77644" lon="5.87369">
        <ele>498.1</ele>
        <time>2020-06-20T18:00:03Z</time>
      </trkpt>
      <trkpt lat="43.7764" lon="5.87371">
        <ele>498</ele>
        <time>2020-06-20T18:00:04Z</time>
      </trkpt>
      <trkpt lat="43.77632" lon="5.87373">
        <ele>498</ele>
        <time>2020-06-20T18:00:06Z</time>
      </trkpt>
      <trkpt lat="43.77627" lon="5.87375">
        <ele>498</ele>
        <time>2020-06-20T18:00:07Z</time>
      </trkpt>
      <trkpt lat="43.77622" lon="5.87376">
        <ele>497.9</ele>
        <time>2020-06-20T18:00:08Z</time>
      </trkpt>
      <trkpt lat="43.77614" lon="5.87379">
        <ele>497.9</ele>
        <time>2020-06-20T18:00:10Z</time>
      </trkpt>
      <trkpt lat="43.77605" lon="5.87381">
        <ele>497.9</ele>
        <time>2020-06-20T18:00:12Z</time>
      </trkpt>
      <trkpt lat="43.77598" lon="5.87384">
        <ele>497.8</ele>
        <time>2020-06-20T18:00:14Z</time>
      </trkpt>
      <trkpt lat="43.77594" lon="5.87385">
        <ele>497.8</ele>
        <time>2020-06-20T18:00:15Z</time>
      </trkpt>
      <trkpt lat="43.77588" lon="5.87388">
        <ele>497.7</ele>
        <time>2020-06-20T18:00:17Z</time>
      </trkpt>
      <trkpt lat="43.77582" lon="5.8739">
        <ele>497.6</ele>
        <time>2020-06-20T18:00:18Z</time>
      </trkpt>
      <trkpt lat="43.77577" lon="5.87391">
        <ele>497.6</ele>
        <time>2020-06-20T18:00:19Z</time>
      </trkpt>
      <trkpt lat="43.77569" lon="5.8739">
        <ele>497.5</ele>
        <time>2020-06-20T18:00:21Z</time>
      </trkpt>
      <trkpt lat="43.77565" lon="5.8739">
        <ele>497.4</ele>
        <time>2020-06-20T18:00:22Z</time>
      </trkpt>
      <trkpt lat="43.7756" lon="5.87393">
        <ele>497.3</ele>
        <time>2020-06-20T18:00:24Z</time>
      </trkpt>
      <trkpt lat="43.77552" lon="5.874">
        <ele>497.2</ele>
        <time>2020-06-20T18:00:25Z</time>
      </trkpt>
      <trkpt lat="43.77547" lon="5.87403">
        <ele>497.1</ele>
        <time>2020-06-20T18:00:26Z</time>
      </trkpt>
      <trkpt lat="43.77539" lon="5.8741">
        <ele>496.9</ele>
        <time>2020-06-20T18:00:28Z</time>
      </trkpt>
      <trkpt lat="43.77534" lon="5.87413">
        <ele>496.8</ele>
        <time>2020-06-20T18:00:29Z</time>
      </trkpt>
      <trkpt lat="43.7753" lon="5.87416">
        <ele>496.7</ele>
        <time>2020-06-20T18:00:30Z</time>
      </trkpt>
      <trkpt lat="43.77521" lon="5.87423">
        <ele>496.5</ele>
        <time>2020-06-20T18:00:32Z</time>
      </trkpt>
      <trkpt lat="43.77513" lon="5.87431">
        <ele>496.3</ele>
        <time>2020-06-20T18:00:34Z</time>
      </trkpt>
      <trkpt lat="43.77503" lon="5.87437">
        <ele>496.1</ele>
        <time>2020-06-20T18:00:36Z</time>
      </trkpt>
      <trkpt lat="43.77498" lon="5.8744">
        <ele>496</ele>
        <time>2020-06-20T18:00:37Z</time>
      </trkpt>
      <trkpt lat="43.77488" lon="5.87444">
        <ele>495.8</ele>
        <time>2020-06-20T18:00:39Z</time>
      </trkpt>
      <trkpt lat="43.77483" lon="5.87445">
        <ele>495.6</ele>
        <time>2020-06-20T18:00:40Z</time>
      </trkpt>
      <trkpt lat="43.77472" lon="5.87446">
        <ele>495.4</ele>
        <time>2020-06-20T18:00:42Z</time>
      </trkpt>
      <trkpt lat="43.77465" lon="5.87449">
        <ele>495.1</ele>
        <time>2020-06-20T18:00:44Z</time>
      </trkpt>
      <trkpt lat="43.77461" lon="5.87451">
        <ele>495.1</ele>
        <time>2020-06-20T18:00:46Z</time>
      </trkpt>
      <trkpt lat="43.77458" lon="5.87452">
        <ele>495</ele>
        <time>2020-06-20T18:00:47Z</time>
      </trkpt>
      <trkpt lat="43.77459" lon="5.87452">
        <ele>495</ele>
        <time>2020-06-20T18:00:48Z</time>
      </trkpt>
      <trkpt lat="43.77459" lon="5.87453">
        <ele>495</ele>
        <time>2020-06-20T18:00:49Z</time>
      </trkpt>
      <trkpt lat="43.7746" lon="5.87454">
        <ele>495</ele>
        <time>2020-06-20T18:00:51Z</time>
      </trkpt>
      <trkpt lat="43.77461" lon="5.87455">
        <ele>494.9</ele>
        <time>2020-06-20T18:00:53Z</time>
      </trkpt>
      <trkpt lat="43.77463" lon="5.87458">
        <ele>494.9</ele>
        <time>2020-06-20T18:00:54Z</time>
      </trkpt>
      <trkpt lat="43.77464" lon="5.87459">
        <ele>494.9</ele>
        <time>2020-06-20T18:00:55Z</time>
      </trkpt>
      <trkpt lat="43.77466" lon="5.8746">
        <ele>494.8</ele>
        <time>2020-06-20T18:00:57Z</time>
      </trkpt>
      <trkpt lat="43.77467" lon="5.87461">
        <ele>494.8</ele>
        <time>2020-06-20T18:01:42Z</time>
      </trkpt>
      <trkpt lat="43.77469" lon="5.87462">
        <ele>494.8</ele>
        <time>2020-06-20T18:01:43Z</time>
      </trkpt>
      <trkpt lat="43.77473" lon="5.87467">
        <ele>494.6</ele>
        <time>2020-06-20T18:01:45Z</time>
      </trkpt>
      <trkpt lat="43.77472" lon="5.87472">
        <ele>494.6</ele>
        <time>2020-06-20T18:01:46Z</time>
      </trkpt>
      <trkpt lat="43.77471" lon="5.87474">
        <ele>494.5</ele>
        <time>2020-06-20T18:01:47Z</time>
      </trkpt>
      <trkpt lat="43.77465" lon="5.87477">
        <ele>494.4</ele>
        <time>2020-06-20T18:01:48Z</time>
      </trkpt>
      <trkpt lat="43.7746" lon="5.87479">
        <ele>494.3</ele>
        <time>2020-06-20T18:01:49Z</time>
      </trkpt>
      <trkpt lat="43.7745" lon="5.87485">
        <ele>494.1</ele>
        <time>2020-06-20T18:01:51Z</time>
      </trkpt>
      <trkpt lat="43.77445" lon="5.87488">
        <ele>494.1</ele>
        <time>2020-06-20T18:01:52Z</time>
      </trkpt>
      <trkpt lat="43.77435" lon="5.87496">
        <ele>494</ele>
        <time>2020-06-20T18:01:54Z</time>
      </trkpt>
      <trkpt lat="43.77425" lon="5.87504">
        <ele>493.9</ele>
        <time>2020-06-20T18:01:56Z</time>
      </trkpt>
      <trkpt lat="43.77415" lon="5.87511">
        <ele>493.8</ele>
        <time>2020-06-20T18:01:58Z</time>
      </trkpt>
      <trkpt lat="43.7741" lon="5.87515">
        <ele>493.8</ele>
        <time>2020-06-20T18:01:59Z</time>
      </trkpt>
      <trkpt lat="43.77402" lon="5.87523">
        <ele>493.7</ele>
        <time>2020-06-20T18:02:01Z</time>
      </trkpt>
      <trkpt lat="43.77392" lon="5.87533">
        <ele>493.6</ele>
        <time>2020-06-20T18:02:03Z</time>
      </trkpt>
      <trkpt lat="43.77382" lon="5.87542">
        <ele>493.6</ele>
        <time>2020-06-20T18:02:05Z</time>
      </trkpt>
      <trkpt lat="43.77374" lon="5.87553">
        <ele>493.5</ele>
        <time>2020-06-20T18:02:07Z</time>
      </trkpt>
      <trkpt lat="43.7737" lon="5.87558">
        <ele>493.5</ele>
        <time>2020-06-20T18:02:08Z</time>
      </trkpt>
      <trkpt lat="43.77365" lon="5.87563">
        <ele>493.5</ele>
        <time>2020-06-20T18:02:09Z</time>
      </trkpt>
      <trkpt lat="43.77357" lon="5.87574">
        <ele>493.5</ele>
        <time>2020-06-20T18:02:11Z</time>
      </trkpt>
      <trkpt lat="43.77348" lon="5.87585">
        <ele>493.4</ele>
        <time>2020-06-20T18:02:13Z</time>
      </trkpt>
      <trkpt lat="43.7734" lon="5.8759">
        <ele>493.5</ele>
        <time>2020-06-20T18:02:15Z</time>
      </trkpt>
      <trkpt lat="43.77337" lon="5.8759">
        <ele>493.5</ele>
        <time>2020-06-20T18:02:16Z</time>
      </trkpt>
      <trkpt lat="43.77329" lon="5.87593">
        <ele>493.5</ele>
        <time>2020-06-20T18:02:18Z</time>
      </trkpt>
      <trkpt lat="43.77325" lon="5.87595">
        <ele>493.5</ele>
        <time>2020-06-20T18:02:19Z</time>
      </trkpt>
      <trkpt lat="43.7732" lon="5.876">
        <ele>493.4</ele>
        <time>2020-06-20T18:02:21Z</time>
      </trkpt>
      <trkpt lat="43.77313" lon="5.87606">
        <ele>493.3</ele>
        <time>2020-06-20T18:02:22Z</time>
      </trkpt>
      <trkpt lat="43.77305" lon="5.87614">
        <ele>493.1</ele>
        <time>2020-06-20T18:02:24Z</time>
      </trkpt>
      <trkpt lat="43.773" lon="5.87616">
        <ele>493</ele>
        <time>2020-06-20T18:02:25Z</time>
      </trkpt>
      <trkpt lat="43.77289" lon="5.87619">
        <ele>492.8</ele>
        <time>2020-06-20T18:02:27Z</time>
      </trkpt>
      <trkpt lat="43.77284" lon="5.8762">
        <ele>492.7</ele>
        <time>2020-06-20T18:02:28Z</time>
      </trkpt>
      <trkpt lat="43.77274" lon="5.8762">
        <ele>492.6</ele>
        <time>2020-06-20T18:02:30Z</time>
      </trkpt>
      <trkpt lat="43.7727" lon="5.8762">
        <ele>492.5</ele>
        <time>2020-06-20T18:02:31Z</time>
      </trkpt>
      <trkpt lat="43.77265" lon="5.87619">
        <ele>492.4</ele>
        <time>2020-06-20T18:02:32Z</time>
      </trkpt>
      <trkpt lat="43.77256" lon="5.87617">
        <ele>492.3</ele>
        <time>2020-06-20T18:02:34Z</time>
      </trkpt>
      <trkpt lat="43.77251" lon="5.87616">
        <ele>492.2</ele>
        <time>2020-06-20T18:02:35Z</time>
      </trkpt>
      <trkpt lat="43.77246" lon="5.87614">
        <ele>492.1</ele>
        <time>2020-06-20T18:02:36Z</time>
      </trkpt>
      <trkpt lat="43.77237" lon="5.87611">
        <ele>492</ele>
        <time>2020-06-20T18:02:38Z</time>
      </trkpt>
      <trkpt lat="43.77229" lon="5.8761">
        <ele>491.8</ele>
        <time>2020-06-20T18:02:40Z</time>
      </trkpt>
      <trkpt lat="43.77219" lon="5.8761">
        <ele>491.6</ele>
        <time>2020-06-20T18:02:42Z</time>
      </trkpt>
      <trkpt lat="43.77215" lon="5.87611">
        <ele>491.5</ele>
        <time>2020-06-20T18:02:43Z</time>
      </trkpt>
      <trkpt lat="43.77206" lon="5.87612">
        <ele>491.2</ele>
        <time>2020-06-20T18:02:45Z</time>
      </trkpt>
      <trkpt lat="43.77195" lon="5.87613">
        <ele>490.9</ele>
        <time>2020-06-20T18:02:47Z</time>
      </trkpt>
      <trkpt lat="43.7719" lon="5.87613">
        <ele>490.7</ele>
        <time>2020-06-20T18:02:48Z</time>
      </trkpt>
      <trkpt lat="43.77184" lon="5.87613">
        <ele>490.4</ele>
        <time>2020-06-20T18:02:49Z</time>
      </trkpt>
      <trkpt lat="43.77172" lon="5.87612">
        <ele>489.9</ele>
        <time>2020-06-20T18:02:51Z</time>
      </trkpt>
      <trkpt lat="43.77166" lon="5.87611">
        <ele>489.7</ele>
        <time>2020-06-20T18:02:52Z</time>
      </trkpt>
      <trkpt lat="43.77154" lon="5.8761">
        <ele>489.4</ele>
        <time>2020-06-20T18:02:54Z</time>
      </trkpt>
      <trkpt lat="43.77149" lon="5.87608">
        <ele>489.3</ele>
        <time>2020-06-20T18:02:55Z</time>
      </trkpt>
      <trkpt lat="43.77139" lon="5.87603">
        <ele>489.3</ele>
        <time>2020-06-20T18:02:57Z</time>
      </trkpt>
      <trkpt lat="43.77135" lon="5.876">
        <ele>489.3</ele>
        <time>2020-06-20T18:02:58Z</time>
      </trkpt>
      <trkpt lat="43.77127" lon="5.87597">
        <ele>489.3</ele>
        <time>2020-06-20T18:03:00Z</time>
      </trkpt>
      <trkpt lat="43.7712" lon="5.87593">
        <ele>489.2</ele>
        <time>2020-06-20T18:03:02Z</time>
      </trkpt>
      <trkpt lat="43.77116" lon="5.87591">
        <ele>489.2</ele>
        <time>2020-06-20T18:03:03Z</time>
      </trkpt>
      <trkpt lat="43.77106" lon="5.87587">
        <ele>489</ele>
        <time>2020-06-20T18:03:05Z</time>
      </trkpt>
      <trkpt lat="43.77101" lon="5.87584">
        <ele>488.9</ele>
        <time>2020-06-20T18:03:06Z</time>
      </trkpt>
      <trkpt lat="43.7709" lon="5.87579">
        <ele>488.8</ele>
        <time>2020-06-20T18:03:08Z</time>
      </trkpt>
      <trkpt lat="43.77081" lon="5.87574">
        <ele>488.8</ele>
        <time>2020-06-20T18:03:10Z</time>
      </trkpt>
      <trkpt lat="43.77078" lon="5.87572">
        <ele>488.8</ele>
        <time>2020-06-20T18:03:11Z</time>
      </trkpt>
      <trkpt lat="43.77072" lon="5.8757">
        <ele>488.8</ele>
        <time>2020-06-20T18:03:12Z</time>
      </trkpt>
      <trkpt lat="43.77066" lon="5.87571">
        <ele>488.8</ele>
        <time>2020-06-20T18:03:14Z</time>
      </trkpt>
      <trkpt lat="43.77061" lon="5.87572">
        <ele>488.8</ele>
        <time>2020-06-20T18:03:15Z</time>
      </trkpt>
      <trkpt lat="43.77053" lon="5.87573">
        <ele>488.7</ele>
        <time>2020-06-20T18:03:16Z</time>
      </trkpt>
      <trkpt lat="43.77042" lon="5.87576">
        <ele>488.2</ele>
        <time>2020-06-20T18:03:18Z</time>
      </trkpt>
      <trkpt lat="43.77035" lon="5.87579">
        <ele>487.9</ele>
        <time>2020-06-20T18:03:19Z</time>
      </trkpt>
      <trkpt lat="43.77023" lon="5.87581">
        <ele>487.1</ele>
        <time>2020-06-20T18:03:21Z</time>
      </trkpt>
      <trkpt lat="43.77017" lon="5.87581">
        <ele>486.8</ele>
        <time>2020-06-20T18:03:22Z</time>
      </trkpt>
      <trkpt lat="43.77007" lon="5.87577">
        <ele>486.2</ele>
        <time>2020-06-20T18:03:24Z</time>
      </trkpt>
      <trkpt lat="43.76997" lon="5.8757">
        <ele>485.7</ele>
        <time>2020-06-20T18:03:26Z</time>
      </trkpt>
      <trkpt lat="43.76992" lon="5.87565">
        <ele>485.5</ele>
        <time>2020-06-20T18:03:27Z</time>
      </trkpt>
      <trkpt lat="43.76984" lon="5.87554">
        <ele>485.3</ele>
        <time>2020-06-20T18:03:29Z</time>
      </trkpt>
      <trkpt lat="43.76979" lon="5.87544">
        <ele>485.3</ele>
        <time>2020-06-20T18:03:31Z</time>
      </trkpt>
      <trkpt lat="43.76976" lon="5.8754">
        <ele>485.3</ele>
        <time>2020-06-20T18:03:32Z</time>
      </trkpt>
      <trkpt lat="43.76971" lon="5.8753">
        <ele>485.5</ele>
        <time>2020-06-20T18:03:34Z</time>
      </trkpt>
      <trkpt lat="43.76968" lon="5.87525">
        <ele>485.6</ele>
        <time>2020-06-20T18:03:35Z</time>
      </trkpt>
      <trkpt lat="43.76964" lon="5.87524">
        <ele>485.7</ele>
        <time>2020-06-20T18:03:37Z</time>
      </trkpt>
      <trkpt lat="43.7696" lon="5.8752">
        <ele>485.8</ele>
        <time>2020-06-20T18:03:38Z</time>
      </trkpt>
      <trkpt lat="43.76956" lon="5.87513">
        <ele>485.9</ele>
        <time>2020-06-20T18:03:40Z</time>
      </trkpt>
      <trkpt lat="43.76952" lon="5.87506">
        <ele>486</ele>
        <time>2020-06-20T18:03:41Z</time>
      </trkpt>
      <trkpt lat="43.76948" lon="5.87497">
        <ele>486.2</ele>
        <time>2020-06-20T18:03:43Z</time>
      </trkpt>
      <trkpt lat="43.76944" lon="5.8749">
        <ele>486.3</ele>
        <time>2020-06-20T18:03:44Z</time>
      </trkpt>
      <trkpt lat="43.7694" lon="5.87487">
        <ele>486.4</ele>
        <time>2020-06-20T18:03:45Z</time>
      </trkpt>
      <trkpt lat="43.76937" lon="5.87482">
        <ele>486.4</ele>
        <time>2020-06-20T18:03:46Z</time>
      </trkpt>
      <trkpt lat="43.76934" lon="5.87477">
        <ele>486.5</ele>
        <time>2020-06-20T18:03:47Z</time>
      </trkpt>
      <trkpt lat="43.76931" lon="5.87471">
        <ele>486.6</ele>
        <time>2020-06-20T18:03:49Z</time>
      </trkpt>
      <trkpt lat="43.76928" lon="5.87466">
        <ele>486.6</ele>
        <time>2020-06-20T18:03:50Z</time>
      </trkpt>
      <trkpt lat="43.76924" lon="5.87461">
        <ele>486.6</ele>
        <time>2020-06-20T18:03:52Z</time>
      </trkpt>
      <trkpt lat="43.76921" lon="5.87456">
        <ele>486.6</ele>
        <time>2020-06-20T18:03:53Z</time>
      </trkpt>
      <trkpt lat="43.76916" lon="5.87451">
        <ele>486.5</ele>
        <time>2020-06-20T18:03:55Z</time>
      </trkpt>
      <trkpt lat="43.7691" lon="5.87443">
        <ele>486.3</ele>
        <time>2020-06-20T18:03:56Z</time>
      </trkpt>
      <trkpt lat="43.76905" lon="5.87437">
        <ele>486.1</ele>
        <time>2020-06-20T18:03:57Z</time>
      </trkpt>
      <trkpt lat="43.769" lon="5.8743">
        <ele>485.8</ele>
        <time>2020-06-20T18:03:58Z</time>
      </trkpt>
      <trkpt lat="43.7689" lon="5.87418">
        <ele>485.2</ele>
        <time>2020-06-20T18:04:00Z</time>
      </trkpt>
      <trkpt lat="43.76878" lon="5.87407">
        <ele>484.3</ele>
        <time>2020-06-20T18:04:02Z</time>
      </trkpt>
      <trkpt lat="43.76863" lon="5.87399">
        <ele>483.5</ele>
        <time>2020-06-20T18:04:04Z</time>
      </trkpt>
      <trkpt lat="43.76857" lon="5.87395">
        <ele>483.3</ele>
        <time>2020-06-20T18:04:05Z</time>
      </trkpt>
      <trkpt lat="43.76844" lon="5.87389">
        <ele>483</ele>
        <time>2020-06-20T18:04:07Z</time>
      </trkpt>
      <trkpt lat="43.76838" lon="5.87386">
        <ele>482.8</ele>
        <time>2020-06-20T18:04:08Z</time>
      </trkpt>
      <trkpt lat="43.76827" lon="5.8738">
        <ele>482.7</ele>
        <time>2020-06-20T18:04:10Z</time>
      </trkpt>
      <trkpt lat="43.76816" lon="5.87377">
        <ele>482.9</ele>
        <time>2020-06-20T18:04:12Z</time>
      </trkpt>
      <trkpt lat="43.76805" lon="5.87373">
        <ele>483.3</ele>
        <time>2020-06-20T18:04:14Z</time>
      </trkpt>
      <trkpt lat="43.76799" lon="5.87373">
        <ele>483.5</ele>
        <time>2020-06-20T18:04:16Z</time>
      </trkpt>
      <trkpt lat="43.76792" lon="5.87373">
        <ele>483.8</ele>
        <time>2020-06-20T18:04:18Z</time>
      </trkpt>
      <trkpt lat="43.76789" lon="5.87374">
        <ele>483.9</ele>
        <time>2020-06-20T18:04:19Z</time>
      </trkpt>
      <trkpt lat="43.76786" lon="5.87375">
        <ele>484</ele>
        <time>2020-06-20T18:04:20Z</time>
      </trkpt>
      <trkpt lat="43.76783" lon="5.87377">
        <ele>484.2</ele>
        <time>2020-06-20T18:04:22Z</time>
      </trkpt>
      <trkpt lat="43.7678" lon="5.87377">
        <ele>484.3</ele>
        <time>2020-06-20T18:04:23Z</time>
      </trkpt>
      <trkpt lat="43.76777" lon="5.87378">
        <ele>484.3</ele>
        <time>2020-06-20T18:04:24Z</time>
      </trkpt>
      <trkpt lat="43.76774" lon="5.87378">
        <ele>484.3</ele>
        <time>2020-06-20T18:04:25Z</time>
      </trkpt>
      <trkpt lat="43.7677" lon="5.8738">
        <ele>484.3</ele>
        <time>2020-06-20T18:04:26Z</time>
      </trkpt>
      <trkpt lat="43.76764" lon="5.87383">
        <ele>484.2</ele>
        <time>2020-06-20T18:04:28Z</time>
      </trkpt>
      <trkpt lat="43.76754" lon="5.87384">
        <ele>483.6</ele>
        <time>2020-06-20T18:04:29Z</time>
      </trkpt>
      <trkpt lat="43.76747" lon="5.87383">
        <ele>483.1</ele>
        <time>2020-06-20T18:04:30Z</time>
      </trkpt>
      <trkpt lat="43.76734" lon="5.8738">
        <ele>482.3</ele>
        <time>2020-06-20T18:04:32Z</time>
      </trkpt>
      <trkpt lat="43.7672" lon="5.87383">
        <ele>481.5</ele>
        <time>2020-06-20T18:04:34Z</time>
      </trkpt>
      <trkpt lat="43.76714" lon="5.87385">
        <ele>481</ele>
        <time>2020-06-20T18:04:35Z</time>
      </trkpt>
      <trkpt lat="43.76703" lon="5.87393">
        <ele>480.1</ele>
        <time>2020-06-20T18:04:37Z</time>
      </trkpt>
      <trkpt lat="43.76698" lon="5.87398">
        <ele>479.7</ele>
        <time>2020-06-20T18:04:38Z</time>
      </trkpt>
      <trkpt lat="43.76688" lon="5.8741">
        <ele>478.8</ele>
        <time>2020-06-20T18:04:40Z</time>
      </trkpt>
      <trkpt lat="43.76684" lon="5.87417">
        <ele>478.3</ele>
        <time>2020-06-20T18:04:41Z</time>
      </trkpt>
      <trkpt lat="43.76676" lon="5.87432">
        <ele>477.3</ele>
        <time>2020-06-20T18:04:43Z</time>
      </trkpt>
      <trkpt lat="43.76673" lon="5.8744">
        <ele>476.9</ele>
        <time>2020-06-20T18:04:44Z</time>
      </trkpt>
      <trkpt lat="43.76668" lon="5.87457">
        <ele>476.3</ele>
        <time>2020-06-20T18:04:46Z</time>
      </trkpt>
      <trkpt lat="43.76667" lon="5.87474">
        <ele>475.7</ele>
        <time>2020-06-20T18:04:48Z</time>
      </trkpt>
      <trkpt lat="43.76667" lon="5.87482">
        <ele>475.5</ele>
        <time>2020-06-20T18:04:49Z</time>
      </trkpt>
      <trkpt lat="43.76668" lon="5.8749">
        <ele>475.2</ele>
        <time>2020-06-20T18:04:50Z</time>
      </trkpt>
      <trkpt lat="43.76666" lon="5.87507">
        <ele>474.6</ele>
        <time>2020-06-20T18:04:52Z</time>
      </trkpt>
      <trkpt lat="43.76663" lon="5.87515">
        <ele>474.2</ele>
        <time>2020-06-20T18:04:53Z</time>
      </trkpt>
      <trkpt lat="43.76656" lon="5.87529">
        <ele>473.3</ele>
        <time>2020-06-20T18:04:55Z</time>
      </trkpt>
      <trkpt lat="43.76651" lon="5.87537">
        <ele>472.8</ele>
        <time>2020-06-20T18:04:56Z</time>
      </trkpt>
      <trkpt lat="43.76642" lon="5.87551">
        <ele>471.8</ele>
        <time>2020-06-20T18:04:58Z</time>
      </trkpt>
      <trkpt lat="43.76637" lon="5.87558">
        <ele>471.3</ele>
        <time>2020-06-20T18:04:59Z</time>
      </trkpt>
      <trkpt lat="43.76627" lon="5.87571">
        <ele>470.3</ele>
        <time>2020-06-20T18:05:01Z</time>
      </trkpt>
      <trkpt lat="43.76617" lon="5.87584">
        <ele>469.5</ele>
        <time>2020-06-20T18:05:03Z</time>
      </trkpt>
      <trkpt lat="43.76612" lon="5.87591">
        <ele>469</ele>
        <time>2020-06-20T18:05:04Z</time>
      </trkpt>
      <trkpt lat="43.76603" lon="5.87605">
        <ele>468</ele>
        <time>2020-06-20T18:05:06Z</time>
      </trkpt>
      <trkpt lat="43.76598" lon="5.87612">
        <ele>467.7</ele>
        <time>2020-06-20T18:05:07Z</time>
      </trkpt>
      <trkpt lat="43.7659" lon="5.87624">
        <ele>467</ele>
        <time>2020-06-20T18:05:09Z</time>
      </trkpt>
      <trkpt lat="43.76585" lon="5.87629">
        <ele>466.7</ele>
        <time>2020-06-20T18:05:10Z</time>
      </trkpt>
      <trkpt lat="43.76575" lon="5.87639">
        <ele>466</ele>
        <time>2020-06-20T18:05:12Z</time>
      </trkpt>
      <trkpt lat="43.76565" lon="5.87647">
        <ele>465.2</ele>
        <time>2020-06-20T18:05:14Z</time>
      </trkpt>
      <trkpt lat="43.76557" lon="5.87657">
        <ele>464.2</ele>
        <time>2020-06-20T18:05:16Z</time>
      </trkpt>
      <trkpt lat="43.76549" lon="5.8767">
        <ele>463</ele>
        <time>2020-06-20T18:05:18Z</time>
      </trkpt>
      <trkpt lat="43.76545" lon="5.87677">
        <ele>462.4</ele>
        <time>2020-06-20T18:05:19Z</time>
      </trkpt>
      <trkpt lat="43.76541" lon="5.87685">
        <ele>461.7</ele>
        <time>2020-06-20T18:05:20Z</time>
      </trkpt>
      <trkpt lat="43.76537" lon="5.87692">
        <ele>461</ele>
        <time>2020-06-20T18:05:21Z</time>
      </trkpt>
      <trkpt lat="43.76534" lon="5.87699">
        <ele>460.4</ele>
        <time>2020-06-20T18:05:22Z</time>
      </trkpt>
      <trkpt lat="43.76527" lon="5.87713">
        <ele>459.3</ele>
        <time>2020-06-20T18:05:24Z</time>
      </trkpt>
      <trkpt lat="43.76521" lon="5.87727">
        <ele>458.2</ele>
        <time>2020-06-20T18:05:26Z</time>
      </trkpt>
      <trkpt lat="43.76517" lon="5.87734">
        <ele>457.7</ele>
        <time>2020-06-20T18:05:27Z</time>
      </trkpt>
      <trkpt lat="43.76514" lon="5.87742">
        <ele>457.2</ele>
        <time>2020-06-20T18:05:28Z</time>
      </trkpt>
      <trkpt lat="43.7651" lon="5.87749">
        <ele>456.8</ele>
        <time>2020-06-20T18:05:30Z</time>
      </trkpt>
      <trkpt lat="43.76501" lon="5.87762">
        <ele>456</ele>
        <time>2020-06-20T18:05:31Z</time>
      </trkpt>
      <trkpt lat="43.76497" lon="5.87768">
        <ele>455.6</ele>
        <time>2020-06-20T18:05:32Z</time>
      </trkpt>
      <trkpt lat="43.76493" lon="5.87775">
        <ele>455.3</ele>
        <time>2020-06-20T18:05:33Z</time>
      </trkpt>
      <trkpt lat="43.76489" lon="5.87787">
        <ele>454.8</ele>
        <time>2020-06-20T18:05:35Z</time>
      </trkpt>
      <trkpt lat="43.76488" lon="5.87794">
        <ele>454.6</ele>
        <time>2020-06-20T18:05:36Z</time>
      </trkpt>
      <trkpt lat="43.76488" lon="5.878">
        <ele>454.3</ele>
        <time>2020-06-20T18:05:37Z</time>
      </trkpt>
      <trkpt lat="43.76489" lon="5.87807">
        <ele>454.1</ele>
        <time>2020-06-20T18:05:38Z</time>
      </trkpt>
      <trkpt lat="43.76488" lon="5.8782">
        <ele>453.9</ele>
        <time>2020-06-20T18:05:40Z</time>
      </trkpt>
      <trkpt lat="43.76488" lon="5.87831">
        <ele>453.7</ele>
        <time>2020-06-20T18:05:42Z</time>
      </trkpt>
      <trkpt lat="43.76487" lon="5.8784">
        <ele>453.7</ele>
        <time>2020-06-20T18:05:44Z</time>
      </trkpt>
      <trkpt lat="43.76487" lon="5.87845">
        <ele>453.7</ele>
        <time>2020-06-20T18:05:45Z</time>
      </trkpt>
      <trkpt lat="43.76486" lon="5.87852">
        <ele>453.7</ele>
        <time>2020-06-20T18:05:47Z</time>
      </trkpt>
      <trkpt lat="43.76485" lon="5.87856">
        <ele>453.7</ele>
        <time>2020-06-20T18:05:48Z</time>
      </trkpt>
      <trkpt lat="43.76484" lon="5.8786">
        <ele>453.7</ele>
        <time>2020-06-20T18:05:49Z</time>
      </trkpt>
      <trkpt lat="43.76483" lon="5.87866">
        <ele>453.7</ele>
        <time>2020-06-20T18:05:51Z</time>
      </trkpt>
      <trkpt lat="43.76482" lon="5.87872">
        <ele>453.7</ele>
        <time>2020-06-20T18:05:52Z</time>
      </trkpt>
      <trkpt lat="43.76481" lon="5.87879">
        <ele>453.6</ele>
        <time>2020-06-20T18:05:53Z</time>
      </trkpt>
      <trkpt lat="43.76479" lon="5.87891">
        <ele>453.4</ele>
        <time>2020-06-20T18:05:54Z</time>
      </trkpt>
      <trkpt lat="43.7648" lon="5.87909">
        <ele>452.6</ele>
        <time>2020-06-20T18:05:56Z</time>
      </trkpt>
      <trkpt lat="43.76485" lon="5.87927">
        <ele>451.8</ele>
        <time>2020-06-20T18:05:58Z</time>
      </trkpt>
      <trkpt lat="43.76488" lon="5.87935">
        <ele>451.3</ele>
        <time>2020-06-20T18:05:59Z</time>
      </trkpt>
      <trkpt lat="43.76493" lon="5.87955">
        <ele>450.3</ele>
        <time>2020-06-20T18:06:01Z</time>
      </trkpt>
      <trkpt lat="43.76495" lon="5.87974">
        <ele>449.7</ele>
        <time>2020-06-20T18:06:03Z</time>
      </trkpt>
      <trkpt lat="43.76495" lon="5.87983">
        <ele>449.5</ele>
        <time>2020-06-20T18:06:04Z</time>
      </trkpt>
      <trkpt lat="43.76496" lon="5.88001">
        <ele>449</ele>
        <time>2020-06-20T18:06:06Z</time>
      </trkpt>
      <trkpt lat="43.76497" lon="5.8801">
        <ele>448.6</ele>
        <time>2020-06-20T18:06:07Z</time>
      </trkpt>
      <trkpt lat="43.76499" lon="5.88018">
        <ele>448.3</ele>
        <time>2020-06-20T18:06:08Z</time>
      </trkpt>
      <trkpt lat="43.765" lon="5.88026">
        <ele>447.9</ele>
        <time>2020-06-20T18:06:09Z</time>
      </trkpt>
      <trkpt lat="43.76501" lon="5.88042">
        <ele>447</ele>
        <time>2020-06-20T18:06:11Z</time>
      </trkpt>
      <trkpt lat="43.76497" lon="5.88056">
        <ele>445.8</ele>
        <time>2020-06-20T18:06:13Z</time>
      </trkpt>
      <trkpt lat="43.76493" lon="5.88062">
        <ele>445.1</ele>
        <time>2020-06-20T18:06:14Z</time>
      </trkpt>
      <trkpt lat="43.76483" lon="5.88069">
        <ele>443.6</ele>
        <time>2020-06-20T18:06:16Z</time>
      </trkpt>
      <trkpt lat="43.76479" lon="5.8807">
        <ele>442.8</ele>
        <time>2020-06-20T18:06:17Z</time>
      </trkpt>
      <trkpt lat="43.76473" lon="5.88073">
        <ele>441.8</ele>
        <time>2020-06-20T18:06:19Z</time>
      </trkpt>
      <trkpt lat="43.7647" lon="5.88077">
        <ele>441</ele>
        <time>2020-06-20T18:06:20Z</time>
      </trkpt>
      <trkpt lat="43.76462" lon="5.88087">
        <ele>439.2</ele>
        <time>2020-06-20T18:06:22Z</time>
      </trkpt>
      <trkpt lat="43.7646" lon="5.88089">
        <ele>438.7</ele>
        <time>2020-06-20T18:06:23Z</time>
      </trkpt>
      <trkpt lat="43.76457" lon="5.88093">
        <ele>438</ele>
        <time>2020-06-20T18:06:24Z</time>
      </trkpt>
      <trkpt lat="43.76455" lon="5.88095">
        <ele>437.4</ele>
        <time>2020-06-20T18:06:26Z</time>
      </trkpt>
      <trkpt lat="43.76453" lon="5.88099">
        <ele>436.8</ele>
        <time>2020-06-20T18:06:27Z</time>
      </trkpt>
      <trkpt lat="43.7645" lon="5.88101">
        <ele>436</ele>
        <time>2020-06-20T18:06:28Z</time>
      </trkpt>
      <trkpt lat="43.76446" lon="5.88106">
        <ele>435.2</ele>
        <time>2020-06-20T18:06:30Z</time>
      </trkpt>
      <trkpt lat="43.76443" lon="5.88109">
        <ele>434.4</ele>
        <time>2020-06-20T18:06:31Z</time>
      </trkpt>
      <trkpt lat="43.7644" lon="5.88113">
        <ele>433.6</ele>
        <time>2020-06-20T18:06:32Z</time>
      </trkpt>
      <trkpt lat="43.76437" lon="5.88118">
        <ele>432.8</ele>
        <time>2020-06-20T18:06:34Z</time>
      </trkpt>
      <trkpt lat="43.76434" lon="5.88121">
        <ele>432</ele>
        <time>2020-06-20T18:06:35Z</time>
      </trkpt>
      <trkpt lat="43.7643" lon="5.88126">
        <ele>430.9</ele>
        <time>2020-06-20T18:06:37Z</time>
      </trkpt>
      <trkpt lat="43.76424" lon="5.88129">
        <ele>429.7</ele>
        <time>2020-06-20T18:06:38Z</time>
      </trkpt>
      <trkpt lat="43.76416" lon="5.88131">
        <ele>428.1</ele>
        <time>2020-06-20T18:06:40Z</time>
      </trkpt>
      <trkpt lat="43.76413" lon="5.88131">
        <ele>427.5</ele>
        <time>2020-06-20T18:06:42Z</time>
      </trkpt>
      <trkpt lat="43.76413" lon="5.8813">
        <ele>427.4</ele>
        <time>2020-06-20T18:06:43Z</time>
      </trkpt>
      <trkpt lat="43.76413" lon="5.8813">
        <ele>427.3</ele>
        <time>2020-06-20T18:06:44Z</time>
      </trkpt>
      <trkpt lat="43.76414" lon="5.88129">
        <ele>427.2</ele>
        <time>2020-06-20T18:06:46Z</time>
      </trkpt>
      <trkpt lat="43.76414" lon="5.88128">
        <ele>427.1</ele>
        <time>2020-06-20T18:06:47Z</time>
      </trkpt>
      <trkpt lat="43.76414" lon="5.88127">
        <ele>426.9</ele>
        <time>2020-06-20T18:06:49Z</time>
      </trkpt>
      <trkpt lat="43.76414" lon="5.88126">
        <ele>426.7</ele>
        <time>2020-06-20T18:06:50Z</time>
      </trkpt>
      <trkpt lat="43.76409" lon="5.88132">
        <ele>425.6</ele>
        <time>2020-06-20T18:18:39Z</time>
      </trkpt>
      <trkpt lat="43.76405" lon="5.88135">
        <ele>424.7</ele>
        <time>2020-06-20T18:18:41Z</time>
      </trkpt>
      <trkpt lat="43.76396" lon="5.88139">
        <ele>423.1</ele>
        <time>2020-06-20T18:18:42Z</time>
      </trkpt>
      <trkpt lat="43.76389" lon="5.88143">
        <ele>421.8</ele>
        <time>2020-06-20T18:18:43Z</time>
      </trkpt>
      <trkpt lat="43.76382" lon="5.88147">
        <ele>420.5</ele>
        <time>2020-06-20T18:18:44Z</time>
      </trkpt>
      <trkpt lat="43.76369" lon="5.88154">
        <ele>418.3</ele>
        <time>2020-06-20T18:18:46Z</time>
      </trkpt>
      <trkpt lat="43.76364" lon="5.88157">
        <ele>417.4</ele>
        <time>2020-06-20T18:18:47Z</time>
      </trkpt>
      <trkpt lat="43.76359" lon="5.8816">
        <ele>416.5</ele>
        <time>2020-06-20T18:18:48Z</time>
      </trkpt>
      <trkpt lat="43.7635" lon="5.88165">
        <ele>415.1</ele>
        <time>2020-06-20T18:18:50Z</time>
      </trkpt>
      <trkpt lat="43.76346" lon="5.88164">
        <ele>414.5</ele>
        <time>2020-06-20T18:18:52Z</time>
      </trkpt>
      <trkpt lat="43.76342" lon="5.88166">
        <ele>413.8</ele>
        <time>2020-06-20T18:18:53Z</time>
      </trkpt>
      <trkpt lat="43.76334" lon="5.88172">
        <ele>412.4</ele>
        <time>2020-06-20T18:18:54Z</time>
      </trkpt>
      <trkpt lat="43.76323" lon="5.88183">
        <ele>409.6</ele>
        <time>2020-06-20T18:18:56Z</time>
      </trkpt>
      <trkpt lat="43.76313" lon="5.88192">
        <ele>407</ele>
        <time>2020-06-20T18:18:58Z</time>
      </trkpt>
      <trkpt lat="43.76302" lon="5.882">
        <ele>405.4</ele>
        <time>2020-06-20T18:19:00Z</time>
      </trkpt>
      <trkpt lat="43.76296" lon="5.88205">
        <ele>404.6</ele>
        <time>2020-06-20T18:19:01Z</time>
      </trkpt>
      <trkpt lat="43.76285" lon="5.88212">
        <ele>403.2</ele>
        <time>2020-06-20T18:19:03Z</time>
      </trkpt>
      <trkpt lat="43.7628" lon="5.88215">
        <ele>402.6</ele>
        <time>2020-06-20T18:19:04Z</time>
      </trkpt>
      <trkpt lat="43.76268" lon="5.88219">
        <ele>401.6</ele>
        <time>2020-06-20T18:19:06Z</time>
      </trkpt>
      <trkpt lat="43.76262" lon="5.88221">
        <ele>401.2</ele>
        <time>2020-06-20T18:19:07Z</time>
      </trkpt>
      <trkpt lat="43.76256" lon="5.88223">
        <ele>400.9</ele>
        <time>2020-06-20T18:19:08Z</time>
      </trkpt>
      <trkpt lat="43.76246" lon="5.88229">
        <ele>400.2</ele>
        <time>2020-06-20T18:19:10Z</time>
      </trkpt>
      <trkpt lat="43.76241" lon="5.88232">
        <ele>400</ele>
        <time>2020-06-20T18:19:11Z</time>
      </trkpt>
      <trkpt lat="43.76232" lon="5.88239">
        <ele>399.4</ele>
        <time>2020-06-20T18:19:13Z</time>
      </trkpt>
      <trkpt lat="43.76227" lon="5.88245">
        <ele>399</ele>
        <time>2020-06-20T18:19:15Z</time>
      </trkpt>
      <trkpt lat="43.76225" lon="5.88248">
        <ele>398.8</ele>
        <time>2020-06-20T18:19:16Z</time>
      </trkpt>
      <trkpt lat="43.76224" lon="5.8825">
        <ele>398.7</ele>
        <time>2020-06-20T18:19:18Z</time>
      </trkpt>
      <trkpt lat="43.76224" lon="5.8825">
        <ele>398.7</ele>
        <time>2020-06-20T18:19:19Z</time>
      </trkpt>
      <trkpt lat="43.76224" lon="5.8825">
        <ele>398.7</ele>
        <time>2020-06-20T18:19:20Z</time>
      </trkpt>
      <trkpt lat="43.76224" lon="5.8825">
        <ele>398.7</ele>
        <time>2020-06-20T18:19:23Z</time>
      </trkpt>
      <trkpt lat="43.76224" lon="5.8825">
        <ele>398.7</ele>
        <time>2020-06-20T18:19:24Z</time>
      </trkpt>
      <trkpt lat="43.76224" lon="5.8825">
        <ele>398.6</ele>
        <time>2020-06-20T18:19:25Z</time>
      </trkpt>
      <trkpt lat="43.76224" lon="5.88251">
        <ele>398.6</ele>
        <time>2020-06-20T18:19:26Z</time>
      </trkpt>
      <trkpt lat="43.76223" lon="5.88251">
        <ele>398.6</ele>
        <time>2020-06-20T18:19:29Z</time>
      </trkpt>
      <trkpt lat="43.76223" lon="5.88251">
        <ele>398.6</ele>
        <time>2020-06-20T18:19:31Z</time>
      </trkpt>
      <trkpt lat="43.76223" lon="5.88251">
        <ele>398.6</ele>
        <time>2020-06-20T18:19:34Z</time>
      </trkpt>
      <trkpt lat="43.76223" lon="5.88251">
        <ele>398.6</ele>
        <time>2020-06-20T18:19:39Z</time>
      </trkpt>
      <trkpt lat="43.76223" lon="5.88251">
        <ele>398.6</ele>
        <time>2020-06-20T18:19:41Z</time>
      </trkpt>
      <trkpt lat="43.76223" lon="5.88252">
        <ele>398.5</ele>
        <time>2020-06-20T18:19:42Z</time>
      </trkpt>
      <trkpt lat="43.76222" lon="5.88252">
        <ele>398.5</ele>
        <time>2020-06-20T18:19:43Z</time>
      </trkpt>
      <trkpt lat="43.76222" lon="5.88252">
        <ele>398.5</ele>
        <time>2020-06-20T18:19:45Z</time>
      </trkpt>
      <trkpt lat="43.76222" lon="5.88252">
        <ele>398.5</ele>
        <time>2020-06-20T18:19:46Z</time>
      </trkpt>
      <trkpt lat="43.76222" lon="5.88252">
        <ele>398.5</ele>
        <time>2020-06-20T18:19:47Z</time>
      </trkpt>
      <trkpt lat="43.76222" lon="5.88252">
        <ele>398.5</ele>
        <time>2020-06-20T18:19:49Z</time>
      </trkpt>
      <trkpt lat="43.76222" lon="5.88252">
        <ele>398.5</ele>
        <time>2020-06-20T18:19:50Z</time>
      </trkpt>
      <trkpt lat="43.76222" lon="5.88253">
        <ele>398.5</ele>
        <time>2020-06-20T18:19:51Z</time>
      </trkpt>
      <trkpt lat="43.76221" lon="5.88253">
        <ele>398.4</ele>
        <time>2020-06-20T18:19:53Z</time>
      </trkpt>
      <trkpt lat="43.76221" lon="5.88253">
        <ele>398.4</ele>
        <time>2020-06-20T18:19:55Z</time>
      </trkpt>
      <trkpt lat="43.76221" lon="5.88253">
        <ele>398.4</ele>
        <time>2020-06-20T18:19:56Z</time>
      </trkpt>
      <trkpt lat="43.76221" lon="5.88253">
        <ele>398.4</ele>
        <time>2020-06-20T18:19:57Z</time>
      </trkpt>
      <trkpt lat="43.76218" lon="5.88255">
        <ele>398.1</ele>
        <time>2020-06-20T18:19:58Z</time>
      </trkpt>
      <trkpt lat="43.76206" lon="5.88262">
        <ele>397.1</ele>
        <time>2020-06-20T18:20:00Z</time>
      </trkpt>
      <trkpt lat="43.76201" lon="5.88265">
        <ele>396.6</ele>
        <time>2020-06-20T18:20:01Z</time>
      </trkpt>
      <trkpt lat="43.76196" lon="5.88269">
        <ele>396.2</ele>
        <time>2020-06-20T18:20:02Z</time>
      </trkpt>
      <trkpt lat="43.7619" lon="5.88275">
        <ele>395.4</ele>
        <time>2020-06-20T18:20:04Z</time>
      </trkpt>
      <trkpt lat="43.76186" lon="5.8828">
        <ele>395.3</ele>
        <time>2020-06-20T18:20:06Z</time>
      </trkpt>
      <trkpt lat="43.76184" lon="5.88282">
        <ele>395.2</ele>
        <time>2020-06-20T18:20:07Z</time>
      </trkpt>
      <trkpt lat="43.76179" lon="5.88286">
        <ele>395.1</ele>
        <time>2020-06-20T18:20:08Z</time>
      </trkpt>
      <trkpt lat="43.76175" lon="5.88291">
        <ele>394.3</ele>
        <time>2020-06-20T18:20:09Z</time>
      </trkpt>
      <trkpt lat="43.76172" lon="5.88297">
        <ele>393.5</ele>
        <time>2020-06-20T18:20:10Z</time>
      </trkpt>
      <trkpt lat="43.7617" lon="5.88303">
        <ele>392.7</ele>
        <time>2020-06-20T18:20:11Z</time>
      </trkpt>
      <trkpt lat="43.76169" lon="5.88309">
        <ele>392.1</ele>
        <time>2020-06-20T18:20:12Z</time>
      </trkpt>
      <trkpt lat="43.76169" lon="5.88314">
        <ele>391.1</ele>
        <time>2020-06-20T18:20:13Z</time>
      </trkpt>
      <trkpt lat="43.76169" lon="5.8832">
        <ele>390.4</ele>
        <time>2020-06-20T18:20:15Z</time>
      </trkpt>
      <trkpt lat="43.76167" lon="5.88325">
        <ele>389.6</ele>
        <time>2020-06-20T18:20:16Z</time>
      </trkpt>
      <trkpt lat="43.76165" lon="5.8833">
        <ele>388.9</ele>
        <time>2020-06-20T18:20:17Z</time>
      </trkpt>
      <trkpt lat="43.7616" lon="5.88336">
        <ele>387.9</ele>
        <time>2020-06-20T18:20:19Z</time>
      </trkpt>
      <trkpt lat="43.76155" lon="5.8834">
        <ele>387.3</ele>
        <time>2020-06-20T18:20:20Z</time>
      </trkpt>
      <trkpt lat="43.76148" lon="5.88345">
        <ele>386.4</ele>
        <time>2020-06-20T18:20:21Z</time>
      </trkpt>
      <trkpt lat="43.76142" lon="5.88348">
        <ele>385.8</ele>
        <time>2020-06-20T18:20:22Z</time>
      </trkpt>
      <trkpt lat="43.76135" lon="5.88351">
        <ele>385.3</ele>
        <time>2020-06-20T18:20:23Z</time>
      </trkpt>
      <trkpt lat="43.76121" lon="5.88353">
        <ele>383.3</ele>
        <time>2020-06-20T18:20:25Z</time>
      </trkpt>
      <trkpt lat="43.76115" lon="5.88354">
        <ele>383.3</ele>
        <time>2020-06-20T18:20:26Z</time>
      </trkpt>
      <trkpt lat="43.76105" lon="5.88358">
        <ele>382.7</ele>
        <time>2020-06-20T18:20:28Z</time>
      </trkpt>
      <trkpt lat="43.76102" lon="5.88358">
        <ele>382.6</ele>
        <time>2020-06-20T18:20:29Z</time>
      </trkpt>
      <trkpt lat="43.76099" lon="5.88362">
        <ele>382.5</ele>
        <time>2020-06-20T18:20:31Z</time>
      </trkpt>
      <trkpt lat="43.76099" lon="5.88365">
        <ele>382.4</ele>
        <time>2020-06-20T18:20:32Z</time>
      </trkpt>
      <trkpt lat="43.761" lon="5.88369">
        <ele>382.3</ele>
        <time>2020-06-20T18:20:34Z</time>
      </trkpt>
      <trkpt lat="43.76101" lon="5.88372">
        <ele>382.2</ele>
        <time>2020-06-20T18:20:36Z</time>
      </trkpt>
      <trkpt lat="43.76101" lon="5.88374">
        <ele>382.2</ele>
        <time>2020-06-20T18:20:37Z</time>
      </trkpt>
      <trkpt lat="43.761" lon="5.88378">
        <ele>382.1</ele>
        <time>2020-06-20T18:20:38Z</time>
      </trkpt>
      <trkpt lat="43.76099" lon="5.88378">
        <ele>382.1</ele>
        <time>2020-06-20T18:20:39Z</time>
      </trkpt>
      <trkpt lat="43.76098" lon="5.8838">
        <ele>382.1</ele>
        <time>2020-06-20T18:20:40Z</time>
      </trkpt>
      <trkpt lat="43.76097" lon="5.88381">
        <ele>382.1</ele>
        <time>2020-06-20T18:20:41Z</time>
      </trkpt>
      <trkpt lat="43.76097" lon="5.88381">
        <ele>382</ele>
        <time>2020-06-20T18:20:43Z</time>
      </trkpt>
      <trkpt lat="43.76099" lon="5.88383">
        <ele>382</ele>
        <time>2020-06-20T18:20:45Z</time>
      </trkpt>
      <trkpt lat="43.76101" lon="5.88387">
        <ele>382</ele>
        <time>2020-06-20T18:20:46Z</time>
      </trkpt>
      <trkpt lat="43.76112" lon="5.88386">
        <ele>381.7</ele>
        <time>2020-06-20T18:20:47Z</time>
      </trkpt>
      <trkpt lat="43.76119" lon="5.88387">
        <ele>381.4</ele>
        <time>2020-06-20T18:20:48Z</time>
      </trkpt>
      <trkpt lat="43.7613" lon="5.88389">
        <ele>380.9</ele>
        <time>2020-06-20T18:20:50Z</time>
      </trkpt>
      <trkpt lat="43.76136" lon="5.8839">
        <ele>380.7</ele>
        <time>2020-06-20T18:20:51Z</time>
      </trkpt>
      <trkpt lat="43.76146" lon="5.8839">
        <ele>380.2</ele>
        <time>2020-06-20T18:20:53Z</time>
      </trkpt>
      <trkpt lat="43.76157" lon="5.88388">
        <ele>379.8</ele>
        <time>2020-06-20T18:20:55Z</time>
      </trkpt>
      <trkpt lat="43.76162" lon="5.88385">
        <ele>379.6</ele>
        <time>2020-06-20T18:20:56Z</time>
      </trkpt>
      <trkpt lat="43.76167" lon="5.88383">
        <ele>379.4</ele>
        <time>2020-06-20T18:20:57Z</time>
      </trkpt>
      <trkpt lat="43.76173" lon="5.88379">
        <ele>379.1</ele>
        <time>2020-06-20T18:20:59Z</time>
      </trkpt>
      <trkpt lat="43.76177" lon="5.8838">
        <ele>378.9</ele>
        <time>2020-06-20T18:21:01Z</time>
      </trkpt>
      <trkpt lat="43.76177" lon="5.88381">
        <ele>378.9</ele>
        <time>2020-06-20T18:21:02Z</time>
      </trkpt>
      <trkpt lat="43.76177" lon="5.88386">
        <ele>377.2</ele>
        <time>2020-06-20T18:21:04Z</time>
      </trkpt>
      <trkpt lat="43.76169" lon="5.88392">
        <ele>376.3</ele>
        <time>2020-06-20T18:21:05Z</time>
      </trkpt>
      <trkpt lat="43.76159" lon="5.88405">
        <ele>375</ele>
        <time>2020-06-20T18:21:07Z</time>
      </trkpt>
      <trkpt lat="43.76152" lon="5.88421">
        <ele>373.7</ele>
        <time>2020-06-20T18:21:09Z</time>
      </trkpt>
      <trkpt lat="43.76146" lon="5.88439">
        <ele>372.4</ele>
        <time>2020-06-20T18:21:11Z</time>
      </trkpt>
      <trkpt lat="43.76139" lon="5.88456">
        <ele>371.3</ele>
        <time>2020-06-20T18:21:13Z</time>
      </trkpt>
      <trkpt lat="43.76133" lon="5.88472">
        <ele>370.1</ele>
        <time>2020-06-20T18:21:15Z</time>
      </trkpt>
      <trkpt lat="43.76129" lon="5.8848">
        <ele>369.4</ele>
        <time>2020-06-20T18:21:16Z</time>
      </trkpt>
      <trkpt lat="43.7612" lon="5.88497">
        <ele>368.3</ele>
        <time>2020-06-20T18:21:18Z</time>
      </trkpt>
      <trkpt lat="43.76115" lon="5.88504">
        <ele>368</ele>
        <time>2020-06-20T18:21:19Z</time>
      </trkpt>
      <trkpt lat="43.76105" lon="5.88517">
        <ele>367.1</ele>
        <time>2020-06-20T18:21:21Z</time>
      </trkpt>
      <trkpt lat="43.761" lon="5.88521">
        <ele>366.7</ele>
        <time>2020-06-20T18:21:22Z</time>
      </trkpt>
      <trkpt lat="43.7609" lon="5.8853">
        <ele>365.8</ele>
        <time>2020-06-20T18:21:24Z</time>
      </trkpt>
      <trkpt lat="43.76081" lon="5.88538">
        <ele>365</ele>
        <time>2020-06-20T18:21:26Z</time>
      </trkpt>
      <trkpt lat="43.76076" lon="5.88541">
        <ele>364.6</ele>
        <time>2020-06-20T18:21:27Z</time>
      </trkpt>
      <trkpt lat="43.76072" lon="5.88544">
        <ele>364.2</ele>
        <time>2020-06-20T18:21:28Z</time>
      </trkpt>
      <trkpt lat="43.76063" lon="5.88548">
        <ele>363.4</ele>
        <time>2020-06-20T18:21:30Z</time>
      </trkpt>
      <trkpt lat="43.7606" lon="5.8855">
        <ele>363.2</ele>
        <time>2020-06-20T18:21:31Z</time>
      </trkpt>
      <trkpt lat="43.76055" lon="5.88561">
        <ele>361.9</ele>
        <time>2020-06-20T18:21:33Z</time>
      </trkpt>
      <trkpt lat="43.76054" lon="5.8857">
        <ele>361.2</ele>
        <time>2020-06-20T18:21:34Z</time>
      </trkpt>
      <trkpt lat="43.76052" lon="5.88589">
        <ele>360.1</ele>
        <time>2020-06-20T18:21:36Z</time>
      </trkpt>
      <trkpt lat="43.76049" lon="5.88609">
        <ele>359.3</ele>
        <time>2020-06-20T18:21:38Z</time>
      </trkpt>
      <trkpt lat="43.76047" lon="5.88619">
        <ele>358.7</ele>
        <time>2020-06-20T18:21:39Z</time>
      </trkpt>
      <trkpt lat="43.76044" lon="5.88628">
        <ele>358.4</ele>
        <time>2020-06-20T18:21:40Z</time>
      </trkpt>
      <trkpt lat="43.76034" lon="5.88646">
        <ele>357.9</ele>
        <time>2020-06-20T18:21:42Z</time>
      </trkpt>
      <trkpt lat="43.76023" lon="5.88661">
        <ele>357.5</ele>
        <time>2020-06-20T18:21:44Z</time>
      </trkpt>
      <trkpt lat="43.76013" lon="5.88675">
        <ele>357.2</ele>
        <time>2020-06-20T18:21:46Z</time>
      </trkpt>
      <trkpt lat="43.7601" lon="5.88682">
        <ele>357.1</ele>
        <time>2020-06-20T18:21:47Z</time>
      </trkpt>
      <trkpt lat="43.76006" lon="5.88698">
        <ele>357</ele>
        <time>2020-06-20T18:21:49Z</time>
      </trkpt>
      <trkpt lat="43.76006" lon="5.88706">
        <ele>356.9</ele>
        <time>2020-06-20T18:21:50Z</time>
      </trkpt>
      <trkpt lat="43.76008" lon="5.8872">
        <ele>356.8</ele>
        <time>2020-06-20T18:21:52Z</time>
      </trkpt>
      <trkpt lat="43.76011" lon="5.88727">
        <ele>356.7</ele>
        <time>2020-06-20T18:21:53Z</time>
      </trkpt>
      <trkpt lat="43.76019" lon="5.88737">
        <ele>356.7</ele>
        <time>2020-06-20T18:21:55Z</time>
      </trkpt>
      <trkpt lat="43.76024" lon="5.88741">
        <ele>356.6</ele>
        <time>2020-06-20T18:21:56Z</time>
      </trkpt>
      <trkpt lat="43.76034" lon="5.88749">
        <ele>356.4</ele>
        <time>2020-06-20T18:21:58Z</time>
      </trkpt>
      <trkpt lat="43.76039" lon="5.88753">
        <ele>356.3</ele>
        <time>2020-06-20T18:21:59Z</time>
      </trkpt>
      <trkpt lat="43.76049" lon="5.88761">
        <ele>356</ele>
        <time>2020-06-20T18:22:01Z</time>
      </trkpt>
      <trkpt lat="43.76054" lon="5.88765">
        <ele>355.7</ele>
        <time>2020-06-20T18:22:02Z</time>
      </trkpt>
      <trkpt lat="43.76064" lon="5.88773">
        <ele>355.1</ele>
        <time>2020-06-20T18:22:04Z</time>
      </trkpt>
      <trkpt lat="43.76069" lon="5.88777">
        <ele>354.8</ele>
        <time>2020-06-20T18:22:05Z</time>
      </trkpt>
      <trkpt lat="43.76078" lon="5.88786">
        <ele>353.8</ele>
        <time>2020-06-20T18:22:07Z</time>
      </trkpt>
      <trkpt lat="43.76085" lon="5.88796">
        <ele>352.4</ele>
        <time>2020-06-20T18:22:09Z</time>
      </trkpt>
      <trkpt lat="43.76088" lon="5.88799">
        <ele>351.8</ele>
        <time>2020-06-20T18:22:10Z</time>
      </trkpt>
      <trkpt lat="43.76091" lon="5.88803">
        <ele>351.1</ele>
        <time>2020-06-20T18:22:11Z</time>
      </trkpt>
      <trkpt lat="43.76097" lon="5.8881">
        <ele>349.9</ele>
        <time>2020-06-20T18:22:13Z</time>
      </trkpt>
      <trkpt lat="43.761" lon="5.88814">
        <ele>349.1</ele>
        <time>2020-06-20T18:22:14Z</time>
      </trkpt>
      <trkpt lat="43.76105" lon="5.88817">
        <ele>348.4</ele>
        <time>2020-06-20T18:22:16Z</time>
      </trkpt>
      <trkpt lat="43.76106" lon="5.88813">
        <ele>347.9</ele>
        <time>2020-06-20T18:22:17Z</time>
      </trkpt>
      <trkpt lat="43.76108" lon="5.88812">
        <ele>347.7</ele>
        <time>2020-06-20T18:22:18Z</time>
      </trkpt>
      <trkpt lat="43.7611" lon="5.88812">
        <ele>347.5</ele>
        <time>2020-06-20T18:22:19Z</time>
      </trkpt>
      <trkpt lat="43.76112" lon="5.88816">
        <ele>347</ele>
        <time>2020-06-20T18:22:20Z</time>
      </trkpt>
      <trkpt lat="43.76114" lon="5.88823">
        <ele>346.2</ele>
        <time>2020-06-20T18:22:21Z</time>
      </trkpt>
      <trkpt lat="43.76119" lon="5.88837">
        <ele>344.5</ele>
        <time>2020-06-20T18:22:23Z</time>
      </trkpt>
      <trkpt lat="43.76132" lon="5.88853">
        <ele>341.7</ele>
        <time>2020-06-20T18:22:24Z</time>
      </trkpt>
      <trkpt lat="43.76138" lon="5.88859">
        <ele>340.7</ele>
        <time>2020-06-20T18:22:25Z</time>
      </trkpt>
      <trkpt lat="43.76143" lon="5.88864">
        <ele>339.9</ele>
        <time>2020-06-20T18:22:26Z</time>
      </trkpt>
      <trkpt lat="43.76154" lon="5.88871">
        <ele>338.5</ele>
        <time>2020-06-20T18:22:28Z</time>
      </trkpt>
      <trkpt lat="43.76162" lon="5.88876">
        <ele>337.7</ele>
        <time>2020-06-20T18:22:30Z</time>
      </trkpt>
      <trkpt lat="43.76167" lon="5.88883">
        <ele>337.3</ele>
        <time>2020-06-20T18:22:32Z</time>
      </trkpt>
      <trkpt lat="43.76169" lon="5.88888">
        <ele>337</ele>
        <time>2020-06-20T18:22:33Z</time>
      </trkpt>
      <trkpt lat="43.7617" lon="5.88899">
        <ele>336.6</ele>
        <time>2020-06-20T18:22:35Z</time>
      </trkpt>
      <trkpt lat="43.76169" lon="5.88903">
        <ele>336</ele>
        <time>2020-06-20T18:22:37Z</time>
      </trkpt>
      <trkpt lat="43.76169" lon="5.88903">
        <ele>336</ele>
        <time>2020-06-20T18:22:38Z</time>
      </trkpt>
      <trkpt lat="43.76169" lon="5.88903">
        <ele>336</ele>
        <time>2020-06-20T18:22:39Z</time>
      </trkpt>
      <trkpt lat="43.7617" lon="5.88905">
        <ele>336</ele>
        <time>2020-06-20T18:22:41Z</time>
      </trkpt>
      <trkpt lat="43.76175" lon="5.88907">
        <ele>335.9</ele>
        <time>2020-06-20T18:22:43Z</time>
      </trkpt>
      <trkpt lat="43.76182" lon="5.88909">
        <ele>335.9</ele>
        <time>2020-06-20T18:22:45Z</time>
      </trkpt>
      <trkpt lat="43.76185" lon="5.8891">
        <ele>335.8</ele>
        <time>2020-06-20T18:22:46Z</time>
      </trkpt>
      <trkpt lat="43.7619" lon="5.88913">
        <ele>335.6</ele>
        <time>2020-06-20T18:22:48Z</time>
      </trkpt>
      <trkpt lat="43.76196" lon="5.88915">
        <ele>335.3</ele>
        <time>2020-06-20T18:22:50Z</time>
      </trkpt>
      <trkpt lat="43.76203" lon="5.88919">
        <ele>334.8</ele>
        <time>2020-06-20T18:22:52Z</time>
      </trkpt>
      <trkpt lat="43.76207" lon="5.88921">
        <ele>334.6</ele>
        <time>2020-06-20T18:22:53Z</time>
      </trkpt>
      <trkpt lat="43.76211" lon="5.88923">
        <ele>334.2</ele>
        <time>2020-06-20T18:22:54Z</time>
      </trkpt>
      <trkpt lat="43.7622" lon="5.88927">
        <ele>333.6</ele>
        <time>2020-06-20T18:22:56Z</time>
      </trkpt>
      <trkpt lat="43.76226" lon="5.8893">
        <ele>333.2</ele>
        <time>2020-06-20T18:22:58Z</time>
      </trkpt>
      <trkpt lat="43.7623" lon="5.88935">
        <ele>332.8</ele>
        <time>2020-06-20T18:22:59Z</time>
      </trkpt>
      <trkpt lat="43.76233" lon="5.88943">
        <ele>332.4</ele>
        <time>2020-06-20T18:23:01Z</time>
      </trkpt>
      <trkpt lat="43.76232" lon="5.88956">
        <ele>331.9</ele>
        <time>2020-06-20T18:23:02Z</time>
      </trkpt>
      <trkpt lat="43.76229" lon="5.88962">
        <ele>331.6</ele>
        <time>2020-06-20T18:23:03Z</time>
      </trkpt>
      <trkpt lat="43.76225" lon="5.88974">
        <ele>331.1</ele>
        <time>2020-06-20T18:23:05Z</time>
      </trkpt>
      <trkpt lat="43.76224" lon="5.88987">
        <ele>330.7</ele>
        <time>2020-06-20T18:23:07Z</time>
      </trkpt>
      <trkpt lat="43.76224" lon="5.88994">
        <ele>330.5</ele>
        <time>2020-06-20T18:23:08Z</time>
      </trkpt>
      <trkpt lat="43.76224" lon="5.89004">
        <ele>330.2</ele>
        <time>2020-06-20T18:23:10Z</time>
      </trkpt>
      <trkpt lat="43.76224" lon="5.89">
        <ele>330</ele>
        <time>2020-06-20T18:23:11Z</time>
      </trkpt>
      <trkpt lat="43.76218" lon="5.89009">
        <ele>329.6</ele>
        <time>2020-06-20T18:23:13Z</time>
      </trkpt>
      <trkpt lat="43.76215" lon="5.89013">
        <ele>329.5</ele>
        <time>2020-06-20T18:23:14Z</time>
      </trkpt>
      <trkpt lat="43.76213" lon="5.89015">
        <ele>329.5</ele>
        <time>2020-06-20T18:23:15Z</time>
      </trkpt>
      <trkpt lat="43.76212" lon="5.89019">
        <ele>329.5</ele>
        <time>2020-06-20T18:23:17Z</time>
      </trkpt>
      <trkpt lat="43.76213" lon="5.89023">
        <ele>329.4</ele>
        <time>2020-06-20T18:23:18Z</time>
      </trkpt>
      <trkpt lat="43.76214" lon="5.89023">
        <ele>329.4</ele>
        <time>2020-06-20T18:23:19Z</time>
      </trkpt>
      <trkpt lat="43.76214" lon="5.89024">
        <ele>329.4</ele>
        <time>2020-06-20T18:23:20Z</time>
      </trkpt>
      <trkpt lat="43.76214" lon="5.89024">
        <ele>329.4</ele>
        <time>2020-06-20T18:23:22Z</time>
      </trkpt>
      <trkpt lat="43.76214" lon="5.89024">
        <ele>329.4</ele>
        <time>2020-06-20T18:23:23Z</time>
      </trkpt>
      <trkpt lat="43.76214" lon="5.89024">
        <ele>329.4</ele>
        <time>2020-06-20T18:23:25Z</time>
      </trkpt>
      <trkpt lat="43.76215" lon="5.89021">
        <ele>329.4</ele>
        <time>2020-06-20T18:23:27Z</time>
      </trkpt>
      <trkpt lat="43.76218" lon="5.89018">
        <ele>329.3</ele>
        <time>2020-06-20T18:23:28Z</time>
      </trkpt>
      <trkpt lat="43.7622" lon="5.89016">
        <ele>329.3</ele>
        <time>2020-06-20T18:23:30Z</time>
      </trkpt>
      <trkpt lat="43.76219" lon="5.89017">
        <ele>329.3</ele>
        <time>2020-06-20T18:23:32Z</time>
      </trkpt>
      <trkpt lat="43.76218" lon="5.89017">
        <ele>329.3</ele>
        <time>2020-06-20T18:23:34Z</time>
      </trkpt>
      <trkpt lat="43.76218" lon="5.89018">
        <ele>329.3</ele>
        <time>2020-06-20T18:23:36Z</time>
      </trkpt>
      <trkpt lat="43.76217" lon="5.89018">
        <ele>329.2</ele>
        <time>2020-06-20T18:23:37Z</time>
      </trkpt>
      <trkpt lat="43.76216" lon="5.89018">
        <ele>329.2</ele>
        <time>2020-06-20T18:23:38Z</time>
      </trkpt>
      <trkpt lat="43.76216" lon="5.89019">
        <ele>329.2</ele>
        <time>2020-06-20T18:23:40Z</time>
      </trkpt>
      <trkpt lat="43.76215" lon="5.89019">
        <ele>329.2</ele>
        <time>2020-06-20T18:23:42Z</time>
      </trkpt>
      <trkpt lat="43.76214" lon="5.8902">
        <ele>329.2</ele>
        <time>2020-06-20T18:23:44Z</time>
      </trkpt>
      <trkpt lat="43.76214" lon="5.8902">
        <ele>329.2</ele>
        <time>2020-06-20T18:23:45Z</time>
      </trkpt>
      <trkpt lat="43.76212" lon="5.89022">
        <ele>329.2</ele>
        <time>2020-06-20T18:23:47Z</time>
      </trkpt>
      <trkpt lat="43.76212" lon="5.89021">
        <ele>329.2</ele>
        <time>2020-06-20T18:23:48Z</time>
      </trkpt>
      <trkpt lat="43.76212" lon="5.89022">
        <ele>329.2</ele>
        <time>2020-06-20T18:23:50Z</time>
      </trkpt>
      <trkpt lat="43.76212" lon="5.89023">
        <ele>329.2</ele>
        <time>2020-06-20T18:23:51Z</time>
      </trkpt>
      <trkpt lat="43.76212" lon="5.89023">
        <ele>329.2</ele>
        <time>2020-06-20T18:23:52Z</time>
      </trkpt>
      <trkpt lat="43.76212" lon="5.89022">
        <ele>329.1</ele>
        <time>2020-06-20T18:23:54Z</time>
      </trkpt>
      <trkpt lat="43.76212" lon="5.89022">
        <ele>329.1</ele>
        <time>2020-06-20T18:23:55Z</time>
      </trkpt>
      <trkpt lat="43.76212" lon="5.89025">
        <ele>329.1</ele>
        <time>2020-06-20T18:24:00Z</time>
      </trkpt>
      <trkpt lat="43.76212" lon="5.89025">
        <ele>329.1</ele>
        <time>2020-06-20T18:24:01Z</time>
      </trkpt>
      <trkpt lat="43.76212" lon="5.89028">
        <ele>329.1</ele>
        <time>2020-06-20T18:24:07Z</time>
      </trkpt>
      <trkpt lat="43.76208" lon="5.89048">
        <ele>328.9</ele>
        <time>2020-06-20T18:24:14Z</time>
      </trkpt>
      <trkpt lat="43.76205" lon="5.89049">
        <ele>328.8</ele>
        <time>2020-06-20T18:24:20Z</time>
      </trkpt>
      <trkpt lat="43.76205" lon="5.89048">
        <ele>328.8</ele>
        <time>2020-06-20T18:24:26Z</time>
      </trkpt>
      <trkpt lat="43.76204" lon="5.8905">
        <ele>328.8</ele>
        <time>2020-06-20T18:24:32Z</time>
      </trkpt>
      <trkpt lat="43.76207" lon="5.89052">
        <ele>328.8</ele>
        <time>2020-06-20T18:25:38Z</time>
      </trkpt>
      <trkpt lat="43.76207" lon="5.8905">
        <ele>328.7</ele>
        <time>2020-06-20T18:25:44Z</time>
      </trkpt>
      <trkpt lat="43.76207" lon="5.89049">
        <ele>328.7</ele>
        <time>2020-06-20T18:25:50Z</time>
      </trkpt>
      <trkpt lat="43.76207" lon="5.89048">
        <ele>328.7</ele>
        <time>2020-06-20T18:25:56Z</time>
      </trkpt>
      <trkpt lat="43.76208" lon="5.89048">
        <ele>328.7</ele>
        <time>2020-06-20T18:26:02Z</time>
      </trkpt>
    </trkseg>
  </trk>
</gpx>